<?xml version='1.0' encoding='UTF-8'?><gpx version="1.1" creator="JPX - https://github.com/jenetics/jpx" xmlns="http://www.topografix.com/GPX/1/1"><trk><trkseg><trkpt lat="40.92445690492447" lon="9.518305346653463"><ele>0.0</ele><time>2026-04-04T07:21:49.999Z</time></trkpt><trkpt lat="40.92441650303779" lon="9.518198609051328"><ele>0.0</ele><time>2026-04-04T07:21:55.999Z</time></trkpt><trkpt lat="40.92438759488131" lon="9.518092481136604"><ele>0.0</ele><time>2026-04-04T07:21:57.999Z</time></trkpt><trkpt lat="40.92437272764092" lon="9.517999940517603"><ele>0.0</ele><time>2026-04-04T07:21:58.999Z</time></trkpt><trkpt lat="40.92435628916449" lon="9.517915888465488"><ele>0.0</ele><time>2026-04-04T07:21:59.999Z</time></trkpt><trkpt lat="40.92434132265446" lon="9.517770909850793"><ele>0.0</ele><time>2026-04-04T07:22:01.999Z</time></trkpt><trkpt lat="40.92433676409217" lon="9.517676163334258"><ele>0.0</ele><time>2026-04-04T07:22:02.999Z</time></trkpt><trkpt lat="40.924320908519576" lon="9.51757638275685"><ele>0.0</ele><time>2026-04-04T07:22:03.999Z</time></trkpt><trkpt lat="40.924310229635395" lon="9.517474349136641"><ele>0.0</ele><time>2026-04-04T07:22:04.999Z</time></trkpt><trkpt lat="40.924302026793555" lon="9.517377507451226"><ele>0.0</ele><time>2026-04-04T07:22:05.999Z</time></trkpt><trkpt lat="40.92429652842161" lon="9.517277737401653"><ele>0.0</ele><time>2026-04-04T07:22:06.999Z</time></trkpt><trkpt lat="40.924283576703985" lon="9.517181190421635"><ele>0.0</ele><time>2026-04-04T07:22:07.999Z</time></trkpt><trkpt lat="40.92427060715223" lon="9.517083814793216"><ele>0.0</ele><time>2026-04-04T07:22:08.999Z</time></trkpt><trkpt lat="40.92426329961854" lon="9.516987344973058"><ele>0.0</ele><time>2026-04-04T07:22:09.999Z</time></trkpt><trkpt lat="40.924253281864445" lon="9.516889364016583"><ele>0.0</ele><time>2026-04-04T07:22:10.999Z</time></trkpt><trkpt lat="40.924245279955215" lon="9.516780931666347"><ele>0.0</ele><time>2026-04-04T07:22:11.999Z</time></trkpt><trkpt lat="40.924225431941196" lon="9.516653186878159"><ele>0.0</ele><time>2026-04-04T07:22:12.999Z</time></trkpt><trkpt lat="40.92421874585318" lon="9.516538062331557"><ele>0.0</ele><time>2026-04-04T07:22:13.999Z</time></trkpt><trkpt lat="40.92420644633084" lon="9.516436993261435"><ele>0.14285714285714285</ele><time>2026-04-04T07:22:14.999Z</time></trkpt><trkpt lat="40.924208814349946" lon="9.516351515841563"><ele>0.2857142857142857</ele><time>2026-04-04T07:22:15.999Z</time></trkpt><trkpt lat="40.924202404797356" lon="9.516268402777454"><ele>0.42857142857142855</ele><time>2026-04-04T07:22:16.999Z</time></trkpt><trkpt lat="40.924188607476914" lon="9.516173215460702"><ele>0.5714285714285714</ele><time>2026-04-04T07:22:17.999Z</time></trkpt><trkpt lat="40.92417695557893" lon="9.516062537428644"><ele>0.7142857142857142</ele><time>2026-04-04T07:22:18.999Z</time></trkpt><trkpt lat="40.92417128900602" lon="9.515956391115768"><ele>0.8571428571428571</ele><time>2026-04-04T07:22:19.999Z</time></trkpt><trkpt lat="40.924167542464204" lon="9.515866326993507"><ele>1.0</ele><time>2026-04-04T07:22:20.999Z</time></trkpt><trkpt lat="40.924160631219515" lon="9.515781325202266"><ele>0.9999999999999999</ele><time>2026-04-04T07:22:21.999Z</time></trkpt><trkpt lat="40.92415431735038" lon="9.515687919713402"><ele>1.0</ele><time>2026-04-04T07:22:22.999Z</time></trkpt><trkpt lat="40.924147455665455" lon="9.515589864753991"><ele>1.0</ele><time>2026-04-04T07:22:23.999Z</time></trkpt><trkpt lat="40.924142681383344" lon="9.515489154100635"><ele>1.0</ele><time>2026-04-04T07:22:24.999Z</time></trkpt><trkpt lat="40.92413404796629" lon="9.515387559243008"><ele>0.9999999999999999</ele><time>2026-04-04T07:22:25.999Z</time></trkpt><trkpt lat="40.92413114096962" lon="9.51527418321284"><ele>1.0</ele><time>2026-04-04T07:22:26.999Z</time></trkpt><trkpt lat="40.9241336236993" lon="9.515166319276753"><ele>1.0</ele><time>2026-04-04T07:22:27.999Z</time></trkpt><trkpt lat="40.92413767222603" lon="9.515078840594313"><ele>1.0</ele><time>2026-04-04T07:22:28.999Z</time></trkpt><trkpt lat="40.92414757140828" lon="9.514917129350739"><ele>1.0</ele><time>2026-04-04T07:22:30.999Z</time></trkpt><trkpt lat="40.92414799965006" lon="9.514813726250091"><ele>1.0</ele><time>2026-04-04T07:22:31.999Z</time></trkpt><trkpt lat="40.92413508309754" lon="9.514564630532847"><ele>1.0</ele><time>2026-04-04T07:22:33.999Z</time></trkpt><trkpt lat="40.924149108514584" lon="9.514405754965527"><ele>1.0</ele><time>2026-04-04T07:22:34.999Z</time></trkpt><trkpt lat="40.9241693356523" lon="9.514249040639255"><ele>1.0</ele><time>2026-04-04T07:22:35.999Z</time></trkpt><trkpt lat="40.924193597725775" lon="9.514091864787611"><ele>1.0</ele><time>2026-04-04T07:22:36.999Z</time></trkpt><trkpt lat="40.92422438460903" lon="9.513906833026777"><ele>0.6666666666666666</ele><time>2026-04-04T07:22:37.999Z</time></trkpt><trkpt lat="40.92426235628687" lon="9.51367743769063"><ele>0.3333333333333333</ele><time>2026-04-04T07:22:38.999Z</time></trkpt><trkpt lat="40.924299170244886" lon="9.51343291292147"><ele>0.0</ele><time>2026-04-04T07:22:39.999Z</time></trkpt><trkpt lat="40.92432930422658" lon="9.513204202926442"><ele>0.0</ele><time>2026-04-04T07:22:40.999Z</time></trkpt><trkpt lat="40.92436209041076" lon="9.512974066276874"><ele>0.0</ele><time>2026-04-04T07:22:41.999Z</time></trkpt><trkpt lat="40.924397471445104" lon="9.512757141324606"><ele>0.0</ele><time>2026-04-04T07:22:42.999Z</time></trkpt><trkpt lat="40.924430678711786" lon="9.512555250774358"><ele>0.0</ele><time>2026-04-04T07:22:43.999Z</time></trkpt><trkpt lat="40.92446278393792" lon="9.51234853249585"><ele>0.0</ele><time>2026-04-04T07:22:44.999Z</time></trkpt><trkpt lat="40.92449583155135" lon="9.512141763522658"><ele>0.0</ele><time>2026-04-04T07:22:45.999Z</time></trkpt><trkpt lat="40.92452861449023" lon="9.511934554064355"><ele>0.0</ele><time>2026-04-04T07:22:46.999Z</time></trkpt><trkpt lat="40.92456204485742" lon="9.511724854553975"><ele>0.0</ele><time>2026-04-04T07:22:47.999Z</time></trkpt><trkpt lat="40.924593592183825" lon="9.511526860302704"><ele>0.0</ele><time>2026-04-04T07:22:48.999Z</time></trkpt><trkpt lat="40.92462398581725" lon="9.511337387503684"><ele>0.0</ele><time>2026-04-04T07:22:49.999Z</time></trkpt><trkpt lat="40.924655579939255" lon="9.511150905676304"><ele>0.0</ele><time>2026-04-04T07:22:50.999Z</time></trkpt><trkpt lat="40.92468493237097" lon="9.510969951721409"><ele>0.0</ele><time>2026-04-04T07:22:51.999Z</time></trkpt><trkpt lat="40.92471098624609" lon="9.5107907480839"><ele>0.0</ele><time>2026-04-04T07:22:52.999Z</time></trkpt><trkpt lat="40.9247382953564" lon="9.510616653148437"><ele>0.0</ele><time>2026-04-04T07:22:53.999Z</time></trkpt><trkpt lat="40.92477036058577" lon="9.510440228862484"><ele>0.0</ele><time>2026-04-04T07:22:54.999Z</time></trkpt><trkpt lat="40.924801416250524" lon="9.510270990550456"><ele>0.0</ele><time>2026-04-04T07:22:55.999Z</time></trkpt><trkpt lat="40.924838483066175" lon="9.510101984977545"><ele>0.0</ele><time>2026-04-04T07:22:56.999Z</time></trkpt><trkpt lat="40.92488579274051" lon="9.509936132812262"><ele>0.0</ele><time>2026-04-04T07:22:57.999Z</time></trkpt><trkpt lat="40.92494403468887" lon="9.509776123000446"><ele>0.0</ele><time>2026-04-04T07:22:58.999Z</time></trkpt><trkpt lat="40.92501452815253" lon="9.509619854825013"><ele>0.0</ele><time>2026-04-04T07:22:59.999Z</time></trkpt><trkpt lat="40.92508476549877" lon="9.509483512497017"><ele>0.0</ele><time>2026-04-04T07:23:00.999Z</time></trkpt><trkpt lat="40.92515641183831" lon="9.509366329256546"><ele>0.25</ele><time>2026-04-04T07:23:01.999Z</time></trkpt><trkpt lat="40.92523320015422" lon="9.509255458928243"><ele>0.5</ele><time>2026-04-04T07:23:02.999Z</time></trkpt><trkpt lat="40.92531467350722" lon="9.509148555637708"><ele>0.75</ele><time>2026-04-04T07:23:03.999Z</time></trkpt><trkpt lat="40.925403211902825" lon="9.509042798964757"><ele>1.0</ele><time>2026-04-04T07:23:04.999Z</time></trkpt><trkpt lat="40.92549940921122" lon="9.508939052121935"><ele>1.0</ele><time>2026-04-04T07:23:05.999Z</time></trkpt><trkpt lat="40.92560505129083" lon="9.50883284977981"><ele>1.0</ele><time>2026-04-04T07:23:06.999Z</time></trkpt><trkpt lat="40.925711319987045" lon="9.508730240816767"><ele>1.0</ele><time>2026-04-04T07:23:07.999Z</time></trkpt><trkpt lat="40.92580652269542" lon="9.50863597372999"><ele>1.0</ele><time>2026-04-04T07:23:08.999Z</time></trkpt><trkpt lat="40.92589073096027" lon="9.508549051632873"><ele>1.0</ele><time>2026-04-04T07:23:09.999Z</time></trkpt><trkpt lat="40.925965245390124" lon="9.508466856951664"><ele>1.0</ele><time>2026-04-04T07:23:10.999Z</time></trkpt><trkpt lat="40.92603594114779" lon="9.508386620585934"><ele>1.0</ele><time>2026-04-04T07:23:11.999Z</time></trkpt><trkpt lat="40.92610336857361" lon="9.508308130930693"><ele>1.0</ele><time>2026-04-04T07:23:12.999Z</time></trkpt><trkpt lat="40.92617044975298" lon="9.508220604057637"><ele>1.0</ele><time>2026-04-04T07:23:13.999Z</time></trkpt><trkpt lat="40.92623898664648" lon="9.508116755393985"><ele>1.0</ele><time>2026-04-04T07:23:14.999Z</time></trkpt><trkpt lat="40.926299201422395" lon="9.5080003370738"><ele>1.0</ele><time>2026-04-04T07:23:15.999Z</time></trkpt><trkpt lat="40.92635297895323" lon="9.507881914672721"><ele>1.0</ele><time>2026-04-04T07:23:16.999Z</time></trkpt><trkpt lat="40.92639343385325" lon="9.507751910715449"><ele>1.0</ele><time>2026-04-04T07:23:17.999Z</time></trkpt><trkpt lat="40.92640511520139" lon="9.507628809913218"><ele>1.0</ele><time>2026-04-04T07:23:18.999Z</time></trkpt><trkpt lat="40.926388549120894" lon="9.507517470555618"><ele>1.1428571428571428</ele><time>2026-04-04T07:23:19.999Z</time></trkpt><trkpt lat="40.92635335874343" lon="9.507430423166618"><ele>1.2857142857142856</ele><time>2026-04-04T07:23:20.999Z</time></trkpt><trkpt lat="40.926307985983755" lon="9.507360848475674"><ele>1.4285714285714284</ele><time>2026-04-04T07:23:21.999Z</time></trkpt><trkpt lat="40.92625427471228" lon="9.507297452374264"><ele>1.5714285714285714</ele><time>2026-04-04T07:23:23Z</time></trkpt><trkpt lat="40.926188706833145" lon="9.507287543294451"><ele>1.714285714285714</ele><time>2026-04-04T07:23:24Z</time></trkpt><trkpt lat="40.92609755889918" lon="9.507283777536447"><ele>1.857142857142857</ele><time>2026-04-04T07:23:26Z</time></trkpt><trkpt lat="40.92602729701248" lon="9.507273936042285"><ele>2.0</ele><time>2026-04-04T07:23:27.072Z</time></trkpt><trkpt lat="40.92593781711116" lon="9.507262915765546"><ele>2.0</ele><time>2026-04-04T07:23:29.064Z</time></trkpt><trkpt lat="40.92577252768217" lon="9.507238491981584"><ele>2.0</ele><time>2026-04-04T07:23:32Z</time></trkpt><trkpt lat="40.92542401107701" lon="9.507161347904683"><ele>2.0</ele><time>2026-04-04T07:23:33Z</time></trkpt><trkpt lat="40.92515526574443" lon="9.50704562681853"><ele>2.0</ele><time>2026-04-04T07:23:34Z</time></trkpt><trkpt lat="40.92499813087429" lon="9.50697874525613"><ele>2.0</ele><time>2026-04-04T07:23:35Z</time></trkpt><trkpt lat="40.92485366535594" lon="9.506896180966216"><ele>2.0</ele><time>2026-04-04T07:23:36Z</time></trkpt><trkpt lat="40.92469941743383" lon="9.506788027921756"><ele>2.0</ele><time>2026-04-04T07:23:37Z</time></trkpt><trkpt lat="40.92455762887862" lon="9.50667919018351"><ele>2.0</ele><time>2026-04-04T07:23:38Z</time></trkpt><trkpt lat="40.92445251838102" lon="9.50662123373899"><ele>2.0</ele><time>2026-04-04T07:23:39Z</time></trkpt><trkpt lat="40.92433182653753" lon="9.50653372995507"><ele>2.0</ele><time>2026-04-04T07:23:39.998Z</time></trkpt><trkpt lat="40.92421270065062" lon="9.506431701891849"><ele>2.0</ele><time>2026-04-04T07:23:41.064Z</time></trkpt><trkpt lat="40.92411668139163" lon="9.50634835669071"><ele>2.0</ele><time>2026-04-04T07:23:42.064Z</time></trkpt><trkpt lat="40.923998563588015" lon="9.506245829896729"><ele>2.5</ele><time>2026-04-04T07:23:43.058Z</time></trkpt><trkpt lat="40.92386484607421" lon="9.506129846920901"><ele>3.0</ele><time>2026-04-04T07:23:44.056Z</time></trkpt><trkpt lat="40.92379055987177" lon="9.506065419175638"><ele>3.5</ele><time>2026-04-04T07:23:45.049Z</time></trkpt><trkpt lat="40.92368649652946" lon="9.505975100792572"><ele>4.0</ele><time>2026-04-04T07:23:46.047Z</time></trkpt><trkpt lat="40.922403466896796" lon="9.50476087756539"><ele>3.0</ele><time>2026-04-04T07:23:49.562Z</time></trkpt><trkpt lat="40.922129657951864" lon="9.504289510822082"><ele>2.0</ele><time>2026-04-04T07:23:50.564Z</time></trkpt><trkpt lat="40.921906409393436" lon="9.503775281725861"><ele>2.0</ele><time>2026-04-04T07:23:51.563Z</time></trkpt><trkpt lat="40.92189687684286" lon="9.504021653547102"><ele>2.0</ele><time>2026-04-04T07:23:53.563Z</time></trkpt><trkpt lat="40.92213251305361" lon="9.50452737783413"><ele>1.0</ele><time>2026-04-04T07:23:54.565Z</time></trkpt><trkpt lat="40.922438928847" lon="9.504958778151613"><ele>0.0</ele><time>2026-04-04T07:23:55.562Z</time></trkpt><trkpt lat="40.922807182199875" lon="9.505301588083764"><ele>2.0</ele><time>2026-04-04T07:23:56.565Z</time></trkpt><trkpt lat="40.923183361175745" lon="9.505627758799253"><ele>4.0</ele><time>2026-04-04T07:23:57.565Z</time></trkpt><trkpt lat="40.923560053282316" lon="9.505952867048329"><ele>3.0</ele><time>2026-04-04T07:23:58.565Z</time></trkpt><trkpt lat="40.92393593491032" lon="9.506277162599133"><ele>2.0</ele><time>2026-04-04T07:23:59.562Z</time></trkpt><trkpt lat="40.92431154325332" lon="9.506603220128314"><ele>2.0</ele><time>2026-04-04T07:24:00.561Z</time></trkpt><trkpt lat="40.92164845781242" lon="9.503013809783287"><ele>3.5</ele><time>2026-04-04T07:24:01.999Z</time></trkpt><trkpt lat="40.92162895674362" lon="9.502862380174545"><ele>5.0</ele><time>2026-04-04T07:24:02.999Z</time></trkpt><trkpt lat="40.92145013962651" lon="9.502780353482684"><ele>6.5</ele><time>2026-04-04T07:24:03.999Z</time></trkpt><trkpt lat="40.92137287301949" lon="9.502667649413516"><ele>8.0</ele><time>2026-04-04T07:24:04.999Z</time></trkpt><trkpt lat="40.92130467600215" lon="9.502572566867473"><ele>8.0</ele><time>2026-04-04T07:24:05.999Z</time></trkpt><trkpt lat="40.92125642891045" lon="9.502487006233247"><ele>8.0</ele><time>2026-04-04T07:24:06.999Z</time></trkpt><trkpt lat="40.92119283944591" lon="9.502401005190826"><ele>8.0</ele><time>2026-04-04T07:24:07.999Z</time></trkpt><trkpt lat="40.9211307818827" lon="9.502320016998857"><ele>8.0</ele><time>2026-04-04T07:24:08.999Z</time></trkpt><trkpt lat="40.92105348391699" lon="9.502226602713995"><ele>8.0</ele><time>2026-04-04T07:24:09.999Z</time></trkpt><trkpt lat="40.920977087860074" lon="9.502146765806712"><ele>8.166666666666666</ele><time>2026-04-04T07:24:10.999Z</time></trkpt><trkpt lat="40.92091248275486" lon="9.502078780907686"><ele>8.333333333333332</ele><time>2026-04-04T07:24:11.999Z</time></trkpt><trkpt lat="40.92085574291687" lon="9.502038771644976"><ele>8.5</ele><time>2026-04-04T07:24:12.999Z</time></trkpt><trkpt lat="40.92079147870224" lon="9.502006424565852"><ele>8.666666666666666</ele><time>2026-04-04T07:24:13.999Z</time></trkpt><trkpt lat="40.92072510328127" lon="9.501948227141535"><ele>8.833333333333334</ele><time>2026-04-04T07:24:14.999Z</time></trkpt><trkpt lat="40.920653645364936" lon="9.501889780934173"><ele>9.0</ele><time>2026-04-04T07:24:15.999Z</time></trkpt><trkpt lat="40.92057222056921" lon="9.501831429086668"><ele>8.0</ele><time>2026-04-04T07:24:16.999Z</time></trkpt><trkpt lat="40.92048515289172" lon="9.501772571464196"><ele>7.0</ele><time>2026-04-04T07:24:17.999Z</time></trkpt><trkpt lat="40.92039078117576" lon="9.501713489592893"><ele>6.0</ele><time>2026-04-04T07:24:18.999Z</time></trkpt><trkpt lat="40.92029250185908" lon="9.501653737532093"><ele>5.0</ele><time>2026-04-04T07:24:19.999Z</time></trkpt><trkpt lat="40.920194192584574" lon="9.501606939277325"><ele>4.0</ele><time>2026-04-04T07:24:20.999Z</time></trkpt><trkpt lat="40.92010742348818" lon="9.501569182269893"><ele>3.2</ele><time>2026-04-04T07:24:21.999Z</time></trkpt><trkpt lat="40.92001922214484" lon="9.501537334947256"><ele>2.4000000000000004</ele><time>2026-04-04T07:24:22.999Z</time></trkpt><trkpt lat="40.91991975841353" lon="9.501503496666615"><ele>1.6</ele><time>2026-04-04T07:24:23.999Z</time></trkpt><trkpt lat="40.919814303613535" lon="9.501474334881731"><ele>0.8</ele><time>2026-04-04T07:24:24.999Z</time></trkpt><trkpt lat="40.91970839864383" lon="9.501453241826042"><ele>0.0</ele><time>2026-04-04T07:24:25.999Z</time></trkpt><trkpt lat="40.91961490320617" lon="9.501441119252453"><ele>0.0</ele><time>2026-04-04T07:24:26.999Z</time></trkpt><trkpt lat="40.91951975724705" lon="9.501429368455835"><ele>0.0</ele><time>2026-04-04T07:24:27.999Z</time></trkpt><trkpt lat="40.91941732338343" lon="9.50142037004168"><ele>0.0</ele><time>2026-04-04T07:24:28.999Z</time></trkpt><trkpt lat="40.91930730568044" lon="9.501416321195295"><ele>0.0</ele><time>2026-04-04T07:24:29.999Z</time></trkpt><trkpt lat="40.919191554936326" lon="9.501419826403897"><ele>0.0</ele><time>2026-04-04T07:24:30.999Z</time></trkpt><trkpt lat="40.91908664377163" lon="9.501426549871084"><ele>0.0</ele><time>2026-04-04T07:24:31.999Z</time></trkpt><trkpt lat="40.91900511833757" lon="9.501433601100274"><ele>0.0</ele><time>2026-04-04T07:24:32.999Z</time></trkpt><trkpt lat="40.91893911987865" lon="9.5014381910286"><ele>0.0</ele><time>2026-04-04T07:24:33.999Z</time></trkpt><trkpt lat="40.91882786098067" lon="9.501443219983793"><ele>0.0</ele><time>2026-04-04T07:24:35.999Z</time></trkpt><trkpt lat="40.918698414013676" lon="9.50143151557621"><ele>0.0</ele><time>2026-04-04T07:24:37.999Z</time></trkpt><trkpt lat="40.91861074032956" lon="9.501435635124299"><ele>0.0</ele><time>2026-04-04T07:24:38.999Z</time></trkpt><trkpt lat="40.91851542024373" lon="9.501440113955915"><ele>0.0</ele><time>2026-04-04T07:24:39.999Z</time></trkpt><trkpt lat="40.91840979615291" lon="9.501466985338258"><ele>0.0</ele><time>2026-04-04T07:24:40.999Z</time></trkpt><trkpt lat="40.918305640831676" lon="9.501469912800607"><ele>0.0</ele><time>2026-04-04T07:24:41.999Z</time></trkpt><trkpt lat="40.918200302896395" lon="9.501474960353864"><ele>0.0</ele><time>2026-04-04T07:24:42.999Z</time></trkpt><trkpt lat="40.9180966864048" lon="9.50147908289947"><ele>0.0</ele><time>2026-04-04T07:24:43.999Z</time></trkpt><trkpt lat="40.91798930072797" lon="9.501483176930748"><ele>0.0</ele><time>2026-04-04T07:24:44.999Z</time></trkpt><trkpt lat="40.91789074247511" lon="9.501488198746058"><ele>0.0</ele><time>2026-04-04T07:24:45.999Z</time></trkpt><trkpt lat="40.917789051629086" lon="9.501494690593871"><ele>0.0</ele><time>2026-04-04T07:24:46.999Z</time></trkpt><trkpt lat="40.91768098417424" lon="9.50149973761054"><ele>0.0</ele><time>2026-04-04T07:24:47.999Z</time></trkpt><trkpt lat="40.917583498872965" lon="9.501505448632223"><ele>0.0</ele><time>2026-04-04T07:24:48.999Z</time></trkpt><trkpt lat="40.91749052896321" lon="9.501489613436844"><ele>0.0</ele><time>2026-04-04T07:24:49.999Z</time></trkpt><trkpt lat="40.91740586684487" lon="9.501493767068228"><ele>0.0</ele><time>2026-04-04T07:24:50.999Z</time></trkpt><trkpt lat="40.917324783408475" lon="9.501497745124299"><ele>0.0</ele><time>2026-04-04T07:24:51.999Z</time></trkpt><trkpt lat="40.91723202558963" lon="9.501502295940885"><ele>0.0</ele><time>2026-04-04T07:24:52.999Z</time></trkpt><trkpt lat="40.917130093541736" lon="9.50152750142953"><ele>0.0</ele><time>2026-04-04T07:24:53.999Z</time></trkpt><trkpt lat="40.91702729113895" lon="9.501531295055706"><ele>0.0</ele><time>2026-04-04T07:24:54.999Z</time></trkpt><trkpt lat="40.91692472066018" lon="9.501535381549926"><ele>0.0</ele><time>2026-04-04T07:24:55.999Z</time></trkpt><trkpt lat="40.91681985211963" lon="9.501541233249087"><ele>0.0</ele><time>2026-04-04T07:24:56.999Z</time></trkpt><trkpt lat="40.91672529198163" lon="9.501545632315127"><ele>0.0</ele><time>2026-04-04T07:24:57.999Z</time></trkpt><trkpt lat="40.91662445217685" lon="9.501550487236054"><ele>0.2</ele><time>2026-04-04T07:24:58.999Z</time></trkpt><trkpt lat="40.91652152874076" lon="9.501556874280414"><ele>0.4</ele><time>2026-04-04T07:24:59.999Z</time></trkpt><trkpt lat="40.91641932951198" lon="9.50156190260716"><ele>0.6000000000000001</ele><time>2026-04-04T07:25:00.999Z</time></trkpt><trkpt lat="40.91631233821822" lon="9.501566255560403"><ele>0.8</ele><time>2026-04-04T07:25:01.999Z</time></trkpt><trkpt lat="40.91619885721581" lon="9.501570474629915"><ele>1.0</ele><time>2026-04-04T07:25:02.999Z</time></trkpt><trkpt lat="40.916085855828555" lon="9.50157618301947"><ele>1.0</ele><time>2026-04-04T07:25:03.999Z</time></trkpt><trkpt lat="40.915969460104776" lon="9.501581776256844"><ele>1.0</ele><time>2026-04-04T07:25:04.999Z</time></trkpt><trkpt lat="40.91584801074818" lon="9.501589327981192"><ele>1.0</ele><time>2026-04-04T07:25:05.999Z</time></trkpt><trkpt lat="40.9157240301478" lon="9.501595303564132"><ele>1.0</ele><time>2026-04-04T07:25:06.999Z</time></trkpt><trkpt lat="40.91559773414239" lon="9.501600963417038"><ele>1.0</ele><time>2026-04-04T07:25:07.999Z</time></trkpt><trkpt lat="40.91547049981136" lon="9.501608439433857"><ele>1.0</ele><time>2026-04-04T07:25:08.999Z</time></trkpt><trkpt lat="40.915339264552365" lon="9.50161585756711"><ele>1.0</ele><time>2026-04-04T07:25:09.999Z</time></trkpt><trkpt lat="40.91521242170834" lon="9.50162307823277"><ele>1.0</ele><time>2026-04-04T07:25:10.999Z</time></trkpt><trkpt lat="40.91507463473187" lon="9.50162981686451"><ele>1.75</ele><time>2026-04-04T07:25:11.999Z</time></trkpt><trkpt lat="40.91492591646474" lon="9.501634435326059"><ele>2.5</ele><time>2026-04-04T07:25:12.999Z</time></trkpt><trkpt lat="40.91477620572576" lon="9.501639355368832"><ele>3.25</ele><time>2026-04-04T07:25:13.999Z</time></trkpt><trkpt lat="40.91462637292672" lon="9.501648547417112"><ele>4.0</ele><time>2026-04-04T07:25:14.999Z</time></trkpt><trkpt lat="40.91448038540771" lon="9.501656893347434"><ele>4.0</ele><time>2026-04-04T07:25:15.999Z</time></trkpt><trkpt lat="40.91433168632778" lon="9.50166895940807"><ele>4.0</ele><time>2026-04-04T07:25:16.998Z</time></trkpt><trkpt lat="40.91417796268955" lon="9.501685649422056"><ele>4.0</ele><time>2026-04-04T07:25:17.998Z</time></trkpt><trkpt lat="40.914026474162945" lon="9.501712362337397"><ele>4.333333333333333</ele><time>2026-04-04T07:25:18.998Z</time></trkpt><trkpt lat="40.91387258277326" lon="9.501747170317211"><ele>4.666666666666667</ele><time>2026-04-04T07:25:19.998Z</time></trkpt><trkpt lat="40.913710282779206" lon="9.501791569078486"><ele>5.0</ele><time>2026-04-04T07:25:20.998Z</time></trkpt><trkpt lat="40.91354328162052" lon="9.501842698810066"><ele>3.666666666666667</ele><time>2026-04-04T07:25:21.998Z</time></trkpt><trkpt lat="40.91338259657871" lon="9.501898538115995"><ele>2.3333333333333335</ele><time>2026-04-04T07:25:22.998Z</time></trkpt><trkpt lat="40.91321591331875" lon="9.501962799071354"><ele>1.0</ele><time>2026-04-04T07:25:23.998Z</time></trkpt><trkpt lat="40.91305087198003" lon="9.502036183024774"><ele>0.6666666666666666</ele><time>2026-04-04T07:25:24.998Z</time></trkpt><trkpt lat="40.91289047312136" lon="9.50211732992765"><ele>0.3333333333333333</ele><time>2026-04-04T07:25:25.998Z</time></trkpt><trkpt lat="40.91273759006963" lon="9.502210031554617"><ele>0.0</ele><time>2026-04-04T07:25:26.998Z</time></trkpt><trkpt lat="40.912582514536815" lon="9.502312739304687"><ele>0.6666666666666666</ele><time>2026-04-04T07:25:27.998Z</time></trkpt><trkpt lat="40.912433494736455" lon="9.502416303539894"><ele>1.3333333333333333</ele><time>2026-04-04T07:25:28.998Z</time></trkpt><trkpt lat="40.912286989392015" lon="9.502528431792824"><ele>2.0</ele><time>2026-04-04T07:25:29.998Z</time></trkpt><trkpt lat="40.91214672143043" lon="9.502645568408381"><ele>2.0</ele><time>2026-04-04T07:25:30.998Z</time></trkpt><trkpt lat="40.91201018053604" lon="9.50276818076481"><ele>2.0</ele><time>2026-04-04T07:25:31.998Z</time></trkpt><trkpt lat="40.91188799572402" lon="9.502885258954292"><ele>2.0</ele><time>2026-04-04T07:25:32.998Z</time></trkpt><trkpt lat="40.911766073993554" lon="9.503009254163652"><ele>3.0</ele><time>2026-04-04T07:25:33.998Z</time></trkpt><trkpt lat="40.911645890078944" lon="9.503138913278555"><ele>4.0</ele><time>2026-04-04T07:25:34.998Z</time></trkpt><trkpt lat="40.91152580213433" lon="9.503275297640895"><ele>5.0</ele><time>2026-04-04T07:25:35.998Z</time></trkpt><trkpt lat="40.91141507756258" lon="9.503411962381216"><ele>5.0</ele><time>2026-04-04T07:25:36.998Z</time></trkpt><trkpt lat="40.91131091075066" lon="9.503547538335376"><ele>5.0</ele><time>2026-04-04T07:25:37.998Z</time></trkpt><trkpt lat="40.91122162021483" lon="9.503675887210706"><ele>5.0</ele><time>2026-04-04T07:25:38.998Z</time></trkpt><trkpt lat="40.91113283201549" lon="9.503808058716555"><ele>5.0</ele><time>2026-04-04T07:25:39.998Z</time></trkpt><trkpt lat="40.911040236952054" lon="9.503948218931669"><ele>4.666666666666667</ele><time>2026-04-04T07:25:40.998Z</time></trkpt><trkpt lat="40.91094824184619" lon="9.504094860300402"><ele>4.333333333333333</ele><time>2026-04-04T07:25:41.998Z</time></trkpt><trkpt lat="40.91085441270455" lon="9.5042539701391"><ele>4.0</ele><time>2026-04-04T07:25:42.998Z</time></trkpt><trkpt lat="40.9107616359602" lon="9.50442796555351"><ele>4.333333333333333</ele><time>2026-04-04T07:25:43.998Z</time></trkpt><trkpt lat="40.91067017417635" lon="9.504617405350704"><ele>4.666666666666667</ele><time>2026-04-04T07:25:44.997Z</time></trkpt><trkpt lat="40.910568897624486" lon="9.504842176854746"><ele>5.0</ele><time>2026-04-04T07:25:45.997Z</time></trkpt><trkpt lat="40.91047352574785" lon="9.505076670646002"><ele>5.0</ele><time>2026-04-04T07:25:46.997Z</time></trkpt><trkpt lat="40.91038414623515" lon="9.505321889320069"><ele>5.0</ele><time>2026-04-04T07:25:47.997Z</time></trkpt><trkpt lat="40.91029453802102" lon="9.505592481247367"><ele>5.0</ele><time>2026-04-04T07:25:48.997Z</time></trkpt><trkpt lat="40.91021974661024" lon="9.505863274653583"><ele>5.0</ele><time>2026-04-04T07:25:49.997Z</time></trkpt><trkpt lat="40.91015032623682" lon="9.506134552576205"><ele>5.0</ele><time>2026-04-04T07:25:50.997Z</time></trkpt><trkpt lat="40.91009250029186" lon="9.506413663968008"><ele>5.0</ele><time>2026-04-04T07:25:51.997Z</time></trkpt><trkpt lat="40.9100443396059" lon="9.506672953226818"><ele>5.333333333333334</ele><time>2026-04-04T07:25:52.998Z</time></trkpt><trkpt lat="40.910006231648225" lon="9.506923054404737"><ele>5.666666666666667</ele><time>2026-04-04T07:25:53.998Z</time></trkpt><trkpt lat="40.90998261327858" lon="9.507142112958144"><ele>6.0</ele><time>2026-04-04T07:25:54.998Z</time></trkpt><trkpt lat="40.90995960660699" lon="9.507345383500535"><ele>7.0</ele><time>2026-04-04T07:25:55.998Z</time></trkpt><trkpt lat="40.90993672531292" lon="9.50753281634573"><ele>8.0</ele><time>2026-04-04T07:25:56.998Z</time></trkpt><trkpt lat="40.90991411423559" lon="9.507705340043486"><ele>9.0</ele><time>2026-04-04T07:25:57.998Z</time></trkpt><trkpt lat="40.90988652067831" lon="9.507861807302358"><ele>10.0</ele><time>2026-04-04T07:25:58.998Z</time></trkpt><trkpt lat="40.909850721298355" lon="9.50800266677957"><ele>11.25</ele><time>2026-04-04T07:25:59.998Z</time></trkpt><trkpt lat="40.90978888526412" lon="9.508123007927571"><ele>12.5</ele><time>2026-04-04T07:26:00.998Z</time></trkpt><trkpt lat="40.909704151812" lon="9.50821320319136"><ele>13.75</ele><time>2026-04-04T07:26:01.998Z</time></trkpt><trkpt lat="40.9095893875277" lon="9.508265297348883"><ele>15.0</ele><time>2026-04-04T07:26:02.998Z</time></trkpt><trkpt lat="40.90946980825461" lon="9.508310368661169"><ele>15.0</ele><time>2026-04-04T07:26:03.998Z</time></trkpt><trkpt lat="40.90936716611434" lon="9.508384310998593"><ele>15.0</ele><time>2026-04-04T07:26:04.998Z</time></trkpt><trkpt lat="40.909300252359216" lon="9.50849374056978"><ele>15.0</ele><time>2026-04-04T07:26:05.999Z</time></trkpt><trkpt lat="40.909259166105855" lon="9.508625727294987"><ele>15.0</ele><time>2026-04-04T07:26:06.999Z</time></trkpt><trkpt lat="40.90925248670476" lon="9.508774635963118"><ele>15.0</ele><time>2026-04-04T07:26:07.999Z</time></trkpt><trkpt lat="40.909268204412214" lon="9.508927339153807"><ele>15.0</ele><time>2026-04-04T07:26:08.999Z</time></trkpt><trkpt lat="40.909307887370765" lon="9.50907094506036"><ele>15.0</ele><time>2026-04-04T07:26:09.999Z</time></trkpt><trkpt lat="40.90936957516647" lon="9.509182236488822"><ele>15.0</ele><time>2026-04-04T07:26:10.999Z</time></trkpt><trkpt lat="40.9094334362848" lon="9.50928844899436"><ele>15.0</ele><time>2026-04-04T07:26:11.999Z</time></trkpt><trkpt lat="40.90950024012899" lon="9.509396359465397"><ele>15.0</ele><time>2026-04-04T07:26:12.999Z</time></trkpt><trkpt lat="40.90956120731026" lon="9.509504307409589"><ele>15.333333333333334</ele><time>2026-04-04T07:26:13.999Z</time></trkpt><trkpt lat="40.9095981670398" lon="9.50960826369782"><ele>15.666666666666668</ele><time>2026-04-04T07:26:14.999Z</time></trkpt><trkpt lat="40.90962360072691" lon="9.509709724967406"><ele>16.0</ele><time>2026-04-04T07:26:15.999Z</time></trkpt><trkpt lat="40.90963830554137" lon="9.509807031117699"><ele>16.333333333333336</ele><time>2026-04-04T07:26:16.999Z</time></trkpt><trkpt lat="40.90964446174122" lon="9.509894681393265"><ele>16.666666666666668</ele><time>2026-04-04T07:26:17.999Z</time></trkpt><trkpt lat="40.90964169182789" lon="9.509994001344541"><ele>17.0</ele><time>2026-04-04T07:26:18.999Z</time></trkpt><trkpt lat="40.909636463067926" lon="9.510098460272244"><ele>16.999999999999996</ele><time>2026-04-04T07:26:19.999Z</time></trkpt><trkpt lat="40.9096274797995" lon="9.510192021343844"><ele>17.0</ele><time>2026-04-04T07:26:20.999Z</time></trkpt><trkpt lat="40.90961596128494" lon="9.510280741307758"><ele>17.0</ele><time>2026-04-04T07:26:21.999Z</time></trkpt><trkpt lat="40.90960338692189" lon="9.510370273089318"><ele>17.0</ele><time>2026-04-04T07:26:22.999Z</time></trkpt><trkpt lat="40.90959088352997" lon="9.510465418983834"><ele>17.0</ele><time>2026-04-04T07:26:23.999Z</time></trkpt><trkpt lat="40.909579014054344" lon="9.510569430992113"><ele>16.999999999999996</ele><time>2026-04-04T07:26:24.999Z</time></trkpt><trkpt lat="40.90956942002615" lon="9.510677283263801"><ele>17.0</ele><time>2026-04-04T07:26:25.999Z</time></trkpt><trkpt lat="40.90955816101641" lon="9.510786400023752"><ele>17.0</ele><time>2026-04-04T07:26:26.999Z</time></trkpt><trkpt lat="40.909545453771884" lon="9.510890483550309"><ele>17.0</ele><time>2026-04-04T07:26:27.999Z</time></trkpt><trkpt lat="40.90953293334025" lon="9.51099248600635"><ele>17.0</ele><time>2026-04-04T07:26:28.999Z</time></trkpt><trkpt lat="40.90951836092175" lon="9.511099456572566"><ele>17.0</ele><time>2026-04-04T07:26:29.999Z</time></trkpt><trkpt lat="40.90950267373054" lon="9.51120741949738"><ele>17.0</ele><time>2026-04-04T07:26:30.999Z</time></trkpt><trkpt lat="40.909488864091465" lon="9.51130985216381"><ele>17.0</ele><time>2026-04-04T07:26:31.999Z</time></trkpt><trkpt lat="40.90947431481312" lon="9.5114142175416"><ele>17.0</ele><time>2026-04-04T07:26:32.999Z</time></trkpt><trkpt lat="40.90946178951687" lon="9.511516977427542"><ele>17.0</ele><time>2026-04-04T07:26:33.999Z</time></trkpt><trkpt lat="40.90944776549339" lon="9.511623156262102"><ele>17.0</ele><time>2026-04-04T07:26:34.999Z</time></trkpt><trkpt lat="40.90943522313964" lon="9.511715901485081"><ele>17.0</ele><time>2026-04-04T07:26:35.999Z</time></trkpt><trkpt lat="40.909418455356914" lon="9.51180832605157"><ele>17.0</ele><time>2026-04-04T07:26:36.999Z</time></trkpt><trkpt lat="40.909396883344456" lon="9.511900947489044"><ele>17.0</ele><time>2026-04-04T07:26:37.999Z</time></trkpt><trkpt lat="40.909367006470085" lon="9.511990012366928"><ele>17.2</ele><time>2026-04-04T07:26:38.999Z</time></trkpt><trkpt lat="40.90932578521682" lon="9.512082605549343"><ele>17.4</ele><time>2026-04-04T07:26:39.999Z</time></trkpt><trkpt lat="40.90930048093135" lon="9.512192145867866"><ele>17.6</ele><time>2026-04-04T07:26:40.999Z</time></trkpt><trkpt lat="40.90928862948386" lon="9.512334435947588"><ele>17.8</ele><time>2026-04-04T07:26:41.999Z</time></trkpt><trkpt lat="40.909290083281405" lon="9.512493869733298"><ele>18.0</ele><time>2026-04-04T07:26:42.999Z</time></trkpt><trkpt lat="40.90928552483516" lon="9.51265988965481"><ele>18.0</ele><time>2026-04-04T07:26:43.999Z</time></trkpt><trkpt lat="40.90927211733138" lon="9.51283231994792"><ele>18.0</ele><time>2026-04-04T07:26:44.999Z</time></trkpt><trkpt lat="40.90925406144851" lon="9.512992337453342"><ele>18.0</ele><time>2026-04-04T07:26:45.999Z</time></trkpt><trkpt lat="40.90923660213107" lon="9.51313651956968"><ele>18.0</ele><time>2026-04-04T07:26:46.999Z</time></trkpt><trkpt lat="40.90922248425618" lon="9.51326723182287"><ele>17.8</ele><time>2026-04-04T07:26:47.999Z</time></trkpt><trkpt lat="40.909210564017656" lon="9.513395496662996"><ele>17.6</ele><time>2026-04-04T07:26:48.999Z</time></trkpt><trkpt lat="40.909190781274354" lon="9.513529481187451"><ele>17.4</ele><time>2026-04-04T07:26:49.999Z</time></trkpt><trkpt lat="40.90916160503403" lon="9.513655668161691"><ele>17.2</ele><time>2026-04-04T07:26:50.999Z</time></trkpt><trkpt lat="40.9091099100201" lon="9.513749564570054"><ele>17.0</ele><time>2026-04-04T07:26:51.999Z</time></trkpt><trkpt lat="40.90904243559063" lon="9.513831605519318"><ele>17.0</ele><time>2026-04-04T07:26:52.999Z</time></trkpt><trkpt lat="40.90894737254502" lon="9.51389448068106"><ele>17.0</ele><time>2026-04-04T07:26:53.999Z</time></trkpt><trkpt lat="40.90885166851918" lon="9.513951565409698"><ele>17.0</ele><time>2026-04-04T07:26:54.999Z</time></trkpt><trkpt lat="40.908789355967976" lon="9.514018734855425"><ele>17.0</ele><time>2026-04-04T07:26:55.999Z</time></trkpt><trkpt lat="40.908758235305164" lon="9.514114026305304"><ele>17.0</ele><time>2026-04-04T07:26:56.999Z</time></trkpt><trkpt lat="40.9087520081498" lon="9.51423120278872"><ele>17.0</ele><time>2026-04-04T07:26:57.999Z</time></trkpt><trkpt lat="40.9087740555372" lon="9.514357921354742"><ele>17.0</ele><time>2026-04-04T07:26:58.999Z</time></trkpt><trkpt lat="40.90881601031477" lon="9.514476485308624"><ele>17.0</ele><time>2026-04-04T07:26:59.999Z</time></trkpt><trkpt lat="40.90884993064438" lon="9.514604857933083"><ele>17.0</ele><time>2026-04-04T07:27:00.999Z</time></trkpt><trkpt lat="40.90885425865921" lon="9.51475648688273"><ele>17.0</ele><time>2026-04-04T07:27:01.999Z</time></trkpt><trkpt lat="40.908828193166784" lon="9.514913893314102"><ele>17.0</ele><time>2026-04-04T07:27:02.999Z</time></trkpt><trkpt lat="40.908790863564846" lon="9.51508149596432"><ele>17.0</ele><time>2026-04-04T07:27:03.999Z</time></trkpt><trkpt lat="40.90877424025949" lon="9.515243682816777"><ele>17.0</ele><time>2026-04-04T07:27:04.999Z</time></trkpt><trkpt lat="40.908764278668905" lon="9.515384290394667"><ele>17.0</ele><time>2026-04-04T07:27:05.999Z</time></trkpt><trkpt lat="40.90875105381558" lon="9.515520834537282"><ele>17.0</ele><time>2026-04-04T07:27:06.999Z</time></trkpt><trkpt lat="40.90873720498985" lon="9.515661131677001"><ele>17.0</ele><time>2026-04-04T07:27:07.999Z</time></trkpt><trkpt lat="40.90871890686862" lon="9.515821947593754"><ele>17.0</ele><time>2026-04-04T07:27:08.999Z</time></trkpt><trkpt lat="40.90869900415374" lon="9.515996584555777"><ele>17.0</ele><time>2026-04-04T07:27:09.999Z</time></trkpt><trkpt lat="40.90868472201759" lon="9.516162600604071"><ele>16.4</ele><time>2026-04-04T07:27:10.999Z</time></trkpt><trkpt lat="40.90867286156299" lon="9.516311061048274"><ele>15.799999999999999</ele><time>2026-04-04T07:27:12Z</time></trkpt><trkpt lat="40.9086601636099" lon="9.516450209999995"><ele>15.2</ele><time>2026-04-04T07:27:13Z</time></trkpt><trkpt lat="40.908647957577166" lon="9.516592011306324"><ele>14.6</ele><time>2026-04-04T07:27:14Z</time></trkpt><trkpt lat="40.9086444229187" lon="9.51671751272717"><ele>14.0</ele><time>2026-04-04T07:27:15Z</time></trkpt><trkpt lat="40.908649034535564" lon="9.516830360024734"><ele>14.000000000000002</ele><time>2026-04-04T07:27:16Z</time></trkpt><trkpt lat="40.908653934345104" lon="9.5169197209741"><ele>14.0</ele><time>2026-04-04T07:27:17Z</time></trkpt><trkpt lat="40.90863841185408" lon="9.517025180995446"><ele>14.0</ele><time>2026-04-04T07:27:19Z</time></trkpt><trkpt lat="40.90858278783186" lon="9.517159213257502"><ele>14.0</ele><time>2026-04-04T07:27:22Z</time></trkpt><trkpt lat="40.908538982750045" lon="9.51722947755496"><ele>14.000000000000002</ele><time>2026-04-04T07:27:23Z</time></trkpt><trkpt lat="40.90851037028197" lon="9.51736472547129"><ele>14.0</ele><time>2026-04-04T07:27:25Z</time></trkpt><trkpt lat="40.90855093513213" lon="9.517508215784847"><ele>13.799999999999999</ele><time>2026-04-04T07:27:27Z</time></trkpt><trkpt lat="40.908637750752376" lon="9.517610237855946"><ele>13.599999999999998</ele><time>2026-04-04T07:27:29Z</time></trkpt><trkpt lat="40.90872482550912" lon="9.517692531166984"><ele>13.4</ele><time>2026-04-04T07:27:31Z</time></trkpt><trkpt lat="40.90874669621521" lon="9.51780080700403"><ele>13.2</ele><time>2026-04-04T07:27:32Z</time></trkpt><trkpt lat="40.908763984895856" lon="9.517897346752633"><ele>13.0</ele><time>2026-04-04T07:27:33Z</time></trkpt><trkpt lat="40.90876712698886" lon="9.51801838723557"><ele>12.200000000000001</ele><time>2026-04-04T07:27:34Z</time></trkpt><trkpt lat="40.90876269601914" lon="9.518140502460918"><ele>11.4</ele><time>2026-04-04T07:27:35Z</time></trkpt><trkpt lat="40.908755432707665" lon="9.518266907984904"><ele>10.600000000000001</ele><time>2026-04-04T07:27:36Z</time></trkpt><trkpt lat="40.908741878059175" lon="9.518427151387135"><ele>9.8</ele><time>2026-04-04T07:27:37Z</time></trkpt><trkpt lat="40.908727315091504" lon="9.51861050593017"><ele>9.0</ele><time>2026-04-04T07:27:38Z</time></trkpt><trkpt lat="40.90870675404648" lon="9.51881068316216"><ele>8.75</ele><time>2026-04-04T07:27:39Z</time></trkpt><trkpt lat="40.9086823194259" lon="9.51901065539003"><ele>8.5</ele><time>2026-04-04T07:27:40Z</time></trkpt><trkpt lat="40.908659778021004" lon="9.519206804153868"><ele>8.25</ele><time>2026-04-04T07:27:41Z</time></trkpt><trkpt lat="40.90863906693086" lon="9.51938982830355"><ele>8.0</ele><time>2026-04-04T07:27:42Z</time></trkpt><trkpt lat="40.90861999736221" lon="9.519562793474844"><ele>8.0</ele><time>2026-04-04T07:27:43Z</time></trkpt><trkpt lat="40.908601025842" lon="9.51973451054722"><ele>8.0</ele><time>2026-04-04T07:27:44Z</time></trkpt><trkpt lat="40.90858199314846" lon="9.519910439629811"><ele>8.0</ele><time>2026-04-04T07:27:45Z</time></trkpt><trkpt lat="40.90856160938178" lon="9.520098254757484"><ele>8.0</ele><time>2026-04-04T07:27:46Z</time></trkpt><trkpt lat="40.908540398202675" lon="9.520296022964235"><ele>8.0</ele><time>2026-04-04T07:27:47Z</time></trkpt><trkpt lat="40.90852131345765" lon="9.520494949404073"><ele>8.0</ele><time>2026-04-04T07:27:48Z</time></trkpt><trkpt lat="40.90850347127963" lon="9.520691922144314"><ele>8.0</ele><time>2026-04-04T07:27:49Z</time></trkpt><trkpt lat="40.90848064048033" lon="9.520867953989764"><ele>8.0</ele><time>2026-04-04T07:27:50.999Z</time></trkpt><trkpt lat="40.908462193136664" lon="9.521021702884644"><ele>8.0</ele><time>2026-04-04T07:27:51.999Z</time></trkpt><trkpt lat="40.90843733166024" lon="9.521147254028996"><ele>8.0</ele><time>2026-04-04T07:27:52.999Z</time></trkpt><trkpt lat="40.90839774579888" lon="9.521255466385027"><ele>8.0</ele><time>2026-04-04T07:27:53.999Z</time></trkpt><trkpt lat="40.90834757474795" lon="9.521348470314562"><ele>8.0</ele><time>2026-04-04T07:27:54.999Z</time></trkpt><trkpt lat="40.9082809788492" lon="9.521435711923344"><ele>8.0</ele><time>2026-04-04T07:27:55.999Z</time></trkpt><trkpt lat="40.90821280059053" lon="9.521538324719055"><ele>8.0</ele><time>2026-04-04T07:27:56.999Z</time></trkpt><trkpt lat="40.908159044925654" lon="9.52165936423559"><ele>8.0</ele><time>2026-04-04T07:27:57.999Z</time></trkpt><trkpt lat="40.90813702835548" lon="9.521778072310848"><ele>8.0</ele><time>2026-04-04T07:27:58.999Z</time></trkpt><trkpt lat="40.908144866014304" lon="9.52190183592399"><ele>8.0</ele><time>2026-04-04T07:27:59.999Z</time></trkpt><trkpt lat="40.90817282582634" lon="9.52202878723736"><ele>8.0</ele><time>2026-04-04T07:28:00.999Z</time></trkpt><trkpt lat="40.90821813795296" lon="9.52215649786188"><ele>8.0</ele><time>2026-04-04T07:28:01.999Z</time></trkpt><trkpt lat="40.908261102674835" lon="9.52230011417903"><ele>8.0</ele><time>2026-04-04T07:28:02.999Z</time></trkpt><trkpt lat="40.90828694255416" lon="9.522469758798598"><ele>8.0</ele><time>2026-04-04T07:28:03.999Z</time></trkpt><trkpt lat="40.90830333767705" lon="9.52265414525038"><ele>8.0</ele><time>2026-04-04T07:28:04.999Z</time></trkpt><trkpt lat="40.90829505150485" lon="9.522843435900432"><ele>8.5</ele><time>2026-04-04T07:28:05.999Z</time></trkpt><trkpt lat="40.90827709843479" lon="9.523018914549985"><ele>9.0</ele><time>2026-04-04T07:28:06.999Z</time></trkpt><trkpt lat="40.9082530092818" lon="9.523188353017462"><ele>9.5</ele><time>2026-04-04T07:28:07.999Z</time></trkpt><trkpt lat="40.90823651372879" lon="9.523344908090655"><ele>10.0</ele><time>2026-04-04T07:28:08.999Z</time></trkpt><trkpt lat="40.90822150114414" lon="9.523485767338732"><ele>10.0</ele><time>2026-04-04T07:28:09.999Z</time></trkpt><trkpt lat="40.90820684871298" lon="9.523615072832605"><ele>10.0</ele><time>2026-04-04T07:28:10.999Z</time></trkpt><trkpt lat="40.908193995044265" lon="9.523735478135086"><ele>10.0</ele><time>2026-04-04T07:28:12Z</time></trkpt><trkpt lat="40.90818511308722" lon="9.52384698377579"><ele>10.0</ele><time>2026-04-04T07:28:13Z</time></trkpt><trkpt lat="40.90817230542549" lon="9.523958662442224"><ele>10.0</ele><time>2026-04-04T07:28:14Z</time></trkpt><trkpt lat="40.908161789491935" lon="9.524079876137211"><ele>10.6</ele><time>2026-04-04T07:28:15Z</time></trkpt><trkpt lat="40.90814876575224" lon="9.52420632684952"><ele>11.2</ele><time>2026-04-04T07:28:16Z</time></trkpt><trkpt lat="40.90813385521982" lon="9.524337273281146"><ele>11.8</ele><time>2026-04-04T07:28:17Z</time></trkpt><trkpt lat="40.90811924315123" lon="9.52447726714145"><ele>12.4</ele><time>2026-04-04T07:28:18Z</time></trkpt><trkpt lat="40.90810184221031" lon="9.52462004142343"><ele>13.0</ele><time>2026-04-04T07:28:19Z</time></trkpt><trkpt lat="40.90808311275013" lon="9.524773202819784"><ele>13.0</ele><time>2026-04-04T07:28:20Z</time></trkpt><trkpt lat="40.908066126102725" lon="9.5249246457778"><ele>13.0</ele><time>2026-04-04T07:28:21Z</time></trkpt><trkpt lat="40.90805191318233" lon="9.52507282546198"><ele>13.0</ele><time>2026-04-04T07:28:22Z</time></trkpt><trkpt lat="40.9080393985468" lon="9.525220295015256"><ele>13.0</ele><time>2026-04-04T07:28:23Z</time></trkpt><trkpt lat="40.90802484354549" lon="9.525367566099442"><ele>13.0</ele><time>2026-04-04T07:28:24Z</time></trkpt><trkpt lat="40.908009151543354" lon="9.525506328248039"><ele>13.0</ele><time>2026-04-04T07:28:25Z</time></trkpt><trkpt lat="40.90799310004339" lon="9.525619919970012"><ele>13.0</ele><time>2026-04-04T07:28:26Z</time></trkpt><trkpt lat="40.90797929930126" lon="9.5257317398062"><ele>13.0</ele><time>2026-04-04T07:28:27Z</time></trkpt><trkpt lat="40.90795980012973" lon="9.525892849477108"><ele>13.0</ele><time>2026-04-04T07:28:29Z</time></trkpt><trkpt lat="40.90794249592193" lon="9.52605656148245"><ele>13.0</ele><time>2026-04-04T07:28:31Z</time></trkpt><trkpt lat="40.907934256907765" lon="9.526154453959455"><ele>13.0</ele><time>2026-04-04T07:28:32Z</time></trkpt><trkpt lat="40.907925857408316" lon="9.526262749244378"><ele>13.0</ele><time>2026-04-04T07:28:33Z</time></trkpt><trkpt lat="40.90791747380296" lon="9.526383274852948"><ele>13.0</ele><time>2026-04-04T07:28:34Z</time></trkpt><trkpt lat="40.907908497464895" lon="9.526515175645832"><ele>13.0</ele><time>2026-04-04T07:28:35Z</time></trkpt><trkpt lat="40.90789803531081" lon="9.526650287160535"><ele>13.0</ele><time>2026-04-04T07:28:36Z</time></trkpt><trkpt lat="40.907887568793356" lon="9.526779641786868"><ele>13.0</ele><time>2026-04-04T07:28:37Z</time></trkpt><trkpt lat="40.90787378179465" lon="9.526916166143971"><ele>13.0</ele><time>2026-04-04T07:28:38Z</time></trkpt><trkpt lat="40.907858703085346" lon="9.527067903816482"><ele>13.0</ele><time>2026-04-04T07:28:39Z</time></trkpt><trkpt lat="40.907845962316685" lon="9.527218045614328"><ele>13.0</ele><time>2026-04-04T07:28:40Z</time></trkpt><trkpt lat="40.90783211295587" lon="9.52739576650376"><ele>12.25</ele><time>2026-04-04T07:28:41Z</time></trkpt><trkpt lat="40.90782056558409" lon="9.527585127487965"><ele>11.5</ele><time>2026-04-04T07:28:42Z</time></trkpt><trkpt lat="40.90781897353452" lon="9.52776200145065"><ele>10.75</ele><time>2026-04-04T07:28:43Z</time></trkpt><trkpt lat="40.9078248676432" lon="9.527946288455459"><ele>10.0</ele><time>2026-04-04T07:28:44Z</time></trkpt><trkpt lat="40.90784995677961" lon="9.528158764209511"><ele>9.333333333333334</ele><time>2026-04-04T07:28:45Z</time></trkpt><trkpt lat="40.907890696475015" lon="9.528385692794544"><ele>8.666666666666666</ele><time>2026-04-04T07:28:46Z</time></trkpt><trkpt lat="40.90793942628056" lon="9.528611982085804"><ele>8.0</ele><time>2026-04-04T07:28:47Z</time></trkpt><trkpt lat="40.907989562552636" lon="9.528826060059156"><ele>7.666666666666666</ele><time>2026-04-04T07:28:48Z</time></trkpt><trkpt lat="40.908036977450095" lon="9.529034759794229"><ele>7.333333333333334</ele><time>2026-04-04T07:28:49Z</time></trkpt><trkpt lat="40.90808387988533" lon="9.529250227636565"><ele>7.0</ele><time>2026-04-04T07:28:50Z</time></trkpt><trkpt lat="40.90812976278341" lon="9.529464384365252"><ele>7.0</ele><time>2026-04-04T07:28:51Z</time></trkpt><trkpt lat="40.9081718931555" lon="9.529662446757332"><ele>7.0</ele><time>2026-04-04T07:28:52Z</time></trkpt><trkpt lat="40.90820858450429" lon="9.529838006179506"><ele>7.0</ele><time>2026-04-04T07:28:53Z</time></trkpt><trkpt lat="40.908244981360774" lon="9.530009062311352"><ele>7.0</ele><time>2026-04-04T07:28:54Z</time></trkpt><trkpt lat="40.90828313836371" lon="9.530189360705672"><ele>7.0</ele><time>2026-04-04T07:28:55Z</time></trkpt><trkpt lat="40.90832358297816" lon="9.530380426140827"><ele>7.0</ele><time>2026-04-04T07:28:56Z</time></trkpt><trkpt lat="40.908368302332306" lon="9.530591071751706"><ele>7.0</ele><time>2026-04-04T07:28:57Z</time></trkpt><trkpt lat="40.90841447671865" lon="9.530808163529818"><ele>8.0</ele><time>2026-04-04T07:28:58Z</time></trkpt><trkpt lat="40.908466530294575" lon="9.531038611777195"><ele>9.0</ele><time>2026-04-04T07:28:59Z</time></trkpt><trkpt lat="40.908527381108435" lon="9.531293165691634"><ele>10.0</ele><time>2026-04-04T07:29:00Z</time></trkpt><trkpt lat="40.908592402174456" lon="9.53157178073962"><ele>10.5</ele><time>2026-04-04T07:29:01Z</time></trkpt><trkpt lat="40.90865716443757" lon="9.531875369909855"><ele>11.0</ele><time>2026-04-04T07:29:02Z</time></trkpt><trkpt lat="40.90872070747081" lon="9.532196473766064"><ele>11.5</ele><time>2026-04-04T07:29:03Z</time></trkpt><trkpt lat="40.90877813704691" lon="9.532511697462166"><ele>12.0</ele><time>2026-04-04T07:29:04Z</time></trkpt><trkpt lat="40.90883840436882" lon="9.532826187096806"><ele>13.0</ele><time>2026-04-04T07:29:05Z</time></trkpt><trkpt lat="40.90890388525759" lon="9.53313597647377"><ele>14.0</ele><time>2026-04-04T07:29:06Z</time></trkpt><trkpt lat="40.90896579527841" lon="9.533423533480455"><ele>14.0</ele><time>2026-04-04T07:29:07Z</time></trkpt><trkpt lat="40.90901113432103" lon="9.533691152107572"><ele>14.0</ele><time>2026-04-04T07:29:08Z</time></trkpt><trkpt lat="40.909029110639096" lon="9.533955112167032"><ele>14.0</ele><time>2026-04-04T07:29:09Z</time></trkpt><trkpt lat="40.90902479976123" lon="9.534227835178642"><ele>14.666666666666668</ele><time>2026-04-04T07:29:10Z</time></trkpt><trkpt lat="40.909000063943736" lon="9.534508368485577"><ele>15.333333333333332</ele><time>2026-04-04T07:29:11Z</time></trkpt><trkpt lat="40.90894640931158" lon="9.534783234863601"><ele>16.0</ele><time>2026-04-04T07:29:12Z</time></trkpt><trkpt lat="40.90887081842574" lon="9.535046993796428"><ele>16.0</ele><time>2026-04-04T07:29:13Z</time></trkpt><trkpt lat="40.90877488798467" lon="9.535298689519312"><ele>16.0</ele><time>2026-04-04T07:29:14Z</time></trkpt><trkpt lat="40.9086577990611" lon="9.535514059341113"><ele>16.0</ele><time>2026-04-04T07:29:15Z</time></trkpt><trkpt lat="40.90852196852418" lon="9.535712160237678"><ele>12.0</ele><time>2026-04-04T07:29:16Z</time></trkpt><trkpt lat="40.90837362901267" lon="9.53589135559065"><ele>8.0</ele><time>2026-04-04T07:29:17Z</time></trkpt><trkpt lat="40.90820934094888" lon="9.536044976663511"><ele>4.0</ele><time>2026-04-04T07:29:18Z</time></trkpt><trkpt lat="40.90802922645892" lon="9.53617846099109"><ele>3.0</ele><time>2026-04-04T07:29:19Z</time></trkpt><trkpt lat="40.90783916665303" lon="9.536281100879942"><ele>2.0</ele><time>2026-04-04T07:29:20Z</time></trkpt><trkpt lat="40.90764181916482" lon="9.53636140649329"><ele>1.0</ele><time>2026-04-04T07:29:21Z</time></trkpt><trkpt lat="40.907436927563566" lon="9.536401443678502"><ele>1.0</ele><time>2026-04-04T07:29:22Z</time></trkpt><trkpt lat="40.90722581921486" lon="9.536403567585191"><ele>1.0</ele><time>2026-04-04T07:29:23Z</time></trkpt><trkpt lat="40.90701187586117" lon="9.53637894233038"><ele>1.0</ele><time>2026-04-04T07:29:24Z</time></trkpt><trkpt lat="40.906801331229126" lon="9.536328042436995"><ele>0.6666666666666666</ele><time>2026-04-04T07:29:25Z</time></trkpt><trkpt lat="40.90659347688883" lon="9.536242002640241"><ele>0.3333333333333333</ele><time>2026-04-04T07:29:26Z</time></trkpt><trkpt lat="40.90639586874218" lon="9.536153174884817"><ele>0.0</ele><time>2026-04-04T07:29:27Z</time></trkpt><trkpt lat="40.906204826560405" lon="9.536083609056686"><ele>0.0</ele><time>2026-04-04T07:29:28Z</time></trkpt><trkpt lat="40.90602136772176" lon="9.536051181827498"><ele>0.0</ele><time>2026-04-04T07:29:29Z</time></trkpt><trkpt lat="40.90583658489364" lon="9.53605188909892"><ele>0.0</ele><time>2026-04-04T07:29:30Z</time></trkpt><trkpt lat="40.90564602797918" lon="9.536082246139957"><ele>0.3333333333333333</ele><time>2026-04-04T07:29:31Z</time></trkpt><trkpt lat="40.9054644761251" lon="9.53613438947193"><ele>0.6666666666666666</ele><time>2026-04-04T07:29:32Z</time></trkpt><trkpt lat="40.90528382642519" lon="9.536217369367348"><ele>1.0</ele><time>2026-04-04T07:29:33Z</time></trkpt><trkpt lat="40.90510981535797" lon="9.536327713010527"><ele>1.3333333333333333</ele><time>2026-04-04T07:29:34Z</time></trkpt><trkpt lat="40.90495389246591" lon="9.536482856340958"><ele>1.6666666666666665</ele><time>2026-04-04T07:29:35Z</time></trkpt><trkpt lat="40.90480565525374" lon="9.536643594548892"><ele>2.0</ele><time>2026-04-04T07:29:36Z</time></trkpt><trkpt lat="40.904655978782166" lon="9.53682229251803"><ele>2.0</ele><time>2026-04-04T07:29:37Z</time></trkpt><trkpt lat="40.90450888610185" lon="9.537005860182598"><ele>2.0</ele><time>2026-04-04T07:29:38Z</time></trkpt><trkpt lat="40.90436133380936" lon="9.537194901919902"><ele>2.0</ele><time>2026-04-04T07:29:39Z</time></trkpt><trkpt lat="40.90421429943725" lon="9.537385652146538"><ele>2.0</ele><time>2026-04-04T07:29:40Z</time></trkpt><trkpt lat="40.90406706711691" lon="9.537580990928767"><ele>2.0</ele><time>2026-04-04T07:29:41Z</time></trkpt><trkpt lat="40.903925663107984" lon="9.53777243419774"><ele>2.0</ele><time>2026-04-04T07:29:42Z</time></trkpt><trkpt lat="40.9037959324558" lon="9.537946530249878"><ele>1.3333333333333333</ele><time>2026-04-04T07:29:43Z</time></trkpt><trkpt lat="40.90366966717802" lon="9.538116037248729"><ele>0.6666666666666666</ele><time>2026-04-04T07:29:44Z</time></trkpt><trkpt lat="40.90354895695766" lon="9.538277110841127"><ele>0.0</ele><time>2026-04-04T07:29:45Z</time></trkpt><trkpt lat="40.90343404315813" lon="9.538429451240606"><ele>0.3333333333333333</ele><time>2026-04-04T07:29:46Z</time></trkpt><trkpt lat="40.90331577438761" lon="9.538586592367439"><ele>0.6666666666666666</ele><time>2026-04-04T07:29:47Z</time></trkpt><trkpt lat="40.9031965741739" lon="9.538742993056204"><ele>1.0</ele><time>2026-04-04T07:29:48Z</time></trkpt><trkpt lat="40.90306786342052" lon="9.538910475668958"><ele>1.6666666666666665</ele><time>2026-04-04T07:29:49Z</time></trkpt><trkpt lat="40.902948975288794" lon="9.539067634619222"><ele>2.3333333333333335</ele><time>2026-04-04T07:29:50Z</time></trkpt><trkpt lat="40.90281784360283" lon="9.539240601306743"><ele>3.0</ele><time>2026-04-04T07:29:51Z</time></trkpt><trkpt lat="40.90268407269785" lon="9.539418844450585"><ele>3.666666666666667</ele><time>2026-04-04T07:29:52Z</time></trkpt><trkpt lat="40.902558912892516" lon="9.539587808733812"><ele>4.333333333333334</ele><time>2026-04-04T07:29:53Z</time></trkpt><trkpt lat="40.90243549118342" lon="9.539752736486392"><ele>5.0</ele><time>2026-04-04T07:29:54Z</time></trkpt><trkpt lat="40.902320785249806" lon="9.539910266738275"><ele>5.0</ele><time>2026-04-04T07:29:55Z</time></trkpt><trkpt lat="40.902206569856794" lon="9.54006281329702"><ele>5.0</ele><time>2026-04-04T07:29:56Z</time></trkpt><trkpt lat="40.902097958539464" lon="9.540204555943305"><ele>5.0</ele><time>2026-04-04T07:29:57Z</time></trkpt><trkpt lat="40.90199844449737" lon="9.540338070233263"><ele>4.75</ele><time>2026-04-04T07:29:58Z</time></trkpt><trkpt lat="40.901900808501544" lon="9.540468420433353"><ele>4.5</ele><time>2026-04-04T07:29:59Z</time></trkpt><trkpt lat="40.901801016462024" lon="9.540604009987097"><ele>4.25</ele><time>2026-04-04T07:30:00Z</time></trkpt><trkpt lat="40.90169975356624" lon="9.540741314019774"><ele>4.0</ele><time>2026-04-04T07:30:01Z</time></trkpt><trkpt lat="40.90159234637656" lon="9.540884724074331"><ele>4.0</ele><time>2026-04-04T07:30:02Z</time></trkpt><trkpt lat="40.90148165476781" lon="9.541030797388116"><ele>4.0</ele><time>2026-04-04T07:30:03Z</time></trkpt><trkpt lat="40.901364854526534" lon="9.541184212592245"><ele>4.0</ele><time>2026-04-04T07:30:04Z</time></trkpt><trkpt lat="40.90125463241924" lon="9.541332385977631"><ele>3.75</ele><time>2026-04-04T07:30:05Z</time></trkpt><trkpt lat="40.9011471178994" lon="9.541477523880845"><ele>3.5</ele><time>2026-04-04T07:30:06Z</time></trkpt><trkpt lat="40.90104452821459" lon="9.541614400576252"><ele>3.25</ele><time>2026-04-04T07:30:07Z</time></trkpt><trkpt lat="40.9009496308521" lon="9.541743522848632"><ele>3.0</ele><time>2026-04-04T07:30:08Z</time></trkpt><trkpt lat="40.90086103139373" lon="9.541859958039868"><ele>3.0</ele><time>2026-04-04T07:30:09Z</time></trkpt><trkpt lat="40.900770823894916" lon="9.541979093504366"><ele>3.0</ele><time>2026-04-04T07:30:10Z</time></trkpt><trkpt lat="40.90068111254532" lon="9.542092781803023"><ele>3.0</ele><time>2026-04-04T07:30:11Z</time></trkpt><trkpt lat="40.90060024290392" lon="9.54220211478069"><ele>3.0</ele><time>2026-04-04T07:30:12Z</time></trkpt><trkpt lat="40.900533198080616" lon="9.542330577942963"><ele>3.0</ele><time>2026-04-04T07:30:13Z</time></trkpt><trkpt lat="40.90049528012204" lon="9.542490675094085"><ele>3.0</ele><time>2026-04-04T07:30:14Z</time></trkpt><trkpt lat="40.90048157757852" lon="9.542675793785088"><ele>3.0</ele><time>2026-04-04T07:30:15Z</time></trkpt><trkpt lat="40.90047580758492" lon="9.542867205208085"><ele>3.0</ele><time>2026-04-04T07:30:16Z</time></trkpt><trkpt lat="40.90047864134378" lon="9.543055892474767"><ele>3.333333333333333</ele><time>2026-04-04T07:30:17Z</time></trkpt><trkpt lat="40.900500427032675" lon="9.543252522397092"><ele>3.6666666666666665</ele><time>2026-04-04T07:30:18Z</time></trkpt><trkpt lat="40.90055226368649" lon="9.543453742215847"><ele>4.0</ele><time>2026-04-04T07:30:19Z</time></trkpt><trkpt lat="40.90062917909532" lon="9.543646282894429"><ele>5.0</ele><time>2026-04-04T07:30:20Z</time></trkpt><trkpt lat="40.90071341555782" lon="9.543837422277933"><ele>6.0</ele><time>2026-04-04T07:30:21Z</time></trkpt><trkpt lat="40.90080168655346" lon="9.54403143174831"><ele>7.0</ele><time>2026-04-04T07:30:22Z</time></trkpt><trkpt lat="40.900888359977536" lon="9.544234837284955"><ele>6.0</ele><time>2026-04-04T07:30:23Z</time></trkpt><trkpt lat="40.9009789910758" lon="9.544433290983893"><ele>5.0</ele><time>2026-04-04T07:30:24Z</time></trkpt><trkpt lat="40.90106131058798" lon="9.544623553465232"><ele>4.0</ele><time>2026-04-04T07:30:25Z</time></trkpt><trkpt lat="40.90113870644335" lon="9.544796001252283"><ele>4.0</ele><time>2026-04-04T07:30:26Z</time></trkpt><trkpt lat="40.901218041435904" lon="9.544961173776514"><ele>4.0</ele><time>2026-04-04T07:30:27Z</time></trkpt><trkpt lat="40.9013004957248" lon="9.5451120851672"><ele>4.0</ele><time>2026-04-04T07:30:28Z</time></trkpt><trkpt lat="40.901385848429555" lon="9.54524175339694"><ele>4.0</ele><time>2026-04-04T07:30:29Z</time></trkpt><trkpt lat="40.90146548860895" lon="9.545361063970228"><ele>5.25</ele><time>2026-04-04T07:30:30Z</time></trkpt><trkpt lat="40.90153684569217" lon="9.545480865078408"><ele>6.5</ele><time>2026-04-04T07:30:31Z</time></trkpt><trkpt lat="40.901595617905855" lon="9.54560985644185"><ele>7.75</ele><time>2026-04-04T07:30:32Z</time></trkpt><trkpt lat="40.90163993401927" lon="9.5457636985435"><ele>9.0</ele><time>2026-04-04T07:30:33Z</time></trkpt><trkpt lat="40.901683607936434" lon="9.545938092907603"><ele>9.0</ele><time>2026-04-04T07:30:34Z</time></trkpt><trkpt lat="40.90173184833619" lon="9.54612631746283"><ele>9.0</ele><time>2026-04-04T07:30:35Z</time></trkpt><trkpt lat="40.90179159197106" lon="9.54631875682535"><ele>9.0</ele><time>2026-04-04T07:30:36Z</time></trkpt><trkpt lat="40.901870017386365" lon="9.546528219450769"><ele>7.333333333333333</ele><time>2026-04-04T07:30:37Z</time></trkpt><trkpt lat="40.9019532863631" lon="9.54674335624323"><ele>5.666666666666666</ele><time>2026-04-04T07:30:38Z</time></trkpt><trkpt lat="40.90202730596212" lon="9.546944543170119"><ele>4.0</ele><time>2026-04-04T07:30:39Z</time></trkpt><trkpt lat="40.90210374000714" lon="9.547147090132777"><ele>4.0</ele><time>2026-04-04T07:30:40Z</time></trkpt><trkpt lat="40.90220253894426" lon="9.54735090882073"><ele>4.0</ele><time>2026-04-04T07:30:41Z</time></trkpt><trkpt lat="40.9023219064135" lon="9.547544116583136"><ele>4.0</ele><time>2026-04-04T07:30:42Z</time></trkpt><trkpt lat="40.90243045374057" lon="9.547717553950074"><ele>4.0</ele><time>2026-04-04T07:30:43Z</time></trkpt><trkpt lat="40.90252700460288" lon="9.547893194262132"><ele>4.0</ele><time>2026-04-04T07:30:44Z</time></trkpt><trkpt lat="40.90261048481843" lon="9.54807346511124"><ele>4.0</ele><time>2026-04-04T07:30:45Z</time></trkpt><trkpt lat="40.90267651024375" lon="9.548250419783278"><ele>4.0</ele><time>2026-04-04T07:30:46Z</time></trkpt><trkpt lat="40.90273154518177" lon="9.548436547016854"><ele>4.0</ele><time>2026-04-04T07:30:47Z</time></trkpt><trkpt lat="40.90278127728336" lon="9.54863734346081"><ele>4.0</ele><time>2026-04-04T07:30:48Z</time></trkpt><trkpt lat="40.90283371231698" lon="9.548840034284458"><ele>3.6666666666666665</ele><time>2026-04-04T07:30:49Z</time></trkpt><trkpt lat="40.90289138241562" lon="9.549048714221659"><ele>3.333333333333333</ele><time>2026-04-04T07:30:50Z</time></trkpt><trkpt lat="40.9029503783533" lon="9.549262858266488"><ele>3.0</ele><time>2026-04-04T07:30:51Z</time></trkpt><trkpt lat="40.90300890434017" lon="9.54947867517904"><ele>3.0</ele><time>2026-04-04T07:30:52Z</time></trkpt><trkpt lat="40.90306859074033" lon="9.549700776601131"><ele>3.0</ele><time>2026-04-04T07:30:53Z</time></trkpt><trkpt lat="40.90312796340518" lon="9.549927548242326"><ele>3.0</ele><time>2026-04-04T07:30:54Z</time></trkpt><trkpt lat="40.9031859682374" lon="9.550154619378825"><ele>3.333333333333333</ele><time>2026-04-04T07:30:55Z</time></trkpt><trkpt lat="40.9032437824202" lon="9.550382883378928"><ele>3.6666666666666665</ele><time>2026-04-04T07:30:56Z</time></trkpt><trkpt lat="40.90330154985265" lon="9.550601733418704"><ele>4.0</ele><time>2026-04-04T07:30:57Z</time></trkpt><trkpt lat="40.90335698111027" lon="9.550806108539003"><ele>4.0</ele><time>2026-04-04T07:30:58Z</time></trkpt><trkpt lat="40.90340675074606" lon="9.550994658288754"><ele>4.0</ele><time>2026-04-04T07:30:59Z</time></trkpt><trkpt lat="40.90345037679605" lon="9.551176612691476"><ele>4.0</ele><time>2026-04-04T07:31:00Z</time></trkpt><trkpt lat="40.90348872360061" lon="9.551349075626169"><ele>4.0</ele><time>2026-04-04T07:31:01Z</time></trkpt><trkpt lat="40.90352980391925" lon="9.551526440935064"><ele>3.6666666666666665</ele><time>2026-04-04T07:31:02Z</time></trkpt><trkpt lat="40.903566411089635" lon="9.551728260954546"><ele>3.333333333333333</ele><time>2026-04-04T07:31:03Z</time></trkpt><trkpt lat="40.903576877235004" lon="9.551948762113065"><ele>3.0</ele><time>2026-04-04T07:31:04Z</time></trkpt><trkpt lat="40.90353000745797" lon="9.552163973436143"><ele>2.75</ele><time>2026-04-04T07:31:05Z</time></trkpt><trkpt lat="40.90351104039986" lon="9.552360138387789"><ele>2.5</ele><time>2026-04-04T07:31:06Z</time></trkpt><trkpt lat="40.90350696296641" lon="9.55253513322929"><ele>2.25</ele><time>2026-04-04T07:31:07Z</time></trkpt><trkpt lat="40.90356004300676" lon="9.552725801762758"><ele>2.0</ele><time>2026-04-04T07:31:08Z</time></trkpt><trkpt lat="40.903653267569005" lon="9.552900156145403"><ele>2.0</ele><time>2026-04-04T07:31:09Z</time></trkpt><trkpt lat="40.903769097355124" lon="9.55305815004931"><ele>2.0</ele><time>2026-04-04T07:31:10Z</time></trkpt><trkpt lat="40.90387759899264" lon="9.553213280792392"><ele>2.0</ele><time>2026-04-04T07:31:11Z</time></trkpt><trkpt lat="40.90397114972755" lon="9.553358779615554"><ele>2.0</ele><time>2026-04-04T07:31:12Z</time></trkpt><trkpt lat="40.904045796884596" lon="9.553516588923138"><ele>2.0</ele><time>2026-04-04T07:31:13Z</time></trkpt><trkpt lat="40.904094831615204" lon="9.553697569656949"><ele>2.0</ele><time>2026-04-04T07:31:14Z</time></trkpt><trkpt lat="40.90412176480431" lon="9.55389117543086"><ele>2.0</ele><time>2026-04-04T07:31:15Z</time></trkpt><trkpt lat="40.904127945698114" lon="9.55409580321024"><ele>3.0</ele><time>2026-04-04T07:31:16Z</time></trkpt><trkpt lat="40.90413423777452" lon="9.554290577966357"><ele>4.0</ele><time>2026-04-04T07:31:17Z</time></trkpt><trkpt lat="40.90414019178733" lon="9.554469887127777"><ele>5.0</ele><time>2026-04-04T07:31:18Z</time></trkpt><trkpt lat="40.9041584737387" lon="9.554637611360993"><ele>6.0</ele><time>2026-04-04T07:31:19Z</time></trkpt><trkpt lat="40.904199372887234" lon="9.554810831335804"><ele>5.0</ele><time>2026-04-04T07:31:20Z</time></trkpt><trkpt lat="40.90426799528017" lon="9.554977037465846"><ele>4.0</ele><time>2026-04-04T07:31:21Z</time></trkpt><trkpt lat="40.90431842742963" lon="9.555155610397216"><ele>3.0</ele><time>2026-04-04T07:31:22Z</time></trkpt><trkpt lat="40.90431491383176" lon="9.55532793601268"><ele>2.0</ele><time>2026-04-04T07:31:23Z</time></trkpt><trkpt lat="40.90425088365863" lon="9.555491076058404"><ele>4.0</ele><time>2026-04-04T07:31:24Z</time></trkpt><trkpt lat="40.90417792057489" lon="9.555671016371392"><ele>6.0</ele><time>2026-04-04T07:31:25Z</time></trkpt><trkpt lat="40.904105799653316" lon="9.555872588370322"><ele>8.0</ele><time>2026-04-04T07:31:26Z</time></trkpt><trkpt lat="40.904026374549346" lon="9.556052943921381"><ele>8.0</ele><time>2026-04-04T07:31:27Z</time></trkpt><trkpt lat="40.90396163724626" lon="9.556203145955921"><ele>8.0</ele><time>2026-04-04T07:31:28Z</time></trkpt><trkpt lat="40.903902785810494" lon="9.556339479232573"><ele>8.0</ele><time>2026-04-04T07:31:29Z</time></trkpt><trkpt lat="40.903842824986455" lon="9.556459586424406"><ele>8.0</ele><time>2026-04-04T07:31:30Z</time></trkpt><trkpt lat="40.903761964559855" lon="9.556577565438264"><ele>8.75</ele><time>2026-04-04T07:31:31Z</time></trkpt><trkpt lat="40.903657064817686" lon="9.556687796808628"><ele>9.5</ele><time>2026-04-04T07:31:32Z</time></trkpt><trkpt lat="40.90353638457475" lon="9.556791385080418"><ele>10.25</ele><time>2026-04-04T07:31:33Z</time></trkpt><trkpt lat="40.90341523721" lon="9.55690070312196"><ele>11.0</ele><time>2026-04-04T07:31:34Z</time></trkpt><trkpt lat="40.90329472220275" lon="9.557021010612276"><ele>11.75</ele><time>2026-04-04T07:31:35Z</time></trkpt><trkpt lat="40.90317841238523" lon="9.55714317206054"><ele>12.5</ele><time>2026-04-04T07:31:36Z</time></trkpt><trkpt lat="40.903070668983" lon="9.557257159698144"><ele>13.25</ele><time>2026-04-04T07:31:37Z</time></trkpt><trkpt lat="40.90296468524385" lon="9.55737359250484"><ele>14.0</ele><time>2026-04-04T07:31:38Z</time></trkpt><trkpt lat="40.90285673268118" lon="9.557505658666125"><ele>14.0</ele><time>2026-04-04T07:31:39Z</time></trkpt><trkpt lat="40.902737723368766" lon="9.557650714882506"><ele>14.0</ele><time>2026-04-04T07:31:40Z</time></trkpt><trkpt lat="40.90260783118199" lon="9.557808141081264"><ele>14.0</ele><time>2026-04-04T07:31:41Z</time></trkpt><trkpt lat="40.9024627779493" lon="9.557980540521237"><ele>12.666666666666668</ele><time>2026-04-04T07:31:42Z</time></trkpt><trkpt lat="40.90231982751901" lon="9.558158599529948"><ele>11.333333333333334</ele><time>2026-04-04T07:31:43Z</time></trkpt><trkpt lat="40.90214937952662" lon="9.558334425893321"><ele>10.0</ele><time>2026-04-04T07:31:44Z</time></trkpt><trkpt lat="40.90199247345171" lon="9.558523449711549"><ele>10.333333333333334</ele><time>2026-04-04T07:31:45Z</time></trkpt><trkpt lat="40.90183935571224" lon="9.558732222789262"><ele>10.666666666666666</ele><time>2026-04-04T07:31:46Z</time></trkpt><trkpt lat="40.90167958169834" lon="9.558910623516459"><ele>11.0</ele><time>2026-04-04T07:31:47Z</time></trkpt><trkpt lat="40.90152856254446" lon="9.559088269968449"><ele>10.333333333333332</ele><time>2026-04-04T07:31:48Z</time></trkpt><trkpt lat="40.90138319253777" lon="9.55926799541654"><ele>9.666666666666666</ele><time>2026-04-04T07:31:49Z</time></trkpt><trkpt lat="40.901227302244784" lon="9.55946990464573"><ele>9.0</ele><time>2026-04-04T07:31:50Z</time></trkpt><trkpt lat="40.90103142204111" lon="9.559681778547597"><ele>7.5</ele><time>2026-04-04T07:31:51Z</time></trkpt><trkpt lat="40.90083417354074" lon="9.559919547977888"><ele>6.0</ele><time>2026-04-04T07:31:52Z</time></trkpt><trkpt lat="40.900641375452935" lon="9.560169707755493"><ele>5.5</ele><time>2026-04-04T07:31:53Z</time></trkpt><trkpt lat="40.90044543810786" lon="9.560395704831258"><ele>5.0</ele><time>2026-04-04T07:31:54Z</time></trkpt><trkpt lat="40.900259393427724" lon="9.56062061145052"><ele>5.0</ele><time>2026-04-04T07:31:55Z</time></trkpt><trkpt lat="40.900086295246204" lon="9.560832109070702"><ele>5.0</ele><time>2026-04-04T07:31:56Z</time></trkpt><trkpt lat="40.89992315905904" lon="9.561030748173454"><ele>4.666666666666667</ele><time>2026-04-04T07:31:57Z</time></trkpt><trkpt lat="40.89977371157887" lon="9.561214506432446"><ele>4.333333333333333</ele><time>2026-04-04T07:31:58Z</time></trkpt><trkpt lat="40.899630226345415" lon="9.561388734653566"><ele>4.0</ele><time>2026-04-04T07:31:59Z</time></trkpt><trkpt lat="40.89950168465681" lon="9.561541534644897"><ele>4.0</ele><time>2026-04-04T07:32:00Z</time></trkpt><trkpt lat="40.89937267800376" lon="9.561695746106183"><ele>4.0</ele><time>2026-04-04T07:32:01Z</time></trkpt><trkpt lat="40.89924184355095" lon="9.561852884490984"><ele>4.0</ele><time>2026-04-04T07:32:02Z</time></trkpt><trkpt lat="40.899121382481844" lon="9.561997654253693"><ele>4.0</ele><time>2026-04-04T07:32:03Z</time></trkpt><trkpt lat="40.89899477418091" lon="9.562152155303695"><ele>4.0</ele><time>2026-04-04T07:32:04Z</time></trkpt><trkpt lat="40.89885861295724" lon="9.562316573592936"><ele>4.0</ele><time>2026-04-04T07:32:05Z</time></trkpt><trkpt lat="40.89871898787622" lon="9.562488690937787"><ele>4.0</ele><time>2026-04-04T07:32:06.001Z</time></trkpt><trkpt lat="40.898578324602205" lon="9.562660932606388"><ele>4.0</ele><time>2026-04-04T07:32:07.001Z</time></trkpt><trkpt lat="40.898439040314116" lon="9.562827356409157"><ele>4.0</ele><time>2026-04-04T07:32:08.001Z</time></trkpt><trkpt lat="40.898300259862424" lon="9.562993710354021"><ele>3.6666666666666665</ele><time>2026-04-04T07:32:09.001Z</time></trkpt><trkpt lat="40.89816953034604" lon="9.563152935069482"><ele>3.333333333333333</ele><time>2026-04-04T07:32:10.001Z</time></trkpt><trkpt lat="40.898011942234" lon="9.563327635920821"><ele>3.0</ele><time>2026-04-04T07:32:11.001Z</time></trkpt><trkpt lat="40.89784762776724" lon="9.56352548899571"><ele>3.0</ele><time>2026-04-04T07:32:12.001Z</time></trkpt><trkpt lat="40.89766431443732" lon="9.563746046723997"><ele>3.0</ele><time>2026-04-04T07:32:13.001Z</time></trkpt><trkpt lat="40.89747933584631" lon="9.563979466036853"><ele>2.5</ele><time>2026-04-04T07:32:14.001Z</time></trkpt><trkpt lat="40.89727143187099" lon="9.564221615037225"><ele>2.0</ele><time>2026-04-04T07:32:15.001Z</time></trkpt><trkpt lat="40.897058976195254" lon="9.564479677787114"><ele>2.0</ele><time>2026-04-04T07:32:16.001Z</time></trkpt><trkpt lat="40.89685801281687" lon="9.564722000908557"><ele>2.0</ele><time>2026-04-04T07:32:17.001Z</time></trkpt><trkpt lat="40.896657151248164" lon="9.564962763957688"><ele>2.5</ele><time>2026-04-04T07:32:18.001Z</time></trkpt><trkpt lat="40.89645031433147" lon="9.565212183549832"><ele>3.0</ele><time>2026-04-04T07:32:19.001Z</time></trkpt><trkpt lat="40.89624382053043" lon="9.565460269072394"><ele>3.0</ele><time>2026-04-04T07:32:20.001Z</time></trkpt><trkpt lat="40.89604297314676" lon="9.565697959593205"><ele>3.0</ele><time>2026-04-04T07:32:21.001Z</time></trkpt><trkpt lat="40.89586086279371" lon="9.56591175783807"><ele>3.0</ele><time>2026-04-04T07:32:22.001Z</time></trkpt><trkpt lat="40.89569334359668" lon="9.566111676940189"><ele>3.0</ele><time>2026-04-04T07:32:23.001Z</time></trkpt><trkpt lat="40.895534639576034" lon="9.566303157560684"><ele>3.0</ele><time>2026-04-04T07:32:24.001Z</time></trkpt><trkpt lat="40.895384648818435" lon="9.566486963267261"><ele>3.0</ele><time>2026-04-04T07:32:25.001Z</time></trkpt><trkpt lat="40.89524938188619" lon="9.566656716333563"><ele>3.0</ele><time>2026-04-04T07:32:26.001Z</time></trkpt><trkpt lat="40.89512776253319" lon="9.566815194863347"><ele>3.0</ele><time>2026-04-04T07:32:27.001Z</time></trkpt><trkpt lat="40.89501547211684" lon="9.566965788664206"><ele>3.0</ele><time>2026-04-04T07:32:28.001Z</time></trkpt><trkpt lat="40.89491314062895" lon="9.567100401604282"><ele>3.0</ele><time>2026-04-04T07:32:29.001Z</time></trkpt><trkpt lat="40.894816549845835" lon="9.567207856879959"><ele>3.0</ele><time>2026-04-04T07:32:30.001Z</time></trkpt><trkpt lat="40.89471768823206" lon="9.567288578836601"><ele>3.0</ele><time>2026-04-04T07:32:31.001Z</time></trkpt><trkpt lat="40.894619847392995" lon="9.567314165491403"><ele>3.0</ele><time>2026-04-04T07:32:32.001Z</time></trkpt><trkpt lat="40.89452359328519" lon="9.567324181556101"><ele>3.0</ele><time>2026-04-04T07:32:33.001Z</time></trkpt><trkpt lat="40.89445000908292" lon="9.567374416302265"><ele>3.0</ele><time>2026-04-04T07:32:34.001Z</time></trkpt><trkpt lat="40.89439547201213" lon="9.567472036697165"><ele>3.0</ele><time>2026-04-04T07:32:35.001Z</time></trkpt><trkpt lat="40.89437035704687" lon="9.567626865175708"><ele>3.0</ele><time>2026-04-04T07:32:36.001Z</time></trkpt><trkpt lat="40.89434374277971" lon="9.56779677082763"><ele>3.0</ele><time>2026-04-04T07:32:37.001Z</time></trkpt><trkpt lat="40.89427116453651" lon="9.567976073548696"><ele>3.0</ele><time>2026-04-04T07:32:38.001Z</time></trkpt><trkpt lat="40.89416460680045" lon="9.568176895386472"><ele>3.0</ele><time>2026-04-04T07:32:39.001Z</time></trkpt><trkpt lat="40.89404970575102" lon="9.568405008717704"><ele>3.0</ele><time>2026-04-04T07:32:40.001Z</time></trkpt><trkpt lat="40.89394764335926" lon="9.568634013874629"><ele>3.0</ele><time>2026-04-04T07:32:41.001Z</time></trkpt><trkpt lat="40.893849419049936" lon="9.568886370383446"><ele>3.0</ele><time>2026-04-04T07:32:42.001Z</time></trkpt><trkpt lat="40.89376724231203" lon="9.569148529712157"><ele>3.0</ele><time>2026-04-04T07:32:43.001Z</time></trkpt><trkpt lat="40.8936960600649" lon="9.569410358999548"><ele>3.0</ele><time>2026-04-04T07:32:44.001Z</time></trkpt><trkpt lat="40.893629352456024" lon="9.569673419919805"><ele>3.0</ele><time>2026-04-04T07:32:45.001Z</time></trkpt><trkpt lat="40.89356738035297" lon="9.569942932988013"><ele>2.0</ele><time>2026-04-04T07:32:46.001Z</time></trkpt><trkpt lat="40.89350671764464" lon="9.570210877617297"><ele>1.0</ele><time>2026-04-04T07:32:47.001Z</time></trkpt><trkpt lat="40.89344880938622" lon="9.570457408591531"><ele>0.0</ele><time>2026-04-04T07:32:48.001Z</time></trkpt><trkpt lat="40.89339120180317" lon="9.570704828870083"><ele>0.0</ele><time>2026-04-04T07:32:49.001Z</time></trkpt><trkpt lat="40.893333543452954" lon="9.570951894222954"><ele>0.0</ele><time>2026-04-04T07:32:50.001Z</time></trkpt><trkpt lat="40.89327843772427" lon="9.571202210316834"><ele>0.0</ele><time>2026-04-04T07:32:51.001Z</time></trkpt><trkpt lat="40.893220643871" lon="9.571456825916309"><ele>-0.3333333333333333</ele><time>2026-04-04T07:32:52.001Z</time></trkpt><trkpt lat="40.89316187778476" lon="9.571710375010014"><ele>-0.6666666666666666</ele><time>2026-04-04T07:32:53.001Z</time></trkpt><trkpt lat="40.8930998230584" lon="9.571978475397309"><ele>-1.0</ele><time>2026-04-04T07:32:54.001Z</time></trkpt><trkpt lat="40.893032976168016" lon="9.572277442956985"><ele>-1.0</ele><time>2026-04-04T07:32:55.001Z</time></trkpt><trkpt lat="40.89295994961476" lon="9.572587713236356"><ele>-1.0</ele><time>2026-04-04T07:32:56.001Z</time></trkpt><trkpt lat="40.8928875063887" lon="9.57289358453047"><ele>0.0</ele><time>2026-04-04T07:32:57.001Z</time></trkpt><trkpt lat="40.89281804967091" lon="9.573195022895964"><ele>1.0</ele><time>2026-04-04T07:32:58.001Z</time></trkpt><trkpt lat="40.89274723928111" lon="9.573505847845556"><ele>2.0</ele><time>2026-04-04T07:32:59.001Z</time></trkpt><trkpt lat="40.89267542890512" lon="9.573819509465249"><ele>3.0</ele><time>2026-04-04T07:33:00.001Z</time></trkpt><trkpt lat="40.89260079753461" lon="9.574148008723531"><ele>3.0</ele><time>2026-04-04T07:33:01.001Z</time></trkpt><trkpt lat="40.89252822451623" lon="9.574475537963796"><ele>3.0</ele><time>2026-04-04T07:33:02.001Z</time></trkpt><trkpt lat="40.89245245231441" lon="9.574805969208187"><ele>3.0</ele><time>2026-04-04T07:33:03.001Z</time></trkpt><trkpt lat="40.89237330558535" lon="9.57513851344622"><ele>3.0</ele><time>2026-04-04T07:33:04.001Z</time></trkpt><trkpt lat="40.89229332180772" lon="9.575473732095988"><ele>3.0</ele><time>2026-04-04T07:33:05.001Z</time></trkpt><trkpt lat="40.89221451499175" lon="9.575812145163429"><ele>3.0</ele><time>2026-04-04T07:33:06.001Z</time></trkpt><trkpt lat="40.8921363736711" lon="9.576152217627836"><ele>2.5</ele><time>2026-04-04T07:33:07.001Z</time></trkpt><trkpt lat="40.89205782296137" lon="9.576495609782857"><ele>2.0</ele><time>2026-04-04T07:33:08.001Z</time></trkpt><trkpt lat="40.89197807207741" lon="9.5768437598798"><ele>2.0</ele><time>2026-04-04T07:33:09.001Z</time></trkpt><trkpt lat="40.891898031144656" lon="9.577186265217831"><ele>2.0</ele><time>2026-04-04T07:33:10.001Z</time></trkpt><trkpt lat="40.89182182200266" lon="9.577510906708667"><ele>3.0</ele><time>2026-04-04T07:33:11.001Z</time></trkpt><trkpt lat="40.891751679481786" lon="9.57781577595464"><ele>4.0</ele><time>2026-04-04T07:33:12.001Z</time></trkpt><trkpt lat="40.89169209887038" lon="9.578101032757303"><ele>4.333333333333333</ele><time>2026-04-04T07:33:13.001Z</time></trkpt><trkpt lat="40.89164952881591" lon="9.578379172796497"><ele>4.666666666666667</ele><time>2026-04-04T07:33:14.001Z</time></trkpt><trkpt lat="40.89162941630711" lon="9.578673078302176"><ele>5.0</ele><time>2026-04-04T07:33:15.001Z</time></trkpt><trkpt lat="40.891618063194265" lon="9.578976012077813"><ele>5.0</ele><time>2026-04-04T07:33:16.001Z</time></trkpt><trkpt lat="40.89160900341538" lon="9.579289568802302"><ele>5.0</ele><time>2026-04-04T07:33:17.001Z</time></trkpt><trkpt lat="40.8915977998109" lon="9.579597429087366"><ele>4.333333333333334</ele><time>2026-04-04T07:33:18.001Z</time></trkpt><trkpt lat="40.89158475070743" lon="9.57987404910829"><ele>3.666666666666667</ele><time>2026-04-04T07:33:19.001Z</time></trkpt><trkpt lat="40.89157100696814" lon="9.58013263937477"><ele>3.0</ele><time>2026-04-04T07:33:20.001Z</time></trkpt><trkpt lat="40.89155935861283" lon="9.580376425938843"><ele>3.0</ele><time>2026-04-04T07:33:21.001Z</time></trkpt><trkpt lat="40.891547653590685" lon="9.58058825337269"><ele>3.0</ele><time>2026-04-04T07:33:22.001Z</time></trkpt><trkpt lat="40.8915336395778" lon="9.58079713557069"><ele>3.0</ele><time>2026-04-04T07:33:23.001Z</time></trkpt><trkpt lat="40.89152113088371" lon="9.580993595510403"><ele>3.25</ele><time>2026-04-04T07:33:24.001Z</time></trkpt><trkpt lat="40.8915148584122" lon="9.581183651202792"><ele>3.5</ele><time>2026-04-04T07:33:25.001Z</time></trkpt><trkpt lat="40.89150617872108" lon="9.581366905815736"><ele>3.75</ele><time>2026-04-04T07:33:26.001Z</time></trkpt><trkpt lat="40.89149447254287" lon="9.581550480205495"><ele>4.0</ele><time>2026-04-04T07:33:27.001Z</time></trkpt><trkpt lat="40.89148475874204" lon="9.58173279160958"><ele>4.0</ele><time>2026-04-04T07:33:28.001Z</time></trkpt><trkpt lat="40.89147565528029" lon="9.58190248167613"><ele>4.0</ele><time>2026-04-04T07:33:29.001Z</time></trkpt><trkpt lat="40.89146711102256" lon="9.58206699096212"><ele>4.0</ele><time>2026-04-04T07:33:30.001Z</time></trkpt><trkpt lat="40.89145744425515" lon="9.58224618755556"><ele>4.0</ele><time>2026-04-04T07:33:31.001Z</time></trkpt><trkpt lat="40.891448511240746" lon="9.582422733493793"><ele>4.333333333333333</ele><time>2026-04-04T07:33:32.001Z</time></trkpt><trkpt lat="40.891438567937016" lon="9.582612115157975"><ele>4.666666666666667</ele><time>2026-04-04T07:33:33.001Z</time></trkpt><trkpt lat="40.89142053767304" lon="9.58281371348813"><ele>5.0</ele><time>2026-04-04T07:33:34.001Z</time></trkpt><trkpt lat="40.89138505162856" lon="9.583013345403618"><ele>5.666666666666667</ele><time>2026-04-04T07:33:35.001Z</time></trkpt><trkpt lat="40.891336103797606" lon="9.583218971712078"><ele>6.333333333333334</ele><time>2026-04-04T07:33:36.001Z</time></trkpt><trkpt lat="40.89127885467917" lon="9.583409028553685"><ele>7.0</ele><time>2026-04-04T07:33:37.001Z</time></trkpt><trkpt lat="40.891211351636294" lon="9.583571667609096"><ele>7.5</ele><time>2026-04-04T07:33:38.001Z</time></trkpt><trkpt lat="40.89114874552064" lon="9.58373070563152"><ele>8.0</ele><time>2026-04-04T07:33:39.001Z</time></trkpt><trkpt lat="40.89108427934495" lon="9.583896765866967"><ele>8.5</ele><time>2026-04-04T07:33:40.001Z</time></trkpt><trkpt lat="40.89101844394908" lon="9.58406822054522"><ele>9.0</ele><time>2026-04-04T07:33:41.001Z</time></trkpt><trkpt lat="40.89098699212962" lon="9.584149902911552"><ele>9.0</ele><time>2026-04-04T07:33:42.001Z</time></trkpt><trkpt lat="40.890933151557824" lon="9.584288997509242"><ele>9.0</ele><time>2026-04-04T07:33:43.001Z</time></trkpt><trkpt lat="40.890872897806865" lon="9.584438605819768"><ele>9.0</ele><time>2026-04-04T07:33:44.001Z</time></trkpt><trkpt lat="40.89081281884999" lon="9.584601308335632"><ele>9.0</ele><time>2026-04-04T07:33:45.001Z</time></trkpt><trkpt lat="40.89075484483451" lon="9.584761480985424"><ele>9.0</ele><time>2026-04-04T07:33:46.001Z</time></trkpt><trkpt lat="40.89070212041311" lon="9.584903109584817"><ele>9.0</ele><time>2026-04-04T07:33:47.001Z</time></trkpt><trkpt lat="40.89064529089387" lon="9.58504802530552"><ele>9.0</ele><time>2026-04-04T07:33:48.001Z</time></trkpt><trkpt lat="40.89058757555113" lon="9.585189851267572"><ele>9.0</ele><time>2026-04-04T07:33:49.001Z</time></trkpt><trkpt lat="40.890539271427635" lon="9.585321750493481"><ele>9.0</ele><time>2026-04-04T07:33:50.001Z</time></trkpt><trkpt lat="40.890496592550804" lon="9.585444036190093"><ele>9.0</ele><time>2026-04-04T07:33:51.001Z</time></trkpt><trkpt lat="40.890452996251135" lon="9.585550497060416"><ele>9.0</ele><time>2026-04-04T07:33:52.001Z</time></trkpt><trkpt lat="40.89040817787483" lon="9.585658464634601"><ele>9.0</ele><time>2026-04-04T07:33:53.001Z</time></trkpt><trkpt lat="40.89036593419368" lon="9.585784604712032"><ele>9.0</ele><time>2026-04-04T07:33:54.001Z</time></trkpt><trkpt lat="40.89030952114854" lon="9.585913940569167"><ele>9.0</ele><time>2026-04-04T07:33:55.001Z</time></trkpt><trkpt lat="40.890253636911375" lon="9.586053113174435"><ele>9.0</ele><time>2026-04-04T07:33:56.001Z</time></trkpt><trkpt lat="40.890195071638466" lon="9.586172716122695"><ele>9.0</ele><time>2026-04-04T07:33:57.001Z</time></trkpt><trkpt lat="40.8901511589065" lon="9.58628036355819"><ele>9.0</ele><time>2026-04-04T07:33:58.001Z</time></trkpt><trkpt lat="40.89010696669755" lon="9.586378014640559"><ele>9.0</ele><time>2026-04-04T07:33:59.001Z</time></trkpt><trkpt lat="40.890055284688934" lon="9.58647650869953"><ele>9.0</ele><time>2026-04-04T07:34:00.001Z</time></trkpt><trkpt lat="40.89000728585909" lon="9.586595656739508"><ele>9.0</ele><time>2026-04-04T07:34:01.001Z</time></trkpt><trkpt lat="40.88995144969413" lon="9.586726429611922"><ele>9.0</ele><time>2026-04-04T07:34:02.001Z</time></trkpt><trkpt lat="40.88988791128715" lon="9.586872976340477"><ele>9.0</ele><time>2026-04-04T07:34:03.001Z</time></trkpt><trkpt lat="40.889818146482334" lon="9.587026022680522"><ele>9.25</ele><time>2026-04-04T07:34:04.001Z</time></trkpt><trkpt lat="40.889748573279824" lon="9.587175761639678"><ele>9.5</ele><time>2026-04-04T07:34:05.001Z</time></trkpt><trkpt lat="40.88967779962595" lon="9.587332925714838"><ele>9.75</ele><time>2026-04-04T07:34:06.001Z</time></trkpt><trkpt lat="40.8896139080466" lon="9.58746895396714"><ele>10.0</ele><time>2026-04-04T07:34:07.001Z</time></trkpt><trkpt lat="40.88954982977606" lon="9.587595489779567"><ele>10.0</ele><time>2026-04-04T07:34:08.001Z</time></trkpt><trkpt lat="40.88948376029195" lon="9.587715679812877"><ele>10.0</ele><time>2026-04-04T07:34:09.001Z</time></trkpt><trkpt lat="40.88941269161279" lon="9.587832477001424"><ele>10.0</ele><time>2026-04-04T07:34:10.001Z</time></trkpt><trkpt lat="40.88933874972453" lon="9.58794596354867"><ele>10.0</ele><time>2026-04-04T07:34:11.001Z</time></trkpt><trkpt lat="40.889266574903644" lon="9.588050120845129"><ele>10.0</ele><time>2026-04-04T07:34:12.001Z</time></trkpt><trkpt lat="40.88919642830588" lon="9.588151090490454"><ele>10.0</ele><time>2026-04-04T07:34:13.001Z</time></trkpt><trkpt lat="40.8891402275263" lon="9.588236124616463"><ele>10.0</ele><time>2026-04-04T07:34:14.001Z</time></trkpt><trkpt lat="40.88908658705878" lon="9.58831931535751"><ele>10.0</ele><time>2026-04-04T07:34:15.001Z</time></trkpt><trkpt lat="40.889043427176134" lon="9.58838924988499"><ele>10.0</ele><time>2026-04-04T07:34:16.001Z</time></trkpt><trkpt lat="40.88897553426053" lon="9.588487292122526"><ele>10.0</ele><time>2026-04-04T07:34:18.001Z</time></trkpt><trkpt lat="40.88887640682223" lon="9.588548086203778"><ele>10.0</ele><time>2026-04-04T07:34:20.001Z</time></trkpt><trkpt lat="40.888740899648006" lon="9.58859580718091"><ele>10.0</ele><time>2026-04-04T07:34:22.001Z</time></trkpt><trkpt lat="40.888687348559756" lon="9.588643693547317"><ele>10.0</ele><time>2026-04-04T07:34:23.001Z</time></trkpt><trkpt lat="40.888643381653615" lon="9.588717969521468"><ele>10.0</ele><time>2026-04-04T07:34:24.001Z</time></trkpt><trkpt lat="40.88861914893923" lon="9.588806056644719"><ele>10.0</ele><time>2026-04-04T07:34:25.001Z</time></trkpt><trkpt lat="40.888614288672265" lon="9.588895065719571"><ele>10.0</ele><time>2026-04-04T07:34:26.001Z</time></trkpt><trkpt lat="40.88861401872589" lon="9.588981318250035"><ele>10.0</ele><time>2026-04-04T07:34:27.001Z</time></trkpt><trkpt lat="40.88854029493647" lon="9.589123016594415"><ele>10.0</ele><time>2026-04-04T07:34:29.001Z</time></trkpt><trkpt lat="40.8884949747911" lon="9.58921002541022"><ele>10.0</ele><time>2026-04-04T07:34:30.001Z</time></trkpt><trkpt lat="40.888436982901716" lon="9.589282894719268"><ele>10.0</ele><time>2026-04-04T07:34:31.001Z</time></trkpt><trkpt lat="40.88837714805833" lon="9.589364352928825"><ele>10.0</ele><time>2026-04-04T07:34:32.001Z</time></trkpt><trkpt lat="40.88832869279989" lon="9.58943654194929"><ele>10.0</ele><time>2026-04-04T07:34:33.001Z</time></trkpt><trkpt lat="40.888280794600604" lon="9.589508890648974"><ele>10.0</ele><time>2026-04-04T07:34:34.001Z</time></trkpt><trkpt lat="40.888228250569874" lon="9.589587462468085"><ele>10.0</ele><time>2026-04-04T07:34:35.001Z</time></trkpt><trkpt lat="40.88817320718603" lon="9.589664915526017"><ele>10.0</ele><time>2026-04-04T07:34:36.001Z</time></trkpt><trkpt lat="40.88812760813915" lon="9.589729605951566"><ele>10.0</ele><time>2026-04-04T07:34:37.001Z</time></trkpt><trkpt lat="40.88803605296037" lon="9.589849809590795"><ele>10.0</ele><time>2026-04-04T07:34:39.001Z</time></trkpt><trkpt lat="40.88798542732574" lon="9.589923344754443"><ele>10.0</ele><time>2026-04-04T07:34:40.001Z</time></trkpt><trkpt lat="40.88793645220476" lon="9.589997101648486"><ele>10.0</ele><time>2026-04-04T07:34:41.001Z</time></trkpt><trkpt lat="40.88788171781068" lon="9.590077625028826"><ele>10.0</ele><time>2026-04-04T07:34:42.001Z</time></trkpt><trkpt lat="40.88782064058612" lon="9.590171311015919"><ele>10.0</ele><time>2026-04-04T07:34:43.001Z</time></trkpt><trkpt lat="40.88775669391897" lon="9.590277462860703"><ele>10.0</ele><time>2026-04-04T07:34:44.001Z</time></trkpt><trkpt lat="40.88769748778215" lon="9.590380282513639"><ele>10.0</ele><time>2026-04-04T07:34:45.001Z</time></trkpt><trkpt lat="40.88764063253394" lon="9.59047958787757"><ele>10.0</ele><time>2026-04-04T07:34:46.001Z</time></trkpt><trkpt lat="40.887588114680554" lon="9.590576284899129"><ele>10.5</ele><time>2026-04-04T07:34:47.001Z</time></trkpt><trkpt lat="40.88754053129437" lon="9.590665354271179"><ele>11.0</ele><time>2026-04-04T07:34:48.001Z</time></trkpt><trkpt lat="40.88750027027177" lon="9.590741453492711"><ele>11.5</ele><time>2026-04-04T07:34:49.001Z</time></trkpt><trkpt lat="40.887454415391815" lon="9.590832645802271"><ele>12.0</ele><time>2026-04-04T07:34:50.001Z</time></trkpt><trkpt lat="40.88740793936942" lon="9.590920858352527"><ele>12.499999999999998</ele><time>2026-04-04T07:34:51.001Z</time></trkpt><trkpt lat="40.887361872867594" lon="9.591003283073674"><ele>13.0</ele><time>2026-04-04T07:34:52.001Z</time></trkpt><trkpt lat="40.8873194575678" lon="9.59107883588255"><ele>12.75</ele><time>2026-04-04T07:34:53.001Z</time></trkpt><trkpt lat="40.88726364740072" lon="9.591204018374897"><ele>12.5</ele><time>2026-04-04T07:34:55.001Z</time></trkpt><trkpt lat="40.887197253308855" lon="9.591348510216127"><ele>12.25</ele><time>2026-04-04T07:34:57.001Z</time></trkpt><trkpt lat="40.88714590138579" lon="9.591460716820952"><ele>12.0</ele><time>2026-04-04T07:34:58.001Z</time></trkpt><trkpt lat="40.88708818791705" lon="9.591591660073828"><ele>12.0</ele><time>2026-04-04T07:34:59.001Z</time></trkpt><trkpt lat="40.8870173496127" lon="9.59173771053448"><ele>12.0</ele><time>2026-04-04T07:35:00.001Z</time></trkpt><trkpt lat="40.88693057914239" lon="9.59191325848827"><ele>12.0</ele><time>2026-04-04T07:35:01.001Z</time></trkpt><trkpt lat="40.88683783192209" lon="9.592101880746963"><ele>12.333333333333332</ele><time>2026-04-04T07:35:02.001Z</time></trkpt><trkpt lat="40.886746185259014" lon="9.59228865796456"><ele>12.666666666666666</ele><time>2026-04-04T07:35:03.001Z</time></trkpt><trkpt lat="40.88665913894216" lon="9.592474048023156"><ele>13.0</ele><time>2026-04-04T07:35:04.001Z</time></trkpt><trkpt lat="40.88656364138848" lon="9.592673145494768"><ele>13.333333333333332</ele><time>2026-04-04T07:35:05.001Z</time></trkpt><trkpt lat="40.88646517233295" lon="9.592877043137348"><ele>13.666666666666668</ele><time>2026-04-04T07:35:06.001Z</time></trkpt><trkpt lat="40.886356402157006" lon="9.593097771410344"><ele>14.0</ele><time>2026-04-04T07:35:07.001Z</time></trkpt><trkpt lat="40.88623160545509" lon="9.59334657027713"><ele>14.0</ele><time>2026-04-04T07:35:08.001Z</time></trkpt><trkpt lat="40.886106468846776" lon="9.593599899511805"><ele>14.0</ele><time>2026-04-04T07:35:09.001Z</time></trkpt><trkpt lat="40.88599170169146" lon="9.593845413088072"><ele>14.0</ele><time>2026-04-04T07:35:10.001Z</time></trkpt><trkpt lat="40.885875594213" lon="9.594088801125011"><ele>13.666666666666668</ele><time>2026-04-04T07:35:11.001Z</time></trkpt><trkpt lat="40.88576634502229" lon="9.59430977017981"><ele>13.333333333333332</ele><time>2026-04-04T07:35:12.001Z</time></trkpt><trkpt lat="40.88566162872861" lon="9.594510645164894"><ele>13.0</ele><time>2026-04-04T07:35:13.001Z</time></trkpt><trkpt lat="40.88556025388063" lon="9.594712230289774"><ele>13.0</ele><time>2026-04-04T07:35:14.001Z</time></trkpt><trkpt lat="40.8854658335689" lon="9.594925268486122"><ele>13.0</ele><time>2026-04-04T07:35:15.001Z</time></trkpt><trkpt lat="40.88537563230158" lon="9.59515344036469"><ele>13.0</ele><time>2026-04-04T07:35:16.001Z</time></trkpt><trkpt lat="40.88529080618479" lon="9.595417713912163"><ele>13.0</ele><time>2026-04-04T07:35:17.001Z</time></trkpt><trkpt lat="40.885217092611214" lon="9.595692663826668"><ele>13.0</ele><time>2026-04-04T07:35:18.001Z</time></trkpt><trkpt lat="40.88515382521574" lon="9.59593969595917"><ele>13.0</ele><time>2026-04-04T07:35:19.001Z</time></trkpt><trkpt lat="40.88509894544214" lon="9.596133900791429"><ele>13.75</ele><time>2026-04-04T07:35:20.001Z</time></trkpt><trkpt lat="40.885015409385865" lon="9.596254392789946"><ele>14.5</ele><time>2026-04-04T07:35:21.001Z</time></trkpt><trkpt lat="40.88491557463995" lon="9.596345405740408"><ele>15.25</ele><time>2026-04-04T07:35:22.001Z</time></trkpt><trkpt lat="40.88478296861222" lon="9.596434701657572"><ele>16.0</ele><time>2026-04-04T07:35:23.001Z</time></trkpt><trkpt lat="40.884625637719225" lon="9.59653158557663"><ele>16.0</ele><time>2026-04-04T07:35:24.001Z</time></trkpt><trkpt lat="40.8844476553883" lon="9.596616335418789"><ele>16.0</ele><time>2026-04-04T07:35:25.001Z</time></trkpt><trkpt lat="40.88426733664631" lon="9.596709163677586"><ele>16.0</ele><time>2026-04-04T07:35:26.001Z</time></trkpt><trkpt lat="40.88408527420794" lon="9.59675028103945"><ele>17.0</ele><time>2026-04-04T07:35:27.001Z</time></trkpt><trkpt lat="40.883895004537074" lon="9.596769906797517"><ele>18.0</ele><time>2026-04-04T07:35:28.001Z</time></trkpt><trkpt lat="40.883704286700514" lon="9.596812343431269"><ele>19.0</ele><time>2026-04-04T07:35:29.001Z</time></trkpt><trkpt lat="40.88352360464469" lon="9.596852977702596"><ele>20.333333333333332</ele><time>2026-04-04T07:35:30.001Z</time></trkpt><trkpt lat="40.88336560834438" lon="9.596945873550004"><ele>21.666666666666668</ele><time>2026-04-04T07:35:31.001Z</time></trkpt><trkpt lat="40.88322904563611" lon="9.597034961075211"><ele>23.0</ele><time>2026-04-04T07:35:32.001Z</time></trkpt><trkpt lat="40.88309500967197" lon="9.597065545729471"><ele>23.0</ele><time>2026-04-04T07:35:33.001Z</time></trkpt><trkpt lat="40.882972923321994" lon="9.597056222404204"><ele>23.0</ele><time>2026-04-04T07:35:34.001Z</time></trkpt><trkpt lat="40.8828428610521" lon="9.596994452617562"><ele>23.0</ele><time>2026-04-04T07:35:35.001Z</time></trkpt><trkpt lat="40.88272528059669" lon="9.596908397372951"><ele>23.0</ele><time>2026-04-04T07:35:36.001Z</time></trkpt><trkpt lat="40.88262171661686" lon="9.596864808618816"><ele>23.5</ele><time>2026-04-04T07:35:37.001Z</time></trkpt><trkpt lat="40.882529075523834" lon="9.59684265323685"><ele>24.0</ele><time>2026-04-04T07:35:38.001Z</time></trkpt><trkpt lat="40.88242722959591" lon="9.596882083905784"><ele>24.5</ele><time>2026-04-04T07:35:39.001Z</time></trkpt><trkpt lat="40.882318515367956" lon="9.596992364313781"><ele>25.0</ele><time>2026-04-04T07:35:40.001Z</time></trkpt><trkpt lat="40.882208512518446" lon="9.597152996539664"><ele>27.666666666666668</ele><time>2026-04-04T07:35:41.001Z</time></trkpt><trkpt lat="40.882091230487454" lon="9.597330801530152"><ele>30.333333333333336</ele><time>2026-04-04T07:35:42.001Z</time></trkpt><trkpt lat="40.88196044583272" lon="9.59751986785467"><ele>33.0</ele><time>2026-04-04T07:35:43.001Z</time></trkpt><trkpt lat="40.88182684537885" lon="9.597709909748643"><ele>33.333333333333336</ele><time>2026-04-04T07:35:44.001Z</time></trkpt><trkpt lat="40.881694303235335" lon="9.597903256164647"><ele>33.66666666666667</ele><time>2026-04-04T07:35:45.001Z</time></trkpt><trkpt lat="40.88155921921553" lon="9.598102927303563"><ele>34.0</ele><time>2026-04-04T07:35:46.001Z</time></trkpt><trkpt lat="40.8814222377434" lon="9.59830351547823"><ele>34.0</ele><time>2026-04-04T07:35:47.001Z</time></trkpt><trkpt lat="40.88127465146415" lon="9.598520877006258"><ele>34.0</ele><time>2026-04-04T07:35:48.001Z</time></trkpt><trkpt lat="40.88112745198619" lon="9.598736254974801"><ele>34.0</ele><time>2026-04-04T07:35:49.001Z</time></trkpt><trkpt lat="40.88098975325376" lon="9.598938526421708"><ele>33.0</ele><time>2026-04-04T07:35:50.001Z</time></trkpt><trkpt lat="40.88085162801569" lon="9.59913863173102"><ele>32.0</ele><time>2026-04-04T07:35:51.001Z</time></trkpt><trkpt lat="40.880725231931" lon="9.599346108004378"><ele>31.0</ele><time>2026-04-04T07:35:52.001Z</time></trkpt><trkpt lat="40.88062655127939" lon="9.599576258609034"><ele>31.0</ele><time>2026-04-04T07:35:53.001Z</time></trkpt><trkpt lat="40.88055614562718" lon="9.599845794035527"><ele>31.0</ele><time>2026-04-04T07:35:54.001Z</time></trkpt><trkpt lat="40.880496164765944" lon="9.600126982080265"><ele>31.0</ele><time>2026-04-04T07:35:55.001Z</time></trkpt><trkpt lat="40.88043750472324" lon="9.600415341129413"><ele>31.666666666666668</ele><time>2026-04-04T07:35:56.001Z</time></trkpt><trkpt lat="40.880397709264145" lon="9.600698373728784"><ele>32.333333333333336</ele><time>2026-04-04T07:35:57.001Z</time></trkpt><trkpt lat="40.880394250646276" lon="9.600998562210497"><ele>33.0</ele><time>2026-04-04T07:35:58.001Z</time></trkpt><trkpt lat="40.88040251385435" lon="9.60131422000743"><ele>33.5</ele><time>2026-04-04T07:35:59.001Z</time></trkpt><trkpt lat="40.88041399164865" lon="9.601634494470584"><ele>34.0</ele><time>2026-04-04T07:36:00.001Z</time></trkpt><trkpt lat="40.88041501851054" lon="9.601945264978125"><ele>34.0</ele><time>2026-04-04T07:36:01.001Z</time></trkpt><trkpt lat="40.880412593376334" lon="9.602252011193974"><ele>34.0</ele><time>2026-04-04T07:36:02.001Z</time></trkpt><trkpt lat="40.88041255835506" lon="9.602539399916706"><ele>34.0</ele><time>2026-04-04T07:36:03.001Z</time></trkpt><trkpt lat="40.880414023922924" lon="9.60279835076283"><ele>34.333333333333336</ele><time>2026-04-04T07:36:04.001Z</time></trkpt><trkpt lat="40.8804202961803" lon="9.603050573682845"><ele>34.666666666666664</ele><time>2026-04-04T07:36:05.001Z</time></trkpt><trkpt lat="40.880454336233754" lon="9.603301173056812"><ele>35.0</ele><time>2026-04-04T07:36:06.001Z</time></trkpt><trkpt lat="40.880519983746154" lon="9.603564169347168"><ele>34.666666666666664</ele><time>2026-04-04T07:36:07.001Z</time></trkpt><trkpt lat="40.88061243563254" lon="9.603827992940472"><ele>34.333333333333336</ele><time>2026-04-04T07:36:08.001Z</time></trkpt><trkpt lat="40.88069256731709" lon="9.604070947445596"><ele>34.0</ele><time>2026-04-04T07:36:09.001Z</time></trkpt><trkpt lat="40.880743210533225" lon="9.604305461615663"><ele>34.66666666666667</ele><time>2026-04-04T07:36:10.001Z</time></trkpt><trkpt lat="40.88075576652079" lon="9.604558416663037"><ele>35.333333333333336</ele><time>2026-04-04T07:36:11.001Z</time></trkpt><trkpt lat="40.8807478979215" lon="9.60483926802598"><ele>36.0</ele><time>2026-04-04T07:36:12.001Z</time></trkpt><trkpt lat="40.88073939555002" lon="9.60513189582628"><ele>37.5</ele><time>2026-04-04T07:36:13.001Z</time></trkpt><trkpt lat="40.88073786572604" lon="9.60544270899388"><ele>39.0</ele><time>2026-04-04T07:36:14.001Z</time></trkpt><trkpt lat="40.880737166700484" lon="9.605759133672759"><ele>39.0</ele><time>2026-04-04T07:36:15.001Z</time></trkpt><trkpt lat="40.88073651584861" lon="9.606075808647159"><ele>39.0</ele><time>2026-04-04T07:36:16.001Z</time></trkpt><trkpt lat="40.88073612610888" lon="9.606368512209823"><ele>39.666666666666664</ele><time>2026-04-04T07:36:17.001Z</time></trkpt><trkpt lat="40.88073400197852" lon="9.60664977939729"><ele>40.33333333333333</ele><time>2026-04-04T07:36:18.001Z</time></trkpt><trkpt lat="40.88072648702286" lon="9.60690369974201"><ele>41.0</ele><time>2026-04-04T07:36:19.001Z</time></trkpt><trkpt lat="40.880717142237245" lon="9.60712745630765"><ele>41.33333333333333</ele><time>2026-04-04T07:36:20.001Z</time></trkpt><trkpt lat="40.880701869063074" lon="9.60733708054226"><ele>41.666666666666664</ele><time>2026-04-04T07:36:21.001Z</time></trkpt><trkpt lat="40.88065556189224" lon="9.607536526710655"><ele>42.0</ele><time>2026-04-04T07:36:22.001Z</time></trkpt><trkpt lat="40.8805738523956" lon="9.607746190940258"><ele>42.333333333333336</ele><time>2026-04-04T07:36:23.001Z</time></trkpt><trkpt lat="40.88047162364007" lon="9.607974463244764"><ele>42.66666666666667</ele><time>2026-04-04T07:36:24.001Z</time></trkpt><trkpt lat="40.880364859493184" lon="9.60821830855832"><ele>43.0</ele><time>2026-04-04T07:36:25.001Z</time></trkpt><trkpt lat="40.88025933949554" lon="9.6084731100134"><ele>44.5</ele><time>2026-04-04T07:36:26.001Z</time></trkpt><trkpt lat="40.880164548620975" lon="9.608744393659702"><ele>46.0</ele><time>2026-04-04T07:36:27.001Z</time></trkpt><trkpt lat="40.880083686293574" lon="9.609050530792604"><ele>47.0</ele><time>2026-04-04T07:36:28.001Z</time></trkpt><trkpt lat="40.88001335124448" lon="9.609387798331566"><ele>48.0</ele><time>2026-04-04T07:36:29.001Z</time></trkpt><trkpt lat="40.87993977240789" lon="9.609737102093401"><ele>49.0</ele><time>2026-04-04T07:36:30.001Z</time></trkpt><trkpt lat="40.879863131881926" lon="9.610066356178107"><ele>50.0</ele><time>2026-04-04T07:36:31.001Z</time></trkpt><trkpt lat="40.879783865698634" lon="9.610397349141898"><ele>50.0</ele><time>2026-04-04T07:36:32.001Z</time></trkpt><trkpt lat="40.87970966362317" lon="9.610734591412971"><ele>50.0</ele><time>2026-04-04T07:36:33.001Z</time></trkpt><trkpt lat="40.87963445164396" lon="9.6110769399858"><ele>50.5</ele><time>2026-04-04T07:36:34.001Z</time></trkpt><trkpt lat="40.87955655685531" lon="9.611430446209416"><ele>51.0</ele><time>2026-04-04T07:36:35.001Z</time></trkpt><trkpt lat="40.87948408615154" lon="9.61175982298466"><ele>52.5</ele><time>2026-04-04T07:36:36.001Z</time></trkpt><trkpt lat="40.87942025520787" lon="9.612071348992348"><ele>54.0</ele><time>2026-04-04T07:36:37.001Z</time></trkpt><trkpt lat="40.87936884676279" lon="9.61235966818849"><ele>54.0</ele><time>2026-04-04T07:36:38.001Z</time></trkpt><trkpt lat="40.87929578915164" lon="9.612640478569782"><ele>54.0</ele><time>2026-04-04T07:36:39.001Z</time></trkpt><trkpt lat="40.879237622855705" lon="9.612918863403566"><ele>54.0</ele><time>2026-04-04T07:36:40.001Z</time></trkpt><trkpt lat="40.879265181746725" lon="9.613227236728415"><ele>52.5</ele><time>2026-04-04T07:36:41.001Z</time></trkpt><trkpt lat="40.87920656286252" lon="9.613506153393654"><ele>51.0</ele><time>2026-04-04T07:36:42.001Z</time></trkpt><trkpt lat="40.879132039721235" lon="9.61379926450837"><ele>50.33333333333333</ele><time>2026-04-04T07:36:43.001Z</time></trkpt><trkpt lat="40.87906109459514" lon="9.614077056908299"><ele>49.666666666666664</ele><time>2026-04-04T07:36:44.001Z</time></trkpt><trkpt lat="40.87899873406893" lon="9.61433092288273"><ele>49.0</ele><time>2026-04-04T07:36:45.001Z</time></trkpt><trkpt lat="40.87894025452666" lon="9.614541573546726"><ele>47.33333333333333</ele><time>2026-04-04T07:36:46.001Z</time></trkpt><trkpt lat="40.8788603140688" lon="9.614709210352608"><ele>45.666666666666664</ele><time>2026-04-04T07:36:47.001Z</time></trkpt><trkpt lat="40.87874349872447" lon="9.61486066696471"><ele>44.0</ele><time>2026-04-04T07:36:48.001Z</time></trkpt><trkpt lat="40.878601540764365" lon="9.614996964803796"><ele>44.0</ele><time>2026-04-04T07:36:49.001Z</time></trkpt><trkpt lat="40.878470605711925" lon="9.6151273640395"><ele>44.0</ele><time>2026-04-04T07:36:50.001Z</time></trkpt><trkpt lat="40.878368143434244" lon="9.615269340262083"><ele>44.0</ele><time>2026-04-04T07:36:51.001Z</time></trkpt><trkpt lat="40.878304422867295" lon="9.61544793006527"><ele>42.0</ele><time>2026-04-04T07:36:52.001Z</time></trkpt><trkpt lat="40.87827694790318" lon="9.615679766878936"><ele>40.0</ele><time>2026-04-04T07:36:53.001Z</time></trkpt><trkpt lat="40.87827157353099" lon="9.615925538480402"><ele>38.0</ele><time>2026-04-04T07:36:54.001Z</time></trkpt><trkpt lat="40.87827400757458" lon="9.616198097631766"><ele>37.0</ele><time>2026-04-04T07:36:55.001Z</time></trkpt><trkpt lat="40.87825612261706" lon="9.616472820299526"><ele>36.0</ele><time>2026-04-04T07:36:56.001Z</time></trkpt><trkpt lat="40.87820730235155" lon="9.616753752259369"><ele>35.0</ele><time>2026-04-04T07:36:57.001Z</time></trkpt><trkpt lat="40.87813864460806" lon="9.617012948717257"><ele>34.666666666666664</ele><time>2026-04-04T07:36:58.001Z</time></trkpt><trkpt lat="40.87804781306276" lon="9.617272292148456"><ele>34.333333333333336</ele><time>2026-04-04T07:36:59.001Z</time></trkpt><trkpt lat="40.8779558985489" lon="9.61754211595204"><ele>34.0</ele><time>2026-04-04T07:37:00.001Z</time></trkpt><trkpt lat="40.877855028771585" lon="9.617798140958955"><ele>33.66666666666667</ele><time>2026-04-04T07:37:01.001Z</time></trkpt><trkpt lat="40.877750146284086" lon="9.618026641051204"><ele>33.333333333333336</ele><time>2026-04-04T07:37:02.001Z</time></trkpt><trkpt lat="40.877651542065955" lon="9.618251231163532"><ele>33.0</ele><time>2026-04-04T07:37:03.001Z</time></trkpt><trkpt lat="40.877588985684454" lon="9.618476784711786"><ele>29.666666666666668</ele><time>2026-04-04T07:37:04.001Z</time></trkpt><trkpt lat="40.87754083692652" lon="9.618715248524904"><ele>26.333333333333336</ele><time>2026-04-04T07:37:05.001Z</time></trkpt><trkpt lat="40.87750028862668" lon="9.618923431415759"><ele>23.0</ele><time>2026-04-04T07:37:06.001Z</time></trkpt><trkpt lat="40.877471433062944" lon="9.619127094514484"><ele>23.0</ele><time>2026-04-04T07:37:07.001Z</time></trkpt><trkpt lat="40.87746714148304" lon="9.619331995441138"><ele>23.0</ele><time>2026-04-04T07:37:08.001Z</time></trkpt><trkpt lat="40.87750581791615" lon="9.619541107567134"><ele>23.0</ele><time>2026-04-04T07:37:09.001Z</time></trkpt><trkpt lat="40.87757595136451" lon="9.619768104332321"><ele>23.666666666666668</ele><time>2026-04-04T07:37:10.001Z</time></trkpt><trkpt lat="40.87766859290682" lon="9.619988585556134"><ele>24.333333333333336</ele><time>2026-04-04T07:37:11.001Z</time></trkpt><trkpt lat="40.87775415819314" lon="9.620205164535951"><ele>25.0</ele><time>2026-04-04T07:37:12.001Z</time></trkpt><trkpt lat="40.87782230914741" lon="9.620405802232177"><ele>22.666666666666668</ele><time>2026-04-04T07:37:13.001Z</time></trkpt><trkpt lat="40.877874298063794" lon="9.620605105817425"><ele>20.333333333333336</ele><time>2026-04-04T07:37:14.001Z</time></trkpt><trkpt lat="40.87790922460476" lon="9.620811877233908"><ele>18.0</ele><time>2026-04-04T07:37:15.001Z</time></trkpt><trkpt lat="40.87792491167258" lon="9.62104390508605"><ele>17.0</ele><time>2026-04-04T07:37:16.001Z</time></trkpt><trkpt lat="40.877933096861916" lon="9.62129006793561"><ele>16.0</ele><time>2026-04-04T07:37:17.001Z</time></trkpt><trkpt lat="40.87793177708704" lon="9.621534321749579"><ele>15.0</ele><time>2026-04-04T07:37:18.001Z</time></trkpt><trkpt lat="40.8779105922632" lon="9.621778666106257"><ele>13.666666666666666</ele><time>2026-04-04T07:37:19.001Z</time></trkpt><trkpt lat="40.8778635757871" lon="9.6220248895893"><ele>12.333333333333332</ele><time>2026-04-04T07:37:20.001Z</time></trkpt><trkpt lat="40.877812212064526" lon="9.622281945834937"><ele>11.0</ele><time>2026-04-04T07:37:21.001Z</time></trkpt><trkpt lat="40.87776811373234" lon="9.622548249058866"><ele>11.0</ele><time>2026-04-04T07:37:22.001Z</time></trkpt><trkpt lat="40.877726877860304" lon="9.622794392188068"><ele>11.0</ele><time>2026-04-04T07:37:23Z</time></trkpt><trkpt lat="40.877685002331766" lon="9.623023194740615"><ele>11.0</ele><time>2026-04-04T07:37:24Z</time></trkpt><trkpt lat="40.877629093911246" lon="9.623260181990283"><ele>11.666666666666666</ele><time>2026-04-04T07:37:25Z</time></trkpt><trkpt lat="40.87755326407032" lon="9.62348284767125"><ele>12.333333333333332</ele><time>2026-04-04T07:37:26Z</time></trkpt><trkpt lat="40.877471250102566" lon="9.623699933142193"><ele>13.0</ele><time>2026-04-04T07:37:27Z</time></trkpt><trkpt lat="40.87738469144109" lon="9.623927306472776"><ele>13.333333333333332</ele><time>2026-04-04T07:37:28Z</time></trkpt><trkpt lat="40.87730380986434" lon="9.624150680727999"><ele>13.666666666666668</ele><time>2026-04-04T07:37:29Z</time></trkpt><trkpt lat="40.877229608285575" lon="9.624364334276299"><ele>14.0</ele><time>2026-04-04T07:37:30Z</time></trkpt><trkpt lat="40.87715813945052" lon="9.624574217588897"><ele>14.0</ele><time>2026-04-04T07:37:31Z</time></trkpt><trkpt lat="40.87708913883833" lon="9.624778195221076"><ele>14.0</ele><time>2026-04-04T07:37:32Z</time></trkpt><trkpt lat="40.87702419043503" lon="9.624961941450241"><ele>14.0</ele><time>2026-04-04T07:37:33Z</time></trkpt><trkpt lat="40.87696190598895" lon="9.62513853972599"><ele>14.0</ele><time>2026-04-04T07:37:34Z</time></trkpt><trkpt lat="40.87690448731839" lon="9.625302518124437"><ele>14.0</ele><time>2026-04-04T07:37:35Z</time></trkpt><trkpt lat="40.87684855962421" lon="9.62545924025182"><ele>14.0</ele><time>2026-04-04T07:37:36Z</time></trkpt><trkpt lat="40.87679590470159" lon="9.62561595764798"><ele>14.0</ele><time>2026-04-04T07:37:37Z</time></trkpt><trkpt lat="40.87674913393151" lon="9.625785659892058"><ele>13.5</ele><time>2026-04-04T07:37:38Z</time></trkpt><trkpt lat="40.876722894858446" lon="9.625968550544874"><ele>13.0</ele><time>2026-04-04T07:37:39Z</time></trkpt><trkpt lat="40.87672363790352" lon="9.626148706835485"><ele>12.5</ele><time>2026-04-04T07:37:40Z</time></trkpt><trkpt lat="40.87675773966989" lon="9.626331905773966"><ele>12.0</ele><time>2026-04-04T07:37:41Z</time></trkpt><trkpt lat="40.87681153413186" lon="9.626512582448157"><ele>12.0</ele><time>2026-04-04T07:37:42Z</time></trkpt><trkpt lat="40.87686740550974" lon="9.626675766607462"><ele>12.0</ele><time>2026-04-04T07:37:43Z</time></trkpt><trkpt lat="40.87690532513077" lon="9.626834531683171"><ele>12.0</ele><time>2026-04-04T07:37:44Z</time></trkpt><trkpt lat="40.8769192597984" lon="9.627000388625042"><ele>12.0</ele><time>2026-04-04T07:37:45Z</time></trkpt><trkpt lat="40.8769163771298" lon="9.627172552086137"><ele>13.25</ele><time>2026-04-04T07:37:46.001Z</time></trkpt><trkpt lat="40.876885953566166" lon="9.627347517286443"><ele>14.5</ele><time>2026-04-04T07:37:47Z</time></trkpt><trkpt lat="40.87683578123044" lon="9.627523059990082"><ele>15.75</ele><time>2026-04-04T07:37:48.001Z</time></trkpt><trkpt lat="40.87676823460156" lon="9.627684124173568"><ele>17.0</ele><time>2026-04-04T07:37:49.001Z</time></trkpt><trkpt lat="40.87668654409941" lon="9.627842411244567"><ele>17.0</ele><time>2026-04-04T07:37:50.001Z</time></trkpt><trkpt lat="40.876565619494244" lon="9.62794989579804"><ele>17.0</ele><time>2026-04-04T07:37:51.001Z</time></trkpt><trkpt lat="40.87647886381334" lon="9.628028616437023"><ele>17.0</ele><time>2026-04-04T07:37:52.001Z</time></trkpt><trkpt lat="40.87636909963672" lon="9.628129580943112"><ele>17.0</ele><time>2026-04-04T07:37:53.001Z</time></trkpt><trkpt lat="40.87627272206189" lon="9.62823098149239"><ele>17.0</ele><time>2026-04-04T07:37:54.001Z</time></trkpt><trkpt lat="40.87617528301087" lon="9.628312672753728"><ele>17.0</ele><time>2026-04-04T07:37:55.001Z</time></trkpt><trkpt lat="40.87609532744311" lon="9.628393883948693"><ele>17.0</ele><time>2026-04-04T07:37:56.001Z</time></trkpt><trkpt lat="40.8760238367914" lon="9.628479246617584"><ele>17.0</ele><time>2026-04-04T07:37:57.001Z</time></trkpt><trkpt lat="40.87595965020882" lon="9.628562879224186"><ele>17.0</ele><time>2026-04-04T07:37:58.001Z</time></trkpt><trkpt lat="40.87590446424559" lon="9.628647053082215"><ele>16.0</ele><time>2026-04-04T07:37:59.001Z</time></trkpt><trkpt lat="40.875846080993746" lon="9.628728956689613"><ele>15.0</ele><time>2026-04-04T07:38:00.001Z</time></trkpt><trkpt lat="40.87577012277383" lon="9.628809493687907"><ele>14.0</ele><time>2026-04-04T07:38:01.001Z</time></trkpt><trkpt lat="40.875670323037866" lon="9.628858663107149"><ele>13.0</ele><time>2026-04-04T07:38:02.001Z</time></trkpt><trkpt lat="40.875555319957364" lon="9.62891213088562"><ele>12.0</ele><time>2026-04-04T07:38:03.001Z</time></trkpt><trkpt lat="40.87544546898352" lon="9.628992014221645"><ele>12.0</ele><time>2026-04-04T07:38:04.001Z</time></trkpt><trkpt lat="40.875357537767044" lon="9.629064153313177"><ele>12.0</ele><time>2026-04-04T07:38:05.001Z</time></trkpt><trkpt lat="40.87527623330562" lon="9.629130270669327"><ele>12.0</ele><time>2026-04-04T07:38:06.001Z</time></trkpt><trkpt lat="40.875200868708035" lon="9.629195372176811"><ele>12.0</ele><time>2026-04-04T07:38:07.001Z</time></trkpt><trkpt lat="40.87512583814487" lon="9.629266539180291"><ele>12.0</ele><time>2026-04-04T07:38:08.001Z</time></trkpt><trkpt lat="40.875048836606595" lon="9.629346827449373"><ele>11.8</ele><time>2026-04-04T07:38:09.001Z</time></trkpt><trkpt lat="40.874959435789854" lon="9.629421703695273"><ele>11.6</ele><time>2026-04-04T07:38:10.001Z</time></trkpt><trkpt lat="40.874866246612434" lon="9.629501772764582"><ele>11.4</ele><time>2026-04-04T07:38:11.001Z</time></trkpt><trkpt lat="40.874775683452334" lon="9.62957859967507"><ele>11.200000000000001</ele><time>2026-04-04T07:38:12.001Z</time></trkpt><trkpt lat="40.87468939636137" lon="9.62965708104663"><ele>11.0</ele><time>2026-04-04T07:38:13.001Z</time></trkpt><trkpt lat="40.87459151097903" lon="9.62974007510149"><ele>11.0</ele><time>2026-04-04T07:38:14.001Z</time></trkpt><trkpt lat="40.87449288627631" lon="9.629830496733378"><ele>11.0</ele><time>2026-04-04T07:38:15.001Z</time></trkpt><trkpt lat="40.87439247417017" lon="9.629922360975186"><ele>11.0</ele><time>2026-04-04T07:38:16.001Z</time></trkpt><trkpt lat="40.87428762460078" lon="9.630018141451151"><ele>11.0</ele><time>2026-04-04T07:38:17.001Z</time></trkpt><trkpt lat="40.87418222686919" lon="9.630116973156959"><ele>11.0</ele><time>2026-04-04T07:38:18.001Z</time></trkpt><trkpt lat="40.87407758473362" lon="9.630213151622788"><ele>11.0</ele><time>2026-04-04T07:38:19.001Z</time></trkpt><trkpt lat="40.87397460390688" lon="9.630303905319272"><ele>11.0</ele><time>2026-04-04T07:38:20.001Z</time></trkpt><trkpt lat="40.873886626848176" lon="9.630378764463323"><ele>11.0</ele><time>2026-04-04T07:38:21.001Z</time></trkpt><trkpt lat="40.87380316405469" lon="9.630455053229001"><ele>11.0</ele><time>2026-04-04T07:38:22.001Z</time></trkpt><trkpt lat="40.873715670150304" lon="9.630536443317407"><ele>11.0</ele><time>2026-04-04T07:38:23.001Z</time></trkpt><trkpt lat="40.87361709595179" lon="9.630623860508674"><ele>11.0</ele><time>2026-04-04T07:38:24Z</time></trkpt><trkpt lat="40.87351244994161" lon="9.630716892227762"><ele>11.0</ele><time>2026-04-04T07:38:25Z</time></trkpt><trkpt lat="40.87340215539035" lon="9.630813556136697"><ele>11.25</ele><time>2026-04-04T07:38:26Z</time></trkpt><trkpt lat="40.87329171213142" lon="9.630913222014911"><ele>11.5</ele><time>2026-04-04T07:38:27Z</time></trkpt><trkpt lat="40.873187717717116" lon="9.631007144186949"><ele>11.75</ele><time>2026-04-04T07:38:28Z</time></trkpt><trkpt lat="40.873092293652306" lon="9.631089589650035"><ele>12.0</ele><time>2026-04-04T07:38:29Z</time></trkpt><trkpt lat="40.872996946785086" lon="9.631169863565756"><ele>12.0</ele><time>2026-04-04T07:38:30Z</time></trkpt><trkpt lat="40.872899255860034" lon="9.631254426572653"><ele>12.0</ele><time>2026-04-04T07:38:31Z</time></trkpt><trkpt lat="40.872800675351044" lon="9.63135085720373"><ele>12.0</ele><time>2026-04-04T07:38:32Z</time></trkpt><trkpt lat="40.8726937479178" lon="9.631476588836083"><ele>12.0</ele><time>2026-04-04T07:38:33Z</time></trkpt><trkpt lat="40.87258967559158" lon="9.63162534710801"><ele>12.333333333333332</ele><time>2026-04-04T07:38:34Z</time></trkpt><trkpt lat="40.87249261456223" lon="9.631795984755193"><ele>12.666666666666666</ele><time>2026-04-04T07:38:35Z</time></trkpt><trkpt lat="40.87239825454682" lon="9.631985138829783"><ele>13.0</ele><time>2026-04-04T07:38:36Z</time></trkpt><trkpt lat="40.87230240637954" lon="9.63218716261939"><ele>12.333333333333332</ele><time>2026-04-04T07:38:37Z</time></trkpt><trkpt lat="40.87220689058852" lon="9.632389056133384"><ele>11.666666666666666</ele><time>2026-04-04T07:38:38Z</time></trkpt><trkpt lat="40.8721151098951" lon="9.632571502220568"><ele>11.0</ele><time>2026-04-04T07:38:39Z</time></trkpt><trkpt lat="40.87202527077658" lon="9.632757834161596"><ele>10.666666666666666</ele><time>2026-04-04T07:38:40Z</time></trkpt><trkpt lat="40.87192836358205" lon="9.632951077440103"><ele>10.333333333333334</ele><time>2026-04-04T07:38:41Z</time></trkpt><trkpt lat="40.87183058885262" lon="9.633163666204219"><ele>10.0</ele><time>2026-04-04T07:38:42Z</time></trkpt><trkpt lat="40.87173695537834" lon="9.633396417144688"><ele>10.333333333333334</ele><time>2026-04-04T07:38:43Z</time></trkpt><trkpt lat="40.871638615958496" lon="9.633639556861914"><ele>10.666666666666666</ele><time>2026-04-04T07:38:44Z</time></trkpt><trkpt lat="40.871538536053144" lon="9.63389019205487"><ele>11.0</ele><time>2026-04-04T07:38:45Z</time></trkpt><trkpt lat="40.871443492676846" lon="9.634131108849628"><ele>11.0</ele><time>2026-04-04T07:38:46Z</time></trkpt><trkpt lat="40.87135668579737" lon="9.634353378728083"><ele>11.0</ele><time>2026-04-04T07:38:47Z</time></trkpt><trkpt lat="40.871280386672964" lon="9.63455128337746"><ele>11.0</ele><time>2026-04-04T07:38:48Z</time></trkpt><trkpt lat="40.871212855254036" lon="9.634740790666168"><ele>11.0</ele><time>2026-04-04T07:38:49Z</time></trkpt><trkpt lat="40.871154003337516" lon="9.634932242441144"><ele>11.0</ele><time>2026-04-04T07:38:50Z</time></trkpt><trkpt lat="40.871102299331994" lon="9.635122209322896"><ele>11.0</ele><time>2026-04-04T07:38:51Z</time></trkpt><trkpt lat="40.87105129367529" lon="9.635317128372003"><ele>11.0</ele><time>2026-04-04T07:38:52Z</time></trkpt><trkpt lat="40.871000664746305" lon="9.63551458862313"><ele>11.0</ele><time>2026-04-04T07:38:53Z</time></trkpt><trkpt lat="40.87094524671362" lon="9.63571816464337"><ele>11.0</ele><time>2026-04-04T07:38:54Z</time></trkpt><trkpt lat="40.87088495518049" lon="9.635942104261087"><ele>10.666666666666666</ele><time>2026-04-04T07:38:55Z</time></trkpt><trkpt lat="40.87082463787807" lon="9.636171635982807"><ele>10.333333333333334</ele><time>2026-04-04T07:38:56Z</time></trkpt><trkpt lat="40.870764449747824" lon="9.636399114617683"><ele>10.0</ele><time>2026-04-04T07:38:57Z</time></trkpt><trkpt lat="40.870708139350356" lon="9.636619297710288"><ele>10.0</ele><time>2026-04-04T07:38:58Z</time></trkpt><trkpt lat="40.870655938926255" lon="9.636826865950225"><ele>10.0</ele><time>2026-04-04T07:38:59Z</time></trkpt><trkpt lat="40.870608512517684" lon="9.637023177420994"><ele>10.0</ele><time>2026-04-04T07:39:00Z</time></trkpt><trkpt lat="40.87056610176801" lon="9.637211614248791"><ele>10.0</ele><time>2026-04-04T07:39:01Z</time></trkpt><trkpt lat="40.87052557163122" lon="9.637411409734211"><ele>10.0</ele><time>2026-04-04T07:39:02Z</time></trkpt><trkpt lat="40.87048816767548" lon="9.637607647231821"><ele>10.0</ele><time>2026-04-04T07:39:03Z</time></trkpt><trkpt lat="40.870451838654496" lon="9.637803399150872"><ele>9.5</ele><time>2026-04-04T07:39:04Z</time></trkpt><trkpt lat="40.87041402002338" lon="9.63799332627875"><ele>9.0</ele><time>2026-04-04T07:39:05Z</time></trkpt><trkpt lat="40.87037273399817" lon="9.638180083314007"><ele>8.5</ele><time>2026-04-04T07:39:06Z</time></trkpt><trkpt lat="40.87033267205847" lon="9.638356941479872"><ele>8.0</ele><time>2026-04-04T07:39:07Z</time></trkpt><trkpt lat="40.87029302178773" lon="9.638533691557452"><ele>7.75</ele><time>2026-04-04T07:39:08Z</time></trkpt><trkpt lat="40.870258331405694" lon="9.638706613244743"><ele>7.5</ele><time>2026-04-04T07:39:09Z</time></trkpt><trkpt lat="40.870225106700225" lon="9.638869784000962"><ele>7.25</ele><time>2026-04-04T07:39:10Z</time></trkpt><trkpt lat="40.870184868690906" lon="9.639039175247108"><ele>7.0</ele><time>2026-04-04T07:39:11Z</time></trkpt><trkpt lat="40.87013899912702" lon="9.639199264932124"><ele>7.0</ele><time>2026-04-04T07:39:12Z</time></trkpt><trkpt lat="40.87008096526401" lon="9.639338203902714"><ele>7.0</ele><time>2026-04-04T07:39:13Z</time></trkpt><trkpt lat="40.87000782681574" lon="9.63945519046933"><ele>7.0</ele><time>2026-04-04T07:39:14Z</time></trkpt><trkpt lat="40.86990800251876" lon="9.639559009154059"><ele>7.0</ele><time>2026-04-04T07:39:15Z</time></trkpt><trkpt lat="40.86978721633079" lon="9.639662681792279"><ele>6.333333333333334</ele><time>2026-04-04T07:39:16Z</time></trkpt><trkpt lat="40.869661636066915" lon="9.639764045359989"><ele>5.666666666666667</ele><time>2026-04-04T07:39:17Z</time></trkpt><trkpt lat="40.869538196280246" lon="9.63987315305172"><ele>5.0</ele><time>2026-04-04T07:39:18Z</time></trkpt><trkpt lat="40.86941039060089" lon="9.63999113009721"><ele>5.0</ele><time>2026-04-04T07:39:19Z</time></trkpt><trkpt lat="40.86927818447275" lon="9.640108473006444"><ele>5.0</ele><time>2026-04-04T07:39:20Z</time></trkpt><trkpt lat="40.86915513199304" lon="9.640215231673292"><ele>5.0</ele><time>2026-04-04T07:39:21Z</time></trkpt><trkpt lat="40.86904459415193" lon="9.640311969191481"><ele>5.0</ele><time>2026-04-04T07:39:22Z</time></trkpt><trkpt lat="40.86893938797983" lon="9.640402842333627"><ele>5.0</ele><time>2026-04-04T07:39:23Z</time></trkpt><trkpt lat="40.868835498536875" lon="9.640489791452259"><ele>5.0</ele><time>2026-04-04T07:39:24Z</time></trkpt><trkpt lat="40.86872593202863" lon="9.640583754638989"><ele>5.0</ele><time>2026-04-04T07:39:25Z</time></trkpt><trkpt lat="40.868608929667424" lon="9.640683514968226"><ele>5.0</ele><time>2026-04-04T07:39:26Z</time></trkpt><trkpt lat="40.86849715715131" lon="9.640774695743657"><ele>5.75</ele><time>2026-04-04T07:39:27Z</time></trkpt><trkpt lat="40.86837653473925" lon="9.640830450875994"><ele>6.5</ele><time>2026-04-04T07:39:28Z</time></trkpt><trkpt lat="40.86825151520316" lon="9.64088271846353"><ele>7.25</ele><time>2026-04-04T07:39:29Z</time></trkpt><trkpt lat="40.86812041323072" lon="9.640931925551769"><ele>8.0</ele><time>2026-04-04T07:39:30Z</time></trkpt><trkpt lat="40.86798571557175" lon="9.640996862248246"><ele>8.0</ele><time>2026-04-04T07:39:31Z</time></trkpt><trkpt lat="40.86784494288467" lon="9.64104382514048"><ele>8.0</ele><time>2026-04-04T07:39:32Z</time></trkpt><trkpt lat="40.86770793736735" lon="9.641096900448654"><ele>8.0</ele><time>2026-04-04T07:39:33Z</time></trkpt><trkpt lat="40.86757905159503" lon="9.641148897444664"><ele>8.0</ele><time>2026-04-04T07:39:34Z</time></trkpt><trkpt lat="40.867445929333925" lon="9.641203591464427"><ele>8.333333333333332</ele><time>2026-04-04T07:39:35Z</time></trkpt><trkpt lat="40.867296763089975" lon="9.641263379408677"><ele>8.666666666666666</ele><time>2026-04-04T07:39:36Z</time></trkpt><trkpt lat="40.8671420039958" lon="9.641320070297036"><ele>9.0</ele><time>2026-04-04T07:39:37Z</time></trkpt><trkpt lat="40.86699806858459" lon="9.641373834038346"><ele>9.0</ele><time>2026-04-04T07:39:38Z</time></trkpt><trkpt lat="40.86686834640904" lon="9.641421736600625"><ele>9.0</ele><time>2026-04-04T07:39:39Z</time></trkpt><trkpt lat="40.866737455664314" lon="9.641469774834444"><ele>9.0</ele><time>2026-04-04T07:39:40Z</time></trkpt><trkpt lat="40.866606075034724" lon="9.641518758523487"><ele>9.0</ele><time>2026-04-04T07:39:41Z</time></trkpt><trkpt lat="40.86646398086828" lon="9.641560456118441"><ele>10.0</ele><time>2026-04-04T07:39:42Z</time></trkpt><trkpt lat="40.86631035135059" lon="9.641555401466936"><ele>11.0</ele><time>2026-04-04T07:39:43Z</time></trkpt><trkpt lat="40.86614576461705" lon="9.641549428025396"><ele>12.0</ele><time>2026-04-04T07:39:44Z</time></trkpt><trkpt lat="40.86594594482872" lon="9.64153401598496"><ele>12.0</ele><time>2026-04-04T07:39:45Z</time></trkpt><trkpt lat="40.865729807946785" lon="9.641508234661565"><ele>12.0</ele><time>2026-04-04T07:39:46Z</time></trkpt><trkpt lat="40.86548509770148" lon="9.641480862397668"><ele>12.0</ele><time>2026-04-04T07:39:47Z</time></trkpt><trkpt lat="40.86522579210721" lon="9.641449625218419"><ele>12.0</ele><time>2026-04-04T07:39:48Z</time></trkpt><trkpt lat="40.86495537457617" lon="9.641439124658467"><ele>14.0</ele><time>2026-04-04T07:39:49Z</time></trkpt><trkpt lat="40.86469460488925" lon="9.641412094834859"><ele>16.0</ele><time>2026-04-04T07:39:50Z</time></trkpt><trkpt lat="40.864422180223926" lon="9.641380943005442"><ele>16.5</ele><time>2026-04-04T07:39:51Z</time></trkpt><trkpt lat="40.864142583352354" lon="9.641347241488075"><ele>17.0</ele><time>2026-04-04T07:39:52Z</time></trkpt><trkpt lat="40.86386587353051" lon="9.641315443975834"><ele>17.0</ele><time>2026-04-04T07:39:53Z</time></trkpt><trkpt lat="40.86362043753098" lon="9.641291037758286"><ele>17.0</ele><time>2026-04-04T07:39:54Z</time></trkpt><trkpt lat="40.863400008165634" lon="9.641287048308893"><ele>18.5</ele><time>2026-04-04T07:39:55Z</time></trkpt><trkpt lat="40.8631871612401" lon="9.641314696866136"><ele>20.0</ele><time>2026-04-04T07:39:56Z</time></trkpt><trkpt lat="40.86295724443533" lon="9.641394064943373"><ele>20.0</ele><time>2026-04-04T07:39:57Z</time></trkpt><trkpt lat="40.86272471738617" lon="9.641506093961747"><ele>20.0</ele><time>2026-04-04T07:39:58Z</time></trkpt><trkpt lat="40.86247805995301" lon="9.641593464272425"><ele>22.5</ele><time>2026-04-04T07:39:59Z</time></trkpt><trkpt lat="40.86224882624346" lon="9.641681726392427"><ele>25.0</ele><time>2026-04-04T07:40:00Z</time></trkpt><trkpt lat="40.86202854744373" lon="9.641782868274332"><ele>25.0</ele><time>2026-04-04T07:40:01Z</time></trkpt><trkpt lat="40.861805972680536" lon="9.641863736170139"><ele>25.0</ele><time>2026-04-04T07:40:02Z</time></trkpt><trkpt lat="40.8615801704062" lon="9.641946068565987"><ele>22.5</ele><time>2026-04-04T07:40:03Z</time></trkpt><trkpt lat="40.86135002522845" lon="9.641987005327593"><ele>20.0</ele><time>2026-04-04T07:40:04Z</time></trkpt><trkpt lat="40.86111335942924" lon="9.642026965507176"><ele>18.5</ele><time>2026-04-04T07:40:05Z</time></trkpt><trkpt lat="40.86087148023353" lon="9.642067836968423"><ele>17.0</ele><time>2026-04-04T07:40:06Z</time></trkpt><trkpt lat="40.86062527447101" lon="9.642109439552307"><ele>17.0</ele><time>2026-04-04T07:40:07Z</time></trkpt><trkpt lat="40.86038370346389" lon="9.642150258957228"><ele>17.0</ele><time>2026-04-04T07:40:08Z</time></trkpt><trkpt lat="40.86015931308024" lon="9.6421881752731"><ele>16.666666666666668</ele><time>2026-04-04T07:40:09Z</time></trkpt><trkpt lat="40.85995041066609" lon="9.642243133435896"><ele>16.333333333333332</ele><time>2026-04-04T07:40:10Z</time></trkpt><trkpt lat="40.85974885723127" lon="9.64227472586398"><ele>16.0</ele><time>2026-04-04T07:40:11Z</time></trkpt><trkpt lat="40.859556588251984" lon="9.642306552517494"><ele>16.0</ele><time>2026-04-04T07:40:12Z</time></trkpt><trkpt lat="40.8593710107352" lon="9.642338054292917"><ele>16.0</ele><time>2026-04-04T07:40:13Z</time></trkpt><trkpt lat="40.85918557135268" lon="9.642371469119679"><ele>16.0</ele><time>2026-04-04T07:40:14Z</time></trkpt><trkpt lat="40.8589932754305" lon="9.642425264076843"><ele>15.666666666666666</ele><time>2026-04-04T07:40:15Z</time></trkpt><trkpt lat="40.85880294566481" lon="9.642501762002794"><ele>15.333333333333332</ele><time>2026-04-04T07:40:16Z</time></trkpt><trkpt lat="40.858609753898456" lon="9.64260732104027"><ele>15.0</ele><time>2026-04-04T07:40:17Z</time></trkpt><trkpt lat="40.858420956283204" lon="9.642719379496132"><ele>14.0</ele><time>2026-04-04T07:40:18Z</time></trkpt><trkpt lat="40.85822325491301" lon="9.64284972049775"><ele>13.0</ele><time>2026-04-04T07:40:19Z</time></trkpt><trkpt lat="40.85803269739557" lon="9.642970952428634"><ele>12.0</ele><time>2026-04-04T07:40:20Z</time></trkpt><trkpt lat="40.85785642882183" lon="9.64307549532082"><ele>12.0</ele><time>2026-04-04T07:40:21Z</time></trkpt><trkpt lat="40.85769860756414" lon="9.64316749304249"><ele>12.0</ele><time>2026-04-04T07:40:22Z</time></trkpt><trkpt lat="40.857555227266296" lon="9.643253711377977"><ele>12.0</ele><time>2026-04-04T07:40:23Z</time></trkpt><trkpt lat="40.85742962241421" lon="9.643332302977747"><ele>12.0</ele><time>2026-04-04T07:40:24Z</time></trkpt><trkpt lat="40.85732158391969" lon="9.64340561743238"><ele>12.0</ele><time>2026-04-04T07:40:25Z</time></trkpt><trkpt lat="40.85722196596195" lon="9.643468593995244"><ele>12.0</ele><time>2026-04-04T07:40:26Z</time></trkpt><trkpt lat="40.85712691926031" lon="9.643499341794504"><ele>12.0</ele><time>2026-04-04T07:40:27Z</time></trkpt><trkpt lat="40.85703169657602" lon="9.643489452492865"><ele>12.0</ele><time>2026-04-04T07:40:28Z</time></trkpt><trkpt lat="40.85695231354117" lon="9.643541241532775"><ele>10.666666666666666</ele><time>2026-04-04T07:40:29Z</time></trkpt><trkpt lat="40.85672950935311" lon="9.643738028595541"><ele>9.333333333333332</ele><time>2026-04-04T07:40:31Z</time></trkpt><trkpt lat="40.856591415191865" lon="9.643858146449164"><ele>8.0</ele><time>2026-04-04T07:40:32Z</time></trkpt><trkpt lat="40.856432461479464" lon="9.64395221028568"><ele>8.0</ele><time>2026-04-04T07:40:33Z</time></trkpt><trkpt lat="40.85625707705588" lon="9.644053410154724"><ele>8.0</ele><time>2026-04-04T07:40:34Z</time></trkpt><trkpt lat="40.85606198599599" lon="9.644182194275817"><ele>8.0</ele><time>2026-04-04T07:40:35Z</time></trkpt><trkpt lat="40.85584449027194" lon="9.644314724936654"><ele>8.0</ele><time>2026-04-04T07:40:36Z</time></trkpt><trkpt lat="40.855636372461014" lon="9.644435905538614"><ele>8.0</ele><time>2026-04-04T07:40:37Z</time></trkpt><trkpt lat="40.85541762696768" lon="9.644566784384093"><ele>7.5</ele><time>2026-04-04T07:40:38Z</time></trkpt><trkpt lat="40.855198814035845" lon="9.64470087825994"><ele>7.0</ele><time>2026-04-04T07:40:39Z</time></trkpt><trkpt lat="40.85497355567064" lon="9.644834254490354"><ele>7.0</ele><time>2026-04-04T07:40:40Z</time></trkpt><trkpt lat="40.85475401960168" lon="9.644965975797529"><ele>7.0</ele><time>2026-04-04T07:40:41Z</time></trkpt><trkpt lat="40.85453561041388" lon="9.645098725252279"><ele>7.0</ele><time>2026-04-04T07:40:42Z</time></trkpt><trkpt lat="40.85431533059896" lon="9.645230066428283"><ele>7.0</ele><time>2026-04-04T07:40:43Z</time></trkpt><trkpt lat="40.85409653802038" lon="9.64536375229447"><ele>7.0</ele><time>2026-04-04T07:40:44Z</time></trkpt><trkpt lat="40.8538877892367" lon="9.64549340604387"><ele>7.0</ele><time>2026-04-04T07:40:45Z</time></trkpt><trkpt lat="40.853695514536895" lon="9.645610063421982"><ele>7.0</ele><time>2026-04-04T07:40:46Z</time></trkpt><trkpt lat="40.85352065213036" lon="9.645709915884472"><ele>7.666666666666667</ele><time>2026-04-04T07:40:47Z</time></trkpt><trkpt lat="40.85334024570975" lon="9.645802979130737"><ele>8.333333333333334</ele><time>2026-04-04T07:40:48Z</time></trkpt><trkpt lat="40.853145715952216" lon="9.645880434792959"><ele>9.0</ele><time>2026-04-04T07:40:49Z</time></trkpt><trkpt lat="40.852937184536806" lon="9.645941323378274"><ele>9.0</ele><time>2026-04-04T07:40:50Z</time></trkpt><trkpt lat="40.85271835071434" lon="9.645995884936974"><ele>9.0</ele><time>2026-04-04T07:40:51Z</time></trkpt><trkpt lat="40.852490769533254" lon="9.646057943128397"><ele>8.0</ele><time>2026-04-04T07:40:52Z</time></trkpt><trkpt lat="40.85225608310654" lon="9.64612754647928"><ele>7.0</ele><time>2026-04-04T07:40:53Z</time></trkpt><trkpt lat="40.852018701158244" lon="9.64619535939663"><ele>7.0</ele><time>2026-04-04T07:40:54Z</time></trkpt><trkpt lat="40.85177285435342" lon="9.64626294461209"><ele>7.0</ele><time>2026-04-04T07:40:55Z</time></trkpt><trkpt lat="40.851531998926234" lon="9.646329052556691"><ele>7.0</ele><time>2026-04-04T07:40:56Z</time></trkpt><trkpt lat="40.85131110876368" lon="9.64638851147068"><ele>7.0</ele><time>2026-04-04T07:40:57Z</time></trkpt><trkpt lat="40.8510957703379" lon="9.64645052402582"><ele>7.0</ele><time>2026-04-04T07:40:58Z</time></trkpt><trkpt lat="40.850877612848066" lon="9.646515376470173"><ele>7.5</ele><time>2026-04-04T07:40:59Z</time></trkpt><trkpt lat="40.85065452261307" lon="9.646579778814813"><ele>8.0</ele><time>2026-04-04T07:41:00Z</time></trkpt><trkpt lat="40.850430528977654" lon="9.646643503760068"><ele>8.0</ele><time>2026-04-04T07:41:01Z</time></trkpt><trkpt lat="40.85020444744586" lon="9.646709398779374"><ele>8.0</ele><time>2026-04-04T07:41:02Z</time></trkpt><trkpt lat="40.84998227969288" lon="9.646775010010856"><ele>6.0</ele><time>2026-04-04T07:41:03Z</time></trkpt><trkpt lat="40.84975566166448" lon="9.646840586612548"><ele>4.0</ele><time>2026-04-04T07:41:04Z</time></trkpt><trkpt lat="40.849529085348216" lon="9.646905513738483"><ele>4.5</ele><time>2026-04-04T07:41:05Z</time></trkpt><trkpt lat="40.84930177103775" lon="9.646971659421391"><ele>5.0</ele><time>2026-04-04T07:41:06Z</time></trkpt><trkpt lat="40.849075152753926" lon="9.64703616015688"><ele>5.0</ele><time>2026-04-04T07:41:07Z</time></trkpt><trkpt lat="40.84884835706924" lon="9.647100403760621"><ele>5.0</ele><time>2026-04-04T07:41:08Z</time></trkpt><trkpt lat="40.84862730464495" lon="9.647163400741682"><ele>6.0</ele><time>2026-04-04T07:41:09Z</time></trkpt><trkpt lat="40.84842020830518" lon="9.647221715268543"><ele>7.0</ele><time>2026-04-04T07:41:10Z</time></trkpt><trkpt lat="40.84823040872035" lon="9.647275418191942"><ele>8.0</ele><time>2026-04-04T07:41:11Z</time></trkpt><trkpt lat="40.84805144258299" lon="9.647324374428432"><ele>8.0</ele><time>2026-04-04T07:41:12Z</time></trkpt><trkpt lat="40.847881598386806" lon="9.64737084127252"><ele>8.0</ele><time>2026-04-04T07:41:13Z</time></trkpt><trkpt lat="40.84771599385122" lon="9.647417398824352"><ele>8.0</ele><time>2026-04-04T07:41:14Z</time></trkpt><trkpt lat="40.84756302601108" lon="9.647465058468029"><ele>8.666666666666666</ele><time>2026-04-04T07:41:15Z</time></trkpt><trkpt lat="40.8474013017314" lon="9.64751731694371"><ele>9.333333333333334</ele><time>2026-04-04T07:41:16Z</time></trkpt><trkpt lat="40.84723084631407" lon="9.647567928744063"><ele>10.0</ele><time>2026-04-04T07:41:17Z</time></trkpt><trkpt lat="40.847061643188326" lon="9.647613120993588"><ele>10.0</ele><time>2026-04-04T07:41:18Z</time></trkpt><trkpt lat="40.846884973515806" lon="9.647661083319921"><ele>10.0</ele><time>2026-04-04T07:41:19Z</time></trkpt><trkpt lat="40.84671836003324" lon="9.647708578159996"><ele>10.0</ele><time>2026-04-04T07:41:20Z</time></trkpt><trkpt lat="40.84656754807798" lon="9.647751332608165"><ele>9.75</ele><time>2026-04-04T07:41:21Z</time></trkpt><trkpt lat="40.846422678131944" lon="9.647791227686211"><ele>9.5</ele><time>2026-04-04T07:41:22Z</time></trkpt><trkpt lat="40.84628544079532" lon="9.647827435248942"><ele>9.25</ele><time>2026-04-04T07:41:23Z</time></trkpt><trkpt lat="40.84614269585344" lon="9.647868474950025"><ele>9.0</ele><time>2026-04-04T07:41:24Z</time></trkpt><trkpt lat="40.84598833170885" lon="9.64791458447734"><ele>9.666666666666666</ele><time>2026-04-04T07:41:25Z</time></trkpt><trkpt lat="40.845833613313566" lon="9.647958140890411"><ele>10.333333333333332</ele><time>2026-04-04T07:41:26Z</time></trkpt><trkpt lat="40.84567723525691" lon="9.6480012137721"><ele>11.0</ele><time>2026-04-04T07:41:27Z</time></trkpt><trkpt lat="40.84551383765371" lon="9.648046862773024"><ele>11.0</ele><time>2026-04-04T07:41:28Z</time></trkpt><trkpt lat="40.84534575998691" lon="9.648096808738632"><ele>11.0</ele><time>2026-04-04T07:41:29Z</time></trkpt><trkpt lat="40.845181319590395" lon="9.648147817957813"><ele>11.0</ele><time>2026-04-04T07:41:30Z</time></trkpt><trkpt lat="40.845010426418945" lon="9.648197716402679"><ele>11.666666666666666</ele><time>2026-04-04T07:41:31Z</time></trkpt><trkpt lat="40.84483668897132" lon="9.648246400621227"><ele>12.333333333333332</ele><time>2026-04-04T07:41:32Z</time></trkpt><trkpt lat="40.84465763829433" lon="9.648295420592227"><ele>13.0</ele><time>2026-04-04T07:41:33Z</time></trkpt><trkpt lat="40.84447498248452" lon="9.648345883728368"><ele>13.0</ele><time>2026-04-04T07:41:34Z</time></trkpt><trkpt lat="40.84428905603063" lon="9.64839639712583"><ele>13.0</ele><time>2026-04-04T07:41:35Z</time></trkpt><trkpt lat="40.84410467503649" lon="9.648447534497354"><ele>13.0</ele><time>2026-04-04T07:41:36Z</time></trkpt><trkpt lat="40.843913526604716" lon="9.648502000979025"><ele>13.0</ele><time>2026-04-04T07:41:37Z</time></trkpt><trkpt lat="40.84372243548826" lon="9.64855942341501"><ele>13.0</ele><time>2026-04-04T07:41:38Z</time></trkpt><trkpt lat="40.84353190756707" lon="9.648615417816998"><ele>13.0</ele><time>2026-04-04T07:41:39Z</time></trkpt><trkpt lat="40.84333636626549" lon="9.648678247790292"><ele>14.0</ele><time>2026-04-04T07:41:40Z</time></trkpt><trkpt lat="40.84312026769229" lon="9.648762566961652"><ele>15.0</ele><time>2026-04-04T07:41:41Z</time></trkpt><trkpt lat="40.842901846342244" lon="9.648866912104413"><ele>15.0</ele><time>2026-04-04T07:41:42Z</time></trkpt><trkpt lat="40.84269393802019" lon="9.648979791434318"><ele>15.0</ele><time>2026-04-04T07:41:43Z</time></trkpt><trkpt lat="40.84251212993832" lon="9.64907545424003"><ele>15.0</ele><time>2026-04-04T07:41:44Z</time></trkpt><trkpt lat="40.842348396734934" lon="9.64916089337539"><ele>16.25</ele><time>2026-04-04T07:41:45Z</time></trkpt><trkpt lat="40.84220034169201" lon="9.64923615106778"><ele>17.5</ele><time>2026-04-04T07:41:46Z</time></trkpt><trkpt lat="40.842080637727435" lon="9.649310124079225"><ele>18.75</ele><time>2026-04-04T07:41:47Z</time></trkpt><trkpt lat="40.84199172163114" lon="9.649418744213245"><ele>20.0</ele><time>2026-04-04T07:41:48Z</time></trkpt><trkpt lat="40.84193967484111" lon="9.649564509064657"><ele>20.0</ele><time>2026-04-04T07:41:49Z</time></trkpt><trkpt lat="40.84193561676504" lon="9.649750911257305"><ele>20.0</ele><time>2026-04-04T07:41:50Z</time></trkpt><trkpt lat="40.84197929766272" lon="9.649965086234321"><ele>20.0</ele><time>2026-04-04T07:41:51Z</time></trkpt><trkpt lat="40.84203320477347" lon="9.650184939272453"><ele>21.0</ele><time>2026-04-04T07:41:52Z</time></trkpt><trkpt lat="40.842077276123355" lon="9.650414500797615"><ele>22.0</ele><time>2026-04-04T07:41:53Z</time></trkpt><trkpt lat="40.84210737905927" lon="9.650629066530122"><ele>23.0</ele><time>2026-04-04T07:41:54Z</time></trkpt><trkpt lat="40.84212065693488" lon="9.650820426230206"><ele>23.0</ele><time>2026-04-04T07:41:55Z</time></trkpt><trkpt lat="40.84207976335535" lon="9.651002756156833"><ele>23.0</ele><time>2026-04-04T07:41:56Z</time></trkpt><trkpt lat="40.84203691881197" lon="9.651196194009215"><ele>23.0</ele><time>2026-04-04T07:41:57Z</time></trkpt><trkpt lat="40.841995350644304" lon="9.651390476948768"><ele>23.0</ele><time>2026-04-04T07:41:58Z</time></trkpt><trkpt lat="40.84198433604841" lon="9.651614439232025"><ele>24.5</ele><time>2026-04-04T07:41:59Z</time></trkpt><trkpt lat="40.84198734554216" lon="9.651814704481843"><ele>26.0</ele><time>2026-04-04T07:42:00Z</time></trkpt><trkpt lat="40.84198492570578" lon="9.651977258152383"><ele>27.5</ele><time>2026-04-04T07:42:01Z</time></trkpt><trkpt lat="40.84195939486631" lon="9.652117564289673"><ele>29.0</ele><time>2026-04-04T07:42:02Z</time></trkpt><trkpt lat="40.84190894494845" lon="9.652228886865323"><ele>31.0</ele><time>2026-04-04T07:42:03Z</time></trkpt><trkpt lat="40.84183104937108" lon="9.652314718672526"><ele>33.0</ele><time>2026-04-04T07:42:04Z</time></trkpt><trkpt lat="40.84173324927382" lon="9.652381137559573"><ele>35.0</ele><time>2026-04-04T07:42:05Z</time></trkpt><trkpt lat="40.84162556606588" lon="9.652453434800385"><ele>37.0</ele><time>2026-04-04T07:42:06Z</time></trkpt><trkpt lat="40.84152836693743" lon="9.65257118758365"><ele>38.75</ele><time>2026-04-04T07:42:07Z</time></trkpt><trkpt lat="40.841428358182476" lon="9.652704233326867"><ele>40.5</ele><time>2026-04-04T07:42:08Z</time></trkpt><trkpt lat="40.841338860374265" lon="9.652827824985447"><ele>42.25</ele><time>2026-04-04T07:42:09Z</time></trkpt><trkpt lat="40.84125631038725" lon="9.652959850048523"><ele>44.0</ele><time>2026-04-04T07:42:10Z</time></trkpt><trkpt lat="40.84117245774038" lon="9.653090097861076"><ele>44.0</ele><time>2026-04-04T07:42:11Z</time></trkpt><trkpt lat="40.84109632395216" lon="9.653205842530575"><ele>44.0</ele><time>2026-04-04T07:42:12Z</time></trkpt><trkpt lat="40.841026211396894" lon="9.653314299451715"><ele>44.0</ele><time>2026-04-04T07:42:13Z</time></trkpt><trkpt lat="40.84096222098421" lon="9.653416075843856"><ele>44.0</ele><time>2026-04-04T07:42:14Z</time></trkpt><trkpt lat="40.84090073974649" lon="9.653515962994591"><ele>44.0</ele><time>2026-04-04T07:42:15Z</time></trkpt><trkpt lat="40.84083657304472" lon="9.653627794545802"><ele>44.0</ele><time>2026-04-04T07:42:16Z</time></trkpt><trkpt lat="40.84077170763342" lon="9.653759654140972"><ele>44.0</ele><time>2026-04-04T07:42:17Z</time></trkpt><trkpt lat="40.840712671774824" lon="9.653902718857404"><ele>44.0</ele><time>2026-04-04T07:42:18Z</time></trkpt><trkpt lat="40.840655093434854" lon="9.654061125666477"><ele>44.0</ele><time>2026-04-04T07:42:19Z</time></trkpt><trkpt lat="40.84060057405129" lon="9.654233406809945"><ele>44.0</ele><time>2026-04-04T07:42:20Z</time></trkpt><trkpt lat="40.84055311689599" lon="9.65440271626257"><ele>44.0</ele><time>2026-04-04T07:42:21Z</time></trkpt><trkpt lat="40.840500931572045" lon="9.654556413333335"><ele>44.0</ele><time>2026-04-04T07:42:22Z</time></trkpt><trkpt lat="40.840451592051956" lon="9.654703598975342"><ele>44.0</ele><time>2026-04-04T07:42:23Z</time></trkpt><trkpt lat="40.84040429672532" lon="9.65485361578871"><ele>43.0</ele><time>2026-04-04T07:42:24Z</time></trkpt><trkpt lat="40.84035479073747" lon="9.655016644877197"><ele>42.0</ele><time>2026-04-04T07:42:25Z</time></trkpt><trkpt lat="40.84029874896844" lon="9.655195487248353"><ele>41.0</ele><time>2026-04-04T07:42:26Z</time></trkpt><trkpt lat="40.84023326076793" lon="9.655378843244396"><ele>40.0</ele><time>2026-04-04T07:42:27Z</time></trkpt><trkpt lat="40.84015115800657" lon="9.655566086825809"><ele>39.0</ele><time>2026-04-04T07:42:28Z</time></trkpt><trkpt lat="40.840049333441875" lon="9.655752014846398"><ele>38.0</ele><time>2026-04-04T07:42:29Z</time></trkpt><trkpt lat="40.83993651836848" lon="9.655936091156235"><ele>37.0</ele><time>2026-04-04T07:42:30Z</time></trkpt><trkpt lat="40.839816541116434" lon="9.65610727849836"><ele>36.333333333333336</ele><time>2026-04-04T07:42:31Z</time></trkpt><trkpt lat="40.83969387815122" lon="9.656276077612992"><ele>35.666666666666664</ele><time>2026-04-04T07:42:32Z</time></trkpt><trkpt lat="40.83956056039223" lon="9.65646142135201"><ele>35.0</ele><time>2026-04-04T07:42:33Z</time></trkpt><trkpt lat="40.83942261429707" lon="9.656649527406335"><ele>33.33333333333333</ele><time>2026-04-04T07:42:34Z</time></trkpt><trkpt lat="40.839276357198585" lon="9.656848578741563"><ele>31.666666666666664</ele><time>2026-04-04T07:42:35Z</time></trkpt><trkpt lat="40.8391273347091" lon="9.65705192873055"><ele>30.0</ele><time>2026-04-04T07:42:36Z</time></trkpt><trkpt lat="40.83898357632232" lon="9.65725112868944"><ele>30.0</ele><time>2026-04-04T07:42:37Z</time></trkpt><trkpt lat="40.83884634673487" lon="9.657437892519871"><ele>30.0</ele><time>2026-04-04T07:42:38Z</time></trkpt><trkpt lat="40.83870688191731" lon="9.657627963432073"><ele>30.0</ele><time>2026-04-04T07:42:39Z</time></trkpt><trkpt lat="40.8385707032773" lon="9.657813523994623"><ele>30.0</ele><time>2026-04-04T07:42:40Z</time></trkpt><trkpt lat="40.838436068892435" lon="9.657995675764456"><ele>30.0</ele><time>2026-04-04T07:42:41Z</time></trkpt><trkpt lat="40.83830320322883" lon="9.658179230535122"><ele>30.0</ele><time>2026-04-04T07:42:42Z</time></trkpt><trkpt lat="40.83817098616334" lon="9.658374415730313"><ele>30.0</ele><time>2026-04-04T07:42:43Z</time></trkpt><trkpt lat="40.8380439994441" lon="9.658582998451974"><ele>30.0</ele><time>2026-04-04T07:42:44Z</time></trkpt><trkpt lat="40.83791338394964" lon="9.658797408927562"><ele>30.0</ele><time>2026-04-04T07:42:45Z</time></trkpt><trkpt lat="40.83778912020713" lon="9.659000283638218"><ele>29.333333333333336</ele><time>2026-04-04T07:42:46Z</time></trkpt><trkpt lat="40.83766044812727" lon="9.659207864040972"><ele>28.666666666666668</ele><time>2026-04-04T07:42:47Z</time></trkpt><trkpt lat="40.8375245596853" lon="9.659420731344216"><ele>28.0</ele><time>2026-04-04T07:42:48Z</time></trkpt><trkpt lat="40.8373900862809" lon="9.659632083304032"><ele>25.333333333333336</ele><time>2026-04-04T07:42:49Z</time></trkpt><trkpt lat="40.837252437070305" lon="9.659849533989737"><ele>22.666666666666668</ele><time>2026-04-04T07:42:50Z</time></trkpt><trkpt lat="40.83711728049785" lon="9.660065130285016"><ele>20.0</ele><time>2026-04-04T07:42:51Z</time></trkpt><trkpt lat="40.8369798157035" lon="9.66028890462172"><ele>20.0</ele><time>2026-04-04T07:42:52Z</time></trkpt><trkpt lat="40.836839248583274" lon="9.660516394229372"><ele>20.0</ele><time>2026-04-04T07:42:53Z</time></trkpt><trkpt lat="40.8366939531964" lon="9.66074583857253"><ele>20.0</ele><time>2026-04-04T07:42:54Z</time></trkpt><trkpt lat="40.83654526619616" lon="9.660978480761246"><ele>18.5</ele><time>2026-04-04T07:42:55Z</time></trkpt><trkpt lat="40.836396478347034" lon="9.66121290617882"><ele>17.0</ele><time>2026-04-04T07:42:56Z</time></trkpt><trkpt lat="40.83624487133999" lon="9.661451887980869"><ele>17.0</ele><time>2026-04-04T07:42:57Z</time></trkpt><trkpt lat="40.836090847594505" lon="9.661697735677896"><ele>17.0</ele><time>2026-04-04T07:42:58Z</time></trkpt><trkpt lat="40.835939268911105" lon="9.661941282463232"><ele>18.5</ele><time>2026-04-04T07:42:59Z</time></trkpt><trkpt lat="40.83578555961605" lon="9.662187677775753"><ele>20.0</ele><time>2026-04-04T07:43:00Z</time></trkpt><trkpt lat="40.835641625749915" lon="9.662417971352365"><ele>20.0</ele><time>2026-04-04T07:43:01Z</time></trkpt><trkpt lat="40.83550501324196" lon="9.662634941594128"><ele>20.0</ele><time>2026-04-04T07:43:02Z</time></trkpt><trkpt lat="40.83536942389003" lon="9.662853880448177"><ele>20.0</ele><time>2026-04-04T07:43:03Z</time></trkpt><trkpt lat="40.83523776425323" lon="9.663065742842623"><ele>20.0</ele><time>2026-04-04T07:43:04Z</time></trkpt><trkpt lat="40.83511763063225" lon="9.663256991413833"><ele>20.0</ele><time>2026-04-04T07:43:05Z</time></trkpt><trkpt lat="40.83499820414833" lon="9.663449543434332"><ele>20.0</ele><time>2026-04-04T07:43:06Z</time></trkpt><trkpt lat="40.83488816285765" lon="9.663625196313813"><ele>20.0</ele><time>2026-04-04T07:43:07Z</time></trkpt><trkpt lat="40.83478078956881" lon="9.663799011156714"><ele>20.0</ele><time>2026-04-04T07:43:08Z</time></trkpt><trkpt lat="40.83468479956078" lon="9.663954183299348"><ele>20.0</ele><time>2026-04-04T07:43:09Z</time></trkpt><trkpt lat="40.83459285881651" lon="9.664096188741054"><ele>20.0</ele><time>2026-04-04T07:43:10Z</time></trkpt><trkpt lat="40.83449534409482" lon="9.664210344731188"><ele>20.0</ele><time>2026-04-04T07:43:11Z</time></trkpt><trkpt lat="40.83437178325213" lon="9.664301478051804"><ele>20.0</ele><time>2026-04-04T07:43:12Z</time></trkpt><trkpt lat="40.83422478724585" lon="9.664364441092301"><ele>20.0</ele><time>2026-04-04T07:43:13Z</time></trkpt><trkpt lat="40.834055905862996" lon="9.664348863952922"><ele>19.333333333333336</ele><time>2026-04-04T07:43:14Z</time></trkpt><trkpt lat="40.83390871645819" lon="9.664340593267841"><ele>18.666666666666668</ele><time>2026-04-04T07:43:15Z</time></trkpt><trkpt lat="40.8337414632711" lon="9.664337313759432"><ele>18.0</ele><time>2026-04-04T07:43:16Z</time></trkpt><trkpt lat="40.83357247895522" lon="9.664311012487698"><ele>17.333333333333332</ele><time>2026-04-04T07:43:17Z</time></trkpt><trkpt lat="40.833387360735536" lon="9.664261856135306"><ele>16.666666666666664</ele><time>2026-04-04T07:43:18Z</time></trkpt><trkpt lat="40.83320103723073" lon="9.664255679634515"><ele>16.0</ele><time>2026-04-04T07:43:19Z</time></trkpt><trkpt lat="40.833035742022176" lon="9.664231111019411"><ele>16.0</ele><time>2026-04-04T07:43:20Z</time></trkpt><trkpt lat="40.83287052265829" lon="9.664208188807248"><ele>16.0</ele><time>2026-04-04T07:43:21Z</time></trkpt><trkpt lat="40.83270404408032" lon="9.664183488154237"><ele>16.0</ele><time>2026-04-04T07:43:22Z</time></trkpt><trkpt lat="40.83252822342676" lon="9.664157246769904"><ele>16.0</ele><time>2026-04-04T07:43:23Z</time></trkpt><trkpt lat="40.83234709200788" lon="9.664130835233566"><ele>16.0</ele><time>2026-04-04T07:43:24Z</time></trkpt><trkpt lat="40.83216375919175" lon="9.664104567647188"><ele>16.0</ele><time>2026-04-04T07:43:25Z</time></trkpt><trkpt lat="40.83197855822003" lon="9.664076931927664"><ele>16.333333333333332</ele><time>2026-04-04T07:43:26Z</time></trkpt><trkpt lat="40.83179818117217" lon="9.664047911813325"><ele>16.666666666666668</ele><time>2026-04-04T07:43:27Z</time></trkpt><trkpt lat="40.8316341531972" lon="9.664021681448395"><ele>17.0</ele><time>2026-04-04T07:43:28Z</time></trkpt><trkpt lat="40.831477978439075" lon="9.663995967855392"><ele>17.0</ele><time>2026-04-04T07:43:29Z</time></trkpt><trkpt lat="40.83132152323721" lon="9.663966153238166"><ele>17.0</ele><time>2026-04-04T07:43:30Z</time></trkpt><trkpt lat="40.83117469734098" lon="9.663891043652399"><ele>17.0</ele><time>2026-04-04T07:43:31Z</time></trkpt><trkpt lat="40.83103866322929" lon="9.66377973692335"><ele>17.333333333333336</ele><time>2026-04-04T07:43:32Z</time></trkpt><trkpt lat="40.83085691613433" lon="9.66366418228308"><ele>17.666666666666668</ele><time>2026-04-04T07:43:33Z</time></trkpt><trkpt lat="40.83069621113928" lon="9.66350977991135"><ele>18.0</ele><time>2026-04-04T07:43:34Z</time></trkpt><trkpt lat="40.8305290747209" lon="9.663376775462467"><ele>18.666666666666668</ele><time>2026-04-04T07:43:35Z</time></trkpt><trkpt lat="40.83036935173816" lon="9.663252630352053"><ele>19.333333333333336</ele><time>2026-04-04T07:43:36Z</time></trkpt><trkpt lat="40.8302081584301" lon="9.663127346353608"><ele>20.0</ele><time>2026-04-04T07:43:37Z</time></trkpt><trkpt lat="40.83004791056619" lon="9.663002773691785"><ele>20.0</ele><time>2026-04-04T07:43:38Z</time></trkpt><trkpt lat="40.829896833805755" lon="9.66288667749362"><ele>20.0</ele><time>2026-04-04T07:43:39Z</time></trkpt><trkpt lat="40.82975188677085" lon="9.662798292292727"><ele>20.0</ele><time>2026-04-04T07:43:40Z</time></trkpt><trkpt lat="40.82962742579508" lon="9.6627049562424"><ele>21.25</ele><time>2026-04-04T07:43:41Z</time></trkpt><trkpt lat="40.8295115243437" lon="9.662621268622472"><ele>22.5</ele><time>2026-04-04T07:43:42Z</time></trkpt><trkpt lat="40.82939720798293" lon="9.66254013577479"><ele>23.75</ele><time>2026-04-04T07:43:43Z</time></trkpt><trkpt lat="40.82928424099211" lon="9.662470986838834"><ele>25.0</ele><time>2026-04-04T07:43:44Z</time></trkpt><trkpt lat="40.82915922553799" lon="9.66240872489574"><ele>25.0</ele><time>2026-04-04T07:43:45Z</time></trkpt><trkpt lat="40.82902178209995" lon="9.662362531786757"><ele>25.0</ele><time>2026-04-04T07:43:46Z</time></trkpt><trkpt lat="40.82887596365182" lon="9.662335529217465"><ele>25.0</ele><time>2026-04-04T07:43:47Z</time></trkpt><trkpt lat="40.82871364232976" lon="9.66233732015068"><ele>25.0</ele><time>2026-04-04T07:43:48Z</time></trkpt><trkpt lat="40.828538829217244" lon="9.662357201453265"><ele>25.0</ele><time>2026-04-04T07:43:49Z</time></trkpt><trkpt lat="40.8283529613894" lon="9.662376593974713"><ele>25.0</ele><time>2026-04-04T07:43:50Z</time></trkpt><trkpt lat="40.82816185508758" lon="9.66239180954984"><ele>25.0</ele><time>2026-04-04T07:43:51Z</time></trkpt><trkpt lat="40.827969978011204" lon="9.662406708902552"><ele>25.0</ele><time>2026-04-04T07:43:52Z</time></trkpt><trkpt lat="40.82779575898498" lon="9.662420497323671"><ele>25.0</ele><time>2026-04-04T07:43:53Z</time></trkpt><trkpt lat="40.827638931896516" lon="9.662432656668496"><ele>25.75</ele><time>2026-04-04T07:43:54Z</time></trkpt><trkpt lat="40.82749743631384" lon="9.662444330785492"><ele>26.5</ele><time>2026-04-04T07:43:55Z</time></trkpt><trkpt lat="40.82736706105916" lon="9.662448091695067"><ele>27.25</ele><time>2026-04-04T07:43:56Z</time></trkpt><trkpt lat="40.827245243297966" lon="9.662430844685133"><ele>28.0</ele><time>2026-04-04T07:43:57Z</time></trkpt><trkpt lat="40.82711801029489" lon="9.6623870047228"><ele>28.0</ele><time>2026-04-04T07:43:58Z</time></trkpt><trkpt lat="40.826992881063184" lon="9.66230731573183"><ele>28.0</ele><time>2026-04-04T07:43:59Z</time></trkpt><trkpt lat="40.82686877758046" lon="9.662198644547033"><ele>28.0</ele><time>2026-04-04T07:44:00Z</time></trkpt><trkpt lat="40.826750113587856" lon="9.662053240693819"><ele>30.0</ele><time>2026-04-04T07:44:01Z</time></trkpt><trkpt lat="40.826622687673314" lon="9.66189083098683"><ele>32.0</ele><time>2026-04-04T07:44:02Z</time></trkpt><trkpt lat="40.82648785456719" lon="9.661728804044229"><ele>34.0</ele><time>2026-04-04T07:44:03Z</time></trkpt><trkpt lat="40.826354066870714" lon="9.661564235558453"><ele>34.0</ele><time>2026-04-04T07:44:04Z</time></trkpt><trkpt lat="40.826236668630735" lon="9.661417803983195"><ele>34.0</ele><time>2026-04-04T07:44:05Z</time></trkpt><trkpt lat="40.82612790720109" lon="9.66128357418393"><ele>34.0</ele><time>2026-04-04T07:44:06Z</time></trkpt><trkpt lat="40.826027692763624" lon="9.661162936758164"><ele>34.0</ele><time>2026-04-04T07:44:07Z</time></trkpt><trkpt lat="40.82593280601436" lon="9.661046545239822"><ele>35.75</ele><time>2026-04-04T07:44:08Z</time></trkpt><trkpt lat="40.825834998300586" lon="9.660924801931682"><ele>37.5</ele><time>2026-04-04T07:44:09Z</time></trkpt><trkpt lat="40.825739248751724" lon="9.66080381313264"><ele>39.25</ele><time>2026-04-04T07:44:10Z</time></trkpt><trkpt lat="40.82564453560474" lon="9.6606758569755"><ele>41.0</ele><time>2026-04-04T07:44:11Z</time></trkpt><trkpt lat="40.82555425343421" lon="9.660556295531286"><ele>41.0</ele><time>2026-04-04T07:44:12Z</time></trkpt><trkpt lat="40.82546818677633" lon="9.660455167900587"><ele>41.0</ele><time>2026-04-04T07:44:13Z</time></trkpt><trkpt lat="40.82537474313454" lon="9.660371969818472"><ele>41.0</ele><time>2026-04-04T07:44:14Z</time></trkpt><trkpt lat="40.82526721626834" lon="9.660303456214468"><ele>41.0</ele><time>2026-04-04T07:44:15Z</time></trkpt><trkpt lat="40.82514839015683" lon="9.660248416222958"><ele>40.75</ele><time>2026-04-04T07:44:16Z</time></trkpt><trkpt lat="40.82501722392422" lon="9.66020369810342"><ele>40.5</ele><time>2026-04-04T07:44:17Z</time></trkpt><trkpt lat="40.82487402454705" lon="9.660138267311149"><ele>40.25</ele><time>2026-04-04T07:44:18Z</time></trkpt><trkpt lat="40.82472357712585" lon="9.660100887984644"><ele>40.0</ele><time>2026-04-04T07:44:19Z</time></trkpt><trkpt lat="40.82456652741618" lon="9.660061038766715"><ele>40.0</ele><time>2026-04-04T07:44:20Z</time></trkpt><trkpt lat="40.82440158308853" lon="9.660019045595698"><ele>40.0</ele><time>2026-04-04T07:44:21Z</time></trkpt><trkpt lat="40.824233809007396" lon="9.659976808658158"><ele>40.0</ele><time>2026-04-04T07:44:22Z</time></trkpt><trkpt lat="40.82408014327784" lon="9.6599382058915"><ele>39.333333333333336</ele><time>2026-04-04T07:44:23Z</time></trkpt><trkpt lat="40.82392674466913" lon="9.659899670230072"><ele>38.666666666666664</ele><time>2026-04-04T07:44:24Z</time></trkpt><trkpt lat="40.823780206830186" lon="9.659862858079546"><ele>38.0</ele><time>2026-04-04T07:44:25Z</time></trkpt><trkpt lat="40.8236350525219" lon="9.659827023344288"><ele>38.0</ele><time>2026-04-04T07:44:26Z</time></trkpt><trkpt lat="40.8234816485487" lon="9.659789167044357"><ele>38.0</ele><time>2026-04-04T07:44:27Z</time></trkpt><trkpt lat="40.823326874013105" lon="9.659750972521783"><ele>38.0</ele><time>2026-04-04T07:44:28Z</time></trkpt><trkpt lat="40.82317283777926" lon="9.65971156058203"><ele>36.666666666666664</ele><time>2026-04-04T07:44:29Z</time></trkpt><trkpt lat="40.82301598930047" lon="9.659671182255094"><ele>35.333333333333336</ele><time>2026-04-04T07:44:30Z</time></trkpt><trkpt lat="40.8228547395872" lon="9.659630276219241"><ele>34.0</ele><time>2026-04-04T07:44:31Z</time></trkpt><trkpt lat="40.82269032265429" lon="9.659588677397899"><ele>33.333333333333336</ele><time>2026-04-04T07:44:32Z</time></trkpt><trkpt lat="40.82254184838994" lon="9.659551112198738"><ele>32.666666666666664</ele><time>2026-04-04T07:44:33Z</time></trkpt><trkpt lat="40.8223812332789" lon="9.659533919515153"><ele>32.0</ele><time>2026-04-04T07:44:34Z</time></trkpt><trkpt lat="40.822228055238575" lon="9.6594948016245"><ele>32.0</ele><time>2026-04-04T07:44:35Z</time></trkpt><trkpt lat="40.822056083290164" lon="9.65944931869394"><ele>32.0</ele><time>2026-04-04T07:44:36Z</time></trkpt><trkpt lat="40.82189643801981" lon="9.659409273164183"><ele>32.0</ele><time>2026-04-04T07:44:37Z</time></trkpt><trkpt lat="40.82174036118791" lon="9.659370059660334"><ele>31.666666666666664</ele><time>2026-04-04T07:44:38Z</time></trkpt><trkpt lat="40.821583221099" lon="9.65932864092813"><ele>31.333333333333336</ele><time>2026-04-04T07:44:39Z</time></trkpt><trkpt lat="40.8214345888831" lon="9.65926947744561"><ele>31.0</ele><time>2026-04-04T07:44:40Z</time></trkpt><trkpt lat="40.82128992832596" lon="9.659234770268217"><ele>31.0</ele><time>2026-04-04T07:44:41Z</time></trkpt><trkpt lat="40.821147363561835" lon="9.659227882074156"><ele>31.0</ele><time>2026-04-04T07:44:42Z</time></trkpt><trkpt lat="40.82101117879932" lon="9.659210305541949"><ele>31.0</ele><time>2026-04-04T07:44:43Z</time></trkpt><trkpt lat="40.82087037664303" lon="9.65920450302275"><ele>31.0</ele><time>2026-04-04T07:44:44Z</time></trkpt><trkpt lat="40.82071638649916" lon="9.659202574302157"><ele>30.25</ele><time>2026-04-04T07:44:45Z</time></trkpt><trkpt lat="40.82056380359013" lon="9.659215005813767"><ele>29.5</ele><time>2026-04-04T07:44:46Z</time></trkpt><trkpt lat="40.82042285158047" lon="9.659235933645173"><ele>28.75</ele><time>2026-04-04T07:44:47Z</time></trkpt><trkpt lat="40.82028761962392" lon="9.659255005073941"><ele>28.0</ele><time>2026-04-04T07:44:48Z</time></trkpt><trkpt lat="40.82015780077887" lon="9.659278430942978"><ele>27.75</ele><time>2026-04-04T07:44:49Z</time></trkpt><trkpt lat="40.82003065295696" lon="9.659302683945633"><ele>27.5</ele><time>2026-04-04T07:44:50Z</time></trkpt><trkpt lat="40.81990694370106" lon="9.659322020016774"><ele>27.25</ele><time>2026-04-04T07:44:51Z</time></trkpt><trkpt lat="40.81978913736058" lon="9.659336445076313"><ele>27.0</ele><time>2026-04-04T07:44:52Z</time></trkpt><trkpt lat="40.81967601476985" lon="9.659352205529572"><ele>27.0</ele><time>2026-04-04T07:44:53Z</time></trkpt><trkpt lat="40.81957003943812" lon="9.659370457368633"><ele>27.000000000000004</ele><time>2026-04-04T07:44:54Z</time></trkpt><trkpt lat="40.819463977298085" lon="9.659386691285405"><ele>27.000000000000004</ele><time>2026-04-04T07:44:55Z</time></trkpt><trkpt lat="40.81936092835422" lon="9.659406548027231"><ele>27.0</ele><time>2026-04-04T07:44:56Z</time></trkpt><trkpt lat="40.819252048367225" lon="9.6594277727856"><ele>27.0</ele><time>2026-04-04T07:44:57Z</time></trkpt><trkpt lat="40.8191380951851" lon="9.659441977421702"><ele>26.25</ele><time>2026-04-04T07:44:58Z</time></trkpt><trkpt lat="40.8190139524812" lon="9.659458598643898"><ele>25.5</ele><time>2026-04-04T07:44:58.999Z</time></trkpt><trkpt lat="40.818882338593184" lon="9.659480201689037"><ele>24.75</ele><time>2026-04-04T07:44:59.999Z</time></trkpt><trkpt lat="40.81874687835673" lon="9.659504670101255"><ele>24.0</ele><time>2026-04-04T07:45:00.999Z</time></trkpt><trkpt lat="40.81861928367807" lon="9.659526561044922"><ele>24.0</ele><time>2026-04-04T07:45:01.999Z</time></trkpt><trkpt lat="40.81849948127864" lon="9.659547165631263"><ele>24.0</ele><time>2026-04-04T07:45:02.999Z</time></trkpt><trkpt lat="40.81837643307525" lon="9.659572561593691"><ele>24.0</ele><time>2026-04-04T07:45:03.999Z</time></trkpt><trkpt lat="40.81824550251748" lon="9.659592514959154"><ele>24.0</ele><time>2026-04-04T07:45:04.999Z</time></trkpt><trkpt lat="40.81810563818605" lon="9.659615692007696"><ele>22.666666666666668</ele><time>2026-04-04T07:45:05.999Z</time></trkpt><trkpt lat="40.81795434063417" lon="9.659645890329127"><ele>21.333333333333336</ele><time>2026-04-04T07:45:06.999Z</time></trkpt><trkpt lat="40.81779151034168" lon="9.659669314612705"><ele>20.0</ele><time>2026-04-04T07:45:07.999Z</time></trkpt><trkpt lat="40.81762727347737" lon="9.659695035477887"><ele>19.666666666666668</ele><time>2026-04-04T07:45:08.999Z</time></trkpt><trkpt lat="40.81745415195515" lon="9.659718613665754"><ele>19.333333333333332</ele><time>2026-04-04T07:45:09.999Z</time></trkpt><trkpt lat="40.81728232835544" lon="9.659748170139938"><ele>19.0</ele><time>2026-04-04T07:45:10.999Z</time></trkpt><trkpt lat="40.817120866967265" lon="9.659771688095638"><ele>19.0</ele><time>2026-04-04T07:45:11.999Z</time></trkpt><trkpt lat="40.816968364158164" lon="9.659797592404894"><ele>19.0</ele><time>2026-04-04T07:45:12.999Z</time></trkpt><trkpt lat="40.81682409897856" lon="9.659820204286946"><ele>19.0</ele><time>2026-04-04T07:45:13.999Z</time></trkpt><trkpt lat="40.8166830436632" lon="9.6598421380686"><ele>19.0</ele><time>2026-04-04T07:45:14.999Z</time></trkpt><trkpt lat="40.81654779886307" lon="9.659864237706815"><ele>19.0</ele><time>2026-04-04T07:45:15.999Z</time></trkpt><trkpt lat="40.81640798241164" lon="9.659889699870234"><ele>19.0</ele><time>2026-04-04T07:45:16.999Z</time></trkpt><trkpt lat="40.81626303181303" lon="9.659914355495092"><ele>19.0</ele><time>2026-04-04T07:45:17.999Z</time></trkpt><trkpt lat="40.81611086597093" lon="9.659937633486207"><ele>19.0</ele><time>2026-04-04T07:45:18.999Z</time></trkpt><trkpt lat="40.81595200447091" lon="9.659967516611506"><ele>19.0</ele><time>2026-04-04T07:45:19.999Z</time></trkpt><trkpt lat="40.8157856859028" lon="9.659995543373809"><ele>19.0</ele><time>2026-04-04T07:45:20.999Z</time></trkpt><trkpt lat="40.8156325556107" lon="9.66002026081383"><ele>19.0</ele><time>2026-04-04T07:45:21.999Z</time></trkpt><trkpt lat="40.815474790548706" lon="9.660044895243097"><ele>19.0</ele><time>2026-04-04T07:45:22.999Z</time></trkpt><trkpt lat="40.81531537319465" lon="9.660066753926898"><ele>19.0</ele><time>2026-04-04T07:45:23.999Z</time></trkpt><trkpt lat="40.81514956330809" lon="9.660082532103635"><ele>19.0</ele><time>2026-04-04T07:45:24.999Z</time></trkpt><trkpt lat="40.81499286761415" lon="9.660072872772199"><ele>19.0</ele><time>2026-04-04T07:45:25.999Z</time></trkpt><trkpt lat="40.814828782720774" lon="9.66001308494714"><ele>19.0</ele><time>2026-04-04T07:45:26.999Z</time></trkpt><trkpt lat="40.814657406698" lon="9.659961036831396"><ele>19.0</ele><time>2026-04-04T07:45:27.999Z</time></trkpt><trkpt lat="40.81447880100947" lon="9.659901618660822"><ele>17.666666666666664</ele><time>2026-04-04T07:45:28.999Z</time></trkpt><trkpt lat="40.81429006241054" lon="9.659838354704007"><ele>16.333333333333332</ele><time>2026-04-04T07:45:29.999Z</time></trkpt><trkpt lat="40.814094531289285" lon="9.659793258237196"><ele>15.0</ele><time>2026-04-04T07:45:30.999Z</time></trkpt><trkpt lat="40.81389816581796" lon="9.659727257292483"><ele>15.0</ele><time>2026-04-04T07:45:31.999Z</time></trkpt><trkpt lat="40.813716367423694" lon="9.659645372297087"><ele>15.0</ele><time>2026-04-04T07:45:32.999Z</time></trkpt><trkpt lat="40.81353493352118" lon="9.65958358111838"><ele>15.0</ele><time>2026-04-04T07:45:33.999Z</time></trkpt><trkpt lat="40.81335207282933" lon="9.659522999537346"><ele>14.0</ele><time>2026-04-04T07:45:34.999Z</time></trkpt><trkpt lat="40.81316465253119" lon="9.65946090721742"><ele>13.0</ele><time>2026-04-04T07:45:35.999Z</time></trkpt><trkpt lat="40.81298036981427" lon="9.659396941118144"><ele>12.0</ele><time>2026-04-04T07:45:36.999Z</time></trkpt><trkpt lat="40.81280341648669" lon="9.659337515297103"><ele>11.333333333333334</ele><time>2026-04-04T07:45:37.999Z</time></trkpt><trkpt lat="40.81263720708649" lon="9.65928176377831"><ele>10.666666666666668</ele><time>2026-04-04T07:45:38.999Z</time></trkpt><trkpt lat="40.812471498307794" lon="9.659226180215887"><ele>10.0</ele><time>2026-04-04T07:45:39.999Z</time></trkpt><trkpt lat="40.812299680131595" lon="9.659168547347946"><ele>10.0</ele><time>2026-04-04T07:45:40.999Z</time></trkpt><trkpt lat="40.81212242587475" lon="9.659109091066325"><ele>10.0</ele><time>2026-04-04T07:45:41.999Z</time></trkpt><trkpt lat="40.811948574170316" lon="9.65905077611149"><ele>10.0</ele><time>2026-04-04T07:45:42.999Z</time></trkpt><trkpt lat="40.81177495545856" lon="9.658992539303"><ele>9.0</ele><time>2026-04-04T07:45:43.999Z</time></trkpt><trkpt lat="40.81160227047634" lon="9.658934615694873"><ele>8.0</ele><time>2026-04-04T07:45:44.999Z</time></trkpt><trkpt lat="40.81142521784906" lon="9.65889761591171"><ele>7.0</ele><time>2026-04-04T07:45:45.999Z</time></trkpt><trkpt lat="40.811251223512706" lon="9.658817110075677"><ele>7.0</ele><time>2026-04-04T07:45:46.999Z</time></trkpt><trkpt lat="40.81107051654331" lon="9.658778584017965"><ele>7.0</ele><time>2026-04-04T07:45:47.999Z</time></trkpt><trkpt lat="40.81089568120257" lon="9.6586981774951"><ele>7.0</ele><time>2026-04-04T07:45:48.999Z</time></trkpt><trkpt lat="40.81071734761147" lon="9.658638523038904"><ele>7.666666666666667</ele><time>2026-04-04T07:45:49.999Z</time></trkpt><trkpt lat="40.810540729294075" lon="9.658579442360477"><ele>8.333333333333334</ele><time>2026-04-04T07:45:50.999Z</time></trkpt><trkpt lat="40.8103593895552" lon="9.658541386854665"><ele>9.0</ele><time>2026-04-04T07:45:51.999Z</time></trkpt><trkpt lat="40.810180328615814" lon="9.658480691698486"><ele>8.666666666666666</ele><time>2026-04-04T07:45:52.999Z</time></trkpt><trkpt lat="40.8100001674055" lon="9.658420548573979"><ele>8.333333333333332</ele><time>2026-04-04T07:45:53.999Z</time></trkpt><trkpt lat="40.80981802516999" lon="9.658360568176244"><ele>8.0</ele><time>2026-04-04T07:45:54.999Z</time></trkpt><trkpt lat="40.80963658460708" lon="9.65829993950062"><ele>8.0</ele><time>2026-04-04T07:45:55.999Z</time></trkpt><trkpt lat="40.80945419304093" lon="9.658238682036405"><ele>8.0</ele><time>2026-04-04T07:45:56.999Z</time></trkpt><trkpt lat="40.80927426700286" lon="9.658179217366154"><ele>8.0</ele><time>2026-04-04T07:45:57.999Z</time></trkpt><trkpt lat="40.80910423789728" lon="9.658120396916878"><ele>7.333333333333333</ele><time>2026-04-04T07:45:58.999Z</time></trkpt><trkpt lat="40.80894360449456" lon="9.658064497420241"><ele>6.666666666666666</ele><time>2026-04-04T07:45:59.999Z</time></trkpt><trkpt lat="40.808790551641465" lon="9.658016642838293"><ele>6.0</ele><time>2026-04-04T07:46:00.999Z</time></trkpt><trkpt lat="40.80863647726427" lon="9.65796546728171"><ele>5.0</ele><time>2026-04-04T07:46:01.999Z</time></trkpt><trkpt lat="40.80848414096862" lon="9.657914125800563"><ele>4.0</ele><time>2026-04-04T07:46:02.999Z</time></trkpt><trkpt lat="40.80832443832903" lon="9.657861875541693"><ele>3.0</ele><time>2026-04-04T07:46:03.999Z</time></trkpt><trkpt lat="40.808163481474764" lon="9.65780888798891"><ele>3.666666666666667</ele><time>2026-04-04T07:46:04.999Z</time></trkpt><trkpt lat="40.80799326438914" lon="9.657752182946409"><ele>4.333333333333334</ele><time>2026-04-04T07:46:05.999Z</time></trkpt><trkpt lat="40.80782609741646" lon="9.657696003674413"><ele>5.0</ele><time>2026-04-04T07:46:06.999Z</time></trkpt><trkpt lat="40.80766056035311" lon="9.657641209193965"><ele>4.333333333333334</ele><time>2026-04-04T07:46:07.999Z</time></trkpt><trkpt lat="40.807504771972155" lon="9.65758881421737"><ele>3.666666666666667</ele><time>2026-04-04T07:46:08.999Z</time></trkpt><trkpt lat="40.807356248073276" lon="9.657538982051815"><ele>3.0</ele><time>2026-04-04T07:46:09.999Z</time></trkpt><trkpt lat="40.807222458107745" lon="9.657473692066766"><ele>3.0</ele><time>2026-04-04T07:46:10.999Z</time></trkpt><trkpt lat="40.80709242596008" lon="9.657429889089036"><ele>3.0</ele><time>2026-04-04T07:46:11.999Z</time></trkpt><trkpt lat="40.806964021651794" lon="9.657386634447858"><ele>3.0</ele><time>2026-04-04T07:46:12.999Z</time></trkpt><trkpt lat="40.806817144779025" lon="9.657358282421823"><ele>3.0</ele><time>2026-04-04T07:46:13.999Z</time></trkpt><trkpt lat="40.80666057415604" lon="9.657306718255173"><ele>2.3333333333333335</ele><time>2026-04-04T07:46:14.999Z</time></trkpt><trkpt lat="40.806492129091616" lon="9.65722811396639"><ele>1.6666666666666665</ele><time>2026-04-04T07:46:15.999Z</time></trkpt><trkpt lat="40.80630054613899" lon="9.65716379941694"><ele>1.0</ele><time>2026-04-04T07:46:16.999Z</time></trkpt><trkpt lat="40.80611147699752" lon="9.65710032723044"><ele>0.6666666666666666</ele><time>2026-04-04T07:46:17.999Z</time></trkpt><trkpt lat="40.80593573828037" lon="9.657041330219771"><ele>0.3333333333333333</ele><time>2026-04-04T07:46:18.999Z</time></trkpt><trkpt lat="40.80575255285587" lon="9.656979833211363"><ele>0.0</ele><time>2026-04-04T07:46:19.999Z</time></trkpt><trkpt lat="40.80557033761925" lon="9.656919365301132"><ele>0.0</ele><time>2026-04-04T07:46:20.999Z</time></trkpt><trkpt lat="40.80538301327661" lon="9.656855536282176"><ele>0.0</ele><time>2026-04-04T07:46:21.999Z</time></trkpt><trkpt lat="40.80519159299304" lon="9.656791763458449"><ele>0.0</ele><time>2026-04-04T07:46:22.999Z</time></trkpt><trkpt lat="40.80498963573081" lon="9.656723945838387"><ele>-0.3333333333333333</ele><time>2026-04-04T07:46:23.999Z</time></trkpt><trkpt lat="40.804788013277474" lon="9.656656004332632"><ele>-0.6666666666666666</ele><time>2026-04-04T07:46:24.999Z</time></trkpt><trkpt lat="40.804578893228076" lon="9.656608840037713"><ele>-1.0</ele><time>2026-04-04T07:46:25.999Z</time></trkpt><trkpt lat="40.80437083874267" lon="9.656539662625587"><ele>0.0</ele><time>2026-04-04T07:46:26.999Z</time></trkpt><trkpt lat="40.80415386427907" lon="9.656475370250464"><ele>1.0</ele><time>2026-04-04T07:46:27.999Z</time></trkpt><trkpt lat="40.8039196233501" lon="9.656423102383425"><ele>1.0</ele><time>2026-04-04T07:46:28.999Z</time></trkpt><trkpt lat="40.80366357211958" lon="9.656397542793773"><ele>1.0</ele><time>2026-04-04T07:46:29.999Z</time></trkpt><trkpt lat="40.803421916428995" lon="9.656385145500057"><ele>0.6666666666666666</ele><time>2026-04-04T07:46:30.999Z</time></trkpt><trkpt lat="40.80319938876338" lon="9.656345113703228"><ele>0.3333333333333333</ele><time>2026-04-04T07:46:31.999Z</time></trkpt><trkpt lat="40.80298414948464" lon="9.65634750986731"><ele>0.0</ele><time>2026-04-04T07:46:32.999Z</time></trkpt><trkpt lat="40.80277268659905" lon="9.656326733491957"><ele>0.3333333333333333</ele><time>2026-04-04T07:46:33.999Z</time></trkpt><trkpt lat="40.80256386938594" lon="9.656307551203584"><ele>0.6666666666666666</ele><time>2026-04-04T07:46:34.999Z</time></trkpt><trkpt lat="40.802366351094726" lon="9.656289929511722"><ele>1.0</ele><time>2026-04-04T07:46:35.999Z</time></trkpt><trkpt lat="40.80218345404769" lon="9.656273187981665"><ele>1.0</ele><time>2026-04-04T07:46:36.999Z</time></trkpt><trkpt lat="40.802004509588905" lon="9.656257348408877"><ele>1.0</ele><time>2026-04-04T07:46:37.999Z</time></trkpt><trkpt lat="40.8018280173453" lon="9.656240075833313"><ele>1.0</ele><time>2026-04-04T07:46:38.999Z</time></trkpt><trkpt lat="40.801649644404314" lon="9.65622371728748"><ele>1.3333333333333333</ele><time>2026-04-04T07:46:39.999Z</time></trkpt><trkpt lat="40.8014662490534" lon="9.656207665892705"><ele>1.6666666666666665</ele><time>2026-04-04T07:46:40.999Z</time></trkpt><trkpt lat="40.80129080217704" lon="9.656195203886371"><ele>2.0</ele><time>2026-04-04T07:46:41.999Z</time></trkpt><trkpt lat="40.801120032259576" lon="9.656181090027767"><ele>2.0</ele><time>2026-04-04T07:46:42.999Z</time></trkpt><trkpt lat="40.80094766434519" lon="9.65616489914306"><ele>2.0</ele><time>2026-04-04T07:46:43.999Z</time></trkpt><trkpt lat="40.80077768267926" lon="9.656145217256224"><ele>2.0</ele><time>2026-04-04T07:46:44.999Z</time></trkpt><trkpt lat="40.800604710185205" lon="9.656128603222193"><ele>1.6666666666666665</ele><time>2026-04-04T07:46:45.999Z</time></trkpt><trkpt lat="40.80043133523833" lon="9.65611611489821"><ele>1.3333333333333333</ele><time>2026-04-04T07:46:46.999Z</time></trkpt><trkpt lat="40.80026975659672" lon="9.656102966362958"><ele>1.0</ele><time>2026-04-04T07:46:47.999Z</time></trkpt><trkpt lat="40.80011623665873" lon="9.656089002440694"><ele>1.0</ele><time>2026-04-04T07:46:48.999Z</time></trkpt><trkpt lat="40.79996296856463" lon="9.656072070775275"><ele>1.0</ele><time>2026-04-04T07:46:49.999Z</time></trkpt><trkpt lat="40.7998024112924" lon="9.65605720838865"><ele>1.0</ele><time>2026-04-04T07:46:50.999Z</time></trkpt><trkpt lat="40.79962907810909" lon="9.656046451692962"><ele>1.0</ele><time>2026-04-04T07:46:51.999Z</time></trkpt><trkpt lat="40.79944266685358" lon="9.656009985759773"><ele>1.0</ele><time>2026-04-04T07:46:52.999Z</time></trkpt><trkpt lat="40.7992433330032" lon="9.655992193065725"><ele>1.0</ele><time>2026-04-04T07:46:53.999Z</time></trkpt><trkpt lat="40.79905114281147" lon="9.655975038008279"><ele>1.3333333333333333</ele><time>2026-04-04T07:46:54.999Z</time></trkpt><trkpt lat="40.79886941821717" lon="9.655958817136774"><ele>1.6666666666666665</ele><time>2026-04-04T07:46:55.999Z</time></trkpt><trkpt lat="40.798684829925115" lon="9.65594234062672"><ele>2.0</ele><time>2026-04-04T07:46:56.999Z</time></trkpt><trkpt lat="40.79850304059866" lon="9.65592699229544"><ele>2.0</ele><time>2026-04-04T07:46:57.999Z</time></trkpt><trkpt lat="40.79833051654415" lon="9.65591282121132"><ele>2.0</ele><time>2026-04-04T07:46:58.999Z</time></trkpt><trkpt lat="40.798145192440586" lon="9.655896815477501"><ele>2.0</ele><time>2026-04-04T07:46:59.999Z</time></trkpt><trkpt lat="40.79792884677372" lon="9.65587782649126"><ele>2.0</ele><time>2026-04-04T07:47:00.999Z</time></trkpt><trkpt lat="40.79769566735288" lon="9.65585735997085"><ele>2.0</ele><time>2026-04-04T07:47:02Z</time></trkpt><trkpt lat="40.79745318235161" lon="9.655836459721145"><ele>1.5</ele><time>2026-04-04T07:47:03Z</time></trkpt><trkpt lat="40.7972270222984" lon="9.655816738227037"><ele>1.0</ele><time>2026-04-04T07:47:04Z</time></trkpt><trkpt lat="40.79700126293394" lon="9.655797755811362"><ele>1.5</ele><time>2026-04-04T07:47:05Z</time></trkpt><trkpt lat="40.796770522169716" lon="9.655800314637588"><ele>2.0</ele><time>2026-04-04T07:47:06Z</time></trkpt><trkpt lat="40.796535580828824" lon="9.655777560280063"><ele>2.0</ele><time>2026-04-04T07:47:07Z</time></trkpt><trkpt lat="40.79629538009474" lon="9.655754701931846"><ele>2.0</ele><time>2026-04-04T07:47:08Z</time></trkpt><trkpt lat="40.79605864961043" lon="9.655737212482059"><ele>1.5</ele><time>2026-04-04T07:47:09Z</time></trkpt><trkpt lat="40.795817312401645" lon="9.655729076921626"><ele>1.0</ele><time>2026-04-04T07:47:10Z</time></trkpt><trkpt lat="40.79557367350427" lon="9.655738253424607"><ele>1.0</ele><time>2026-04-04T07:47:11Z</time></trkpt><trkpt lat="40.795326088956394" lon="9.655763427671218"><ele>1.0</ele><time>2026-04-04T07:47:12Z</time></trkpt><trkpt lat="40.79508065878695" lon="9.655790373069722"><ele>1.5</ele><time>2026-04-04T07:47:13Z</time></trkpt><trkpt lat="40.794827787358436" lon="9.655818639009027"><ele>2.0</ele><time>2026-04-04T07:47:14Z</time></trkpt><trkpt lat="40.79457884323595" lon="9.655844780039676"><ele>3.0</ele><time>2026-04-04T07:47:15Z</time></trkpt><trkpt lat="40.79432768407753" lon="9.655867399103194"><ele>4.0</ele><time>2026-04-04T07:47:16Z</time></trkpt><trkpt lat="40.79407511119468" lon="9.655891096013482"><ele>4.0</ele><time>2026-04-04T07:47:17Z</time></trkpt><trkpt lat="40.793827770111704" lon="9.655916813933366"><ele>4.0</ele><time>2026-04-04T07:47:18Z</time></trkpt><trkpt lat="40.79360110432002" lon="9.655940286892902"><ele>3.6666666666666665</ele><time>2026-04-04T07:47:19Z</time></trkpt><trkpt lat="40.79338646932928" lon="9.655961353373808"><ele>3.333333333333333</ele><time>2026-04-04T07:47:20Z</time></trkpt><trkpt lat="40.793178922715235" lon="9.655981470215915"><ele>3.0</ele><time>2026-04-04T07:47:21Z</time></trkpt><trkpt lat="40.79296597184303" lon="9.656004611007148"><ele>3.0</ele><time>2026-04-04T07:47:22Z</time></trkpt><trkpt lat="40.792751182959364" lon="9.656026601271584"><ele>3.0</ele><time>2026-04-04T07:47:23Z</time></trkpt><trkpt lat="40.79253260752583" lon="9.656047189117274"><ele>3.0</ele><time>2026-04-04T07:47:24Z</time></trkpt><trkpt lat="40.79230702243462" lon="9.656066683757402"><ele>2.5</ele><time>2026-04-04T07:47:25Z</time></trkpt><trkpt lat="40.79207785977193" lon="9.656089054452163"><ele>2.0</ele><time>2026-04-04T07:47:26Z</time></trkpt><trkpt lat="40.791844175348054" lon="9.656114207901542"><ele>2.0</ele><time>2026-04-04T07:47:27Z</time></trkpt><trkpt lat="40.791604426783415" lon="9.6561426879213"><ele>2.0</ele><time>2026-04-04T07:47:28Z</time></trkpt><trkpt lat="40.791364553981964" lon="9.65617338579266"><ele>2.0</ele><time>2026-04-04T07:47:29Z</time></trkpt><trkpt lat="40.79112147391208" lon="9.656209348771384"><ele>2.0</ele><time>2026-04-04T07:47:30Z</time></trkpt><trkpt lat="40.7908809750684" lon="9.65625460950716"><ele>3.0</ele><time>2026-04-04T07:47:31Z</time></trkpt><trkpt lat="40.79064610225764" lon="9.656311129668593"><ele>4.0</ele><time>2026-04-04T07:47:32Z</time></trkpt><trkpt lat="40.790410953074556" lon="9.656378065489397"><ele>4.0</ele><time>2026-04-04T07:47:33Z</time></trkpt><trkpt lat="40.790181481965185" lon="9.656447026383072"><ele>4.0</ele><time>2026-04-04T07:47:34Z</time></trkpt><trkpt lat="40.78994985080517" lon="9.65649261068466"><ele>4.5</ele><time>2026-04-04T07:47:35Z</time></trkpt><trkpt lat="40.78971308006065" lon="9.65655725547694"><ele>5.0</ele><time>2026-04-04T07:47:36Z</time></trkpt><trkpt lat="40.78948908319049" lon="9.656665854297017"><ele>3.0</ele><time>2026-04-04T07:47:37Z</time></trkpt><trkpt lat="40.789259212680534" lon="9.656743232888276"><ele>1.0</ele><time>2026-04-04T07:47:38Z</time></trkpt><trkpt lat="40.78903073728332" lon="9.656824911225465"><ele>1.0</ele><time>2026-04-04T07:47:39Z</time></trkpt><trkpt lat="40.788802223964765" lon="9.6569045941485"><ele>1.0</ele><time>2026-04-04T07:47:40Z</time></trkpt><trkpt lat="40.78857030256469" lon="9.656979483951623"><ele>1.0</ele><time>2026-04-04T07:47:41Z</time></trkpt><trkpt lat="40.78834074643539" lon="9.657048375297787"><ele>1.0</ele><time>2026-04-04T07:47:42Z</time></trkpt><trkpt lat="40.78811174916589" lon="9.657116917158303"><ele>1.0</ele><time>2026-04-04T07:47:43Z</time></trkpt><trkpt lat="40.78788244124088" lon="9.657186668308718"><ele>1.0</ele><time>2026-04-04T07:47:44Z</time></trkpt><trkpt lat="40.78765358873073" lon="9.657252596716365"><ele>0.5</ele><time>2026-04-04T07:47:45Z</time></trkpt><trkpt lat="40.78742516314203" lon="9.65730985419645"><ele>0.0</ele><time>2026-04-04T07:47:46Z</time></trkpt><trkpt lat="40.7871933552449" lon="9.657345257453944"><ele>0.0</ele><time>2026-04-04T07:47:47Z</time></trkpt><trkpt lat="40.786960090813" lon="9.657367400062087"><ele>0.0</ele><time>2026-04-04T07:47:48Z</time></trkpt><trkpt lat="40.78672982904492" lon="9.657389005401583"><ele>0.0</ele><time>2026-04-04T07:47:49Z</time></trkpt><trkpt lat="40.78632372502646" lon="9.657435173092614"><ele>0.0</ele><time>2026-04-04T07:47:51Z</time></trkpt><trkpt lat="40.786132972665975" lon="9.657456773061257"><ele>0.6666666666666666</ele><time>2026-04-04T07:47:52Z</time></trkpt><trkpt lat="40.78595947591605" lon="9.657473999410566"><ele>1.3333333333333333</ele><time>2026-04-04T07:47:53Z</time></trkpt><trkpt lat="40.785792725864034" lon="9.657488001724616"><ele>2.0</ele><time>2026-04-04T07:47:54Z</time></trkpt><trkpt lat="40.785635537234874" lon="9.657500489680368"><ele>2.0</ele><time>2026-04-04T07:47:55Z</time></trkpt><trkpt lat="40.785485019882934" lon="9.657509998495069"><ele>2.0</ele><time>2026-04-04T07:47:56Z</time></trkpt><trkpt lat="40.78534286976801" lon="9.657518736067537"><ele>2.0</ele><time>2026-04-04T07:47:57Z</time></trkpt><trkpt lat="40.78520974499624" lon="9.657529349022607"><ele>2.0</ele><time>2026-04-04T07:47:58Z</time></trkpt><trkpt lat="40.785084663991526" lon="9.657536670182036"><ele>2.0</ele><time>2026-04-04T07:47:59Z</time></trkpt><trkpt lat="40.78497060875171" lon="9.657528516124472"><ele>2.0</ele><time>2026-04-04T07:48:00Z</time></trkpt><trkpt lat="40.78485874683526" lon="9.657514738233083"><ele>2.0</ele><time>2026-04-04T07:48:01Z</time></trkpt><trkpt lat="40.784749303919575" lon="9.657495436321655"><ele>2.0</ele><time>2026-04-04T07:48:02Z</time></trkpt><trkpt lat="40.78463662789265" lon="9.657491444895316"><ele>2.0</ele><time>2026-04-04T07:48:03Z</time></trkpt><trkpt lat="40.7845089089487" lon="9.657501812300211"><ele>2.0</ele><time>2026-04-04T07:48:04Z</time></trkpt><trkpt lat="40.78437097769945" lon="9.657530076271458"><ele>2.0</ele><time>2026-04-04T07:48:05Z</time></trkpt><trkpt lat="40.784224931690375" lon="9.657567071777962"><ele>2.0</ele><time>2026-04-04T07:48:06Z</time></trkpt><trkpt lat="40.78407533579516" lon="9.65758232275362"><ele>2.0</ele><time>2026-04-04T07:48:07Z</time></trkpt><trkpt lat="40.78392170841525" lon="9.657589340243941"><ele>2.0</ele><time>2026-04-04T07:48:08Z</time></trkpt><trkpt lat="40.7837671781626" lon="9.657609965826884"><ele>2.0</ele><time>2026-04-04T07:48:09Z</time></trkpt><trkpt lat="40.78361979227517" lon="9.657628532608848"><ele>2.6666666666666665</ele><time>2026-04-04T07:48:10Z</time></trkpt><trkpt lat="40.783472830655036" lon="9.657641187027"><ele>3.333333333333333</ele><time>2026-04-04T07:48:11Z</time></trkpt><trkpt lat="40.78332308169239" lon="9.657651171699664"><ele>4.0</ele><time>2026-04-04T07:48:12Z</time></trkpt><trkpt lat="40.783169628356774" lon="9.657661721223263"><ele>4.0</ele><time>2026-04-04T07:48:13Z</time></trkpt><trkpt lat="40.783014672545654" lon="9.657673168877496"><ele>4.0</ele><time>2026-04-04T07:48:14Z</time></trkpt><trkpt lat="40.78285331422996" lon="9.657683449394948"><ele>4.0</ele><time>2026-04-04T07:48:15Z</time></trkpt><trkpt lat="40.78268641522366" lon="9.657692082047403"><ele>4.0</ele><time>2026-04-04T07:48:16Z</time></trkpt><trkpt lat="40.78252069425648" lon="9.657704137441502"><ele>4.0</ele><time>2026-04-04T07:48:17Z</time></trkpt><trkpt lat="40.782364951890706" lon="9.65771405743062"><ele>4.0</ele><time>2026-04-04T07:48:18Z</time></trkpt><trkpt lat="40.78220997584176" lon="9.657724191643357"><ele>4.0</ele><time>2026-04-04T07:48:19Z</time></trkpt><trkpt lat="40.78205847048171" lon="9.65773365971782"><ele>4.0</ele><time>2026-04-04T07:48:20Z</time></trkpt><trkpt lat="40.78190257103603" lon="9.657744938584303"><ele>4.0</ele><time>2026-04-04T07:48:21Z</time></trkpt><trkpt lat="40.781752016587454" lon="9.6577562193025"><ele>4.25</ele><time>2026-04-04T07:48:22Z</time></trkpt><trkpt lat="40.78160162509306" lon="9.657769073394999"><ele>4.5</ele><time>2026-04-04T07:48:23Z</time></trkpt><trkpt lat="40.78145504498392" lon="9.657779053225532"><ele>4.75</ele><time>2026-04-04T07:48:24Z</time></trkpt><trkpt lat="40.781303886099536" lon="9.657783255686677"><ele>5.0</ele><time>2026-04-04T07:48:25Z</time></trkpt><trkpt lat="40.78114950391568" lon="9.65778227937333"><ele>5.333333333333334</ele><time>2026-04-04T07:48:26Z</time></trkpt><trkpt lat="40.7809936179874" lon="9.657777491938317"><ele>5.666666666666667</ele><time>2026-04-04T07:48:27Z</time></trkpt><trkpt lat="40.78083245470021" lon="9.657766945979285"><ele>6.0</ele><time>2026-04-04T07:48:28Z</time></trkpt><trkpt lat="40.78066984258376" lon="9.657744362146776"><ele>6.0</ele><time>2026-04-04T07:48:29Z</time></trkpt><trkpt lat="40.780508462756416" lon="9.657715910586525"><ele>6.0</ele><time>2026-04-04T07:48:30Z</time></trkpt><trkpt lat="40.78034662927383" lon="9.657685353755184"><ele>6.0</ele><time>2026-04-04T07:48:31Z</time></trkpt><trkpt lat="40.78018631286703" lon="9.657655289570863"><ele>6.25</ele><time>2026-04-04T07:48:32Z</time></trkpt><trkpt lat="40.78004249788631" lon="9.657626625362724"><ele>6.5</ele><time>2026-04-04T07:48:33.001Z</time></trkpt><trkpt lat="40.77990741870869" lon="9.657603278172843"><ele>6.75</ele><time>2026-04-04T07:48:34.001Z</time></trkpt><trkpt lat="40.77977467747774" lon="9.657575233987046"><ele>7.0</ele><time>2026-04-04T07:48:35.001Z</time></trkpt><trkpt lat="40.77965764033555" lon="9.657550873387533"><ele>7.0</ele><time>2026-04-04T07:48:36.001Z</time></trkpt><trkpt lat="40.77954144326997" lon="9.65752625974679"><ele>6.999999999999999</ele><time>2026-04-04T07:48:37.001Z</time></trkpt><trkpt lat="40.77943577751063" lon="9.65750467704983"><ele>6.999999999999999</ele><time>2026-04-04T07:48:38.001Z</time></trkpt><trkpt lat="40.779330956051275" lon="9.657484872546844"><ele>7.0</ele><time>2026-04-04T07:48:39.001Z</time></trkpt><trkpt lat="40.77922105209409" lon="9.657461370072928"><ele>7.0</ele><time>2026-04-04T07:48:40.001Z</time></trkpt><trkpt lat="40.77911113693412" lon="9.65743848608559"><ele>7.0</ele><time>2026-04-04T07:48:41.001Z</time></trkpt><trkpt lat="40.77901076972514" lon="9.6573940794659"><ele>6.999999999999999</ele><time>2026-04-04T07:48:42.001Z</time></trkpt><trkpt lat="40.778899322364836" lon="9.657391838165019"><ele>6.999999999999999</ele><time>2026-04-04T07:48:43.001Z</time></trkpt><trkpt lat="40.778798675950874" lon="9.65736971988234"><ele>7.0</ele><time>2026-04-04T07:48:44.001Z</time></trkpt><trkpt lat="40.77870155204351" lon="9.657348478572638"><ele>7.0</ele><time>2026-04-04T07:48:45.001Z</time></trkpt><trkpt lat="40.778605197013356" lon="9.657331319703609"><ele>7.199999999999999</ele><time>2026-04-04T07:48:46.001Z</time></trkpt><trkpt lat="40.77850170493551" lon="9.657313415032684"><ele>7.3999999999999995</ele><time>2026-04-04T07:48:47.001Z</time></trkpt><trkpt lat="40.77839998723297" lon="9.65727215510994"><ele>7.6000000000000005</ele><time>2026-04-04T07:48:48.001Z</time></trkpt><trkpt lat="40.77829113568481" lon="9.657249257790058"><ele>7.800000000000001</ele><time>2026-04-04T07:48:49.001Z</time></trkpt><trkpt lat="40.77818601496727" lon="9.657227145288388"><ele>8.0</ele><time>2026-04-04T07:48:50.001Z</time></trkpt><trkpt lat="40.77808771549356" lon="9.657207418634899"><ele>8.0</ele><time>2026-04-04T07:48:51.001Z</time></trkpt><trkpt lat="40.77799877621368" lon="9.657189415949407"><ele>8.0</ele><time>2026-04-04T07:48:52.001Z</time></trkpt><trkpt lat="40.77790613642363" lon="9.657170961122898"><ele>8.0</ele><time>2026-04-04T07:48:53.001Z</time></trkpt><trkpt lat="40.77781329513576" lon="9.657152466154885"><ele>8.0</ele><time>2026-04-04T07:48:54.001Z</time></trkpt><trkpt lat="40.777721125951096" lon="9.657134105075569"><ele>8.0</ele><time>2026-04-04T07:48:55.001Z</time></trkpt><trkpt lat="40.77762214369651" lon="9.6571364755371"><ele>7.800000000000001</ele><time>2026-04-04T07:48:56.001Z</time></trkpt><trkpt lat="40.7775191489478" lon="9.65711594148171"><ele>7.6000000000000005</ele><time>2026-04-04T07:48:57.001Z</time></trkpt><trkpt lat="40.77741819441916" lon="9.657073970272192"><ele>7.3999999999999995</ele><time>2026-04-04T07:48:58.001Z</time></trkpt><trkpt lat="40.77731344496691" lon="9.657053242109335"><ele>7.199999999999999</ele><time>2026-04-04T07:48:59.001Z</time></trkpt><trkpt lat="40.77721860924185" lon="9.657034475707672"><ele>7.0</ele><time>2026-04-04T07:49:00.001Z</time></trkpt><trkpt lat="40.77713189382284" lon="9.657017316178615"><ele>7.000000000000001</ele><time>2026-04-04T07:49:01.001Z</time></trkpt><trkpt lat="40.77705995077255" lon="9.657003079855546"><ele>7.0</ele><time>2026-04-04T07:49:02.001Z</time></trkpt><trkpt lat="40.77698332475222" lon="9.656987916848038"><ele>7.0</ele><time>2026-04-04T07:49:03.001Z</time></trkpt><trkpt lat="40.776903737561476" lon="9.656991888188426"><ele>7.0</ele><time>2026-04-04T07:49:04.001Z</time></trkpt><trkpt lat="40.77683106520938" lon="9.656955886277986"><ele>7.000000000000001</ele><time>2026-04-04T07:49:05.001Z</time></trkpt><trkpt lat="40.776761010426576" lon="9.656941085230157"><ele>7.0</ele><time>2026-04-04T07:49:06.001Z</time></trkpt><trkpt lat="40.77666114307041" lon="9.656918077761487"><ele>7.6</ele><time>2026-04-04T07:49:08.001Z</time></trkpt><trkpt lat="40.77658599626261" lon="9.656899216431277"><ele>8.2</ele><time>2026-04-04T07:49:10.001Z</time></trkpt><trkpt lat="40.77649746387345" lon="9.656873819490869"><ele>8.8</ele><time>2026-04-04T07:49:12.001Z</time></trkpt><trkpt lat="40.776372331682865" lon="9.656836125837534"><ele>9.4</ele><time>2026-04-04T07:49:14.001Z</time></trkpt><trkpt lat="40.77629114668481" lon="9.656807830008963"><ele>10.0</ele><time>2026-04-04T07:49:15.001Z</time></trkpt><trkpt lat="40.77619296501777" lon="9.656776089911432"><ele>10.0</ele><time>2026-04-04T07:49:16.001Z</time></trkpt><trkpt lat="40.77607584543121" lon="9.656738600520523"><ele>10.0</ele><time>2026-04-04T07:49:17.001Z</time></trkpt><trkpt lat="40.77596621567733" lon="9.656702826905416"><ele>10.0</ele><time>2026-04-04T07:49:18.001Z</time></trkpt><trkpt lat="40.77585113621555" lon="9.656665374537196"><ele>10.0</ele><time>2026-04-04T07:49:19.001Z</time></trkpt><trkpt lat="40.775733385830186" lon="9.656627002774178"><ele>10.25</ele><time>2026-04-04T07:49:20.001Z</time></trkpt><trkpt lat="40.77560589568696" lon="9.656585457075485"><ele>10.5</ele><time>2026-04-04T07:49:21.001Z</time></trkpt><trkpt lat="40.775482159885236" lon="9.656545134818362"><ele>10.75</ele><time>2026-04-04T07:49:22.001Z</time></trkpt><trkpt lat="40.77537062845938" lon="9.65650843627643"><ele>11.0</ele><time>2026-04-04T07:49:23.001Z</time></trkpt><trkpt lat="40.77528204397699" lon="9.656479193139157"><ele>11.0</ele><time>2026-04-04T07:49:24.001Z</time></trkpt><trkpt lat="40.77521080943514" lon="9.656455677487983"><ele>11.0</ele><time>2026-04-04T07:49:25.001Z</time></trkpt><trkpt lat="40.77509773186205" lon="9.656434835999372"><ele>11.0</ele><time>2026-04-04T07:49:27.001Z</time></trkpt><trkpt lat="40.774967378821394" lon="9.656375687777148"><ele>11.0</ele><time>2026-04-04T07:49:28.001Z</time></trkpt><trkpt lat="40.77489533340926" lon="9.65635227602117"><ele>11.0</ele><time>2026-04-04T07:49:29.001Z</time></trkpt><trkpt lat="40.77482007808495" lon="9.65632781960512"><ele>11.0</ele><time>2026-04-04T07:49:30.001Z</time></trkpt><trkpt lat="40.77473991473199" lon="9.656301768180962"><ele>11.0</ele><time>2026-04-04T07:49:31.001Z</time></trkpt><trkpt lat="40.77464844022307" lon="9.656272040865556"><ele>11.0</ele><time>2026-04-04T07:49:32.001Z</time></trkpt><trkpt lat="40.77453959224286" lon="9.656236667534552"><ele>11.0</ele><time>2026-04-04T07:49:33.001Z</time></trkpt><trkpt lat="40.77442328851567" lon="9.65619887123717"><ele>11.0</ele><time>2026-04-04T07:49:34.001Z</time></trkpt><trkpt lat="40.77430841617832" lon="9.656161540119772"><ele>11.0</ele><time>2026-04-04T07:49:35.001Z</time></trkpt><trkpt lat="40.77419301533683" lon="9.656123861425433"><ele>11.0</ele><time>2026-04-04T07:49:36.001Z</time></trkpt><trkpt lat="40.77409420324458" lon="9.656091609770565"><ele>11.0</ele><time>2026-04-04T07:49:37.001Z</time></trkpt><trkpt lat="40.77399136328822" lon="9.656057266228958"><ele>11.0</ele><time>2026-04-04T07:49:38.001Z</time></trkpt><trkpt lat="40.77387724061624" lon="9.656017937821385"><ele>11.0</ele><time>2026-04-04T07:49:39.001Z</time></trkpt><trkpt lat="40.773770841293036" lon="9.655972205864861"><ele>11.4</ele><time>2026-04-04T07:49:40.001Z</time></trkpt><trkpt lat="40.7736674703358" lon="9.655929714783845"><ele>11.8</ele><time>2026-04-04T07:49:41.001Z</time></trkpt><trkpt lat="40.77357426512717" lon="9.655887103900763"><ele>12.200000000000001</ele><time>2026-04-04T07:49:42.001Z</time></trkpt><trkpt lat="40.773468864374735" lon="9.655833866929651"><ele>12.600000000000001</ele><time>2026-04-04T07:49:43.001Z</time></trkpt><trkpt lat="40.77336200755489" lon="9.655779894507194"><ele>13.0</ele><time>2026-04-04T07:49:44.001Z</time></trkpt><trkpt lat="40.77325787762207" lon="9.655727449646616"><ele>13.0</ele><time>2026-04-04T07:49:45.001Z</time></trkpt><trkpt lat="40.77315028924117" lon="9.655673527832382"><ele>13.0</ele><time>2026-04-04T07:49:46.001Z</time></trkpt><trkpt lat="40.77304542120857" lon="9.655619250888725"><ele>13.0</ele><time>2026-04-04T07:49:47.001Z</time></trkpt><trkpt lat="40.77294523161073" lon="9.655566948134162"><ele>13.0</ele><time>2026-04-04T07:49:48.001Z</time></trkpt><trkpt lat="40.772834928759444" lon="9.655509365878737"><ele>13.0</ele><time>2026-04-04T07:49:49.001Z</time></trkpt><trkpt lat="40.77271142377526" lon="9.655444857101012"><ele>13.0</ele><time>2026-04-04T07:49:50.001Z</time></trkpt><trkpt lat="40.77257796284517" lon="9.655376045808573"><ele>13.0</ele><time>2026-04-04T07:49:51.001Z</time></trkpt><trkpt lat="40.77243357846492" lon="9.65530160248411"><ele>13.0</ele><time>2026-04-04T07:49:52.001Z</time></trkpt><trkpt lat="40.77227383889661" lon="9.655219242150245"><ele>13.5</ele><time>2026-04-04T07:49:53.001Z</time></trkpt><trkpt lat="40.77213040343183" lon="9.655144814494559"><ele>14.0</ele><time>2026-04-04T07:49:54.001Z</time></trkpt><trkpt lat="40.77199447389749" lon="9.655093950661215"><ele>14.5</ele><time>2026-04-04T07:49:55.001Z</time></trkpt><trkpt lat="40.771852131871704" lon="9.65501639131991"><ele>15.0</ele><time>2026-04-04T07:49:56.001Z</time></trkpt><trkpt lat="40.77169184508269" lon="9.654937627574823"><ele>15.666666666666668</ele><time>2026-04-04T07:49:57.001Z</time></trkpt><trkpt lat="40.771524686694505" lon="9.654850058515525"><ele>16.333333333333336</ele><time>2026-04-04T07:49:58.001Z</time></trkpt><trkpt lat="40.77134264299964" lon="9.654754191136279"><ele>17.0</ele><time>2026-04-04T07:49:59.001Z</time></trkpt><trkpt lat="40.77115808203863" lon="9.654662177070511"><ele>16.666666666666668</ele><time>2026-04-04T07:50:00.001Z</time></trkpt><trkpt lat="40.77098520030231" lon="9.654569435541976"><ele>16.333333333333332</ele><time>2026-04-04T07:50:01.001Z</time></trkpt><trkpt lat="40.770843187662535" lon="9.654473718545242"><ele>16.0</ele><time>2026-04-04T07:50:02.001Z</time></trkpt><trkpt lat="40.77070963834596" lon="9.654404178770017"><ele>17.0</ele><time>2026-04-04T07:50:03.001Z</time></trkpt><trkpt lat="40.77058600475399" lon="9.654339914130338"><ele>18.0</ele><time>2026-04-04T07:50:04.001Z</time></trkpt><trkpt lat="40.77046921561011" lon="9.654279207225402"><ele>19.0</ele><time>2026-04-04T07:50:05.001Z</time></trkpt><trkpt lat="40.77034494365229" lon="9.654223844795943"><ele>20.0</ele><time>2026-04-04T07:50:06.001Z</time></trkpt><trkpt lat="40.770200563147085" lon="9.654197748180032"><ele>20.666666666666668</ele><time>2026-04-04T07:50:07.001Z</time></trkpt><trkpt lat="40.770041573571355" lon="9.654187900540572"><ele>21.333333333333332</ele><time>2026-04-04T07:50:08.001Z</time></trkpt><trkpt lat="40.76986631894066" lon="9.654206870595083"><ele>22.0</ele><time>2026-04-04T07:50:09.001Z</time></trkpt><trkpt lat="40.76968232130086" lon="9.654236563322996"><ele>22.0</ele><time>2026-04-04T07:50:10.001Z</time></trkpt><trkpt lat="40.76950414737436" lon="9.654265528608642"><ele>22.0</ele><time>2026-04-04T07:50:11.001Z</time></trkpt><trkpt lat="40.769355515661104" lon="9.654283851880432"><ele>22.0</ele><time>2026-04-04T07:50:12.001Z</time></trkpt><trkpt lat="40.7692075544755" lon="9.654300523917213"><ele>23.0</ele><time>2026-04-04T07:50:13.001Z</time></trkpt><trkpt lat="40.769070352107704" lon="9.654317240282552"><ele>24.0</ele><time>2026-04-04T07:50:14Z</time></trkpt><trkpt lat="40.76894396362624" lon="9.654332957710015"><ele>25.0</ele><time>2026-04-04T07:50:15Z</time></trkpt><trkpt lat="40.76881336298288" lon="9.654348967213053"><ele>26.0</ele><time>2026-04-04T07:50:16Z</time></trkpt><trkpt lat="40.768675504648186" lon="9.654368831505957"><ele>26.0</ele><time>2026-04-04T07:50:17Z</time></trkpt><trkpt lat="40.76852730171348" lon="9.654385913820944"><ele>26.0</ele><time>2026-04-04T07:50:18Z</time></trkpt><trkpt lat="40.76837520916414" lon="9.654401256312093"><ele>26.0</ele><time>2026-04-04T07:50:19Z</time></trkpt><trkpt lat="40.76820971117451" lon="9.654419780183835"><ele>26.333333333333332</ele><time>2026-04-04T07:50:20Z</time></trkpt><trkpt lat="40.76804313275217" lon="9.6544389794889"><ele>26.666666666666664</ele><time>2026-04-04T07:50:21Z</time></trkpt><trkpt lat="40.76786479620864" lon="9.654458443872603"><ele>27.0</ele><time>2026-04-04T07:50:22Z</time></trkpt><trkpt lat="40.767692193168244" lon="9.654475712358227"><ele>28.333333333333336</ele><time>2026-04-04T07:50:23Z</time></trkpt><trkpt lat="40.76752144510581" lon="9.654494213498847"><ele>29.666666666666668</ele><time>2026-04-04T07:50:24Z</time></trkpt><trkpt lat="40.76736105445308" lon="9.654507549054962"><ele>31.0</ele><time>2026-04-04T07:50:25Z</time></trkpt><trkpt lat="40.76720989208403" lon="9.65449286217759"><ele>31.0</ele><time>2026-04-04T07:50:26Z</time></trkpt><trkpt lat="40.76705918964209" lon="9.6544837792928"><ele>31.0</ele><time>2026-04-04T07:50:27Z</time></trkpt><trkpt lat="40.76690470995616" lon="9.654469769555877"><ele>31.0</ele><time>2026-04-04T07:50:28Z</time></trkpt><trkpt lat="40.76675065256054" lon="9.654454174009967"><ele>31.25</ele><time>2026-04-04T07:50:29Z</time></trkpt><trkpt lat="40.766614200671704" lon="9.654440210208808"><ele>31.5</ele><time>2026-04-04T07:50:30Z</time></trkpt><trkpt lat="40.76648730401648" lon="9.654427224242163"><ele>31.75</ele><time>2026-04-04T07:50:31Z</time></trkpt><trkpt lat="40.76636863228531" lon="9.654415079974532"><ele>32.0</ele><time>2026-04-04T07:50:32Z</time></trkpt><trkpt lat="40.76626134589181" lon="9.654404100826257"><ele>31.999999999999996</ele><time>2026-04-04T07:50:33Z</time></trkpt><trkpt lat="40.76615943296647" lon="9.654393671557687"><ele>32.0</ele><time>2026-04-04T07:50:34Z</time></trkpt><trkpt lat="40.76606416733388" lon="9.654383828980277"><ele>32.0</ele><time>2026-04-04T07:50:35Z</time></trkpt><trkpt lat="40.76598091586546" lon="9.654375250523762"><ele>32.0</ele><time>2026-04-04T07:50:36Z</time></trkpt><trkpt lat="40.76589828105442" lon="9.654366735610102"><ele>31.999999999999996</ele><time>2026-04-04T07:50:37Z</time></trkpt><trkpt lat="40.76581525466687" lon="9.654378442486253"><ele>32.0</ele><time>2026-04-04T07:50:38Z</time></trkpt><trkpt lat="40.76574096363001" lon="9.65437135585363"><ele>31.999999999999996</ele><time>2026-04-04T07:50:39Z</time></trkpt><trkpt lat="40.76565190509795" lon="9.654361904173284"><ele>32.0</ele><time>2026-04-04T07:50:40Z</time></trkpt><trkpt lat="40.765561964024116" lon="9.654351934545128"><ele>32.0</ele><time>2026-04-04T07:50:41Z</time></trkpt><trkpt lat="40.76548156632534" lon="9.654344518720206"><ele>32.0</ele><time>2026-04-04T07:50:42Z</time></trkpt><trkpt lat="40.76540579479812" lon="9.65431570842612"><ele>31.999999999999996</ele><time>2026-04-04T07:50:43Z</time></trkpt><trkpt lat="40.7653361403345" lon="9.654308516989328"><ele>32.0</ele><time>2026-04-04T07:50:44Z</time></trkpt><trkpt lat="40.76526852521762" lon="9.654301536105795"><ele>32.0</ele><time>2026-04-04T07:50:45Z</time></trkpt><trkpt lat="40.76514923169918" lon="9.654289221307167"><ele>32.0</ele><time>2026-04-04T07:50:47Z</time></trkpt><trkpt lat="40.76503758716622" lon="9.65427769462543"><ele>32.0</ele><time>2026-04-04T07:50:49Z</time></trkpt><trkpt lat="40.76494594649379" lon="9.654268233234303"><ele>32.0</ele><time>2026-04-04T07:50:51Z</time></trkpt><trkpt lat="40.764878917355055" lon="9.654261312827911"><ele>32.0</ele><time>2026-04-04T07:50:54Z</time></trkpt><trkpt lat="40.76477815717624" lon="9.65425066432977"><ele>31.999999999999996</ele><time>2026-04-04T07:51:58Z</time></trkpt><trkpt lat="40.76469888800979" lon="9.654242334026497"><ele>32.0</ele><time>2026-04-04T07:52:00Z</time></trkpt><trkpt lat="40.7646250860475" lon="9.654234578262981"><ele>32.0</ele><time>2026-04-04T07:52:04Z</time></trkpt><trkpt lat="40.76454242038431" lon="9.654225890996036"><ele>32.0</ele><time>2026-04-04T07:52:08Z</time></trkpt><trkpt lat="40.76444680437752" lon="9.654215842755889"><ele>31.999999999999996</ele><time>2026-04-04T07:52:10Z</time></trkpt><trkpt lat="40.76437571740311" lon="9.654207597891203"><ele>32.0</ele><time>2026-04-04T07:52:11Z</time></trkpt><trkpt lat="40.764310054063685" lon="9.654257754066702"><ele>31.333333333333332</ele><time>2026-04-04T07:52:12Z</time></trkpt><trkpt lat="40.764232755747514" lon="9.654251019459291"><ele>30.666666666666664</ele><time>2026-04-04T07:52:13Z</time></trkpt><trkpt lat="40.76414866420188" lon="9.654242102022613"><ele>30.0</ele><time>2026-04-04T07:52:14Z</time></trkpt><trkpt lat="40.76405860226786" lon="9.654231740911465"><ele>29.333333333333336</ele><time>2026-04-04T07:52:15Z</time></trkpt><trkpt lat="40.76396523353808" lon="9.65422315404354"><ele>28.666666666666668</ele><time>2026-04-04T07:52:16Z</time></trkpt><trkpt lat="40.76386561862923" lon="9.654212197379408"><ele>28.0</ele><time>2026-04-04T07:52:17Z</time></trkpt><trkpt lat="40.76377021998717" lon="9.654202021883039"><ele>28.0</ele><time>2026-04-04T07:52:18Z</time></trkpt><trkpt lat="40.763680043736485" lon="9.654191774651666"><ele>27.999999999999996</ele><time>2026-04-04T07:52:19Z</time></trkpt><trkpt lat="40.76357519165948" lon="9.654182139088636"><ele>27.999999999999996</ele><time>2026-04-04T07:52:20Z</time></trkpt><trkpt lat="40.76346467291466" lon="9.654169397128355"><ele>28.0</ele><time>2026-04-04T07:52:21Z</time></trkpt><trkpt lat="40.76336727916922" lon="9.654103196497172"><ele>28.0</ele><time>2026-04-04T07:52:22Z</time></trkpt><trkpt lat="40.763276167443024" lon="9.654093463373613"><ele>27.4</ele><time>2026-04-04T07:52:23Z</time></trkpt><trkpt lat="40.76317490356066" lon="9.654083735418933"><ele>26.799999999999997</ele><time>2026-04-04T07:52:24Z</time></trkpt><trkpt lat="40.76306309958442" lon="9.654071969658839"><ele>26.2</ele><time>2026-04-04T07:52:25Z</time></trkpt><trkpt lat="40.76295000612726" lon="9.654060143622846"><ele>25.6</ele><time>2026-04-04T07:52:26Z</time></trkpt><trkpt lat="40.76283496702567" lon="9.654048306800076"><ele>25.0</ele><time>2026-04-04T07:52:27Z</time></trkpt><trkpt lat="40.76273234779026" lon="9.654037747911131"><ele>26.0</ele><time>2026-04-04T07:52:28Z</time></trkpt><trkpt lat="40.76262751107144" lon="9.654026960851834"><ele>27.0</ele><time>2026-04-04T07:52:29Z</time></trkpt><trkpt lat="40.76251534464801" lon="9.654040626910875"><ele>28.0</ele><time>2026-04-04T07:52:30Z</time></trkpt><trkpt lat="40.762392638899705" lon="9.654015423453872"><ele>29.0</ele><time>2026-04-04T07:52:31Z</time></trkpt><trkpt lat="40.76226189968876" lon="9.654001130175315"><ele>29.0</ele><time>2026-04-04T07:52:32Z</time></trkpt><trkpt lat="40.76212543614981" lon="9.65399067275527"><ele>29.0</ele><time>2026-04-04T07:52:33Z</time></trkpt><trkpt lat="40.761994217142814" lon="9.653977758295085"><ele>29.0</ele><time>2026-04-04T07:52:34Z</time></trkpt><trkpt lat="40.761853146747505" lon="9.653960274730197"><ele>29.0</ele><time>2026-04-04T07:52:35Z</time></trkpt><trkpt lat="40.76169896938433" lon="9.65393529473289"><ele>29.333333333333332</ele><time>2026-04-04T07:52:36Z</time></trkpt><trkpt lat="40.761535741658065" lon="9.653903553865852"><ele>29.666666666666664</ele><time>2026-04-04T07:52:37Z</time></trkpt><trkpt lat="40.7613760402431" lon="9.653858070524995"><ele>30.0</ele><time>2026-04-04T07:52:38Z</time></trkpt><trkpt lat="40.76122744631661" lon="9.653804495021259"><ele>30.0</ele><time>2026-04-04T07:52:39Z</time></trkpt><trkpt lat="40.76110255518804" lon="9.653710860277155"><ele>30.0</ele><time>2026-04-04T07:52:40Z</time></trkpt><trkpt lat="40.76097676560508" lon="9.65364528782776"><ele>30.0</ele><time>2026-04-04T07:52:41Z</time></trkpt><trkpt lat="40.76087044662003" lon="9.653592847618473"><ele>30.0</ele><time>2026-04-04T07:52:42Z</time></trkpt><trkpt lat="40.76080225611222" lon="9.653514885057282"><ele>30.5</ele><time>2026-04-04T07:52:43Z</time></trkpt><trkpt lat="40.76075049601342" lon="9.65342926555124"><ele>31.0</ele><time>2026-04-04T07:52:44Z</time></trkpt><trkpt lat="40.760700361222476" lon="9.653345693203073"><ele>31.5</ele><time>2026-04-04T07:52:45Z</time></trkpt><trkpt lat="40.76064354824294" lon="9.653280633178433"><ele>32.0</ele><time>2026-04-04T07:52:46Z</time></trkpt><trkpt lat="40.76057481536521" lon="9.653265540523666"><ele>32.5</ele><time>2026-04-04T07:52:47Z</time></trkpt><trkpt lat="40.76050855978721" lon="9.653285963907106"><ele>33.0</ele><time>2026-04-04T07:52:48Z</time></trkpt><trkpt lat="40.76045200373848" lon="9.653357174936595"><ele>33.0</ele><time>2026-04-04T07:52:49Z</time></trkpt><trkpt lat="40.76041895747345" lon="9.65344942364201"><ele>33.0</ele><time>2026-04-04T07:52:50Z</time></trkpt><trkpt lat="40.76042312698226" lon="9.653562844032633"><ele>33.0</ele><time>2026-04-04T07:52:51Z</time></trkpt><trkpt lat="40.76043614616153" lon="9.653688663018004"><ele>33.0</ele><time>2026-04-04T07:52:52Z</time></trkpt><trkpt lat="40.7604329120921" lon="9.653848757424994"><ele>33.0</ele><time>2026-04-04T07:52:53Z</time></trkpt><trkpt lat="40.76042468259992" lon="9.65403106811902"><ele>31.666666666666664</ele><time>2026-04-04T07:52:54Z</time></trkpt><trkpt lat="40.76043262041777" lon="9.65423518779005"><ele>30.333333333333332</ele><time>2026-04-04T07:52:55Z</time></trkpt><trkpt lat="40.76046241008277" lon="9.654422385714518"><ele>29.0</ele><time>2026-04-04T07:52:56Z</time></trkpt><trkpt lat="40.76050695085132" lon="9.654615532674185"><ele>28.0</ele><time>2026-04-04T07:52:57Z</time></trkpt><trkpt lat="40.760559764832145" lon="9.654817169232567"><ele>27.0</ele><time>2026-04-04T07:52:58Z</time></trkpt><trkpt lat="40.76061620849469" lon="9.655034228876735"><ele>26.0</ele><time>2026-04-04T07:52:59Z</time></trkpt><trkpt lat="40.76067770437098" lon="9.655262866695002"><ele>26.666666666666664</ele><time>2026-04-04T07:53:00Z</time></trkpt><trkpt lat="40.76074047190585" lon="9.65549508472636"><ele>27.333333333333336</ele><time>2026-04-04T07:53:01Z</time></trkpt><trkpt lat="40.76080600689513" lon="9.655736680350854"><ele>28.0</ele><time>2026-04-04T07:53:02.001Z</time></trkpt><trkpt lat="40.76086475915109" lon="9.65595584619108"><ele>28.666666666666668</ele><time>2026-04-04T07:53:03.001Z</time></trkpt><trkpt lat="40.76090405428232" lon="9.656161063575931"><ele>29.333333333333336</ele><time>2026-04-04T07:53:04.001Z</time></trkpt><trkpt lat="40.760918527028345" lon="9.656372891072195"><ele>30.0</ele><time>2026-04-04T07:53:05.001Z</time></trkpt><trkpt lat="40.76090084498445" lon="9.656608476110918"><ele>30.0</ele><time>2026-04-04T07:53:06.001Z</time></trkpt><trkpt lat="40.760874816542646" lon="9.656860936867929"><ele>30.0</ele><time>2026-04-04T07:53:07.001Z</time></trkpt><trkpt lat="40.76084895244053" lon="9.657115454654928"><ele>30.0</ele><time>2026-04-04T07:53:08.001Z</time></trkpt><trkpt lat="40.76082323050603" lon="9.65735660251228"><ele>30.333333333333336</ele><time>2026-04-04T07:53:09.001Z</time></trkpt><trkpt lat="40.760802196763585" lon="9.657613988205423"><ele>30.666666666666668</ele><time>2026-04-04T07:53:10.001Z</time></trkpt><trkpt lat="40.76078832325498" lon="9.657878740744806"><ele>31.0</ele><time>2026-04-04T07:53:11.001Z</time></trkpt><trkpt lat="40.760793169321865" lon="9.658154484093131"><ele>31.0</ele><time>2026-04-04T07:53:12.001Z</time></trkpt><trkpt lat="40.76082733784477" lon="9.6584456767691"><ele>31.0</ele><time>2026-04-04T07:53:13.001Z</time></trkpt><trkpt lat="40.760872147639645" lon="9.658727428647643"><ele>31.0</ele><time>2026-04-04T07:53:14.001Z</time></trkpt><trkpt lat="40.76091999626106" lon="9.658986431119619"><ele>30.666666666666668</ele><time>2026-04-04T07:53:15.001Z</time></trkpt><trkpt lat="40.76096748892477" lon="9.65922159492956"><ele>30.333333333333336</ele><time>2026-04-04T07:53:16.001Z</time></trkpt><trkpt lat="40.761024759005004" lon="9.659429246872318"><ele>30.0</ele><time>2026-04-04T07:53:17.001Z</time></trkpt><trkpt lat="40.761114701813646" lon="9.659618376407877"><ele>29.0</ele><time>2026-04-04T07:53:18.001Z</time></trkpt><trkpt lat="40.76124280538173" lon="9.659804885123599"><ele>28.0</ele><time>2026-04-04T07:53:19.001Z</time></trkpt><trkpt lat="40.76138496468041" lon="9.6599987721866"><ele>27.0</ele><time>2026-04-04T07:53:20.001Z</time></trkpt><trkpt lat="40.761525048254065" lon="9.660195287618281"><ele>26.0</ele><time>2026-04-04T07:53:21.001Z</time></trkpt><trkpt lat="40.76164906238255" lon="9.660378459868756"><ele>25.0</ele><time>2026-04-04T07:53:22.001Z</time></trkpt><trkpt lat="40.761768380685865" lon="9.66055866290507"><ele>24.0</ele><time>2026-04-04T07:53:23.001Z</time></trkpt><trkpt lat="40.76188611480849" lon="9.660736689942759"><ele>24.0</ele><time>2026-04-04T07:53:24.001Z</time></trkpt><trkpt lat="40.76200198282449" lon="9.660911331429462"><ele>24.0</ele><time>2026-04-04T07:53:25.001Z</time></trkpt><trkpt lat="40.7621166060832" lon="9.661084219933194"><ele>24.0</ele><time>2026-04-04T07:53:26.001Z</time></trkpt><trkpt lat="40.762337474222775" lon="9.661369253197956"><ele>23.666666666666668</ele><time>2026-04-04T07:53:27Z</time></trkpt><trkpt lat="40.762484899723695" lon="9.66157218222793"><ele>23.333333333333336</ele><time>2026-04-04T07:53:28Z</time></trkpt><trkpt lat="40.76263077055089" lon="9.66177621773492"><ele>23.0</ele><time>2026-04-04T07:53:29Z</time></trkpt><trkpt lat="40.762774798528824" lon="9.661981175287304"><ele>22.666666666666668</ele><time>2026-04-04T07:53:30Z</time></trkpt><trkpt lat="40.762915228131845" lon="9.662180047511006"><ele>22.333333333333332</ele><time>2026-04-04T07:53:31Z</time></trkpt><trkpt lat="40.76305927667008" lon="9.662386544109633"><ele>22.0</ele><time>2026-04-04T07:53:32Z</time></trkpt><trkpt lat="40.763204463490055" lon="9.66259731785757"><ele>21.666666666666664</ele><time>2026-04-04T07:53:33Z</time></trkpt><trkpt lat="40.763349894763316" lon="9.662802520261149"><ele>21.333333333333332</ele><time>2026-04-04T07:53:34Z</time></trkpt><trkpt lat="40.76349410141994" lon="9.663011685999491"><ele>21.0</ele><time>2026-04-04T07:53:35Z</time></trkpt><trkpt lat="40.763644031992165" lon="9.663220111100756"><ele>21.0</ele><time>2026-04-04T07:53:36Z</time></trkpt><trkpt lat="40.76379527488729" lon="9.663432786057658"><ele>21.0</ele><time>2026-04-04T07:53:37Z</time></trkpt><trkpt lat="40.7639437980394" lon="9.66364650081858"><ele>21.0</ele><time>2026-04-04T07:53:38Z</time></trkpt><trkpt lat="40.76409401574365" lon="9.663858551000233"><ele>21.0</ele><time>2026-04-04T07:53:39Z</time></trkpt><trkpt lat="40.76425052437273" lon="9.664070656124736"><ele>21.0</ele><time>2026-04-04T07:53:40Z</time></trkpt><trkpt lat="40.76440506253192" lon="9.664286369902692"><ele>21.0</ele><time>2026-04-04T07:53:41Z</time></trkpt><trkpt lat="40.764559437000294" lon="9.66450295112783"><ele>20.0</ele><time>2026-04-04T07:53:42Z</time></trkpt><trkpt lat="40.76471226611034" lon="9.66472128399772"><ele>19.0</ele><time>2026-04-04T07:53:43Z</time></trkpt><trkpt lat="40.76485567315565" lon="9.664923866772913"><ele>18.0</ele><time>2026-04-04T07:53:44Z</time></trkpt><trkpt lat="40.7649917525005" lon="9.665117088705586"><ele>17.666666666666668</ele><time>2026-04-04T07:53:45Z</time></trkpt><trkpt lat="40.76511986666442" lon="9.665293687174383"><ele>17.333333333333336</ele><time>2026-04-04T07:53:46Z</time></trkpt><trkpt lat="40.76523861083437" lon="9.665461306322577"><ele>17.0</ele><time>2026-04-04T07:53:47Z</time></trkpt><trkpt lat="40.76533942694215" lon="9.665616681828867"><ele>17.0</ele><time>2026-04-04T07:53:48Z</time></trkpt><trkpt lat="40.76539034713602" lon="9.665747028802553"><ele>17.0</ele><time>2026-04-04T07:53:49Z</time></trkpt><trkpt lat="40.765412032613675" lon="9.665893398394571"><ele>17.0</ele><time>2026-04-04T07:53:50Z</time></trkpt><trkpt lat="40.76540846114574" lon="9.666050709402633"><ele>17.0</ele><time>2026-04-04T07:53:51Z</time></trkpt><trkpt lat="40.76534623836512" lon="9.666208851802702"><ele>16.333333333333336</ele><time>2026-04-04T07:53:52Z</time></trkpt><trkpt lat="40.76528326026216" lon="9.666400756022579"><ele>15.666666666666668</ele><time>2026-04-04T07:53:53Z</time></trkpt><trkpt lat="40.76518485002028" lon="9.666591239960216"><ele>15.0</ele><time>2026-04-04T07:53:54Z</time></trkpt><trkpt lat="40.7650802727905" lon="9.666796483693105"><ele>15.666666666666668</ele><time>2026-04-04T07:53:55Z</time></trkpt><trkpt lat="40.764975534531764" lon="9.667025108424419"><ele>16.333333333333336</ele><time>2026-04-04T07:53:56Z</time></trkpt><trkpt lat="40.764873418339135" lon="9.667249196980038"><ele>17.0</ele><time>2026-04-04T07:53:57Z</time></trkpt><trkpt lat="40.76477500658219" lon="9.667460535874818"><ele>17.0</ele><time>2026-04-04T07:53:58Z</time></trkpt><trkpt lat="40.76467746011024" lon="9.667670721567172"><ele>17.0</ele><time>2026-04-04T07:53:59Z</time></trkpt><trkpt lat="40.76458357003275" lon="9.6678771542473"><ele>17.0</ele><time>2026-04-04T07:54:00Z</time></trkpt><trkpt lat="40.76449430883998" lon="9.668068923886704"><ele>17.0</ele><time>2026-04-04T07:54:01Z</time></trkpt><trkpt lat="40.764404902655" lon="9.668252580481468"><ele>17.0</ele><time>2026-04-04T07:54:02Z</time></trkpt><trkpt lat="40.764313637370485" lon="9.668433721758493"><ele>17.0</ele><time>2026-04-04T07:54:03Z</time></trkpt><trkpt lat="40.76421984890388" lon="9.668611303611064"><ele>16.0</ele><time>2026-04-04T07:54:04Z</time></trkpt><trkpt lat="40.76412763094008" lon="9.66878923803204"><ele>15.0</ele><time>2026-04-04T07:54:05Z</time></trkpt><trkpt lat="40.76404192834603" lon="9.668958871053507"><ele>14.0</ele><time>2026-04-04T07:54:06Z</time></trkpt><trkpt lat="40.763963949537754" lon="9.66914259942532"><ele>14.0</ele><time>2026-04-04T07:54:07Z</time></trkpt><trkpt lat="40.76389707207916" lon="9.66933532683338"><ele>14.0</ele><time>2026-04-04T07:54:08Z</time></trkpt><trkpt lat="40.763843871820626" lon="9.669548581451313"><ele>14.0</ele><time>2026-04-04T07:54:09Z</time></trkpt><trkpt lat="40.76382106194567" lon="9.669775492987656"><ele>14.0</ele><time>2026-04-04T07:54:10Z</time></trkpt><trkpt lat="40.763814943732356" lon="9.670016499078079"><ele>14.0</ele><time>2026-04-04T07:54:11Z</time></trkpt><trkpt lat="40.76380961020819" lon="9.670274216793052"><ele>14.0</ele><time>2026-04-04T07:54:12Z</time></trkpt><trkpt lat="40.76380133003814" lon="9.670572037285282"><ele>13.5</ele><time>2026-04-04T07:54:13Z</time></trkpt><trkpt lat="40.76378833903894" lon="9.670887238899214"><ele>13.0</ele><time>2026-04-04T07:54:14Z</time></trkpt><trkpt lat="40.763771550492756" lon="9.671184044286004"><ele>13.0</ele><time>2026-04-04T07:54:15Z</time></trkpt><trkpt lat="40.763749952497164" lon="9.671474096060798"><ele>13.0</ele><time>2026-04-04T07:54:16Z</time></trkpt><trkpt lat="40.763716288750345" lon="9.671771774863279"><ele>13.0</ele><time>2026-04-04T07:54:17Z</time></trkpt><trkpt lat="40.763668593855456" lon="9.67207759430334"><ele>13.0</ele><time>2026-04-04T07:54:18Z</time></trkpt><trkpt lat="40.76361776388064" lon="9.672391978425443"><ele>13.0</ele><time>2026-04-04T07:54:19Z</time></trkpt><trkpt lat="40.76356843504153" lon="9.672727325810747"><ele>12.0</ele><time>2026-04-04T07:54:20Z</time></trkpt><trkpt lat="40.76352160797185" lon="9.673073552213719"><ele>11.0</ele><time>2026-04-04T07:54:21Z</time></trkpt><trkpt lat="40.76347792472958" lon="9.673387761667868"><ele>11.0</ele><time>2026-04-04T07:54:22Z</time></trkpt><trkpt lat="40.763439317782904" lon="9.673663033463411"><ele>11.0</ele><time>2026-04-04T07:54:23Z</time></trkpt><trkpt lat="40.76340491454667" lon="9.673895363865977"><ele>11.0</ele><time>2026-04-04T07:54:24Z</time></trkpt><trkpt lat="40.763372568718054" lon="9.67409882669884"><ele>11.0</ele><time>2026-04-04T07:54:25Z</time></trkpt><trkpt lat="40.763337503971364" lon="9.674285732719643"><ele>11.0</ele><time>2026-04-04T07:54:26Z</time></trkpt><trkpt lat="40.76329528836829" lon="9.674464825521486"><ele>11.0</ele><time>2026-04-04T07:54:27Z</time></trkpt><trkpt lat="40.76323522489098" lon="9.674635637068947"><ele>11.0</ele><time>2026-04-04T07:54:28Z</time></trkpt><trkpt lat="40.76314568210867" lon="9.674790331417881"><ele>11.0</ele><time>2026-04-04T07:54:29Z</time></trkpt><trkpt lat="40.763028036197156" lon="9.674932252397845"><ele>11.0</ele><time>2026-04-04T07:54:30Z</time></trkpt><trkpt lat="40.76291285619397" lon="9.675071619075634"><ele>11.0</ele><time>2026-04-04T07:54:31Z</time></trkpt><trkpt lat="40.762828003164756" lon="9.67522101771256"><ele>10.75</ele><time>2026-04-04T07:54:32Z</time></trkpt><trkpt lat="40.76277575326917" lon="9.675392528275786"><ele>10.5</ele><time>2026-04-04T07:54:33Z</time></trkpt><trkpt lat="40.76274797442278" lon="9.67558312496476"><ele>10.25</ele><time>2026-04-04T07:54:34Z</time></trkpt><trkpt lat="40.7627262575937" lon="9.675780277034008"><ele>10.0</ele><time>2026-04-04T07:54:35Z</time></trkpt><trkpt lat="40.762687263220776" lon="9.675978252155732"><ele>9.75</ele><time>2026-04-04T07:54:36Z</time></trkpt><trkpt lat="40.76263794711378" lon="9.676166476530843"><ele>9.5</ele><time>2026-04-04T07:54:37Z</time></trkpt><trkpt lat="40.762569382584296" lon="9.6763225698399"><ele>9.25</ele><time>2026-04-04T07:54:38Z</time></trkpt><trkpt lat="40.76247171952142" lon="9.67645834690335"><ele>9.0</ele><time>2026-04-04T07:54:39Z</time></trkpt><trkpt lat="40.762330514744704" lon="9.676580340048867"><ele>9.0</ele><time>2026-04-04T07:54:40Z</time></trkpt><trkpt lat="40.7621782015919" lon="9.676722131402352"><ele>9.0</ele><time>2026-04-04T07:54:41Z</time></trkpt><trkpt lat="40.7620054435703" lon="9.676895345432339"><ele>9.0</ele><time>2026-04-04T07:54:42Z</time></trkpt><trkpt lat="40.76182635798634" lon="9.677073755382116"><ele>10.0</ele><time>2026-04-04T07:54:43Z</time></trkpt><trkpt lat="40.761644373850956" lon="9.67725252068716"><ele>11.0</ele><time>2026-04-04T07:54:44Z</time></trkpt><trkpt lat="40.761460301465185" lon="9.677432244085594"><ele>11.0</ele><time>2026-04-04T07:54:45Z</time></trkpt><trkpt lat="40.761272173097154" lon="9.677617539671553"><ele>11.0</ele><time>2026-04-04T07:54:46Z</time></trkpt><trkpt lat="40.76107433077346" lon="9.677811014643034"><ele>11.0</ele><time>2026-04-04T07:54:47Z</time></trkpt><trkpt lat="40.76088187201515" lon="9.678004391538062"><ele>11.0</ele><time>2026-04-04T07:54:48Z</time></trkpt><trkpt lat="40.76069793088903" lon="9.678186341279757"><ele>11.0</ele><time>2026-04-04T07:54:49Z</time></trkpt><trkpt lat="40.76051741714816" lon="9.67836374624379"><ele>11.0</ele><time>2026-04-04T07:54:50Z</time></trkpt><trkpt lat="40.760352530314364" lon="9.67852827545639"><ele>11.0</ele><time>2026-04-04T07:54:51Z</time></trkpt><trkpt lat="40.76020975111125" lon="9.678667694780728"><ele>12.666666666666666</ele><time>2026-04-04T07:54:52Z</time></trkpt><trkpt lat="40.76007535953943" lon="9.678787320507594"><ele>14.333333333333332</ele><time>2026-04-04T07:54:53Z</time></trkpt><trkpt lat="40.75994438435797" lon="9.678865926186585"><ele>16.0</ele><time>2026-04-04T07:54:54Z</time></trkpt><trkpt lat="40.75978965898833" lon="9.678876509916467"><ele>16.0</ele><time>2026-04-04T07:54:55Z</time></trkpt><trkpt lat="40.75962175255709" lon="9.678904857579523"><ele>16.0</ele><time>2026-04-04T07:54:56Z</time></trkpt><trkpt lat="40.759441354574726" lon="9.678931223226853"><ele>16.0</ele><time>2026-04-04T07:54:57Z</time></trkpt><trkpt lat="40.75924767649996" lon="9.678958343457264"><ele>17.333333333333332</ele><time>2026-04-04T07:54:58Z</time></trkpt><trkpt lat="40.759048150762396" lon="9.67898628037004"><ele>18.666666666666668</ele><time>2026-04-04T07:54:59Z</time></trkpt><trkpt lat="40.75883504544773" lon="9.6790161186469"><ele>20.0</ele><time>2026-04-04T07:55:00Z</time></trkpt><trkpt lat="40.75861617230606" lon="9.67904542085634"><ele>20.333333333333336</ele><time>2026-04-04T07:55:01Z</time></trkpt><trkpt lat="40.75840785915141" lon="9.679077059212991"><ele>20.666666666666668</ele><time>2026-04-04T07:55:02Z</time></trkpt><trkpt lat="40.75820823642305" lon="9.679107827298994"><ele>21.0</ele><time>2026-04-04T07:55:03Z</time></trkpt><trkpt lat="40.75799377258723" lon="9.679139657698851"><ele>21.0</ele><time>2026-04-04T07:55:04Z</time></trkpt><trkpt lat="40.75777869213032" lon="9.679172552178947"><ele>21.0</ele><time>2026-04-04T07:55:05Z</time></trkpt><trkpt lat="40.75756222150051" lon="9.679206384016132"><ele>21.0</ele><time>2026-04-04T07:55:06Z</time></trkpt><trkpt lat="40.757348304834466" lon="9.679287341755687"><ele>21.666666666666668</ele><time>2026-04-04T07:55:07Z</time></trkpt><trkpt lat="40.75713149267456" lon="9.679353140296513"><ele>22.333333333333336</ele><time>2026-04-04T07:55:08Z</time></trkpt><trkpt lat="40.756932737128665" lon="9.679422173236292"><ele>23.0</ele><time>2026-04-04T07:55:09Z</time></trkpt><trkpt lat="40.756749671156015" lon="9.679486039244896"><ele>23.666666666666668</ele><time>2026-04-04T07:55:10Z</time></trkpt><trkpt lat="40.75657333284932" lon="9.679515375382294"><ele>24.333333333333336</ele><time>2026-04-04T07:55:11Z</time></trkpt><trkpt lat="40.75641183740644" lon="9.679537023217225"><ele>25.0</ele><time>2026-04-04T07:55:12Z</time></trkpt><trkpt lat="40.75625840154432" lon="9.679523172527349"><ele>25.0</ele><time>2026-04-04T07:55:13Z</time></trkpt><trkpt lat="40.756098768397834" lon="9.679476688131741"><ele>25.0</ele><time>2026-04-04T07:55:14Z</time></trkpt><trkpt lat="40.75593155145108" lon="9.679401373301836"><ele>25.0</ele><time>2026-04-04T07:55:15Z</time></trkpt><trkpt lat="40.755750041395586" lon="9.679302239307983"><ele>26.0</ele><time>2026-04-04T07:55:16Z</time></trkpt><trkpt lat="40.755553658757634" lon="9.679196881475868"><ele>27.0</ele><time>2026-04-04T07:55:17Z</time></trkpt><trkpt lat="40.75534544808383" lon="9.679109895724014"><ele>28.0</ele><time>2026-04-04T07:55:18Z</time></trkpt><trkpt lat="40.75515401562102" lon="9.679008855849649"><ele>28.666666666666668</ele><time>2026-04-04T07:55:19Z</time></trkpt><trkpt lat="40.75499201445309" lon="9.678900810920256"><ele>29.333333333333336</ele><time>2026-04-04T07:55:20Z</time></trkpt><trkpt lat="40.75482476905052" lon="9.678854721537993"><ele>30.0</ele><time>2026-04-04T07:55:21Z</time></trkpt><trkpt lat="40.754657667946844" lon="9.678818982340664"><ele>30.0</ele><time>2026-04-04T07:55:22Z</time></trkpt><trkpt lat="40.754472084108095" lon="9.678799042447842"><ele>30.0</ele><time>2026-04-04T07:55:23Z</time></trkpt><trkpt lat="40.75428220464039" lon="9.678773748173015"><ele>30.0</ele><time>2026-04-04T07:55:24Z</time></trkpt><trkpt lat="40.754080533524316" lon="9.678745884926593"><ele>31.0</ele><time>2026-04-04T07:55:25Z</time></trkpt><trkpt lat="40.75387851164232" lon="9.678725224702628"><ele>32.0</ele><time>2026-04-04T07:55:26Z</time></trkpt><trkpt lat="40.753698377808085" lon="9.678710425605786"><ele>33.0</ele><time>2026-04-04T07:55:27Z</time></trkpt><trkpt lat="40.75352771539179" lon="9.67871069373021"><ele>33.0</ele><time>2026-04-04T07:55:28Z</time></trkpt><trkpt lat="40.75335927708536" lon="9.67875718642651"><ele>33.0</ele><time>2026-04-04T07:55:29Z</time></trkpt><trkpt lat="40.75319716738883" lon="9.678849963905865"><ele>33.0</ele><time>2026-04-04T07:55:30Z</time></trkpt><trkpt lat="40.753032064273874" lon="9.6789874080682"><ele>33.0</ele><time>2026-04-04T07:55:31Z</time></trkpt><trkpt lat="40.75287700820309" lon="9.679154508538764"><ele>33.0</ele><time>2026-04-04T07:55:32Z</time></trkpt><trkpt lat="40.75272120682356" lon="9.679340975416052"><ele>33.0</ele><time>2026-04-04T07:55:33Z</time></trkpt><trkpt lat="40.752557096528776" lon="9.679521619572059"><ele>35.666666666666664</ele><time>2026-04-04T07:55:34Z</time></trkpt><trkpt lat="40.75240772938807" lon="9.679676486702697"><ele>38.33333333333333</ele><time>2026-04-04T07:55:35Z</time></trkpt><trkpt lat="40.752286331679635" lon="9.679791957649531"><ele>41.0</ele><time>2026-04-04T07:55:36Z</time></trkpt><trkpt lat="40.75219089773358" lon="9.679913670334885"><ele>41.0</ele><time>2026-04-04T07:55:37Z</time></trkpt><trkpt lat="40.752057341518885" lon="9.679980656942242"><ele>41.0</ele><time>2026-04-04T07:55:38Z</time></trkpt><trkpt lat="40.75189313505489" lon="9.679828343542537"><ele>41.0</ele><time>2026-04-04T07:55:39Z</time></trkpt><trkpt lat="40.751728363335616" lon="9.67976295914875"><ele>42.33333333333333</ele><time>2026-04-04T07:55:40Z</time></trkpt><trkpt lat="40.75154675452344" lon="9.679719359921865"><ele>43.666666666666664</ele><time>2026-04-04T07:55:41Z</time></trkpt><trkpt lat="40.75134428687872" lon="9.679694343835363"><ele>45.0</ele><time>2026-04-04T07:55:42Z</time></trkpt><trkpt lat="40.75113277621558" lon="9.679692507342162"><ele>47.0</ele><time>2026-04-04T07:55:43Z</time></trkpt><trkpt lat="40.7509273670847" lon="9.679726806176172"><ele>49.0</ele><time>2026-04-04T07:55:44Z</time></trkpt><trkpt lat="40.750730544737166" lon="9.679775694995046"><ele>51.0</ele><time>2026-04-04T07:55:45Z</time></trkpt><trkpt lat="40.75055734066256" lon="9.67983367648979"><ele>51.0</ele><time>2026-04-04T07:55:46Z</time></trkpt><trkpt lat="40.75040596766384" lon="9.679900175755774"><ele>51.0</ele><time>2026-04-04T07:55:47Z</time></trkpt><trkpt lat="40.750278695310286" lon="9.680002649276737"><ele>51.0</ele><time>2026-04-04T07:55:48Z</time></trkpt><trkpt lat="40.75015535283516" lon="9.680146099658552"><ele>53.66666666666667</ele><time>2026-04-04T07:55:49Z</time></trkpt><trkpt lat="40.75004261802347" lon="9.680330769995214"><ele>56.333333333333336</ele><time>2026-04-04T07:55:50Z</time></trkpt><trkpt lat="40.74995308108885" lon="9.680553919851882"><ele>59.0</ele><time>2026-04-04T07:55:51Z</time></trkpt><trkpt lat="40.749871325888975" lon="9.680797426850402"><ele>59.0</ele><time>2026-04-04T07:55:52Z</time></trkpt><trkpt lat="40.749778144659764" lon="9.681044220466724"><ele>59.0</ele><time>2026-04-04T07:55:53Z</time></trkpt><trkpt lat="40.749677020232895" lon="9.681298397625994"><ele>59.0</ele><time>2026-04-04T07:55:54Z</time></trkpt><trkpt lat="40.74957851867379" lon="9.68156618172678"><ele>58.333333333333336</ele><time>2026-04-04T07:55:55Z</time></trkpt><trkpt lat="40.74949050400624" lon="9.681844444765625"><ele>57.66666666666667</ele><time>2026-04-04T07:55:56Z</time></trkpt><trkpt lat="40.74941526216099" lon="9.68210200215946"><ele>57.0</ele><time>2026-04-04T07:55:57Z</time></trkpt><trkpt lat="40.749346455423634" lon="9.682325550835822"><ele>59.33333333333333</ele><time>2026-04-04T07:55:58Z</time></trkpt><trkpt lat="40.74926766692444" lon="9.682509524739318"><ele>61.666666666666664</ele><time>2026-04-04T07:55:59Z</time></trkpt><trkpt lat="40.749162231210086" lon="9.682674984800885"><ele>64.0</ele><time>2026-04-04T07:56:00Z</time></trkpt><trkpt lat="40.74902163755092" lon="9.682810400131984"><ele>64.0</ele><time>2026-04-04T07:56:01Z</time></trkpt><trkpt lat="40.74886656731487" lon="9.682937323309618"><ele>64.0</ele><time>2026-04-04T07:56:02Z</time></trkpt><trkpt lat="40.74871017376277" lon="9.683070981189491"><ele>64.0</ele><time>2026-04-04T07:56:03Z</time></trkpt><trkpt lat="40.74856021876795" lon="9.683176469901465"><ele>68.75</ele><time>2026-04-04T07:56:04Z</time></trkpt><trkpt lat="40.74845224353635" lon="9.683286778366345"><ele>73.5</ele><time>2026-04-04T07:56:05Z</time></trkpt><trkpt lat="40.74838138322451" lon="9.68343496982785"><ele>78.25</ele><time>2026-04-04T07:56:06Z</time></trkpt><trkpt lat="40.74834058256203" lon="9.683613931525453"><ele>83.0</ele><time>2026-04-04T07:56:07Z</time></trkpt><trkpt lat="40.74834267185896" lon="9.683809271761646"><ele>83.0</ele><time>2026-04-04T07:56:08Z</time></trkpt><trkpt lat="40.748366951486005" lon="9.68401749935429"><ele>83.0</ele><time>2026-04-04T07:56:09Z</time></trkpt><trkpt lat="40.748377897472984" lon="9.684209777299536"><ele>83.0</ele><time>2026-04-04T07:56:10Z</time></trkpt><trkpt lat="40.748365545684536" lon="9.684380252164825"><ele>83.0</ele><time>2026-04-04T07:56:11Z</time></trkpt><trkpt lat="40.74833365506925" lon="9.68454247481971"><ele>82.5</ele><time>2026-04-04T07:56:12Z</time></trkpt><trkpt lat="40.74826687661879" lon="9.684684866656891"><ele>82.0</ele><time>2026-04-04T07:56:13Z</time></trkpt><trkpt lat="40.74816400399485" lon="9.684790533168128"><ele>81.5</ele><time>2026-04-04T07:56:14Z</time></trkpt><trkpt lat="40.748039417867695" lon="9.684858619149823"><ele>81.0</ele><time>2026-04-04T07:56:15Z</time></trkpt><trkpt lat="40.74789962120464" lon="9.684840919842555"><ele>81.0</ele><time>2026-04-04T07:56:16Z</time></trkpt><trkpt lat="40.747754866839124" lon="9.684809666023844"><ele>81.0</ele><time>2026-04-04T07:56:17Z</time></trkpt><trkpt lat="40.74758978073891" lon="9.68476266877812"><ele>81.0</ele><time>2026-04-04T07:56:18Z</time></trkpt><trkpt lat="40.747405634240565" lon="9.684729332519915"><ele>83.5</ele><time>2026-04-04T07:56:19Z</time></trkpt><trkpt lat="40.74723830085748" lon="9.684674096310443"><ele>86.0</ele><time>2026-04-04T07:56:20Z</time></trkpt><trkpt lat="40.747095464527405" lon="9.684649625475716"><ele>88.5</ele><time>2026-04-04T07:56:21Z</time></trkpt><trkpt lat="40.74698283972579" lon="9.684687344207756"><ele>91.0</ele><time>2026-04-04T07:56:22Z</time></trkpt><trkpt lat="40.746878307277875" lon="9.684778639428101"><ele>92.0</ele><time>2026-04-04T07:56:23Z</time></trkpt><trkpt lat="40.74678217008255" lon="9.684933740166391"><ele>93.0</ele><time>2026-04-04T07:56:24Z</time></trkpt><trkpt lat="40.74669884916145" lon="9.685109958257021"><ele>94.0</ele><time>2026-04-04T07:56:25Z</time></trkpt><trkpt lat="40.74661707886246" lon="9.685300839385853"><ele>95.0</ele><time>2026-04-04T07:56:26Z</time></trkpt><trkpt lat="40.74653405863032" lon="9.685505602068227"><ele>96.0</ele><time>2026-04-04T07:56:27Z</time></trkpt><trkpt lat="40.74644178302553" lon="9.685700892339563"><ele>97.0</ele><time>2026-04-04T07:56:28Z</time></trkpt><trkpt lat="40.74631702989308" lon="9.685828517227408"><ele>97.0</ele><time>2026-04-04T07:56:29Z</time></trkpt><trkpt lat="40.746195911692055" lon="9.685970976529273"><ele>97.0</ele><time>2026-04-04T07:56:30Z</time></trkpt><trkpt lat="40.74604529120652" lon="9.68605438846715"><ele>97.0</ele><time>2026-04-04T07:56:31Z</time></trkpt><trkpt lat="40.74587458561134" lon="9.686107808919894"><ele>95.0</ele><time>2026-04-04T07:56:32Z</time></trkpt><trkpt lat="40.74568512250792" lon="9.686126148449336"><ele>93.0</ele><time>2026-04-04T07:56:33Z</time></trkpt><trkpt lat="40.74548307430813" lon="9.686073545779898"><ele>91.0</ele><time>2026-04-04T07:56:34Z</time></trkpt><trkpt lat="40.74525945164668" lon="9.686070672975276"><ele>96.0</ele><time>2026-04-04T07:56:35Z</time></trkpt><trkpt lat="40.74502754525951" lon="9.686091590934266"><ele>101.0</ele><time>2026-04-04T07:56:36Z</time></trkpt><trkpt lat="40.74481736442426" lon="9.686091450737965"><ele>106.0</ele><time>2026-04-04T07:56:37Z</time></trkpt><trkpt lat="40.74463279930412" lon="9.68611895259989"><ele>109.0</ele><time>2026-04-04T07:56:38Z</time></trkpt><trkpt lat="40.744449044780396" lon="9.686188028125914"><ele>112.0</ele><time>2026-04-04T07:56:39Z</time></trkpt><trkpt lat="40.744259552494924" lon="9.686301338932964"><ele>115.0</ele><time>2026-04-04T07:56:40Z</time></trkpt><trkpt lat="40.74406283325144" lon="9.686419232332575"><ele>118.33333333333334</ele><time>2026-04-04T07:56:41Z</time></trkpt><trkpt lat="40.74386195993846" lon="9.68653203044622"><ele>121.66666666666666</ele><time>2026-04-04T07:56:42Z</time></trkpt><trkpt lat="40.743669086714775" lon="9.68663148891255"><ele>125.0</ele><time>2026-04-04T07:56:43Z</time></trkpt><trkpt lat="40.74347839752107" lon="9.686726990884633"><ele>126.0</ele><time>2026-04-04T07:56:44Z</time></trkpt><trkpt lat="40.74327997839904" lon="9.686822918291128"><ele>127.0</ele><time>2026-04-04T07:56:45Z</time></trkpt><trkpt lat="40.743077697744724" lon="9.686918311570217"><ele>128.0</ele><time>2026-04-04T07:56:46Z</time></trkpt><trkpt lat="40.7428726781563" lon="9.687017206833719"><ele>131.33333333333331</ele><time>2026-04-04T07:56:47Z</time></trkpt><trkpt lat="40.74267019255296" lon="9.687119418936094"><ele>134.66666666666666</ele><time>2026-04-04T07:56:48Z</time></trkpt><trkpt lat="40.74248275931309" lon="9.687225332168858"><ele>138.0</ele><time>2026-04-04T07:56:49Z</time></trkpt><trkpt lat="40.74230057704008" lon="9.687345741335593"><ele>138.0</ele><time>2026-04-04T07:56:50Z</time></trkpt><trkpt lat="40.742112997036344" lon="9.687494010553747"><ele>138.0</ele><time>2026-04-04T07:56:51Z</time></trkpt><trkpt lat="40.7419288004932" lon="9.687659661176928"><ele>138.0</ele><time>2026-04-04T07:56:52Z</time></trkpt><trkpt lat="40.74175204790604" lon="9.687826903185357"><ele>130.0</ele><time>2026-04-04T07:56:53Z</time></trkpt><trkpt lat="40.74157154157685" lon="9.687996573875449"><ele>122.0</ele><time>2026-04-04T07:56:54Z</time></trkpt><trkpt lat="40.74138400440821" lon="9.688172627267452"><ele>122.0</ele><time>2026-04-04T07:56:55Z</time></trkpt><trkpt lat="40.741190207507486" lon="9.688357922818897"><ele>122.0</ele><time>2026-04-04T07:56:56Z</time></trkpt><trkpt lat="40.7409984630869" lon="9.688544478176075"><ele>115.66666666666666</ele><time>2026-04-04T07:56:57Z</time></trkpt><trkpt lat="40.740815744212135" lon="9.688724241690522"><ele>109.33333333333334</ele><time>2026-04-04T07:56:58Z</time></trkpt><trkpt lat="40.74064549347811" lon="9.688890861788076"><ele>103.0</ele><time>2026-04-04T07:56:59Z</time></trkpt><trkpt lat="40.74048655013864" lon="9.68906061091627"><ele>103.0</ele><time>2026-04-04T07:57:00Z</time></trkpt><trkpt lat="40.74033922343275" lon="9.68925147763587"><ele>103.0</ele><time>2026-04-04T07:57:01Z</time></trkpt><trkpt lat="40.740208195803326" lon="9.689479835854433"><ele>103.0</ele><time>2026-04-04T07:57:02Z</time></trkpt><trkpt lat="40.74009485739655" lon="9.689721820590263"><ele>101.33333333333334</ele><time>2026-04-04T07:57:03Z</time></trkpt><trkpt lat="40.74000463491953" lon="9.68998164403021"><ele>99.66666666666666</ele><time>2026-04-04T07:57:04Z</time></trkpt><trkpt lat="40.739938466215186" lon="9.690259556346529"><ele>98.0</ele><time>2026-04-04T07:57:05Z</time></trkpt><trkpt lat="40.73988704362904" lon="9.69055311854581"><ele>92.0</ele><time>2026-04-04T07:57:06Z</time></trkpt><trkpt lat="40.73984298550012" lon="9.69085029148761"><ele>86.0</ele><time>2026-04-04T07:57:07Z</time></trkpt><trkpt lat="40.73980042905938" lon="9.691142856584777"><ele>83.66666666666667</ele><time>2026-04-04T07:57:08Z</time></trkpt><trkpt lat="40.739757223876914" lon="9.691425386365202"><ele>81.33333333333333</ele><time>2026-04-04T07:57:09Z</time></trkpt><trkpt lat="40.73971316125148" lon="9.69169904939939"><ele>79.0</ele><time>2026-04-04T07:57:10Z</time></trkpt><trkpt lat="40.739667272186935" lon="9.691968744666337"><ele>76.33333333333333</ele><time>2026-04-04T07:57:11Z</time></trkpt><trkpt lat="40.739622410459084" lon="9.692234248488827"><ele>73.66666666666667</ele><time>2026-04-04T07:57:12Z</time></trkpt><trkpt lat="40.73957951429656" lon="9.692498020912574"><ele>71.0</ele><time>2026-04-04T07:57:13Z</time></trkpt><trkpt lat="40.73953859019237" lon="9.692757451232586"><ele>69.33333333333334</ele><time>2026-04-04T07:57:14Z</time></trkpt><trkpt lat="40.73949579337186" lon="9.693013489523636"><ele>67.66666666666667</ele><time>2026-04-04T07:57:15Z</time></trkpt><trkpt lat="40.73944389135667" lon="9.693262879001017"><ele>66.0</ele><time>2026-04-04T07:57:16Z</time></trkpt><trkpt lat="40.73937781037203" lon="9.69350439500322"><ele>64.66666666666667</ele><time>2026-04-04T07:57:17Z</time></trkpt><trkpt lat="40.739290695184394" lon="9.693753713129617"><ele>63.333333333333336</ele><time>2026-04-04T07:57:18Z</time></trkpt><trkpt lat="40.739197503198376" lon="9.694003901109772"><ele>62.0</ele><time>2026-04-04T07:57:19Z</time></trkpt><trkpt lat="40.73909984688151" lon="9.69426572166957"><ele>60.0</ele><time>2026-04-04T07:57:20Z</time></trkpt><trkpt lat="40.73900187982918" lon="9.694543351036254"><ele>58.0</ele><time>2026-04-04T07:57:21Z</time></trkpt><trkpt lat="40.73890634172044" lon="9.69482312008055"><ele>58.0</ele><time>2026-04-04T07:57:22Z</time></trkpt><trkpt lat="40.738821375867786" lon="9.695057808019309"><ele>58.0</ele><time>2026-04-04T07:57:23Z</time></trkpt><trkpt lat="40.738740013014535" lon="9.695244083595194"><ele>58.0</ele><time>2026-04-04T07:57:24Z</time></trkpt><trkpt lat="40.738660891481075" lon="9.695393977945795"><ele>57.75</ele><time>2026-04-04T07:57:25Z</time></trkpt><trkpt lat="40.73857777969383" lon="9.695530030996935"><ele>57.5</ele><time>2026-04-04T07:57:26Z</time></trkpt><trkpt lat="40.738508514482284" lon="9.695667726702277"><ele>57.25</ele><time>2026-04-04T07:57:27Z</time></trkpt><trkpt lat="40.738485388926605" lon="9.69582281256228"><ele>57.0</ele><time>2026-04-04T07:57:28Z</time></trkpt><trkpt lat="40.73849829741196" lon="9.695999839612345"><ele>57.0</ele><time>2026-04-04T07:57:29Z</time></trkpt><trkpt lat="40.738541740273035" lon="9.69619688133369"><ele>57.0</ele><time>2026-04-04T07:57:30Z</time></trkpt><trkpt lat="40.73859079350204" lon="9.69641306296378"><ele>57.0</ele><time>2026-04-04T07:57:31Z</time></trkpt><trkpt lat="40.73864228788174" lon="9.696651320989538"><ele>57.0</ele><time>2026-04-04T07:57:32Z</time></trkpt><trkpt lat="40.73869650090433" lon="9.696912250627234"><ele>57.0</ele><time>2026-04-04T07:57:33Z</time></trkpt><trkpt lat="40.73874880016582" lon="9.697187150786846"><ele>57.0</ele><time>2026-04-04T07:57:34Z</time></trkpt><trkpt lat="40.73879965746209" lon="9.697441648240305"><ele>56.0</ele><time>2026-04-04T07:57:35Z</time></trkpt><trkpt lat="40.73885088515714" lon="9.697695658485445"><ele>55.0</ele><time>2026-04-04T07:57:36Z</time></trkpt><trkpt lat="40.738899313954064" lon="9.69795708162745"><ele>54.0</ele><time>2026-04-04T07:57:37Z</time></trkpt><trkpt lat="40.73894320830778" lon="9.698221706025194"><ele>52.33333333333333</ele><time>2026-04-04T07:57:38Z</time></trkpt><trkpt lat="40.73897368394443" lon="9.698484060956924"><ele>50.666666666666664</ele><time>2026-04-04T07:57:39Z</time></trkpt><trkpt lat="40.73898565653714" lon="9.698738042885015"><ele>49.0</ele><time>2026-04-04T07:57:40Z</time></trkpt><trkpt lat="40.73898182877145" lon="9.698978058097337"><ele>48.0</ele><time>2026-04-04T07:57:41Z</time></trkpt><trkpt lat="40.73898103190428" lon="9.699200565709571"><ele>47.0</ele><time>2026-04-04T07:57:42Z</time></trkpt><trkpt lat="40.739007104800955" lon="9.699389717414594"><ele>46.0</ele><time>2026-04-04T07:57:43Z</time></trkpt><trkpt lat="40.73907493325405" lon="9.699545624287571"><ele>46.0</ele><time>2026-04-04T07:57:44Z</time></trkpt><trkpt lat="40.73917791572942" lon="9.69968394662747"><ele>46.0</ele><time>2026-04-04T07:57:45Z</time></trkpt><trkpt lat="40.73931670372215" lon="9.6997920207646"><ele>46.0</ele><time>2026-04-04T07:57:46Z</time></trkpt><trkpt lat="40.73944270659853" lon="9.699899086437224"><ele>41.333333333333336</ele><time>2026-04-04T07:57:47Z</time></trkpt><trkpt lat="40.73953526383621" lon="9.700031434562721"><ele>36.666666666666664</ele><time>2026-04-04T07:57:48Z</time></trkpt><trkpt lat="40.739612974927674" lon="9.700208975661962"><ele>32.0</ele><time>2026-04-04T07:57:49Z</time></trkpt><trkpt lat="40.73967354121486" lon="9.70042110104686"><ele>31.75</ele><time>2026-04-04T07:57:50Z</time></trkpt><trkpt lat="40.73972670536451" lon="9.700617845222324"><ele>31.5</ele><time>2026-04-04T07:57:51Z</time></trkpt><trkpt lat="40.7397674010867" lon="9.700779745516579"><ele>31.25</ele><time>2026-04-04T07:57:52Z</time></trkpt><trkpt lat="40.739796071733515" lon="9.700924762178813"><ele>31.0</ele><time>2026-04-04T07:57:53Z</time></trkpt><trkpt lat="40.73979775680286" lon="9.701060519523084"><ele>30.5</ele><time>2026-04-04T07:57:54Z</time></trkpt><trkpt lat="40.73975096885157" lon="9.70118160879694"><ele>30.0</ele><time>2026-04-04T07:57:55Z</time></trkpt><trkpt lat="40.739671702991274" lon="9.701286197230202"><ele>29.5</ele><time>2026-04-04T07:57:56Z</time></trkpt><trkpt lat="40.73956189344376" lon="9.701379525023642"><ele>29.0</ele><time>2026-04-04T07:57:57Z</time></trkpt><trkpt lat="40.73940973310453" lon="9.701397705048235"><ele>29.75</ele><time>2026-04-04T07:57:58Z</time></trkpt><trkpt lat="40.73928063017645" lon="9.701467908878971"><ele>30.5</ele><time>2026-04-04T07:57:59Z</time></trkpt><trkpt lat="40.73917792167828" lon="9.701549049102123"><ele>31.25</ele><time>2026-04-04T07:58:00Z</time></trkpt><trkpt lat="40.73908827776474" lon="9.701671485192959"><ele>32.0</ele><time>2026-04-04T07:58:01Z</time></trkpt><trkpt lat="40.73900621025419" lon="9.701834303767876"><ele>28.333333333333332</ele><time>2026-04-04T07:58:02Z</time></trkpt><trkpt lat="40.73892480226096" lon="9.70202305878179"><ele>24.666666666666664</ele><time>2026-04-04T07:58:03Z</time></trkpt><trkpt lat="40.73883972732677" lon="9.702233952870623"><ele>21.0</ele><time>2026-04-04T07:58:04Z</time></trkpt><trkpt lat="40.73875345359201" lon="9.702431616509147"><ele>21.0</ele><time>2026-04-04T07:58:05Z</time></trkpt><trkpt lat="40.73866274265976" lon="9.702614963394693"><ele>21.0</ele><time>2026-04-04T07:58:06Z</time></trkpt><trkpt lat="40.73856479582522" lon="9.702797843936777"><ele>21.0</ele><time>2026-04-04T07:58:07Z</time></trkpt><trkpt lat="40.73846025668779" lon="9.702958304930249"><ele>20.666666666666668</ele><time>2026-04-04T07:58:08Z</time></trkpt><trkpt lat="40.73834725508418" lon="9.703113266650304"><ele>20.333333333333336</ele><time>2026-04-04T07:58:09Z</time></trkpt><trkpt lat="40.73822985726051" lon="9.7032591063383"><ele>20.0</ele><time>2026-04-04T07:58:10Z</time></trkpt><trkpt lat="40.73811500226332" lon="9.703413357978201"><ele>20.0</ele><time>2026-04-04T07:58:11Z</time></trkpt><trkpt lat="40.737998439681895" lon="9.703573727744113"><ele>20.0</ele><time>2026-04-04T07:58:12Z</time></trkpt><trkpt lat="40.737880665876396" lon="9.703733340474098"><ele>20.0</ele><time>2026-04-04T07:58:13Z</time></trkpt><trkpt lat="40.73776190876522" lon="9.703893895826484"><ele>20.0</ele><time>2026-04-04T07:58:14Z</time></trkpt><trkpt lat="40.737650883030746" lon="9.704042519650532"><ele>20.0</ele><time>2026-04-04T07:58:15Z</time></trkpt><trkpt lat="40.73754176204626" lon="9.704192963491007"><ele>20.0</ele><time>2026-04-04T07:58:16Z</time></trkpt><trkpt lat="40.73743249001498" lon="9.704343285031207"><ele>18.5</ele><time>2026-04-04T07:58:17Z</time></trkpt><trkpt lat="40.73732860697407" lon="9.70448597768613"><ele>17.0</ele><time>2026-04-04T07:58:18Z</time></trkpt><trkpt lat="40.73721214365908" lon="9.704599644297785"><ele>15.5</ele><time>2026-04-04T07:58:19Z</time></trkpt><trkpt lat="40.737095722888306" lon="9.70467052771971"><ele>14.0</ele><time>2026-04-04T07:58:20Z</time></trkpt><trkpt lat="40.736964447216735" lon="9.704719391347487"><ele>13.666666666666668</ele><time>2026-04-04T07:58:21Z</time></trkpt><trkpt lat="40.73682248056463" lon="9.70478726661957"><ele>13.333333333333332</ele><time>2026-04-04T07:58:22Z</time></trkpt><trkpt lat="40.73666857245321" lon="9.704839017556333"><ele>13.0</ele><time>2026-04-04T07:58:23Z</time></trkpt><trkpt lat="40.73651782010344" lon="9.704892388539669"><ele>13.0</ele><time>2026-04-04T07:58:24Z</time></trkpt><trkpt lat="40.73637329547684" lon="9.70494576239693"><ele>13.0</ele><time>2026-04-04T07:58:25Z</time></trkpt><trkpt lat="40.736232950277405" lon="9.704973393492523"><ele>13.0</ele><time>2026-04-04T07:58:26Z</time></trkpt><trkpt lat="40.73610371914581" lon="9.705018571889294"><ele>13.0</ele><time>2026-04-04T07:58:27Z</time></trkpt><trkpt lat="40.7359802596618" lon="9.705061734026335"><ele>11.75</ele><time>2026-04-04T07:58:28Z</time></trkpt><trkpt lat="40.735862616746076" lon="9.705102157943772"><ele>10.5</ele><time>2026-04-04T07:58:29Z</time></trkpt><trkpt lat="40.73575276758357" lon="9.705161894752983"><ele>9.25</ele><time>2026-04-04T07:58:30Z</time></trkpt><trkpt lat="40.73563688852447" lon="9.705189790168966"><ele>8.0</ele><time>2026-04-04T07:58:31Z</time></trkpt><trkpt lat="40.73552136200531" lon="9.705198258365916"><ele>8.0</ele><time>2026-04-04T07:58:32Z</time></trkpt><trkpt lat="40.735403729348924" lon="9.705171181408351"><ele>8.0</ele><time>2026-04-04T07:58:33Z</time></trkpt><trkpt lat="40.73529443143747" lon="9.705072058949698"><ele>8.0</ele><time>2026-04-04T07:58:34Z</time></trkpt><trkpt lat="40.73517332901017" lon="9.704953474597621"><ele>8.0</ele><time>2026-04-04T07:58:35Z</time></trkpt><trkpt lat="40.735033792686046" lon="9.704805339850633"><ele>8.333333333333332</ele><time>2026-04-04T07:58:36Z</time></trkpt><trkpt lat="40.734883581258224" lon="9.704637943078433"><ele>8.666666666666666</ele><time>2026-04-04T07:58:37Z</time></trkpt><trkpt lat="40.73472909309233" lon="9.704451682719968"><ele>9.0</ele><time>2026-04-04T07:58:38Z</time></trkpt><trkpt lat="40.7345942702372" lon="9.704272350444072"><ele>9.333333333333334</ele><time>2026-04-04T07:58:39Z</time></trkpt><trkpt lat="40.73446068883394" lon="9.704080352143025"><ele>9.666666666666668</ele><time>2026-04-04T07:58:40Z</time></trkpt><trkpt lat="40.73433856207082" lon="9.703874487864217"><ele>10.0</ele><time>2026-04-04T07:58:41Z</time></trkpt><trkpt lat="40.73421777495279" lon="9.703661383170703"><ele>11.0</ele><time>2026-04-04T07:58:42Z</time></trkpt><trkpt lat="40.73409459152569" lon="9.703444050259709"><ele>12.0</ele><time>2026-04-04T07:58:43Z</time></trkpt><trkpt lat="40.73397098310966" lon="9.703225968202695"><ele>13.0</ele><time>2026-04-04T07:58:44Z</time></trkpt><trkpt lat="40.73384275843864" lon="9.703008150170781"><ele>13.0</ele><time>2026-04-04T07:58:45Z</time></trkpt><trkpt lat="40.73370165964218" lon="9.702793802206603"><ele>13.0</ele><time>2026-04-04T07:58:46Z</time></trkpt><trkpt lat="40.73355366477648" lon="9.702590190873595"><ele>13.0</ele><time>2026-04-04T07:58:47Z</time></trkpt><trkpt lat="40.7334015692064" lon="9.70239376306654"><ele>14.666666666666666</ele><time>2026-04-04T07:58:48Z</time></trkpt><trkpt lat="40.7332642368093" lon="9.702220445490696"><ele>16.333333333333332</ele><time>2026-04-04T07:58:49Z</time></trkpt><trkpt lat="40.73313721984058" lon="9.70205870420831"><ele>18.0</ele><time>2026-04-04T07:58:50Z</time></trkpt><trkpt lat="40.733018224643544" lon="9.701903151888274"><ele>18.0</ele><time>2026-04-04T07:58:51Z</time></trkpt><trkpt lat="40.732912273884594" lon="9.701764649315317"><ele>18.0</ele><time>2026-04-04T07:58:52Z</time></trkpt><trkpt lat="40.73281659077533" lon="9.701645876562996"><ele>18.0</ele><time>2026-04-04T07:58:53Z</time></trkpt><trkpt lat="40.73272351823123" lon="9.701528303979496"><ele>18.0</ele><time>2026-04-04T07:58:54Z</time></trkpt><trkpt lat="40.732637313773026" lon="9.701420016113794"><ele>18.0</ele><time>2026-04-04T07:58:55Z</time></trkpt><trkpt lat="40.73254917276901" lon="9.701317936913357"><ele>18.0</ele><time>2026-04-04T07:58:56Z</time></trkpt><trkpt lat="40.73242810032373" lon="9.701256807012268"><ele>18.0</ele><time>2026-04-04T07:58:57Z</time></trkpt><trkpt lat="40.732315534716584" lon="9.701161465797762"><ele>18.0</ele><time>2026-04-04T07:58:58Z</time></trkpt><trkpt lat="40.73214670844781" lon="9.701180631905737"><ele>18.0</ele><time>2026-04-04T07:58:59Z</time></trkpt><trkpt lat="40.73198222105612" lon="9.70118588701174"><ele>18.0</ele><time>2026-04-04T07:59:00Z</time></trkpt><trkpt lat="40.73181136746143" lon="9.701198012794617"><ele>18.0</ele><time>2026-04-04T07:59:01Z</time></trkpt><trkpt lat="40.73166234477009" lon="9.70117650794449"><ele>17.75</ele><time>2026-04-04T07:59:02Z</time></trkpt><trkpt lat="40.731537923565305" lon="9.701169688149989"><ele>17.5</ele><time>2026-04-04T07:59:03Z</time></trkpt><trkpt lat="40.73142339052335" lon="9.701140685521368"><ele>17.25</ele><time>2026-04-04T07:59:04Z</time></trkpt><trkpt lat="40.731325547683056" lon="9.701081356491216"><ele>17.0</ele><time>2026-04-04T07:59:05Z</time></trkpt><trkpt lat="40.7312354449701" lon="9.700986472462683"><ele>18.75</ele><time>2026-04-04T07:59:06Z</time></trkpt><trkpt lat="40.73114280804095" lon="9.700865812940343"><ele>20.5</ele><time>2026-04-04T07:59:07Z</time></trkpt><trkpt lat="40.731043496333896" lon="9.700725496698011"><ele>22.25</ele><time>2026-04-04T07:59:08Z</time></trkpt><trkpt lat="40.73093806334475" lon="9.700569691983159"><ele>24.0</ele><time>2026-04-04T07:59:09Z</time></trkpt><trkpt lat="40.73083614218015" lon="9.700402263591181"><ele>28.0</ele><time>2026-04-04T07:59:10Z</time></trkpt><trkpt lat="40.73073723423062" lon="9.700228768177725"><ele>32.0</ele><time>2026-04-04T07:59:11Z</time></trkpt><trkpt lat="40.73064340104401" lon="9.70006444144755"><ele>36.0</ele><time>2026-04-04T07:59:12Z</time></trkpt><trkpt lat="40.730552096097604" lon="9.699905946462138"><ele>36.0</ele><time>2026-04-04T07:59:13Z</time></trkpt><trkpt lat="40.73046110469034" lon="9.69975054442025"><ele>36.0</ele><time>2026-04-04T07:59:14Z</time></trkpt><trkpt lat="40.73038082214316" lon="9.699613582732495"><ele>36.0</ele><time>2026-04-04T07:59:15Z</time></trkpt><trkpt lat="40.73030272598918" lon="9.699480351153118"><ele>36.0</ele><time>2026-04-04T07:59:16Z</time></trkpt><trkpt lat="40.730234383587366" lon="9.699356410452308"><ele>35.75</ele><time>2026-04-04T07:59:17Z</time></trkpt><trkpt lat="40.730158011428735" lon="9.69919664983518"><ele>35.5</ele><time>2026-04-04T07:59:18Z</time></trkpt><trkpt lat="40.730099661088055" lon="9.699036593790138"><ele>35.25</ele><time>2026-04-04T07:59:19Z</time></trkpt><trkpt lat="40.73003573215962" lon="9.698886588622276"><ele>35.0</ele><time>2026-04-04T07:59:20Z</time></trkpt><trkpt lat="40.729945975175" lon="9.698760985871084"><ele>35.0</ele><time>2026-04-04T07:59:21Z</time></trkpt><trkpt lat="40.72984680385242" lon="9.69867394510136"><ele>35.0</ele><time>2026-04-04T07:59:22Z</time></trkpt><trkpt lat="40.72972259793499" lon="9.698610443634307"><ele>35.0</ele><time>2026-04-04T07:59:23Z</time></trkpt><trkpt lat="40.72959492536062" lon="9.698551602993302"><ele>35.0</ele><time>2026-04-04T07:59:24Z</time></trkpt><trkpt lat="40.72946447654232" lon="9.698490857852704"><ele>34.6</ele><time>2026-04-04T07:59:25Z</time></trkpt><trkpt lat="40.729333350003834" lon="9.69846274816225"><ele>34.2</ele><time>2026-04-04T07:59:26Z</time></trkpt><trkpt lat="40.72922550418322" lon="9.698411099656347"><ele>33.8</ele><time>2026-04-04T07:59:27Z</time></trkpt><trkpt lat="40.72912870859349" lon="9.698370117119723"><ele>33.4</ele><time>2026-04-04T07:59:28Z</time></trkpt><trkpt lat="40.72904190279415" lon="9.698321468699849"><ele>33.0</ele><time>2026-04-04T07:59:29Z</time></trkpt><trkpt lat="40.728991959345635" lon="9.698213470204202"><ele>33.0</ele><time>2026-04-04T07:59:30Z</time></trkpt><trkpt lat="40.72892140748743" lon="9.698157182050286"><ele>33.0</ele><time>2026-04-04T07:59:31Z</time></trkpt><trkpt lat="40.7288507801839" lon="9.69811014761572"><ele>33.0</ele><time>2026-04-04T07:59:32Z</time></trkpt><trkpt lat="40.72876534533122" lon="9.698088294175044"><ele>33.0</ele><time>2026-04-04T07:59:33Z</time></trkpt><trkpt lat="40.72867585682983" lon="9.698081071851202"><ele>33.0</ele><time>2026-04-04T07:59:34Z</time></trkpt><trkpt lat="40.728569304526026" lon="9.698151818326952"><ele>31.25</ele><time>2026-04-04T07:59:35Z</time></trkpt><trkpt lat="40.72846355271754" lon="9.698215272149048"><ele>29.5</ele><time>2026-04-04T07:59:36Z</time></trkpt><trkpt lat="40.72835953755492" lon="9.698307788929935"><ele>27.75</ele><time>2026-04-04T07:59:37Z</time></trkpt><trkpt lat="40.72825068764957" lon="9.698419713032482"><ele>26.0</ele><time>2026-04-04T07:59:38Z</time></trkpt><trkpt lat="40.72813772897736" lon="9.698540836597267"><ele>25.0</ele><time>2026-04-04T07:59:39Z</time></trkpt><trkpt lat="40.728030322383965" lon="9.698650852372085"><ele>24.0</ele><time>2026-04-04T07:59:40Z</time></trkpt><trkpt lat="40.727923514427225" lon="9.698753322542958"><ele>23.0</ele><time>2026-04-04T07:59:41Z</time></trkpt><trkpt lat="40.727815346709264" lon="9.69886599614522"><ele>22.0</ele><time>2026-04-04T07:59:42Z</time></trkpt><trkpt lat="40.727699980562384" lon="9.698985395755159"><ele>22.0</ele><time>2026-04-04T07:59:43Z</time></trkpt><trkpt lat="40.727589006733304" lon="9.699100908620117"><ele>22.0</ele><time>2026-04-04T07:59:44Z</time></trkpt><trkpt lat="40.727476299032524" lon="9.699217545886148"><ele>22.0</ele><time>2026-04-04T07:59:45Z</time></trkpt><trkpt lat="40.72736656351037" lon="9.699329217831517"><ele>22.0</ele><time>2026-04-04T07:59:46Z</time></trkpt><trkpt lat="40.727264646762514" lon="9.699433111024723"><ele>21.0</ele><time>2026-04-04T07:59:47Z</time></trkpt><trkpt lat="40.727167839145785" lon="9.699528997500046"><ele>20.0</ele><time>2026-04-04T07:59:48Z</time></trkpt><trkpt lat="40.72706380924395" lon="9.699623560072027"><ele>19.0</ele><time>2026-04-04T07:59:49Z</time></trkpt><trkpt lat="40.72695465672274" lon="9.69970816407882"><ele>18.0</ele><time>2026-04-04T07:59:50Z</time></trkpt><trkpt lat="40.72682131295768" lon="9.699761347578944"><ele>17.75</ele><time>2026-04-04T07:59:51Z</time></trkpt><trkpt lat="40.72668896930727" lon="9.699790986663448"><ele>17.5</ele><time>2026-04-04T07:59:52Z</time></trkpt><trkpt lat="40.72654048889456" lon="9.69979647431058"><ele>17.25</ele><time>2026-04-04T07:59:53Z</time></trkpt><trkpt lat="40.726380082433096" lon="9.699805514419815"><ele>17.0</ele><time>2026-04-04T07:59:54Z</time></trkpt><trkpt lat="40.72620074020795" lon="9.699815604721712"><ele>16.333333333333336</ele><time>2026-04-04T07:59:55Z</time></trkpt><trkpt lat="40.72600946968135" lon="9.699826805654672"><ele>15.666666666666668</ele><time>2026-04-04T07:59:56Z</time></trkpt><trkpt lat="40.72581053003241" lon="9.699855452568583"><ele>15.0</ele><time>2026-04-04T07:59:57Z</time></trkpt><trkpt lat="40.725625074645684" lon="9.699897678062001"><ele>15.0</ele><time>2026-04-04T07:59:58Z</time></trkpt><trkpt lat="40.72544455630758" lon="9.699942693276476"><ele>15.0</ele><time>2026-04-04T07:59:59Z</time></trkpt><trkpt lat="40.725262490550726" lon="9.699988094387885"><ele>15.0</ele><time>2026-04-04T08:00:00Z</time></trkpt><trkpt lat="40.72507096025947" lon="9.700031286260355"><ele>14.0</ele><time>2026-04-04T08:00:01Z</time></trkpt><trkpt lat="40.72487951613914" lon="9.700064807377665"><ele>13.0</ele><time>2026-04-04T08:00:02Z</time></trkpt><trkpt lat="40.72468283015964" lon="9.700086401077465"><ele>12.0</ele><time>2026-04-04T08:00:03Z</time></trkpt><trkpt lat="40.72449413816522" lon="9.700100572534728"><ele>11.333333333333334</ele><time>2026-04-04T08:00:04Z</time></trkpt><trkpt lat="40.72432013140197" lon="9.700107228178759"><ele>10.666666666666668</ele><time>2026-04-04T08:00:05Z</time></trkpt><trkpt lat="40.72415036627885" lon="9.700110767097016"><ele>10.0</ele><time>2026-04-04T08:00:06Z</time></trkpt><trkpt lat="40.723984552404225" lon="9.70011218106189"><ele>10.0</ele><time>2026-04-04T08:00:07Z</time></trkpt><trkpt lat="40.72381840739985" lon="9.70011359785031"><ele>10.0</ele><time>2026-04-04T08:00:08Z</time></trkpt><trkpt lat="40.72366161692186" lon="9.700114934869735"><ele>10.0</ele><time>2026-04-04T08:00:09Z</time></trkpt><trkpt lat="40.72351377493752" lon="9.700116195580005"><ele>9.75</ele><time>2026-04-04T08:00:10Z</time></trkpt><trkpt lat="40.72337004063882" lon="9.700118453595307"><ele>9.5</ele><time>2026-04-04T08:00:11Z</time></trkpt><trkpt lat="40.723239845690514" lon="9.700123902064865"><ele>9.25</ele><time>2026-04-04T08:00:12Z</time></trkpt><trkpt lat="40.72311826572414" lon="9.700118382217552"><ele>9.0</ele><time>2026-04-04T08:00:13Z</time></trkpt><trkpt lat="40.72301335294252" lon="9.700095719697584"><ele>9.0</ele><time>2026-04-04T08:00:14Z</time></trkpt><trkpt lat="40.722902678977455" lon="9.700057492956422"><ele>9.0</ele><time>2026-04-04T08:00:15Z</time></trkpt><trkpt lat="40.72282712208744" lon="9.699940029162253"><ele>9.0</ele><time>2026-04-04T08:00:16Z</time></trkpt><trkpt lat="40.72277972232746" lon="9.699825287034866"><ele>9.0</ele><time>2026-04-04T08:00:17Z</time></trkpt><trkpt lat="40.72274605679506" lon="9.699681686351795"><ele>9.0</ele><time>2026-04-04T08:00:18Z</time></trkpt><trkpt lat="40.72271220507481" lon="9.699530300205437"><ele>9.6</ele><time>2026-04-04T08:00:19Z</time></trkpt><trkpt lat="40.72268473559335" lon="9.699393969385467"><ele>10.2</ele><time>2026-04-04T08:00:20Z</time></trkpt><trkpt lat="40.72266075549025" lon="9.69927462301564"><ele>10.799999999999999</ele><time>2026-04-04T08:00:21Z</time></trkpt><trkpt lat="40.722638479680825" lon="9.699163758562202"><ele>11.4</ele><time>2026-04-04T08:00:22Z</time></trkpt><trkpt lat="40.72261023575655" lon="9.699023191217437"><ele>12.0</ele><time>2026-04-04T08:00:24Z</time></trkpt><trkpt lat="40.72258104259567" lon="9.698877899739497"><ele>12.0</ele><time>2026-04-04T08:00:26Z</time></trkpt><trkpt lat="40.722560685881994" lon="9.698776582571785"><ele>12.0</ele><time>2026-04-04T08:00:27Z</time></trkpt><trkpt lat="40.7225343895514" lon="9.69865911830848"><ele>12.0</ele><time>2026-04-04T08:00:28Z</time></trkpt><trkpt lat="40.722507999877244" lon="9.698533961074816"><ele>12.0</ele><time>2026-04-04T08:00:29Z</time></trkpt><trkpt lat="40.722476340381476" lon="9.698378965031923"><ele>12.0</ele><time>2026-04-04T08:00:30Z</time></trkpt><trkpt lat="40.722443010608195" lon="9.698198959068364"><ele>12.5</ele><time>2026-04-04T08:00:31Z</time></trkpt><trkpt lat="40.72240422059198" lon="9.698010864840665"><ele>13.0</ele><time>2026-04-04T08:00:32Z</time></trkpt><trkpt lat="40.722367340811125" lon="9.697847839466464"><ele>13.5</ele><time>2026-04-04T08:00:33Z</time></trkpt><trkpt lat="40.7223242319113" lon="9.697670934025785"><ele>14.0</ele><time>2026-04-04T08:00:34Z</time></trkpt><trkpt lat="40.72226789084901" lon="9.697472647017584"><ele>14.666666666666668</ele><time>2026-04-04T08:00:35Z</time></trkpt><trkpt lat="40.722192865109484" lon="9.697252549211832"><ele>15.333333333333332</ele><time>2026-04-04T08:00:36Z</time></trkpt><trkpt lat="40.722099328982175" lon="9.697019060626726"><ele>16.0</ele><time>2026-04-04T08:00:37Z</time></trkpt><trkpt lat="40.722001448824166" lon="9.69678832010232"><ele>16.0</ele><time>2026-04-04T08:00:38Z</time></trkpt><trkpt lat="40.72191119976869" lon="9.696573456451649"><ele>16.0</ele><time>2026-04-04T08:00:39Z</time></trkpt><trkpt lat="40.72181378767286" lon="9.696339749796335"><ele>16.0</ele><time>2026-04-04T08:00:40Z</time></trkpt><trkpt lat="40.721706749990744" lon="9.69609051923379"><ele>19.0</ele><time>2026-04-04T08:00:41Z</time></trkpt><trkpt lat="40.72159229530191" lon="9.695822664169249"><ele>22.0</ele><time>2026-04-04T08:00:42Z</time></trkpt><trkpt lat="40.72148273988957" lon="9.695562304174304"><ele>22.0</ele><time>2026-04-04T08:00:43Z</time></trkpt><trkpt lat="40.72137551246532" lon="9.695307476809148"><ele>22.0</ele><time>2026-04-04T08:00:44Z</time></trkpt><trkpt lat="40.72131454199879" lon="9.695162579482417"><ele>22.0</ele><time>2026-04-04T08:00:45Z</time></trkpt><trkpt lat="40.72121906785003" lon="9.6949356369141"><ele>22.0</ele><time>2026-04-04T08:00:46Z</time></trkpt><trkpt lat="40.721123306056775" lon="9.69470682309668"><ele>22.0</ele><time>2026-04-04T08:00:47Z</time></trkpt><trkpt lat="40.72103389227213" lon="9.6944906206699"><ele>22.0</ele><time>2026-04-04T08:00:48Z</time></trkpt><trkpt lat="40.7209570997097" lon="9.694288828519236"><ele>21.666666666666664</ele><time>2026-04-04T08:00:49Z</time></trkpt><trkpt lat="40.720893983236955" lon="9.694080076762534"><ele>21.333333333333332</ele><time>2026-04-04T08:00:50Z</time></trkpt><trkpt lat="40.720845861655214" lon="9.69384159424893"><ele>21.0</ele><time>2026-04-04T08:00:51Z</time></trkpt><trkpt lat="40.72080321298424" lon="9.693573930286652"><ele>22.5</ele><time>2026-04-04T08:00:52Z</time></trkpt><trkpt lat="40.7207665358853" lon="9.693281804303336"><ele>24.0</ele><time>2026-04-04T08:00:53Z</time></trkpt><trkpt lat="40.720721234631604" lon="9.692970663253682"><ele>24.0</ele><time>2026-04-04T08:00:54Z</time></trkpt><trkpt lat="40.720676634950024" lon="9.692648217698565"><ele>24.0</ele><time>2026-04-04T08:00:55Z</time></trkpt><trkpt lat="40.720630964627006" lon="9.692315359278007"><ele>24.0</ele><time>2026-04-04T08:00:56Z</time></trkpt><trkpt lat="40.72058833542648" lon="9.69200206275554"><ele>24.0</ele><time>2026-04-04T08:00:57Z</time></trkpt><trkpt lat="40.72054908742112" lon="9.691704961099767"><ele>25.0</ele><time>2026-04-04T08:00:58Z</time></trkpt><trkpt lat="40.72050845943202" lon="9.691397413322214"><ele>26.0</ele><time>2026-04-04T08:00:59Z</time></trkpt><trkpt lat="40.72046569178216" lon="9.69108551307512"><ele>26.666666666666664</ele><time>2026-04-04T08:01:00Z</time></trkpt><trkpt lat="40.72042398687439" lon="9.690790476998375"><ele>27.333333333333336</ele><time>2026-04-04T08:01:01Z</time></trkpt><trkpt lat="40.72039057891085" lon="9.690535636735039"><ele>28.0</ele><time>2026-04-04T08:01:02Z</time></trkpt><trkpt lat="40.72036303958381" lon="9.690308870727986"><ele>28.666666666666668</ele><time>2026-04-04T08:01:03Z</time></trkpt><trkpt lat="40.720319864501214" lon="9.690093723761827"><ele>29.333333333333336</ele><time>2026-04-04T08:01:04Z</time></trkpt><trkpt lat="40.720235732332235" lon="9.68989466995218"><ele>30.0</ele><time>2026-04-04T08:01:05Z</time></trkpt><trkpt lat="40.72014090007737" lon="9.689670863343485"><ele>30.5</ele><time>2026-04-04T08:01:06Z</time></trkpt><trkpt lat="40.720019478358644" lon="9.689439540400354"><ele>31.0</ele><time>2026-04-04T08:01:07Z</time></trkpt><trkpt lat="40.71990466600069" lon="9.689167082025891"><ele>31.666666666666668</ele><time>2026-04-04T08:01:08Z</time></trkpt><trkpt lat="40.719781816493374" lon="9.688911661733384"><ele>32.333333333333336</ele><time>2026-04-04T08:01:09Z</time></trkpt><trkpt lat="40.71966946305969" lon="9.688671555547824"><ele>33.0</ele><time>2026-04-04T08:01:10Z</time></trkpt><trkpt lat="40.719569252939785" lon="9.68845994823901"><ele>34.0</ele><time>2026-04-04T08:01:11Z</time></trkpt><trkpt lat="40.71948063116515" lon="9.688258773075976"><ele>35.0</ele><time>2026-04-04T08:01:12Z</time></trkpt><trkpt lat="40.71942397179793" lon="9.6880720292052"><ele>36.0</ele><time>2026-04-04T08:01:13Z</time></trkpt><trkpt lat="40.71940222689995" lon="9.687895446577556"><ele>36.333333333333336</ele><time>2026-04-04T08:01:14Z</time></trkpt><trkpt lat="40.7194112868079" lon="9.687706527925663"><ele>36.66666666666667</ele><time>2026-04-04T08:01:15Z</time></trkpt><trkpt lat="40.71943263625775" lon="9.687482093299558"><ele>37.0</ele><time>2026-04-04T08:01:16Z</time></trkpt><trkpt lat="40.71945853919645" lon="9.687232417033865"><ele>37.0</ele><time>2026-04-04T08:01:17Z</time></trkpt><trkpt lat="40.71948209568591" lon="9.686976483278432"><ele>37.0</ele><time>2026-04-04T08:01:18Z</time></trkpt><trkpt lat="40.71949256200256" lon="9.686715867875982"><ele>37.0</ele><time>2026-04-04T08:01:19Z</time></trkpt><trkpt lat="40.71946768278729" lon="9.686472792469734"><ele>36.66666666666667</ele><time>2026-04-04T08:01:20Z</time></trkpt><trkpt lat="40.719440646604866" lon="9.686252669570411"><ele>36.333333333333336</ele><time>2026-04-04T08:01:21Z</time></trkpt><trkpt lat="40.719392142298055" lon="9.686024709573056"><ele>36.0</ele><time>2026-04-04T08:01:22Z</time></trkpt><trkpt lat="40.719347665322246" lon="9.685772025084361"><ele>35.333333333333336</ele><time>2026-04-04T08:01:23Z</time></trkpt><trkpt lat="40.71927106975113" lon="9.685509724999315"><ele>34.66666666666667</ele><time>2026-04-04T08:01:24Z</time></trkpt><trkpt lat="40.71919433399885" lon="9.685240751839114"><ele>34.0</ele><time>2026-04-04T08:01:25Z</time></trkpt><trkpt lat="40.71911100575406" lon="9.684946997036011"><ele>34.0</ele><time>2026-04-04T08:01:25.999Z</time></trkpt><trkpt lat="40.71903071671736" lon="9.684663956473766"><ele>34.0</ele><time>2026-04-04T08:01:26.999Z</time></trkpt><trkpt lat="40.71895417640688" lon="9.684395464825078"><ele>34.0</ele><time>2026-04-04T08:01:27.999Z</time></trkpt><trkpt lat="40.71887533882368" lon="9.68412341160672"><ele>35.0</ele><time>2026-04-04T08:01:28.999Z</time></trkpt><trkpt lat="40.71879845515611" lon="9.683853216595933"><ele>36.0</ele><time>2026-04-04T08:01:29.999Z</time></trkpt><trkpt lat="40.7187271440616" lon="9.683601417774174"><ele>37.0</ele><time>2026-04-04T08:01:30.999Z</time></trkpt><trkpt lat="40.71866227364016" lon="9.683373019774747"><ele>37.0</ele><time>2026-04-04T08:01:31.999Z</time></trkpt><trkpt lat="40.7185998113487" lon="9.683166608854114"><ele>37.0</ele><time>2026-04-04T08:01:32.999Z</time></trkpt><trkpt lat="40.718528323351464" lon="9.683000565292268"><ele>37.0</ele><time>2026-04-04T08:01:33.999Z</time></trkpt><trkpt lat="40.71847209304873" lon="9.68285992139913"><ele>37.0</ele><time>2026-04-04T08:01:34.999Z</time></trkpt><trkpt lat="40.71841886678767" lon="9.682720171735697"><ele>37.0</ele><time>2026-04-04T08:01:35.999Z</time></trkpt><trkpt lat="40.718291135986206" lon="9.682653595816834"><ele>37.0</ele><time>2026-04-04T08:01:36.999Z</time></trkpt><trkpt lat="40.71816849505567" lon="9.682586327651675"><ele>37.0</ele><time>2026-04-04T08:01:37.999Z</time></trkpt><trkpt lat="40.718032789445516" lon="9.682521981339491"><ele>37.0</ele><time>2026-04-04T08:01:38.999Z</time></trkpt><trkpt lat="40.71789734682581" lon="9.682426037369257"><ele>37.0</ele><time>2026-04-04T08:01:39.999Z</time></trkpt><trkpt lat="40.71775001925494" lon="9.68236833734248"><ele>37.0</ele><time>2026-04-04T08:01:40.999Z</time></trkpt><trkpt lat="40.71763168323353" lon="9.682278543684845"><ele>37.0</ele><time>2026-04-04T08:01:41.999Z</time></trkpt><trkpt lat="40.71751369717969" lon="9.682212380462277"><ele>37.0</ele><time>2026-04-04T08:01:42.999Z</time></trkpt><trkpt lat="40.7173983857139" lon="9.682147717238035"><ele>36.2</ele><time>2026-04-04T08:01:44Z</time></trkpt><trkpt lat="40.71728973616123" lon="9.682087491000951"><ele>35.400000000000006</ele><time>2026-04-04T08:01:45Z</time></trkpt><trkpt lat="40.71718992317638" lon="9.682053643958199"><ele>34.599999999999994</ele><time>2026-04-04T08:01:46Z</time></trkpt><trkpt lat="40.71711764577392" lon="9.68199854778357"><ele>33.8</ele><time>2026-04-04T08:01:47Z</time></trkpt><trkpt lat="40.717039686634735" lon="9.681898118626892"><ele>33.0</ele><time>2026-04-04T08:01:49Z</time></trkpt><trkpt lat="40.71696450529227" lon="9.681773101906643"><ele>31.599999999999998</ele><time>2026-04-04T08:01:51Z</time></trkpt><trkpt lat="40.71687283983421" lon="9.68175405864077"><ele>30.199999999999996</ele><time>2026-04-04T08:01:52Z</time></trkpt><trkpt lat="40.71681426395407" lon="9.681647293458697"><ele>28.8</ele><time>2026-04-04T08:01:53Z</time></trkpt><trkpt lat="40.71671300167692" lon="9.681627196732991"><ele>27.4</ele><time>2026-04-04T08:01:54Z</time></trkpt><trkpt lat="40.71660589851023" lon="9.68162838063432"><ele>26.0</ele><time>2026-04-04T08:01:55Z</time></trkpt><trkpt lat="40.71647843491446" lon="9.681617560399062"><ele>26.0</ele><time>2026-04-04T08:01:56Z</time></trkpt><trkpt lat="40.7163642738244" lon="9.68156408672006"><ele>26.0</ele><time>2026-04-04T08:01:57Z</time></trkpt><trkpt lat="40.71627156985913" lon="9.681466485984396"><ele>26.0</ele><time>2026-04-04T08:01:58Z</time></trkpt><trkpt lat="40.71603456646896" lon="9.681318907035791"><ele>25.333333333333332</ele><time>2026-04-04T08:02:00Z</time></trkpt><trkpt lat="40.71589900602369" lon="9.681234768198134"><ele>24.666666666666664</ele><time>2026-04-04T08:02:01Z</time></trkpt><trkpt lat="40.7157612107011" lon="9.681149384449471"><ele>24.0</ele><time>2026-04-04T08:02:02Z</time></trkpt><trkpt lat="40.71561788993545" lon="9.681060370590602"><ele>24.0</ele><time>2026-04-04T08:02:03Z</time></trkpt><trkpt lat="40.71545341752405" lon="9.680957912357265"><ele>24.0</ele><time>2026-04-04T08:02:04Z</time></trkpt><trkpt lat="40.71526301897388" lon="9.68083953745535"><ele>24.0</ele><time>2026-04-04T08:02:05Z</time></trkpt><trkpt lat="40.715078225165406" lon="9.680723798326905"><ele>25.333333333333336</ele><time>2026-04-04T08:02:06Z</time></trkpt><trkpt lat="40.714889254047264" lon="9.68060509188541"><ele>26.666666666666668</ele><time>2026-04-04T08:02:07Z</time></trkpt><trkpt lat="40.71469986139193" lon="9.680486623711746"><ele>28.0</ele><time>2026-04-04T08:02:08Z</time></trkpt><trkpt lat="40.71454196085125" lon="9.680387673859924"><ele>28.0</ele><time>2026-04-04T08:02:09Z</time></trkpt><trkpt lat="40.71441626880401" lon="9.680297694696861"><ele>28.0</ele><time>2026-04-04T08:02:10Z</time></trkpt><trkpt lat="40.7143013627421" lon="9.680208590218252"><ele>28.0</ele><time>2026-04-04T08:02:11Z</time></trkpt><trkpt lat="40.71420036936971" lon="9.680102122981795"><ele>28.0</ele><time>2026-04-04T08:02:12Z</time></trkpt><trkpt lat="40.714119765418104" lon="9.679970199793498"><ele>28.0</ele><time>2026-04-04T08:02:13Z</time></trkpt><trkpt lat="40.71405672206039" lon="9.679825537162932"><ele>28.0</ele><time>2026-04-04T08:02:14Z</time></trkpt><trkpt lat="40.71401532823856" lon="9.679674463027595"><ele>28.0</ele><time>2026-04-04T08:02:15Z</time></trkpt><trkpt lat="40.71400582865432" lon="9.67950949733307"><ele>28.0</ele><time>2026-04-04T08:02:16Z</time></trkpt><trkpt lat="40.714017260233945" lon="9.679334422939526"><ele>28.0</ele><time>2026-04-04T08:02:17Z</time></trkpt><trkpt lat="40.71406112766319" lon="9.679170086852018"><ele>28.0</ele><time>2026-04-04T08:02:18Z</time></trkpt><trkpt lat="40.71413131126384" lon="9.679019333270245"><ele>28.0</ele><time>2026-04-04T08:02:19Z</time></trkpt><trkpt lat="40.7142172435957" lon="9.67887528445685"><ele>28.0</ele><time>2026-04-04T08:02:20Z</time></trkpt><trkpt lat="40.71433524245673" lon="9.67877834581001"><ele>27.75</ele><time>2026-04-04T08:02:21Z</time></trkpt><trkpt lat="40.71447117845578" lon="9.67871666999778"><ele>27.5</ele><time>2026-04-04T08:02:22Z</time></trkpt><trkpt lat="40.7146156307158" lon="9.678695018801664"><ele>27.25</ele><time>2026-04-04T08:02:23Z</time></trkpt><trkpt lat="40.71475070301208" lon="9.678718092271746"><ele>27.0</ele><time>2026-04-04T08:02:24Z</time></trkpt><trkpt lat="40.71488372223953" lon="9.6787954303467"><ele>27.0</ele><time>2026-04-04T08:02:25Z</time></trkpt><trkpt lat="40.71500551738182" lon="9.678904523769665"><ele>27.0</ele><time>2026-04-04T08:02:26Z</time></trkpt><trkpt lat="40.7151086677596" lon="9.679040313424098"><ele>27.0</ele><time>2026-04-04T08:02:27Z</time></trkpt><trkpt lat="40.715176230927135" lon="9.679199954237633"><ele>27.0</ele><time>2026-04-04T08:02:28Z</time></trkpt><trkpt lat="40.715215245760255" lon="9.679364424357882"><ele>27.25</ele><time>2026-04-04T08:02:29Z</time></trkpt><trkpt lat="40.71522108805914" lon="9.679554675385006"><ele>27.5</ele><time>2026-04-04T08:02:30Z</time></trkpt><trkpt lat="40.71519993242479" lon="9.679748952920646"><ele>27.75</ele><time>2026-04-04T08:02:30.999Z</time></trkpt><trkpt lat="40.71514792310777" lon="9.67994022155388"><ele>28.0</ele><time>2026-04-04T08:02:31.999Z</time></trkpt><trkpt lat="40.71505403138912" lon="9.680116987848615"><ele>28.0</ele><time>2026-04-04T08:02:32.999Z</time></trkpt><trkpt lat="40.71494005366399" lon="9.680286519261111"><ele>28.0</ele><time>2026-04-04T08:02:33.999Z</time></trkpt><trkpt lat="40.714816809535094" lon="9.680457450792009"><ele>28.0</ele><time>2026-04-04T08:02:34.999Z</time></trkpt><trkpt lat="40.714697804005084" lon="9.680627869093504"><ele>28.0</ele><time>2026-04-04T08:02:35.999Z</time></trkpt><trkpt lat="40.714585715099886" lon="9.680808219760433"><ele>28.0</ele><time>2026-04-04T08:02:36.999Z</time></trkpt><trkpt lat="40.714451693642644" lon="9.68099818167857"><ele>28.0</ele><time>2026-04-04T08:02:37.999Z</time></trkpt><trkpt lat="40.71430742494918" lon="9.681197634898032"><ele>27.333333333333336</ele><time>2026-04-04T08:02:38.999Z</time></trkpt><trkpt lat="40.71415085496833" lon="9.68141893015948"><ele>26.666666666666664</ele><time>2026-04-04T08:02:39.999Z</time></trkpt><trkpt lat="40.71400299530495" lon="9.681627792919526"><ele>26.0</ele><time>2026-04-04T08:02:40.999Z</time></trkpt><trkpt lat="40.71386231033608" lon="9.681827362382332"><ele>25.0</ele><time>2026-04-04T08:02:41.999Z</time></trkpt><trkpt lat="40.71371446581491" lon="9.682036202941449"><ele>24.0</ele><time>2026-04-04T08:02:42.999Z</time></trkpt><trkpt lat="40.713560924635274" lon="9.682252630806222"><ele>23.0</ele><time>2026-04-04T08:02:43.999Z</time></trkpt><trkpt lat="40.713392836081916" lon="9.682489159925861"><ele>23.0</ele><time>2026-04-04T08:02:44.999Z</time></trkpt><trkpt lat="40.713226291238215" lon="9.682723935831662"><ele>23.0</ele><time>2026-04-04T08:02:45.999Z</time></trkpt><trkpt lat="40.71306836821707" lon="9.682950242846882"><ele>22.5</ele><time>2026-04-04T08:02:46.999Z</time></trkpt><trkpt lat="40.712910725453796" lon="9.683181784433229"><ele>22.0</ele><time>2026-04-04T08:02:47.999Z</time></trkpt><trkpt lat="40.71275225970401" lon="9.683427314205474"><ele>20.5</ele><time>2026-04-04T08:02:48.999Z</time></trkpt><trkpt lat="40.71259575053093" lon="9.683680260803337"><ele>19.0</ele><time>2026-04-04T08:02:49.999Z</time></trkpt><trkpt lat="40.71244353290286" lon="9.683945140919207"><ele>19.0</ele><time>2026-04-04T08:02:50.999Z</time></trkpt><trkpt lat="40.712298949813984" lon="9.684217680025705"><ele>19.0</ele><time>2026-04-04T08:02:51.999Z</time></trkpt><trkpt lat="40.7121651466744" lon="9.684481395627488"><ele>18.5</ele><time>2026-04-04T08:02:52.999Z</time></trkpt><trkpt lat="40.71204517251124" lon="9.684734062994435"><ele>18.0</ele><time>2026-04-04T08:02:53.999Z</time></trkpt><trkpt lat="40.71192645073587" lon="9.684998897748713"><ele>18.0</ele><time>2026-04-04T08:02:54.999Z</time></trkpt><trkpt lat="40.71181301859318" lon="9.68526941888952"><ele>18.0</ele><time>2026-04-04T08:02:55.999Z</time></trkpt><trkpt lat="40.71170633457861" lon="9.685543706614991"><ele>18.0</ele><time>2026-04-04T08:02:56.999Z</time></trkpt><trkpt lat="40.711605845023726" lon="9.685829471679366"><ele>18.0</ele><time>2026-04-04T08:02:57.999Z</time></trkpt><trkpt lat="40.711511103317584" lon="9.686114654049398"><ele>17.5</ele><time>2026-04-04T08:02:58.999Z</time></trkpt><trkpt lat="40.711417880393" lon="9.686405353033384"><ele>17.0</ele><time>2026-04-04T08:02:59.999Z</time></trkpt><trkpt lat="40.71133019050082" lon="9.68670387259105"><ele>17.0</ele><time>2026-04-04T08:03:00.999Z</time></trkpt><trkpt lat="40.711251693193596" lon="9.687008845217367"><ele>17.0</ele><time>2026-04-04T08:03:01.999Z</time></trkpt><trkpt lat="40.71118017342952" lon="9.687318692817332"><ele>17.0</ele><time>2026-04-04T08:03:02.999Z</time></trkpt><trkpt lat="40.711117938186824" lon="9.687631759019677"><ele>17.0</ele><time>2026-04-04T08:03:03.999Z</time></trkpt><trkpt lat="40.71105931341762" lon="9.687949932752685"><ele>19.0</ele><time>2026-04-04T08:03:04.999Z</time></trkpt><trkpt lat="40.71100388875732" lon="9.68827006702212"><ele>21.0</ele><time>2026-04-04T08:03:05.999Z</time></trkpt><trkpt lat="40.71094969928957" lon="9.688592110070335"><ele>21.5</ele><time>2026-04-04T08:03:06.999Z</time></trkpt><trkpt lat="40.71089657545859" lon="9.688918436284382"><ele>22.0</ele><time>2026-04-04T08:03:07.999Z</time></trkpt><trkpt lat="40.71084573545088" lon="9.689223350364614"><ele>21.0</ele><time>2026-04-04T08:03:08.999Z</time></trkpt><trkpt lat="40.71079059432999" lon="9.689517135496663"><ele>20.0</ele><time>2026-04-04T08:03:09.999Z</time></trkpt><trkpt lat="40.710727160082044" lon="9.689812908673005"><ele>20.0</ele><time>2026-04-04T08:03:10.999Z</time></trkpt><trkpt lat="40.71065344056944" lon="9.690108981659922"><ele>20.0</ele><time>2026-04-04T08:03:11.999Z</time></trkpt><trkpt lat="40.71057411093525" lon="9.690404606621298"><ele>19.0</ele><time>2026-04-04T08:03:12.999Z</time></trkpt><trkpt lat="40.71048393546004" lon="9.690709496590166"><ele>18.0</ele><time>2026-04-04T08:03:13.999Z</time></trkpt><trkpt lat="40.71038495050145" lon="9.691009835192299"><ele>19.0</ele><time>2026-04-04T08:03:14.999Z</time></trkpt><trkpt lat="40.71027331295761" lon="9.691311914876675"><ele>20.0</ele><time>2026-04-04T08:03:15.999Z</time></trkpt><trkpt lat="40.71014957210057" lon="9.691603516521425"><ele>20.0</ele><time>2026-04-04T08:03:16.999Z</time></trkpt><trkpt lat="40.7100069123114" lon="9.691893324176647"><ele>20.0</ele><time>2026-04-04T08:03:17.999Z</time></trkpt><trkpt lat="40.70985522536033" lon="9.692168488372268"><ele>19.5</ele><time>2026-04-04T08:03:18.999Z</time></trkpt><trkpt lat="40.709699139347485" lon="9.692434719500229"><ele>19.0</ele><time>2026-04-04T08:03:19.999Z</time></trkpt><trkpt lat="40.70954165889726" lon="9.692678909540051"><ele>24.5</ele><time>2026-04-04T08:03:20.999Z</time></trkpt><trkpt lat="40.70937675523627" lon="9.692903864770111"><ele>30.0</ele><time>2026-04-04T08:03:21.999Z</time></trkpt><trkpt lat="40.70920391031957" lon="9.693117217769455"><ele>30.0</ele><time>2026-04-04T08:03:22.999Z</time></trkpt><trkpt lat="40.709033904929846" lon="9.693310727511335"><ele>30.0</ele><time>2026-04-04T08:03:23.999Z</time></trkpt><trkpt lat="40.708857716739026" lon="9.693489216951486"><ele>30.0</ele><time>2026-04-04T08:03:24.999Z</time></trkpt><trkpt lat="40.70866975544462" lon="9.693668301138041"><ele>30.0</ele><time>2026-04-04T08:03:25.999Z</time></trkpt><trkpt lat="40.70848115630468" lon="9.693834982181816"><ele>30.0</ele><time>2026-04-04T08:03:26.999Z</time></trkpt><trkpt lat="40.708285719977276" lon="9.693992798454964"><ele>30.0</ele><time>2026-04-04T08:03:27.999Z</time></trkpt><trkpt lat="40.70807745550372" lon="9.69414218516649"><ele>30.0</ele><time>2026-04-04T08:03:28.999Z</time></trkpt><trkpt lat="40.70786501939655" lon="9.694281528080706"><ele>28.5</ele><time>2026-04-04T08:03:29.999Z</time></trkpt><trkpt lat="40.707637028074565" lon="9.694418188014755"><ele>27.0</ele><time>2026-04-04T08:03:30.999Z</time></trkpt><trkpt lat="40.70740724252841" lon="9.694544757780045"><ele>24.0</ele><time>2026-04-04T08:03:31.999Z</time></trkpt><trkpt lat="40.70716782172799" lon="9.694657665569906"><ele>21.0</ele><time>2026-04-04T08:03:32.999Z</time></trkpt><trkpt lat="40.7069134575767" lon="9.694758170978378"><ele>20.5</ele><time>2026-04-04T08:03:33.999Z</time></trkpt><trkpt lat="40.706647161674226" lon="9.694838958763972"><ele>20.0</ele><time>2026-04-04T08:03:34.999Z</time></trkpt><trkpt lat="40.7063874886063" lon="9.694898274589946"><ele>20.0</ele><time>2026-04-04T08:03:35.999Z</time></trkpt><trkpt lat="40.70614104573241" lon="9.694948574420982"><ele>20.0</ele><time>2026-04-04T08:03:36.999Z</time></trkpt><trkpt lat="40.70589035278969" lon="9.69500395329804"><ele>19.5</ele><time>2026-04-04T08:03:37.999Z</time></trkpt><trkpt lat="40.70563987595186" lon="9.695061178543325"><ele>19.0</ele><time>2026-04-04T08:03:38.999Z</time></trkpt><trkpt lat="40.705395361240015" lon="9.695114303259832"><ele>19.5</ele><time>2026-04-04T08:03:39.999Z</time></trkpt><trkpt lat="40.705152536031804" lon="9.69516896368104"><ele>20.0</ele><time>2026-04-04T08:03:40.999Z</time></trkpt><trkpt lat="40.704910023522686" lon="9.695223555111651"><ele>19.0</ele><time>2026-04-04T08:03:41.999Z</time></trkpt><trkpt lat="40.70467622330203" lon="9.695275921972726"><ele>18.0</ele><time>2026-04-04T08:03:42.999Z</time></trkpt><trkpt lat="40.70444142761119" lon="9.69533291235336"><ele>19.0</ele><time>2026-04-04T08:03:43.999Z</time></trkpt><trkpt lat="40.704213303084735" lon="9.695398171781033"><ele>20.0</ele><time>2026-04-04T08:03:44.999Z</time></trkpt><trkpt lat="40.70398288443479" lon="9.695480038721318"><ele>20.0</ele><time>2026-04-04T08:03:45.999Z</time></trkpt><trkpt lat="40.703753328533146" lon="9.695573747520509"><ele>20.0</ele><time>2026-04-04T08:03:46.999Z</time></trkpt><trkpt lat="40.70352317205915" lon="9.695671195583087"><ele>23.0</ele><time>2026-04-04T08:03:47.999Z</time></trkpt><trkpt lat="40.70328596320071" lon="9.695776570578843"><ele>26.0</ele><time>2026-04-04T08:03:48.999Z</time></trkpt><trkpt lat="40.703048726999135" lon="9.695893785187627"><ele>26.0</ele><time>2026-04-04T08:03:49.999Z</time></trkpt><trkpt lat="40.70281055038152" lon="9.69602610297826"><ele>26.0</ele><time>2026-04-04T08:03:50.999Z</time></trkpt><trkpt lat="40.702576782335164" lon="9.696167443721313"><ele>27.5</ele><time>2026-04-04T08:03:51.999Z</time></trkpt><trkpt lat="40.70235978006718" lon="9.696315711116112"><ele>29.0</ele><time>2026-04-04T08:03:52.999Z</time></trkpt><trkpt lat="40.70215394524454" lon="9.696469725599833"><ele>29.0</ele><time>2026-04-04T08:03:53.999Z</time></trkpt><trkpt lat="40.70195665525928" lon="9.696634630399839"><ele>29.0</ele><time>2026-04-04T08:03:54.999Z</time></trkpt><trkpt lat="40.701755025988675" lon="9.696817992862945"><ele>25.0</ele><time>2026-04-04T08:03:55.999Z</time></trkpt><trkpt lat="40.70156189503314" lon="9.697003496754935"><ele>21.0</ele><time>2026-04-04T08:03:56.999Z</time></trkpt><trkpt lat="40.70137205438386" lon="9.697195759623684"><ele>21.0</ele><time>2026-04-04T08:03:57.999Z</time></trkpt><trkpt lat="40.70118325842617" lon="9.697398285283302"><ele>21.0</ele><time>2026-04-04T08:03:58.999Z</time></trkpt><trkpt lat="40.70100349916411" lon="9.697611690824509"><ele>19.0</ele><time>2026-04-04T08:03:59.999Z</time></trkpt><trkpt lat="40.70082908512655" lon="9.697830844154538"><ele>17.0</ele><time>2026-04-04T08:04:00.999Z</time></trkpt><trkpt lat="40.7006616888912" lon="9.698055309778274"><ele>17.0</ele><time>2026-04-04T08:04:01.999Z</time></trkpt><trkpt lat="40.70049449878493" lon="9.698289696463203"><ele>17.0</ele><time>2026-04-04T08:04:02.999Z</time></trkpt><trkpt lat="40.70033118602794" lon="9.698532251427816"><ele>18.0</ele><time>2026-04-04T08:04:03.999Z</time></trkpt><trkpt lat="40.70017639208303" lon="9.698778452154553"><ele>19.0</ele><time>2026-04-04T08:04:04.999Z</time></trkpt><trkpt lat="40.70002479545674" lon="9.699027815281545"><ele>19.0</ele><time>2026-04-04T08:04:05.999Z</time></trkpt><trkpt lat="40.699882574366626" lon="9.699278178295943"><ele>19.0</ele><time>2026-04-04T08:04:06.999Z</time></trkpt><trkpt lat="40.6997478897311" lon="9.699547288473727"><ele>18.0</ele><time>2026-04-04T08:04:07.999Z</time></trkpt><trkpt lat="40.699633189486065" lon="9.699821921395788"><ele>17.0</ele><time>2026-04-04T08:04:08.999Z</time></trkpt><trkpt lat="40.69951956763965" lon="9.700111269195343"><ele>17.5</ele><time>2026-04-04T08:04:09.999Z</time></trkpt><trkpt lat="40.69940637059548" lon="9.700407014909452"><ele>18.0</ele><time>2026-04-04T08:04:10.999Z</time></trkpt><trkpt lat="40.69929991532257" lon="9.700707896689389"><ele>18.0</ele><time>2026-04-04T08:04:11.999Z</time></trkpt><trkpt lat="40.69920347858711" lon="9.701018249487502"><ele>18.0</ele><time>2026-04-04T08:04:12.999Z</time></trkpt><trkpt lat="40.69911821429696" lon="9.701335639758872"><ele>16.0</ele><time>2026-04-04T08:04:13.999Z</time></trkpt><trkpt lat="40.6990356997617" lon="9.70166074474854"><ele>14.0</ele><time>2026-04-04T08:04:14.999Z</time></trkpt><trkpt lat="40.69896547757694" lon="9.701985678918803"><ele>13.5</ele><time>2026-04-04T08:04:15.999Z</time></trkpt><trkpt lat="40.69890183642834" lon="9.70231520719756"><ele>13.0</ele><time>2026-04-04T08:04:16.999Z</time></trkpt><trkpt lat="40.69884619941876" lon="9.702632992187693"><ele>12.666666666666666</ele><time>2026-04-04T08:04:17.999Z</time></trkpt><trkpt lat="40.69880583189607" lon="9.702916640140526"><ele>12.333333333333332</ele><time>2026-04-04T08:04:18.999Z</time></trkpt><trkpt lat="40.69877335546846" lon="9.703212462212493"><ele>12.0</ele><time>2026-04-04T08:04:19.999Z</time></trkpt><trkpt lat="40.69875193849347" lon="9.703510139015782"><ele>10.5</ele><time>2026-04-04T08:04:20.999Z</time></trkpt><trkpt lat="40.69873338733378" lon="9.703810022488875"><ele>9.0</ele><time>2026-04-04T08:04:21.999Z</time></trkpt><trkpt lat="40.69871855699269" lon="9.704114847634703"><ele>9.0</ele><time>2026-04-04T08:04:22.999Z</time></trkpt><trkpt lat="40.69870870408767" lon="9.704424417592698"><ele>9.0</ele><time>2026-04-04T08:04:23.999Z</time></trkpt><trkpt lat="40.69870339609529" lon="9.704732255494571"><ele>9.0</ele><time>2026-04-04T08:04:24.999Z</time></trkpt><trkpt lat="40.698702315427965" lon="9.70505117010782"><ele>9.0</ele><time>2026-04-04T08:04:25.999Z</time></trkpt><trkpt lat="40.69870163237017" lon="9.705371781788346"><ele>8.5</ele><time>2026-04-04T08:04:26.999Z</time></trkpt><trkpt lat="40.69869997837051" lon="9.705688676696875"><ele>8.0</ele><time>2026-04-04T08:04:27.999Z</time></trkpt><trkpt lat="40.6986911371862" lon="9.706015447916238"><ele>8.0</ele><time>2026-04-04T08:04:28.999Z</time></trkpt><trkpt lat="40.69867718169927" lon="9.706344043113537"><ele>8.0</ele><time>2026-04-04T08:04:29.999Z</time></trkpt><trkpt lat="40.69865370983138" lon="9.706675648724843"><ele>8.0</ele><time>2026-04-04T08:04:30.999Z</time></trkpt><trkpt lat="40.698619161112774" lon="9.707008102092638"><ele>8.0</ele><time>2026-04-04T08:04:31.999Z</time></trkpt><trkpt lat="40.69856988051871" lon="9.707337507023215"><ele>10.0</ele><time>2026-04-04T08:04:32.999Z</time></trkpt><trkpt lat="40.698506639490205" lon="9.70765777950001"><ele>12.0</ele><time>2026-04-04T08:04:33.999Z</time></trkpt><trkpt lat="40.698429438737186" lon="9.707981934840204"><ele>13.5</ele><time>2026-04-04T08:04:34.999Z</time></trkpt><trkpt lat="40.69834062471862" lon="9.708299130558194"><ele>15.0</ele><time>2026-04-04T08:04:35.999Z</time></trkpt><trkpt lat="40.69823924439008" lon="9.708617589468657"><ele>16.0</ele><time>2026-04-04T08:04:36.999Z</time></trkpt><trkpt lat="40.69812561507601" lon="9.708925735961142"><ele>17.0</ele><time>2026-04-04T08:04:37.999Z</time></trkpt><trkpt lat="40.69799975123323" lon="9.709233793950101"><ele>17.5</ele><time>2026-04-04T08:04:38.999Z</time></trkpt><trkpt lat="40.69786280676442" lon="9.709535156147126"><ele>18.0</ele><time>2026-04-04T08:04:39.999Z</time></trkpt><trkpt lat="40.697720727946724" lon="9.70981798618789"><ele>18.0</ele><time>2026-04-04T08:04:40.999Z</time></trkpt><trkpt lat="40.69757699621528" lon="9.710068761970474"><ele>18.0</ele><time>2026-04-04T08:04:41.999Z</time></trkpt><trkpt lat="40.6974254589208" lon="9.710308378184024"><ele>15.5</ele><time>2026-04-04T08:04:42.999Z</time></trkpt><trkpt lat="40.69725894184105" lon="9.710540184365975"><ele>13.0</ele><time>2026-04-04T08:04:43.999Z</time></trkpt><trkpt lat="40.69708569126045" lon="9.710759765046083"><ele>14.5</ele><time>2026-04-04T08:04:44.999Z</time></trkpt><trkpt lat="40.696901253960554" lon="9.710972225194835"><ele>16.0</ele><time>2026-04-04T08:04:45.999Z</time></trkpt><trkpt lat="40.69671167716434" lon="9.711176578924553"><ele>13.0</ele><time>2026-04-04T08:04:46.999Z</time></trkpt><trkpt lat="40.69651168521071" lon="9.711367480507185"><ele>10.0</ele><time>2026-04-04T08:04:47.999Z</time></trkpt><trkpt lat="40.69630556057026" lon="9.711549074290385"><ele>10.0</ele><time>2026-04-04T08:04:48.999Z</time></trkpt><trkpt lat="40.69609587147807" lon="9.711711034199094"><ele>10.0</ele><time>2026-04-04T08:04:49.999Z</time></trkpt><trkpt lat="40.695892221647476" lon="9.71184905979627"><ele>7.0</ele><time>2026-04-04T08:04:50.999Z</time></trkpt><trkpt lat="40.695683889435216" lon="9.711977034892696"><ele>4.0</ele><time>2026-04-04T08:04:51.999Z</time></trkpt><trkpt lat="40.695467694898255" lon="9.71209616618436"><ele>3.5</ele><time>2026-04-04T08:04:52.999Z</time></trkpt><trkpt lat="40.69525033960912" lon="9.71220455104133"><ele>3.0</ele><time>2026-04-04T08:04:53.999Z</time></trkpt><trkpt lat="40.69502453838054" lon="9.712298276261395"><ele>3.0</ele><time>2026-04-04T08:04:54.999Z</time></trkpt><trkpt lat="40.69479142917029" lon="9.71237947291694"><ele>3.0</ele><time>2026-04-04T08:04:55.999Z</time></trkpt><trkpt lat="40.69455297917948" lon="9.712445500152588"><ele>4.0</ele><time>2026-04-04T08:04:56.999Z</time></trkpt><trkpt lat="40.69431494336125" lon="9.712502176151668"><ele>5.0</ele><time>2026-04-04T08:04:57.999Z</time></trkpt><trkpt lat="40.69407334922192" lon="9.712547361206472"><ele>5.0</ele><time>2026-04-04T08:04:58.999Z</time></trkpt><trkpt lat="40.69382073630747" lon="9.71257434162968"><ele>5.0</ele><time>2026-04-04T08:04:59.999Z</time></trkpt><trkpt lat="40.693571776948275" lon="9.712593649134934"><ele>4.5</ele><time>2026-04-04T08:05:00.999Z</time></trkpt><trkpt lat="40.69333753785002" lon="9.712605573894615"><ele>4.0</ele><time>2026-04-04T08:05:01.999Z</time></trkpt><trkpt lat="40.69311238766321" lon="9.712617639427798"><ele>4.0</ele><time>2026-04-04T08:05:02.999Z</time></trkpt><trkpt lat="40.692887142457145" lon="9.712639604975744"><ele>4.0</ele><time>2026-04-04T08:05:03.999Z</time></trkpt><trkpt lat="40.69265674596893" lon="9.712676907986644"><ele>4.0</ele><time>2026-04-04T08:05:04.999Z</time></trkpt><trkpt lat="40.69242294870459" lon="9.712739788380361"><ele>4.0</ele><time>2026-04-04T08:05:05.999Z</time></trkpt><trkpt lat="40.69218748698155" lon="9.712821924784345"><ele>4.0</ele><time>2026-04-04T08:05:06.999Z</time></trkpt><trkpt lat="40.69194646585067" lon="9.712937571207513"><ele>4.0</ele><time>2026-04-04T08:05:07.999Z</time></trkpt><trkpt lat="40.691709588667656" lon="9.713077195839714"><ele>5.0</ele><time>2026-04-04T08:05:08.999Z</time></trkpt><trkpt lat="40.69147571276173" lon="9.71325733066415"><ele>6.0</ele><time>2026-04-04T08:05:09.999Z</time></trkpt><trkpt lat="40.69124971687251" lon="9.713452990176867"><ele>5.5</ele><time>2026-04-04T08:05:10.999Z</time></trkpt><trkpt lat="40.691033109164536" lon="9.713663500367947"><ele>5.0</ele><time>2026-04-04T08:05:11.999Z</time></trkpt><trkpt lat="40.69082998026293" lon="9.713878576314407"><ele>5.0</ele><time>2026-04-04T08:05:12.999Z</time></trkpt><trkpt lat="40.69063574032912" lon="9.71408988022158"><ele>5.0</ele><time>2026-04-04T08:05:13.999Z</time></trkpt><trkpt lat="40.69043350748227" lon="9.714298080851282"><ele>5.0</ele><time>2026-04-04T08:05:14.999Z</time></trkpt><trkpt lat="40.690236618735376" lon="9.71448969478139"><ele>5.0</ele><time>2026-04-04T08:05:15.999Z</time></trkpt><trkpt lat="40.69004750774956" lon="9.714665701342426"><ele>5.0</ele><time>2026-04-04T08:05:16.999Z</time></trkpt><trkpt lat="40.68985680540099" lon="9.714844322674084"><ele>5.0</ele><time>2026-04-04T08:05:17.999Z</time></trkpt><trkpt lat="40.68966101903195" lon="9.715029280447727"><ele>5.0</ele><time>2026-04-04T08:05:18.999Z</time></trkpt><trkpt lat="40.68947228319504" lon="9.71521056466027"><ele>5.0</ele><time>2026-04-04T08:05:19.999Z</time></trkpt><trkpt lat="40.6892795474624" lon="9.715395087134786"><ele>5.0</ele><time>2026-04-04T08:05:20.999Z</time></trkpt><trkpt lat="40.68908825851168" lon="9.71557319404732"><ele>5.0</ele><time>2026-04-04T08:05:21.999Z</time></trkpt><trkpt lat="40.688886029893844" lon="9.715749940667513"><ele>5.0</ele><time>2026-04-04T08:05:22.999Z</time></trkpt><trkpt lat="40.6886794047847" lon="9.715921689228344"><ele>5.0</ele><time>2026-04-04T08:05:23.999Z</time></trkpt><trkpt lat="40.68846585997385" lon="9.716084716733313"><ele>5.0</ele><time>2026-04-04T08:05:24.999Z</time></trkpt><trkpt lat="40.688244475078285" lon="9.716251302431603"><ele>5.0</ele><time>2026-04-04T08:05:25.999Z</time></trkpt><trkpt lat="40.68802071145166" lon="9.716413561885263"><ele>5.0</ele><time>2026-04-04T08:05:26.999Z</time></trkpt><trkpt lat="40.687790633133474" lon="9.716572397244942"><ele>5.0</ele><time>2026-04-04T08:05:27.999Z</time></trkpt><trkpt lat="40.687557586520725" lon="9.716725564455242"><ele>5.5</ele><time>2026-04-04T08:05:28.999Z</time></trkpt><trkpt lat="40.687324416735706" lon="9.716864318676803"><ele>6.0</ele><time>2026-04-04T08:05:29.999Z</time></trkpt><trkpt lat="40.68710565025504" lon="9.71698594358142"><ele>7.0</ele><time>2026-04-04T08:05:30.999Z</time></trkpt><trkpt lat="40.68689427068041" lon="9.717096234536141"><ele>8.0</ele><time>2026-04-04T08:05:31.999Z</time></trkpt><trkpt lat="40.68667600152644" lon="9.71720063720411"><ele>8.0</ele><time>2026-04-04T08:05:32.999Z</time></trkpt><trkpt lat="40.6864534864085" lon="9.717303905836621"><ele>8.0</ele><time>2026-04-04T08:05:33.999Z</time></trkpt><trkpt lat="40.68622500248424" lon="9.717406218659596"><ele>8.5</ele><time>2026-04-04T08:05:34.999Z</time></trkpt><trkpt lat="40.68599188915859" lon="9.717503227376387"><ele>9.0</ele><time>2026-04-04T08:05:35.999Z</time></trkpt><trkpt lat="40.68574911255269" lon="9.717591938989974"><ele>9.0</ele><time>2026-04-04T08:05:37Z</time></trkpt><trkpt lat="40.68550117789011" lon="9.71767073629712"><ele>9.0</ele><time>2026-04-04T08:05:38Z</time></trkpt><trkpt lat="40.68524705817361" lon="9.717743812587331"><ele>9.5</ele><time>2026-04-04T08:05:38.999Z</time></trkpt><trkpt lat="40.68499100384058" lon="9.717811233393824"><ele>10.0</ele><time>2026-04-04T08:05:40Z</time></trkpt><trkpt lat="40.68474505958459" lon="9.717869454843985"><ele>10.0</ele><time>2026-04-04T08:05:41Z</time></trkpt><trkpt lat="40.68451544221802" lon="9.717914996477093"><ele>10.0</ele><time>2026-04-04T08:05:42Z</time></trkpt><trkpt lat="40.6842839965858" lon="9.7179553338223"><ele>10.5</ele><time>2026-04-04T08:05:43Z</time></trkpt><trkpt lat="40.684055730591865" lon="9.717989598091103"><ele>11.0</ele><time>2026-04-04T08:05:44Z</time></trkpt><trkpt lat="40.68382302401835" lon="9.718017593703312"><ele>12.0</ele><time>2026-04-04T08:05:45Z</time></trkpt><trkpt lat="40.68358888321583" lon="9.71803989419996"><ele>13.0</ele><time>2026-04-04T08:05:46Z</time></trkpt><trkpt lat="40.68335495611218" lon="9.718054574797655"><ele>13.0</ele><time>2026-04-04T08:05:47Z</time></trkpt><trkpt lat="40.68311679999242" lon="9.718061105666605"><ele>13.0</ele><time>2026-04-04T08:05:48Z</time></trkpt><trkpt lat="40.682876603174" lon="9.718062315172642"><ele>14.5</ele><time>2026-04-04T08:05:49Z</time></trkpt><trkpt lat="40.682633935759995" lon="9.718054925963326"><ele>16.0</ele><time>2026-04-04T08:05:50Z</time></trkpt><trkpt lat="40.682392413829994" lon="9.718040613458385"><ele>16.0</ele><time>2026-04-04T08:05:51Z</time></trkpt><trkpt lat="40.68214591521211" lon="9.718019537188221"><ele>16.0</ele><time>2026-04-04T08:05:52Z</time></trkpt><trkpt lat="40.681898914239426" lon="9.717994703108317"><ele>18.0</ele><time>2026-04-04T08:05:53Z</time></trkpt><trkpt lat="40.681650592226816" lon="9.717959806711425"><ele>20.0</ele><time>2026-04-04T08:05:54Z</time></trkpt><trkpt lat="40.681408585070024" lon="9.717923622262285"><ele>20.0</ele><time>2026-04-04T08:05:55Z</time></trkpt><trkpt lat="40.681170015047684" lon="9.717881621146615"><ele>20.0</ele><time>2026-04-04T08:05:56Z</time></trkpt><trkpt lat="40.68093162769165" lon="9.71782866170705"><ele>25.5</ele><time>2026-04-04T08:05:57Z</time></trkpt><trkpt lat="40.680693651749806" lon="9.71776573643265"><ele>31.0</ele><time>2026-04-04T08:05:58Z</time></trkpt><trkpt lat="40.680454720385704" lon="9.717696294390562"><ele>42.0</ele><time>2026-04-04T08:05:59Z</time></trkpt><trkpt lat="40.680214387705504" lon="9.717628807112241"><ele>53.0</ele><time>2026-04-04T08:06:00Z</time></trkpt><trkpt lat="40.679977900462966" lon="9.717560518555228"><ele>53.0</ele><time>2026-04-04T08:06:01Z</time></trkpt><trkpt lat="40.679736032564456" lon="9.717491403330254"><ele>53.0</ele><time>2026-04-04T08:06:02Z</time></trkpt><trkpt lat="40.67949881941507" lon="9.717422480013841"><ele>70.5</ele><time>2026-04-04T08:06:03Z</time></trkpt><trkpt lat="40.679251280618736" lon="9.717342796985514"><ele>88.0</ele><time>2026-04-04T08:06:04.069Z</time></trkpt><trkpt lat="40.67902513746375" lon="9.717266692503436"><ele>88.0</ele><time>2026-04-04T08:06:05.066Z</time></trkpt><trkpt lat="40.678795034255366" lon="9.71720071009763"><ele>88.0</ele><time>2026-04-04T08:06:06.068Z</time></trkpt><trkpt lat="40.67861932145734" lon="9.717129883950218"><ele>88.0</ele><time>2026-04-04T08:06:07.067Z</time></trkpt><trkpt lat="40.66834860780058" lon="9.712651212752625"><ele>67.33333333333333</ele><time>2026-04-04T08:06:50Z</time></trkpt><trkpt lat="40.668399834419894" lon="9.712566843166668"><ele>46.666666666666664</ele><time>2026-04-04T08:06:51Z</time></trkpt><trkpt lat="40.66814906145497" lon="9.712580772359432"><ele>26.0</ele><time>2026-04-04T08:06:52Z</time></trkpt><trkpt lat="40.66791019922488" lon="9.712614366585738"><ele>24.5</ele><time>2026-04-04T08:06:53Z</time></trkpt><trkpt lat="40.667673539151764" lon="9.712656716575106"><ele>23.0</ele><time>2026-04-04T08:06:54Z</time></trkpt><trkpt lat="40.667443764761586" lon="9.71270139636114"><ele>24.0</ele><time>2026-04-04T08:06:55Z</time></trkpt><trkpt lat="40.667206715801626" lon="9.712748964931807"><ele>25.0</ele><time>2026-04-04T08:06:56Z</time></trkpt><trkpt lat="40.66696288567484" lon="9.71280573659732"><ele>22.5</ele><time>2026-04-04T08:06:57Z</time></trkpt><trkpt lat="40.66671630883638" lon="9.71287494635565"><ele>20.0</ele><time>2026-04-04T08:06:58Z</time></trkpt><trkpt lat="40.66646230839773" lon="9.712961009010469"><ele>20.0</ele><time>2026-04-04T08:06:59Z</time></trkpt><trkpt lat="40.66620477094075" lon="9.713058923741885"><ele>20.0</ele><time>2026-04-04T08:07:00Z</time></trkpt><trkpt lat="40.665943994685016" lon="9.71317227842183"><ele>20.5</ele><time>2026-04-04T08:07:01Z</time></trkpt><trkpt lat="40.665681567811006" lon="9.713299406001854"><ele>21.0</ele><time>2026-04-04T08:07:02Z</time></trkpt><trkpt lat="40.66544213557255" lon="9.713431698025847"><ele>20.0</ele><time>2026-04-04T08:07:03Z</time></trkpt><trkpt lat="40.66521737463011" lon="9.713561114308137"><ele>19.0</ele><time>2026-04-04T08:07:04Z</time></trkpt><trkpt lat="40.6650035145107" lon="9.713689931655377"><ele>19.0</ele><time>2026-04-04T08:07:05Z</time></trkpt><trkpt lat="40.66481037173746" lon="9.713821789345221"><ele>19.0</ele><time>2026-04-04T08:07:06Z</time></trkpt><trkpt lat="40.66461562281355" lon="9.713962698107219"><ele>19.0</ele><time>2026-04-04T08:07:07Z</time></trkpt><trkpt lat="40.6644194073829" lon="9.71411516966528"><ele>18.5</ele><time>2026-04-04T08:07:08Z</time></trkpt><trkpt lat="40.664226766465724" lon="9.71427147430686"><ele>18.0</ele><time>2026-04-04T08:07:09Z</time></trkpt><trkpt lat="40.66403124784038" lon="9.714443142856396"><ele>19.5</ele><time>2026-04-04T08:07:10Z</time></trkpt><trkpt lat="40.663837157288135" lon="9.714621335549447"><ele>21.0</ele><time>2026-04-04T08:07:11Z</time></trkpt><trkpt lat="40.663645306965755" lon="9.71480597777177"><ele>19.5</ele><time>2026-04-04T08:07:12Z</time></trkpt><trkpt lat="40.66345187220783" lon="9.715000462810734"><ele>18.0</ele><time>2026-04-04T08:07:13Z</time></trkpt><trkpt lat="40.663262336139" lon="9.71519841950888"><ele>18.0</ele><time>2026-04-04T08:07:14Z</time></trkpt><trkpt lat="40.66307562054774" lon="9.715411033781633"><ele>18.0</ele><time>2026-04-04T08:07:15Z</time></trkpt><trkpt lat="40.6628935667659" lon="9.715631518010412"><ele>17.0</ele><time>2026-04-04T08:07:16Z</time></trkpt><trkpt lat="40.66271285327131" lon="9.71586484674523"><ele>16.0</ele><time>2026-04-04T08:07:17Z</time></trkpt><trkpt lat="40.6625374149827" lon="9.716094562238728"><ele>15.0</ele><time>2026-04-04T08:07:18Z</time></trkpt><trkpt lat="40.662373646592606" lon="9.716316734210698"><ele>14.0</ele><time>2026-04-04T08:07:19Z</time></trkpt><trkpt lat="40.66221620779184" lon="9.716531130290756"><ele>14.0</ele><time>2026-04-04T08:07:20Z</time></trkpt><trkpt lat="40.662059630845945" lon="9.71674578262615"><ele>14.0</ele><time>2026-04-04T08:07:21Z</time></trkpt><trkpt lat="40.661896780809315" lon="9.716968536450956"><ele>13.0</ele><time>2026-04-04T08:07:22Z</time></trkpt><trkpt lat="40.661730744868215" lon="9.717193990661288"><ele>12.0</ele><time>2026-04-04T08:07:23Z</time></trkpt><trkpt lat="40.66156437567322" lon="9.7174189187015"><ele>12.0</ele><time>2026-04-04T08:07:24Z</time></trkpt><trkpt lat="40.66139363860531" lon="9.717653567611979"><ele>12.0</ele><time>2026-04-04T08:07:25Z</time></trkpt><trkpt lat="40.661231155026464" lon="9.71788031418174"><ele>11.0</ele><time>2026-04-04T08:07:26Z</time></trkpt><trkpt lat="40.66106505507412" lon="9.718115422231534"><ele>10.0</ele><time>2026-04-04T08:07:27Z</time></trkpt><trkpt lat="40.66089908131506" lon="9.718348090634185"><ele>9.0</ele><time>2026-04-04T08:07:28Z</time></trkpt><trkpt lat="40.66073301386671" lon="9.718577566956935"><ele>8.0</ele><time>2026-04-04T08:07:29Z</time></trkpt><trkpt lat="40.660567785284286" lon="9.718801627071365"><ele>8.0</ele><time>2026-04-04T08:07:30Z</time></trkpt><trkpt lat="40.66039942879162" lon="9.719028821608317"><ele>8.0</ele><time>2026-04-04T08:07:31Z</time></trkpt><trkpt lat="40.660230462244876" lon="9.719256368391193"><ele>8.5</ele><time>2026-04-04T08:07:32Z</time></trkpt><trkpt lat="40.66006241747997" lon="9.719482343830588"><ele>9.0</ele><time>2026-04-04T08:07:33Z</time></trkpt><trkpt lat="40.659897383014005" lon="9.719708832936334"><ele>9.0</ele><time>2026-04-04T08:07:34Z</time></trkpt><trkpt lat="40.659729039591745" lon="9.719934509756424"><ele>9.0</ele><time>2026-04-04T08:07:35Z</time></trkpt><trkpt lat="40.659556961702584" lon="9.720157076289487"><ele>8.5</ele><time>2026-04-04T08:07:36Z</time></trkpt><trkpt lat="40.659380823093976" lon="9.720376407997271"><ele>8.0</ele><time>2026-04-04T08:07:37Z</time></trkpt><trkpt lat="40.65919645180701" lon="9.720584305983266"><ele>8.0</ele><time>2026-04-04T08:07:38Z</time></trkpt><trkpt lat="40.659001750859254" lon="9.720780939049797"><ele>8.0</ele><time>2026-04-04T08:07:39Z</time></trkpt><trkpt lat="40.65880287182012" lon="9.720974918449839"><ele>7.0</ele><time>2026-04-04T08:07:40Z</time></trkpt><trkpt lat="40.65859535283366" lon="9.721159446660785"><ele>6.0</ele><time>2026-04-04T08:07:41Z</time></trkpt><trkpt lat="40.65838058517298" lon="9.721335195195014"><ele>6.0</ele><time>2026-04-04T08:07:42Z</time></trkpt><trkpt lat="40.658167797367916" lon="9.72149660473855"><ele>6.0</ele><time>2026-04-04T08:07:43Z</time></trkpt><trkpt lat="40.65794866083458" lon="9.721649069302405"><ele>6.0</ele><time>2026-04-04T08:07:44Z</time></trkpt><trkpt lat="40.65772497172172" lon="9.721789685018237"><ele>6.0</ele><time>2026-04-04T08:07:45Z</time></trkpt><trkpt lat="40.65750181190876" lon="9.721917426310615"><ele>5.0</ele><time>2026-04-04T08:07:46Z</time></trkpt><trkpt lat="40.65728968971241" lon="9.722022490741086"><ele>4.0</ele><time>2026-04-04T08:07:47Z</time></trkpt><trkpt lat="40.657075636616035" lon="9.722120455481802"><ele>5.0</ele><time>2026-04-04T08:07:48Z</time></trkpt><trkpt lat="40.656859815802775" lon="9.722207326538818"><ele>6.0</ele><time>2026-04-04T08:07:49Z</time></trkpt><trkpt lat="40.656640926686194" lon="9.722283199616987"><ele>6.0</ele><time>2026-04-04T08:07:50Z</time></trkpt><trkpt lat="40.656419954319155" lon="9.722351085056285"><ele>6.0</ele><time>2026-04-04T08:07:51Z</time></trkpt><trkpt lat="40.65619790659997" lon="9.722405643320243"><ele>7.0</ele><time>2026-04-04T08:07:52Z</time></trkpt><trkpt lat="40.6559704105678" lon="9.72244667513397"><ele>8.0</ele><time>2026-04-04T08:07:53Z</time></trkpt><trkpt lat="40.65575387024174" lon="9.722479669058155"><ele>9.0</ele><time>2026-04-04T08:07:54Z</time></trkpt><trkpt lat="40.65556723561752" lon="9.722501129695253"><ele>9.0</ele><time>2026-04-04T08:07:55Z</time></trkpt><trkpt lat="40.65538679956234" lon="9.722514641199457"><ele>9.0</ele><time>2026-04-04T08:07:56Z</time></trkpt><trkpt lat="40.65521378484811" lon="9.722521212331781"><ele>9.0</ele><time>2026-04-04T08:07:57Z</time></trkpt><trkpt lat="40.65490164247546" lon="9.722528269790466"><ele>8.25</ele><time>2026-04-04T08:07:59Z</time></trkpt><trkpt lat="40.65477222959791" lon="9.722521318260966"><ele>7.5</ele><time>2026-04-04T08:08:00Z</time></trkpt><trkpt lat="40.654660334136786" lon="9.722485943891037"><ele>6.75</ele><time>2026-04-04T08:08:01Z</time></trkpt><trkpt lat="40.65457422363321" lon="9.722411527285125"><ele>6.0</ele><time>2026-04-04T08:08:02Z</time></trkpt><trkpt lat="40.654495037072955" lon="9.722318519496516"><ele>5.75</ele><time>2026-04-04T08:08:03Z</time></trkpt><trkpt lat="40.65441927398861" lon="9.722192804032606"><ele>5.5</ele><time>2026-04-04T08:08:04Z</time></trkpt><trkpt lat="40.65436532129038" lon="9.722048644054214"><ele>5.25</ele><time>2026-04-04T08:08:05Z</time></trkpt><trkpt lat="40.65433601827159" lon="9.721877846831141"><ele>5.0</ele><time>2026-04-04T08:08:06Z</time></trkpt><trkpt lat="40.654315489471344" lon="9.721703291067964"><ele>5.0</ele><time>2026-04-04T08:08:07Z</time></trkpt><trkpt lat="40.654275645827255" lon="9.721544017902122"><ele>5.0</ele><time>2026-04-04T08:08:08Z</time></trkpt><trkpt lat="40.65420383375168" lon="9.721406304501011"><ele>5.0</ele><time>2026-04-04T08:08:09Z</time></trkpt><trkpt lat="40.654104415013386" lon="9.721291132469789"><ele>5.0</ele><time>2026-04-04T08:08:10Z</time></trkpt><trkpt lat="40.6539857460277" lon="9.721189781393896"><ele>5.0</ele><time>2026-04-04T08:08:11Z</time></trkpt><trkpt lat="40.65385185494094" lon="9.721092739981668"><ele>5.0</ele><time>2026-04-04T08:08:12Z</time></trkpt><trkpt lat="40.653725438150616" lon="9.7210138944125"><ele>5.0</ele><time>2026-04-04T08:08:13Z</time></trkpt><trkpt lat="40.65361214656627" lon="9.720956696602162"><ele>5.0</ele><time>2026-04-04T08:08:14Z</time></trkpt><trkpt lat="40.65349108074776" lon="9.72091073173542"><ele>4.75</ele><time>2026-04-04T08:08:15Z</time></trkpt><trkpt lat="40.65335664516589" lon="9.720892641060972"><ele>4.5</ele><time>2026-04-04T08:08:16Z</time></trkpt><trkpt lat="40.65322649709778" lon="9.720915177429394"><ele>4.25</ele><time>2026-04-04T08:08:17Z</time></trkpt><trkpt lat="40.65310299178144" lon="9.720976553347603"><ele>4.0</ele><time>2026-04-04T08:08:18Z</time></trkpt><trkpt lat="40.652993245034054" lon="9.721075270781514"><ele>3.75</ele><time>2026-04-04T08:08:19Z</time></trkpt><trkpt lat="40.65289935231935" lon="9.721210307916365"><ele>3.5</ele><time>2026-04-04T08:08:20Z</time></trkpt><trkpt lat="40.65282276481754" lon="9.721374995559147"><ele>3.25</ele><time>2026-04-04T08:08:21Z</time></trkpt><trkpt lat="40.65275918470474" lon="9.721558580095433"><ele>3.0</ele><time>2026-04-04T08:08:22Z</time></trkpt><trkpt lat="40.652710355258556" lon="9.72173132499546"><ele>4.0</ele><time>2026-04-04T08:08:23Z</time></trkpt><trkpt lat="40.65266219912145" lon="9.721895602536025"><ele>5.0</ele><time>2026-04-04T08:08:24Z</time></trkpt><trkpt lat="40.65261303122165" lon="9.722051166084844"><ele>6.0</ele><time>2026-04-04T08:08:25Z</time></trkpt><trkpt lat="40.652561625490605" lon="9.722216892182024"><ele>7.0</ele><time>2026-04-04T08:08:26Z</time></trkpt><trkpt lat="40.652510536700696" lon="9.72238849441594"><ele>7.0</ele><time>2026-04-04T08:08:27Z</time></trkpt><trkpt lat="40.65245655666204" lon="9.722571945024749"><ele>7.0</ele><time>2026-04-04T08:08:28Z</time></trkpt><trkpt lat="40.652400270781534" lon="9.722759006579338"><ele>7.0</ele><time>2026-04-04T08:08:29Z</time></trkpt><trkpt lat="40.65234651681364" lon="9.72294207901455"><ele>6.25</ele><time>2026-04-04T08:08:30Z</time></trkpt><trkpt lat="40.652298796899146" lon="9.723112429614156"><ele>5.5</ele><time>2026-04-04T08:08:31Z</time></trkpt><trkpt lat="40.65225788298209" lon="9.723255841396847"><ele>4.75</ele><time>2026-04-04T08:08:32Z</time></trkpt><trkpt lat="40.65221902316034" lon="9.723393263593751"><ele>4.0</ele><time>2026-04-04T08:08:33Z</time></trkpt><trkpt lat="40.65218563637532" lon="9.723537003795863"><ele>3.25</ele><time>2026-04-04T08:08:34Z</time></trkpt><trkpt lat="40.65216085976552" lon="9.723699003786928"><ele>2.5</ele><time>2026-04-04T08:08:35Z</time></trkpt><trkpt lat="40.6521505972471" lon="9.72384843784597"><ele>1.75</ele><time>2026-04-04T08:08:36Z</time></trkpt><trkpt lat="40.65213479406218" lon="9.723995157775168"><ele>1.0</ele><time>2026-04-04T08:08:37Z</time></trkpt><trkpt lat="40.652100744026995" lon="9.72412426128778"><ele>1.0</ele><time>2026-04-04T08:08:38Z</time></trkpt><trkpt lat="40.652045011525345" lon="9.724224255636067"><ele>1.0</ele><time>2026-04-04T08:08:39Z</time></trkpt><trkpt lat="40.65197352333424" lon="9.724296957250868"><ele>1.0</ele><time>2026-04-04T08:08:40Z</time></trkpt><trkpt lat="40.65188675028804" lon="9.724349067971401"><ele>1.0</ele><time>2026-04-04T08:08:41Z</time></trkpt><trkpt lat="40.65179965002145" lon="9.72434180888715"><ele>1.0</ele><time>2026-04-04T08:08:42Z</time></trkpt><trkpt lat="40.65170314922258" lon="9.724304834906594"><ele>1.25</ele><time>2026-04-04T08:08:43Z</time></trkpt><trkpt lat="40.6515891007876" lon="9.724251963175611"><ele>1.5</ele><time>2026-04-04T08:08:44Z</time></trkpt><trkpt lat="40.651451040832114" lon="9.72420080226854"><ele>1.75</ele><time>2026-04-04T08:08:45Z</time></trkpt><trkpt lat="40.651295418959556" lon="9.72414043243717"><ele>2.0</ele><time>2026-04-04T08:08:46Z</time></trkpt><trkpt lat="40.651162699203375" lon="9.724075394959785"><ele>2.25</ele><time>2026-04-04T08:08:47Z</time></trkpt><trkpt lat="40.65104033315982" lon="9.723994947322602"><ele>2.5</ele><time>2026-04-04T08:08:48Z</time></trkpt><trkpt lat="40.65092133567369" lon="9.723888238384694"><ele>2.75</ele><time>2026-04-04T08:08:49Z</time></trkpt><trkpt lat="40.650810964302195" lon="9.723745100608062"><ele>3.0</ele><time>2026-04-04T08:08:50Z</time></trkpt><trkpt lat="40.65072697283631" lon="9.723570736486995"><ele>3.666666666666667</ele><time>2026-04-04T08:08:51Z</time></trkpt><trkpt lat="40.65063847282572" lon="9.723379242997858"><ele>4.333333333333334</ele><time>2026-04-04T08:08:52Z</time></trkpt><trkpt lat="40.65054494904642" lon="9.723176223169524"><ele>5.0</ele><time>2026-04-04T08:08:53Z</time></trkpt><trkpt lat="40.65045426164091" lon="9.722981672980296"><ele>5.0</ele><time>2026-04-04T08:08:54Z</time></trkpt><trkpt lat="40.650371091408466" lon="9.722806256044892"><ele>5.0</ele><time>2026-04-04T08:08:55Z</time></trkpt><trkpt lat="40.650288947376474" lon="9.722628361362442"><ele>5.0</ele><time>2026-04-04T08:08:56Z</time></trkpt><trkpt lat="40.650202431095636" lon="9.722439940169883"><ele>5.0</ele><time>2026-04-04T08:08:57Z</time></trkpt><trkpt lat="40.650113684357194" lon="9.722248472045528"><ele>5.0</ele><time>2026-04-04T08:08:58Z</time></trkpt><trkpt lat="40.6500211341308" lon="9.72205023135465"><ele>5.0</ele><time>2026-04-04T08:08:59Z</time></trkpt><trkpt lat="40.64992805172326" lon="9.7218472359607"><ele>5.333333333333334</ele><time>2026-04-04T08:09:00Z</time></trkpt><trkpt lat="40.649834118962445" lon="9.721643944625482"><ele>5.666666666666667</ele><time>2026-04-04T08:09:01Z</time></trkpt><trkpt lat="40.6497441843904" lon="9.721449040599376"><ele>6.0</ele><time>2026-04-04T08:09:02Z</time></trkpt><trkpt lat="40.64965443716125" lon="9.721254542573481"><ele>6.0</ele><time>2026-04-04T08:09:03Z</time></trkpt><trkpt lat="40.64956745848484" lon="9.721066044489264"><ele>6.0</ele><time>2026-04-04T08:09:04Z</time></trkpt><trkpt lat="40.64947579619493" lon="9.72086739618927"><ele>6.0</ele><time>2026-04-04T08:09:05Z</time></trkpt><trkpt lat="40.64938713016923" lon="9.720675241324123"><ele>6.0</ele><time>2026-04-04T08:09:06Z</time></trkpt><trkpt lat="40.64929636252985" lon="9.720479252617698"><ele>6.0</ele><time>2026-04-04T08:09:07Z</time></trkpt><trkpt lat="40.6492013011879" lon="9.720274365289058"><ele>6.0</ele><time>2026-04-04T08:09:08Z</time></trkpt><trkpt lat="40.649104670897415" lon="9.720066096382348"><ele>6.0</ele><time>2026-04-04T08:09:09Z</time></trkpt><trkpt lat="40.649002480725954" lon="9.719843033595463"><ele>6.0</ele><time>2026-04-04T08:09:10Z</time></trkpt><trkpt lat="40.648898470116" lon="9.71961389666152"><ele>6.0</ele><time>2026-04-04T08:09:11Z</time></trkpt><trkpt lat="40.64879241939874" lon="9.719381134375192"><ele>6.0</ele><time>2026-04-04T08:09:12Z</time></trkpt><trkpt lat="40.64868645721311" lon="9.719141885241614"><ele>6.0</ele><time>2026-04-04T08:09:13Z</time></trkpt><trkpt lat="40.64858005145646" lon="9.718896937760237"><ele>6.0</ele><time>2026-04-04T08:09:14Z</time></trkpt><trkpt lat="40.64847884314679" lon="9.718662957915557"><ele>6.0</ele><time>2026-04-04T08:09:15Z</time></trkpt><trkpt lat="40.648376601532" lon="9.718425683900938"><ele>6.0</ele><time>2026-04-04T08:09:16Z</time></trkpt><trkpt lat="40.648274235037015" lon="9.71818462595564"><ele>6.0</ele><time>2026-04-04T08:09:17Z</time></trkpt><trkpt lat="40.64817147230273" lon="9.717942634925947"><ele>6.666666666666666</ele><time>2026-04-04T08:09:18Z</time></trkpt><trkpt lat="40.648068383112495" lon="9.71769930557574"><ele>7.333333333333333</ele><time>2026-04-04T08:09:19Z</time></trkpt><trkpt lat="40.647965196756026" lon="9.717455500410006"><ele>8.0</ele><time>2026-04-04T08:09:20Z</time></trkpt><trkpt lat="40.64785988910258" lon="9.71720847929643"><ele>6.333333333333333</ele><time>2026-04-04T08:09:21Z</time></trkpt><trkpt lat="40.647751874219395" lon="9.71695807489306"><ele>4.666666666666666</ele><time>2026-04-04T08:09:22Z</time></trkpt><trkpt lat="40.64764661363873" lon="9.716709727065934"><ele>3.0</ele><time>2026-04-04T08:09:23Z</time></trkpt><trkpt lat="40.64754312117124" lon="9.716465179647328"><ele>3.0</ele><time>2026-04-04T08:09:24Z</time></trkpt><trkpt lat="40.64743921515355" lon="9.716222065369168"><ele>3.0</ele><time>2026-04-04T08:09:25Z</time></trkpt><trkpt lat="40.64733352182646" lon="9.715978734088667"><ele>3.0</ele><time>2026-04-04T08:09:26Z</time></trkpt><trkpt lat="40.64723073385719" lon="9.715738086766857"><ele>3.0</ele><time>2026-04-04T08:09:27Z</time></trkpt><trkpt lat="40.64712787081449" lon="9.715496556575662"><ele>3.0</ele><time>2026-04-04T08:09:28Z</time></trkpt><trkpt lat="40.64702510814656" lon="9.715255262072253"><ele>3.0</ele><time>2026-04-04T08:09:29Z</time></trkpt><trkpt lat="40.646923125521674" lon="9.715015799171447"><ele>3.0</ele><time>2026-04-04T08:09:30Z</time></trkpt><trkpt lat="40.646822413581056" lon="9.714779319932974"><ele>3.0</ele><time>2026-04-04T08:09:31Z</time></trkpt><trkpt lat="40.6467204489977" lon="9.71454280125428"><ele>3.0</ele><time>2026-04-04T08:09:32Z</time></trkpt><trkpt lat="40.646619045058124" lon="9.714308673239975"><ele>4.0</ele><time>2026-04-04T08:09:33Z</time></trkpt><trkpt lat="40.64651828962665" lon="9.71407596567951"><ele>5.0</ele><time>2026-04-04T08:09:34Z</time></trkpt><trkpt lat="40.64640938262741" lon="9.713845408653395"><ele>6.0</ele><time>2026-04-04T08:09:35Z</time></trkpt><trkpt lat="40.646291911628005" lon="9.713626302869223"><ele>5.333333333333333</ele><time>2026-04-04T08:09:36Z</time></trkpt><trkpt lat="40.64615201723495" lon="9.71341953421586"><ele>4.666666666666666</ele><time>2026-04-04T08:09:37Z</time></trkpt><trkpt lat="40.646009380671586" lon="9.713222279580728"><ele>4.0</ele><time>2026-04-04T08:09:38Z</time></trkpt><trkpt lat="40.64586569643601" lon="9.713026199981837"><ele>4.0</ele><time>2026-04-04T08:09:39Z</time></trkpt><trkpt lat="40.64572186880073" lon="9.71283028319473"><ele>4.0</ele><time>2026-04-04T08:09:40Z</time></trkpt><trkpt lat="40.64557937787651" lon="9.712636137958915"><ele>4.0</ele><time>2026-04-04T08:09:41Z</time></trkpt><trkpt lat="40.645434362752084" lon="9.712438553489081"><ele>4.333333333333333</ele><time>2026-04-04T08:09:42Z</time></trkpt><trkpt lat="40.6452922589349" lon="9.712244935699953"><ele>4.666666666666667</ele><time>2026-04-04T08:09:43Z</time></trkpt><trkpt lat="40.64516192507014" lon="9.712065036005937"><ele>5.0</ele><time>2026-04-04T08:09:44Z</time></trkpt><trkpt lat="40.645038667391695" lon="9.711892857964346"><ele>5.333333333333334</ele><time>2026-04-04T08:09:45Z</time></trkpt><trkpt lat="40.644920296026534" lon="9.711731862505774"><ele>5.666666666666667</ele><time>2026-04-04T08:09:46Z</time></trkpt><trkpt lat="40.64480578320585" lon="9.711586539582774"><ele>6.0</ele><time>2026-04-04T08:09:47Z</time></trkpt><trkpt lat="40.644684974893096" lon="9.711470794048726"><ele>6.0</ele><time>2026-04-04T08:09:48Z</time></trkpt><trkpt lat="40.64455020365233" lon="9.711387976014338"><ele>6.0</ele><time>2026-04-04T08:09:49Z</time></trkpt><trkpt lat="40.64439076984409" lon="9.711349996748607"><ele>6.0</ele><time>2026-04-04T08:09:50Z</time></trkpt><trkpt lat="40.6442125745819" lon="9.711360485035136"><ele>5.0</ele><time>2026-04-04T08:09:51Z</time></trkpt><trkpt lat="40.644031956524266" lon="9.71141878948636"><ele>4.0</ele><time>2026-04-04T08:09:52Z</time></trkpt><trkpt lat="40.643837478684446" lon="9.71145837126163"><ele>3.0</ele><time>2026-04-04T08:09:53Z</time></trkpt><trkpt lat="40.643635639916354" lon="9.711522226973102"><ele>2.6666666666666665</ele><time>2026-04-04T08:09:54Z</time></trkpt><trkpt lat="40.64343797501063" lon="9.711584979979296"><ele>2.333333333333333</ele><time>2026-04-04T08:09:55Z</time></trkpt><trkpt lat="40.64324332219923" lon="9.711646565694753"><ele>2.0</ele><time>2026-04-04T08:09:56Z</time></trkpt><trkpt lat="40.643065165624655" lon="9.711703140591043"><ele>2.0</ele><time>2026-04-04T08:09:57Z</time></trkpt><trkpt lat="40.64287388429337" lon="9.711763897027488"><ele>2.0</ele><time>2026-04-04T08:09:58Z</time></trkpt><trkpt lat="40.64267427640091" lon="9.711826156831204"><ele>2.0</ele><time>2026-04-04T08:09:59Z</time></trkpt><trkpt lat="40.642467190377495" lon="9.7118907491374"><ele>1.6666666666666665</ele><time>2026-04-04T08:10:00Z</time></trkpt><trkpt lat="40.64225429588162" lon="9.711957525978718"><ele>1.3333333333333333</ele><time>2026-04-04T08:10:01Z</time></trkpt><trkpt lat="40.64203539082703" lon="9.712025769909655"><ele>1.0</ele><time>2026-04-04T08:10:02Z</time></trkpt><trkpt lat="40.64181939966649" lon="9.712093105423827"><ele>1.0</ele><time>2026-04-04T08:10:03Z</time></trkpt><trkpt lat="40.64161547423742" lon="9.712156679444659"><ele>1.0</ele><time>2026-04-04T08:10:04Z</time></trkpt><trkpt lat="40.64141410211669" lon="9.712220754361299"><ele>1.0</ele><time>2026-04-04T08:10:05Z</time></trkpt><trkpt lat="40.64121086912797" lon="9.712287099041301"><ele>2.0</ele><time>2026-04-04T08:10:06Z</time></trkpt><trkpt lat="40.64100309788029" lon="9.71235289689155"><ele>3.0</ele><time>2026-04-04T08:10:07Z</time></trkpt><trkpt lat="40.64078635887126" lon="9.712421400092298"><ele>4.0</ele><time>2026-04-04T08:10:08Z</time></trkpt><trkpt lat="40.64057385319272" lon="9.712488945421983"><ele>4.0</ele><time>2026-04-04T08:10:09Z</time></trkpt><trkpt lat="40.64036053535803" lon="9.712558074480965"><ele>4.0</ele><time>2026-04-04T08:10:10Z</time></trkpt><trkpt lat="40.64014534552063" lon="9.712627810171723"><ele>4.0</ele><time>2026-04-04T08:10:11Z</time></trkpt><trkpt lat="40.63993039412782" lon="9.712697468601846"><ele>2.6666666666666665</ele><time>2026-04-04T08:10:12Z</time></trkpt><trkpt lat="40.639712530047184" lon="9.712765206170836"><ele>1.3333333333333333</ele><time>2026-04-04T08:10:13Z</time></trkpt><trkpt lat="40.639496661141756" lon="9.712830708412072"><ele>0.0</ele><time>2026-04-04T08:10:14Z</time></trkpt><trkpt lat="40.63928123118165" lon="9.712898306976347"><ele>0.0</ele><time>2026-04-04T08:10:15Z</time></trkpt><trkpt lat="40.63906608013904" lon="9.712965818038466"><ele>0.0</ele><time>2026-04-04T08:10:16Z</time></trkpt><trkpt lat="40.63885199806873" lon="9.713032296957842"><ele>0.0</ele><time>2026-04-04T08:10:17Z</time></trkpt><trkpt lat="40.638637428715995" lon="9.7130993077104"><ele>0.3333333333333333</ele><time>2026-04-04T08:10:18Z</time></trkpt><trkpt lat="40.63842677520029" lon="9.713164840674585"><ele>0.6666666666666666</ele><time>2026-04-04T08:10:19Z</time></trkpt><trkpt lat="40.6382151832721" lon="9.713230665606329"><ele>1.0</ele><time>2026-04-04T08:10:20Z</time></trkpt><trkpt lat="40.63800391958824" lon="9.713296388413019"><ele>1.3333333333333333</ele><time>2026-04-04T08:10:21Z</time></trkpt><trkpt lat="40.637793593211576" lon="9.713361819630029"><ele>1.6666666666666665</ele><time>2026-04-04T08:10:22Z</time></trkpt><trkpt lat="40.63758384302984" lon="9.713426851893585"><ele>2.0</ele><time>2026-04-04T08:10:23Z</time></trkpt><trkpt lat="40.637373318253886" lon="9.71349333644959"><ele>2.0</ele><time>2026-04-04T08:10:24Z</time></trkpt><trkpt lat="40.6371642907167" lon="9.71355917398145"><ele>2.0</ele><time>2026-04-04T08:10:25Z</time></trkpt><trkpt lat="40.63695958675976" lon="9.713623425637643"><ele>2.0</ele><time>2026-04-04T08:10:26Z</time></trkpt><trkpt lat="40.63675355236839" lon="9.713688094874973"><ele>2.0</ele><time>2026-04-04T08:10:27Z</time></trkpt><trkpt lat="40.63654461694311" lon="9.713753674686236"><ele>2.0</ele><time>2026-04-04T08:10:28Z</time></trkpt><trkpt lat="40.636341652992826" lon="9.713817391001145"><ele>2.0</ele><time>2026-04-04T08:10:29Z</time></trkpt><trkpt lat="40.63613608589035" lon="9.71388198411419"><ele>2.0</ele><time>2026-04-04T08:10:30Z</time></trkpt><trkpt lat="40.635930035644" lon="9.71394672904774"><ele>2.0</ele><time>2026-04-04T08:10:31Z</time></trkpt><trkpt lat="40.63573027409734" lon="9.71403122685044"><ele>2.0</ele><time>2026-04-04T08:10:32Z</time></trkpt><trkpt lat="40.63551830251634" lon="9.714076103492099"><ele>2.0</ele><time>2026-04-04T08:10:33Z</time></trkpt><trkpt lat="40.635313460623856" lon="9.714140468712337"><ele>2.0</ele><time>2026-04-04T08:10:34Z</time></trkpt><trkpt lat="40.63512215962394" lon="9.714200579140648"><ele>2.0</ele><time>2026-04-04T08:10:35Z</time></trkpt><trkpt lat="40.634941198851735" lon="9.714257440522932"><ele>2.6666666666666665</ele><time>2026-04-04T08:10:36Z</time></trkpt><trkpt lat="40.634769883193265" lon="9.714311500317041"><ele>3.333333333333333</ele><time>2026-04-04T08:10:37Z</time></trkpt><trkpt lat="40.63461413353412" lon="9.71438274075939"><ele>4.0</ele><time>2026-04-04T08:10:38Z</time></trkpt><trkpt lat="40.63446446465566" lon="9.714429880267767"><ele>5.5</ele><time>2026-04-04T08:10:39Z</time></trkpt><trkpt lat="40.63431404916872" lon="9.714476375699821"><ele>7.0</ele><time>2026-04-04T08:10:40Z</time></trkpt><trkpt lat="40.6341641769206" lon="9.714522867025972"><ele>8.5</ele><time>2026-04-04T08:10:41Z</time></trkpt><trkpt lat="40.6340271296774" lon="9.714566337462639"><ele>10.0</ele><time>2026-04-04T08:10:42Z</time></trkpt><trkpt lat="40.63390695091843" lon="9.71460286964326"><ele>10.0</ele><time>2026-04-04T08:10:43Z</time></trkpt><trkpt lat="40.63379368169021" lon="9.714636090747616"><ele>10.0</ele><time>2026-04-04T08:10:44Z</time></trkpt><trkpt lat="40.63369279931079" lon="9.714665871663088"><ele>10.0</ele><time>2026-04-04T08:10:45Z</time></trkpt><trkpt lat="40.6335873687403" lon="9.714699207375258"><ele>10.0</ele><time>2026-04-04T08:10:46Z</time></trkpt><trkpt lat="40.6334752178265" lon="9.714709584503412"><ele>10.0</ele><time>2026-04-04T08:10:47Z</time></trkpt><trkpt lat="40.63336693215158" lon="9.714733224593632"><ele>11.0</ele><time>2026-04-04T08:10:48Z</time></trkpt><trkpt lat="40.6332593264432" lon="9.714749762257412"><ele>12.0</ele><time>2026-04-04T08:10:49Z</time></trkpt><trkpt lat="40.63315305298754" lon="9.714778601977523"><ele>13.0</ele><time>2026-04-04T08:10:50Z</time></trkpt><trkpt lat="40.63305884769648" lon="9.714783623482267"><ele>14.0</ele><time>2026-04-04T08:10:51Z</time></trkpt><trkpt lat="40.63297851304936" lon="9.714786479597182"><ele>15.0</ele><time>2026-04-04T08:10:52Z</time></trkpt><trkpt lat="40.6329107053171" lon="9.714790841565739"><ele>15.0</ele><time>2026-04-04T08:10:53Z</time></trkpt><trkpt lat="40.632844847069855" lon="9.714795424777263"><ele>15.0</ele><time>2026-04-04T08:10:54Z</time></trkpt><trkpt lat="40.63277360586806" lon="9.714775830990751"><ele>15.0</ele><time>2026-04-04T08:10:55Z</time></trkpt><trkpt lat="40.632693437493074" lon="9.714777441478487"><ele>15.0</ele><time>2026-04-04T08:10:56Z</time></trkpt><trkpt lat="40.63261259636369" lon="9.714802977171061"><ele>15.0</ele><time>2026-04-04T08:10:57Z</time></trkpt><trkpt lat="40.63254046464616" lon="9.714805815314536"><ele>15.0</ele><time>2026-04-04T08:10:58Z</time></trkpt><trkpt lat="40.632473505841354" lon="9.714806535878925"><ele>15.0</ele><time>2026-04-04T08:10:59Z</time></trkpt><trkpt lat="40.63235630033282" lon="9.714792234305206"><ele>14.833333333333334</ele><time>2026-04-04T08:11:01Z</time></trkpt><trkpt lat="40.6322495953035" lon="9.714797029234623"><ele>14.666666666666668</ele><time>2026-04-04T08:11:03Z</time></trkpt><trkpt lat="40.63217650983168" lon="9.714800313423082"><ele>14.5</ele><time>2026-04-04T08:11:04Z</time></trkpt><trkpt lat="40.63208430143281" lon="9.714804112925487"><ele>14.333333333333334</ele><time>2026-04-04T08:11:05Z</time></trkpt><trkpt lat="40.63199633504426" lon="9.714807614563902"><ele>14.166666666666668</ele><time>2026-04-04T08:11:06Z</time></trkpt><trkpt lat="40.63193076283616" lon="9.714810224765454"><ele>14.0</ele><time>2026-04-04T08:11:07Z</time></trkpt><trkpt lat="40.63186762728313" lon="9.714812737957386"><ele>13.6</ele><time>2026-04-04T08:11:08Z</time></trkpt><trkpt lat="40.63174828982847" lon="9.714832523692275"><ele>13.2</ele><time>2026-04-04T08:11:10Z</time></trkpt><trkpt lat="40.63167035695748" lon="9.714839143838278"><ele>12.799999999999999</ele><time>2026-04-04T08:11:11Z</time></trkpt><trkpt lat="40.63158078603167" lon="9.714847563805455"><ele>12.399999999999999</ele><time>2026-04-04T08:11:12Z</time></trkpt><trkpt lat="40.63150498295758" lon="9.7148502259177"><ele>12.0</ele><time>2026-04-04T08:11:13Z</time></trkpt><trkpt lat="40.63138800805151" lon="9.71485429394214"><ele>12.0</ele><time>2026-04-04T08:11:15Z</time></trkpt><trkpt lat="40.63132005984242" lon="9.714854646524326"><ele>12.0</ele><time>2026-04-04T08:11:16Z</time></trkpt><trkpt lat="40.63119350205803" lon="9.71483710991042"><ele>12.0</ele><time>2026-04-04T08:11:18Z</time></trkpt><trkpt lat="40.63110333349863" lon="9.7148409070587"><ele>12.0</ele><time>2026-04-04T08:11:19Z</time></trkpt><trkpt lat="40.63101765038665" lon="9.714865330897835"><ele>12.0</ele><time>2026-04-04T08:11:20Z</time></trkpt><trkpt lat="40.63094591848398" lon="9.714846530381646"><ele>12.0</ele><time>2026-04-04T08:11:21Z</time></trkpt><trkpt lat="40.630879600996224" lon="9.714847904572778"><ele>11.833333333333334</ele><time>2026-04-04T08:11:22Z</time></trkpt><trkpt lat="40.63081626251986" lon="9.714849120305509"><ele>11.666666666666666</ele><time>2026-04-04T08:11:23Z</time></trkpt><trkpt lat="40.63074368605597" lon="9.714850459358125"><ele>11.5</ele><time>2026-04-04T08:11:24Z</time></trkpt><trkpt lat="40.63065744549181" lon="9.714852050514505"><ele>11.333333333333332</ele><time>2026-04-04T08:11:25Z</time></trkpt><trkpt lat="40.63057403038564" lon="9.714873943323957"><ele>11.166666666666666</ele><time>2026-04-04T08:11:26Z</time></trkpt><trkpt lat="40.630456439198795" lon="9.714872330896545"><ele>11.0</ele><time>2026-04-04T08:11:28Z</time></trkpt><trkpt lat="40.6303485124925" lon="9.714873838601505"><ele>11.0</ele><time>2026-04-04T08:11:30Z</time></trkpt><trkpt lat="40.63027930760742" lon="9.714864568620406"><ele>11.0</ele><time>2026-04-04T08:11:32Z</time></trkpt><trkpt lat="40.63031073980546" lon="9.715100992616755"><ele>11.0</ele><time>2026-04-04T08:11:34Z</time></trkpt><trkpt lat="40.63034563010642" lon="9.71520451794154"><ele>11.0</ele><time>2026-04-04T08:11:35Z</time></trkpt><trkpt lat="40.63037246379919" lon="9.715331113085732"><ele>11.0</ele><time>2026-04-04T08:11:36Z</time></trkpt><trkpt lat="40.63039319428031" lon="9.71546523141982"><ele>10.600000000000001</ele><time>2026-04-04T08:11:37Z</time></trkpt><trkpt lat="40.63042131091581" lon="9.715601846384002"><ele>10.200000000000001</ele><time>2026-04-04T08:11:38Z</time></trkpt><trkpt lat="40.63044341148136" lon="9.71572919049077"><ele>9.8</ele><time>2026-04-04T08:11:39Z</time></trkpt><trkpt lat="40.630466731977016" lon="9.71585908809578"><ele>9.4</ele><time>2026-04-04T08:11:40Z</time></trkpt><trkpt lat="40.63048657123716" lon="9.715990547368282"><ele>9.0</ele><time>2026-04-04T08:11:41Z</time></trkpt><trkpt lat="40.63051034662706" lon="9.716112936389294"><ele>9.0</ele><time>2026-04-04T08:11:42Z</time></trkpt><trkpt lat="40.63053874063164" lon="9.71623516141727"><ele>9.0</ele><time>2026-04-04T08:11:43Z</time></trkpt><trkpt lat="40.63056375788108" lon="9.716372507942431"><ele>9.0</ele><time>2026-04-04T08:11:44Z</time></trkpt><trkpt lat="40.63059008817958" lon="9.716522474862577"><ele>9.0</ele><time>2026-04-04T08:11:45Z</time></trkpt><trkpt lat="40.63061341183981" lon="9.716667623821449"><ele>9.0</ele><time>2026-04-04T08:11:46Z</time></trkpt><trkpt lat="40.63063967575431" lon="9.716813005540288"><ele>8.8</ele><time>2026-04-04T08:11:47Z</time></trkpt><trkpt lat="40.630664853418" lon="9.716946068392026"><ele>8.600000000000001</ele><time>2026-04-04T08:11:48Z</time></trkpt><trkpt lat="40.63068700635051" lon="9.717069979253072"><ele>8.4</ele><time>2026-04-04T08:11:49Z</time></trkpt><trkpt lat="40.63071033595959" lon="9.71719276536652"><ele>8.200000000000001</ele><time>2026-04-04T08:11:50Z</time></trkpt><trkpt lat="40.630736722665596" lon="9.717324935754725"><ele>8.0</ele><time>2026-04-04T08:11:51Z</time></trkpt><trkpt lat="40.63075673481606" lon="9.717466869740472"><ele>8.0</ele><time>2026-04-04T08:11:52Z</time></trkpt><trkpt lat="40.63077601432487" lon="9.717617484760076"><ele>8.0</ele><time>2026-04-04T08:11:53Z</time></trkpt><trkpt lat="40.630787925788376" lon="9.717743008878397"><ele>8.0</ele><time>2026-04-04T08:11:54Z</time></trkpt><trkpt lat="40.630793896558316" lon="9.717858679009328"><ele>8.0</ele><time>2026-04-04T08:11:55Z</time></trkpt><trkpt lat="40.63079660073363" lon="9.717963039174236"><ele>8.0</ele><time>2026-04-04T08:11:56Z</time></trkpt><trkpt lat="40.6307992553619" lon="9.7180601791347"><ele>8.0</ele><time>2026-04-04T08:11:57Z</time></trkpt><trkpt lat="40.63080040710103" lon="9.718150828009986"><ele>7.999999999999999</ele><time>2026-04-04T08:11:58Z</time></trkpt><trkpt lat="40.6308040162479" lon="9.71824348561677"><ele>8.0</ele><time>2026-04-04T08:11:59Z</time></trkpt><trkpt lat="40.63080280447361" lon="9.718336523640023"><ele>8.0</ele><time>2026-04-04T08:12:00Z</time></trkpt><trkpt lat="40.630802002591395" lon="9.718435445013975"><ele>7.999999999999999</ele><time>2026-04-04T08:12:01Z</time></trkpt><trkpt lat="40.63079560737833" lon="9.718538297731087"><ele>8.0</ele><time>2026-04-04T08:12:02Z</time></trkpt><trkpt lat="40.630788239691086" lon="9.718647239254683"><ele>8.0</ele><time>2026-04-04T08:12:03Z</time></trkpt><trkpt lat="40.63078060977565" lon="9.71875350773128"><ele>8.166666666666666</ele><time>2026-04-04T08:12:04Z</time></trkpt><trkpt lat="40.63077163573429" lon="9.718844324222104"><ele>8.333333333333332</ele><time>2026-04-04T08:12:05Z</time></trkpt><trkpt lat="40.63076172752602" lon="9.718927542361325"><ele>8.5</ele><time>2026-04-04T08:12:06Z</time></trkpt><trkpt lat="40.63074428222671" lon="9.719084870460028"><ele>8.666666666666666</ele><time>2026-04-04T08:12:08Z</time></trkpt><trkpt lat="40.6307269855637" lon="9.719231748169037"><ele>8.833333333333334</ele><time>2026-04-04T08:12:10Z</time></trkpt><trkpt lat="40.63071917986712" lon="9.719315445439968"><ele>9.0</ele><time>2026-04-04T08:12:11Z</time></trkpt><trkpt lat="40.630709731353136" lon="9.719398893685241"><ele>8.666666666666666</ele><time>2026-04-04T08:12:12Z</time></trkpt><trkpt lat="40.63069928165961" lon="9.719486788233203"><ele>8.333333333333334</ele><time>2026-04-04T08:12:12.999Z</time></trkpt><trkpt lat="40.63067292215625" lon="9.719651711343477"><ele>8.0</ele><time>2026-04-04T08:12:14.999Z</time></trkpt><trkpt lat="40.63065573651911" lon="9.71973170475467"><ele>7.666666666666667</ele><time>2026-04-04T08:12:15.999Z</time></trkpt><trkpt lat="40.63063193241633" lon="9.719820252715978"><ele>7.333333333333334</ele><time>2026-04-04T08:12:16.999Z</time></trkpt><trkpt lat="40.63060848842649" lon="9.719902496626085"><ele>7.0</ele><time>2026-04-04T08:12:17.999Z</time></trkpt><trkpt lat="40.63058092154438" lon="9.720000093083533"><ele>7.0</ele><time>2026-04-04T08:12:18.999Z</time></trkpt><trkpt lat="40.63055122112638" lon="9.720088711009597"><ele>6.999999999999999</ele><time>2026-04-04T08:12:19.999Z</time></trkpt><trkpt lat="40.63051350718488" lon="9.720194238211974"><ele>6.999999999999999</ele><time>2026-04-04T08:12:20.999Z</time></trkpt><trkpt lat="40.630473833318455" lon="9.720304349243973"><ele>7.0</ele><time>2026-04-04T08:12:21.999Z</time></trkpt><trkpt lat="40.63043083293355" lon="9.720422511960235"><ele>7.0</ele><time>2026-04-04T08:12:22.999Z</time></trkpt><trkpt lat="40.63038252969073" lon="9.72054726644122"><ele>6.8</ele><time>2026-04-04T08:12:23.999Z</time></trkpt><trkpt lat="40.63033277934642" lon="9.720661471684648"><ele>6.6</ele><time>2026-04-04T08:12:24.999Z</time></trkpt><trkpt lat="40.63028352534789" lon="9.72076780610843"><ele>6.3999999999999995</ele><time>2026-04-04T08:12:25.998Z</time></trkpt><trkpt lat="40.63023048842718" lon="9.720860774883239"><ele>6.199999999999999</ele><time>2026-04-04T08:12:26.998Z</time></trkpt><trkpt lat="40.63017126514531" lon="9.720946754016532"><ele>6.0</ele><time>2026-04-04T08:12:27.998Z</time></trkpt><trkpt lat="40.63010301938003" lon="9.721038708221974"><ele>6.4</ele><time>2026-04-04T08:12:28.998Z</time></trkpt><trkpt lat="40.63002921047495" lon="9.72113130210119"><ele>6.8</ele><time>2026-04-04T08:12:29.998Z</time></trkpt><trkpt lat="40.629959857488195" lon="9.721217048190057"><ele>7.200000000000001</ele><time>2026-04-04T08:12:30.998Z</time></trkpt><trkpt lat="40.62989285668684" lon="9.72129794703036"><ele>7.6000000000000005</ele><time>2026-04-04T08:12:31.998Z</time></trkpt><trkpt lat="40.62982344892551" lon="9.721381975462082"><ele>8.0</ele><time>2026-04-04T08:12:32.998Z</time></trkpt><trkpt lat="40.629751310940996" lon="9.721466624509965"><ele>8.0</ele><time>2026-04-04T08:12:33.998Z</time></trkpt><trkpt lat="40.62967871145006" lon="9.721554272014394"><ele>8.0</ele><time>2026-04-04T08:12:34.998Z</time></trkpt><trkpt lat="40.629604682326566" lon="9.721641390293366"><ele>8.0</ele><time>2026-04-04T08:12:35.998Z</time></trkpt><trkpt lat="40.6295298857751" lon="9.721728112812777"><ele>8.0</ele><time>2026-04-04T08:12:36.998Z</time></trkpt><trkpt lat="40.62945468074508" lon="9.721813731900488"><ele>8.0</ele><time>2026-04-04T08:12:37.998Z</time></trkpt><trkpt lat="40.62937999646285" lon="9.721901026161934"><ele>8.200000000000001</ele><time>2026-04-04T08:12:38.998Z</time></trkpt><trkpt lat="40.62931050688094" lon="9.721984457534502"><ele>8.4</ele><time>2026-04-04T08:12:39.998Z</time></trkpt><trkpt lat="40.62924120074339" lon="9.722068830886997"><ele>8.600000000000001</ele><time>2026-04-04T08:12:40.998Z</time></trkpt><trkpt lat="40.62917289203662" lon="9.722160407250502"><ele>8.8</ele><time>2026-04-04T08:12:41.998Z</time></trkpt><trkpt lat="40.629101376774045" lon="9.72224649849951"><ele>9.0</ele><time>2026-04-04T08:12:42.998Z</time></trkpt><trkpt lat="40.629022356040345" lon="9.722338349151052"><ele>9.0</ele><time>2026-04-04T08:12:43.998Z</time></trkpt><trkpt lat="40.62894751209374" lon="9.722424994448808"><ele>9.0</ele><time>2026-04-04T08:12:44.998Z</time></trkpt><trkpt lat="40.628871494287665" lon="9.722513211458795"><ele>9.0</ele><time>2026-04-04T08:12:45.998Z</time></trkpt><trkpt lat="40.62879720575771" lon="9.722616839566603"><ele>9.0</ele><time>2026-04-04T08:12:46.998Z</time></trkpt><trkpt lat="40.62871552688265" lon="9.722726151965102"><ele>9.0</ele><time>2026-04-04T08:12:47.998Z</time></trkpt><trkpt lat="40.62861813706714" lon="9.722845653977027"><ele>8.0</ele><time>2026-04-04T08:12:48.998Z</time></trkpt><trkpt lat="40.628501774589104" lon="9.722978705946211"><ele>7.0</ele><time>2026-04-04T08:12:49.998Z</time></trkpt><trkpt lat="40.62838098501869" lon="9.72312392871522"><ele>6.0</ele><time>2026-04-04T08:12:50.998Z</time></trkpt><trkpt lat="40.62826029764531" lon="9.72327012177962"><ele>6.0</ele><time>2026-04-04T08:12:51.998Z</time></trkpt><trkpt lat="40.62813965772687" lon="9.72341771020445"><ele>6.0</ele><time>2026-04-04T08:12:52.998Z</time></trkpt><trkpt lat="40.62802837664269" lon="9.723549993343495"><ele>6.0</ele><time>2026-04-04T08:12:53.998Z</time></trkpt><trkpt lat="40.62791582141106" lon="9.72368200806433"><ele>5.333333333333333</ele><time>2026-04-04T08:12:54.998Z</time></trkpt><trkpt lat="40.6278042992301" lon="9.723814863054335"><ele>4.666666666666666</ele><time>2026-04-04T08:12:55.998Z</time></trkpt><trkpt lat="40.62769129880363" lon="9.723951746918676"><ele>4.0</ele><time>2026-04-04T08:12:56.998Z</time></trkpt><trkpt lat="40.627583098380086" lon="9.724082732282417"><ele>4.0</ele><time>2026-04-04T08:12:57.998Z</time></trkpt><trkpt lat="40.62747555812985" lon="9.724213018978869"><ele>4.0</ele><time>2026-04-04T08:12:58.998Z</time></trkpt><trkpt lat="40.627369085559046" lon="9.724343833697406"><ele>4.0</ele><time>2026-04-04T08:12:59.998Z</time></trkpt><trkpt lat="40.62726388860929" lon="9.724470789696"><ele>4.0</ele><time>2026-04-04T08:13:00.998Z</time></trkpt><trkpt lat="40.62716326184803" lon="9.724595633107821"><ele>4.0</ele><time>2026-04-04T08:13:01.998Z</time></trkpt><trkpt lat="40.62706149067229" lon="9.724719284489098"><ele>4.0</ele><time>2026-04-04T08:13:02.998Z</time></trkpt><trkpt lat="40.626958627238864" lon="9.724841915946616"><ele>4.0</ele><time>2026-04-04T08:13:03.998Z</time></trkpt><trkpt lat="40.62685519503863" lon="9.724964519300222"><ele>4.0</ele><time>2026-04-04T08:13:04.998Z</time></trkpt><trkpt lat="40.626753274437434" lon="9.725092261784571"><ele>4.0</ele><time>2026-04-04T08:13:05.998Z</time></trkpt><trkpt lat="40.626650695788065" lon="9.725215750506058"><ele>4.0</ele><time>2026-04-04T08:13:06.998Z</time></trkpt><trkpt lat="40.62654672842429" lon="9.725334605630568"><ele>4.0</ele><time>2026-04-04T08:13:07.998Z</time></trkpt><trkpt lat="40.6264459437534" lon="9.725443242141628"><ele>4.0</ele><time>2026-04-04T08:13:08.998Z</time></trkpt><trkpt lat="40.62633641304095" lon="9.725558277930304"><ele>4.0</ele><time>2026-04-04T08:13:09.998Z</time></trkpt><trkpt lat="40.62623554589541" lon="9.72565518940337"><ele>4.0</ele><time>2026-04-04T08:13:10.998Z</time></trkpt><trkpt lat="40.626136426970504" lon="9.725747044156737"><ele>4.0</ele><time>2026-04-04T08:13:11.998Z</time></trkpt><trkpt lat="40.62604703079092" lon="9.725825966909555"><ele>4.0</ele><time>2026-04-04T08:13:12.998Z</time></trkpt><trkpt lat="40.625947219780016" lon="9.725915282010781"><ele>4.0</ele><time>2026-04-04T08:13:13.998Z</time></trkpt><trkpt lat="40.625838481880194" lon="9.726011437315668"><ele>4.0</ele><time>2026-04-04T08:13:14.998Z</time></trkpt><trkpt lat="40.62572591947346" lon="9.726107105331797"><ele>4.0</ele><time>2026-04-04T08:13:15.998Z</time></trkpt><trkpt lat="40.62562270341905" lon="9.726196827493402"><ele>4.0</ele><time>2026-04-04T08:13:16.998Z</time></trkpt><trkpt lat="40.62553099818482" lon="9.726278201030853"><ele>4.0</ele><time>2026-04-04T08:13:17.998Z</time></trkpt><trkpt lat="40.625440919706676" lon="9.726359628602886"><ele>4.0</ele><time>2026-04-04T08:13:18.998Z</time></trkpt><trkpt lat="40.62534500564752" lon="9.726419608027564"><ele>4.0</ele><time>2026-04-04T08:13:19.998Z</time></trkpt><trkpt lat="40.62525291272739" lon="9.726500637488334"><ele>4.0</ele><time>2026-04-04T08:13:20.998Z</time></trkpt><trkpt lat="40.625149943136925" lon="9.72659204497681"><ele>4.0</ele><time>2026-04-04T08:13:21.998Z</time></trkpt><trkpt lat="40.62503806959222" lon="9.72669221005878"><ele>4.0</ele><time>2026-04-04T08:13:22.998Z</time></trkpt><trkpt lat="40.62492475276871" lon="9.726819038479556"><ele>4.0</ele><time>2026-04-04T08:13:23.998Z</time></trkpt><trkpt lat="40.62480111954678" lon="9.726930167967758"><ele>4.0</ele><time>2026-04-04T08:13:24.998Z</time></trkpt><trkpt lat="40.624665017975076" lon="9.727051528917698"><ele>3.333333333333333</ele><time>2026-04-04T08:13:25.998Z</time></trkpt><trkpt lat="40.62452014377253" lon="9.727155209200038"><ele>2.6666666666666665</ele><time>2026-04-04T08:13:26.998Z</time></trkpt><trkpt lat="40.624377842488485" lon="9.727281655106992"><ele>2.0</ele><time>2026-04-04T08:13:27.998Z</time></trkpt><trkpt lat="40.624212551552716" lon="9.727428528697088"><ele>1.5</ele><time>2026-04-04T08:13:28.998Z</time></trkpt><trkpt lat="40.62401902321629" lon="9.727599280035715"><ele>1.0</ele><time>2026-04-04T08:13:29.998Z</time></trkpt><trkpt lat="40.62381995340836" lon="9.727793064467416"><ele>1.0</ele><time>2026-04-04T08:13:30.998Z</time></trkpt><trkpt lat="40.623636879047034" lon="9.727950510184726"><ele>1.0</ele><time>2026-04-04T08:13:31.998Z</time></trkpt><trkpt lat="40.623478203547826" lon="9.728105308883853"><ele>1.0</ele><time>2026-04-04T08:13:32.998Z</time></trkpt><trkpt lat="40.6233295381763" lon="9.728281640060832"><ele>1.0</ele><time>2026-04-04T08:13:33.998Z</time></trkpt><trkpt lat="40.6231789324599" lon="9.728472972182901"><ele>1.0</ele><time>2026-04-04T08:13:34.998Z</time></trkpt><trkpt lat="40.62302209073099" lon="9.72867520843037"><ele>1.0</ele><time>2026-04-04T08:13:35.998Z</time></trkpt><trkpt lat="40.62285876325879" lon="9.728848953405803"><ele>1.3333333333333333</ele><time>2026-04-04T08:13:36.998Z</time></trkpt><trkpt lat="40.62270739963614" lon="9.729035978205507"><ele>1.6666666666666665</ele><time>2026-04-04T08:13:37.998Z</time></trkpt><trkpt lat="40.62255598987376" lon="9.729228240099072"><ele>2.0</ele><time>2026-04-04T08:13:38.998Z</time></trkpt><trkpt lat="40.622395998074694" lon="9.729431171934875"><ele>2.0</ele><time>2026-04-04T08:13:39.998Z</time></trkpt><trkpt lat="40.62223131426798" lon="9.729633612467431"><ele>2.0</ele><time>2026-04-04T08:13:40.998Z</time></trkpt><trkpt lat="40.622075633854564" lon="9.729824721279876"><ele>2.0</ele><time>2026-04-04T08:13:41.998Z</time></trkpt><trkpt lat="40.621935778658894" lon="9.730002209177659"><ele>2.0</ele><time>2026-04-04T08:13:42.998Z</time></trkpt><trkpt lat="40.62180919416674" lon="9.730168585212375"><ele>2.0</ele><time>2026-04-04T08:13:43.998Z</time></trkpt><trkpt lat="40.62170040830753" lon="9.730341561898593"><ele>2.0</ele><time>2026-04-04T08:13:44.998Z</time></trkpt><trkpt lat="40.62159017814426" lon="9.730494870481108"><ele>2.25</ele><time>2026-04-04T08:13:45.998Z</time></trkpt><trkpt lat="40.62149545050193" lon="9.730646321175348"><ele>2.5</ele><time>2026-04-04T08:13:46.998Z</time></trkpt><trkpt lat="40.62139919314658" lon="9.730780922922698"><ele>2.75</ele><time>2026-04-04T08:13:47.998Z</time></trkpt><trkpt lat="40.621340744858045" lon="9.730945404938478"><ele>3.0</ele><time>2026-04-04T08:13:48.998Z</time></trkpt><trkpt lat="40.62128064184672" lon="9.73109002864709"><ele>3.25</ele><time>2026-04-04T08:13:49.998Z</time></trkpt><trkpt lat="40.62123199522366" lon="9.73122483825117"><ele>3.5</ele><time>2026-04-04T08:13:50.998Z</time></trkpt><trkpt lat="40.6211773457362" lon="9.73135833203286"><ele>3.75</ele><time>2026-04-04T08:13:51.998Z</time></trkpt><trkpt lat="40.62111367877572" lon="9.731493088946719"><ele>4.0</ele><time>2026-04-04T08:13:52.998Z</time></trkpt><trkpt lat="40.620995819879894" lon="9.731602941199622"><ele>4.333333333333333</ele><time>2026-04-04T08:13:53.997Z</time></trkpt><trkpt lat="40.62093219739764" lon="9.731772553700598"><ele>4.666666666666667</ele><time>2026-04-04T08:13:54.997Z</time></trkpt><trkpt lat="40.62086956152235" lon="9.731958622246813"><ele>5.0</ele><time>2026-04-04T08:13:55.997Z</time></trkpt><trkpt lat="40.62080033350482" lon="9.732161348393316"><ele>5.0</ele><time>2026-04-04T08:13:56.997Z</time></trkpt><trkpt lat="40.6207186382697" lon="9.732342715829827"><ele>5.0</ele><time>2026-04-04T08:13:57.997Z</time></trkpt><trkpt lat="40.620655475460225" lon="9.732531510438076"><ele>5.0</ele><time>2026-04-04T08:13:58.997Z</time></trkpt><trkpt lat="40.62058858197893" lon="9.732713733823461"><ele>5.0</ele><time>2026-04-04T08:13:59.997Z</time></trkpt><trkpt lat="40.62052140208554" lon="9.732897513329165"><ele>5.0</ele><time>2026-04-04T08:14:00.998Z</time></trkpt><trkpt lat="40.62045256887044" lon="9.73308157339415"><ele>5.0</ele><time>2026-04-04T08:14:01.998Z</time></trkpt><trkpt lat="40.62038574746099" lon="9.733263079364756"><ele>5.0</ele><time>2026-04-04T08:14:02.998Z</time></trkpt><trkpt lat="40.620320139637116" lon="9.733439685169385"><ele>5.0</ele><time>2026-04-04T08:14:03.998Z</time></trkpt><trkpt lat="40.6202551055081" lon="9.73361651030924"><ele>5.0</ele><time>2026-04-04T08:14:04.998Z</time></trkpt><trkpt lat="40.620186895434585" lon="9.733798033250341"><ele>5.0</ele><time>2026-04-04T08:14:05.998Z</time></trkpt><trkpt lat="40.62012222104916" lon="9.733979541036403"><ele>5.0</ele><time>2026-04-04T08:14:06.998Z</time></trkpt><trkpt lat="40.62005867410003" lon="9.734161769278957"><ele>5.0</ele><time>2026-04-04T08:14:07.998Z</time></trkpt><trkpt lat="40.619997811487735" lon="9.734329798576832"><ele>5.0</ele><time>2026-04-04T08:14:08.999Z</time></trkpt><trkpt lat="40.61993880651819" lon="9.73449035518848"><ele>5.0</ele><time>2026-04-04T08:14:09.999Z</time></trkpt><trkpt lat="40.61989201948477" lon="9.734617297003428"><ele>5.0</ele><time>2026-04-04T08:14:10.999Z</time></trkpt><trkpt lat="40.619843391561055" lon="9.734748513347276"><ele>5.0</ele><time>2026-04-04T08:14:11.999Z</time></trkpt><trkpt lat="40.61980030881586" lon="9.734868334101403"><ele>5.0</ele><time>2026-04-04T08:14:13Z</time></trkpt><trkpt lat="40.619760943203445" lon="9.73497756298382"><ele>5.0</ele><time>2026-04-04T08:14:14Z</time></trkpt><trkpt lat="40.61972178593249" lon="9.735083544792362"><ele>5.0</ele><time>2026-04-04T08:14:15Z</time></trkpt><trkpt lat="40.61968067625342" lon="9.735195908642101"><ele>5.0</ele><time>2026-04-04T08:14:16Z</time></trkpt><trkpt lat="40.619634705795654" lon="9.735323241057761"><ele>5.0</ele><time>2026-04-04T08:14:17Z</time></trkpt><trkpt lat="40.619585861748675" lon="9.735459838877244"><ele>5.0</ele><time>2026-04-04T08:14:18Z</time></trkpt><trkpt lat="40.619531380304984" lon="9.735607491009421"><ele>5.0</ele><time>2026-04-04T08:14:19Z</time></trkpt><trkpt lat="40.61947275996267" lon="9.735767867109857"><ele>6.0</ele><time>2026-04-04T08:14:20Z</time></trkpt><trkpt lat="40.619407389476116" lon="9.735945827470653"><ele>7.0</ele><time>2026-04-04T08:14:21Z</time></trkpt><trkpt lat="40.61934244626301" lon="9.73612686169654"><ele>8.0</ele><time>2026-04-04T08:14:22Z</time></trkpt><trkpt lat="40.619280784983935" lon="9.736305395518853"><ele>8.666666666666666</ele><time>2026-04-04T08:14:23Z</time></trkpt><trkpt lat="40.61921697811275" lon="9.736481331572842"><ele>9.333333333333334</ele><time>2026-04-04T08:14:24Z</time></trkpt><trkpt lat="40.61915142616594" lon="9.736662197191302"><ele>10.0</ele><time>2026-04-04T08:14:25Z</time></trkpt><trkpt lat="40.61908242824225" lon="9.736849950835499"><ele>10.333333333333334</ele><time>2026-04-04T08:14:26Z</time></trkpt><trkpt lat="40.61901273144194" lon="9.737043198431534"><ele>10.666666666666666</ele><time>2026-04-04T08:14:27Z</time></trkpt><trkpt lat="40.61893953645192" lon="9.737250329210653"><ele>11.0</ele><time>2026-04-04T08:14:28Z</time></trkpt><trkpt lat="40.61886629547344" lon="9.737456508604678"><ele>11.0</ele><time>2026-04-04T08:14:29Z</time></trkpt><trkpt lat="40.61879572450688" lon="9.7376496923145"><ele>11.0</ele><time>2026-04-04T08:14:30Z</time></trkpt><trkpt lat="40.618729983950914" lon="9.737822345666453"><ele>11.0</ele><time>2026-04-04T08:14:31Z</time></trkpt><trkpt lat="40.618666961713046" lon="9.737990788478417"><ele>12.0</ele><time>2026-04-04T08:14:32Z</time></trkpt><trkpt lat="40.61860179323209" lon="9.738158268394061"><ele>13.0</ele><time>2026-04-04T08:14:33Z</time></trkpt><trkpt lat="40.61853303377206" lon="9.738329034692986"><ele>14.0</ele><time>2026-04-04T08:14:34Z</time></trkpt><trkpt lat="40.618460753029375" lon="9.738501757834287"><ele>15.0</ele><time>2026-04-04T08:14:35Z</time></trkpt><trkpt lat="40.618385436047014" lon="9.738673990665596"><ele>15.0</ele><time>2026-04-04T08:14:36Z</time></trkpt><trkpt lat="40.61830567538257" lon="9.738851465873898"><ele>15.0</ele><time>2026-04-04T08:14:37Z</time></trkpt><trkpt lat="40.61822349103756" lon="9.73903051114428"><ele>15.0</ele><time>2026-04-04T08:14:38Z</time></trkpt><trkpt lat="40.61814222565416" lon="9.739206572084777"><ele>13.666666666666666</ele><time>2026-04-04T08:14:39Z</time></trkpt><trkpt lat="40.61806014461479" lon="9.739383918708123"><ele>12.333333333333332</ele><time>2026-04-04T08:14:40Z</time></trkpt><trkpt lat="40.61798228031252" lon="9.739550405036468"><ele>11.0</ele><time>2026-04-04T08:14:41Z</time></trkpt><trkpt lat="40.61790462226257" lon="9.739717271039467"><ele>11.0</ele><time>2026-04-04T08:14:42Z</time></trkpt><trkpt lat="40.61782369505697" lon="9.73989009267129"><ele>11.0</ele><time>2026-04-04T08:14:43Z</time></trkpt><trkpt lat="40.61774065008842" lon="9.740065881174669"><ele>11.0</ele><time>2026-04-04T08:14:44Z</time></trkpt><trkpt lat="40.617658635477746" lon="9.740240004455387"><ele>11.5</ele><time>2026-04-04T08:14:45Z</time></trkpt><trkpt lat="40.617584586422616" lon="9.74039676551462"><ele>12.0</ele><time>2026-04-04T08:14:46Z</time></trkpt><trkpt lat="40.617511828426274" lon="9.740550846500756"><ele>12.5</ele><time>2026-04-04T08:14:47Z</time></trkpt><trkpt lat="40.617437942612405" lon="9.740707703094756"><ele>13.0</ele><time>2026-04-04T08:14:48Z</time></trkpt><trkpt lat="40.617361702783526" lon="9.740867910081576"><ele>13.0</ele><time>2026-04-04T08:14:49Z</time></trkpt><trkpt lat="40.61728207236409" lon="9.741034916539622"><ele>13.0</ele><time>2026-04-04T08:14:50Z</time></trkpt><trkpt lat="40.6172090696556" lon="9.741196537757288"><ele>13.0</ele><time>2026-04-04T08:14:51Z</time></trkpt><trkpt lat="40.61713935976634" lon="9.741350422989731"><ele>13.0</ele><time>2026-04-04T08:14:52Z</time></trkpt><trkpt lat="40.61706637674802" lon="9.741506923268776"><ele>12.5</ele><time>2026-04-04T08:14:53Z</time></trkpt><trkpt lat="40.61699379239753" lon="9.741660792429249"><ele>12.0</ele><time>2026-04-04T08:14:54Z</time></trkpt><trkpt lat="40.616918172676705" lon="9.74182152418101"><ele>11.5</ele><time>2026-04-04T08:14:55Z</time></trkpt><trkpt lat="40.61684478891658" lon="9.741977842571739"><ele>11.0</ele><time>2026-04-04T08:14:56Z</time></trkpt><trkpt lat="40.61677455426255" lon="9.742125304853115"><ele>10.25</ele><time>2026-04-04T08:14:57Z</time></trkpt><trkpt lat="40.61670553406138" lon="9.742265489009704"><ele>9.5</ele><time>2026-04-04T08:14:58Z</time></trkpt><trkpt lat="40.616635893903776" lon="9.742397389437835"><ele>8.75</ele><time>2026-04-04T08:14:59Z</time></trkpt><trkpt lat="40.616558815547535" lon="9.742527677654405"><ele>8.0</ele><time>2026-04-04T08:15:00Z</time></trkpt><trkpt lat="40.61646888694997" lon="9.742652664243291"><ele>8.0</ele><time>2026-04-04T08:15:01Z</time></trkpt><trkpt lat="40.61636749826075" lon="9.742768307188832"><ele>8.0</ele><time>2026-04-04T08:15:02Z</time></trkpt><trkpt lat="40.616254431269404" lon="9.742877735214346"><ele>8.0</ele><time>2026-04-04T08:15:03Z</time></trkpt><trkpt lat="40.61612839480885" lon="9.742973347478472"><ele>8.0</ele><time>2026-04-04T08:15:04Z</time></trkpt><trkpt lat="40.61598530420723" lon="9.743065417345328"><ele>8.0</ele><time>2026-04-04T08:15:05Z</time></trkpt><trkpt lat="40.61582891396754" lon="9.743150260243207"><ele>8.0</ele><time>2026-04-04T08:15:06Z</time></trkpt><trkpt lat="40.61565899957723" lon="9.743197721915003"><ele>8.0</ele><time>2026-04-04T08:15:07Z</time></trkpt><trkpt lat="40.615497835861426" lon="9.743265287667429"><ele>8.0</ele><time>2026-04-04T08:15:08Z</time></trkpt><trkpt lat="40.615343428313125" lon="9.743331059461473"><ele>8.0</ele><time>2026-04-04T08:15:09Z</time></trkpt><trkpt lat="40.61518715345083" lon="9.743397873317084"><ele>8.0</ele><time>2026-04-04T08:15:10Z</time></trkpt><trkpt lat="40.61502397901713" lon="9.743467637029442"><ele>8.333333333333332</ele><time>2026-04-04T08:15:11Z</time></trkpt><trkpt lat="40.614873753976205" lon="9.743530536993543"><ele>8.666666666666666</ele><time>2026-04-04T08:15:12Z</time></trkpt><trkpt lat="40.614721668303076" lon="9.743593451397862"><ele>9.0</ele><time>2026-04-04T08:15:13Z</time></trkpt><trkpt lat="40.61457796072437" lon="9.74365065621315"><ele>8.333333333333334</ele><time>2026-04-04T08:15:14Z</time></trkpt><trkpt lat="40.61442692042758" lon="9.74370865902052"><ele>7.666666666666667</ele><time>2026-04-04T08:15:15Z</time></trkpt><trkpt lat="40.61426624984315" lon="9.743754196876143"><ele>7.0</ele><time>2026-04-04T08:15:16Z</time></trkpt><trkpt lat="40.61409732955685" lon="9.743778018905074"><ele>7.0</ele><time>2026-04-04T08:15:17Z</time></trkpt><trkpt lat="40.613919746655256" lon="9.743796704418568"><ele>7.0</ele><time>2026-04-04T08:15:18Z</time></trkpt><trkpt lat="40.61374366059744" lon="9.743817488652569"><ele>7.0</ele><time>2026-04-04T08:15:19Z</time></trkpt><trkpt lat="40.61354136322129" lon="9.743821679512113"><ele>6.666666666666667</ele><time>2026-04-04T08:15:21Z</time></trkpt><trkpt lat="40.61338511673587" lon="9.743840735346335"><ele>6.333333333333334</ele><time>2026-04-04T08:15:22Z</time></trkpt><trkpt lat="40.61324015014989" lon="9.743878481405662"><ele>6.0</ele><time>2026-04-04T08:15:23Z</time></trkpt><trkpt lat="40.61310585303198" lon="9.743955969479812"><ele>6.0</ele><time>2026-04-04T08:15:24Z</time></trkpt><trkpt lat="40.61296668543147" lon="9.744045036320642"><ele>6.0</ele><time>2026-04-04T08:15:25Z</time></trkpt><trkpt lat="40.61282863093985" lon="9.744158393202557"><ele>6.0</ele><time>2026-04-04T08:15:26Z</time></trkpt><trkpt lat="40.612692228443755" lon="9.744272760329505"><ele>6.0</ele><time>2026-04-04T08:15:27Z</time></trkpt><trkpt lat="40.612566609963906" lon="9.74437155495683"><ele>6.0</ele><time>2026-04-04T08:15:28Z</time></trkpt><trkpt lat="40.612450299979336" lon="9.744462102935737"><ele>6.0</ele><time>2026-04-04T08:15:29Z</time></trkpt><trkpt lat="40.612340793887796" lon="9.744544294202607"><ele>6.0</ele><time>2026-04-04T08:15:30Z</time></trkpt><trkpt lat="40.61223862793595" lon="9.744627564505544"><ele>5.75</ele><time>2026-04-04T08:15:31Z</time></trkpt><trkpt lat="40.61213944452271" lon="9.744712695611144"><ele>5.5</ele><time>2026-04-04T08:15:32Z</time></trkpt><trkpt lat="40.61203742336321" lon="9.744807523759793"><ele>5.25</ele><time>2026-04-04T08:15:33Z</time></trkpt><trkpt lat="40.6119345519897" lon="9.744931744933309"><ele>5.0</ele><time>2026-04-04T08:15:34Z</time></trkpt><trkpt lat="40.61184173299229" lon="9.745067726249053"><ele>5.0</ele><time>2026-04-04T08:15:35Z</time></trkpt><trkpt lat="40.61176137377145" lon="9.74519087854738"><ele>5.0</ele><time>2026-04-04T08:15:36Z</time></trkpt><trkpt lat="40.61169088078983" lon="9.7453080617835"><ele>5.0</ele><time>2026-04-04T08:15:37Z</time></trkpt><trkpt lat="40.61162800379688" lon="9.745410204032096"><ele>5.0</ele><time>2026-04-04T08:15:38Z</time></trkpt><trkpt lat="40.611570846907625" lon="9.745493664733054"><ele>5.0</ele><time>2026-04-04T08:15:39Z</time></trkpt><trkpt lat="40.611517944338" lon="9.745580468361425"><ele>4.6</ele><time>2026-04-04T08:15:40Z</time></trkpt><trkpt lat="40.611462720286255" lon="9.74566366020961"><ele>4.2</ele><time>2026-04-04T08:15:41Z</time></trkpt><trkpt lat="40.61141533121792" lon="9.745729469656986"><ele>3.8</ele><time>2026-04-04T08:15:42Z</time></trkpt><trkpt lat="40.611345425834905" lon="9.74583943170553"><ele>3.4</ele><time>2026-04-04T08:15:44Z</time></trkpt><trkpt lat="40.61128946254723" lon="9.745924485075873"><ele>3.0</ele><time>2026-04-04T08:15:46Z</time></trkpt><trkpt lat="40.611200234737865" lon="9.74605597207137"><ele>3.0</ele><time>2026-04-04T08:15:48Z</time></trkpt><trkpt lat="40.61114714324037" lon="9.746120419790937"><ele>3.0</ele><time>2026-04-04T08:15:49Z</time></trkpt><trkpt lat="40.61108487779358" lon="9.746184683777777"><ele>3.0</ele><time>2026-04-04T08:15:50Z</time></trkpt><trkpt lat="40.611015647056185" lon="9.746258862461223"><ele>3.0</ele><time>2026-04-04T08:15:51Z</time></trkpt><trkpt lat="40.610948947947165" lon="9.746327285824313"><ele>3.0</ele><time>2026-04-04T08:15:52Z</time></trkpt><trkpt lat="40.6108771715003" lon="9.7463741305054"><ele>3.0</ele><time>2026-04-04T08:15:53Z</time></trkpt><trkpt lat="40.610800467446786" lon="9.746445632949623"><ele>3.0</ele><time>2026-04-04T08:15:54Z</time></trkpt><trkpt lat="40.61071814988367" lon="9.746517952681335"><ele>3.0</ele><time>2026-04-04T08:15:55Z</time></trkpt><trkpt lat="40.61062762576419" lon="9.746594055060811"><ele>3.0</ele><time>2026-04-04T08:15:56Z</time></trkpt><trkpt lat="40.61053351186405" lon="9.746677335116061"><ele>3.0</ele><time>2026-04-04T08:15:57Z</time></trkpt><trkpt lat="40.61045869953031" lon="9.746743290653953"><ele>3.0</ele><time>2026-04-04T08:15:58Z</time></trkpt><trkpt lat="40.61036151620704" lon="9.746828968746575"><ele>2.6</ele><time>2026-04-04T08:16:00Z</time></trkpt><trkpt lat="40.610276541641866" lon="9.746903883545068"><ele>2.1999999999999997</ele><time>2026-04-04T08:16:02Z</time></trkpt><trkpt lat="40.610166426356614" lon="9.746999152501258"><ele>1.8</ele><time>2026-04-04T08:16:04Z</time></trkpt><trkpt lat="40.610095568847235" lon="9.747060143799771"><ele>1.4</ele><time>2026-04-04T08:16:05Z</time></trkpt><trkpt lat="40.61002829852817" lon="9.747118047356535"><ele>1.0</ele><time>2026-04-04T08:16:06Z</time></trkpt><trkpt lat="40.60995293280192" lon="9.7471829191072"><ele>0.9999999999999999</ele><time>2026-04-04T08:16:07Z</time></trkpt><trkpt lat="40.60988306677863" lon="9.74724305697237"><ele>1.0</ele><time>2026-04-04T08:16:08Z</time></trkpt><trkpt lat="40.60982146489632" lon="9.747296081369091"><ele>1.0</ele><time>2026-04-04T08:16:09Z</time></trkpt><trkpt lat="40.60977925440136" lon="9.747358709476364"><ele>1.0</ele><time>2026-04-04T08:16:10Z</time></trkpt><trkpt lat="40.60970917225339" lon="9.747414617416183"><ele>0.9999999999999999</ele><time>2026-04-04T08:16:12Z</time></trkpt><trkpt lat="40.609651130731685" lon="9.747460468404732"><ele>1.0</ele><time>2026-04-04T08:16:15Z</time></trkpt><trkpt lat="40.6095785818012" lon="9.74752119419797"><ele>1.1666666666666665</ele><time>2026-04-04T08:16:23Z</time></trkpt><trkpt lat="40.60947073508533" lon="9.747601123738892"><ele>1.3333333333333333</ele><time>2026-04-04T08:16:25Z</time></trkpt><trkpt lat="40.60940767344665" lon="9.747656098224796"><ele>1.5</ele><time>2026-04-04T08:16:26Z</time></trkpt><trkpt lat="40.6093601778334" lon="9.747717843291868"><ele>1.6666666666666665</ele><time>2026-04-04T08:16:27Z</time></trkpt><trkpt lat="40.60929831777811" lon="9.747771721647403"><ele>1.8333333333333333</ele><time>2026-04-04T08:16:28Z</time></trkpt><trkpt lat="40.6092260893875" lon="9.747834878306422"><ele>2.0</ele><time>2026-04-04T08:16:29Z</time></trkpt><trkpt lat="40.609156536816535" lon="9.747898879459674"><ele>2.1666666666666665</ele><time>2026-04-04T08:16:30Z</time></trkpt><trkpt lat="40.60907276119556" lon="9.747944070872071"><ele>2.333333333333333</ele><time>2026-04-04T08:16:31Z</time></trkpt><trkpt lat="40.60900095984353" lon="9.748003829734534"><ele>2.5</ele><time>2026-04-04T08:16:32Z</time></trkpt><trkpt lat="40.60891789591123" lon="9.748074058692929"><ele>2.6666666666666665</ele><time>2026-04-04T08:16:33Z</time></trkpt><trkpt lat="40.608843189328375" lon="9.748137630758215"><ele>2.8333333333333335</ele><time>2026-04-04T08:16:34Z</time></trkpt><trkpt lat="40.608773127928465" lon="9.748197378991865"><ele>3.0</ele><time>2026-04-04T08:16:35Z</time></trkpt><trkpt lat="40.60869545945303" lon="9.748265600902716"><ele>3.0</ele><time>2026-04-04T08:16:36Z</time></trkpt><trkpt lat="40.60862453291201" lon="9.748327900925153"><ele>3.0</ele><time>2026-04-04T08:16:37Z</time></trkpt><trkpt lat="40.60856029851966" lon="9.748384322720531"><ele>3.0</ele><time>2026-04-04T08:16:38Z</time></trkpt><trkpt lat="40.608515074406895" lon="9.748443480332538"><ele>3.0</ele><time>2026-04-04T08:16:39Z</time></trkpt><trkpt lat="40.60844931578088" lon="9.74849241682369"><ele>3.0</ele><time>2026-04-04T08:16:41Z</time></trkpt><trkpt lat="40.608372395569305" lon="9.748563713869286"><ele>3.0</ele><time>2026-04-04T08:16:45Z</time></trkpt><trkpt lat="40.608304949088215" lon="9.748625363843754"><ele>3.5999999999999996</ele><time>2026-04-04T08:16:47Z</time></trkpt><trkpt lat="40.608209754510334" lon="9.748707911055972"><ele>4.199999999999999</ele><time>2026-04-04T08:16:49Z</time></trkpt><trkpt lat="40.60812454320461" lon="9.748775035387872"><ele>4.8</ele><time>2026-04-04T08:16:51Z</time></trkpt><trkpt lat="40.60805213245276" lon="9.748831892726576"><ele>5.3999999999999995</ele><time>2026-04-04T08:16:54Z</time></trkpt><trkpt lat="40.60797448548559" lon="9.748870847852345"><ele>6.0</ele><time>2026-04-04T08:16:57Z</time></trkpt><trkpt lat="40.60789676114683" lon="9.748852796545505"><ele>6.0</ele><time>2026-04-04T08:16:59Z</time></trkpt><trkpt lat="40.60784788339371" lon="9.748770241268176"><ele>6.0</ele><time>2026-04-04T08:17:01Z</time></trkpt><trkpt lat="40.607784156805245" lon="9.748666085858083"><ele>6.0</ele><time>2026-04-04T08:17:03Z</time></trkpt><trkpt lat="40.60771149725928" lon="9.748580691167282"><ele>6.0</ele><time>2026-04-04T08:17:05Z</time></trkpt><trkpt lat="40.607580012532964" lon="9.748661698911972"><ele>6.0</ele><time>2026-04-04T08:17:09Z</time></trkpt><trkpt lat="40.60755604949616" lon="9.748743712439628"><ele>5.3999999999999995</ele><time>2026-04-04T08:17:10Z</time></trkpt><trkpt lat="40.607519012615356" lon="9.74883342460643"><ele>4.8</ele><time>2026-04-04T08:17:11Z</time></trkpt><trkpt lat="40.60747170744033" lon="9.748935605798284"><ele>4.199999999999999</ele><time>2026-04-04T08:17:12Z</time></trkpt><trkpt lat="40.607424295837966" lon="9.749040720415618"><ele>3.5999999999999996</ele><time>2026-04-04T08:17:13Z</time></trkpt><trkpt lat="40.607368667972096" lon="9.74915004063678"><ele>3.0</ele><time>2026-04-04T08:17:14Z</time></trkpt><trkpt lat="40.60731033630322" lon="9.749267058462605"><ele>3.0</ele><time>2026-04-04T08:17:15Z</time></trkpt><trkpt lat="40.60726354796838" lon="9.749363722982489"><ele>3.0</ele><time>2026-04-04T08:17:16Z</time></trkpt><trkpt lat="40.60722528992597" lon="9.749446400375586"><ele>3.0</ele><time>2026-04-04T08:17:17Z</time></trkpt><trkpt lat="40.60719003319525" lon="9.749519628447846"><ele>3.0</ele><time>2026-04-04T08:17:18Z</time></trkpt><trkpt lat="40.60715032208793" lon="9.749591651327323"><ele>3.0</ele><time>2026-04-04T08:17:19Z</time></trkpt><trkpt lat="40.60712041402884" lon="9.749667192112334"><ele>3.0</ele><time>2026-04-04T08:17:20Z</time></trkpt><trkpt lat="40.60698051357393" lon="9.749692061184383"><ele>2.8333333333333335</ele><time>2026-04-04T08:17:22Z</time></trkpt><trkpt lat="40.606879858592414" lon="9.749644851464737"><ele>2.6666666666666665</ele><time>2026-04-04T08:17:24Z</time></trkpt><trkpt lat="40.60682206438915" lon="9.749597310809495"><ele>2.5</ele><time>2026-04-04T08:17:26Z</time></trkpt><trkpt lat="40.60681258468992" lon="9.749731296741519"><ele>2.333333333333333</ele><time>2026-04-04T08:27:32Z</time></trkpt><trkpt lat="40.60674764227306" lon="9.749715106102817"><ele>2.1666666666666665</ele><time>2026-04-04T08:28:57Z</time></trkpt><trkpt lat="40.606761743296424" lon="9.749612683244699"><ele>2.0</ele><time>2026-04-04T08:29:00Z</time></trkpt><trkpt lat="40.60672076956124" lon="9.74953998683262"><ele>2.0</ele><time>2026-04-04T08:29:02Z</time></trkpt><trkpt lat="40.60661665607749" lon="9.749479162659227"><ele>2.0</ele><time>2026-04-04T08:29:04Z</time></trkpt><trkpt lat="40.60652581536195" lon="9.749457705034539"><ele>2.0</ele><time>2026-04-04T08:29:06Z</time></trkpt><trkpt lat="40.60640196817016" lon="9.74944293074314"><ele>2.0</ele><time>2026-04-04T08:29:08Z</time></trkpt><trkpt lat="40.6062968086752" lon="9.749429690070285"><ele>2.0</ele><time>2026-04-04T08:29:10Z</time></trkpt><trkpt lat="40.606168815995105" lon="9.749424045544606"><ele>2.0</ele><time>2026-04-04T08:29:12Z</time></trkpt><trkpt lat="40.6060855483738" lon="9.749423584712575"><ele>2.0</ele><time>2026-04-04T08:29:13Z</time></trkpt><trkpt lat="40.60599603342286" lon="9.74941627949019"><ele>2.0</ele><time>2026-04-04T08:29:14Z</time></trkpt><trkpt lat="40.60590037484189" lon="9.749405626169745"><ele>2.0</ele><time>2026-04-04T08:29:15Z</time></trkpt><trkpt lat="40.60579726888958" lon="9.749393932912582"><ele>2.0</ele><time>2026-04-04T08:29:16Z</time></trkpt><trkpt lat="40.60568806640166" lon="9.749384426559788"><ele>2.0</ele><time>2026-04-04T08:29:17Z</time></trkpt><trkpt lat="40.605581644563436" lon="9.749377217347478"><ele>2.0</ele><time>2026-04-04T08:29:18Z</time></trkpt><trkpt lat="40.605467180421826" lon="9.749367827106724"><ele>2.0</ele><time>2026-04-04T08:29:19Z</time></trkpt><trkpt lat="40.60534631820993" lon="9.74935761974858"><ele>2.0</ele><time>2026-04-04T08:29:20Z</time></trkpt><trkpt lat="40.60521830409911" lon="9.74935160716336"><ele>2.0</ele><time>2026-04-04T08:29:21Z</time></trkpt><trkpt lat="40.6050838330283" lon="9.749331133113863"><ele>2.0</ele><time>2026-04-04T08:29:22Z</time></trkpt><trkpt lat="40.60494064622282" lon="9.749309741728819"><ele>2.0</ele><time>2026-04-04T08:29:23Z</time></trkpt><trkpt lat="40.604800245188656" lon="9.749289881027835"><ele>2.0</ele><time>2026-04-04T08:29:24Z</time></trkpt><trkpt lat="40.604673655749444" lon="9.7492698510633"><ele>2.0</ele><time>2026-04-04T08:29:25Z</time></trkpt><trkpt lat="40.604545113011426" lon="9.749248491700932"><ele>2.0</ele><time>2026-04-04T08:29:26Z</time></trkpt><trkpt lat="40.60441210411048" lon="9.749225364235468"><ele>2.0</ele><time>2026-04-04T08:29:27Z</time></trkpt><trkpt lat="40.604276523704485" lon="9.749201693635385"><ele>2.0</ele><time>2026-04-04T08:29:28Z</time></trkpt><trkpt lat="40.604135997917965" lon="9.749178680776247"><ele>2.0</ele><time>2026-04-04T08:29:29Z</time></trkpt><trkpt lat="40.60399374204362" lon="9.749153897924455"><ele>2.0</ele><time>2026-04-04T08:29:30Z</time></trkpt><trkpt lat="40.60385868608929" lon="9.749128706253302"><ele>2.0</ele><time>2026-04-04T08:29:31Z</time></trkpt><trkpt lat="40.60373993071495" lon="9.749104465472197"><ele>2.0</ele><time>2026-04-04T08:29:32Z</time></trkpt><trkpt lat="40.60362798925155" lon="9.749081627292204"><ele>2.0</ele><time>2026-04-04T08:29:33Z</time></trkpt><trkpt lat="40.60351046352946" lon="9.74906124568872"><ele>2.0</ele><time>2026-04-04T08:29:34Z</time></trkpt><trkpt lat="40.60338679678073" lon="9.749040317566656"><ele>2.0</ele><time>2026-04-04T08:29:35Z</time></trkpt><trkpt lat="40.603253966099786" lon="9.7490201905643"><ele>2.0</ele><time>2026-04-04T08:29:36Z</time></trkpt><trkpt lat="40.60312314801186" lon="9.748999981128783"><ele>2.0</ele><time>2026-04-04T08:29:37Z</time></trkpt><trkpt lat="40.60298948006595" lon="9.748975388648327"><ele>2.0</ele><time>2026-04-04T08:29:38Z</time></trkpt><trkpt lat="40.60284870693518" lon="9.748949551780683"><ele>2.0</ele><time>2026-04-04T08:29:39Z</time></trkpt><trkpt lat="40.602690371796214" lon="9.748916683598857"><ele>2.0</ele><time>2026-04-04T08:29:40Z</time></trkpt><trkpt lat="40.602549176618474" lon="9.74888773054036"><ele>1.75</ele><time>2026-04-04T08:29:41Z</time></trkpt><trkpt lat="40.602413966994995" lon="9.748871646234049"><ele>1.5</ele><time>2026-04-04T08:29:42Z</time></trkpt><trkpt lat="40.602290563458034" lon="9.748875297645979"><ele>1.25</ele><time>2026-04-04T08:29:43Z</time></trkpt><trkpt lat="40.60217539900603" lon="9.748897829491366"><ele>1.0</ele><time>2026-04-04T08:29:44Z</time></trkpt><trkpt lat="40.60206848104663" lon="9.748937112852374"><ele>0.75</ele><time>2026-04-04T08:29:45Z</time></trkpt><trkpt lat="40.601953455713385" lon="9.748985230714789"><ele>0.5</ele><time>2026-04-04T08:29:46Z</time></trkpt><trkpt lat="40.60183106911975" lon="9.74903769270597"><ele>0.25</ele><time>2026-04-04T08:29:47Z</time></trkpt><trkpt lat="40.6017030920585" lon="9.74909393419746"><ele>0.0</ele><time>2026-04-04T08:29:48Z</time></trkpt><trkpt lat="40.60158063841029" lon="9.749149399429617"><ele>0.0</ele><time>2026-04-04T08:29:49Z</time></trkpt><trkpt lat="40.60147095353176" lon="9.74919500227319"><ele>0.0</ele><time>2026-04-04T08:29:50Z</time></trkpt><trkpt lat="40.60137263711679" lon="9.749236347950749"><ele>0.0</ele><time>2026-04-04T08:29:51Z</time></trkpt><trkpt lat="40.60128095861848" lon="9.749267137049811"><ele>0.0</ele><time>2026-04-04T08:29:52Z</time></trkpt><trkpt lat="40.60118745948679" lon="9.749280418880998"><ele>0.0</ele><time>2026-04-04T08:29:53Z</time></trkpt><trkpt lat="40.601091374589316" lon="9.749269287982797"><ele>-0.2</ele><time>2026-04-04T08:29:54Z</time></trkpt><trkpt lat="40.60099723781476" lon="9.749223198685455"><ele>-0.4</ele><time>2026-04-04T08:29:55Z</time></trkpt><trkpt lat="40.600916282848004" lon="9.749146554404453"><ele>-0.6000000000000001</ele><time>2026-04-04T08:29:56Z</time></trkpt><trkpt lat="40.60084699751002" lon="9.749052890750866"><ele>-0.8</ele><time>2026-04-04T08:29:57Z</time></trkpt><trkpt lat="40.600773482628256" lon="9.74896944216632"><ele>-1.0</ele><time>2026-04-04T08:29:58Z</time></trkpt><trkpt lat="40.6006936600902" lon="9.748933880430618"><ele>-0.9999999999999999</ele><time>2026-04-04T08:29:59Z</time></trkpt><trkpt lat="40.60061513114087" lon="9.748932781577198"><ele>-1.0</ele><time>2026-04-04T08:30:00Z</time></trkpt><trkpt lat="40.600534543040155" lon="9.748964307482446"><ele>-1.0</ele><time>2026-04-04T08:30:01Z</time></trkpt><trkpt lat="40.600456131464135" lon="9.749009790385436"><ele>-1.0</ele><time>2026-04-04T08:30:02Z</time></trkpt><trkpt lat="40.60040022159638" lon="9.74911569016989"><ele>-0.9999999999999999</ele><time>2026-04-04T08:30:03Z</time></trkpt><trkpt lat="40.60038659586027" lon="9.7492438536779"><ele>-1.0</ele><time>2026-04-04T08:30:04Z</time></trkpt><trkpt lat="40.60038407603409" lon="9.749376000869155"><ele>-0.8</ele><time>2026-04-04T08:30:05Z</time></trkpt><trkpt lat="40.60035627787025" lon="9.749514792525476"><ele>-0.6000000000000001</ele><time>2026-04-04T08:30:06Z</time></trkpt><trkpt lat="40.60029747383688" lon="9.74963857303509"><ele>-0.4</ele><time>2026-04-04T08:30:07Z</time></trkpt><trkpt lat="40.60023251498126" lon="9.749729763527819"><ele>-0.2</ele><time>2026-04-04T08:30:08Z</time></trkpt><trkpt lat="40.60011071504149" lon="9.749766512238867"><ele>0.0</ele><time>2026-04-04T08:30:09Z</time></trkpt><trkpt lat="40.599978683648224" lon="9.749814935201533"><ele>0.0</ele><time>2026-04-04T08:30:10Z</time></trkpt><trkpt lat="40.59982646165374" lon="9.749883043735233"><ele>0.0</ele><time>2026-04-04T08:30:11Z</time></trkpt><trkpt lat="40.59966250974758" lon="9.749958778009374"><ele>0.0</ele><time>2026-04-04T08:30:12Z</time></trkpt><trkpt lat="40.59951665856147" lon="9.750026712130477"><ele>0.0</ele><time>2026-04-04T08:30:13Z</time></trkpt><trkpt lat="40.599363959236285" lon="9.750092559469724"><ele>0.0</ele><time>2026-04-04T08:30:14Z</time></trkpt><trkpt lat="40.59919873861268" lon="9.750163494894187"><ele>0.0</ele><time>2026-04-04T08:30:15Z</time></trkpt><trkpt lat="40.599029807960726" lon="9.75024035404427"><ele>0.0</ele><time>2026-04-04T08:30:16Z</time></trkpt><trkpt lat="40.598858159723775" lon="9.750319145019395"><ele>0.0</ele><time>2026-04-04T08:30:17Z</time></trkpt><trkpt lat="40.59868593500328" lon="9.75040082833087"><ele>0.0</ele><time>2026-04-04T08:30:18Z</time></trkpt><trkpt lat="40.598511825179834" lon="9.750489655782268"><ele>-0.3333333333333333</ele><time>2026-04-04T08:30:19Z</time></trkpt><trkpt lat="40.59833869466609" lon="9.75058946268023"><ele>-0.6666666666666666</ele><time>2026-04-04T08:30:20Z</time></trkpt><trkpt lat="40.59816623262712" lon="9.750702611607997"><ele>-1.0</ele><time>2026-04-04T08:30:21Z</time></trkpt><trkpt lat="40.59801110786218" lon="9.750814075895391"><ele>-1.0</ele><time>2026-04-04T08:30:22Z</time></trkpt><trkpt lat="40.597858617154046" lon="9.750930310270919"><ele>-1.0</ele><time>2026-04-04T08:30:23Z</time></trkpt><trkpt lat="40.5977070000411" lon="9.751051503491839"><ele>-1.0</ele><time>2026-04-04T08:30:24Z</time></trkpt><trkpt lat="40.597557394628275" lon="9.751173494896074"><ele>-0.6666666666666666</ele><time>2026-04-04T08:30:25Z</time></trkpt><trkpt lat="40.59740595161049" lon="9.751291734126477"><ele>-0.3333333333333333</ele><time>2026-04-04T08:30:26Z</time></trkpt><trkpt lat="40.59724877880912" lon="9.751414626498505"><ele>0.0</ele><time>2026-04-04T08:30:27Z</time></trkpt><trkpt lat="40.59707943147174" lon="9.751548738269115"><ele>0.0</ele><time>2026-04-04T08:30:28Z</time></trkpt><trkpt lat="40.596895508294516" lon="9.75169308436226"><ele>0.0</ele><time>2026-04-04T08:30:29Z</time></trkpt><trkpt lat="40.596723201717666" lon="9.751829044121418"><ele>0.0</ele><time>2026-04-04T08:30:30Z</time></trkpt><trkpt lat="40.59656461900491" lon="9.751954560236777"><ele>0.0</ele><time>2026-04-04T08:30:31Z</time></trkpt><trkpt lat="40.5964088310106" lon="9.752078262104842"><ele>0.0</ele><time>2026-04-04T08:30:32Z</time></trkpt><trkpt lat="40.59625174948849" lon="9.752203649465722"><ele>0.0</ele><time>2026-04-04T08:30:33Z</time></trkpt><trkpt lat="40.596091827403136" lon="9.752331091100578"><ele>0.0</ele><time>2026-04-04T08:30:34Z</time></trkpt><trkpt lat="40.59592921930069" lon="9.752459396762458"><ele>0.0</ele><time>2026-04-04T08:30:35Z</time></trkpt><trkpt lat="40.595764928390494" lon="9.752588203691907"><ele>0.0</ele><time>2026-04-04T08:30:36Z</time></trkpt><trkpt lat="40.59559714160718" lon="9.752719953746283"><ele>0.0</ele><time>2026-04-04T08:30:37Z</time></trkpt><trkpt lat="40.595429232605646" lon="9.752854893839537"><ele>0.0</ele><time>2026-04-04T08:30:38Z</time></trkpt><trkpt lat="40.59526363799092" lon="9.752990072179614"><ele>0.0</ele><time>2026-04-04T08:30:39Z</time></trkpt><trkpt lat="40.595104121936984" lon="9.753116553580927"><ele>0.0</ele><time>2026-04-04T08:30:40Z</time></trkpt><trkpt lat="40.59495041225668" lon="9.753236975465926"><ele>0.0</ele><time>2026-04-04T08:30:41Z</time></trkpt><trkpt lat="40.594794597207084" lon="9.753358084560704"><ele>0.0</ele><time>2026-04-04T08:30:42Z</time></trkpt><trkpt lat="40.59463889004426" lon="9.753476618128355"><ele>0.0</ele><time>2026-04-04T08:30:43Z</time></trkpt><trkpt lat="40.59447737934193" lon="9.753598057709837"><ele>0.0</ele><time>2026-04-04T08:30:44Z</time></trkpt><trkpt lat="40.59430764477738" lon="9.753715941850093"><ele>0.0</ele><time>2026-04-04T08:30:45Z</time></trkpt><trkpt lat="40.59413405644446" lon="9.753830163959153"><ele>0.0</ele><time>2026-04-04T08:30:46Z</time></trkpt><trkpt lat="40.59395817732187" lon="9.753946253612792"><ele>0.0</ele><time>2026-04-04T08:30:47Z</time></trkpt><trkpt lat="40.593777743407465" lon="9.754062967735544"><ele>0.0</ele><time>2026-04-04T08:30:48Z</time></trkpt><trkpt lat="40.593594155097925" lon="9.75418303788574"><ele>0.0</ele><time>2026-04-04T08:30:49Z</time></trkpt><trkpt lat="40.593408940426905" lon="9.754303560029715"><ele>0.0</ele><time>2026-04-04T08:30:50Z</time></trkpt><trkpt lat="40.59322262891729" lon="9.754424882709248"><ele>0.0</ele><time>2026-04-04T08:30:51Z</time></trkpt><trkpt lat="40.593032687861815" lon="9.754547610136393"><ele>0.0</ele><time>2026-04-04T08:30:52Z</time></trkpt><trkpt lat="40.59284136278816" lon="9.754672266801707"><ele>0.0</ele><time>2026-04-04T08:30:53Z</time></trkpt><trkpt lat="40.59264680448749" lon="9.75479775095932"><ele>0.0</ele><time>2026-04-04T08:30:54Z</time></trkpt><trkpt lat="40.59245221730108" lon="9.754922513834439"><ele>0.3333333333333333</ele><time>2026-04-04T08:30:55Z</time></trkpt><trkpt lat="40.59225838620246" lon="9.755046671412218"><ele>0.6666666666666666</ele><time>2026-04-04T08:30:56Z</time></trkpt><trkpt lat="40.5920763233599" lon="9.755158163827826"><ele>1.0</ele><time>2026-04-04T08:30:57Z</time></trkpt><trkpt lat="40.591897347835626" lon="9.755259930978374"><ele>1.0</ele><time>2026-04-04T08:30:58Z</time></trkpt><trkpt lat="40.591715535561164" lon="9.755347801246826"><ele>1.0</ele><time>2026-04-04T08:30:59Z</time></trkpt><trkpt lat="40.591524100540525" lon="9.75542965556185"><ele>1.0</ele><time>2026-04-04T08:31:00Z</time></trkpt><trkpt lat="40.59133484957648" lon="9.755508126062635"><ele>0.0</ele><time>2026-04-04T08:31:01Z</time></trkpt><trkpt lat="40.591144367600606" lon="9.755588528913547"><ele>-1.0</ele><time>2026-04-04T08:31:02Z</time></trkpt><trkpt lat="40.59095586716" lon="9.755666303105473"><ele>-2.0</ele><time>2026-04-04T08:31:03Z</time></trkpt><trkpt lat="40.59075886562074" lon="9.755747885386496"><ele>-2.0</ele><time>2026-04-04T08:31:04Z</time></trkpt><trkpt lat="40.5905688910147" lon="9.75582910105339"><ele>-2.0</ele><time>2026-04-04T08:31:05Z</time></trkpt><trkpt lat="40.59037167122978" lon="9.755916575187495"><ele>-2.0</ele><time>2026-04-04T08:31:06Z</time></trkpt><trkpt lat="40.59017338191498" lon="9.75600598217452"><ele>-1.3333333333333333</ele><time>2026-04-04T08:31:07Z</time></trkpt><trkpt lat="40.58997921171675" lon="9.756089850580338"><ele>-0.6666666666666666</ele><time>2026-04-04T08:31:08Z</time></trkpt><trkpt lat="40.58979001746821" lon="9.756169642544627"><ele>0.0</ele><time>2026-04-04T08:31:09Z</time></trkpt><trkpt lat="40.58960554529857" lon="9.756249176215112"><ele>-0.3333333333333333</ele><time>2026-04-04T08:31:10Z</time></trkpt><trkpt lat="40.589420673525716" lon="9.756327579338773"><ele>-0.6666666666666666</ele><time>2026-04-04T08:31:11Z</time></trkpt><trkpt lat="40.589242884056034" lon="9.756399821053423"><ele>-1.0</ele><time>2026-04-04T08:31:12Z</time></trkpt><trkpt lat="40.589064943072756" lon="9.756471961417335"><ele>-1.0</ele><time>2026-04-04T08:31:13Z</time></trkpt><trkpt lat="40.588889756091916" lon="9.75654660236361"><ele>-1.0</ele><time>2026-04-04T08:31:14Z</time></trkpt><trkpt lat="40.588713901287306" lon="9.756623607137985"><ele>-1.0</ele><time>2026-04-04T08:31:15Z</time></trkpt><trkpt lat="40.58852886828908" lon="9.756705123995003"><ele>-1.0</ele><time>2026-04-04T08:31:16Z</time></trkpt><trkpt lat="40.588344860784055" lon="9.756785257094466"><ele>-1.0</ele><time>2026-04-04T08:31:17Z</time></trkpt><trkpt lat="40.58815507150523" lon="9.75686554362337"><ele>-1.0</ele><time>2026-04-04T08:31:18Z</time></trkpt><trkpt lat="40.58796319529938" lon="9.756945573152128"><ele>-1.3333333333333333</ele><time>2026-04-04T08:31:19Z</time></trkpt><trkpt lat="40.58777817183355" lon="9.757022989049846"><ele>-1.6666666666666665</ele><time>2026-04-04T08:31:20Z</time></trkpt><trkpt lat="40.58760178233384" lon="9.757096048480477"><ele>-2.0</ele><time>2026-04-04T08:31:21Z</time></trkpt><trkpt lat="40.58742793638592" lon="9.757170572131162"><ele>-2.0</ele><time>2026-04-04T08:31:22Z</time></trkpt><trkpt lat="40.587242755377844" lon="9.757249897628725"><ele>-2.0</ele><time>2026-04-04T08:31:23Z</time></trkpt><trkpt lat="40.58705738165552" lon="9.757326610742908"><ele>-2.0</ele><time>2026-04-04T08:31:24Z</time></trkpt><trkpt lat="40.586871307279395" lon="9.757404825166203"><ele>-1.6666666666666665</ele><time>2026-04-04T08:31:25Z</time></trkpt><trkpt lat="40.58669049696841" lon="9.7574881090858"><ele>-1.3333333333333333</ele><time>2026-04-04T08:31:26Z</time></trkpt><trkpt lat="40.58649404575518" lon="9.757550726754326"><ele>-1.0</ele><time>2026-04-04T08:31:27Z</time></trkpt><trkpt lat="40.58630875316418" lon="9.757629336882673"><ele>-1.0</ele><time>2026-04-04T08:31:28Z</time></trkpt><trkpt lat="40.58613032505575" lon="9.757723924913869"><ele>-1.0</ele><time>2026-04-04T08:31:29Z</time></trkpt><trkpt lat="40.58594250429884" lon="9.757805789851163"><ele>-1.0</ele><time>2026-04-04T08:31:30Z</time></trkpt><trkpt lat="40.58575431747911" lon="9.757864556988151"><ele>-1.0</ele><time>2026-04-04T08:31:31Z</time></trkpt><trkpt lat="40.58557016387484" lon="9.757942683896186"><ele>-1.0</ele><time>2026-04-04T08:31:32Z</time></trkpt><trkpt lat="40.58539224558812" lon="9.758040701464704"><ele>-1.0</ele><time>2026-04-04T08:31:33Z</time></trkpt><trkpt lat="40.58521291300545" lon="9.758113374744962"><ele>-0.6666666666666666</ele><time>2026-04-04T08:31:34Z</time></trkpt><trkpt lat="40.58503413897863" lon="9.758187164282079"><ele>-0.3333333333333333</ele><time>2026-04-04T08:31:35Z</time></trkpt><trkpt lat="40.58486801572249" lon="9.758254528167372"><ele>0.0</ele><time>2026-04-04T08:31:36Z</time></trkpt><trkpt lat="40.58470831215164" lon="9.758327022099204"><ele>0.0</ele><time>2026-04-04T08:31:37Z</time></trkpt><trkpt lat="40.58454459720628" lon="9.758376518672955"><ele>0.0</ele><time>2026-04-04T08:31:38Z</time></trkpt><trkpt lat="40.5843786143417" lon="9.75844889792745"><ele>0.0</ele><time>2026-04-04T08:31:39Z</time></trkpt><trkpt lat="40.58421166738039" lon="9.758521697448145"><ele>2.6666666666666665</ele><time>2026-04-04T08:31:40Z</time></trkpt><trkpt lat="40.58404920303666" lon="9.758611932691538"><ele>5.333333333333333</ele><time>2026-04-04T08:31:41Z</time></trkpt><trkpt lat="40.58388249098786" lon="9.758680836982823"><ele>8.0</ele><time>2026-04-04T08:31:42Z</time></trkpt><trkpt lat="40.58372103130565" lon="9.758752013959272"><ele>8.75</ele><time>2026-04-04T08:31:43Z</time></trkpt><trkpt lat="40.58358521172451" lon="9.758818375983642"><ele>9.5</ele><time>2026-04-04T08:31:44Z</time></trkpt><trkpt lat="40.58344467603606" lon="9.75887615538679"><ele>10.25</ele><time>2026-04-04T08:31:45Z</time></trkpt><trkpt lat="40.58333380885636" lon="9.758926367435304"><ele>11.0</ele><time>2026-04-04T08:31:46Z</time></trkpt><trkpt lat="40.5832377721893" lon="9.758967567941705"><ele>11.0</ele><time>2026-04-04T08:31:47Z</time></trkpt><trkpt lat="40.583169152538396" lon="9.758996700414633"><ele>11.0</ele><time>2026-04-04T08:31:48Z</time></trkpt><trkpt lat="40.583076183215574" lon="9.75900666691439"><ele>11.0</ele><time>2026-04-04T08:31:50Z</time></trkpt><trkpt lat="40.58300270282823" lon="9.759004765188172"><ele>11.0</ele><time>2026-04-04T08:31:52Z</time></trkpt><trkpt lat="40.582941148981945" lon="9.759027458645326"><ele>11.0</ele><time>2026-04-04T08:31:54Z</time></trkpt><trkpt lat="40.58287152556777" lon="9.759134138504681"><ele>11.0</ele><time>2026-04-04T08:31:56Z</time></trkpt><trkpt lat="40.58283952316606" lon="9.759249731900614"><ele>11.75</ele><time>2026-04-04T08:31:57Z</time></trkpt><trkpt lat="40.58279725312365" lon="9.759396342945449"><ele>12.5</ele><time>2026-04-04T08:31:58Z</time></trkpt><trkpt lat="40.582741234552124" lon="9.759544243037814"><ele>13.25</ele><time>2026-04-04T08:31:59Z</time></trkpt><trkpt lat="40.582687637617724" lon="9.759685925187366"><ele>14.0</ele><time>2026-04-04T08:32:00Z</time></trkpt><trkpt lat="40.58262006404135" lon="9.759863872568761"><ele>14.0</ele><time>2026-04-04T08:32:01Z</time></trkpt><trkpt lat="40.5825525135425" lon="9.760046112230063"><ele>14.0</ele><time>2026-04-04T08:32:02Z</time></trkpt><trkpt lat="40.582485958310386" lon="9.760216477251362"><ele>14.0</ele><time>2026-04-04T08:32:03Z</time></trkpt><trkpt lat="40.58241791264891" lon="9.760404454054038"><ele>12.333333333333334</ele><time>2026-04-04T08:32:04Z</time></trkpt><trkpt lat="40.58234368490516" lon="9.760597243711052"><ele>10.666666666666668</ele><time>2026-04-04T08:32:05Z</time></trkpt><trkpt lat="40.58227259099385" lon="9.760782171555649"><ele>9.0</ele><time>2026-04-04T08:32:06Z</time></trkpt><trkpt lat="40.58221080770201" lon="9.760961538822693"><ele>8.75</ele><time>2026-04-04T08:32:07Z</time></trkpt><trkpt lat="40.58215488600945" lon="9.761129208214802"><ele>8.5</ele><time>2026-04-04T08:32:08Z</time></trkpt><trkpt lat="40.58209594718465" lon="9.76128701743942"><ele>8.25</ele><time>2026-04-04T08:32:09Z</time></trkpt><trkpt lat="40.582024938328644" lon="9.76143468037193"><ele>8.0</ele><time>2026-04-04T08:32:10Z</time></trkpt><trkpt lat="40.581954442369096" lon="9.761594029814354"><ele>9.333333333333332</ele><time>2026-04-04T08:32:11Z</time></trkpt><trkpt lat="40.58189470996125" lon="9.761755708467676"><ele>10.666666666666666</ele><time>2026-04-04T08:32:12Z</time></trkpt><trkpt lat="40.5818259251068" lon="9.761934066185761"><ele>12.0</ele><time>2026-04-04T08:32:13Z</time></trkpt><trkpt lat="40.581746204036506" lon="9.762121027708805"><ele>12.0</ele><time>2026-04-04T08:32:14Z</time></trkpt><trkpt lat="40.58166420441148" lon="9.762326499221187"><ele>12.0</ele><time>2026-04-04T08:32:15Z</time></trkpt><trkpt lat="40.58158116381131" lon="9.762549220461453"><ele>12.0</ele><time>2026-04-04T08:32:16Z</time></trkpt><trkpt lat="40.58149186639782" lon="9.76276945360961"><ele>11.666666666666666</ele><time>2026-04-04T08:32:17Z</time></trkpt><trkpt lat="40.58141894337105" lon="9.76295832382835"><ele>11.333333333333332</ele><time>2026-04-04T08:32:18Z</time></trkpt><trkpt lat="40.581350508215564" lon="9.763132487634481"><ele>11.0</ele><time>2026-04-04T08:32:19Z</time></trkpt><trkpt lat="40.58128714002258" lon="9.76330457359684"><ele>11.0</ele><time>2026-04-04T08:32:20Z</time></trkpt><trkpt lat="40.58122895703417" lon="9.763456114292383"><ele>11.0</ele><time>2026-04-04T08:32:21Z</time></trkpt><trkpt lat="40.58116696152872" lon="9.76358506803326"><ele>11.0</ele><time>2026-04-04T08:32:22Z</time></trkpt><trkpt lat="40.58108713806835" lon="9.76367873571333"><ele>11.0</ele><time>2026-04-04T08:32:23Z</time></trkpt><trkpt lat="40.58096852981911" lon="9.763720672234872"><ele>10.666666666666666</ele><time>2026-04-04T08:32:24Z</time></trkpt><trkpt lat="40.58083128467139" lon="9.76371181233643"><ele>10.333333333333334</ele><time>2026-04-04T08:32:25Z</time></trkpt><trkpt lat="40.580676857727056" lon="9.763686560150852"><ele>10.0</ele><time>2026-04-04T08:32:26Z</time></trkpt><trkpt lat="40.5804977054922" lon="9.763656507100922"><ele>9.333333333333334</ele><time>2026-04-04T08:32:27Z</time></trkpt><trkpt lat="40.580296078827786" lon="9.763620296656875"><ele>8.666666666666666</ele><time>2026-04-04T08:32:28Z</time></trkpt><trkpt lat="40.58009950074585" lon="9.76358620375384"><ele>8.0</ele><time>2026-04-04T08:32:29Z</time></trkpt><trkpt lat="40.57990619742612" lon="9.763556630193584"><ele>9.333333333333332</ele><time>2026-04-04T08:32:30Z</time></trkpt><trkpt lat="40.579703044093904" lon="9.763520829807275"><ele>10.666666666666666</ele><time>2026-04-04T08:32:31Z</time></trkpt><trkpt lat="40.57947553628823" lon="9.763482180085177"><ele>12.0</ele><time>2026-04-04T08:32:32Z</time></trkpt><trkpt lat="40.579227876403074" lon="9.763440758601446"><ele>12.0</ele><time>2026-04-04T08:32:33Z</time></trkpt><trkpt lat="40.578955213727646" lon="9.76339571245811"><ele>12.0</ele><time>2026-04-04T08:32:34Z</time></trkpt><trkpt lat="40.57871357919271" lon="9.763353798483482"><ele>10.666666666666666</ele><time>2026-04-04T08:32:35Z</time></trkpt><trkpt lat="40.57850153898311" lon="9.763339672886353"><ele>9.333333333333332</ele><time>2026-04-04T08:32:36Z</time></trkpt><trkpt lat="40.5783093703005" lon="9.763304007655782"><ele>8.0</ele><time>2026-04-04T08:32:37Z</time></trkpt><trkpt lat="40.578124772108296" lon="9.763272479150524"><ele>8.0</ele><time>2026-04-04T08:32:38Z</time></trkpt><trkpt lat="40.57794077000407" lon="9.763240919975148"><ele>8.0</ele><time>2026-04-04T08:32:39Z</time></trkpt><trkpt lat="40.577760070361556" lon="9.763209803843317"><ele>8.0</ele><time>2026-04-04T08:32:40Z</time></trkpt><trkpt lat="40.57757127797047" lon="9.763177723424494"><ele>7.333333333333333</ele><time>2026-04-04T08:32:41Z</time></trkpt><trkpt lat="40.57738017694019" lon="9.763145225257427"><ele>6.666666666666666</ele><time>2026-04-04T08:32:42Z</time></trkpt><trkpt lat="40.577177899099425" lon="9.763110178889892"><ele>6.0</ele><time>2026-04-04T08:32:43Z</time></trkpt><trkpt lat="40.57697616518722" lon="9.76307455568792"><ele>5.333333333333333</ele><time>2026-04-04T08:32:43.999Z</time></trkpt><trkpt lat="40.57677380904437" lon="9.763036684429258"><ele>4.666666666666666</ele><time>2026-04-04T08:32:44.999Z</time></trkpt><trkpt lat="40.57658637104808" lon="9.763002729737064"><ele>4.0</ele><time>2026-04-04T08:32:45.999Z</time></trkpt><trkpt lat="40.57641922080219" lon="9.76297387231517"><ele>4.0</ele><time>2026-04-04T08:32:46.999Z</time></trkpt><trkpt lat="40.576264442200745" lon="9.7629491494835"><ele>4.0</ele><time>2026-04-04T08:32:47.999Z</time></trkpt><trkpt lat="40.57611962777941" lon="9.76292343884094"><ele>4.0</ele><time>2026-04-04T08:32:48.999Z</time></trkpt><trkpt lat="40.575982330116595" lon="9.76290099122416"><ele>4.0</ele><time>2026-04-04T08:32:49.999Z</time></trkpt><trkpt lat="40.5758546447534" lon="9.76287593946042"><ele>4.2</ele><time>2026-04-04T08:32:50.999Z</time></trkpt><trkpt lat="40.57573628205375" lon="9.762855737052575"><ele>4.4</ele><time>2026-04-04T08:32:51.999Z</time></trkpt><trkpt lat="40.57562957166464" lon="9.762855714708731"><ele>4.6</ele><time>2026-04-04T08:32:53Z</time></trkpt><trkpt lat="40.57552662667293" lon="9.762907615675175"><ele>4.8</ele><time>2026-04-04T08:32:54Z</time></trkpt><trkpt lat="40.57544307261737" lon="9.762998440710147"><ele>5.0</ele><time>2026-04-04T08:32:55Z</time></trkpt><trkpt lat="40.57539866007326" lon="9.763124766085157"><ele>5.0</ele><time>2026-04-04T08:32:56Z</time></trkpt><trkpt lat="40.575366841661456" lon="9.763267913353157"><ele>5.0</ele><time>2026-04-04T08:32:57Z</time></trkpt><trkpt lat="40.57533357808417" lon="9.763411524272197"><ele>5.0</ele><time>2026-04-04T08:32:58Z</time></trkpt><trkpt lat="40.57530793331305" lon="9.763538128877382"><ele>5.0</ele><time>2026-04-04T08:32:59Z</time></trkpt><trkpt lat="40.575291899805976" lon="9.763658810002015"><ele>5.0</ele><time>2026-04-04T08:33:00Z</time></trkpt><trkpt lat="40.57534490651696" lon="9.763790394159235"><ele>5.0</ele><time>2026-04-04T08:33:01Z</time></trkpt><trkpt lat="40.575393175365754" lon="9.763920229897629"><ele>5.0</ele><time>2026-04-04T08:33:02Z</time></trkpt><trkpt lat="40.575438622328456" lon="9.764063248971276"><ele>5.0</ele><time>2026-04-04T08:33:03Z</time></trkpt><trkpt lat="40.57547276468376" lon="9.764224049978056"><ele>5.0</ele><time>2026-04-04T08:33:04Z</time></trkpt><trkpt lat="40.57548771956582" lon="9.764413039080072"><ele>5.25</ele><time>2026-04-04T08:33:05Z</time></trkpt><trkpt lat="40.57549826884399" lon="9.764602233301272"><ele>5.5</ele><time>2026-04-04T08:33:06Z</time></trkpt><trkpt lat="40.57550545413062" lon="9.764780350196151"><ele>5.75</ele><time>2026-04-04T08:33:07Z</time></trkpt><trkpt lat="40.5755138128614" lon="9.764954904253857"><ele>6.0</ele><time>2026-04-04T08:33:08Z</time></trkpt><trkpt lat="40.575525485696794" lon="9.765138135718534"><ele>6.5</ele><time>2026-04-04T08:33:09Z</time></trkpt><trkpt lat="40.575537159411645" lon="9.765315931027834"><ele>7.0</ele><time>2026-04-04T08:33:10Z</time></trkpt><trkpt lat="40.57554743135112" lon="9.765491943123054"><ele>7.5</ele><time>2026-04-04T08:33:11Z</time></trkpt><trkpt lat="40.57555900024639" lon="9.765669226277387"><ele>8.0</ele><time>2026-04-04T08:33:12Z</time></trkpt><trkpt lat="40.57556886896624" lon="9.765853865665836"><ele>9.666666666666666</ele><time>2026-04-04T08:33:13Z</time></trkpt><trkpt lat="40.57558193930219" lon="9.766043370070795"><ele>11.333333333333332</ele><time>2026-04-04T08:33:14Z</time></trkpt><trkpt lat="40.575597048220175" lon="9.766252356551128"><ele>13.0</ele><time>2026-04-04T08:33:15Z</time></trkpt><trkpt lat="40.575612978240514" lon="9.766471418869315"><ele>13.0</ele><time>2026-04-04T08:33:16Z</time></trkpt><trkpt lat="40.57563060550143" lon="9.76671314432411"><ele>13.0</ele><time>2026-04-04T08:33:17Z</time></trkpt><trkpt lat="40.575642715376816" lon="9.76696898186851"><ele>13.0</ele><time>2026-04-04T08:33:18Z</time></trkpt><trkpt lat="40.57564780678289" lon="9.767227927997109"><ele>13.666666666666666</ele><time>2026-04-04T08:33:19Z</time></trkpt><trkpt lat="40.575645874836006" lon="9.767485606601205"><ele>14.333333333333332</ele><time>2026-04-04T08:33:20Z</time></trkpt><trkpt lat="40.57564548475965" lon="9.767746478477834"><ele>15.0</ele><time>2026-04-04T08:33:21Z</time></trkpt><trkpt lat="40.575646957165546" lon="9.767992477503894"><ele>15.0</ele><time>2026-04-04T08:33:22Z</time></trkpt><trkpt lat="40.57565395552437" lon="9.768220126072316"><ele>15.0</ele><time>2026-04-04T08:33:23Z</time></trkpt><trkpt lat="40.57565606999962" lon="9.768425402352008"><ele>15.0</ele><time>2026-04-04T08:33:24Z</time></trkpt><trkpt lat="40.57565683504492" lon="9.768605787183441"><ele>15.0</ele><time>2026-04-04T08:33:25Z</time></trkpt><trkpt lat="40.57563535923384" lon="9.768777609818478"><ele>15.0</ele><time>2026-04-04T08:33:26Z</time></trkpt><trkpt lat="40.57558224814929" lon="9.768960040821266"><ele>15.0</ele><time>2026-04-04T08:33:27Z</time></trkpt><trkpt lat="40.57549575259308" lon="9.769157954570062"><ele>13.666666666666666</ele><time>2026-04-04T08:33:28Z</time></trkpt><trkpt lat="40.575407035951606" lon="9.769367415278817"><ele>12.333333333333332</ele><time>2026-04-04T08:33:29Z</time></trkpt><trkpt lat="40.57532464785973" lon="9.769620011703905"><ele>11.0</ele><time>2026-04-04T08:33:30Z</time></trkpt><trkpt lat="40.575243315841306" lon="9.769892025687312"><ele>14.666666666666666</ele><time>2026-04-04T08:33:31Z</time></trkpt><trkpt lat="40.57516326616846" lon="9.770155925911954"><ele>18.333333333333332</ele><time>2026-04-04T08:33:32Z</time></trkpt><trkpt lat="40.57508836277258" lon="9.770403421997155"><ele>22.0</ele><time>2026-04-04T08:33:33Z</time></trkpt><trkpt lat="40.575013426616636" lon="9.770654294571232"><ele>22.0</ele><time>2026-04-04T08:33:34Z</time></trkpt><trkpt lat="40.574935407826956" lon="9.77089967869713"><ele>22.0</ele><time>2026-04-04T08:33:35Z</time></trkpt><trkpt lat="40.57484950997856" lon="9.771141538918723"><ele>22.0</ele><time>2026-04-04T08:33:36Z</time></trkpt><trkpt lat="40.574756219601966" lon="9.771370675308944"><ele>23.0</ele><time>2026-04-04T08:33:37Z</time></trkpt><trkpt lat="40.57464652308767" lon="9.77158606372528"><ele>24.0</ele><time>2026-04-04T08:33:38Z</time></trkpt><trkpt lat="40.574514100584906" lon="9.771799784690527"><ele>25.0</ele><time>2026-04-04T08:33:39Z</time></trkpt><trkpt lat="40.57437812858993" lon="9.772014995757718"><ele>25.0</ele><time>2026-04-04T08:33:40Z</time></trkpt><trkpt lat="40.574245344641454" lon="9.772227461543139"><ele>25.0</ele><time>2026-04-04T08:33:41Z</time></trkpt><trkpt lat="40.57412589737891" lon="9.772417406175105"><ele>25.0</ele><time>2026-04-04T08:33:42Z</time></trkpt><trkpt lat="40.574015418185674" lon="9.772570175717455"><ele>25.0</ele><time>2026-04-04T08:33:43Z</time></trkpt><trkpt lat="40.57390886338774" lon="9.772688712924987"><ele>25.0</ele><time>2026-04-04T08:33:44Z</time></trkpt><trkpt lat="40.57382388434199" lon="9.77279003209201"><ele>25.0</ele><time>2026-04-04T08:33:45Z</time></trkpt><trkpt lat="40.57377545904125" lon="9.772918976007087"><ele>25.0</ele><time>2026-04-04T08:33:46Z</time></trkpt><trkpt lat="40.57374428812736" lon="9.773071062234761"><ele>24.0</ele><time>2026-04-04T08:33:47Z</time></trkpt><trkpt lat="40.573783091169005" lon="9.773256652551506"><ele>23.0</ele><time>2026-04-04T08:33:48Z</time></trkpt><trkpt lat="40.5738133133787" lon="9.773454891946491"><ele>22.0</ele><time>2026-04-04T08:33:49Z</time></trkpt><trkpt lat="40.57384132618993" lon="9.773657511390747"><ele>23.75</ele><time>2026-04-04T08:33:50Z</time></trkpt><trkpt lat="40.57387563598494" lon="9.773833002690505"><ele>25.5</ele><time>2026-04-04T08:33:51Z</time></trkpt><trkpt lat="40.57394519566966" lon="9.77396437520422"><ele>27.25</ele><time>2026-04-04T08:33:52Z</time></trkpt><trkpt lat="40.574040355165494" lon="9.774057758035685"><ele>29.0</ele><time>2026-04-04T08:33:52.999Z</time></trkpt><trkpt lat="40.574162107529915" lon="9.774097785865838"><ele>29.0</ele><time>2026-04-04T08:33:53.999Z</time></trkpt><trkpt lat="40.574289083577575" lon="9.774092253122488"><ele>29.0</ele><time>2026-04-04T08:33:54.999Z</time></trkpt><trkpt lat="40.57441094954339" lon="9.774044156652616"><ele>29.0</ele><time>2026-04-04T08:33:55.999Z</time></trkpt><trkpt lat="40.57450803043896" lon="9.77403293482355"><ele>29.0</ele><time>2026-04-04T08:33:56.999Z</time></trkpt><trkpt lat="40.57460916406621" lon="9.774088245849857"><ele>29.0</ele><time>2026-04-04T08:33:57.999Z</time></trkpt><trkpt lat="40.574705092488585" lon="9.774207569818312"><ele>29.0</ele><time>2026-04-04T08:33:58.999Z</time></trkpt><trkpt lat="40.574773643906276" lon="9.774350605122898"><ele>29.0</ele><time>2026-04-04T08:33:59.999Z</time></trkpt><trkpt lat="40.57482430960767" lon="9.774514477211563"><ele>29.0</ele><time>2026-04-04T08:34:00.999Z</time></trkpt><trkpt lat="40.57485839805468" lon="9.774690236627462"><ele>29.0</ele><time>2026-04-04T08:34:01.999Z</time></trkpt><trkpt lat="40.57485764551062" lon="9.774871312097435"><ele>29.0</ele><time>2026-04-04T08:34:02.999Z</time></trkpt><trkpt lat="40.57480543591564" lon="9.775052870795532"><ele>29.0</ele><time>2026-04-04T08:34:03.999Z</time></trkpt><trkpt lat="40.57474035894246" lon="9.775228610260854"><ele>29.0</ele><time>2026-04-04T08:34:04.999Z</time></trkpt><trkpt lat="40.57469614522125" lon="9.775415817274634"><ele>30.25</ele><time>2026-04-04T08:34:05.999Z</time></trkpt><trkpt lat="40.57468718404695" lon="9.775601148479538"><ele>31.5</ele><time>2026-04-04T08:34:06.999Z</time></trkpt><trkpt lat="40.57471768027861" lon="9.775780062322928"><ele>32.75</ele><time>2026-04-04T08:34:07.999Z</time></trkpt><trkpt lat="40.57478082580917" lon="9.775957248419417"><ele>34.0</ele><time>2026-04-04T08:34:08.999Z</time></trkpt><trkpt lat="40.574869846357494" lon="9.776147608051883"><ele>36.66666666666667</ele><time>2026-04-04T08:34:09.999Z</time></trkpt><trkpt lat="40.574951299929374" lon="9.776338071537426"><ele>39.333333333333336</ele><time>2026-04-04T08:34:10.999Z</time></trkpt><trkpt lat="40.57502083941711" lon="9.776520760621118"><ele>42.0</ele><time>2026-04-04T08:34:11.999Z</time></trkpt><trkpt lat="40.57509368884934" lon="9.77671374209294"><ele>44.0</ele><time>2026-04-04T08:34:12.999Z</time></trkpt><trkpt lat="40.57517552234711" lon="9.77692277359196"><ele>46.0</ele><time>2026-04-04T08:34:13.999Z</time></trkpt><trkpt lat="40.575258221967" lon="9.777129277428685"><ele>48.0</ele><time>2026-04-04T08:34:14.999Z</time></trkpt><trkpt lat="40.57533182775543" lon="9.777314597428692"><ele>45.0</ele><time>2026-04-04T08:34:15.999Z</time></trkpt><trkpt lat="40.57539310118741" lon="9.777487585282554"><ele>42.0</ele><time>2026-04-04T08:34:16.999Z</time></trkpt><trkpt lat="40.575424338176774" lon="9.777657928798508"><ele>39.0</ele><time>2026-04-04T08:34:17.999Z</time></trkpt><trkpt lat="40.57541420693789" lon="9.777830560074458"><ele>36.0</ele><time>2026-04-04T08:34:18.999Z</time></trkpt><trkpt lat="40.575371424238305" lon="9.778007629749517"><ele>38.0</ele><time>2026-04-04T08:34:19.999Z</time></trkpt><trkpt lat="40.57527475660009" lon="9.778170924740166"><ele>40.0</ele><time>2026-04-04T08:34:20.999Z</time></trkpt><trkpt lat="40.575183488042306" lon="9.77835318436253"><ele>42.0</ele><time>2026-04-04T08:34:21.999Z</time></trkpt><trkpt lat="40.57508888222447" lon="9.778513287609025"><ele>35.0</ele><time>2026-04-04T08:34:22.999Z</time></trkpt><trkpt lat="40.57499651364459" lon="9.778671485234003"><ele>28.0</ele><time>2026-04-04T08:34:23.999Z</time></trkpt><trkpt lat="40.57488746980404" lon="9.77881346964316"><ele>21.0</ele><time>2026-04-04T08:34:24.999Z</time></trkpt><trkpt lat="40.57476380202432" lon="9.778913185131316"><ele>21.0</ele><time>2026-04-04T08:34:25.999Z</time></trkpt><trkpt lat="40.57461878379427" lon="9.778939868484226"><ele>21.0</ele><time>2026-04-04T08:34:26.999Z</time></trkpt><trkpt lat="40.57445650760849" lon="9.778963969100985"><ele>21.0</ele><time>2026-04-04T08:34:27.999Z</time></trkpt><trkpt lat="40.574275795422864" lon="9.779020442485146"><ele>23.333333333333336</ele><time>2026-04-04T08:34:28.999Z</time></trkpt><trkpt lat="40.574069136976306" lon="9.779069422647968"><ele>25.666666666666668</ele><time>2026-04-04T08:34:29.999Z</time></trkpt><trkpt lat="40.57384447610793" lon="9.77913277985791"><ele>28.0</ele><time>2026-04-04T08:34:30.999Z</time></trkpt><trkpt lat="40.57362843218544" lon="9.77918498881589"><ele>30.333333333333336</ele><time>2026-04-04T08:34:31.999Z</time></trkpt><trkpt lat="40.573435346358046" lon="9.77923352386955"><ele>32.666666666666664</ele><time>2026-04-04T08:34:32.999Z</time></trkpt><trkpt lat="40.57325393171682" lon="9.779302066556932"><ele>35.0</ele><time>2026-04-04T08:34:33.999Z</time></trkpt><trkpt lat="40.573075272791655" lon="9.779410925302223"><ele>32.666666666666664</ele><time>2026-04-04T08:34:34.999Z</time></trkpt><trkpt lat="40.5729093992595" lon="9.779548597535944"><ele>30.333333333333336</ele><time>2026-04-04T08:34:35.999Z</time></trkpt><trkpt lat="40.57276208974163" lon="9.779696827848902"><ele>28.0</ele><time>2026-04-04T08:34:36.999Z</time></trkpt><trkpt lat="40.57263626891288" lon="9.779843745595688"><ele>28.0</ele><time>2026-04-04T08:34:37.999Z</time></trkpt><trkpt lat="40.57253467146654" lon="9.780001757493373"><ele>28.0</ele><time>2026-04-04T08:34:38.999Z</time></trkpt><trkpt lat="40.57245852232738" lon="9.780197809409906"><ele>28.0</ele><time>2026-04-04T08:34:39.999Z</time></trkpt><trkpt lat="40.572397428770316" lon="9.7804221828124"><ele>25.0</ele><time>2026-04-04T08:34:40.999Z</time></trkpt><trkpt lat="40.572360638600685" lon="9.780676981378662"><ele>22.0</ele><time>2026-04-04T08:34:41.999Z</time></trkpt><trkpt lat="40.57233801712584" lon="9.78094062574574"><ele>19.0</ele><time>2026-04-04T08:34:42.999Z</time></trkpt><trkpt lat="40.572324414983775" lon="9.781167028251458"><ele>19.0</ele><time>2026-04-04T08:34:43.999Z</time></trkpt><trkpt lat="40.57229818189046" lon="9.781363738606217"><ele>19.0</ele><time>2026-04-04T08:34:44.999Z</time></trkpt><trkpt lat="40.57224785300095" lon="9.78154202538983"><ele>19.0</ele><time>2026-04-04T08:34:45.999Z</time></trkpt><trkpt lat="40.572157055928606" lon="9.781697378629714"><ele>19.0</ele><time>2026-04-04T08:34:46.999Z</time></trkpt><trkpt lat="40.57202101337786" lon="9.781820833206288"><ele>17.0</ele><time>2026-04-04T08:34:47.999Z</time></trkpt><trkpt lat="40.57187809718419" lon="9.781974745646895"><ele>15.0</ele><time>2026-04-04T08:34:48.999Z</time></trkpt><trkpt lat="40.571703332166344" lon="9.78211755546215"><ele>13.0</ele><time>2026-04-04T08:34:49.999Z</time></trkpt><trkpt lat="40.571519399371105" lon="9.782276781099297"><ele>13.0</ele><time>2026-04-04T08:34:50.999Z</time></trkpt><trkpt lat="40.57134427901894" lon="9.78243090198969"><ele>13.0</ele><time>2026-04-04T08:34:51.999Z</time></trkpt><trkpt lat="40.57116845998048" lon="9.782585119682615"><ele>13.0</ele><time>2026-04-04T08:34:52.999Z</time></trkpt><trkpt lat="40.57098147363312" lon="9.782744277873599"><ele>13.0</ele><time>2026-04-04T08:34:53.999Z</time></trkpt><trkpt lat="40.5707856531897" lon="9.78291480205804"><ele>13.0</ele><time>2026-04-04T08:34:54.999Z</time></trkpt><trkpt lat="40.57058035610159" lon="9.78309728042592"><ele>13.0</ele><time>2026-04-04T08:34:55.999Z</time></trkpt><trkpt lat="40.57037301426356" lon="9.78328183146147"><ele>13.0</ele><time>2026-04-04T08:34:56.999Z</time></trkpt><trkpt lat="40.57017621941235" lon="9.783450083915765"><ele>13.5</ele><time>2026-04-04T08:34:57.999Z</time></trkpt><trkpt lat="40.56998404792211" lon="9.783625055161842"><ele>14.0</ele><time>2026-04-04T08:34:59Z</time></trkpt><trkpt lat="40.569795949466666" lon="9.783827937071342"><ele>14.0</ele><time>2026-04-04T08:35:00Z</time></trkpt><trkpt lat="40.569625957627764" lon="9.784065723449723"><ele>14.0</ele><time>2026-04-04T08:35:01Z</time></trkpt><trkpt lat="40.56947893949704" lon="9.78433212880136"><ele>18.5</ele><time>2026-04-04T08:35:02Z</time></trkpt><trkpt lat="40.569313332631985" lon="9.78458010388418"><ele>23.0</ele><time>2026-04-04T08:35:03Z</time></trkpt><trkpt lat="40.56912561735528" lon="9.784798968452174"><ele>23.0</ele><time>2026-04-04T08:35:04Z</time></trkpt><trkpt lat="40.56892673135312" lon="9.785012973595153"><ele>23.0</ele><time>2026-04-04T08:35:05Z</time></trkpt><trkpt lat="40.56875565344865" lon="9.785222763113874"><ele>24.333333333333336</ele><time>2026-04-04T08:35:06Z</time></trkpt><trkpt lat="40.56861140587399" lon="9.785408254695803"><ele>25.666666666666668</ele><time>2026-04-04T08:35:07Z</time></trkpt><trkpt lat="40.56847649754621" lon="9.785552667626787"><ele>27.0</ele><time>2026-04-04T08:35:08Z</time></trkpt><trkpt lat="40.56833934915184" lon="9.785670445948313"><ele>27.0</ele><time>2026-04-04T08:35:09Z</time></trkpt><trkpt lat="40.56818666212244" lon="9.785774214954001"><ele>27.0</ele><time>2026-04-04T08:35:10Z</time></trkpt><trkpt lat="40.56803453649247" lon="9.78587733842433"><ele>27.0</ele><time>2026-04-04T08:35:11Z</time></trkpt><trkpt lat="40.56787465652404" lon="9.785991528520535"><ele>25.0</ele><time>2026-04-04T08:35:12Z</time></trkpt><trkpt lat="40.56769682737069" lon="9.786116785590288"><ele>23.0</ele><time>2026-04-04T08:35:13Z</time></trkpt><trkpt lat="40.567511852166724" lon="9.786244748507995"><ele>21.0</ele><time>2026-04-04T08:35:14Z</time></trkpt><trkpt lat="40.56731668839927" lon="9.786376544232555"><ele>21.0</ele><time>2026-04-04T08:35:15Z</time></trkpt><trkpt lat="40.56711569878939" lon="9.78651344978144"><ele>21.0</ele><time>2026-04-04T08:35:16Z</time></trkpt><trkpt lat="40.56690482825393" lon="9.786660378094252"><ele>19.0</ele><time>2026-04-04T08:35:17Z</time></trkpt><trkpt lat="40.56669828132504" lon="9.786807146448158"><ele>17.0</ele><time>2026-04-04T08:35:18Z</time></trkpt><trkpt lat="40.566485992426074" lon="9.78695604014773"><ele>16.5</ele><time>2026-04-04T08:35:19Z</time></trkpt><trkpt lat="40.56627371335194" lon="9.787105517676242"><ele>16.0</ele><time>2026-04-04T08:35:20Z</time></trkpt><trkpt lat="40.56606261983914" lon="9.787253054428382"><ele>13.0</ele><time>2026-04-04T08:35:21Z</time></trkpt><trkpt lat="40.56584912097348" lon="9.787401829356279"><ele>10.0</ele><time>2026-04-04T08:35:22Z</time></trkpt><trkpt lat="40.56562684946637" lon="9.787557441903392"><ele>10.0</ele><time>2026-04-04T08:35:23Z</time></trkpt><trkpt lat="40.56540089388664" lon="9.787715823169865"><ele>10.0</ele><time>2026-04-04T08:35:24Z</time></trkpt><trkpt lat="40.56517255946065" lon="9.787877189722172"><ele>10.0</ele><time>2026-04-04T08:35:25Z</time></trkpt><trkpt lat="40.56494734497479" lon="9.788031809096928"><ele>10.0</ele><time>2026-04-04T08:35:26Z</time></trkpt><trkpt lat="40.56474512734556" lon="9.788172133054534"><ele>10.0</ele><time>2026-04-04T08:35:27Z</time></trkpt><trkpt lat="40.56455152081505" lon="9.78831126777322"><ele>10.0</ele><time>2026-04-04T08:35:28Z</time></trkpt><trkpt lat="40.564376883765185" lon="9.788460415867934"><ele>10.0</ele><time>2026-04-04T08:35:29Z</time></trkpt><trkpt lat="40.56421845936788" lon="9.788628757194603"><ele>10.666666666666668</ele><time>2026-04-04T08:35:30Z</time></trkpt><trkpt lat="40.564058322227375" lon="9.788802998080703"><ele>11.333333333333334</ele><time>2026-04-04T08:35:31Z</time></trkpt><trkpt lat="40.56388152875792" lon="9.788961030370308"><ele>12.0</ele><time>2026-04-04T08:35:32Z</time></trkpt><trkpt lat="40.56368372572552" lon="9.789097368860421"><ele>13.5</ele><time>2026-04-04T08:35:33Z</time></trkpt><trkpt lat="40.56346342917462" lon="9.789214352299668"><ele>15.0</ele><time>2026-04-04T08:35:34Z</time></trkpt><trkpt lat="40.56323432573259" lon="9.789341320564207"><ele>15.5</ele><time>2026-04-04T08:35:35Z</time></trkpt><trkpt lat="40.5630048471113" lon="9.78948167565571"><ele>16.0</ele><time>2026-04-04T08:35:36Z</time></trkpt><trkpt lat="40.56278354898153" lon="9.789626340480146"><ele>16.0</ele><time>2026-04-04T08:35:37Z</time></trkpt><trkpt lat="40.5625844345225" lon="9.789766101105238"><ele>16.0</ele><time>2026-04-04T08:35:38Z</time></trkpt><trkpt lat="40.562412452289934" lon="9.789887855941476"><ele>16.0</ele><time>2026-04-04T08:35:39Z</time></trkpt><trkpt lat="40.5622488445895" lon="9.789988525640851"><ele>16.0</ele><time>2026-04-04T08:35:40Z</time></trkpt><trkpt lat="40.562074742539515" lon="9.790063621921716"><ele>16.0</ele><time>2026-04-04T08:35:41Z</time></trkpt><trkpt lat="40.56187464690393" lon="9.79009540665842"><ele>16.0</ele><time>2026-04-04T08:35:42Z</time></trkpt><trkpt lat="40.56166747855722" lon="9.790107274091017"><ele>16.333333333333332</ele><time>2026-04-04T08:35:43Z</time></trkpt><trkpt lat="40.56144657422143" lon="9.790091934652944"><ele>16.666666666666668</ele><time>2026-04-04T08:35:44Z</time></trkpt><trkpt lat="40.5612216412897" lon="9.790047882992745"><ele>17.0</ele><time>2026-04-04T08:35:45Z</time></trkpt><trkpt lat="40.560990893454594" lon="9.789973980178925"><ele>15.0</ele><time>2026-04-04T08:35:45.999Z</time></trkpt><trkpt lat="40.5607496861775" lon="9.789894973828876"><ele>13.0</ele><time>2026-04-04T08:35:46.999Z</time></trkpt><trkpt lat="40.56051272547825" lon="9.789809294476438"><ele>12.5</ele><time>2026-04-04T08:35:47.999Z</time></trkpt><trkpt lat="40.560291861858545" lon="9.789711321547248"><ele>12.0</ele><time>2026-04-04T08:35:48.999Z</time></trkpt><trkpt lat="40.56007028931273" lon="9.789592290947517"><ele>12.0</ele><time>2026-04-04T08:35:49.999Z</time></trkpt><trkpt lat="40.55985386096193" lon="9.789479669479814"><ele>12.0</ele><time>2026-04-04T08:35:50.999Z</time></trkpt><trkpt lat="40.559645333437544" lon="9.789391116167272"><ele>12.333333333333332</ele><time>2026-04-04T08:35:51.999Z</time></trkpt><trkpt lat="40.55944451705109" lon="9.789335905316737"><ele>12.666666666666666</ele><time>2026-04-04T08:35:52.999Z</time></trkpt><trkpt lat="40.55923320518232" lon="9.78930908296714"><ele>13.0</ele><time>2026-04-04T08:35:53.999Z</time></trkpt><trkpt lat="40.559019805969605" lon="9.789312285976584"><ele>13.0</ele><time>2026-04-04T08:35:54.999Z</time></trkpt><trkpt lat="40.55879481797013" lon="9.789315490114015"><ele>13.0</ele><time>2026-04-04T08:35:55.999Z</time></trkpt><trkpt lat="40.558576421646414" lon="9.789307487824129"><ele>13.0</ele><time>2026-04-04T08:35:56.999Z</time></trkpt><trkpt lat="40.55837664167502" lon="9.789292684063659"><ele>13.0</ele><time>2026-04-04T08:35:57.999Z</time></trkpt><trkpt lat="40.55819184869214" lon="9.789262412980838"><ele>13.0</ele><time>2026-04-04T08:35:58.999Z</time></trkpt><trkpt lat="40.558012317448224" lon="9.789204442927351"><ele>13.0</ele><time>2026-04-04T08:35:59.999Z</time></trkpt><trkpt lat="40.55782269356767" lon="9.789120531251193"><ele>12.333333333333332</ele><time>2026-04-04T08:36:00.999Z</time></trkpt><trkpt lat="40.557620031458555" lon="9.789024052874543"><ele>11.666666666666666</ele><time>2026-04-04T08:36:01.999Z</time></trkpt><trkpt lat="40.557409888025944" lon="9.788928497787618"><ele>11.0</ele><time>2026-04-04T08:36:02.999Z</time></trkpt><trkpt lat="40.55719008013952" lon="9.78883538976598"><ele>9.0</ele><time>2026-04-04T08:36:03.999Z</time></trkpt><trkpt lat="40.55696452137908" lon="9.788740285864646"><ele>7.0</ele><time>2026-04-04T08:36:04.999Z</time></trkpt><trkpt lat="40.556734697666485" lon="9.788642924373281"><ele>7.0</ele><time>2026-04-04T08:36:05.999Z</time></trkpt><trkpt lat="40.556510455982384" lon="9.788545693332946"><ele>7.0</ele><time>2026-04-04T08:36:06.999Z</time></trkpt><trkpt lat="40.55628207795462" lon="9.788455015407932"><ele>8.0</ele><time>2026-04-04T08:36:07.999Z</time></trkpt><trkpt lat="40.55605389103737" lon="9.788393222998609"><ele>9.0</ele><time>2026-04-04T08:36:08.999Z</time></trkpt><trkpt lat="40.55581531447127" lon="9.788359962816774"><ele>9.0</ele><time>2026-04-04T08:36:09.999Z</time></trkpt><trkpt lat="40.55557837025963" lon="9.788332580055721"><ele>9.0</ele><time>2026-04-04T08:36:10.999Z</time></trkpt><trkpt lat="40.555358880484434" lon="9.788303505686413"><ele>9.666666666666666</ele><time>2026-04-04T08:36:11.999Z</time></trkpt><trkpt lat="40.55516118133285" lon="9.788273461096903"><ele>10.333333333333332</ele><time>2026-04-04T08:36:12.999Z</time></trkpt><trkpt lat="40.55498336750083" lon="9.788237585545298"><ele>11.0</ele><time>2026-04-04T08:36:13.999Z</time></trkpt><trkpt lat="40.554818378923386" lon="9.788179833652194"><ele>11.0</ele><time>2026-04-04T08:36:14.999Z</time></trkpt><trkpt lat="40.55465642407427" lon="9.788086596259362"><ele>11.0</ele><time>2026-04-04T08:36:15.999Z</time></trkpt><trkpt lat="40.554480437818235" lon="9.787970937872128"><ele>11.0</ele><time>2026-04-04T08:36:16.999Z</time></trkpt><trkpt lat="40.55430009367284" lon="9.787848129624205"><ele>11.333333333333332</ele><time>2026-04-04T08:36:17.999Z</time></trkpt><trkpt lat="40.55410392536824" lon="9.787721879716322"><ele>11.666666666666666</ele><time>2026-04-04T08:36:18.999Z</time></trkpt><trkpt lat="40.55390106425812" lon="9.787597619052566"><ele>12.0</ele><time>2026-04-04T08:36:19.999Z</time></trkpt><trkpt lat="40.55369392297798" lon="9.787469997347863"><ele>9.0</ele><time>2026-04-04T08:36:20.999Z</time></trkpt><trkpt lat="40.55348031191576" lon="9.78733497899479"><ele>6.0</ele><time>2026-04-04T08:36:21.999Z</time></trkpt><trkpt lat="40.55327613220846" lon="9.787204175914734"><ele>6.0</ele><time>2026-04-04T08:36:22.999Z</time></trkpt><trkpt lat="40.553084640942764" lon="9.787079042239752"><ele>6.0</ele><time>2026-04-04T08:36:23.999Z</time></trkpt><trkpt lat="40.552904219585386" lon="9.78697205173538"><ele>6.0</ele><time>2026-04-04T08:36:24.999Z</time></trkpt><trkpt lat="40.552708235201976" lon="9.786898609608246"><ele>6.0</ele><time>2026-04-04T08:36:25.999Z</time></trkpt><trkpt lat="40.552498692384766" lon="9.786852529607769"><ele>6.0</ele><time>2026-04-04T08:36:26.999Z</time></trkpt><trkpt lat="40.552279451780635" lon="9.786812277375514"><ele>6.0</ele><time>2026-04-04T08:36:27.999Z</time></trkpt><trkpt lat="40.552066450361146" lon="9.786766188940375"><ele>6.666666666666666</ele><time>2026-04-04T08:36:28.999Z</time></trkpt><trkpt lat="40.5518738367918" lon="9.786717766817715"><ele>7.333333333333333</ele><time>2026-04-04T08:36:29.999Z</time></trkpt><trkpt lat="40.55170695980886" lon="9.78665424680006"><ele>8.0</ele><time>2026-04-04T08:36:30.999Z</time></trkpt><trkpt lat="40.5515623273971" lon="9.786518537249862"><ele>8.0</ele><time>2026-04-04T08:36:31.999Z</time></trkpt><trkpt lat="40.55141087536023" lon="9.786374092383754"><ele>8.0</ele><time>2026-04-04T08:36:32.999Z</time></trkpt><trkpt lat="40.551249894297584" lon="9.786223020135232"><ele>8.0</ele><time>2026-04-04T08:36:33.999Z</time></trkpt><trkpt lat="40.55107609449555" lon="9.786084987202091"><ele>7.333333333333333</ele><time>2026-04-04T08:36:34.999Z</time></trkpt><trkpt lat="40.55090997408435" lon="9.785957448934093"><ele>6.666666666666666</ele><time>2026-04-04T08:36:35.999Z</time></trkpt><trkpt lat="40.550734615524235" lon="9.785848286909193"><ele>6.0</ele><time>2026-04-04T08:36:36.999Z</time></trkpt><trkpt lat="40.550525538361796" lon="9.785811603320274"><ele>6.0</ele><time>2026-04-04T08:36:37.999Z</time></trkpt><trkpt lat="40.55031272083776" lon="9.785744354484489"><ele>6.0</ele><time>2026-04-04T08:36:38.999Z</time></trkpt><trkpt lat="40.55009350413976" lon="9.78569887660302"><ele>6.0</ele><time>2026-04-04T08:36:39.999Z</time></trkpt><trkpt lat="40.549895014047735" lon="9.785655066355165"><ele>6.0</ele><time>2026-04-04T08:36:40.999Z</time></trkpt><trkpt lat="40.54970864847059" lon="9.785591375740873"><ele>6.0</ele><time>2026-04-04T08:36:41.999Z</time></trkpt><trkpt lat="40.54952572115928" lon="9.785507416646839"><ele>6.0</ele><time>2026-04-04T08:36:42.999Z</time></trkpt><trkpt lat="40.54933729426464" lon="9.785416247624449"><ele>6.0</ele><time>2026-04-04T08:36:43.999Z</time></trkpt><trkpt lat="40.549155970873684" lon="9.78532678039868"><ele>6.0</ele><time>2026-04-04T08:36:44.999Z</time></trkpt><trkpt lat="40.548990101289014" lon="9.785244141370029"><ele>6.0</ele><time>2026-04-04T08:36:45.999Z</time></trkpt><trkpt lat="40.54883634987104" lon="9.785168445218375"><ele>6.333333333333334</ele><time>2026-04-04T08:36:46.999Z</time></trkpt><trkpt lat="40.54868777437663" lon="9.785095174591525"><ele>6.666666666666667</ele><time>2026-04-04T08:36:47.999Z</time></trkpt><trkpt lat="40.548540625898006" lon="9.785022607717918"><ele>7.0</ele><time>2026-04-04T08:36:48.999Z</time></trkpt><trkpt lat="40.548398349705735" lon="9.784952502223828"><ele>7.0</ele><time>2026-04-04T08:36:49.999Z</time></trkpt><trkpt lat="40.548250017583484" lon="9.784879418186883"><ele>7.0</ele><time>2026-04-04T08:36:50.999Z</time></trkpt><trkpt lat="40.54810214234391" lon="9.784806559257769"><ele>7.0</ele><time>2026-04-04T08:36:51.999Z</time></trkpt><trkpt lat="40.547945580386425" lon="9.78472942032956"><ele>8.0</ele><time>2026-04-04T08:36:52.999Z</time></trkpt><trkpt lat="40.54778232290834" lon="9.784648982493739"><ele>9.0</ele><time>2026-04-04T08:36:53.999Z</time></trkpt><trkpt lat="40.54760858808" lon="9.784563382398128"><ele>10.0</ele><time>2026-04-04T08:36:54.999Z</time></trkpt><trkpt lat="40.5474300672368" lon="9.784475424207391"><ele>10.0</ele><time>2026-04-04T08:36:55.999Z</time></trkpt><trkpt lat="40.54725933154022" lon="9.784391303247904"><ele>10.0</ele><time>2026-04-04T08:36:56.999Z</time></trkpt><trkpt lat="40.54708257257249" lon="9.784304941728472"><ele>10.0</ele><time>2026-04-04T08:36:57.999Z</time></trkpt><trkpt lat="40.54691721316734" lon="9.78422379452436"><ele>10.0</ele><time>2026-04-04T08:36:58.999Z</time></trkpt><trkpt lat="40.546746835343605" lon="9.784140184693223"><ele>10.0</ele><time>2026-04-04T08:36:59.999Z</time></trkpt><trkpt lat="40.54658024744993" lon="9.78405843471757"><ele>10.0</ele><time>2026-04-04T08:37:00.999Z</time></trkpt><trkpt lat="40.54641101269282" lon="9.783973495734099"><ele>10.0</ele><time>2026-04-04T08:37:01.999Z</time></trkpt><trkpt lat="40.54623807968424" lon="9.783886006770615"><ele>10.0</ele><time>2026-04-04T08:37:02.999Z</time></trkpt><trkpt lat="40.546070351105506" lon="9.783801814158247"><ele>10.0</ele><time>2026-04-04T08:37:03.999Z</time></trkpt><trkpt lat="40.54591021689444" lon="9.783721884183818"><ele>10.666666666666668</ele><time>2026-04-04T08:37:05Z</time></trkpt><trkpt lat="40.5457550976151" lon="9.783645161477521"><ele>11.333333333333334</ele><time>2026-04-04T08:37:06Z</time></trkpt><trkpt lat="40.54560079436077" lon="9.783568842335129"><ele>12.0</ele><time>2026-04-04T08:37:07Z</time></trkpt><trkpt lat="40.54544811098443" lon="9.783490598145105"><ele>11.666666666666666</ele><time>2026-04-04T08:37:08Z</time></trkpt><trkpt lat="40.54529458940829" lon="9.78341115697568"><ele>11.333333333333332</ele><time>2026-04-04T08:37:09Z</time></trkpt><trkpt lat="40.54514466947854" lon="9.783337154417758"><ele>11.0</ele><time>2026-04-04T08:37:10Z</time></trkpt><trkpt lat="40.544986645494305" lon="9.783277959817188"><ele>11.0</ele><time>2026-04-04T08:37:11Z</time></trkpt><trkpt lat="40.5448360774748" lon="9.78324812018492"><ele>11.0</ele><time>2026-04-04T08:37:12Z</time></trkpt><trkpt lat="40.54467607853579" lon="9.783255052423844"><ele>11.0</ele><time>2026-04-04T08:37:13Z</time></trkpt><trkpt lat="40.54451949842704" lon="9.783297949355736"><ele>10.333333333333332</ele><time>2026-04-04T08:37:14Z</time></trkpt><trkpt lat="40.544369353050385" lon="9.783382920382042"><ele>9.666666666666666</ele><time>2026-04-04T08:37:15Z</time></trkpt><trkpt lat="40.54421882734171" lon="9.783475210460555"><ele>9.0</ele><time>2026-04-04T08:37:16Z</time></trkpt><trkpt lat="40.54406070833109" lon="9.783573089351691"><ele>9.0</ele><time>2026-04-04T08:37:17Z</time></trkpt><trkpt lat="40.54389743924218" lon="9.783674906405873"><ele>9.0</ele><time>2026-04-04T08:37:18Z</time></trkpt><trkpt lat="40.543737064964915" lon="9.783774918228309"><ele>9.0</ele><time>2026-04-04T08:37:19Z</time></trkpt><trkpt lat="40.543575493164795" lon="9.7838756768582"><ele>7.0</ele><time>2026-04-04T08:37:20Z</time></trkpt><trkpt lat="40.54341637609675" lon="9.783974904667714"><ele>5.0</ele><time>2026-04-04T08:37:21Z</time></trkpt><trkpt lat="40.54326232905576" lon="9.784071012054563"><ele>3.0</ele><time>2026-04-04T08:37:22Z</time></trkpt><trkpt lat="40.54311166231827" lon="9.784163608290196"><ele>3.0</ele><time>2026-04-04T08:37:23Z</time></trkpt><trkpt lat="40.542958824681904" lon="9.784257559790845"><ele>3.0</ele><time>2026-04-04T08:37:24Z</time></trkpt><trkpt lat="40.54280135271557" lon="9.784355113976103"><ele>3.0</ele><time>2026-04-04T08:37:25Z</time></trkpt><trkpt lat="40.542639590206726" lon="9.784456659391747"><ele>4.333333333333334</ele><time>2026-04-04T08:37:26Z</time></trkpt><trkpt lat="40.54247292284214" lon="9.784562220584425"><ele>5.666666666666667</ele><time>2026-04-04T08:37:27Z</time></trkpt><trkpt lat="40.542303741650464" lon="9.78466937252778"><ele>7.0</ele><time>2026-04-04T08:37:28Z</time></trkpt><trkpt lat="40.542134162424965" lon="9.78477262836934"><ele>7.666666666666667</ele><time>2026-04-04T08:37:29Z</time></trkpt><trkpt lat="40.54197588646149" lon="9.784867571891812"><ele>8.333333333333334</ele><time>2026-04-04T08:37:30Z</time></trkpt><trkpt lat="40.54183207133441" lon="9.784959210379466"><ele>9.0</ele><time>2026-04-04T08:37:30.999Z</time></trkpt><trkpt lat="40.54169305391001" lon="9.785051705426076"><ele>9.0</ele><time>2026-04-04T08:37:31.999Z</time></trkpt><trkpt lat="40.54154840424484" lon="9.785148135181275"><ele>9.0</ele><time>2026-04-04T08:37:32.999Z</time></trkpt><trkpt lat="40.5414004810298" lon="9.785248866943514"><ele>9.0</ele><time>2026-04-04T08:37:33.999Z</time></trkpt><trkpt lat="40.54124541903963" lon="9.785354460061624"><ele>9.0</ele><time>2026-04-04T08:37:34.999Z</time></trkpt><trkpt lat="40.54109516210558" lon="9.785456781001916"><ele>9.0</ele><time>2026-04-04T08:37:35.999Z</time></trkpt><trkpt lat="40.54094410794228" lon="9.7855598078112"><ele>9.0</ele><time>2026-04-04T08:37:36.999Z</time></trkpt><trkpt lat="40.54079789788536" lon="9.78568434259067"><ele>9.0</ele><time>2026-04-04T08:37:37.999Z</time></trkpt><trkpt lat="40.54064126104851" lon="9.785787480038097"><ele>9.0</ele><time>2026-04-04T08:37:38.999Z</time></trkpt><trkpt lat="40.540483652901216" lon="9.78589410700267"><ele>9.0</ele><time>2026-04-04T08:37:39.999Z</time></trkpt><trkpt lat="40.54032905680804" lon="9.785998864273342"><ele>9.333333333333334</ele><time>2026-04-04T08:37:40.999Z</time></trkpt><trkpt lat="40.54016906783877" lon="9.786109800343405"><ele>9.666666666666668</ele><time>2026-04-04T08:37:41.999Z</time></trkpt><trkpt lat="40.54000581151681" lon="9.786223940339186"><ele>10.0</ele><time>2026-04-04T08:37:42.999Z</time></trkpt><trkpt lat="40.53983867549639" lon="9.78633988588103"><ele>10.0</ele><time>2026-04-04T08:37:43.999Z</time></trkpt><trkpt lat="40.53966325380238" lon="9.786460277408851"><ele>10.0</ele><time>2026-04-04T08:37:44.999Z</time></trkpt><trkpt lat="40.53949282884219" lon="9.786576803343054"><ele>10.0</ele><time>2026-04-04T08:37:45.999Z</time></trkpt><trkpt lat="40.539329893052965" lon="9.786690560197938"><ele>9.666666666666668</ele><time>2026-04-04T08:37:46.999Z</time></trkpt><trkpt lat="40.53916629958591" lon="9.78680614959115"><ele>9.333333333333334</ele><time>2026-04-04T08:37:47.999Z</time></trkpt><trkpt lat="40.538988131666436" lon="9.786907435199632"><ele>9.0</ele><time>2026-04-04T08:37:48.999Z</time></trkpt><trkpt lat="40.53881668849756" lon="9.787025173847985"><ele>9.333333333333334</ele><time>2026-04-04T08:37:49.999Z</time></trkpt><trkpt lat="40.538649920575935" lon="9.787170248406914"><ele>9.666666666666668</ele><time>2026-04-04T08:37:50.999Z</time></trkpt><trkpt lat="40.538474034975145" lon="9.787295028392036"><ele>10.0</ele><time>2026-04-04T08:37:51.999Z</time></trkpt><trkpt lat="40.53829452378449" lon="9.787424997080386"><ele>10.0</ele><time>2026-04-04T08:37:52.999Z</time></trkpt><trkpt lat="40.538114235501595" lon="9.787556493582361"><ele>10.0</ele><time>2026-04-04T08:37:53.999Z</time></trkpt><trkpt lat="40.53793232693474" lon="9.787685165075471"><ele>10.0</ele><time>2026-04-04T08:37:54.999Z</time></trkpt><trkpt lat="40.537748289193615" lon="9.787813168972377"><ele>9.333333333333334</ele><time>2026-04-04T08:37:55.999Z</time></trkpt><trkpt lat="40.53756262550596" lon="9.787943904504555"><ele>8.666666666666666</ele><time>2026-04-04T08:37:56.999Z</time></trkpt><trkpt lat="40.537377249629685" lon="9.788077626836692"><ele>8.0</ele><time>2026-04-04T08:37:57.999Z</time></trkpt><trkpt lat="40.537178718762625" lon="9.78819334154352"><ele>8.333333333333332</ele><time>2026-04-04T08:37:58.999Z</time></trkpt><trkpt lat="40.53698611729212" lon="9.788327107852313"><ele>8.666666666666666</ele><time>2026-04-04T08:37:59.999Z</time></trkpt><trkpt lat="40.536790027111586" lon="9.788464603033741"><ele>9.0</ele><time>2026-04-04T08:38:00.999Z</time></trkpt><trkpt lat="40.53659460108834" lon="9.788602149725135"><ele>9.0</ele><time>2026-04-04T08:38:01.999Z</time></trkpt><trkpt lat="40.53639710181499" lon="9.788740219759696"><ele>9.0</ele><time>2026-04-04T08:38:02.999Z</time></trkpt><trkpt lat="40.536200934500876" lon="9.788876323104102"><ele>9.0</ele><time>2026-04-04T08:38:03.999Z</time></trkpt><trkpt lat="40.53600869592154" lon="9.78900914001732"><ele>10.0</ele><time>2026-04-04T08:38:04.999Z</time></trkpt><trkpt lat="40.53582040598649" lon="9.789139187143213"><ele>11.0</ele><time>2026-04-04T08:38:05.999Z</time></trkpt><trkpt lat="40.53563791226714" lon="9.789265469393651"><ele>12.0</ele><time>2026-04-04T08:38:06.999Z</time></trkpt><trkpt lat="40.53545908247433" lon="9.789393944809786"><ele>15.0</ele><time>2026-04-04T08:38:07.999Z</time></trkpt><trkpt lat="40.53528579264523" lon="9.789520448884973"><ele>18.0</ele><time>2026-04-04T08:38:08.999Z</time></trkpt><trkpt lat="40.5351163407477" lon="9.789638335375253"><ele>21.0</ele><time>2026-04-04T08:38:09.999Z</time></trkpt><trkpt lat="40.53494612338996" lon="9.78975427947413"><ele>21.0</ele><time>2026-04-04T08:38:10.999Z</time></trkpt><trkpt lat="40.53477605935073" lon="9.789873566368545"><ele>21.0</ele><time>2026-04-04T08:38:11.999Z</time></trkpt><trkpt lat="40.53460626872141" lon="9.789987875958474"><ele>21.0</ele><time>2026-04-04T08:38:12.999Z</time></trkpt><trkpt lat="40.53443853386491" lon="9.790088308099687"><ele>20.666666666666668</ele><time>2026-04-04T08:38:13.999Z</time></trkpt><trkpt lat="40.53426874070277" lon="9.79016819784509"><ele>20.333333333333336</ele><time>2026-04-04T08:38:14.999Z</time></trkpt><trkpt lat="40.534084110649275" lon="9.790245640472623"><ele>20.0</ele><time>2026-04-04T08:38:15.999Z</time></trkpt><trkpt lat="40.53388438597603" lon="9.790321143229574"><ele>19.0</ele><time>2026-04-04T08:38:16.999Z</time></trkpt><trkpt lat="40.533671147172385" lon="9.790406369362547"><ele>18.0</ele><time>2026-04-04T08:38:17.999Z</time></trkpt><trkpt lat="40.53345683091955" lon="9.790492266580987"><ele>17.0</ele><time>2026-04-04T08:38:18.999Z</time></trkpt><trkpt lat="40.53324546899525" lon="9.790576291170241"><ele>17.0</ele><time>2026-04-04T08:38:19.999Z</time></trkpt><trkpt lat="40.53303589586556" lon="9.79065891023941"><ele>17.0</ele><time>2026-04-04T08:38:20.999Z</time></trkpt><trkpt lat="40.53283065656426" lon="9.790739639861142"><ele>17.0</ele><time>2026-04-04T08:38:21.999Z</time></trkpt><trkpt lat="40.53262666290088" lon="9.790819879533217"><ele>17.666666666666668</ele><time>2026-04-04T08:38:22.999Z</time></trkpt><trkpt lat="40.53242375471833" lon="9.790899693109345"><ele>18.333333333333332</ele><time>2026-04-04T08:38:23.999Z</time></trkpt><trkpt lat="40.532229355965505" lon="9.790976159911413"><ele>19.0</ele><time>2026-04-04T08:38:24.999Z</time></trkpt><trkpt lat="40.532037134685154" lon="9.79105175616006"><ele>19.666666666666664</ele><time>2026-04-04T08:38:25.999Z</time></trkpt><trkpt lat="40.53184313418023" lon="9.791153357476208"><ele>20.333333333333332</ele><time>2026-04-04T08:38:26.999Z</time></trkpt><trkpt lat="40.531647180379984" lon="9.79122870495753"><ele>21.0</ele><time>2026-04-04T08:38:27.999Z</time></trkpt><trkpt lat="40.531451066638624" lon="9.79130783773273"><ele>21.0</ele><time>2026-04-04T08:38:28.999Z</time></trkpt><trkpt lat="40.53125053540437" lon="9.791390679158953"><ele>21.0</ele><time>2026-04-04T08:38:29.999Z</time></trkpt><trkpt lat="40.5310434481235" lon="9.79148174091983"><ele>21.0</ele><time>2026-04-04T08:38:30.999Z</time></trkpt><trkpt lat="40.530836588182694" lon="9.791578147598587"><ele>20.5</ele><time>2026-04-04T08:38:31.999Z</time></trkpt><trkpt lat="40.53062401050027" lon="9.791680787639415"><ele>20.0</ele><time>2026-04-04T08:38:32.999Z</time></trkpt><trkpt lat="40.53041136372202" lon="9.791782860571299"><ele>18.0</ele><time>2026-04-04T08:38:33.999Z</time></trkpt><trkpt lat="40.53018955386814" lon="9.791893211563348"><ele>16.0</ele><time>2026-04-04T08:38:34.999Z</time></trkpt><trkpt lat="40.52996862126332" lon="9.792000093774197"><ele>16.0</ele><time>2026-04-04T08:38:35.999Z</time></trkpt><trkpt lat="40.52974876512328" lon="9.79210545648855"><ele>16.0</ele><time>2026-04-04T08:38:36.999Z</time></trkpt><trkpt lat="40.52954158454598" lon="9.792204222840983"><ele>17.333333333333332</ele><time>2026-04-04T08:38:37.999Z</time></trkpt><trkpt lat="40.52933154769794" lon="9.792307293554309"><ele>18.666666666666668</ele><time>2026-04-04T08:38:38.999Z</time></trkpt><trkpt lat="40.529128810500325" lon="9.792403852024261"><ele>20.0</ele><time>2026-04-04T08:38:39.999Z</time></trkpt><trkpt lat="40.52894331720219" lon="9.79249518357191"><ele>20.0</ele><time>2026-04-04T08:38:40.999Z</time></trkpt><trkpt lat="40.52877499044543" lon="9.792576896394905"><ele>20.0</ele><time>2026-04-04T08:38:41.999Z</time></trkpt><trkpt lat="40.528621779724105" lon="9.792652785883107"><ele>20.0</ele><time>2026-04-04T08:38:42.999Z</time></trkpt><trkpt lat="40.52846281381075" lon="9.792755612465568"><ele>19.333333333333336</ele><time>2026-04-04T08:38:43.999Z</time></trkpt><trkpt lat="40.52830021273754" lon="9.792891568536872"><ele>18.666666666666668</ele><time>2026-04-04T08:38:44.999Z</time></trkpt><trkpt lat="40.5281263165969" lon="9.79305720743167"><ele>18.0</ele><time>2026-04-04T08:38:45.999Z</time></trkpt><trkpt lat="40.527942595204664" lon="9.793225632720635"><ele>18.0</ele><time>2026-04-04T08:38:46.999Z</time></trkpt><trkpt lat="40.527749120540605" lon="9.793394258057141"><ele>18.0</ele><time>2026-04-04T08:38:47.999Z</time></trkpt><trkpt lat="40.52755221992284" lon="9.793567589518887"><ele>17.5</ele><time>2026-04-04T08:38:48.999Z</time></trkpt><trkpt lat="40.52734612705811" lon="9.793748151199866"><ele>17.0</ele><time>2026-04-04T08:38:49.999Z</time></trkpt><trkpt lat="40.5271438857764" lon="9.793929561697501"><ele>18.5</ele><time>2026-04-04T08:38:50.999Z</time></trkpt><trkpt lat="40.52693941053164" lon="9.794111845646764"><ele>20.0</ele><time>2026-04-04T08:38:51.999Z</time></trkpt><trkpt lat="40.5267318152921" lon="9.794293045690052"><ele>19.5</ele><time>2026-04-04T08:38:52.999Z</time></trkpt><trkpt lat="40.52652854568853" lon="9.79447601958977"><ele>19.0</ele><time>2026-04-04T08:38:53.999Z</time></trkpt><trkpt lat="40.52632503688401" lon="9.794672539310648"><ele>20.0</ele><time>2026-04-04T08:38:54.999Z</time></trkpt><trkpt lat="40.526138459527694" lon="9.794875887767759"><ele>21.0</ele><time>2026-04-04T08:38:55.999Z</time></trkpt><trkpt lat="40.52596772891315" lon="9.795085976948219"><ele>21.0</ele><time>2026-04-04T08:38:56.999Z</time></trkpt><trkpt lat="40.5257890085795" lon="9.79528050260598"><ele>21.0</ele><time>2026-04-04T08:38:57.999Z</time></trkpt><trkpt lat="40.52559898615323" lon="9.79547255394387"><ele>21.0</ele><time>2026-04-04T08:38:58.999Z</time></trkpt><trkpt lat="40.525399105184974" lon="9.795658361887005"><ele>21.0</ele><time>2026-04-04T08:38:59.999Z</time></trkpt><trkpt lat="40.52519673081067" lon="9.795847204569126"><ele>19.5</ele><time>2026-04-04T08:39:00.999Z</time></trkpt><trkpt lat="40.52499167629115" lon="9.796038188408199"><ele>18.0</ele><time>2026-04-04T08:39:01.999Z</time></trkpt><trkpt lat="40.52480085141704" lon="9.796221175582513"><ele>18.0</ele><time>2026-04-04T08:39:02.999Z</time></trkpt><trkpt lat="40.52462306373367" lon="9.796392002747679"><ele>18.0</ele><time>2026-04-04T08:39:03.999Z</time></trkpt><trkpt lat="40.52445750369886" lon="9.79654564350998"><ele>18.0</ele><time>2026-04-04T08:39:04.999Z</time></trkpt><trkpt lat="40.52429324684662" lon="9.796676482702438"><ele>18.333333333333332</ele><time>2026-04-04T08:39:05.999Z</time></trkpt><trkpt lat="40.524117124063594" lon="9.79678463557825"><ele>18.666666666666664</ele><time>2026-04-04T08:39:06.999Z</time></trkpt><trkpt lat="40.52392266826122" lon="9.796866237025423"><ele>19.0</ele><time>2026-04-04T08:39:07.999Z</time></trkpt><trkpt lat="40.523721430056256" lon="9.796934633288634"><ele>20.0</ele><time>2026-04-04T08:39:08.999Z</time></trkpt><trkpt lat="40.52351094531213" lon="9.796983760524192"><ele>21.0</ele><time>2026-04-04T08:39:09.999Z</time></trkpt><trkpt lat="40.52331852020653" lon="9.797012504224087"><ele>22.0</ele><time>2026-04-04T08:39:10.999Z</time></trkpt><trkpt lat="40.52313738057998" lon="9.797033629153441"><ele>22.0</ele><time>2026-04-04T08:39:11.999Z</time></trkpt><trkpt lat="40.52296748572983" lon="9.7970607633754"><ele>22.0</ele><time>2026-04-04T08:39:12.999Z</time></trkpt><trkpt lat="40.52280671240361" lon="9.797089933075174"><ele>22.0</ele><time>2026-04-04T08:39:13.999Z</time></trkpt><trkpt lat="40.522659192872425" lon="9.797117482068273"><ele>22.25</ele><time>2026-04-04T08:39:14.999Z</time></trkpt><trkpt lat="40.52252889469753" lon="9.797138418613365"><ele>22.5</ele><time>2026-04-04T08:39:15.999Z</time></trkpt><trkpt lat="40.52240976392435" lon="9.797154473072492"><ele>22.75</ele><time>2026-04-04T08:39:17Z</time></trkpt><trkpt lat="40.52230615217651" lon="9.797167435896476"><ele>23.0</ele><time>2026-04-04T08:39:18Z</time></trkpt><trkpt lat="40.52219853425368" lon="9.797180570581018"><ele>23.0</ele><time>2026-04-04T08:39:19Z</time></trkpt><trkpt lat="40.522089903463716" lon="9.797181746368862"><ele>23.0</ele><time>2026-04-04T08:39:20Z</time></trkpt><trkpt lat="40.52199835944828" lon="9.797170256420136"><ele>23.0</ele><time>2026-04-04T08:39:21Z</time></trkpt><trkpt lat="40.52191510215654" lon="9.797140304224513"><ele>23.0</ele><time>2026-04-04T08:39:22Z</time></trkpt><trkpt lat="40.521831314399606" lon="9.797091428593676"><ele>23.0</ele><time>2026-04-04T08:39:23Z</time></trkpt><trkpt lat="40.52173316996392" lon="9.797019162205975"><ele>23.5</ele><time>2026-04-04T08:39:24Z</time></trkpt><trkpt lat="40.5216275360997" lon="9.796928607819373"><ele>24.0</ele><time>2026-04-04T08:39:25Z</time></trkpt><trkpt lat="40.52152045897214" lon="9.796825954013583"><ele>24.5</ele><time>2026-04-04T08:39:26Z</time></trkpt><trkpt lat="40.52140842203093" lon="9.796719257483865"><ele>25.0</ele><time>2026-04-04T08:39:26.999Z</time></trkpt><trkpt lat="40.521288530612054" lon="9.79662031803733"><ele>26.666666666666668</ele><time>2026-04-04T08:39:27.999Z</time></trkpt><trkpt lat="40.52115121999201" lon="9.796534762871618"><ele>28.333333333333336</ele><time>2026-04-04T08:39:28.999Z</time></trkpt><trkpt lat="40.52100309569173" lon="9.796482665332862"><ele>30.0</ele><time>2026-04-04T08:39:29.999Z</time></trkpt><trkpt lat="40.520846213664534" lon="9.796439958440406"><ele>30.0</ele><time>2026-04-04T08:39:30.999Z</time></trkpt><trkpt lat="40.52068440079993" lon="9.796405489798394"><ele>30.0</ele><time>2026-04-04T08:39:31.999Z</time></trkpt><trkpt lat="40.520523270854596" lon="9.796357146535179"><ele>30.0</ele><time>2026-04-04T08:39:32.999Z</time></trkpt><trkpt lat="40.52037820244077" lon="9.796238969050524"><ele>31.0</ele><time>2026-04-04T08:39:33.999Z</time></trkpt><trkpt lat="40.520219800219685" lon="9.796133083949732"><ele>32.0</ele><time>2026-04-04T08:39:34.999Z</time></trkpt><trkpt lat="40.52005680032228" lon="9.796079845825151"><ele>33.0</ele><time>2026-04-04T08:39:35.999Z</time></trkpt><trkpt lat="40.51990763659021" lon="9.795993731963799"><ele>35.666666666666664</ele><time>2026-04-04T08:39:36.999Z</time></trkpt><trkpt lat="40.51974729733958" lon="9.795929159796598"><ele>38.33333333333333</ele><time>2026-04-04T08:39:37.999Z</time></trkpt><trkpt lat="40.51958195083778" lon="9.795860435660217"><ele>41.0</ele><time>2026-04-04T08:39:38.999Z</time></trkpt><trkpt lat="40.51942670207595" lon="9.795768882724367"><ele>41.0</ele><time>2026-04-04T08:39:39.999Z</time></trkpt><trkpt lat="40.519273811431745" lon="9.795667481420162"><ele>41.0</ele><time>2026-04-04T08:39:40.999Z</time></trkpt><trkpt lat="40.51913793821032" lon="9.795599110195184"><ele>41.0</ele><time>2026-04-04T08:39:41.999Z</time></trkpt><trkpt lat="40.519004495835446" lon="9.795557153166213"><ele>41.0</ele><time>2026-04-04T08:39:42.999Z</time></trkpt><trkpt lat="40.51888201603604" lon="9.795526063041608"><ele>41.0</ele><time>2026-04-04T08:39:43.999Z</time></trkpt><trkpt lat="40.518775555919966" lon="9.795497051953777"><ele>41.0</ele><time>2026-04-04T08:39:44.999Z</time></trkpt><trkpt lat="40.518665611822705" lon="9.795460859810927"><ele>41.0</ele><time>2026-04-04T08:39:45.999Z</time></trkpt><trkpt lat="40.518557080578596" lon="9.795386530170028"><ele>42.0</ele><time>2026-04-04T08:39:46.999Z</time></trkpt><trkpt lat="40.51846124744578" lon="9.795264684368501"><ele>43.0</ele><time>2026-04-04T08:39:47.999Z</time></trkpt><trkpt lat="40.51838117245718" lon="9.795111776212423"><ele>44.0</ele><time>2026-04-04T08:39:48.999Z</time></trkpt><trkpt lat="40.51829138937562" lon="9.794962311992217"><ele>45.0</ele><time>2026-04-04T08:39:49.999Z</time></trkpt><trkpt lat="40.51818446663774" lon="9.794820970266997"><ele>45.333333333333336</ele><time>2026-04-04T08:39:50.999Z</time></trkpt><trkpt lat="40.518029977815424" lon="9.794682582852332"><ele>45.66666666666667</ele><time>2026-04-04T08:39:51.999Z</time></trkpt><trkpt lat="40.517840370777584" lon="9.79452891519679"><ele>46.0</ele><time>2026-04-04T08:39:52.999Z</time></trkpt><trkpt lat="40.51763488606157" lon="9.794362708472505"><ele>43.5</ele><time>2026-04-04T08:39:53.999Z</time></trkpt><trkpt lat="40.51742655601027" lon="9.794194200204354"><ele>41.0</ele><time>2026-04-04T08:39:54.999Z</time></trkpt><trkpt lat="40.51721377834937" lon="9.794023568793392"><ele>39.5</ele><time>2026-04-04T08:39:55.999Z</time></trkpt><trkpt lat="40.51698227213783" lon="9.793838145154226"><ele>38.0</ele><time>2026-04-04T08:39:56.999Z</time></trkpt><trkpt lat="40.516741532771775" lon="9.793645326240991"><ele>39.5</ele><time>2026-04-04T08:39:57.999Z</time></trkpt><trkpt lat="40.51650749863208" lon="9.793457889562953"><ele>41.0</ele><time>2026-04-04T08:39:58.999Z</time></trkpt><trkpt lat="40.516264950172676" lon="9.793264413688366"><ele>38.0</ele><time>2026-04-04T08:39:59.999Z</time></trkpt><trkpt lat="40.51601438832258" lon="9.793065177152744"><ele>35.0</ele><time>2026-04-04T08:40:00.999Z</time></trkpt><trkpt lat="40.51575975034152" lon="9.79286984600765"><ele>35.0</ele><time>2026-04-04T08:40:01.999Z</time></trkpt><trkpt lat="40.51550803898481" lon="9.792686549424714"><ele>35.0</ele><time>2026-04-04T08:40:02.999Z</time></trkpt><trkpt lat="40.51524508507173" lon="9.79251067515168"><ele>34.0</ele><time>2026-04-04T08:40:03.999Z</time></trkpt><trkpt lat="40.514972913702934" lon="9.792341860880951"><ele>33.0</ele><time>2026-04-04T08:40:04.999Z</time></trkpt><trkpt lat="40.514694449374" lon="9.792184135919092"><ele>31.5</ele><time>2026-04-04T08:40:06Z</time></trkpt><trkpt lat="40.5144160733189" lon="9.792028784842284"><ele>30.0</ele><time>2026-04-04T08:40:07Z</time></trkpt><trkpt lat="40.514134791703135" lon="9.791871812762812"><ele>29.5</ele><time>2026-04-04T08:40:08Z</time></trkpt><trkpt lat="40.51384913538822" lon="9.791714342928808"><ele>29.0</ele><time>2026-04-04T08:40:09Z</time></trkpt><trkpt lat="40.51355029786955" lon="9.791590796495006"><ele>28.5</ele><time>2026-04-04T08:40:10Z</time></trkpt><trkpt lat="40.51326167227321" lon="9.791440398360221"><ele>28.0</ele><time>2026-04-04T08:40:11Z</time></trkpt><trkpt lat="40.5129819819333" lon="9.79129368751426"><ele>28.0</ele><time>2026-04-04T08:40:12Z</time></trkpt><trkpt lat="40.512728560663476" lon="9.791158013319198"><ele>28.0</ele><time>2026-04-04T08:40:13Z</time></trkpt><trkpt lat="40.512488041831645" lon="9.791021619474051"><ele>27.5</ele><time>2026-04-04T08:40:14Z</time></trkpt><trkpt lat="40.51225475023229" lon="9.790901134249507"><ele>27.0</ele><time>2026-04-04T08:40:15Z</time></trkpt><trkpt lat="40.51202367834695" lon="9.790777348066937"><ele>26.5</ele><time>2026-04-04T08:40:16Z</time></trkpt><trkpt lat="40.51179972280321" lon="9.790671080492212"><ele>26.0</ele><time>2026-04-04T08:40:17Z</time></trkpt><trkpt lat="40.511577250693605" lon="9.790577959461807"><ele>26.0</ele><time>2026-04-04T08:40:18Z</time></trkpt><trkpt lat="40.51134465085395" lon="9.790485224706492"><ele>26.0</ele><time>2026-04-04T08:40:19Z</time></trkpt><trkpt lat="40.511107847280265" lon="9.790383547238791"><ele>26.0</ele><time>2026-04-04T08:40:20Z</time></trkpt><trkpt lat="40.510873741235876" lon="9.790261074453808"><ele>26.0</ele><time>2026-04-04T08:40:21Z</time></trkpt><trkpt lat="40.51065764230918" lon="9.790130765050161"><ele>26.0</ele><time>2026-04-04T08:40:22Z</time></trkpt><trkpt lat="40.510436496497704" lon="9.790015429867099"><ele>26.0</ele><time>2026-04-04T08:40:23Z</time></trkpt><trkpt lat="40.51020293978193" lon="9.789922532752916"><ele>25.5</ele><time>2026-04-04T08:40:24Z</time></trkpt><trkpt lat="40.50995933024639" lon="9.789827499546575"><ele>25.0</ele><time>2026-04-04T08:40:25Z</time></trkpt><trkpt lat="40.50971191370008" lon="9.789727102501526"><ele>24.5</ele><time>2026-04-04T08:40:26Z</time></trkpt><trkpt lat="40.5094565630104" lon="9.789623342546646"><ele>24.0</ele><time>2026-04-04T08:40:27Z</time></trkpt><trkpt lat="40.50919850672459" lon="9.78951835843435"><ele>24.0</ele><time>2026-04-04T08:40:28Z</time></trkpt><trkpt lat="40.50893875450619" lon="9.789411624332633"><ele>24.0</ele><time>2026-04-04T08:40:29Z</time></trkpt><trkpt lat="40.50868150516029" lon="9.789303033144394"><ele>21.5</ele><time>2026-04-04T08:40:30Z</time></trkpt><trkpt lat="40.508444401870314" lon="9.789204749680449"><ele>19.0</ele><time>2026-04-04T08:40:31Z</time></trkpt><trkpt lat="40.508220993874616" lon="9.789110610769175"><ele>19.0</ele><time>2026-04-04T08:40:32Z</time></trkpt><trkpt lat="40.508020013093606" lon="9.789025098956389"><ele>19.0</ele><time>2026-04-04T08:40:33Z</time></trkpt><trkpt lat="40.50783785457112" lon="9.78894921497968"><ele>19.0</ele><time>2026-04-04T08:40:34Z</time></trkpt><trkpt lat="40.507663565905425" lon="9.78886795811764"><ele>19.333333333333332</ele><time>2026-04-04T08:40:35Z</time></trkpt><trkpt lat="40.507490352508086" lon="9.7887548232778"><ele>19.666666666666668</ele><time>2026-04-04T08:40:36Z</time></trkpt><trkpt lat="40.507311083091714" lon="9.788595608384195"><ele>20.0</ele><time>2026-04-04T08:40:37Z</time></trkpt><trkpt lat="40.50712425326433" lon="9.788407287655238"><ele>19.0</ele><time>2026-04-04T08:40:38Z</time></trkpt><trkpt lat="40.50692589216422" lon="9.788209416976384"><ele>18.0</ele><time>2026-04-04T08:40:39Z</time></trkpt><trkpt lat="40.50671344426349" lon="9.788007289690363"><ele>18.0</ele><time>2026-04-04T08:40:40Z</time></trkpt><trkpt lat="40.506493151381505" lon="9.787801925363079"><ele>18.0</ele><time>2026-04-04T08:40:41Z</time></trkpt><trkpt lat="40.50628078476801" lon="9.787597989526917"><ele>18.5</ele><time>2026-04-04T08:40:42Z</time></trkpt><trkpt lat="40.50606824711749" lon="9.787392034354596"><ele>19.0</ele><time>2026-04-04T08:40:43Z</time></trkpt><trkpt lat="40.50584847942194" lon="9.7871797456478"><ele>19.0</ele><time>2026-04-04T08:40:44Z</time></trkpt><trkpt lat="40.505636284523604" lon="9.786975995227811"><ele>19.0</ele><time>2026-04-04T08:40:45Z</time></trkpt><trkpt lat="40.505416013525924" lon="9.78676838237832"><ele>18.0</ele><time>2026-04-04T08:40:46Z</time></trkpt><trkpt lat="40.50519802988962" lon="9.786562563349872"><ele>17.0</ele><time>2026-04-04T08:40:47Z</time></trkpt><trkpt lat="40.50499316937656" lon="9.786367572167391"><ele>17.0</ele><time>2026-04-04T08:40:48Z</time></trkpt><trkpt lat="40.504806717929604" lon="9.786186014827644"><ele>17.0</ele><time>2026-04-04T08:40:49Z</time></trkpt><trkpt lat="40.50462810071592" lon="9.786011666080135"><ele>17.5</ele><time>2026-04-04T08:40:50Z</time></trkpt><trkpt lat="40.50444376979871" lon="9.785838601790019"><ele>18.0</ele><time>2026-04-04T08:40:51Z</time></trkpt><trkpt lat="40.50425768133108" lon="9.785665787042024"><ele>18.0</ele><time>2026-04-04T08:40:52Z</time></trkpt><trkpt lat="40.504074558811915" lon="9.785490584012626"><ele>18.0</ele><time>2026-04-04T08:40:53Z</time></trkpt><trkpt lat="40.50390469699329" lon="9.785322485612836"><ele>18.0</ele><time>2026-04-04T08:40:54Z</time></trkpt><trkpt lat="40.50375239151925" lon="9.7851669011621"><ele>18.666666666666668</ele><time>2026-04-04T08:40:55Z</time></trkpt><trkpt lat="40.503607289773115" lon="9.785010833394946"><ele>19.333333333333336</ele><time>2026-04-04T08:40:56Z</time></trkpt><trkpt lat="40.50345123344321" lon="9.784837656210621"><ele>20.0</ele><time>2026-04-04T08:40:57Z</time></trkpt><trkpt lat="40.50329557095635" lon="9.78466835742924"><ele>20.0</ele><time>2026-04-04T08:40:58Z</time></trkpt><trkpt lat="40.503131496854664" lon="9.78449041345474"><ele>20.0</ele><time>2026-04-04T08:40:59Z</time></trkpt><trkpt lat="40.502960864756346" lon="9.784307397210332"><ele>20.0</ele><time>2026-04-04T08:41:00Z</time></trkpt><trkpt lat="40.502793758219326" lon="9.784120129081328"><ele>19.666666666666668</ele><time>2026-04-04T08:41:01Z</time></trkpt><trkpt lat="40.50263510314618" lon="9.783935470562277"><ele>19.333333333333332</ele><time>2026-04-04T08:41:02Z</time></trkpt><trkpt lat="40.50248766120217" lon="9.783767778910322"><ele>19.0</ele><time>2026-04-04T08:41:03Z</time></trkpt><trkpt lat="40.50234276503161" lon="9.783610721930621"><ele>19.666666666666664</ele><time>2026-04-04T08:41:04Z</time></trkpt><trkpt lat="40.50220145709814" lon="9.783461636904871"><ele>20.333333333333332</ele><time>2026-04-04T08:41:05Z</time></trkpt><trkpt lat="40.502058193804196" lon="9.783302815590178"><ele>21.0</ele><time>2026-04-04T08:41:06Z</time></trkpt><trkpt lat="40.50191473483877" lon="9.78313501365526"><ele>18.333333333333332</ele><time>2026-04-04T08:41:07Z</time></trkpt><trkpt lat="40.50177085562786" lon="9.782961903334325"><ele>15.666666666666666</ele><time>2026-04-04T08:41:08Z</time></trkpt><trkpt lat="40.50162497495104" lon="9.782776888638734"><ele>13.0</ele><time>2026-04-04T08:41:09Z</time></trkpt><trkpt lat="40.50147528419975" lon="9.782590544730594"><ele>12.666666666666666</ele><time>2026-04-04T08:41:10Z</time></trkpt><trkpt lat="40.50132084009706" lon="9.7823950457703"><ele>12.333333333333332</ele><time>2026-04-04T08:41:11Z</time></trkpt><trkpt lat="40.50115927423963" lon="9.782192911444493"><ele>12.0</ele><time>2026-04-04T08:41:12Z</time></trkpt><trkpt lat="40.50099041369714" lon="9.781984524187468"><ele>14.5</ele><time>2026-04-04T08:41:13Z</time></trkpt><trkpt lat="40.50081651442991" lon="9.781758754242526"><ele>17.0</ele><time>2026-04-04T08:41:14Z</time></trkpt><trkpt lat="40.50064463358643" lon="9.781522175366458"><ele>17.0</ele><time>2026-04-04T08:41:15Z</time></trkpt><trkpt lat="40.50045871593543" lon="9.781290424000655"><ele>17.0</ele><time>2026-04-04T08:41:16Z</time></trkpt><trkpt lat="40.50024555695523" lon="9.781063777510736"><ele>17.5</ele><time>2026-04-04T08:41:17Z</time></trkpt><trkpt lat="40.5000185568201" lon="9.780838480027686"><ele>18.0</ele><time>2026-04-04T08:41:18Z</time></trkpt><trkpt lat="40.49978544922587" lon="9.780614811236228"><ele>21.5</ele><time>2026-04-04T08:41:19Z</time></trkpt><trkpt lat="40.49955406179289" lon="9.78041249443663"><ele>25.0</ele><time>2026-04-04T08:41:20Z</time></trkpt><trkpt lat="40.49931796560048" lon="9.780230193604675"><ele>22.5</ele><time>2026-04-04T08:41:21Z</time></trkpt><trkpt lat="40.499073780139184" lon="9.780055982187207"><ele>20.0</ele><time>2026-04-04T08:41:22Z</time></trkpt><trkpt lat="40.49883028666937" lon="9.77988180954641"><ele>21.0</ele><time>2026-04-04T08:41:23Z</time></trkpt><trkpt lat="40.498596989664435" lon="9.779709799134727"><ele>22.0</ele><time>2026-04-04T08:41:24Z</time></trkpt><trkpt lat="40.49838006073747" lon="9.779545739036804"><ele>22.0</ele><time>2026-04-04T08:41:25Z</time></trkpt><trkpt lat="40.4981828751156" lon="9.779396438909913"><ele>22.0</ele><time>2026-04-04T08:41:26Z</time></trkpt><trkpt lat="40.49798912767468" lon="9.779257112343814"><ele>22.0</ele><time>2026-04-04T08:41:27Z</time></trkpt><trkpt lat="40.49780082347764" lon="9.779137284955663"><ele>22.666666666666664</ele><time>2026-04-04T08:41:28Z</time></trkpt><trkpt lat="40.49761534401683" lon="9.779039237283227"><ele>23.333333333333332</ele><time>2026-04-04T08:41:29Z</time></trkpt><trkpt lat="40.497427701111384" lon="9.778971967238425"><ele>24.0</ele><time>2026-04-04T08:41:30Z</time></trkpt><trkpt lat="40.49724327628661" lon="9.778924243522887"><ele>24.333333333333336</ele><time>2026-04-04T08:41:31Z</time></trkpt><trkpt lat="40.49707641848579" lon="9.778878751270199"><ele>24.666666666666668</ele><time>2026-04-04T08:41:32Z</time></trkpt><trkpt lat="40.49692359692079" lon="9.778816272784145"><ele>25.0</ele><time>2026-04-04T08:41:33Z</time></trkpt><trkpt lat="40.49677083839582" lon="9.77871814476331"><ele>25.0</ele><time>2026-04-04T08:41:34Z</time></trkpt><trkpt lat="40.49660743340794" lon="9.778585747293722"><ele>25.0</ele><time>2026-04-04T08:41:35Z</time></trkpt><trkpt lat="40.4964390645075" lon="9.778439247272726"><ele>25.0</ele><time>2026-04-04T08:41:36Z</time></trkpt><trkpt lat="40.49625325710298" lon="9.778292079290988"><ele>28.0</ele><time>2026-04-04T08:41:37Z</time></trkpt><trkpt lat="40.496053418735805" lon="9.77813927637878"><ele>31.0</ele><time>2026-04-04T08:41:38Z</time></trkpt><trkpt lat="40.49584903758751" lon="9.777985589078014"><ele>31.0</ele><time>2026-04-04T08:41:39Z</time></trkpt><trkpt lat="40.49564060696222" lon="9.777825907663223"><ele>31.0</ele><time>2026-04-04T08:41:40Z</time></trkpt><trkpt lat="40.495450022631154" lon="9.777684162332163"><ele>31.0</ele><time>2026-04-04T08:41:41Z</time></trkpt><trkpt lat="40.49527300987353" lon="9.777552056757962"><ele>31.0</ele><time>2026-04-04T08:41:42Z</time></trkpt><trkpt lat="40.495091846007426" lon="9.777426216218812"><ele>31.0</ele><time>2026-04-04T08:41:43Z</time></trkpt><trkpt lat="40.49489579095746" lon="9.777327196493667"><ele>31.0</ele><time>2026-04-04T08:41:44Z</time></trkpt><trkpt lat="40.49467386909282" lon="9.777265609947808"><ele>31.0</ele><time>2026-04-04T08:41:45Z</time></trkpt><trkpt lat="40.494443834298835" lon="9.77721567368256"><ele>33.0</ele><time>2026-04-04T08:41:46Z</time></trkpt><trkpt lat="40.4942038570806" lon="9.777148636470418"><ele>35.0</ele><time>2026-04-04T08:41:47Z</time></trkpt><trkpt lat="40.49397556925815" lon="9.777077687748271"><ele>35.0</ele><time>2026-04-04T08:41:48Z</time></trkpt><trkpt lat="40.493759061138576" lon="9.777024454203477"><ele>35.0</ele><time>2026-04-04T08:41:49Z</time></trkpt><trkpt lat="40.49353657629863" lon="9.776989800177638"><ele>35.0</ele><time>2026-04-04T08:41:50Z</time></trkpt><trkpt lat="40.49331460023692" lon="9.776966520799279"><ele>37.5</ele><time>2026-04-04T08:41:51Z</time></trkpt><trkpt lat="40.49308163700196" lon="9.776941025875132"><ele>40.0</ele><time>2026-04-04T08:41:52Z</time></trkpt><trkpt lat="40.49285513679059" lon="9.77690899094175"><ele>40.0</ele><time>2026-04-04T08:41:53Z</time></trkpt><trkpt lat="40.49262430744258" lon="9.776875679942266"><ele>40.0</ele><time>2026-04-04T08:41:54Z</time></trkpt><trkpt lat="40.492390376079676" lon="9.77684382922618"><ele>40.0</ele><time>2026-04-04T08:41:55Z</time></trkpt><trkpt lat="40.492155293793324" lon="9.776815139061231"><ele>40.0</ele><time>2026-04-04T08:41:56Z</time></trkpt><trkpt lat="40.491921165586774" lon="9.776787102653103"><ele>40.5</ele><time>2026-04-04T08:41:57Z</time></trkpt><trkpt lat="40.491680462551415" lon="9.776756435712786"><ele>41.0</ele><time>2026-04-04T08:41:58Z</time></trkpt><trkpt lat="40.4914394225988" lon="9.776721908563074"><ele>43.0</ele><time>2026-04-04T08:41:59Z</time></trkpt><trkpt lat="40.491198887527204" lon="9.776681970941619"><ele>45.0</ele><time>2026-04-04T08:42:00Z</time></trkpt><trkpt lat="40.490955809844095" lon="9.776643076756363"><ele>45.0</ele><time>2026-04-04T08:42:01Z</time></trkpt><trkpt lat="40.49071173039019" lon="9.776606034549049"><ele>45.0</ele><time>2026-04-04T08:42:02Z</time></trkpt><trkpt lat="40.490468237276666" lon="9.77657019367878"><ele>46.5</ele><time>2026-04-04T08:42:03Z</time></trkpt><trkpt lat="40.49022145109975" lon="9.776532929607798"><ele>48.0</ele><time>2026-04-04T08:42:04Z</time></trkpt><trkpt lat="40.48999248811256" lon="9.776496623346066"><ele>48.0</ele><time>2026-04-04T08:42:05Z</time></trkpt><trkpt lat="40.489781090696184" lon="9.776463153899249"><ele>48.0</ele><time>2026-04-04T08:42:06Z</time></trkpt><trkpt lat="40.48958148271307" lon="9.776431365159125"><ele>48.0</ele><time>2026-04-04T08:42:07Z</time></trkpt><trkpt lat="40.489365847014426" lon="9.77640624451203"><ele>46.5</ele><time>2026-04-04T08:42:08Z</time></trkpt><trkpt lat="40.489132765092904" lon="9.776400500427288"><ele>45.0</ele><time>2026-04-04T08:42:09Z</time></trkpt><trkpt lat="40.48888424093237" lon="9.776408831596099"><ele>43.5</ele><time>2026-04-04T08:42:10Z</time></trkpt><trkpt lat="40.48862365555078" lon="9.776418826705354"><ele>42.0</ele><time>2026-04-04T08:42:11Z</time></trkpt><trkpt lat="40.48835374279138" lon="9.776424687745497"><ele>42.0</ele><time>2026-04-04T08:42:12Z</time></trkpt><trkpt lat="40.48807569621986" lon="9.776427949065722"><ele>42.0</ele><time>2026-04-04T08:42:13Z</time></trkpt><trkpt lat="40.487791610670016" lon="9.776426016802892"><ele>40.5</ele><time>2026-04-04T08:42:14Z</time></trkpt><trkpt lat="40.4875124440376" lon="9.776424434290375"><ele>39.0</ele><time>2026-04-04T08:42:15Z</time></trkpt><trkpt lat="40.487230783484804" lon="9.776430292658564"><ele>38.5</ele><time>2026-04-04T08:42:16Z</time></trkpt><trkpt lat="40.48694983867983" lon="9.776448658255738"><ele>38.0</ele><time>2026-04-04T08:42:17Z</time></trkpt><trkpt lat="40.48666908566679" lon="9.776477658270911"><ele>38.0</ele><time>2026-04-04T08:42:18Z</time></trkpt><trkpt lat="40.48638667373773" lon="9.776511140929529"><ele>38.0</ele><time>2026-04-04T08:42:19Z</time></trkpt><trkpt lat="40.48610443345435" lon="9.776543442731858"><ele>38.0</ele><time>2026-04-04T08:42:20Z</time></trkpt><trkpt lat="40.4858257346164" lon="9.776571907550407"><ele>38.0</ele><time>2026-04-04T08:42:21Z</time></trkpt><trkpt lat="40.48556981226986" lon="9.776593377499893"><ele>38.0</ele><time>2026-04-04T08:42:22Z</time></trkpt><trkpt lat="40.48534909016416" lon="9.77661364371373"><ele>38.0</ele><time>2026-04-04T08:42:23Z</time></trkpt><trkpt lat="40.48515520374045" lon="9.776631437041464"><ele>38.0</ele><time>2026-04-04T08:42:24Z</time></trkpt><trkpt lat="40.48498091960725" lon="9.776654683237524"><ele>38.0</ele><time>2026-04-04T08:42:25Z</time></trkpt><trkpt lat="40.48480285735335" lon="9.776705296224508"><ele>38.0</ele><time>2026-04-04T08:42:26Z</time></trkpt><trkpt lat="40.48462238089557" lon="9.776813460014404"><ele>38.0</ele><time>2026-04-04T08:42:27Z</time></trkpt><trkpt lat="40.48444821480292" lon="9.776947732130385"><ele>38.666666666666664</ele><time>2026-04-04T08:42:28Z</time></trkpt><trkpt lat="40.4842816492353" lon="9.777044214817979"><ele>39.333333333333336</ele><time>2026-04-04T08:42:29Z</time></trkpt><trkpt lat="40.484137764122984" lon="9.777115561792177"><ele>40.0</ele><time>2026-04-04T08:42:30Z</time></trkpt><trkpt lat="40.483986671204235" lon="9.777121330372056"><ele>40.0</ele><time>2026-04-04T08:42:31Z</time></trkpt><trkpt lat="40.48379993410423" lon="9.777129594373637"><ele>40.0</ele><time>2026-04-04T08:42:32Z</time></trkpt><trkpt lat="40.48358960741947" lon="9.77714017957029"><ele>40.0</ele><time>2026-04-04T08:42:33Z</time></trkpt><trkpt lat="40.48336769683082" lon="9.777151347755554"><ele>39.0</ele><time>2026-04-04T08:42:34Z</time></trkpt><trkpt lat="40.48313525909908" lon="9.777160727758854"><ele>38.0</ele><time>2026-04-04T08:42:35Z</time></trkpt><trkpt lat="40.48290948359857" lon="9.77719492448624"><ele>36.0</ele><time>2026-04-04T08:42:36Z</time></trkpt><trkpt lat="40.4826854927378" lon="9.777256103745914"><ele>34.0</ele><time>2026-04-04T08:42:37Z</time></trkpt><trkpt lat="40.48244696964196" lon="9.777321681283619"><ele>34.0</ele><time>2026-04-04T08:42:38Z</time></trkpt><trkpt lat="40.48219998893233" lon="9.777389447846309"><ele>34.0</ele><time>2026-04-04T08:42:39Z</time></trkpt><trkpt lat="40.48196027893222" lon="9.77745500006117"><ele>31.0</ele><time>2026-04-04T08:42:40Z</time></trkpt><trkpt lat="40.48171820340702" lon="9.777521551246346"><ele>28.0</ele><time>2026-04-04T08:42:41Z</time></trkpt><trkpt lat="40.481468711677614" lon="9.77759036802176"><ele>27.5</ele><time>2026-04-04T08:42:42Z</time></trkpt><trkpt lat="40.48121422991501" lon="9.777660478924412"><ele>27.0</ele><time>2026-04-04T08:42:43Z</time></trkpt><trkpt lat="40.48095946997738" lon="9.777730646069779"><ele>26.5</ele><time>2026-04-04T08:42:44Z</time></trkpt><trkpt lat="40.48070221571542" lon="9.777801201038523"><ele>26.0</ele><time>2026-04-04T08:42:45Z</time></trkpt><trkpt lat="40.48045035766691" lon="9.77786325013038"><ele>27.5</ele><time>2026-04-04T08:42:46Z</time></trkpt><trkpt lat="40.480206816267845" lon="9.777895861282827"><ele>29.0</ele><time>2026-04-04T08:42:47Z</time></trkpt><trkpt lat="40.479974781292036" lon="9.77791897180517"><ele>29.0</ele><time>2026-04-04T08:42:48Z</time></trkpt><trkpt lat="40.47975967541759" lon="9.777941093489186"><ele>29.0</ele><time>2026-04-04T08:42:49Z</time></trkpt><trkpt lat="40.47955885228789" lon="9.777966017417503"><ele>29.0</ele><time>2026-04-04T08:42:50Z</time></trkpt><trkpt lat="40.479361897428895" lon="9.778019207984467"><ele>29.666666666666664</ele><time>2026-04-04T08:42:51Z</time></trkpt><trkpt lat="40.47916342221011" lon="9.778079813743625"><ele>30.333333333333336</ele><time>2026-04-04T08:42:52Z</time></trkpt><trkpt lat="40.47895975237187" lon="9.778142005673175"><ele>31.0</ele><time>2026-04-04T08:42:53Z</time></trkpt><trkpt lat="40.47874467747293" lon="9.778207815763816"><ele>32.0</ele><time>2026-04-04T08:42:54Z</time></trkpt><trkpt lat="40.478524889354496" lon="9.778275103827935"><ele>33.0</ele><time>2026-04-04T08:42:55Z</time></trkpt><trkpt lat="40.47830277978279" lon="9.778343102552284"><ele>33.0</ele><time>2026-04-04T08:42:56Z</time></trkpt><trkpt lat="40.47807219645298" lon="9.7784137152738"><ele>33.0</ele><time>2026-04-04T08:42:57Z</time></trkpt><trkpt lat="40.47783761541761" lon="9.778485957990165"><ele>30.0</ele><time>2026-04-04T08:42:58Z</time></trkpt><trkpt lat="40.47760234268973" lon="9.778558413693018"><ele>27.0</ele><time>2026-04-04T08:42:59Z</time></trkpt><trkpt lat="40.4773657171297" lon="9.778631286067037"><ele>27.0</ele><time>2026-04-04T08:43:00Z</time></trkpt><trkpt lat="40.477132762943285" lon="9.77869154839884"><ele>27.0</ele><time>2026-04-04T08:43:01Z</time></trkpt><trkpt lat="40.47689003494893" lon="9.778722494077966"><ele>26.0</ele><time>2026-04-04T08:43:02Z</time></trkpt><trkpt lat="40.47663151786937" lon="9.778750778096688"><ele>25.0</ele><time>2026-04-04T08:43:03Z</time></trkpt><trkpt lat="40.47636374598837" lon="9.778780074688498"><ele>23.0</ele><time>2026-04-04T08:43:04Z</time></trkpt><trkpt lat="40.47609056105618" lon="9.778809963534114"><ele>21.0</ele><time>2026-04-04T08:43:05Z</time></trkpt><trkpt lat="40.47582661988347" lon="9.778838577849406"><ele>21.0</ele><time>2026-04-04T08:43:06Z</time></trkpt><trkpt lat="40.47558704763187" lon="9.778864266019905"><ele>21.0</ele><time>2026-04-04T08:43:07Z</time></trkpt><trkpt lat="40.475371147294545" lon="9.778887417589127"><ele>20.666666666666668</ele><time>2026-04-04T08:43:08Z</time></trkpt><trkpt lat="40.47516823702407" lon="9.778907371594613"><ele>20.333333333333336</ele><time>2026-04-04T08:43:09Z</time></trkpt><trkpt lat="40.47497149085706" lon="9.778902959331948"><ele>20.0</ele><time>2026-04-04T08:43:10Z</time></trkpt><trkpt lat="40.474758281873214" lon="9.778871002706325"><ele>19.5</ele><time>2026-04-04T08:43:11Z</time></trkpt><trkpt lat="40.47453891141229" lon="9.77883364294904"><ele>19.0</ele><time>2026-04-04T08:43:12Z</time></trkpt><trkpt lat="40.4743082549561" lon="9.778794242320155"><ele>19.0</ele><time>2026-04-04T08:43:13Z</time></trkpt><trkpt lat="40.474089905965144" lon="9.77875725716415"><ele>19.0</ele><time>2026-04-04T08:43:14Z</time></trkpt><trkpt lat="40.473862704119824" lon="9.778719082156892"><ele>19.0</ele><time>2026-04-04T08:43:15Z</time></trkpt><trkpt lat="40.473628955469195" lon="9.778679807155315"><ele>19.0</ele><time>2026-04-04T08:43:16Z</time></trkpt><trkpt lat="40.47338665535954" lon="9.778639044256314"><ele>19.0</ele><time>2026-04-04T08:43:17Z</time></trkpt><trkpt lat="40.47314235416648" lon="9.778597805137197"><ele>19.0</ele><time>2026-04-04T08:43:18Z</time></trkpt><trkpt lat="40.47289572146469" lon="9.778556895291633"><ele>19.0</ele><time>2026-04-04T08:43:19Z</time></trkpt><trkpt lat="40.47265169105811" lon="9.77851564319921"><ele>21.333333333333332</ele><time>2026-04-04T08:43:20Z</time></trkpt><trkpt lat="40.47242573548202" lon="9.778477446553573"><ele>23.666666666666664</ele><time>2026-04-04T08:43:21Z</time></trkpt><trkpt lat="40.47222623415404" lon="9.778443721889241"><ele>26.0</ele><time>2026-04-04T08:43:22Z</time></trkpt><trkpt lat="40.4720525111426" lon="9.778414354909621"><ele>26.5</ele><time>2026-04-04T08:43:23Z</time></trkpt><trkpt lat="40.471906569148715" lon="9.778389683670623"><ele>27.0</ele><time>2026-04-04T08:43:24Z</time></trkpt><trkpt lat="40.4717870950831" lon="9.77836948670478"><ele>27.5</ele><time>2026-04-04T08:43:25Z</time></trkpt><trkpt lat="40.47167586018236" lon="9.778345305575614"><ele>28.0</ele><time>2026-04-04T08:43:26Z</time></trkpt><trkpt lat="40.47158020318808" lon="9.778237092264376"><ele>28.0</ele><time>2026-04-04T08:43:27Z</time></trkpt><trkpt lat="40.47149718952537" lon="9.778069560218507"><ele>28.0</ele><time>2026-04-04T08:43:28Z</time></trkpt><trkpt lat="40.4714267106857" lon="9.777851977349275"><ele>28.0</ele><time>2026-04-04T08:43:29Z</time></trkpt><trkpt lat="40.471346156554304" lon="9.777622449671279"><ele>27.0</ele><time>2026-04-04T08:43:30.001Z</time></trkpt><trkpt lat="40.471250228221784" lon="9.777379116420656"><ele>26.0</ele><time>2026-04-04T08:43:31Z</time></trkpt><trkpt lat="40.47115603870886" lon="9.777144404799245"><ele>25.0</ele><time>2026-04-04T08:43:32Z</time></trkpt><trkpt lat="40.47106259524325" lon="9.776907756486807"><ele>25.666666666666668</ele><time>2026-04-04T08:43:33Z</time></trkpt><trkpt lat="40.470963845268294" lon="9.776662539250784"><ele>26.333333333333336</ele><time>2026-04-04T08:43:34Z</time></trkpt><trkpt lat="40.47086353717276" lon="9.77641314682735"><ele>27.0</ele><time>2026-04-04T08:43:35Z</time></trkpt><trkpt lat="40.47077808843158" lon="9.776187130431564"><ele>26.75</ele><time>2026-04-04T08:43:36Z</time></trkpt><trkpt lat="40.470704369389566" lon="9.776010887883237"><ele>26.5</ele><time>2026-04-04T08:43:37Z</time></trkpt><trkpt lat="40.47061390032846" lon="9.775882659072385"><ele>26.25</ele><time>2026-04-04T08:43:38Z</time></trkpt><trkpt lat="40.470494169410685" lon="9.775793988034005"><ele>26.0</ele><time>2026-04-04T08:43:39Z</time></trkpt><trkpt lat="40.470345235320394" lon="9.775735515693208"><ele>27.333333333333332</ele><time>2026-04-04T08:43:40Z</time></trkpt><trkpt lat="40.4701847755789" lon="9.775677262110136"><ele>28.666666666666664</ele><time>2026-04-04T08:43:41Z</time></trkpt><trkpt lat="40.47001556964186" lon="9.775599840044228"><ele>30.0</ele><time>2026-04-04T08:43:42Z</time></trkpt><trkpt lat="40.46984484963309" lon="9.77553148423575"><ele>30.0</ele><time>2026-04-04T08:43:43Z</time></trkpt><trkpt lat="40.46967882705037" lon="9.775501007002541"><ele>30.0</ele><time>2026-04-04T08:43:44Z</time></trkpt><trkpt lat="40.46951585308938" lon="9.775530418963548"><ele>30.0</ele><time>2026-04-04T08:43:45Z</time></trkpt><trkpt lat="40.46936593623947" lon="9.7755994158438"><ele>31.0</ele><time>2026-04-04T08:43:46Z</time></trkpt><trkpt lat="40.46924704124774" lon="9.775666940406095"><ele>32.0</ele><time>2026-04-04T08:43:47Z</time></trkpt><trkpt lat="40.46913540028265" lon="9.775693843426673"><ele>33.0</ele><time>2026-04-04T08:43:48Z</time></trkpt><trkpt lat="40.4690154444837" lon="9.77565493852531"><ele>34.0</ele><time>2026-04-04T08:43:49Z</time></trkpt><trkpt lat="40.46887687107506" lon="9.775567685007143"><ele>35.66666666666667</ele><time>2026-04-04T08:43:50Z</time></trkpt><trkpt lat="40.468728302819976" lon="9.775469888894536"><ele>37.333333333333336</ele><time>2026-04-04T08:43:51Z</time></trkpt><trkpt lat="40.468570919688865" lon="9.775369921312587"><ele>39.0</ele><time>2026-04-04T08:43:52Z</time></trkpt><trkpt lat="40.468437537210384" lon="9.775254207003675"><ele>40.0</ele><time>2026-04-04T08:43:53Z</time></trkpt><trkpt lat="40.468323611085104" lon="9.775144161278156"><ele>41.0</ele><time>2026-04-04T08:43:54Z</time></trkpt><trkpt lat="40.46819394795176" lon="9.775091691215284"><ele>42.0</ele><time>2026-04-04T08:43:55Z</time></trkpt><trkpt lat="40.46803211954723" lon="9.775101146731906"><ele>43.0</ele><time>2026-04-04T08:43:56Z</time></trkpt><trkpt lat="40.4678542112693" lon="9.775139820393782"><ele>44.333333333333336</ele><time>2026-04-04T08:43:57Z</time></trkpt><trkpt lat="40.467665055896546" lon="9.77513960897121"><ele>45.666666666666664</ele><time>2026-04-04T08:43:58Z</time></trkpt><trkpt lat="40.46744698892547" lon="9.775103963840339"><ele>47.0</ele><time>2026-04-04T08:43:59Z</time></trkpt><trkpt lat="40.46723578738344" lon="9.775072756692925"><ele>47.33333333333333</ele><time>2026-04-04T08:44:00Z</time></trkpt><trkpt lat="40.46703035399648" lon="9.775041149274024"><ele>47.666666666666664</ele><time>2026-04-04T08:44:01Z</time></trkpt><trkpt lat="40.466840868492" lon="9.775005198259125"><ele>48.0</ele><time>2026-04-04T08:44:02Z</time></trkpt><trkpt lat="40.4666567138953" lon="9.774961034253195"><ele>48.0</ele><time>2026-04-04T08:44:03Z</time></trkpt><trkpt lat="40.46647016965644" lon="9.774893831781382"><ele>48.0</ele><time>2026-04-04T08:44:04Z</time></trkpt><trkpt lat="40.46628275180882" lon="9.774789075876392"><ele>48.0</ele><time>2026-04-04T08:44:05Z</time></trkpt><trkpt lat="40.46607914345915" lon="9.77467510008327"><ele>48.5</ele><time>2026-04-04T08:44:06Z</time></trkpt><trkpt lat="40.46586556023889" lon="9.774549549373132"><ele>49.0</ele><time>2026-04-04T08:44:07Z</time></trkpt><trkpt lat="40.46564764225283" lon="9.774421660252274"><ele>44.5</ele><time>2026-04-04T08:44:08Z</time></trkpt><trkpt lat="40.4654393392799" lon="9.774300083943382"><ele>40.0</ele><time>2026-04-04T08:44:09Z</time></trkpt><trkpt lat="40.465233099289655" lon="9.774182409513887"><ele>40.0</ele><time>2026-04-04T08:44:10Z</time></trkpt><trkpt lat="40.46501989168526" lon="9.774060238975661"><ele>40.0</ele><time>2026-04-04T08:44:11Z</time></trkpt><trkpt lat="40.46480595480054" lon="9.773936633762329"><ele>40.0</ele><time>2026-04-04T08:44:12Z</time></trkpt><trkpt lat="40.46458667091502" lon="9.773809629979645"><ele>40.0</ele><time>2026-04-04T08:44:13Z</time></trkpt><trkpt lat="40.464364893566334" lon="9.773679477581265"><ele>40.0</ele><time>2026-04-04T08:44:14Z</time></trkpt><trkpt lat="40.46414462685552" lon="9.773546718740125"><ele>40.0</ele><time>2026-04-04T08:44:15Z</time></trkpt><trkpt lat="40.46393701299914" lon="9.773420842905372"><ele>37.66666666666667</ele><time>2026-04-04T08:44:16Z</time></trkpt><trkpt lat="40.46373810047621" lon="9.773307649567363"><ele>35.333333333333336</ele><time>2026-04-04T08:44:17Z</time></trkpt><trkpt lat="40.463538881999376" lon="9.77322244688048"><ele>33.0</ele><time>2026-04-04T08:44:18Z</time></trkpt><trkpt lat="40.46332344353566" lon="9.773168768200758"><ele>33.0</ele><time>2026-04-04T08:44:19Z</time></trkpt><trkpt lat="40.46309366248257" lon="9.773137418115626"><ele>33.0</ele><time>2026-04-04T08:44:20Z</time></trkpt><trkpt lat="40.4628560337396" lon="9.773123537120776"><ele>32.0</ele><time>2026-04-04T08:44:21Z</time></trkpt><trkpt lat="40.462616965657816" lon="9.773094102063578"><ele>31.0</ele><time>2026-04-04T08:44:22Z</time></trkpt><trkpt lat="40.46238129802867" lon="9.773044025210245"><ele>31.0</ele><time>2026-04-04T08:44:23Z</time></trkpt><trkpt lat="40.462144746334054" lon="9.772965092040508"><ele>31.0</ele><time>2026-04-04T08:44:24Z</time></trkpt><trkpt lat="40.461913156538614" lon="9.772865438542269"><ele>31.5</ele><time>2026-04-04T08:44:25Z</time></trkpt><trkpt lat="40.46167609458034" lon="9.772758627168205"><ele>32.0</ele><time>2026-04-04T08:44:26Z</time></trkpt><trkpt lat="40.46143436399208" lon="9.772657003240008"><ele>29.5</ele><time>2026-04-04T08:44:27Z</time></trkpt><trkpt lat="40.46118970592084" lon="9.772560413839988"><ele>27.0</ele><time>2026-04-04T08:44:28Z</time></trkpt><trkpt lat="40.460940793225454" lon="9.77245800563979"><ele>27.0</ele><time>2026-04-04T08:44:29Z</time></trkpt><trkpt lat="40.46068749876539" lon="9.772355267418552"><ele>27.0</ele><time>2026-04-04T08:44:30Z</time></trkpt><trkpt lat="40.46044315250482" lon="9.772227236672652"><ele>28.5</ele><time>2026-04-04T08:44:31Z</time></trkpt><trkpt lat="40.46018751377397" lon="9.772124030005545"><ele>30.0</ele><time>2026-04-04T08:44:32Z</time></trkpt><trkpt lat="40.45993028330394" lon="9.772020114347528"><ele>30.0</ele><time>2026-04-04T08:44:33Z</time></trkpt><trkpt lat="40.45967433435668" lon="9.771916185341105"><ele>30.0</ele><time>2026-04-04T08:44:34Z</time></trkpt><trkpt lat="40.459421261325744" lon="9.771813291447538"><ele>28.5</ele><time>2026-04-04T08:44:35Z</time></trkpt><trkpt lat="40.45916944225519" lon="9.771710674131807"><ele>27.0</ele><time>2026-04-04T08:44:36Z</time></trkpt><trkpt lat="40.45892990664766" lon="9.771614569380965"><ele>26.0</ele><time>2026-04-04T08:44:37Z</time></trkpt><trkpt lat="40.45871124390987" lon="9.771525976456953"><ele>25.0</ele><time>2026-04-04T08:44:38Z</time></trkpt><trkpt lat="40.458514975871" lon="9.77144646586033"><ele>24.0</ele><time>2026-04-04T08:44:39Z</time></trkpt><trkpt lat="40.45832551819522" lon="9.771372002513623"><ele>24.0</ele><time>2026-04-04T08:44:40Z</time></trkpt><trkpt lat="40.45812420405409" lon="9.771338802015674"><ele>24.0</ele><time>2026-04-04T08:44:41Z</time></trkpt><trkpt lat="40.457929439770886" lon="9.771325749760106"><ele>24.0</ele><time>2026-04-04T08:44:42Z</time></trkpt><trkpt lat="40.457724611714355" lon="9.771362180769056"><ele>25.0</ele><time>2026-04-04T08:44:43Z</time></trkpt><trkpt lat="40.45752284507738" lon="9.771441782128276"><ele>26.0</ele><time>2026-04-04T08:44:44Z</time></trkpt><trkpt lat="40.45730467908791" lon="9.771555994354086"><ele>27.0</ele><time>2026-04-04T08:44:45Z</time></trkpt><trkpt lat="40.45706656110812" lon="9.771637675299395"><ele>28.0</ele><time>2026-04-04T08:44:46Z</time></trkpt><trkpt lat="40.45682516767905" lon="9.771737625089576"><ele>29.0</ele><time>2026-04-04T08:44:47Z</time></trkpt><trkpt lat="40.456579352713405" lon="9.771839759312392"><ele>29.0</ele><time>2026-04-04T08:44:48Z</time></trkpt><trkpt lat="40.45635535102581" lon="9.771932798693506"><ele>29.0</ele><time>2026-04-04T08:44:49Z</time></trkpt><trkpt lat="40.456177450024356" lon="9.772005994223495"><ele>29.0</ele><time>2026-04-04T08:44:50Z</time></trkpt><trkpt lat="40.45602636120697" lon="9.77205430411916"><ele>29.25</ele><time>2026-04-04T08:44:51Z</time></trkpt><trkpt lat="40.4558887717574" lon="9.772048395634968"><ele>29.5</ele><time>2026-04-04T08:44:52Z</time></trkpt><trkpt lat="40.45576191863794" lon="9.77197135499415"><ele>29.75</ele><time>2026-04-04T08:44:53Z</time></trkpt><trkpt lat="40.45566192264029" lon="9.771834689690225"><ele>30.0</ele><time>2026-04-04T08:44:54Z</time></trkpt><trkpt lat="40.45554645569166" lon="9.77168589787195"><ele>30.666666666666664</ele><time>2026-04-04T08:44:55Z</time></trkpt><trkpt lat="40.45541119447263" lon="9.771559042078037"><ele>31.333333333333332</ele><time>2026-04-04T08:44:56Z</time></trkpt><trkpt lat="40.45526274004895" lon="9.771476742540878"><ele>32.0</ele><time>2026-04-04T08:44:57Z</time></trkpt><trkpt lat="40.455090997944325" lon="9.77145967508368"><ele>32.0</ele><time>2026-04-04T08:44:58Z</time></trkpt><trkpt lat="40.45491617354944" lon="9.771491548439968"><ele>32.0</ele><time>2026-04-04T08:44:59Z</time></trkpt><trkpt lat="40.45473631957401" lon="9.77156809001595"><ele>32.0</ele><time>2026-04-04T08:45:00Z</time></trkpt><trkpt lat="40.45453831286238" lon="9.771586136873447"><ele>31.0</ele><time>2026-04-04T08:45:01Z</time></trkpt><trkpt lat="40.45434168064053" lon="9.771605257684259"><ele>30.0</ele><time>2026-04-04T08:45:02Z</time></trkpt><trkpt lat="40.4541558165531" lon="9.771565993886172"><ele>29.0</ele><time>2026-04-04T08:45:03Z</time></trkpt><trkpt lat="40.453971116367846" lon="9.771487181816026"><ele>27.0</ele><time>2026-04-04T08:45:04Z</time></trkpt><trkpt lat="40.45376103821884" lon="9.771398620662762"><ele>25.0</ele><time>2026-04-04T08:45:05Z</time></trkpt><trkpt lat="40.453537621229835" lon="9.771304436354795"><ele>25.0</ele><time>2026-04-04T08:45:06Z</time></trkpt><trkpt lat="40.45330888569622" lon="9.771208009395314"><ele>25.0</ele><time>2026-04-04T08:45:07Z</time></trkpt><trkpt lat="40.45308797394694" lon="9.77111503529106"><ele>24.666666666666668</ele><time>2026-04-04T08:45:08Z</time></trkpt><trkpt lat="40.45287324847432" lon="9.771024620105244"><ele>24.333333333333336</ele><time>2026-04-04T08:45:09Z</time></trkpt><trkpt lat="40.452672650456094" lon="9.770940153599538"><ele>24.0</ele><time>2026-04-04T08:45:10Z</time></trkpt><trkpt lat="40.45247559713096" lon="9.770857389479616"><ele>23.0</ele><time>2026-04-04T08:45:11Z</time></trkpt><trkpt lat="40.45228093117127" lon="9.770775664212604"><ele>22.0</ele><time>2026-04-04T08:45:12Z</time></trkpt><trkpt lat="40.452083555528795" lon="9.770692786022407"><ele>21.0</ele><time>2026-04-04T08:45:13Z</time></trkpt><trkpt lat="40.451896981294" lon="9.770614227172498"><ele>20.666666666666668</ele><time>2026-04-04T08:45:14Z</time></trkpt><trkpt lat="40.45172148499472" lon="9.770540332778975"><ele>20.333333333333336</ele><time>2026-04-04T08:45:15Z</time></trkpt><trkpt lat="40.45155885532094" lon="9.770471857547735"><ele>20.0</ele><time>2026-04-04T08:45:16Z</time></trkpt><trkpt lat="40.451406208688894" lon="9.770407584615556"><ele>20.0</ele><time>2026-04-04T08:45:17Z</time></trkpt><trkpt lat="40.45126370581452" lon="9.770347219645126"><ele>20.0</ele><time>2026-04-04T08:45:18Z</time></trkpt><trkpt lat="40.45112532697145" lon="9.770288623804971"><ele>20.0</ele><time>2026-04-04T08:45:19Z</time></trkpt><trkpt lat="40.45098560076373" lon="9.770229457585991"><ele>20.0</ele><time>2026-04-04T08:45:20Z</time></trkpt><trkpt lat="40.450839344666285" lon="9.770167526226963"><ele>20.666666666666668</ele><time>2026-04-04T08:45:21Z</time></trkpt><trkpt lat="40.45069107333987" lon="9.77010474156141"><ele>21.333333333333332</ele><time>2026-04-04T08:45:22Z</time></trkpt><trkpt lat="40.450539847226345" lon="9.770041621150932"><ele>22.0</ele><time>2026-04-04T08:45:23Z</time></trkpt><trkpt lat="40.45039255506512" lon="9.769980452448554"><ele>22.0</ele><time>2026-04-04T08:45:24Z</time></trkpt><trkpt lat="40.45023755543109" lon="9.769916082973303"><ele>22.0</ele><time>2026-04-04T08:45:25Z</time></trkpt><trkpt lat="40.45007914653312" lon="9.769850297672814"><ele>22.0</ele><time>2026-04-04T08:45:26Z</time></trkpt><trkpt lat="40.44993368574354" lon="9.769789889556618"><ele>22.0</ele><time>2026-04-04T08:45:27Z</time></trkpt><trkpt lat="40.44980004996874" lon="9.769734392254449"><ele>22.0</ele><time>2026-04-04T08:45:28Z</time></trkpt><trkpt lat="40.449682414308356" lon="9.769685539591853"><ele>22.0</ele><time>2026-04-04T08:45:29Z</time></trkpt><trkpt lat="40.449573536603395" lon="9.76964033828351"><ele>22.0</ele><time>2026-04-04T08:45:30Z</time></trkpt><trkpt lat="40.449468648584265" lon="9.76959633668974"><ele>21.833333333333332</ele><time>2026-04-04T08:45:31Z</time></trkpt><trkpt lat="40.44937557116726" lon="9.769557289767441"><ele>21.666666666666664</ele><time>2026-04-04T08:45:32Z</time></trkpt><trkpt lat="40.44930341962293" lon="9.769527021443455"><ele>21.5</ele><time>2026-04-04T08:45:33Z</time></trkpt><trkpt lat="40.44922129414391" lon="9.769492568988284"><ele>21.333333333333332</ele><time>2026-04-04T08:45:35Z</time></trkpt><trkpt lat="40.44912291079626" lon="9.7694512961793"><ele>21.166666666666668</ele><time>2026-04-04T08:45:37Z</time></trkpt><trkpt lat="40.4490483841906" lon="9.769420325918086"><ele>21.0</ele><time>2026-04-04T08:45:38Z</time></trkpt><trkpt lat="40.448949266415305" lon="9.769378403913603"><ele>21.0</ele><time>2026-04-04T08:45:39Z</time></trkpt><trkpt lat="40.448833638012566" lon="9.769329702047758"><ele>21.0</ele><time>2026-04-04T08:45:40Z</time></trkpt><trkpt lat="40.44872802612354" lon="9.769285226743092"><ele>21.0</ele><time>2026-04-04T08:45:41Z</time></trkpt><trkpt lat="40.44861104731217" lon="9.769235964657815"><ele>21.0</ele><time>2026-04-04T08:45:42Z</time></trkpt><trkpt lat="40.44846807708578" lon="9.769213845352025"><ele>21.0</ele><time>2026-04-04T08:45:43Z</time></trkpt><trkpt lat="40.44831395781529" lon="9.769147728593548"><ele>21.0</ele><time>2026-04-04T08:45:44Z</time></trkpt><trkpt lat="40.44814563261948" lon="9.769076754261974"><ele>21.0</ele><time>2026-04-04T08:45:45Z</time></trkpt><trkpt lat="40.44798803101767" lon="9.769011791029671"><ele>21.0</ele><time>2026-04-04T08:45:46Z</time></trkpt><trkpt lat="40.4478422950681" lon="9.768911718303784"><ele>21.0</ele><time>2026-04-04T08:45:47Z</time></trkpt><trkpt lat="40.4476819542533" lon="9.768844841697243"><ele>21.0</ele><time>2026-04-04T08:45:48Z</time></trkpt><trkpt lat="40.44751138529478" lon="9.76877369889607"><ele>21.0</ele><time>2026-04-04T08:45:49Z</time></trkpt><trkpt lat="40.44732686110442" lon="9.768696725244434"><ele>21.0</ele><time>2026-04-04T08:45:50Z</time></trkpt><trkpt lat="40.447126638386145" lon="9.768613203968991"><ele>21.0</ele><time>2026-04-04T08:45:51Z</time></trkpt><trkpt lat="40.44691204947931" lon="9.768523689688683"><ele>21.333333333333332</ele><time>2026-04-04T08:45:52Z</time></trkpt><trkpt lat="40.44671441184643" lon="9.768440971371875"><ele>21.666666666666664</ele><time>2026-04-04T08:45:53Z</time></trkpt><trkpt lat="40.4465184953967" lon="9.76835902072851"><ele>22.0</ele><time>2026-04-04T08:45:54Z</time></trkpt><trkpt lat="40.44631310963071" lon="9.768273107610597"><ele>22.666666666666664</ele><time>2026-04-04T08:45:55Z</time></trkpt><trkpt lat="40.44610358341948" lon="9.768185462474218"><ele>23.333333333333332</ele><time>2026-04-04T08:45:56Z</time></trkpt><trkpt lat="40.445887321697455" lon="9.768094743684566"><ele>24.0</ele><time>2026-04-04T08:45:57Z</time></trkpt><trkpt lat="40.445651428535335" lon="9.768028098336986"><ele>24.0</ele><time>2026-04-04T08:45:58Z</time></trkpt><trkpt lat="40.44541242314913" lon="9.767929563937331"><ele>24.0</ele><time>2026-04-04T08:45:59Z</time></trkpt><trkpt lat="40.445167126060234" lon="9.767832499810643"><ele>24.0</ele><time>2026-04-04T08:46:00Z</time></trkpt><trkpt lat="40.444940628705595" lon="9.767744123663878"><ele>24.0</ele><time>2026-04-04T08:46:01Z</time></trkpt><trkpt lat="40.44472887588162" lon="9.76762626060253"><ele>25.0</ele><time>2026-04-04T08:46:02Z</time></trkpt><trkpt lat="40.44450527714448" lon="9.767543482119281"><ele>26.0</ele><time>2026-04-04T08:46:03Z</time></trkpt><trkpt lat="40.444278787613705" lon="9.76745885076548"><ele>26.0</ele><time>2026-04-04T08:46:04Z</time></trkpt><trkpt lat="40.44404930992715" lon="9.767373243116383"><ele>26.0</ele><time>2026-04-04T08:46:05Z</time></trkpt><trkpt lat="40.443818847810945" lon="9.767287267423237"><ele>23.5</ele><time>2026-04-04T08:46:06Z</time></trkpt><trkpt lat="40.44358630678386" lon="9.767201307522729"><ele>21.0</ele><time>2026-04-04T08:46:07Z</time></trkpt><trkpt lat="40.44336176745294" lon="9.767118182624984"><ele>21.0</ele><time>2026-04-04T08:46:08Z</time></trkpt><trkpt lat="40.44314539368663" lon="9.767038679216245"><ele>21.0</ele><time>2026-04-04T08:46:09Z</time></trkpt><trkpt lat="40.44293120673513" lon="9.766959979351116"><ele>21.0</ele><time>2026-04-04T08:46:10Z</time></trkpt><trkpt lat="40.442727179398545" lon="9.766885328084703"><ele>20.666666666666668</ele><time>2026-04-04T08:46:11Z</time></trkpt><trkpt lat="40.44252165164644" lon="9.7668100904787"><ele>20.333333333333336</ele><time>2026-04-04T08:46:12Z</time></trkpt><trkpt lat="40.442324920134475" lon="9.766737564913877"><ele>20.0</ele><time>2026-04-04T08:46:13Z</time></trkpt><trkpt lat="40.442137850048006" lon="9.766668584189034"><ele>19.0</ele><time>2026-04-04T08:46:14Z</time></trkpt><trkpt lat="40.441963057074794" lon="9.766604130557662"><ele>18.0</ele><time>2026-04-04T08:46:15Z</time></trkpt><trkpt lat="40.44179469794261" lon="9.76654204934999"><ele>17.0</ele><time>2026-04-04T08:46:16Z</time></trkpt><trkpt lat="40.44163040262454" lon="9.766481468231103"><ele>17.0</ele><time>2026-04-04T08:46:17Z</time></trkpt><trkpt lat="40.441469743731616" lon="9.766422226396788"><ele>17.0</ele><time>2026-04-04T08:46:18Z</time></trkpt><trkpt lat="40.441307174841796" lon="9.766362280366357"><ele>17.0</ele><time>2026-04-04T08:46:19Z</time></trkpt><trkpt lat="40.44116199336515" lon="9.766308745708622"><ele>16.25</ele><time>2026-04-04T08:46:20Z</time></trkpt><trkpt lat="40.44101087250083" lon="9.766253021095698"><ele>15.5</ele><time>2026-04-04T08:46:21Z</time></trkpt><trkpt lat="40.44087511730166" lon="9.766202131738288"><ele>14.75</ele><time>2026-04-04T08:46:22Z</time></trkpt><trkpt lat="40.44074475708507" lon="9.766153022226936"><ele>14.0</ele><time>2026-04-04T08:46:23Z</time></trkpt><trkpt lat="40.44061556533596" lon="9.766104355133427"><ele>14.0</ele><time>2026-04-04T08:46:24Z</time></trkpt><trkpt lat="40.44049038809038" lon="9.766057200321546"><ele>14.0</ele><time>2026-04-04T08:46:25Z</time></trkpt><trkpt lat="40.440374155514064" lon="9.766013415005313"><ele>14.0</ele><time>2026-04-04T08:46:26Z</time></trkpt><trkpt lat="40.44025565050178" lon="9.765996090710935"><ele>14.0</ele><time>2026-04-04T08:46:27Z</time></trkpt><trkpt lat="40.440147052254005" lon="9.765957743536848"><ele>14.2</ele><time>2026-04-04T08:46:28Z</time></trkpt><trkpt lat="40.44004172132691" lon="9.765920056568433"><ele>14.399999999999999</ele><time>2026-04-04T08:46:29Z</time></trkpt><trkpt lat="40.43993829702777" lon="9.765880665321216"><ele>14.6</ele><time>2026-04-04T08:46:30Z</time></trkpt><trkpt lat="40.439834156398625" lon="9.765840778727679"><ele>14.8</ele><time>2026-04-04T08:46:31Z</time></trkpt><trkpt lat="40.43972898495897" lon="9.765801125252272"><ele>15.0</ele><time>2026-04-04T08:46:32Z</time></trkpt><trkpt lat="40.439622621596975" lon="9.76576186352402"><ele>14.4</ele><time>2026-04-04T08:46:33Z</time></trkpt><trkpt lat="40.439520158140695" lon="9.76572397118524"><ele>13.8</ele><time>2026-04-04T08:46:34Z</time></trkpt><trkpt lat="40.43942132078393" lon="9.765685941515999"><ele>13.2</ele><time>2026-04-04T08:46:35Z</time></trkpt><trkpt lat="40.43932467886319" lon="9.765647061202294"><ele>12.6</ele><time>2026-04-04T08:46:36Z</time></trkpt><trkpt lat="40.43922835666365" lon="9.765611114993952"><ele>12.0</ele><time>2026-04-04T08:46:37Z</time></trkpt><trkpt lat="40.43913650664244" lon="9.765576387972663"><ele>12.0</ele><time>2026-04-04T08:46:38Z</time></trkpt><trkpt lat="40.43904741268168" lon="9.76553963512905"><ele>12.0</ele><time>2026-04-04T08:46:39Z</time></trkpt><trkpt lat="40.43896308519591" lon="9.765500341448687"><ele>12.0</ele><time>2026-04-04T08:46:40Z</time></trkpt><trkpt lat="40.43888659802552" lon="9.765455866549337"><ele>12.0</ele><time>2026-04-04T08:46:41Z</time></trkpt><trkpt lat="40.43881455087573" lon="9.7654072620715"><ele>12.0</ele><time>2026-04-04T08:46:42Z</time></trkpt><trkpt lat="40.43874271044804" lon="9.765357137273769"><ele>12.0</ele><time>2026-04-04T08:46:43Z</time></trkpt><trkpt lat="40.438672127977334" lon="9.765308667793235"><ele>11.666666666666666</ele><time>2026-04-04T08:46:44Z</time></trkpt><trkpt lat="40.438599505690206" lon="9.765262003445597"><ele>11.333333333333334</ele><time>2026-04-04T08:46:45Z</time></trkpt><trkpt lat="40.43852557574011" lon="9.765215958863017"><ele>11.0</ele><time>2026-04-04T08:46:46Z</time></trkpt><trkpt lat="40.438458373863405" lon="9.765172187300157"><ele>10.666666666666668</ele><time>2026-04-04T08:46:47Z</time></trkpt><trkpt lat="40.43840138133102" lon="9.765132751415491"><ele>10.333333333333334</ele><time>2026-04-04T08:46:48Z</time></trkpt><trkpt lat="40.4383399063333" lon="9.765052068143095"><ele>10.0</ele><time>2026-04-04T08:46:50Z</time></trkpt><trkpt lat="40.4383223027668" lon="9.764937098167348"><ele>9.5</ele><time>2026-04-04T08:46:53Z</time></trkpt><trkpt lat="40.438254653354925" lon="9.764910565805677"><ele>9.0</ele><time>2026-04-04T08:46:56Z</time></trkpt><trkpt lat="40.43817308099083" lon="9.764942077323143"><ele>8.5</ele><time>2026-04-04T08:47:00Z</time></trkpt><trkpt lat="40.43809860691708" lon="9.764906675196354"><ele>8.0</ele><time>2026-04-04T08:47:03Z</time></trkpt><trkpt lat="40.438016473718676" lon="9.764939639370015"><ele>7.500000000000001</ele><time>2026-04-04T08:47:06Z</time></trkpt><trkpt lat="40.43798684580624" lon="9.765026547219746"><ele>7.0</ele><time>2026-04-04T08:47:09Z</time></trkpt><trkpt lat="40.43805245222547" lon="9.764981088782996"><ele>7.0</ele><time>2026-04-04T08:50:15Z</time></trkpt><trkpt lat="40.43811467277189" lon="9.76494913777707"><ele>7.0</ele><time>2026-04-04T08:50:22Z</time></trkpt><trkpt lat="40.43818323990359" lon="9.76491861665275"><ele>7.0</ele><time>2026-04-04T08:50:29Z</time></trkpt><trkpt lat="40.438250578554154" lon="9.764934473160437"><ele>7.0</ele><time>2026-04-04T08:50:36Z</time></trkpt><trkpt lat="40.43831287192914" lon="9.764984917512654"><ele>7.0</ele><time>2026-04-04T08:50:43Z</time></trkpt><trkpt lat="40.438365157120884" lon="9.765034161472546"><ele>7.0</ele><time>2026-04-04T08:50:51Z</time></trkpt><trkpt lat="40.43842661905937" lon="9.765076913010539"><ele>7.0</ele><time>2026-04-04T08:51:01Z</time></trkpt><trkpt lat="40.438412883947784" lon="9.765160428269198"><ele>7.6</ele><time>2026-04-04T08:51:41.999Z</time></trkpt><trkpt lat="40.4382598472147" lon="9.765216845553704"><ele>8.2</ele><time>2026-04-04T08:52:00Z</time></trkpt><trkpt lat="40.43820672208474" lon="9.765329458304388"><ele>8.8</ele><time>2026-04-04T08:52:17Z</time></trkpt><trkpt lat="40.438162230186386" lon="9.765397973543955"><ele>9.4</ele><time>2026-04-04T08:52:20Z</time></trkpt><trkpt lat="40.43809672904259" lon="9.765337196798297"><ele>10.0</ele><time>2026-04-04T08:52:27.071Z</time></trkpt><trkpt lat="40.43813623414029" lon="9.765224257980764"><ele>10.0</ele><time>2026-04-04T08:52:30.072Z</time></trkpt><trkpt lat="40.43827654366931" lon="9.765197111580006"><ele>10.0</ele><time>2026-04-04T08:53:16.396Z</time></trkpt><trkpt lat="40.43834645855158" lon="9.765162702592988"><ele>10.0</ele><time>2026-04-04T08:53:22.801Z</time></trkpt><trkpt lat="40.43835862682375" lon="9.765434629924387"><ele>10.0</ele><time>2026-04-04T08:54:16.014Z</time></trkpt><trkpt lat="40.43831528241321" lon="9.765354128988337"><ele>10.0</ele><time>2026-04-04T08:54:29.012Z</time></trkpt><trkpt lat="40.43832926772961" lon="9.765195348899883"><ele>10.0</ele><time>2026-04-04T08:55:00.422Z</time></trkpt><trkpt lat="40.43833369584464" lon="9.765077648147734"><ele>10.0</ele><time>2026-04-04T08:55:36.014Z</time></trkpt><trkpt lat="40.4383813836261" lon="9.765014502802932"><ele>10.0</ele><time>2026-04-04T08:55:42.013Z</time></trkpt><trkpt lat="40.438383848399525" lon="9.76510057092843"><ele>10.0</ele><time>2026-04-04T08:55:54.012Z</time></trkpt><trkpt lat="40.43836061808515" lon="9.765313977089347"><ele>9.5</ele><time>2026-04-04T08:55:57.012Z</time></trkpt><trkpt lat="40.43834991122745" lon="9.765179167926833"><ele>9.0</ele><time>2026-04-04T08:57:21.768Z</time></trkpt><trkpt lat="40.43834129204588" lon="9.765033781212644"><ele>8.5</ele><time>2026-04-04T08:57:24.012Z</time></trkpt><trkpt lat="40.43841352262784" lon="9.764969496503609"><ele>8.0</ele><time>2026-04-04T08:57:55.015Z</time></trkpt><trkpt lat="40.43846737425358" lon="9.76502178240375"><ele>7.500000000000001</ele><time>2026-04-04T09:01:46.013Z</time></trkpt><trkpt lat="40.438423662488695" lon="9.764957746887017"><ele>7.0</ele><time>2026-04-04T09:02:22Z</time></trkpt><trkpt lat="40.43843103871593" lon="9.765063370534433"><ele>7.0</ele><time>2026-04-04T09:03:09.999Z</time></trkpt><trkpt lat="40.438373451751524" lon="9.765100484816463"><ele>7.0</ele><time>2026-04-04T09:07:18Z</time></trkpt><trkpt lat="40.438311308143916" lon="9.765152488562535"><ele>7.0</ele><time>2026-04-04T09:07:24Z</time></trkpt><trkpt lat="40.4382436906401" lon="9.765135438227803"><ele>7.0</ele><time>2026-04-04T09:07:31Z</time></trkpt><trkpt lat="40.43818495905828" lon="9.765099937052792"><ele>7.0</ele><time>2026-04-04T09:07:37Z</time></trkpt><trkpt lat="40.43812398961345" lon="9.765067975859731"><ele>7.0</ele><time>2026-04-04T09:07:43Z</time></trkpt><trkpt lat="40.438055927434604" lon="9.76503879758035"><ele>7.0</ele><time>2026-04-04T09:07:52Z</time></trkpt><trkpt lat="40.43797380790399" lon="9.765063567455142"><ele>7.0</ele><time>2026-04-04T09:09:18Z</time></trkpt><trkpt lat="40.43797573842917" lon="9.764965901832113"><ele>6.999999999999999</ele><time>2026-04-04T09:11:51.999Z</time></trkpt><trkpt lat="40.43797493108193" lon="9.764870694491513"><ele>6.999999999999999</ele><time>2026-04-04T09:11:57.999Z</time></trkpt><trkpt lat="40.43788788283842" lon="9.764776037379633"><ele>7.0</ele><time>2026-04-04T09:11:59.999Z</time></trkpt><trkpt lat="40.43782483524266" lon="9.764736787392213"><ele>7.0</ele><time>2026-04-04T09:12:00.999Z</time></trkpt><trkpt lat="40.437733338226415" lon="9.76463431477359"><ele>6.666666666666667</ele><time>2026-04-04T09:12:02.999Z</time></trkpt><trkpt lat="40.43766779561409" lon="9.764589184025882"><ele>6.333333333333334</ele><time>2026-04-04T09:12:03.999Z</time></trkpt><trkpt lat="40.437597591384204" lon="9.764540843302283"><ele>6.0</ele><time>2026-04-04T09:12:04.999Z</time></trkpt><trkpt lat="40.437517677399086" lon="9.764485816744635"><ele>5.666666666666667</ele><time>2026-04-04T09:12:05.999Z</time></trkpt><trkpt lat="40.43743989664236" lon="9.7644322592189"><ele>5.333333333333334</ele><time>2026-04-04T09:12:06.999Z</time></trkpt><trkpt lat="40.437347921903886" lon="9.764368927927492"><ele>5.0</ele><time>2026-04-04T09:12:07.999Z</time></trkpt><trkpt lat="40.43723779898596" lon="9.764293397106186"><ele>5.25</ele><time>2026-04-04T09:12:08.999Z</time></trkpt><trkpt lat="40.43713279397361" lon="9.764220127271269"><ele>5.5</ele><time>2026-04-04T09:12:09.999Z</time></trkpt><trkpt lat="40.437020695201774" lon="9.764141844195313"><ele>5.75</ele><time>2026-04-04T09:12:10.999Z</time></trkpt><trkpt lat="40.43690718813554" lon="9.764063422077063"><ele>6.0</ele><time>2026-04-04T09:12:11.999Z</time></trkpt><trkpt lat="40.43679811071816" lon="9.764002211976546"><ele>6.0</ele><time>2026-04-04T09:12:12.999Z</time></trkpt><trkpt lat="40.436675164225036" lon="9.76396323001736"><ele>6.0</ele><time>2026-04-04T09:12:13.999Z</time></trkpt><trkpt lat="40.43654472816206" lon="9.763979060405667"><ele>6.0</ele><time>2026-04-04T09:12:14.999Z</time></trkpt><trkpt lat="40.436419496354254" lon="9.764056215011573"><ele>6.0</ele><time>2026-04-04T09:12:15.999Z</time></trkpt><trkpt lat="40.43633154135566" lon="9.764204762963661"><ele>6.666666666666666</ele><time>2026-04-04T09:12:16.999Z</time></trkpt><trkpt lat="40.43622942299825" lon="9.764338831513252"><ele>7.333333333333333</ele><time>2026-04-04T09:12:17.999Z</time></trkpt><trkpt lat="40.43613353296139" lon="9.76450438283577"><ele>8.0</ele><time>2026-04-04T09:12:18.999Z</time></trkpt><trkpt lat="40.436029171058" lon="9.7646838584433"><ele>8.0</ele><time>2026-04-04T09:12:19.999Z</time></trkpt><trkpt lat="40.43593114976093" lon="9.764857504199627"><ele>8.0</ele><time>2026-04-04T09:12:20.999Z</time></trkpt><trkpt lat="40.43586024015798" lon="9.765023852610454"><ele>8.0</ele><time>2026-04-04T09:12:21.999Z</time></trkpt><trkpt lat="40.43577101653463" lon="9.765134439456075"><ele>8.0</ele><time>2026-04-04T09:12:22.999Z</time></trkpt><trkpt lat="40.4356680511747" lon="9.765201086341992"><ele>8.5</ele><time>2026-04-04T09:12:23.999Z</time></trkpt><trkpt lat="40.43555702142798" lon="9.765211993753699"><ele>9.0</ele><time>2026-04-04T09:12:24.999Z</time></trkpt><trkpt lat="40.4354401765384" lon="9.765170237547252"><ele>9.5</ele><time>2026-04-04T09:12:25.999Z</time></trkpt><trkpt lat="40.43530858991555" lon="9.76510061443991"><ele>10.0</ele><time>2026-04-04T09:12:26.999Z</time></trkpt><trkpt lat="40.435162906435416" lon="9.764997786981628"><ele>10.0</ele><time>2026-04-04T09:12:27.999Z</time></trkpt><trkpt lat="40.43499666807543" lon="9.764930386325652"><ele>10.0</ele><time>2026-04-04T09:12:28.999Z</time></trkpt><trkpt lat="40.4348303413208" lon="9.764878731932487"><ele>10.0</ele><time>2026-04-04T09:12:29.999Z</time></trkpt><trkpt lat="40.43464633043903" lon="9.764848237077475"><ele>10.333333333333334</ele><time>2026-04-04T09:12:30.999Z</time></trkpt><trkpt lat="40.43444659027374" lon="9.76485621824239"><ele>10.666666666666666</ele><time>2026-04-04T09:12:31.999Z</time></trkpt><trkpt lat="40.43423494613029" lon="9.764897717841846"><ele>11.0</ele><time>2026-04-04T09:12:32.999Z</time></trkpt><trkpt lat="40.434008888432295" lon="9.764978456054003"><ele>13.0</ele><time>2026-04-04T09:12:33.999Z</time></trkpt><trkpt lat="40.43379396023124" lon="9.765073697673042"><ele>15.0</ele><time>2026-04-04T09:12:34.999Z</time></trkpt><trkpt lat="40.43357196447242" lon="9.765173191194648"><ele>12.5</ele><time>2026-04-04T09:12:35.999Z</time></trkpt><trkpt lat="40.43334423657713" lon="9.765274773256737"><ele>10.0</ele><time>2026-04-04T09:12:36.999Z</time></trkpt><trkpt lat="40.43314106204812" lon="9.765364886303882"><ele>11.5</ele><time>2026-04-04T09:12:37.999Z</time></trkpt><trkpt lat="40.43291735272927" lon="9.765464107187398"><ele>13.0</ele><time>2026-04-04T09:12:38.999Z</time></trkpt><trkpt lat="40.43268983737036" lon="9.765565548635543"><ele>13.0</ele><time>2026-04-04T09:12:39.999Z</time></trkpt><trkpt lat="40.432460886537335" lon="9.765671170446037"><ele>13.0</ele><time>2026-04-04T09:12:40.999Z</time></trkpt><trkpt lat="40.43222745899255" lon="9.765780075470534"><ele>13.0</ele><time>2026-04-04T09:12:41.999Z</time></trkpt><trkpt lat="40.43199647489068" lon="9.76588784109012"><ele>13.0</ele><time>2026-04-04T09:12:42.999Z</time></trkpt><trkpt lat="40.43178197382072" lon="9.765990956603018"><ele>12.5</ele><time>2026-04-04T09:12:43.999Z</time></trkpt><trkpt lat="40.43157249347833" lon="9.766104117489723"><ele>12.0</ele><time>2026-04-04T09:12:44.999Z</time></trkpt><trkpt lat="40.43140116370454" lon="9.766305424033229"><ele>16.0</ele><time>2026-04-04T09:12:45.999Z</time></trkpt><trkpt lat="40.431227586475046" lon="9.766508720032672"><ele>20.0</ele><time>2026-04-04T09:12:46.999Z</time></trkpt><trkpt lat="40.43103606728932" lon="9.766706018644467"><ele>15.5</ele><time>2026-04-04T09:12:47.999Z</time></trkpt><trkpt lat="40.430827878017325" lon="9.766898027358089"><ele>11.0</ele><time>2026-04-04T09:12:49Z</time></trkpt><trkpt lat="40.43061657876897" lon="9.767092355678585"><ele>16.5</ele><time>2026-04-04T09:12:50Z</time></trkpt><trkpt lat="40.4304132363934" lon="9.767276550321808"><ele>22.0</ele><time>2026-04-04T09:12:51Z</time></trkpt><trkpt lat="40.43020380428626" lon="9.767439379866609"><ele>22.0</ele><time>2026-04-04T09:12:52Z</time></trkpt><trkpt lat="40.42998059523853" lon="9.767571108621887"><ele>22.0</ele><time>2026-04-04T09:12:53Z</time></trkpt><trkpt lat="40.429780709528785" lon="9.767689930200564"><ele>22.333333333333332</ele><time>2026-04-04T09:12:54Z</time></trkpt><trkpt lat="40.429602848951276" lon="9.767775106881881"><ele>22.666666666666668</ele><time>2026-04-04T09:12:55Z</time></trkpt><trkpt lat="40.42942881233642" lon="9.76782139800661"><ele>23.0</ele><time>2026-04-04T09:12:56Z</time></trkpt><trkpt lat="40.42923859485266" lon="9.76786084434924"><ele>23.0</ele><time>2026-04-04T09:12:57Z</time></trkpt><trkpt lat="40.42903778297593" lon="9.767870321790344"><ele>23.0</ele><time>2026-04-04T09:12:58Z</time></trkpt><trkpt lat="40.428825429983156" lon="9.76785162791201"><ele>23.0</ele><time>2026-04-04T09:12:59Z</time></trkpt><trkpt lat="40.42860049195188" lon="9.767825247024687"><ele>24.333333333333336</ele><time>2026-04-04T09:13:00Z</time></trkpt><trkpt lat="40.42839654346524" lon="9.767801114390153"><ele>25.666666666666668</ele><time>2026-04-04T09:13:01Z</time></trkpt><trkpt lat="40.42821443576611" lon="9.767788520480847"><ele>27.0</ele><time>2026-04-04T09:13:02Z</time></trkpt><trkpt lat="40.4280298206361" lon="9.76785006030214"><ele>30.0</ele><time>2026-04-04T09:13:03Z</time></trkpt><trkpt lat="40.4278480357837" lon="9.767942965230477"><ele>33.0</ele><time>2026-04-04T09:13:04Z</time></trkpt><trkpt lat="40.427674212496655" lon="9.76805140042239"><ele>36.0</ele><time>2026-04-04T09:13:05Z</time></trkpt><trkpt lat="40.42752724569665" lon="9.768158308217643"><ele>36.0</ele><time>2026-04-04T09:13:06Z</time></trkpt><trkpt lat="40.42742412054999" lon="9.76829592922157"><ele>36.0</ele><time>2026-04-04T09:13:07Z</time></trkpt><trkpt lat="40.4273629675122" lon="9.768441383489813"><ele>36.0</ele><time>2026-04-04T09:13:08Z</time></trkpt><trkpt lat="40.42729618913896" lon="9.768530636576417"><ele>36.0</ele><time>2026-04-04T09:13:09Z</time></trkpt><trkpt lat="40.427224710381644" lon="9.768593074118831"><ele>35.8</ele><time>2026-04-04T09:13:10Z</time></trkpt><trkpt lat="40.42713447665184" lon="9.768583301072105"><ele>35.6</ele><time>2026-04-04T09:13:11Z</time></trkpt><trkpt lat="40.427030159979246" lon="9.768591102524109"><ele>35.4</ele><time>2026-04-04T09:13:12Z</time></trkpt><trkpt lat="40.42694403429753" lon="9.768480170554252"><ele>35.2</ele><time>2026-04-04T09:13:13Z</time></trkpt><trkpt lat="40.42684179613891" lon="9.768400223554416"><ele>35.0</ele><time>2026-04-04T09:13:14Z</time></trkpt><trkpt lat="40.42673708781148" lon="9.768313586500676"><ele>35.8</ele><time>2026-04-04T09:13:15Z</time></trkpt><trkpt lat="40.426640806108786" lon="9.768233921800784"><ele>36.6</ele><time>2026-04-04T09:13:16Z</time></trkpt><trkpt lat="40.42658223209573" lon="9.768185455453603"><ele>37.4</ele><time>2026-04-04T09:13:17Z</time></trkpt><trkpt lat="40.42648847187393" lon="9.768107872538355"><ele>38.2</ele><time>2026-04-04T09:13:19Z</time></trkpt><trkpt lat="40.42638768222304" lon="9.76802566906409"><ele>39.0</ele><time>2026-04-04T09:13:21Z</time></trkpt><trkpt lat="40.42632010230122" lon="9.767971679552867"><ele>39.75</ele><time>2026-04-04T09:13:22Z</time></trkpt><trkpt lat="40.4262384541185" lon="9.767902219984721"><ele>40.5</ele><time>2026-04-04T09:13:23Z</time></trkpt><trkpt lat="40.42613394075985" lon="9.767819086890775"><ele>41.25</ele><time>2026-04-04T09:13:24Z</time></trkpt><trkpt lat="40.42604234283155" lon="9.767698853983026"><ele>42.0</ele><time>2026-04-04T09:13:25Z</time></trkpt><trkpt lat="40.425955349800844" lon="9.767581296897808"><ele>42.25</ele><time>2026-04-04T09:13:26Z</time></trkpt><trkpt lat="40.425865328587456" lon="9.767448270534134"><ele>42.5</ele><time>2026-04-04T09:13:27Z</time></trkpt><trkpt lat="40.42577371848707" lon="9.767308722621529"><ele>42.75</ele><time>2026-04-04T09:13:28Z</time></trkpt><trkpt lat="40.42567924115863" lon="9.767160999300467"><ele>43.0</ele><time>2026-04-04T09:13:29Z</time></trkpt><trkpt lat="40.42557934173978" lon="9.767010834155538"><ele>43.0</ele><time>2026-04-04T09:13:30Z</time></trkpt><trkpt lat="40.42547775522695" lon="9.76686076293522"><ele>43.0</ele><time>2026-04-04T09:13:31Z</time></trkpt><trkpt lat="40.4253722327926" lon="9.766699727014196"><ele>43.0</ele><time>2026-04-04T09:13:32Z</time></trkpt><trkpt lat="40.42525774148843" lon="9.766527015353788"><ele>43.0</ele><time>2026-04-04T09:13:33Z</time></trkpt><trkpt lat="40.42513783038076" lon="9.76634506220115"><ele>43.0</ele><time>2026-04-04T09:13:34Z</time></trkpt><trkpt lat="40.4250175102065" lon="9.766160078129186"><ele>43.0</ele><time>2026-04-04T09:13:35Z</time></trkpt><trkpt lat="40.42488358446988" lon="9.765957642603942"><ele>43.0</ele><time>2026-04-04T09:13:36Z</time></trkpt><trkpt lat="40.42473512945945" lon="9.76573319634005"><ele>43.0</ele><time>2026-04-04T09:13:37Z</time></trkpt><trkpt lat="40.424574365262345" lon="9.765486964446975"><ele>44.0</ele><time>2026-04-04T09:13:38Z</time></trkpt><trkpt lat="40.42440347526542" lon="9.765225873086942"><ele>45.0</ele><time>2026-04-04T09:13:39Z</time></trkpt><trkpt lat="40.424240921549625" lon="9.764978322495335"><ele>45.0</ele><time>2026-04-04T09:13:40Z</time></trkpt><trkpt lat="40.42407215055563" lon="9.764725366820358"><ele>45.0</ele><time>2026-04-04T09:13:41Z</time></trkpt><trkpt lat="40.42389798350598" lon="9.764463916263464"><ele>46.5</ele><time>2026-04-04T09:13:42Z</time></trkpt><trkpt lat="40.42371874352006" lon="9.76419582455848"><ele>48.0</ele><time>2026-04-04T09:13:43Z</time></trkpt><trkpt lat="40.42355015278279" lon="9.763907397999024"><ele>48.0</ele><time>2026-04-04T09:13:44Z</time></trkpt><trkpt lat="40.42337907932747" lon="9.763649096546805"><ele>48.0</ele><time>2026-04-04T09:13:45Z</time></trkpt><trkpt lat="40.42321564931159" lon="9.763403194841707"><ele>48.0</ele><time>2026-04-04T09:13:46Z</time></trkpt><trkpt lat="40.42305521479146" lon="9.76319052943476"><ele>48.0</ele><time>2026-04-04T09:13:47Z</time></trkpt><trkpt lat="40.422933235790204" lon="9.762966699359938"><ele>48.0</ele><time>2026-04-04T09:13:48Z</time></trkpt><trkpt lat="40.422811434759105" lon="9.762769978823016"><ele>48.66666666666667</ele><time>2026-04-04T09:13:49Z</time></trkpt><trkpt lat="40.42270798895799" lon="9.762577798821523"><ele>49.333333333333336</ele><time>2026-04-04T09:13:50Z</time></trkpt><trkpt lat="40.42260962283024" lon="9.762393095634184"><ele>50.0</ele><time>2026-04-04T09:13:51Z</time></trkpt><trkpt lat="40.4225416055579" lon="9.762169383170777"><ele>50.0</ele><time>2026-04-04T09:13:52Z</time></trkpt><trkpt lat="40.422494372220186" lon="9.761930900074637"><ele>50.0</ele><time>2026-04-04T09:13:53Z</time></trkpt><trkpt lat="40.42246586846206" lon="9.76167902247526"><ele>50.0</ele><time>2026-04-04T09:13:54Z</time></trkpt><trkpt lat="40.42247203274433" lon="9.761381088469712"><ele>50.0</ele><time>2026-04-04T09:13:55Z</time></trkpt><trkpt lat="40.42245145781123" lon="9.761063618520078"><ele>50.0</ele><time>2026-04-04T09:13:56Z</time></trkpt><trkpt lat="40.422450639250755" lon="9.760725295566282"><ele>49.5</ele><time>2026-04-04T09:13:57Z</time></trkpt><trkpt lat="40.42244172604758" lon="9.760361311269243"><ele>49.0</ele><time>2026-04-04T09:13:58Z</time></trkpt><trkpt lat="40.42243073147054" lon="9.759980293917987"><ele>49.0</ele><time>2026-04-04T09:13:59Z</time></trkpt><trkpt lat="40.42242146046157" lon="9.759588707772144"><ele>49.0</ele><time>2026-04-04T09:14:00Z</time></trkpt><trkpt lat="40.422414483293785" lon="9.75919549552939"><ele>49.0</ele><time>2026-04-04T09:14:01Z</time></trkpt><trkpt lat="40.42240170825024" lon="9.758817336327015"><ele>49.0</ele><time>2026-04-04T09:14:02Z</time></trkpt><trkpt lat="40.422393496609914" lon="9.75843512032935"><ele>49.0</ele><time>2026-04-04T09:14:02.999Z</time></trkpt><trkpt lat="40.42238395815172" lon="9.758047663319202"><ele>49.0</ele><time>2026-04-04T09:14:03.999Z</time></trkpt><trkpt lat="40.42237429984101" lon="9.757651279554187"><ele>49.0</ele><time>2026-04-04T09:14:04.999Z</time></trkpt><trkpt lat="40.42236501048704" lon="9.757258616228919"><ele>49.0</ele><time>2026-04-04T09:14:05.999Z</time></trkpt><trkpt lat="40.422354281531916" lon="9.75686255123793"><ele>50.0</ele><time>2026-04-04T09:14:06.999Z</time></trkpt><trkpt lat="40.42234330213091" lon="9.756462357191342"><ele>51.0</ele><time>2026-04-04T09:14:07.999Z</time></trkpt><trkpt lat="40.422331645431214" lon="9.756066212198492"><ele>51.0</ele><time>2026-04-04T09:14:08.999Z</time></trkpt><trkpt lat="40.422320210683516" lon="9.755670066914123"><ele>51.0</ele><time>2026-04-04T09:14:09.999Z</time></trkpt><trkpt lat="40.422311436782856" lon="9.755272918346755"><ele>52.0</ele><time>2026-04-04T09:14:10.999Z</time></trkpt><trkpt lat="40.422301300562545" lon="9.754871961857134"><ele>53.0</ele><time>2026-04-04T09:14:11.999Z</time></trkpt><trkpt lat="40.422291764455125" lon="9.754472096894533"><ele>54.5</ele><time>2026-04-04T09:14:12.999Z</time></trkpt><trkpt lat="40.422281532688196" lon="9.754074504171372"><ele>56.0</ele><time>2026-04-04T09:14:13.999Z</time></trkpt><trkpt lat="40.422273304710075" lon="9.75371495597888"><ele>56.0</ele><time>2026-04-04T09:14:14.999Z</time></trkpt><trkpt lat="40.42226645069531" lon="9.753388530331604"><ele>56.0</ele><time>2026-04-04T09:14:15.999Z</time></trkpt><trkpt lat="40.42225725598788" lon="9.753066946999676"><ele>56.0</ele><time>2026-04-04T09:14:16.999Z</time></trkpt><trkpt lat="40.42224847047086" lon="9.752760732223535"><ele>56.0</ele><time>2026-04-04T09:14:17.999Z</time></trkpt><trkpt lat="40.42223264246358" lon="9.752469486984191"><ele>56.333333333333336</ele><time>2026-04-04T09:14:18.999Z</time></trkpt><trkpt lat="40.42220587708956" lon="9.752199628955486"><ele>56.66666666666667</ele><time>2026-04-04T09:14:19.999Z</time></trkpt><trkpt lat="40.4221651003146" lon="9.751963067262743"><ele>57.0</ele><time>2026-04-04T09:14:20.999Z</time></trkpt><trkpt lat="40.42211541285663" lon="9.751727602760036"><ele>55.33333333333333</ele><time>2026-04-04T09:14:21.999Z</time></trkpt><trkpt lat="40.422044012359855" lon="9.751471988622148"><ele>53.666666666666664</ele><time>2026-04-04T09:14:22.999Z</time></trkpt><trkpt lat="40.4219510597228" lon="9.751205784059444"><ele>52.0</ele><time>2026-04-04T09:14:23.999Z</time></trkpt><trkpt lat="40.421836025747794" lon="9.750924652315046"><ele>52.0</ele><time>2026-04-04T09:14:24.999Z</time></trkpt><trkpt lat="40.42171145408364" lon="9.750641598776232"><ele>52.0</ele><time>2026-04-04T09:14:25.999Z</time></trkpt><trkpt lat="40.42159828096547" lon="9.750375367689363"><ele>53.33333333333333</ele><time>2026-04-04T09:14:26.999Z</time></trkpt><trkpt lat="40.421503561543595" lon="9.750120772183244"><ele>54.66666666666667</ele><time>2026-04-04T09:14:27.999Z</time></trkpt><trkpt lat="40.42142579435833" lon="9.749850626375059"><ele>56.0</ele><time>2026-04-04T09:14:28.999Z</time></trkpt><trkpt lat="40.42136469008301" lon="9.749571685568776"><ele>57.0</ele><time>2026-04-04T09:14:29.999Z</time></trkpt><trkpt lat="40.421321724545244" lon="9.749310739425798"><ele>58.0</ele><time>2026-04-04T09:14:30.999Z</time></trkpt><trkpt lat="40.42130430178212" lon="9.749084746581687"><ele>59.0</ele><time>2026-04-04T09:14:31.999Z</time></trkpt><trkpt lat="40.42132799253569" lon="9.748869269243684"><ele>58.25</ele><time>2026-04-04T09:14:32.999Z</time></trkpt><trkpt lat="40.4213876740686" lon="9.748662728182643"><ele>57.5</ele><time>2026-04-04T09:14:33.999Z</time></trkpt><trkpt lat="40.42143502052718" lon="9.748482838739896"><ele>56.75</ele><time>2026-04-04T09:14:34.999Z</time></trkpt><trkpt lat="40.42144606541463" lon="9.74832954235559"><ele>56.0</ele><time>2026-04-04T09:14:35.999Z</time></trkpt><trkpt lat="40.42141883188533" lon="9.748182156820429"><ele>56.0</ele><time>2026-04-04T09:14:36.999Z</time></trkpt><trkpt lat="40.42134960195508" lon="9.748064058875519"><ele>56.0</ele><time>2026-04-04T09:14:37.999Z</time></trkpt><trkpt lat="40.42124046622331" lon="9.747995537675264"><ele>56.0</ele><time>2026-04-04T09:14:38.999Z</time></trkpt><trkpt lat="40.42110740239373" lon="9.747945831815137"><ele>56.0</ele><time>2026-04-04T09:14:39.999Z</time></trkpt><trkpt lat="40.42096066715845" lon="9.747868761245824"><ele>57.66666666666667</ele><time>2026-04-04T09:14:40.999Z</time></trkpt><trkpt lat="40.42081026836952" lon="9.747748208561024"><ele>59.33333333333333</ele><time>2026-04-04T09:14:41.999Z</time></trkpt><trkpt lat="40.42067106303423" lon="9.747577679456278"><ele>61.0</ele><time>2026-04-04T09:14:42.999Z</time></trkpt><trkpt lat="40.420553206422" lon="9.747349572984405"><ele>64.0</ele><time>2026-04-04T09:14:43.999Z</time></trkpt><trkpt lat="40.42045293908322" lon="9.747108100096169"><ele>67.0</ele><time>2026-04-04T09:14:44.999Z</time></trkpt><trkpt lat="40.420341514636114" lon="9.74687721806774"><ele>70.0</ele><time>2026-04-04T09:14:45.999Z</time></trkpt><trkpt lat="40.42019125888076" lon="9.746667660003887"><ele>70.0</ele><time>2026-04-04T09:14:46.999Z</time></trkpt><trkpt lat="40.42002433465398" lon="9.746465075697524"><ele>70.0</ele><time>2026-04-04T09:14:47.999Z</time></trkpt><trkpt lat="40.41985715734407" lon="9.746264751360368"><ele>70.0</ele><time>2026-04-04T09:14:48.999Z</time></trkpt><trkpt lat="40.419688609711635" lon="9.746047186025166"><ele>70.0</ele><time>2026-04-04T09:14:49.999Z</time></trkpt><trkpt lat="40.41951504963073" lon="9.745817714381165"><ele>71.33333333333333</ele><time>2026-04-04T09:14:50.999Z</time></trkpt><trkpt lat="40.419352500913014" lon="9.745601653894944"><ele>72.66666666666667</ele><time>2026-04-04T09:14:51.999Z</time></trkpt><trkpt lat="40.41920864783216" lon="9.745410593032375"><ele>74.0</ele><time>2026-04-04T09:14:52.999Z</time></trkpt><trkpt lat="40.419077070857774" lon="9.745220904959686"><ele>74.0</ele><time>2026-04-04T09:14:53.999Z</time></trkpt><trkpt lat="40.41895630452715" lon="9.745016146426899"><ele>74.0</ele><time>2026-04-04T09:14:54.999Z</time></trkpt><trkpt lat="40.418838636133415" lon="9.744795118095807"><ele>74.0</ele><time>2026-04-04T09:14:55.999Z</time></trkpt><trkpt lat="40.41872512049932" lon="9.74455378540746"><ele>74.5</ele><time>2026-04-04T09:14:56.999Z</time></trkpt><trkpt lat="40.418610758455" lon="9.744288696171395"><ele>75.0</ele><time>2026-04-04T09:14:57.999Z</time></trkpt><trkpt lat="40.418484819736655" lon="9.744012329781981"><ele>75.0</ele><time>2026-04-04T09:14:58.999Z</time></trkpt><trkpt lat="40.41835689554013" lon="9.743735416220424"><ele>75.0</ele><time>2026-04-04T09:14:59.999Z</time></trkpt><trkpt lat="40.41823481240343" lon="9.743467908966005"><ele>75.5</ele><time>2026-04-04T09:15:00.999Z</time></trkpt><trkpt lat="40.41811458439709" lon="9.74320879074196"><ele>76.0</ele><time>2026-04-04T09:15:01.999Z</time></trkpt><trkpt lat="40.4179951102357" lon="9.742950227743915"><ele>75.5</ele><time>2026-04-04T09:15:02.999Z</time></trkpt><trkpt lat="40.41787373795216" lon="9.742690835008245"><ele>75.0</ele><time>2026-04-04T09:15:03.999Z</time></trkpt><trkpt lat="40.41775680314916" lon="9.742440325598329"><ele>75.0</ele><time>2026-04-04T09:15:04.999Z</time></trkpt><trkpt lat="40.41765079024619" lon="9.742212047917306"><ele>75.0</ele><time>2026-04-04T09:15:05.999Z</time></trkpt><trkpt lat="40.41755030549562" lon="9.741991597125361"><ele>75.0</ele><time>2026-04-04T09:15:06.999Z</time></trkpt><trkpt lat="40.417452433514796" lon="9.741785610935263"><ele>75.66666666666667</ele><time>2026-04-04T09:15:07.999Z</time></trkpt><trkpt lat="40.417354493633084" lon="9.741580368807385"><ele>76.33333333333334</ele><time>2026-04-04T09:15:08.999Z</time></trkpt><trkpt lat="40.417254527582216" lon="9.741371224513937"><ele>77.0</ele><time>2026-04-04T09:15:09.999Z</time></trkpt><trkpt lat="40.41715528997187" lon="9.741162140628523"><ele>77.0</ele><time>2026-04-04T09:15:10.999Z</time></trkpt><trkpt lat="40.41706205244608" lon="9.740955832861406"><ele>77.0</ele><time>2026-04-04T09:15:11.999Z</time></trkpt><trkpt lat="40.416967474761194" lon="9.740745698845892"><ele>77.0</ele><time>2026-04-04T09:15:12.999Z</time></trkpt><trkpt lat="40.416869281450026" lon="9.740532080809349"><ele>77.0</ele><time>2026-04-04T09:15:13.999Z</time></trkpt><trkpt lat="40.41679643167364" lon="9.740301078341817"><ele>77.0</ele><time>2026-04-04T09:15:14.999Z</time></trkpt><trkpt lat="40.41670848294365" lon="9.740112102582943"><ele>77.0</ele><time>2026-04-04T09:15:15.999Z</time></trkpt><trkpt lat="40.416623651224064" lon="9.73992982415212"><ele>77.66666666666667</ele><time>2026-04-04T09:15:16.999Z</time></trkpt><trkpt lat="40.4165396554568" lon="9.73974934222578"><ele>78.33333333333333</ele><time>2026-04-04T09:15:17.999Z</time></trkpt><trkpt lat="40.41645470445968" lon="9.739566091736227"><ele>79.0</ele><time>2026-04-04T09:15:18.999Z</time></trkpt><trkpt lat="40.41637340467033" lon="9.73939070506481"><ele>79.0</ele><time>2026-04-04T09:15:19.999Z</time></trkpt><trkpt lat="40.41629221270277" lon="9.739215550924358"><ele>79.0</ele><time>2026-04-04T09:15:20.999Z</time></trkpt><trkpt lat="40.41621676390054" lon="9.739052786425907"><ele>79.0</ele><time>2026-04-04T09:15:21.999Z</time></trkpt><trkpt lat="40.416137288166986" lon="9.738881334598881"><ele>79.0</ele><time>2026-04-04T09:15:22.999Z</time></trkpt><trkpt lat="40.416050103527375" lon="9.738693252650195"><ele>79.0</ele><time>2026-04-04T09:15:23.999Z</time></trkpt><trkpt lat="40.41596238457529" lon="9.738504017866582"><ele>79.0</ele><time>2026-04-04T09:15:24.999Z</time></trkpt><trkpt lat="40.415871583239735" lon="9.738308133559446"><ele>79.33333333333333</ele><time>2026-04-04T09:15:25.999Z</time></trkpt><trkpt lat="40.415780545454105" lon="9.738111739299276"><ele>79.66666666666667</ele><time>2026-04-04T09:15:26.999Z</time></trkpt><trkpt lat="40.415695279466156" lon="9.7379277962533"><ele>80.0</ele><time>2026-04-04T09:15:27.999Z</time></trkpt><trkpt lat="40.4156151730287" lon="9.737754983857515"><ele>80.33333333333334</ele><time>2026-04-04T09:15:28.999Z</time></trkpt><trkpt lat="40.415538394041235" lon="9.737589349896965"><ele>80.66666666666667</ele><time>2026-04-04T09:15:29.999Z</time></trkpt><trkpt lat="40.41545363859048" lon="9.737406508297301"><ele>81.0</ele><time>2026-04-04T09:15:30.999Z</time></trkpt><trkpt lat="40.415378272500995" lon="9.737243922208544"><ele>81.0</ele><time>2026-04-04T09:15:31.999Z</time></trkpt><trkpt lat="40.415299415845276" lon="9.737073805992546"><ele>81.0</ele><time>2026-04-04T09:15:32.999Z</time></trkpt><trkpt lat="40.415213425756534" lon="9.736888300929497"><ele>81.0</ele><time>2026-04-04T09:15:33.999Z</time></trkpt><trkpt lat="40.41512117009128" lon="9.736689278842967"><ele>81.66666666666667</ele><time>2026-04-04T09:15:34.999Z</time></trkpt><trkpt lat="40.415020760237496" lon="9.736472794667483"><ele>82.33333333333334</ele><time>2026-04-04T09:15:35.999Z</time></trkpt><trkpt lat="40.41491193986501" lon="9.736238162324028"><ele>83.0</ele><time>2026-04-04T09:15:36.999Z</time></trkpt><trkpt lat="40.41478975294855" lon="9.735974709754311"><ele>83.5</ele><time>2026-04-04T09:15:37.999Z</time></trkpt><trkpt lat="40.41465647869743" lon="9.73568735142996"><ele>84.0</ele><time>2026-04-04T09:15:38.999Z</time></trkpt><trkpt lat="40.41452784396385" lon="9.735409996565684"><ele>84.0</ele><time>2026-04-04T09:15:39.999Z</time></trkpt><trkpt lat="40.41439738816387" lon="9.735128715120247"><ele>84.0</ele><time>2026-04-04T09:15:40.999Z</time></trkpt><trkpt lat="40.41425581432528" lon="9.734823461458134"><ele>84.0</ele><time>2026-04-04T09:15:41.999Z</time></trkpt><trkpt lat="40.41410754300385" lon="9.734503766483368"><ele>84.0</ele><time>2026-04-04T09:15:42.999Z</time></trkpt><trkpt lat="40.413954106019396" lon="9.734174720274563"><ele>84.0</ele><time>2026-04-04T09:15:43.999Z</time></trkpt><trkpt lat="40.41379684423898" lon="9.733837198684064"><ele>84.0</ele><time>2026-04-04T09:15:44.999Z</time></trkpt><trkpt lat="40.41364247773487" lon="9.733505949688547"><ele>84.0</ele><time>2026-04-04T09:15:45.999Z</time></trkpt><trkpt lat="40.41348809764991" lon="9.733175025715271"><ele>84.0</ele><time>2026-04-04T09:15:46.999Z</time></trkpt><trkpt lat="40.413330544073155" lon="9.73283631763283"><ele>84.5</ele><time>2026-04-04T09:15:47.999Z</time></trkpt><trkpt lat="40.413170249439304" lon="9.732491716980995"><ele>85.0</ele><time>2026-04-04T09:15:48.999Z</time></trkpt><trkpt lat="40.41300907401109" lon="9.732145222660119"><ele>86.5</ele><time>2026-04-04T09:15:49.999Z</time></trkpt><trkpt lat="40.412861321342945" lon="9.731828000552285"><ele>88.0</ele><time>2026-04-04T09:15:50.999Z</time></trkpt><trkpt lat="40.41272088744487" lon="9.731525855999495"><ele>88.0</ele><time>2026-04-04T09:15:51.999Z</time></trkpt><trkpt lat="40.412582361300856" lon="9.731227624040445"><ele>88.0</ele><time>2026-04-04T09:15:52.999Z</time></trkpt><trkpt lat="40.4124424495569" lon="9.730928087219281"><ele>88.0</ele><time>2026-04-04T09:15:53.999Z</time></trkpt><trkpt lat="40.41230419838017" lon="9.730629891509551"><ele>88.0</ele><time>2026-04-04T09:15:54.999Z</time></trkpt><trkpt lat="40.41216675790548" lon="9.730333636118369"><ele>87.0</ele><time>2026-04-04T09:15:55.999Z</time></trkpt><trkpt lat="40.412029264280086" lon="9.730037265899703"><ele>86.0</ele><time>2026-04-04T09:15:56.999Z</time></trkpt><trkpt lat="40.411892334546046" lon="9.729743658824868"><ele>86.0</ele><time>2026-04-04T09:15:57.999Z</time></trkpt><trkpt lat="40.41175038107459" lon="9.729454122709596"><ele>86.0</ele><time>2026-04-04T09:15:58.999Z</time></trkpt><trkpt lat="40.41160177280603" lon="9.72917303624688"><ele>86.5</ele><time>2026-04-04T09:15:59.999Z</time></trkpt><trkpt lat="40.41143701484728" lon="9.728908671548286"><ele>87.0</ele><time>2026-04-04T09:16:00.999Z</time></trkpt><trkpt lat="40.411278317095835" lon="9.728630311258238"><ele>87.0</ele><time>2026-04-04T09:16:01.999Z</time></trkpt><trkpt lat="40.411113954843465" lon="9.728358627119437"><ele>87.0</ele><time>2026-04-04T09:16:02.999Z</time></trkpt><trkpt lat="40.410948205904326" lon="9.728084780756658"><ele>87.0</ele><time>2026-04-04T09:16:03.999Z</time></trkpt><trkpt lat="40.41078313031438" lon="9.72780796948613"><ele>87.0</ele><time>2026-04-04T09:16:04.999Z</time></trkpt><trkpt lat="40.410609018877345" lon="9.727530471193118"><ele>87.0</ele><time>2026-04-04T09:16:05.999Z</time></trkpt><trkpt lat="40.41043678318298" lon="9.72725527128166"><ele>87.0</ele><time>2026-04-04T09:16:06.999Z</time></trkpt><trkpt lat="40.41025878281536" lon="9.726977885828939"><ele>87.5</ele><time>2026-04-04T09:16:07.999Z</time></trkpt><trkpt lat="40.410097170406935" lon="9.726682050587979"><ele>88.0</ele><time>2026-04-04T09:16:08.999Z</time></trkpt><trkpt lat="40.40992241426392" lon="9.7264009497373"><ele>88.0</ele><time>2026-04-04T09:16:09.999Z</time></trkpt><trkpt lat="40.40974522122888" lon="9.726115919931035"><ele>88.0</ele><time>2026-04-04T09:16:10.999Z</time></trkpt><trkpt lat="40.40956941155531" lon="9.725833115418915"><ele>86.5</ele><time>2026-04-04T09:16:11.999Z</time></trkpt><trkpt lat="40.409391064034345" lon="9.725546228519788"><ele>85.0</ele><time>2026-04-04T09:16:12.999Z</time></trkpt><trkpt lat="40.40921242743706" lon="9.725264352287898"><ele>85.5</ele><time>2026-04-04T09:16:13.999Z</time></trkpt><trkpt lat="40.40903378992077" lon="9.72498368947259"><ele>86.0</ele><time>2026-04-04T09:16:14.999Z</time></trkpt><trkpt lat="40.408853694265794" lon="9.72470268674158"><ele>84.0</ele><time>2026-04-04T09:16:15.999Z</time></trkpt><trkpt lat="40.40866587181773" lon="9.724434983938915"><ele>82.0</ele><time>2026-04-04T09:16:16.999Z</time></trkpt><trkpt lat="40.40848980104234" lon="9.724151074364018"><ele>82.0</ele><time>2026-04-04T09:16:17.999Z</time></trkpt><trkpt lat="40.4083128295901" lon="9.723867332100669"><ele>82.0</ele><time>2026-04-04T09:16:18.999Z</time></trkpt><trkpt lat="40.40813449364815" lon="9.72358298621738"><ele>80.0</ele><time>2026-04-04T09:16:19.999Z</time></trkpt><trkpt lat="40.40795798187955" lon="9.723299316814758"><ele>78.0</ele><time>2026-04-04T09:16:20.999Z</time></trkpt><trkpt lat="40.40777930405215" lon="9.72301714792649"><ele>78.0</ele><time>2026-04-04T09:16:21.999Z</time></trkpt><trkpt lat="40.40760234197368" lon="9.722734090909904"><ele>78.0</ele><time>2026-04-04T09:16:22.999Z</time></trkpt><trkpt lat="40.40742849528694" lon="9.722451622993566"><ele>78.0</ele><time>2026-04-04T09:16:23.999Z</time></trkpt><trkpt lat="40.40725252389407" lon="9.72216807624419"><ele>78.0</ele><time>2026-04-04T09:16:24.999Z</time></trkpt><trkpt lat="40.40707531896762" lon="9.721883634740228"><ele>77.0</ele><time>2026-04-04T09:16:25.999Z</time></trkpt><trkpt lat="40.406900945598906" lon="9.721601915529797"><ele>76.0</ele><time>2026-04-04T09:16:26.999Z</time></trkpt><trkpt lat="40.40672193301642" lon="9.721313824470874"><ele>76.0</ele><time>2026-04-04T09:16:27.999Z</time></trkpt><trkpt lat="40.40654723723706" lon="9.721031939683186"><ele>76.0</ele><time>2026-04-04T09:16:28.999Z</time></trkpt><trkpt lat="40.406371255597314" lon="9.720750013580492"><ele>74.0</ele><time>2026-04-04T09:16:29.999Z</time></trkpt><trkpt lat="40.40620555577546" lon="9.72048488402145"><ele>72.0</ele><time>2026-04-04T09:16:30.999Z</time></trkpt><trkpt lat="40.406061162050406" lon="9.720250317390558"><ele>72.0</ele><time>2026-04-04T09:16:31.999Z</time></trkpt><trkpt lat="40.40593095335506" lon="9.720040557342593"><ele>72.0</ele><time>2026-04-04T09:16:32.999Z</time></trkpt><trkpt lat="40.40581064863721" lon="9.719847868360135"><ele>72.0</ele><time>2026-04-04T09:16:33.999Z</time></trkpt><trkpt lat="40.4056992313679" lon="9.719667329954378"><ele>72.0</ele><time>2026-04-04T09:16:34.999Z</time></trkpt><trkpt lat="40.40558630528066" lon="9.719491894102973"><ele>72.0</ele><time>2026-04-04T09:16:35.999Z</time></trkpt><trkpt lat="40.40546198982677" lon="9.719356831263406"><ele>72.0</ele><time>2026-04-04T09:16:36.999Z</time></trkpt><trkpt lat="40.40531002078117" lon="9.719264969591201"><ele>72.0</ele><time>2026-04-04T09:16:37.999Z</time></trkpt><trkpt lat="40.40512981306727" lon="9.719223188817645"><ele>72.0</ele><time>2026-04-04T09:16:38.999Z</time></trkpt><trkpt lat="40.40492360780639" lon="9.719228634970564"><ele>72.0</ele><time>2026-04-04T09:16:39.999Z</time></trkpt><trkpt lat="40.40469343551541" lon="9.71922550965802"><ele>72.0</ele><time>2026-04-04T09:16:40.999Z</time></trkpt><trkpt lat="40.40444776568708" lon="9.719200546951877"><ele>72.0</ele><time>2026-04-04T09:16:41.999Z</time></trkpt><trkpt lat="40.404189976396935" lon="9.71917035313998"><ele>72.0</ele><time>2026-04-04T09:16:42.999Z</time></trkpt><trkpt lat="40.40393925024126" lon="9.719141769457694"><ele>72.0</ele><time>2026-04-04T09:16:43.999Z</time></trkpt><trkpt lat="40.40368859954559" lon="9.719114298011645"><ele>72.5</ele><time>2026-04-04T09:16:44.999Z</time></trkpt><trkpt lat="40.40342097146313" lon="9.71908662042915"><ele>73.0</ele><time>2026-04-04T09:16:45.999Z</time></trkpt><trkpt lat="40.40313824302157" lon="9.71905600388138"><ele>71.5</ele><time>2026-04-04T09:16:46.999Z</time></trkpt><trkpt lat="40.40285243623029" lon="9.719022856799347"><ele>70.0</ele><time>2026-04-04T09:16:47.999Z</time></trkpt><trkpt lat="40.40255938956126" lon="9.718989100628102"><ele>70.0</ele><time>2026-04-04T09:16:48.999Z</time></trkpt><trkpt lat="40.40227582332365" lon="9.718956528236514"><ele>70.0</ele><time>2026-04-04T09:16:49.999Z</time></trkpt><trkpt lat="40.40198411311709" lon="9.718920638445885"><ele>69.5</ele><time>2026-04-04T09:16:50.999Z</time></trkpt><trkpt lat="40.40169042834109" lon="9.718884840866222"><ele>69.0</ele><time>2026-04-04T09:16:51.999Z</time></trkpt><trkpt lat="40.40139020728947" lon="9.718849993377606"><ele>68.5</ele><time>2026-04-04T09:16:52.999Z</time></trkpt><trkpt lat="40.401086560261184" lon="9.71881390711966"><ele>68.0</ele><time>2026-04-04T09:16:53.999Z</time></trkpt><trkpt lat="40.40078469899118" lon="9.718776572371219"><ele>67.5</ele><time>2026-04-04T09:16:54.999Z</time></trkpt><trkpt lat="40.400478480877084" lon="9.718740739993583"><ele>67.0</ele><time>2026-04-04T09:16:55.999Z</time></trkpt><trkpt lat="40.40017270779287" lon="9.718706576918816"><ele>67.0</ele><time>2026-04-04T09:16:56.999Z</time></trkpt><trkpt lat="40.39986233780933" lon="9.71867331985807"><ele>67.0</ele><time>2026-04-04T09:16:57.999Z</time></trkpt><trkpt lat="40.399553217888815" lon="9.718639172315187"><ele>66.5</ele><time>2026-04-04T09:16:58.999Z</time></trkpt><trkpt lat="40.399244403422976" lon="9.718604123087358"><ele>66.0</ele><time>2026-04-04T09:16:59.999Z</time></trkpt><trkpt lat="40.39893780721877" lon="9.718568047027954"><ele>65.5</ele><time>2026-04-04T09:17:00.999Z</time></trkpt><trkpt lat="40.39862726082217" lon="9.718534233485508"><ele>65.0</ele><time>2026-04-04T09:17:01.999Z</time></trkpt><trkpt lat="40.39832228040469" lon="9.718501041696982"><ele>65.0</ele><time>2026-04-04T09:17:02.999Z</time></trkpt><trkpt lat="40.39801518248167" lon="9.718465561746834"><ele>65.0</ele><time>2026-04-04T09:17:03.999Z</time></trkpt><trkpt lat="40.39771184705183" lon="9.71842784822036"><ele>64.5</ele><time>2026-04-04T09:17:05Z</time></trkpt><trkpt lat="40.39740423065848" lon="9.718390933653806"><ele>64.0</ele><time>2026-04-04T09:17:06Z</time></trkpt><trkpt lat="40.397097969742084" lon="9.718353009073317"><ele>63.0</ele><time>2026-04-04T09:17:07Z</time></trkpt><trkpt lat="40.39679438997372" lon="9.718320740925469"><ele>62.0</ele><time>2026-04-04T09:17:08Z</time></trkpt><trkpt lat="40.39648877713332" lon="9.718284796484475"><ele>62.0</ele><time>2026-04-04T09:17:09Z</time></trkpt><trkpt lat="40.39618194097757" lon="9.718249474957288"><ele>62.0</ele><time>2026-04-04T09:17:10Z</time></trkpt><trkpt lat="40.39587617927335" lon="9.718214115614478"><ele>62.0</ele><time>2026-04-04T09:17:11Z</time></trkpt><trkpt lat="40.395575039902496" lon="9.718179024935237"><ele>62.0</ele><time>2026-04-04T09:17:12Z</time></trkpt><trkpt lat="40.395272202581424" lon="9.71814441876803"><ele>62.0</ele><time>2026-04-04T09:17:13Z</time></trkpt><trkpt lat="40.39497411996075" lon="9.718111181441722"><ele>62.0</ele><time>2026-04-04T09:17:14Z</time></trkpt><trkpt lat="40.3946740797337" lon="9.718079956902534"><ele>61.5</ele><time>2026-04-04T09:17:15Z</time></trkpt><trkpt lat="40.394375407236694" lon="9.718047322418435"><ele>61.0</ele><time>2026-04-04T09:17:16Z</time></trkpt><trkpt lat="40.394080147448804" lon="9.71801229111775"><ele>61.0</ele><time>2026-04-04T09:17:17Z</time></trkpt><trkpt lat="40.39379868046042" lon="9.717978502853754"><ele>61.0</ele><time>2026-04-04T09:17:18Z</time></trkpt><trkpt lat="40.39353983150923" lon="9.717949869261485"><ele>61.0</ele><time>2026-04-04T09:17:19Z</time></trkpt><trkpt lat="40.39329588403052" lon="9.717917901920298"><ele>61.0</ele><time>2026-04-04T09:17:20Z</time></trkpt><trkpt lat="40.39305860009207" lon="9.717870457596492"><ele>61.0</ele><time>2026-04-04T09:17:21Z</time></trkpt><trkpt lat="40.39281407999442" lon="9.71775090100973"><ele>61.0</ele><time>2026-04-04T09:17:22Z</time></trkpt><trkpt lat="40.392554372157356" lon="9.717667313395614"><ele>60.5</ele><time>2026-04-04T09:17:23Z</time></trkpt><trkpt lat="40.39228586202203" lon="9.717582544695613"><ele>60.0</ele><time>2026-04-04T09:17:24Z</time></trkpt><trkpt lat="40.39201238147489" lon="9.71749542323136"><ele>59.0</ele><time>2026-04-04T09:17:25Z</time></trkpt><trkpt lat="40.39174987382047" lon="9.717411097409487"><ele>58.0</ele><time>2026-04-04T09:17:26Z</time></trkpt><trkpt lat="40.39150827891953" lon="9.717333489472363"><ele>57.5</ele><time>2026-04-04T09:17:27Z</time></trkpt><trkpt lat="40.39127374907788" lon="9.717258151049414"><ele>57.0</ele><time>2026-04-04T09:17:28Z</time></trkpt><trkpt lat="40.391033356031976" lon="9.717181411807665"><ele>57.0</ele><time>2026-04-04T09:17:29Z</time></trkpt><trkpt lat="40.39080110696284" lon="9.717108443222866"><ele>57.0</ele><time>2026-04-04T09:17:30Z</time></trkpt><trkpt lat="40.39059207977856" lon="9.717042770501628"><ele>56.66666666666667</ele><time>2026-04-04T09:17:31Z</time></trkpt><trkpt lat="40.390395225221944" lon="9.716980922158461"><ele>56.333333333333336</ele><time>2026-04-04T09:17:32Z</time></trkpt><trkpt lat="40.390207337558444" lon="9.716921725766337"><ele>56.0</ele><time>2026-04-04T09:17:33Z</time></trkpt><trkpt lat="40.39003542729531" lon="9.716861455577128"><ele>55.333333333333336</ele><time>2026-04-04T09:17:34Z</time></trkpt><trkpt lat="40.38987788143961" lon="9.716793958633927"><ele>54.66666666666667</ele><time>2026-04-04T09:17:35Z</time></trkpt><trkpt lat="40.389728037297594" lon="9.716701944577041"><ele>54.0</ele><time>2026-04-04T09:17:36Z</time></trkpt><trkpt lat="40.38957937526856" lon="9.71658603007092"><ele>52.66666666666667</ele><time>2026-04-04T09:17:37Z</time></trkpt><trkpt lat="40.389437676460254" lon="9.716449454771304"><ele>51.333333333333336</ele><time>2026-04-04T09:17:38Z</time></trkpt><trkpt lat="40.38930923008319" lon="9.716288648188042"><ele>50.0</ele><time>2026-04-04T09:17:39Z</time></trkpt><trkpt lat="40.38919242273224" lon="9.71610838563834"><ele>49.0</ele><time>2026-04-04T09:17:40Z</time></trkpt><trkpt lat="40.389097923878246" lon="9.715920205522064"><ele>48.0</ele><time>2026-04-04T09:17:41Z</time></trkpt><trkpt lat="40.38901612539528" lon="9.715734757786723"><ele>47.0</ele><time>2026-04-04T09:17:42Z</time></trkpt><trkpt lat="40.38894610518083" lon="9.71556045305504"><ele>47.0</ele><time>2026-04-04T09:17:43Z</time></trkpt><trkpt lat="40.38888285665792" lon="9.715393166166821"><ele>47.0</ele><time>2026-04-04T09:17:44Z</time></trkpt><trkpt lat="40.388824844531655" lon="9.715236882556809"><ele>47.0</ele><time>2026-04-04T09:17:45Z</time></trkpt><trkpt lat="40.38880959275226" lon="9.715074136449685"><ele>47.0</ele><time>2026-04-04T09:17:46Z</time></trkpt><trkpt lat="40.3888344992437" lon="9.714920255552709"><ele>46.5</ele><time>2026-04-04T09:17:47Z</time></trkpt><trkpt lat="40.38889613890298" lon="9.714785366099475"><ele>46.0</ele><time>2026-04-04T09:17:48Z</time></trkpt><trkpt lat="40.38898561934434" lon="9.7146580067062"><ele>45.5</ele><time>2026-04-04T09:17:49Z</time></trkpt><trkpt lat="40.38910294781393" lon="9.714531263540346"><ele>45.0</ele><time>2026-04-04T09:17:50Z</time></trkpt><trkpt lat="40.38922532219397" lon="9.714408213885871"><ele>41.25</ele><time>2026-04-04T09:17:51Z</time></trkpt><trkpt lat="40.38933143556024" lon="9.714298305045325"><ele>37.5</ele><time>2026-04-04T09:17:52Z</time></trkpt><trkpt lat="40.38942672043821" lon="9.714202373825158"><ele>33.75</ele><time>2026-04-04T09:17:53Z</time></trkpt><trkpt lat="40.38951822591134" lon="9.714126032847785"><ele>30.0</ele><time>2026-04-04T09:17:54Z</time></trkpt><trkpt lat="40.38961223109849" lon="9.71409353221196"><ele>31.6</ele><time>2026-04-04T09:17:55Z</time></trkpt><trkpt lat="40.3897102473769" lon="9.714100182592727"><ele>33.2</ele><time>2026-04-04T09:17:56Z</time></trkpt><trkpt lat="40.389800336872355" lon="9.714148398361077"><ele>34.8</ele><time>2026-04-04T09:17:57Z</time></trkpt><trkpt lat="40.389886361503194" lon="9.714221454114451"><ele>36.4</ele><time>2026-04-04T09:17:58Z</time></trkpt><trkpt lat="40.38996333647386" lon="9.714276262841468"><ele>38.0</ele><time>2026-04-04T09:17:59Z</time></trkpt><trkpt lat="40.390046872887154" lon="9.714283260783665"><ele>38.0</ele><time>2026-04-04T09:18:00Z</time></trkpt><trkpt lat="40.39014167839461" lon="9.71425003374197"><ele>38.0</ele><time>2026-04-04T09:18:01Z</time></trkpt><trkpt lat="40.39023403382942" lon="9.714186559490257"><ele>38.0</ele><time>2026-04-04T09:18:02Z</time></trkpt><trkpt lat="40.39031561414107" lon="9.714068613273179"><ele>38.0</ele><time>2026-04-04T09:18:03Z</time></trkpt><trkpt lat="40.39037057819937" lon="9.713915021896284"><ele>38.0</ele><time>2026-04-04T09:18:04Z</time></trkpt><trkpt lat="40.390406944599675" lon="9.713746396483053"><ele>38.0</ele><time>2026-04-04T09:18:05Z</time></trkpt><trkpt lat="40.39045640043088" lon="9.713570384180755"><ele>38.0</ele><time>2026-04-04T09:18:06Z</time></trkpt><trkpt lat="40.39050386892179" lon="9.71336244870561"><ele>38.0</ele><time>2026-04-04T09:18:07Z</time></trkpt><trkpt lat="40.39058400159188" lon="9.71310229030996"><ele>36.5</ele><time>2026-04-04T09:18:08Z</time></trkpt><trkpt lat="40.390610203608155" lon="9.712784763589545"><ele>35.0</ele><time>2026-04-04T09:18:09Z</time></trkpt><trkpt lat="40.39064359148713" lon="9.712498561111978"><ele>35.0</ele><time>2026-04-04T09:18:10Z</time></trkpt><trkpt lat="40.390685382182795" lon="9.712236652333807"><ele>35.0</ele><time>2026-04-04T09:18:11Z</time></trkpt><trkpt lat="40.39073884671486" lon="9.712013414936159"><ele>35.0</ele><time>2026-04-04T09:18:12Z</time></trkpt><trkpt lat="40.390796758864454" lon="9.711822155690248"><ele>30.666666666666664</ele><time>2026-04-04T09:18:13Z</time></trkpt><trkpt lat="40.39086627695304" lon="9.71167198318123"><ele>26.333333333333332</ele><time>2026-04-04T09:18:14Z</time></trkpt><trkpt lat="40.390974925090624" lon="9.711538534709748"><ele>22.0</ele><time>2026-04-04T09:18:15Z</time></trkpt><trkpt lat="40.39111764291177" lon="9.71140928500263"><ele>22.0</ele><time>2026-04-04T09:18:16Z</time></trkpt><trkpt lat="40.391238363057525" lon="9.711267127772741"><ele>22.0</ele><time>2026-04-04T09:18:17Z</time></trkpt><trkpt lat="40.39131981444442" lon="9.71109279046224"><ele>22.0</ele><time>2026-04-04T09:18:18Z</time></trkpt><trkpt lat="40.391378436777075" lon="9.7108803720142"><ele>22.666666666666664</ele><time>2026-04-04T09:18:19Z</time></trkpt><trkpt lat="40.39142179942139" lon="9.710630546817331"><ele>23.333333333333332</ele><time>2026-04-04T09:18:20Z</time></trkpt><trkpt lat="40.39145210794089" lon="9.710376780029357"><ele>24.0</ele><time>2026-04-04T09:18:20.999Z</time></trkpt><trkpt lat="40.39148451105762" lon="9.710109620077409"><ele>24.0</ele><time>2026-04-04T09:18:21.999Z</time></trkpt><trkpt lat="40.391523918163735" lon="9.709822980040908"><ele>24.0</ele><time>2026-04-04T09:18:22.999Z</time></trkpt><trkpt lat="40.39156250407359" lon="9.709557247297267"><ele>24.0</ele><time>2026-04-04T09:18:23.999Z</time></trkpt><trkpt lat="40.39159272243731" lon="9.709328952880718"><ele>21.0</ele><time>2026-04-04T09:18:24.999Z</time></trkpt><trkpt lat="40.39160740321371" lon="9.709141218383573"><ele>18.0</ele><time>2026-04-04T09:18:25.999Z</time></trkpt><trkpt lat="40.39160824015623" lon="9.708954790189093"><ele>15.0</ele><time>2026-04-04T09:18:26.999Z</time></trkpt><trkpt lat="40.39152490492646" lon="9.708769995460496"><ele>12.0</ele><time>2026-04-04T09:18:27.999Z</time></trkpt><trkpt lat="40.39142529742042" lon="9.708565265967422"><ele>9.0</ele><time>2026-04-04T09:18:28.999Z</time></trkpt><trkpt lat="40.391317031274305" lon="9.708345875567979"><ele>6.0</ele><time>2026-04-04T09:18:29.999Z</time></trkpt><trkpt lat="40.391204979828856" lon="9.708136976225406"><ele>3.0</ele><time>2026-04-04T09:18:30.999Z</time></trkpt><trkpt lat="40.391060605129425" lon="9.707952504758591"><ele>3.0</ele><time>2026-04-04T09:18:31.999Z</time></trkpt><trkpt lat="40.39086631134975" lon="9.707787783021596"><ele>3.0</ele><time>2026-04-04T09:18:32.999Z</time></trkpt><trkpt lat="40.39063914314649" lon="9.707637196519409"><ele>2.5</ele><time>2026-04-04T09:18:33.999Z</time></trkpt><trkpt lat="40.39039980859576" lon="9.707468391808938"><ele>2.0</ele><time>2026-04-04T09:18:34.999Z</time></trkpt><trkpt lat="40.39015373880932" lon="9.707282049375669"><ele>2.0</ele><time>2026-04-04T09:18:35.999Z</time></trkpt><trkpt lat="40.389909311715286" lon="9.707097792528272"><ele>2.0</ele><time>2026-04-04T09:18:36.999Z</time></trkpt><trkpt lat="40.389664101546295" lon="9.706915687127024"><ele>2.5</ele><time>2026-04-04T09:18:37.999Z</time></trkpt><trkpt lat="40.38941567041714" lon="9.706732762260998"><ele>3.0</ele><time>2026-04-04T09:18:38.999Z</time></trkpt><trkpt lat="40.389160068069074" lon="9.706544176154164"><ele>3.0</ele><time>2026-04-04T09:18:39.999Z</time></trkpt><trkpt lat="40.388902059791626" lon="9.706353958517358"><ele>3.0</ele><time>2026-04-04T09:18:40.999Z</time></trkpt><trkpt lat="40.38864768205687" lon="9.706164616976915"><ele>2.5</ele><time>2026-04-04T09:18:41.999Z</time></trkpt><trkpt lat="40.38840002483917" lon="9.705978970512893"><ele>2.0</ele><time>2026-04-04T09:18:42.999Z</time></trkpt><trkpt lat="40.388153357815185" lon="9.705793974861482"><ele>2.0</ele><time>2026-04-04T09:18:43.999Z</time></trkpt><trkpt lat="40.387908545645935" lon="9.70560981887843"><ele>2.0</ele><time>2026-04-04T09:18:44.999Z</time></trkpt><trkpt lat="40.38766058846347" lon="9.705425323152486"><ele>2.0</ele><time>2026-04-04T09:18:45.999Z</time></trkpt><trkpt lat="40.38741428519885" lon="9.705246649266938"><ele>2.0</ele><time>2026-04-04T09:18:46.999Z</time></trkpt><trkpt lat="40.38717475768505" lon="9.705047756820555"><ele>2.5</ele><time>2026-04-04T09:18:47.999Z</time></trkpt><trkpt lat="40.386932416812556" lon="9.704869703744334"><ele>3.0</ele><time>2026-04-04T09:18:48.999Z</time></trkpt><trkpt lat="40.38667998036256" lon="9.704705838381955"><ele>3.0</ele><time>2026-04-04T09:18:49.999Z</time></trkpt><trkpt lat="40.38643766897002" lon="9.704522709496807"><ele>3.0</ele><time>2026-04-04T09:18:50.999Z</time></trkpt><trkpt lat="40.38619712959707" lon="9.704343132152065"><ele>3.0</ele><time>2026-04-04T09:18:51.999Z</time></trkpt><trkpt lat="40.38595558943321" lon="9.704164322438974"><ele>3.0</ele><time>2026-04-04T09:18:52.999Z</time></trkpt><trkpt lat="40.385718220239085" lon="9.703988087301628"><ele>3.0</ele><time>2026-04-04T09:18:54Z</time></trkpt><trkpt lat="40.38548095227515" lon="9.703810650020136"><ele>3.0</ele><time>2026-04-04T09:18:55Z</time></trkpt><trkpt lat="40.38524269056973" lon="9.70363262110566"><ele>3.0</ele><time>2026-04-04T09:18:56Z</time></trkpt><trkpt lat="40.38500610807932" lon="9.703457228766986"><ele>3.0</ele><time>2026-04-04T09:18:57Z</time></trkpt><trkpt lat="40.38476856222184" lon="9.703282287709078"><ele>4.0</ele><time>2026-04-04T09:18:58Z</time></trkpt><trkpt lat="40.38453230730682" lon="9.703107122230131"><ele>5.0</ele><time>2026-04-04T09:18:59Z</time></trkpt><trkpt lat="40.38429485062092" lon="9.702932600036865"><ele>5.0</ele><time>2026-04-04T09:19:00Z</time></trkpt><trkpt lat="40.384055574410375" lon="9.702756953433777"><ele>5.0</ele><time>2026-04-04T09:19:01Z</time></trkpt><trkpt lat="40.38382083032377" lon="9.702586082338398"><ele>5.0</ele><time>2026-04-04T09:19:02Z</time></trkpt><trkpt lat="40.38358569406424" lon="9.702411642792534"><ele>5.0</ele><time>2026-04-04T09:19:03Z</time></trkpt><trkpt lat="40.38336755289731" lon="9.702249020807043"><ele>5.0</ele><time>2026-04-04T09:19:04Z</time></trkpt><trkpt lat="40.38317146097551" lon="9.702105398313993"><ele>5.0</ele><time>2026-04-04T09:19:05Z</time></trkpt><trkpt lat="40.38298601374805" lon="9.70197408797535"><ele>5.0</ele><time>2026-04-04T09:19:06Z</time></trkpt><trkpt lat="40.38281022799982" lon="9.70184429924886"><ele>5.0</ele><time>2026-04-04T09:19:07Z</time></trkpt><trkpt lat="40.38264395116174" lon="9.701718313624774"><ele>5.0</ele><time>2026-04-04T09:19:08Z</time></trkpt><trkpt lat="40.382485181098744" lon="9.701598628736242"><ele>5.0</ele><time>2026-04-04T09:19:09Z</time></trkpt><trkpt lat="40.38232727973164" lon="9.701480286943351"><ele>4.333333333333334</ele><time>2026-04-04T09:19:10Z</time></trkpt><trkpt lat="40.38215516897792" lon="9.701353060386102"><ele>3.666666666666667</ele><time>2026-04-04T09:19:11Z</time></trkpt><trkpt lat="40.38198481732463" lon="9.701225134776427"><ele>3.0</ele><time>2026-04-04T09:19:12Z</time></trkpt><trkpt lat="40.38180188269987" lon="9.701091303522695"><ele>3.0</ele><time>2026-04-04T09:19:13Z</time></trkpt><trkpt lat="40.38162494443577" lon="9.700960059368883"><ele>3.0</ele><time>2026-04-04T09:19:14Z</time></trkpt><trkpt lat="40.38145110627333" lon="9.700832761254176"><ele>3.0</ele><time>2026-04-04T09:19:15Z</time></trkpt><trkpt lat="40.38129399449471" lon="9.700713609414656"><ele>3.0</ele><time>2026-04-04T09:19:16Z</time></trkpt><trkpt lat="40.38115926721141" lon="9.700612656516432"><ele>3.0</ele><time>2026-04-04T09:19:17Z</time></trkpt><trkpt lat="40.38104847102177" lon="9.70053048351346"><ele>3.0</ele><time>2026-04-04T09:19:18Z</time></trkpt><trkpt lat="40.38093470919649" lon="9.700445096155452"><ele>3.0</ele><time>2026-04-04T09:19:19Z</time></trkpt><trkpt lat="40.38082763743367" lon="9.70036751519479"><ele>3.0</ele><time>2026-04-04T09:19:20Z</time></trkpt><trkpt lat="40.38071882282841" lon="9.700288444694932"><ele>3.0</ele><time>2026-04-04T09:19:21Z</time></trkpt><trkpt lat="40.380613731372925" lon="9.700216124919661"><ele>3.0</ele><time>2026-04-04T09:19:22Z</time></trkpt><trkpt lat="40.3805140392799" lon="9.70014728225081"><ele>3.0</ele><time>2026-04-04T09:19:23Z</time></trkpt><trkpt lat="40.38042049532127" lon="9.70007450595521"><ele>3.8</ele><time>2026-04-04T09:19:24Z</time></trkpt><trkpt lat="40.38033446646625" lon="9.699999863619261"><ele>4.6</ele><time>2026-04-04T09:19:25Z</time></trkpt><trkpt lat="40.38024836329475" lon="9.699923778148259"><ele>5.3999999999999995</ele><time>2026-04-04T09:19:26Z</time></trkpt><trkpt lat="40.380165056546126" lon="9.69984815201453"><ele>6.199999999999999</ele><time>2026-04-04T09:19:27Z</time></trkpt><trkpt lat="40.3800828198367" lon="9.699773873180513"><ele>7.0</ele><time>2026-04-04T09:19:28Z</time></trkpt><trkpt lat="40.38001120274275" lon="9.699708594905996"><ele>7.000000000000001</ele><time>2026-04-04T09:19:29Z</time></trkpt><trkpt lat="40.37995499405499" lon="9.699648444580957"><ele>7.0</ele><time>2026-04-04T09:19:30Z</time></trkpt><trkpt lat="40.379906121772194" lon="9.69958480297022"><ele>7.0</ele><time>2026-04-04T09:19:31Z</time></trkpt><trkpt lat="40.37985249681541" lon="9.699509443532333"><ele>7.0</ele><time>2026-04-04T09:19:32Z</time></trkpt><trkpt lat="40.37979410789715" lon="9.699434648893002"><ele>7.000000000000001</ele><time>2026-04-04T09:19:33Z</time></trkpt><trkpt lat="40.379727423553994" lon="9.6993539204976"><ele>7.0</ele><time>2026-04-04T09:19:34Z</time></trkpt><trkpt lat="40.379649715279875" lon="9.699261149713745"><ele>7.000000000000001</ele><time>2026-04-04T09:19:35Z</time></trkpt><trkpt lat="40.37956747995827" lon="9.699164474735927"><ele>7.0</ele><time>2026-04-04T09:19:36Z</time></trkpt><trkpt lat="40.379491972169866" lon="9.699072080916725"><ele>7.0</ele><time>2026-04-04T09:19:37Z</time></trkpt><trkpt lat="40.379427560306915" lon="9.698992272706334"><ele>7.0</ele><time>2026-04-04T09:19:38Z</time></trkpt><trkpt lat="40.379371137900385" lon="9.698925380730856"><ele>7.000000000000001</ele><time>2026-04-04T09:19:39Z</time></trkpt><trkpt lat="40.37932131403405" lon="9.698863349847597"><ele>7.0</ele><time>2026-04-04T09:19:40Z</time></trkpt><trkpt lat="40.37927088673495" lon="9.698800610296914"><ele>7.000000000000001</ele><time>2026-04-04T09:19:41Z</time></trkpt><trkpt lat="40.379190170624" lon="9.698700048296095"><ele>7.0</ele><time>2026-04-04T09:19:43Z</time></trkpt><trkpt lat="40.37911266085717" lon="9.698607367667757"><ele>7.0</ele><time>2026-04-04T09:19:45Z</time></trkpt><trkpt lat="40.379058036700876" lon="9.698542720970442"><ele>7.0</ele><time>2026-04-04T09:19:48Z</time></trkpt><trkpt lat="40.37897413485547" lon="9.698556224805426"><ele>7.000000000000001</ele><time>2026-04-04T09:19:52Z</time></trkpt><trkpt lat="40.378951460900076" lon="9.698645521964561"><ele>7.0</ele><time>2026-04-04T09:19:54Z</time></trkpt><trkpt lat="40.378973012516624" lon="9.698737437895131"><ele>7.0</ele><time>2026-04-04T09:20:31Z</time></trkpt><trkpt lat="40.3790134180227" lon="9.698805800569517"><ele>7.0</ele><time>2026-04-04T09:21:52Z</time></trkpt><trkpt lat="40.37907065204636" lon="9.698875953934358"><ele>7.0</ele><time>2026-04-04T09:25:54Z</time></trkpt><trkpt lat="40.37910021517733" lon="9.698962813847066"><ele>7.0</ele><time>2026-04-04T09:25:58Z</time></trkpt><trkpt lat="40.37916392907815" lon="9.698946352270726"><ele>7.0</ele><time>2026-04-04T09:26:45Z</time></trkpt><trkpt lat="40.37922445293562" lon="9.698901747147715"><ele>7.0</ele><time>2026-04-04T09:26:48.999Z</time></trkpt><trkpt lat="40.37926634728797" lon="9.698832624891473"><ele>7.0</ele><time>2026-04-04T09:27:27.999Z</time></trkpt><trkpt lat="40.379218841015515" lon="9.698723898973508"><ele>7.0</ele><time>2026-04-04T09:27:29.999Z</time></trkpt><trkpt lat="40.37914130846128" lon="9.698637999228136"><ele>6.999999999999999</ele><time>2026-04-04T09:27:31.999Z</time></trkpt><trkpt lat="40.37907080719107" lon="9.698555835722654"><ele>6.999999999999999</ele><time>2026-04-04T09:27:33.999Z</time></trkpt><trkpt lat="40.37899781526664" lon="9.698426316256883"><ele>7.0</ele><time>2026-04-04T09:27:35.999Z</time></trkpt><trkpt lat="40.3789238821426" lon="9.698337017763368"><ele>7.0</ele><time>2026-04-04T09:27:37.999Z</time></trkpt><trkpt lat="40.37885898476117" lon="9.698255123067733"><ele>6.833333333333334</ele><time>2026-04-04T09:27:50.999Z</time></trkpt><trkpt lat="40.37880570827133" lon="9.698185236336279"><ele>6.666666666666667</ele><time>2026-04-04T09:27:53.999Z</time></trkpt><trkpt lat="40.37874738359753" lon="9.698142470966628"><ele>6.5</ele><time>2026-04-04T09:27:58.999Z</time></trkpt><trkpt lat="40.378710856026835" lon="9.698036758907303"><ele>6.333333333333334</ele><time>2026-04-04T09:28:00.999Z</time></trkpt><trkpt lat="40.378683124769054" lon="9.697903843513028"><ele>6.166666666666667</ele><time>2026-04-04T09:28:02.999Z</time></trkpt><trkpt lat="40.37866044909643" lon="9.697821652283785"><ele>6.0</ele><time>2026-04-04T09:28:03.999Z</time></trkpt><trkpt lat="40.378678664364664" lon="9.697737088041885"><ele>6.0</ele><time>2026-04-04T09:28:04.999Z</time></trkpt><trkpt lat="40.378681506103376" lon="9.697598805769093"><ele>6.0</ele><time>2026-04-04T09:28:06.999Z</time></trkpt><trkpt lat="40.378680965866174" lon="9.697482122893705"><ele>6.0</ele><time>2026-04-04T09:28:08.999Z</time></trkpt><trkpt lat="40.378665805262976" lon="9.697338426332223"><ele>6.0</ele><time>2026-04-04T09:28:10.999Z</time></trkpt><trkpt lat="40.37864281685254" lon="9.697190129509744"><ele>6.0</ele><time>2026-04-04T09:28:12.999Z</time></trkpt><trkpt lat="40.37852281885424" lon="9.69712696591345"><ele>6.0</ele><time>2026-04-04T09:28:14.999Z</time></trkpt><trkpt lat="40.37842719156227" lon="9.697103867830533"><ele>6.0</ele><time>2026-04-04T09:28:16.999Z</time></trkpt><trkpt lat="40.37834782311275" lon="9.697066306547148"><ele>6.0</ele><time>2026-04-04T09:28:18.999Z</time></trkpt><trkpt lat="40.378267336367266" lon="9.697051426644153"><ele>6.0</ele><time>2026-04-04T09:28:21.999Z</time></trkpt><trkpt lat="40.37817348625209" lon="9.697034971773773"><ele>6.0</ele><time>2026-04-04T09:28:24.999Z</time></trkpt><trkpt lat="40.37809498046528" lon="9.697041967777556"><ele>6.0</ele><time>2026-04-04T09:28:27.999Z</time></trkpt><trkpt lat="40.37802151540823" lon="9.69703048015166"><ele>6.166666666666667</ele><time>2026-04-04T09:28:38.999Z</time></trkpt><trkpt lat="40.37795317027474" lon="9.697018289291854"><ele>6.333333333333334</ele><time>2026-04-04T09:28:40.999Z</time></trkpt><trkpt lat="40.377869343058464" lon="9.697004141471387"><ele>6.5</ele><time>2026-04-04T09:28:43.999Z</time></trkpt><trkpt lat="40.377770990006674" lon="9.696989420567665"><ele>6.666666666666667</ele><time>2026-04-04T09:28:45.999Z</time></trkpt><trkpt lat="40.37765055162578" lon="9.696965953994718"><ele>6.833333333333334</ele><time>2026-04-04T09:28:47.999Z</time></trkpt><trkpt lat="40.377586521290745" lon="9.696955227369125"><ele>7.0</ele><time>2026-04-04T09:28:48.999Z</time></trkpt><trkpt lat="40.377480555272975" lon="9.696940280058433"><ele>7.0</ele><time>2026-04-04T09:28:50.999Z</time></trkpt><trkpt lat="40.377364238703656" lon="9.696925463787654"><ele>6.999999999999999</ele><time>2026-04-04T09:28:52.999Z</time></trkpt><trkpt lat="40.37723005609486" lon="9.696899660840653"><ele>6.999999999999999</ele><time>2026-04-04T09:28:54.999Z</time></trkpt><trkpt lat="40.3771578623126" lon="9.696859237981458"><ele>7.0</ele><time>2026-04-04T09:28:55.999Z</time></trkpt><trkpt lat="40.37707794638964" lon="9.696857380788021"><ele>7.0</ele><time>2026-04-04T09:28:56.999Z</time></trkpt><trkpt lat="40.377011659502415" lon="9.696826459928237"><ele>7.000000000000001</ele><time>2026-04-04T09:28:57.999Z</time></trkpt><trkpt lat="40.376946841834794" lon="9.69678569692346"><ele>7.0</ele><time>2026-04-04T09:28:58.999Z</time></trkpt><trkpt lat="40.376888395792506" lon="9.696712150160305"><ele>7.0</ele><time>2026-04-04T09:28:59.999Z</time></trkpt><trkpt lat="40.37684532278704" lon="9.696625125165438"><ele>7.0</ele><time>2026-04-04T09:29:00.999Z</time></trkpt><trkpt lat="40.3768190201767" lon="9.696523920580297"><ele>7.000000000000001</ele><time>2026-04-04T09:29:01.999Z</time></trkpt><trkpt lat="40.376804143492805" lon="9.696426046751041"><ele>7.0</ele><time>2026-04-04T09:29:02.999Z</time></trkpt><trkpt lat="40.37679721071361" lon="9.696343596599437"><ele>7.0</ele><time>2026-04-04T09:29:03.999Z</time></trkpt><trkpt lat="40.376795399151696" lon="9.696260045122482"><ele>7.0</ele><time>2026-04-04T09:29:04.999Z</time></trkpt><trkpt lat="40.37679413069004" lon="9.696166473155719"><ele>7.0</ele><time>2026-04-04T09:29:05.999Z</time></trkpt><trkpt lat="40.37681283348077" lon="9.696074681492329"><ele>7.0</ele><time>2026-04-04T09:29:06.999Z</time></trkpt><trkpt lat="40.37681578430062" lon="9.695987837217999"><ele>7.0</ele><time>2026-04-04T09:29:07.999Z</time></trkpt><trkpt lat="40.37682018483826" lon="9.695901240589865"><ele>7.0</ele><time>2026-04-04T09:29:08.999Z</time></trkpt><trkpt lat="40.376825245536246" lon="9.695808697059594"><ele>7.0</ele><time>2026-04-04T09:29:09.999Z</time></trkpt><trkpt lat="40.37683055528357" lon="9.695711599210673"><ele>7.3999999999999995</ele><time>2026-04-04T09:29:10.999Z</time></trkpt><trkpt lat="40.37683629355094" lon="9.695609362987833"><ele>7.799999999999999</ele><time>2026-04-04T09:29:11.999Z</time></trkpt><trkpt lat="40.376842568681724" lon="9.69549759363664"><ele>8.2</ele><time>2026-04-04T09:29:12.999Z</time></trkpt><trkpt lat="40.37685009181915" lon="9.695373728665324"><ele>8.6</ele><time>2026-04-04T09:29:13.999Z</time></trkpt><trkpt lat="40.37684454913725" lon="9.69522995158319"><ele>9.0</ele><time>2026-04-04T09:29:14.999Z</time></trkpt><trkpt lat="40.37685739484253" lon="9.695073303623507"><ele>9.25</ele><time>2026-04-04T09:29:15.999Z</time></trkpt><trkpt lat="40.37687072882868" lon="9.69490568460925"><ele>9.5</ele><time>2026-04-04T09:29:16.999Z</time></trkpt><trkpt lat="40.37688365495316" lon="9.69473887581658"><ele>9.75</ele><time>2026-04-04T09:29:17.999Z</time></trkpt><trkpt lat="40.376894074920884" lon="9.694574077534583"><ele>10.0</ele><time>2026-04-04T09:29:18.999Z</time></trkpt><trkpt lat="40.37690325824405" lon="9.694408380985934"><ele>10.75</ele><time>2026-04-04T09:29:19.999Z</time></trkpt><trkpt lat="40.37691655232097" lon="9.694238045701223"><ele>11.5</ele><time>2026-04-04T09:29:20.999Z</time></trkpt><trkpt lat="40.37693008155018" lon="9.694068096542283"><ele>12.25</ele><time>2026-04-04T09:29:21.999Z</time></trkpt><trkpt lat="40.37694185479546" lon="9.693901832328038"><ele>13.0</ele><time>2026-04-04T09:29:22.998Z</time></trkpt><trkpt lat="40.37695981416696" lon="9.693619984217221"><ele>13.0</ele><time>2026-04-04T09:29:23.998Z</time></trkpt><trkpt lat="40.376962265698786" lon="9.693468027108079"><ele>13.0</ele><time>2026-04-04T09:29:24.998Z</time></trkpt><trkpt lat="40.37697695861623" lon="9.693273689112356"><ele>13.0</ele><time>2026-04-04T09:29:25.998Z</time></trkpt><trkpt lat="40.37695576973887" lon="9.693088453659055"><ele>13.0</ele><time>2026-04-04T09:29:26.998Z</time></trkpt><trkpt lat="40.3769178911362" lon="9.692902497316979"><ele>13.25</ele><time>2026-04-04T09:29:27.998Z</time></trkpt><trkpt lat="40.37686628855506" lon="9.692719741024213"><ele>13.5</ele><time>2026-04-04T09:29:28.998Z</time></trkpt><trkpt lat="40.37681200618024" lon="9.692544063647711"><ele>13.75</ele><time>2026-04-04T09:29:29.998Z</time></trkpt><trkpt lat="40.37675801391987" lon="9.692377797798176"><ele>14.0</ele><time>2026-04-04T09:29:30.998Z</time></trkpt><trkpt lat="40.37670383893349" lon="9.692212406938168"><ele>14.0</ele><time>2026-04-04T09:29:31.998Z</time></trkpt><trkpt lat="40.376652759779745" lon="9.692056850044212"><ele>14.0</ele><time>2026-04-04T09:29:32.998Z</time></trkpt><trkpt lat="40.37660588465117" lon="9.691917618856401"><ele>14.0</ele><time>2026-04-04T09:29:33.998Z</time></trkpt><trkpt lat="40.37655653641792" lon="9.691784032178575"><ele>14.0</ele><time>2026-04-04T09:29:34.999Z</time></trkpt><trkpt lat="40.37650497421537" lon="9.691660819962104"><ele>14.166666666666668</ele><time>2026-04-04T09:29:35.999Z</time></trkpt><trkpt lat="40.37644976196145" lon="9.691541445125424"><ele>14.333333333333334</ele><time>2026-04-04T09:29:36.999Z</time></trkpt><trkpt lat="40.37639404021164" lon="9.691428474753144"><ele>14.5</ele><time>2026-04-04T09:29:37.999Z</time></trkpt><trkpt lat="40.37634343350029" lon="9.69133382660904"><ele>14.666666666666668</ele><time>2026-04-04T09:29:38.999Z</time></trkpt><trkpt lat="40.376292969280975" lon="9.691257532497144"><ele>14.833333333333334</ele><time>2026-04-04T09:29:39.999Z</time></trkpt><trkpt lat="40.37624761996816" lon="9.691191792542094"><ele>15.0</ele><time>2026-04-04T09:29:40.999Z</time></trkpt><trkpt lat="40.3761795739824" lon="9.69112365601826"><ele>15.5</ele><time>2026-04-04T09:29:41.999Z</time></trkpt><trkpt lat="40.37611093111527" lon="9.691025341639177"><ele>16.0</ele><time>2026-04-04T09:29:42.999Z</time></trkpt><trkpt lat="40.37603458690634" lon="9.690911143036038"><ele>16.5</ele><time>2026-04-04T09:29:43.999Z</time></trkpt><trkpt lat="40.375965197117544" lon="9.690775874531996"><ele>17.0</ele><time>2026-04-04T09:29:44.999Z</time></trkpt><trkpt lat="40.37591445235994" lon="9.690640571683566"><ele>17.0</ele><time>2026-04-04T09:29:45.999Z</time></trkpt><trkpt lat="40.375884728684305" lon="9.690506126344262"><ele>17.0</ele><time>2026-04-04T09:29:46.999Z</time></trkpt><trkpt lat="40.37587768123307" lon="9.690369216223342"><ele>17.0</ele><time>2026-04-04T09:29:47.999Z</time></trkpt><trkpt lat="40.37588757381954" lon="9.690234760789819"><ele>17.0</ele><time>2026-04-04T09:29:48.999Z</time></trkpt><trkpt lat="40.37589745205491" lon="9.690034074419344"><ele>17.666666666666668</ele><time>2026-04-04T09:29:49.999Z</time></trkpt><trkpt lat="40.37592177711367" lon="9.689851658261244"><ele>18.333333333333332</ele><time>2026-04-04T09:29:50.999Z</time></trkpt><trkpt lat="40.3759503543287" lon="9.689646076823443"><ele>19.0</ele><time>2026-04-04T09:29:51.999Z</time></trkpt><trkpt lat="40.37597735835492" lon="9.689429054244034"><ele>19.666666666666664</ele><time>2026-04-04T09:29:52.999Z</time></trkpt><trkpt lat="40.37600633355128" lon="9.6891965405744"><ele>20.333333333333332</ele><time>2026-04-04T09:29:53.999Z</time></trkpt><trkpt lat="40.37603447551336" lon="9.688970895061349"><ele>21.0</ele><time>2026-04-04T09:29:54.999Z</time></trkpt><trkpt lat="40.37606212268312" lon="9.68875323990218"><ele>22.0</ele><time>2026-04-04T09:29:55.999Z</time></trkpt><trkpt lat="40.37609183825115" lon="9.688521112332753"><ele>23.0</ele><time>2026-04-04T09:29:56.999Z</time></trkpt><trkpt lat="40.37612281209438" lon="9.688279155553264"><ele>24.0</ele><time>2026-04-04T09:29:57.999Z</time></trkpt><trkpt lat="40.37615300681781" lon="9.688035270297178"><ele>24.0</ele><time>2026-04-04T09:29:58.999Z</time></trkpt><trkpt lat="40.37616845815767" lon="9.687776832163387"><ele>24.0</ele><time>2026-04-04T09:29:59.999Z</time></trkpt><trkpt lat="40.3762164036086" lon="9.687526030645786"><ele>24.0</ele><time>2026-04-04T09:30:00.999Z</time></trkpt><trkpt lat="40.376233869994394" lon="9.687266293088388"><ele>25.333333333333336</ele><time>2026-04-04T09:30:01.999Z</time></trkpt><trkpt lat="40.37626552511859" lon="9.687028670866276"><ele>26.666666666666668</ele><time>2026-04-04T09:30:02.999Z</time></trkpt><trkpt lat="40.37629315021031" lon="9.686810282207057"><ele>28.0</ele><time>2026-04-04T09:30:03.999Z</time></trkpt><trkpt lat="40.37630164638725" lon="9.686613068844409"><ele>28.666666666666668</ele><time>2026-04-04T09:30:04.999Z</time></trkpt><trkpt lat="40.37628987762436" lon="9.686412750189096"><ele>29.333333333333336</ele><time>2026-04-04T09:30:05.999Z</time></trkpt><trkpt lat="40.37625971795516" lon="9.686200724421477"><ele>30.0</ele><time>2026-04-04T09:30:06.999Z</time></trkpt><trkpt lat="40.37621408227778" lon="9.68598223584673"><ele>32.0</ele><time>2026-04-04T09:30:07.999Z</time></trkpt><trkpt lat="40.376154129988834" lon="9.685753250577262"><ele>34.0</ele><time>2026-04-04T09:30:08.999Z</time></trkpt><trkpt lat="40.37609845629566" lon="9.685510140609084"><ele>36.0</ele><time>2026-04-04T09:30:09.999Z</time></trkpt><trkpt lat="40.37604583665401" lon="9.685255165635798"><ele>37.0</ele><time>2026-04-04T09:30:10.999Z</time></trkpt><trkpt lat="40.37600474838127" lon="9.68498675523538"><ele>38.0</ele><time>2026-04-04T09:30:11.999Z</time></trkpt><trkpt lat="40.3759489305145" lon="9.684718460569561"><ele>39.0</ele><time>2026-04-04T09:30:12.999Z</time></trkpt><trkpt lat="40.375898191372144" lon="9.684469977271135"><ele>40.0</ele><time>2026-04-04T09:30:13.999Z</time></trkpt><trkpt lat="40.37580116673846" lon="9.684002699640887"><ele>41.0</ele><time>2026-04-04T09:30:15.999Z</time></trkpt><trkpt lat="40.375753881398865" lon="9.683775851084002"><ele>41.25</ele><time>2026-04-04T09:30:16.999Z</time></trkpt><trkpt lat="40.37571217987644" lon="9.683574251415305"><ele>41.5</ele><time>2026-04-04T09:30:17.999Z</time></trkpt><trkpt lat="40.375674804472986" lon="9.683392860956895"><ele>41.75</ele><time>2026-04-04T09:30:18.999Z</time></trkpt><trkpt lat="40.375639645785526" lon="9.683222228651092"><ele>42.0</ele><time>2026-04-04T09:30:19.999Z</time></trkpt><trkpt lat="40.37560748741087" lon="9.683066157482964"><ele>42.0</ele><time>2026-04-04T09:30:20.999Z</time></trkpt><trkpt lat="40.375577377108" lon="9.682921815255684"><ele>42.0</ele><time>2026-04-04T09:30:21.999Z</time></trkpt><trkpt lat="40.375546551361055" lon="9.682775400149858"><ele>42.0</ele><time>2026-04-04T09:30:22.999Z</time></trkpt><trkpt lat="40.37551802163918" lon="9.682639890622278"><ele>42.0</ele><time>2026-04-04T09:30:23.999Z</time></trkpt><trkpt lat="40.37549139231398" lon="9.682513407544361"><ele>42.0</ele><time>2026-04-04T09:30:24.999Z</time></trkpt><trkpt lat="40.375466765814735" lon="9.682396437419975"><ele>44.0</ele><time>2026-04-04T09:30:25.999Z</time></trkpt><trkpt lat="40.37544018486293" lon="9.682270184100252"><ele>46.0</ele><time>2026-04-04T09:30:26.999Z</time></trkpt><trkpt lat="40.3754161547669" lon="9.682156046749881"><ele>48.0</ele><time>2026-04-04T09:30:27.999Z</time></trkpt><trkpt lat="40.3753944865882" lon="9.682053127956882"><ele>50.0</ele><time>2026-04-04T09:30:28.999Z</time></trkpt><trkpt lat="40.37537281619366" lon="9.681950198643994"><ele>52.0</ele><time>2026-04-04T09:30:29.999Z</time></trkpt><trkpt lat="40.375325064417524" lon="9.681881706103045"><ele>54.0</ele><time>2026-04-04T09:30:30.999Z</time></trkpt><trkpt lat="40.37533791393662" lon="9.681758043511328"><ele>54.0</ele><time>2026-04-04T09:30:32.999Z</time></trkpt><trkpt lat="40.375370377842096" lon="9.681646204243105"><ele>54.0</ele><time>2026-04-04T09:30:34.999Z</time></trkpt><trkpt lat="40.37538119693485" lon="9.681490055125769"><ele>54.0</ele><time>2026-04-04T09:30:36.999Z</time></trkpt><trkpt lat="40.37533233958664" lon="9.68135202483824"><ele>54.0</ele><time>2026-04-04T09:30:38.999Z</time></trkpt><trkpt lat="40.37522137146757" lon="9.681279242421635"><ele>54.0</ele><time>2026-04-04T09:30:40.999Z</time></trkpt><trkpt lat="40.37514918315292" lon="9.681284879887189"><ele>54.0</ele><time>2026-04-04T09:30:41.999Z</time></trkpt><trkpt lat="40.37507050921014" lon="9.681320982481918"><ele>54.0</ele><time>2026-04-04T09:30:42.999Z</time></trkpt><trkpt lat="40.37498724216176" lon="9.681362866602834"><ele>54.0</ele><time>2026-04-04T09:30:43.999Z</time></trkpt><trkpt lat="40.374894595032984" lon="9.68139606585097"><ele>54.0</ele><time>2026-04-04T09:30:44.999Z</time></trkpt><trkpt lat="40.374805054244284" lon="9.681384223686912"><ele>54.0</ele><time>2026-04-04T09:30:45.999Z</time></trkpt><trkpt lat="40.37471358190473" lon="9.681333327443827"><ele>53.5</ele><time>2026-04-04T09:30:46.999Z</time></trkpt><trkpt lat="40.37461819080665" lon="9.68124698811145"><ele>53.0</ele><time>2026-04-04T09:30:47.999Z</time></trkpt><trkpt lat="40.37451816536339" lon="9.681163635959766"><ele>52.5</ele><time>2026-04-04T09:30:48.999Z</time></trkpt><trkpt lat="40.37440677522295" lon="9.6810799319248"><ele>52.0</ele><time>2026-04-04T09:30:49.999Z</time></trkpt><trkpt lat="40.374286203923674" lon="9.680986375710757"><ele>52.0</ele><time>2026-04-04T09:30:50.999Z</time></trkpt><trkpt lat="40.37416556016301" lon="9.680844678707356"><ele>52.0</ele><time>2026-04-04T09:30:51.999Z</time></trkpt><trkpt lat="40.37399973753393" lon="9.680713142317039"><ele>52.0</ele><time>2026-04-04T09:30:52.999Z</time></trkpt><trkpt lat="40.373808200082266" lon="9.680559811176199"><ele>52.0</ele><time>2026-04-04T09:30:53.999Z</time></trkpt><trkpt lat="40.373600393908234" lon="9.680395765649797"><ele>52.0</ele><time>2026-04-04T09:30:54.999Z</time></trkpt><trkpt lat="40.373386756306786" lon="9.68022729640738"><ele>53.5</ele><time>2026-04-04T09:30:55.999Z</time></trkpt><trkpt lat="40.373171331213534" lon="9.680056279017228"><ele>55.0</ele><time>2026-04-04T09:30:56.999Z</time></trkpt><trkpt lat="40.37294153791703" lon="9.67987385528226"><ele>56.5</ele><time>2026-04-04T09:30:57.999Z</time></trkpt><trkpt lat="40.372699290700986" lon="9.679681544876235"><ele>58.0</ele><time>2026-04-04T09:30:58.999Z</time></trkpt><trkpt lat="40.372459911640284" lon="9.679516945568942"><ele>58.666666666666664</ele><time>2026-04-04T09:30:59.999Z</time></trkpt><trkpt lat="40.37224703758839" lon="9.679347912320733"><ele>59.33333333333333</ele><time>2026-04-04T09:31:00.999Z</time></trkpt><trkpt lat="40.37208491671099" lon="9.67919356396054"><ele>60.0</ele><time>2026-04-04T09:31:01.999Z</time></trkpt><trkpt lat="40.37193953737209" lon="9.679076631513706"><ele>60.0</ele><time>2026-04-04T09:31:02.999Z</time></trkpt><trkpt lat="40.37181690027616" lon="9.678952054975333"><ele>60.0</ele><time>2026-04-04T09:31:03.999Z</time></trkpt><trkpt lat="40.37170083090581" lon="9.678803462485128"><ele>60.0</ele><time>2026-04-04T09:31:04.999Z</time></trkpt><trkpt lat="40.37159448763176" lon="9.678624768822601"><ele>61.66666666666667</ele><time>2026-04-04T09:31:05.999Z</time></trkpt><trkpt lat="40.37150376008253" lon="9.6784284671703"><ele>63.333333333333336</ele><time>2026-04-04T09:31:06.999Z</time></trkpt><trkpt lat="40.37142812775489" lon="9.678249144244624"><ele>65.0</ele><time>2026-04-04T09:31:07.999Z</time></trkpt><trkpt lat="40.37136595879364" lon="9.678097905855672"><ele>64.5</ele><time>2026-04-04T09:31:08.999Z</time></trkpt><trkpt lat="40.37130857189567" lon="9.677957760039629"><ele>64.0</ele><time>2026-04-04T09:31:09.999Z</time></trkpt><trkpt lat="40.37125363758687" lon="9.677827504199744"><ele>63.5</ele><time>2026-04-04T09:31:10.999Z</time></trkpt><trkpt lat="40.37119609016261" lon="9.67769105234799"><ele>63.0</ele><time>2026-04-04T09:31:11.999Z</time></trkpt><trkpt lat="40.37113111590977" lon="9.677534322796186"><ele>64.33333333333333</ele><time>2026-04-04T09:31:13Z</time></trkpt><trkpt lat="40.37106108102194" lon="9.677363295575091"><ele>65.66666666666666</ele><time>2026-04-04T09:31:14Z</time></trkpt><trkpt lat="40.37098427669807" lon="9.67717768752687"><ele>67.0</ele><time>2026-04-04T09:31:15Z</time></trkpt><trkpt lat="40.37089961476914" lon="9.67697316918301"><ele>68.33333333333333</ele><time>2026-04-04T09:31:16Z</time></trkpt><trkpt lat="40.37080719232995" lon="9.676749903737337"><ele>69.66666666666667</ele><time>2026-04-04T09:31:17Z</time></trkpt><trkpt lat="40.37070431006629" lon="9.676501370421416"><ele>71.0</ele><time>2026-04-04T09:31:18Z</time></trkpt><trkpt lat="40.3705989370351" lon="9.676246820142989"><ele>71.66666666666667</ele><time>2026-04-04T09:31:19Z</time></trkpt><trkpt lat="40.37049356374673" lon="9.675993157518123"><ele>72.33333333333333</ele><time>2026-04-04T09:31:20Z</time></trkpt><trkpt lat="40.370391680730684" lon="9.675748749632618"><ele>73.0</ele><time>2026-04-04T09:31:21Z</time></trkpt><trkpt lat="40.37029049122325" lon="9.675504833133978"><ele>75.5</ele><time>2026-04-04T09:31:22Z</time></trkpt><trkpt lat="40.37018256419264" lon="9.675243782709996"><ele>78.0</ele><time>2026-04-04T09:31:23Z</time></trkpt><trkpt lat="40.37007036360669" lon="9.674973922663861"><ele>78.0</ele><time>2026-04-04T09:31:24Z</time></trkpt><trkpt lat="40.36995487470766" lon="9.674696153709345"><ele>78.0</ele><time>2026-04-04T09:31:25Z</time></trkpt><trkpt lat="40.3698403683504" lon="9.674420747919227"><ele>78.5</ele><time>2026-04-04T09:31:26Z</time></trkpt><trkpt lat="40.36972996987177" lon="9.674155222949844"><ele>79.0</ele><time>2026-04-04T09:31:27Z</time></trkpt><trkpt lat="40.369620561724396" lon="9.673890890249258"><ele>79.0</ele><time>2026-04-04T09:31:27.999Z</time></trkpt><trkpt lat="40.36951186066927" lon="9.673634342185835"><ele>79.0</ele><time>2026-04-04T09:31:28.999Z</time></trkpt><trkpt lat="40.36939144663157" lon="9.673426803601588"><ele>79.0</ele><time>2026-04-04T09:31:29.999Z</time></trkpt><trkpt lat="40.36927861927704" lon="9.673234120148738"><ele>80.33333333333333</ele><time>2026-04-04T09:31:30.999Z</time></trkpt><trkpt lat="40.3691510479592" lon="9.673051083116068"><ele>81.66666666666667</ele><time>2026-04-04T09:31:31.999Z</time></trkpt><trkpt lat="40.36896348595714" lon="9.67291232138938"><ele>83.0</ele><time>2026-04-04T09:31:32.999Z</time></trkpt><trkpt lat="40.368779142099235" lon="9.672741214090031"><ele>85.5</ele><time>2026-04-04T09:31:33.999Z</time></trkpt><trkpt lat="40.368576566541776" lon="9.672573509421916"><ele>88.0</ele><time>2026-04-04T09:31:34.999Z</time></trkpt><trkpt lat="40.36836687957851" lon="9.672399917439053"><ele>88.0</ele><time>2026-04-04T09:31:35.999Z</time></trkpt><trkpt lat="40.368152953630805" lon="9.672223964434608"><ele>88.0</ele><time>2026-04-04T09:31:36.999Z</time></trkpt><trkpt lat="40.367942745330176" lon="9.6720520213177"><ele>91.5</ele><time>2026-04-04T09:31:37.999Z</time></trkpt><trkpt lat="40.367732003635986" lon="9.671892373146896"><ele>95.0</ele><time>2026-04-04T09:31:38.999Z</time></trkpt><trkpt lat="40.36749556233774" lon="9.67177032141346"><ele>95.0</ele><time>2026-04-04T09:31:39.999Z</time></trkpt><trkpt lat="40.36725085802199" lon="9.671640040585109"><ele>95.0</ele><time>2026-04-04T09:31:40.999Z</time></trkpt><trkpt lat="40.36699776437611" lon="9.671497812023627"><ele>95.0</ele><time>2026-04-04T09:31:41.999Z</time></trkpt><trkpt lat="40.366739953267924" lon="9.671364169896218"><ele>95.0</ele><time>2026-04-04T09:31:42.999Z</time></trkpt><trkpt lat="40.36647514425288" lon="9.671226137275735"><ele>98.5</ele><time>2026-04-04T09:31:43.999Z</time></trkpt><trkpt lat="40.36621204671261" lon="9.671089946936975"><ele>102.0</ele><time>2026-04-04T09:31:44.999Z</time></trkpt><trkpt lat="40.36597092049763" lon="9.670965356712918"><ele>102.0</ele><time>2026-04-04T09:31:45.999Z</time></trkpt><trkpt lat="40.365752515337626" lon="9.67085250649087"><ele>102.0</ele><time>2026-04-04T09:31:47Z</time></trkpt><trkpt lat="40.365542726106426" lon="9.670742602102106"><ele>103.66666666666666</ele><time>2026-04-04T09:31:48Z</time></trkpt><trkpt lat="40.36534879630816" lon="9.670643358051844"><ele>105.33333333333333</ele><time>2026-04-04T09:31:49Z</time></trkpt><trkpt lat="40.36516098796933" lon="9.670562581527774"><ele>107.0</ele><time>2026-04-04T09:31:50Z</time></trkpt><trkpt lat="40.36500624651806" lon="9.670432855285359"><ele>107.0</ele><time>2026-04-04T09:31:51Z</time></trkpt><trkpt lat="40.36486727432452" lon="9.67030420394189"><ele>107.0</ele><time>2026-04-04T09:31:52Z</time></trkpt><trkpt lat="40.36474182783913" lon="9.670146301012243"><ele>107.0</ele><time>2026-04-04T09:31:53Z</time></trkpt><trkpt lat="40.36463252184461" lon="9.669967069316213"><ele>107.66666666666666</ele><time>2026-04-04T09:31:54Z</time></trkpt><trkpt lat="40.364529640566865" lon="9.669771536175867"><ele>108.33333333333334</ele><time>2026-04-04T09:31:55Z</time></trkpt><trkpt lat="40.36443425981212" lon="9.669555454790032"><ele>109.0</ele><time>2026-04-04T09:31:56Z</time></trkpt><trkpt lat="40.36433120099054" lon="9.669355045120673"><ele>110.33333333333334</ele><time>2026-04-04T09:31:57Z</time></trkpt><trkpt lat="40.364253783140626" lon="9.669136822062331"><ele>111.66666666666666</ele><time>2026-04-04T09:31:58Z</time></trkpt><trkpt lat="40.36416688458151" lon="9.668935253386998"><ele>113.0</ele><time>2026-04-04T09:31:59Z</time></trkpt><trkpt lat="40.36399376440754" lon="9.668815426492138"><ele>113.0</ele><time>2026-04-04T09:32:00Z</time></trkpt><trkpt lat="40.36384942001372" lon="9.668712640487852"><ele>113.0</ele><time>2026-04-04T09:32:01Z</time></trkpt><trkpt lat="40.36369220481496" lon="9.668626344860739"><ele>113.0</ele><time>2026-04-04T09:32:02Z</time></trkpt><trkpt lat="40.36352647568863" lon="9.668548206073115"><ele>114.0</ele><time>2026-04-04T09:32:03Z</time></trkpt><trkpt lat="40.36336580986868" lon="9.668470956320892"><ele>115.0</ele><time>2026-04-04T09:32:04Z</time></trkpt><trkpt lat="40.36322451385945" lon="9.668387931975253"><ele>116.0</ele><time>2026-04-04T09:32:05Z</time></trkpt><trkpt lat="40.36310596182097" lon="9.668298195544004"><ele>113.0</ele><time>2026-04-04T09:32:06Z</time></trkpt><trkpt lat="40.363002452580965" lon="9.6681860981993"><ele>110.0</ele><time>2026-04-04T09:32:07Z</time></trkpt><trkpt lat="40.36290707458102" lon="9.668046046766129"><ele>107.0</ele><time>2026-04-04T09:32:08Z</time></trkpt><trkpt lat="40.36282210528666" lon="9.667856264475716"><ele>104.0</ele><time>2026-04-04T09:32:09Z</time></trkpt><trkpt lat="40.36274185601956" lon="9.667640274309589"><ele>102.33333333333333</ele><time>2026-04-04T09:32:10Z</time></trkpt><trkpt lat="40.362647641455936" lon="9.667401750723574"><ele>100.66666666666666</ele><time>2026-04-04T09:32:11Z</time></trkpt><trkpt lat="40.362545325001584" lon="9.667170545922957"><ele>99.0</ele><time>2026-04-04T09:32:12Z</time></trkpt><trkpt lat="40.362458637387405" lon="9.666981192304872"><ele>100.2</ele><time>2026-04-04T09:32:13Z</time></trkpt><trkpt lat="40.36239266745217" lon="9.6668360773373"><ele>101.4</ele><time>2026-04-04T09:32:14Z</time></trkpt><trkpt lat="40.36234343557349" lon="9.666705087961558"><ele>102.6</ele><time>2026-04-04T09:32:15Z</time></trkpt><trkpt lat="40.36232418429775" lon="9.666577378719333"><ele>103.8</ele><time>2026-04-04T09:32:16Z</time></trkpt><trkpt lat="40.36234184959795" lon="9.666458232305144"><ele>105.0</ele><time>2026-04-04T09:32:17Z</time></trkpt><trkpt lat="40.362410033685414" lon="9.666356314095232"><ele>105.0</ele><time>2026-04-04T09:32:18Z</time></trkpt><trkpt lat="40.36249172510202" lon="9.66624465166744"><ele>105.0</ele><time>2026-04-04T09:32:19Z</time></trkpt><trkpt lat="40.36253397272241" lon="9.666121616477183"><ele>105.0</ele><time>2026-04-04T09:32:20Z</time></trkpt><trkpt lat="40.36253237845269" lon="9.665985050037982"><ele>105.0</ele><time>2026-04-04T09:32:21Z</time></trkpt><trkpt lat="40.362497131810834" lon="9.665836508972498"><ele>105.0</ele><time>2026-04-04T09:32:22Z</time></trkpt><trkpt lat="40.362430760739784" lon="9.665686862388712"><ele>109.0</ele><time>2026-04-04T09:32:23Z</time></trkpt><trkpt lat="40.362337689438085" lon="9.665538089271129"><ele>113.0</ele><time>2026-04-04T09:32:24Z</time></trkpt><trkpt lat="40.36223481641721" lon="9.665371747249434"><ele>117.0</ele><time>2026-04-04T09:32:25Z</time></trkpt><trkpt lat="40.36214724065432" lon="9.665179322657215"><ele>117.66666666666666</ele><time>2026-04-04T09:32:26Z</time></trkpt><trkpt lat="40.36208370908949" lon="9.664967287095276"><ele>118.33333333333333</ele><time>2026-04-04T09:32:27Z</time></trkpt><trkpt lat="40.36204327281368" lon="9.664749994188286"><ele>119.0</ele><time>2026-04-04T09:32:28Z</time></trkpt><trkpt lat="40.36201738891883" lon="9.664536522555176"><ele>120.0</ele><time>2026-04-04T09:32:29Z</time></trkpt><trkpt lat="40.361999297983665" lon="9.66430240650655"><ele>121.0</ele><time>2026-04-04T09:32:30Z</time></trkpt><trkpt lat="40.361977381482966" lon="9.664044436654217"><ele>122.0</ele><time>2026-04-04T09:32:31Z</time></trkpt><trkpt lat="40.36195057359701" lon="9.663759040948277"><ele>123.33333333333333</ele><time>2026-04-04T09:32:32Z</time></trkpt><trkpt lat="40.361924002077615" lon="9.663474205857218"><ele>124.66666666666666</ele><time>2026-04-04T09:32:33Z</time></trkpt><trkpt lat="40.36189108357877" lon="9.663181460005076"><ele>126.0</ele><time>2026-04-04T09:32:34Z</time></trkpt><trkpt lat="40.36186384345562" lon="9.662895020019873"><ele>126.66666666666666</ele><time>2026-04-04T09:32:35Z</time></trkpt><trkpt lat="40.36183349410176" lon="9.662609272645781"><ele>127.33333333333333</ele><time>2026-04-04T09:32:36Z</time></trkpt><trkpt lat="40.36180437162961" lon="9.66232061858487"><ele>128.0</ele><time>2026-04-04T09:32:37Z</time></trkpt><trkpt lat="40.36177448478618" lon="9.662040313889381"><ele>127.33333333333333</ele><time>2026-04-04T09:32:38Z</time></trkpt><trkpt lat="40.36174779823415" lon="9.661782517279882"><ele>126.66666666666666</ele><time>2026-04-04T09:32:39Z</time></trkpt><trkpt lat="40.3617251636486" lon="9.661547498401967"><ele>126.0</ele><time>2026-04-04T09:32:40Z</time></trkpt><trkpt lat="40.361706211169285" lon="9.661348027608959"><ele>126.0</ele><time>2026-04-04T09:32:41Z</time></trkpt><trkpt lat="40.36169364823789" lon="9.661174514780503"><ele>126.0</ele><time>2026-04-04T09:32:42Z</time></trkpt><trkpt lat="40.36169847018322" lon="9.661018926308769"><ele>126.0</ele><time>2026-04-04T09:32:43Z</time></trkpt><trkpt lat="40.36173660923116" lon="9.660864182121863"><ele>126.0</ele><time>2026-04-04T09:32:44Z</time></trkpt><trkpt lat="40.361805996630345" lon="9.66070881675002"><ele>126.19999999999999</ele><time>2026-04-04T09:32:45Z</time></trkpt><trkpt lat="40.3618701012258" lon="9.660580648870386"><ele>126.39999999999999</ele><time>2026-04-04T09:32:46Z</time></trkpt><trkpt lat="40.36189607759791" lon="9.660473080101083"><ele>126.6</ele><time>2026-04-04T09:32:47Z</time></trkpt><trkpt lat="40.36188685747888" lon="9.660356290687476"><ele>126.8</ele><time>2026-04-04T09:32:48Z</time></trkpt><trkpt lat="40.36184250680685" lon="9.6602344060128"><ele>127.0</ele><time>2026-04-04T09:32:49Z</time></trkpt><trkpt lat="40.36176036070663" lon="9.660141157076712"><ele>128.5</ele><time>2026-04-04T09:32:50Z</time></trkpt><trkpt lat="40.36163856644039" lon="9.660076269860175"><ele>130.0</ele><time>2026-04-04T09:32:51Z</time></trkpt><trkpt lat="40.3615054449502" lon="9.660023530929939"><ele>131.5</ele><time>2026-04-04T09:32:52Z</time></trkpt><trkpt lat="40.361383125617124" lon="9.659933549956712"><ele>133.0</ele><time>2026-04-04T09:32:53Z</time></trkpt><trkpt lat="40.36129596154549" lon="9.659803646967037"><ele>129.66666666666669</ele><time>2026-04-04T09:32:54Z</time></trkpt><trkpt lat="40.361236146928555" lon="9.659627376108094"><ele>126.33333333333334</ele><time>2026-04-04T09:32:55Z</time></trkpt><trkpt lat="40.36118406538566" lon="9.659412078104754"><ele>123.0</ele><time>2026-04-04T09:32:56Z</time></trkpt><trkpt lat="40.36112592764276" lon="9.659179430181396"><ele>123.0</ele><time>2026-04-04T09:32:57Z</time></trkpt><trkpt lat="40.36106394014973" lon="9.658949015911125"><ele>123.0</ele><time>2026-04-04T09:32:58Z</time></trkpt><trkpt lat="40.36099557988096" lon="9.658715906082055"><ele>123.0</ele><time>2026-04-04T09:32:59Z</time></trkpt><trkpt lat="40.360925777222846" lon="9.65847509566478"><ele>124.33333333333334</ele><time>2026-04-04T09:33:00Z</time></trkpt><trkpt lat="40.36085944361139" lon="9.658251072075744"><ele>125.66666666666667</ele><time>2026-04-04T09:33:01Z</time></trkpt><trkpt lat="40.360780039717554" lon="9.6580448181229"><ele>127.0</ele><time>2026-04-04T09:33:02Z</time></trkpt><trkpt lat="40.360675455357615" lon="9.65784185460532"><ele>126.33333333333334</ele><time>2026-04-04T09:33:03Z</time></trkpt><trkpt lat="40.36056048739668" lon="9.657619794754607"><ele>125.66666666666666</ele><time>2026-04-04T09:33:04Z</time></trkpt><trkpt lat="40.360414934728325" lon="9.657398179192873"><ele>125.0</ele><time>2026-04-04T09:33:05Z</time></trkpt><trkpt lat="40.360263788415836" lon="9.657185137211895"><ele>125.0</ele><time>2026-04-04T09:33:06Z</time></trkpt><trkpt lat="40.360131774170696" lon="9.656982513243069"><ele>125.0</ele><time>2026-04-04T09:33:07Z</time></trkpt><trkpt lat="40.360019767579736" lon="9.656816764341112"><ele>125.0</ele><time>2026-04-04T09:33:08Z</time></trkpt><trkpt lat="40.359919772198324" lon="9.656683999114207"><ele>126.5</ele><time>2026-04-04T09:33:09Z</time></trkpt><trkpt lat="40.35980472115602" lon="9.656591883750275"><ele>128.0</ele><time>2026-04-04T09:33:10Z</time></trkpt><trkpt lat="40.35969305278931" lon="9.656532518459391"><ele>129.5</ele><time>2026-04-04T09:33:11Z</time></trkpt><trkpt lat="40.3595752692015" lon="9.656521870765818"><ele>131.0</ele><time>2026-04-04T09:33:12Z</time></trkpt><trkpt lat="40.359446316758174" lon="9.656544968410458"><ele>131.0</ele><time>2026-04-04T09:33:13Z</time></trkpt><trkpt lat="40.35932485657117" lon="9.656612023069316"><ele>131.0</ele><time>2026-04-04T09:33:14Z</time></trkpt><trkpt lat="40.35922111398272" lon="9.656739947963763"><ele>131.0</ele><time>2026-04-04T09:33:15Z</time></trkpt><trkpt lat="40.359144823329274" lon="9.656884491742863"><ele>131.0</ele><time>2026-04-04T09:33:16Z</time></trkpt><trkpt lat="40.35908372670945" lon="9.657062798729498"><ele>130.0</ele><time>2026-04-04T09:33:17Z</time></trkpt><trkpt lat="40.359039045479136" lon="9.657282595217296"><ele>129.0</ele><time>2026-04-04T09:33:18Z</time></trkpt><trkpt lat="40.3589785773038" lon="9.657505242538686"><ele>128.0</ele><time>2026-04-04T09:33:19Z</time></trkpt><trkpt lat="40.35891072515872" lon="9.657688516872216"><ele>128.25</ele><time>2026-04-04T09:33:20Z</time></trkpt><trkpt lat="40.35882733050079" lon="9.65783915102007"><ele>128.5</ele><time>2026-04-04T09:33:21Z</time></trkpt><trkpt lat="40.35870739948217" lon="9.657953813185465"><ele>128.75</ele><time>2026-04-04T09:33:22Z</time></trkpt><trkpt lat="40.35857859796181" lon="9.658065884634969"><ele>129.0</ele><time>2026-04-04T09:33:23Z</time></trkpt><trkpt lat="40.35844298670066" lon="9.658144708841112"><ele>129.0</ele><time>2026-04-04T09:33:24Z</time></trkpt><trkpt lat="40.358307161736846" lon="9.658191421956806"><ele>129.0</ele><time>2026-04-04T09:33:25Z</time></trkpt><trkpt lat="40.35816452717253" lon="9.658208739758814"><ele>129.0</ele><time>2026-04-04T09:33:26Z</time></trkpt><trkpt lat="40.358023033555824" lon="9.658189957672903"><ele>129.0</ele><time>2026-04-04T09:33:27Z</time></trkpt><trkpt lat="40.35789127042359" lon="9.658119857394423"><ele>129.0</ele><time>2026-04-04T09:33:28Z</time></trkpt><trkpt lat="40.357773655909725" lon="9.658016915776034"><ele>129.0</ele><time>2026-04-04T09:33:29Z</time></trkpt><trkpt lat="40.357668849317115" lon="9.657877863728949"><ele>129.0</ele><time>2026-04-04T09:33:30Z</time></trkpt><trkpt lat="40.3575932350087" lon="9.657702228267029"><ele>129.0</ele><time>2026-04-04T09:33:31Z</time></trkpt><trkpt lat="40.357529577752835" lon="9.657482755361977"><ele>129.0</ele><time>2026-04-04T09:33:32Z</time></trkpt><trkpt lat="40.357445806729324" lon="9.657251613908848"><ele>129.0</ele><time>2026-04-04T09:33:33Z</time></trkpt><trkpt lat="40.35732347078415" lon="9.657053549094856"><ele>129.0</ele><time>2026-04-04T09:33:34Z</time></trkpt><trkpt lat="40.357206587002686" lon="9.656885375921092"><ele>130.0</ele><time>2026-04-04T09:33:35Z</time></trkpt><trkpt lat="40.35709612414881" lon="9.656744605889553"><ele>131.0</ele><time>2026-04-04T09:33:36Z</time></trkpt><trkpt lat="40.356996025245046" lon="9.656649717215918"><ele>132.0</ele><time>2026-04-04T09:33:37Z</time></trkpt><trkpt lat="40.35688777037309" lon="9.656616115566456"><ele>133.0</ele><time>2026-04-04T09:33:38Z</time></trkpt><trkpt lat="40.35677727442913" lon="9.656647050683313"><ele>133.0</ele><time>2026-04-04T09:33:39Z</time></trkpt><trkpt lat="40.35666227885768" lon="9.656699638584767"><ele>133.0</ele><time>2026-04-04T09:33:40Z</time></trkpt><trkpt lat="40.356555579435565" lon="9.656734998338411"><ele>133.0</ele><time>2026-04-04T09:33:41Z</time></trkpt><trkpt lat="40.35650448758414" lon="9.65683268569897"><ele>133.0</ele><time>2026-04-04T09:33:42Z</time></trkpt><trkpt lat="40.35649303048015" lon="9.656939723587438"><ele>133.0</ele><time>2026-04-04T09:33:43Z</time></trkpt><trkpt lat="40.35653393247721" lon="9.65708136051393"><ele>131.0</ele><time>2026-04-04T09:33:44Z</time></trkpt><trkpt lat="40.35660428031665" lon="9.657223935276068"><ele>129.0</ele><time>2026-04-04T09:33:45Z</time></trkpt><trkpt lat="40.356670971405705" lon="9.657384703663919"><ele>127.0</ele><time>2026-04-04T09:33:46Z</time></trkpt><trkpt lat="40.356678652356266" lon="9.657548493048255"><ele>125.0</ele><time>2026-04-04T09:33:47Z</time></trkpt><trkpt lat="40.356666603567696" lon="9.657697368253224"><ele>126.25</ele><time>2026-04-04T09:33:48Z</time></trkpt><trkpt lat="40.356594984829655" lon="9.657835778767275"><ele>127.5</ele><time>2026-04-04T09:33:49Z</time></trkpt><trkpt lat="40.356468383846526" lon="9.657897138957361"><ele>128.75</ele><time>2026-04-04T09:33:50Z</time></trkpt><trkpt lat="40.356333878221065" lon="9.657968517800773"><ele>130.0</ele><time>2026-04-04T09:33:51Z</time></trkpt><trkpt lat="40.35618583001184" lon="9.658054348668806"><ele>130.0</ele><time>2026-04-04T09:33:52Z</time></trkpt><trkpt lat="40.356062045696866" lon="9.65810807613377"><ele>130.0</ele><time>2026-04-04T09:33:53Z</time></trkpt><trkpt lat="40.35597287342993" lon="9.658204871466987"><ele>130.0</ele><time>2026-04-04T09:33:54Z</time></trkpt><trkpt lat="40.35590571875025" lon="9.658353792756339"><ele>130.0</ele><time>2026-04-04T09:33:55Z</time></trkpt><trkpt lat="40.355882862657445" lon="9.658538867266117"><ele>129.33333333333334</ele><time>2026-04-04T09:33:56Z</time></trkpt><trkpt lat="40.35589658878832" lon="9.658753735467307"><ele>128.66666666666666</ele><time>2026-04-04T09:33:57Z</time></trkpt><trkpt lat="40.35590987167708" lon="9.659006602450093"><ele>128.0</ele><time>2026-04-04T09:33:58Z</time></trkpt><trkpt lat="40.35591449663578" lon="9.65926116696532"><ele>127.33333333333333</ele><time>2026-04-04T09:33:59Z</time></trkpt><trkpt lat="40.35590396511226" lon="9.659482638828536"><ele>126.66666666666666</ele><time>2026-04-04T09:34:00Z</time></trkpt><trkpt lat="40.355847782324794" lon="9.659664273715917"><ele>126.0</ele><time>2026-04-04T09:34:01Z</time></trkpt><trkpt lat="40.355780856064285" lon="9.659818842955595"><ele>126.0</ele><time>2026-04-04T09:34:02Z</time></trkpt><trkpt lat="40.35568583137658" lon="9.659952911998213"><ele>126.0</ele><time>2026-04-04T09:34:03Z</time></trkpt><trkpt lat="40.35555877324213" lon="9.660084175890166"><ele>126.0</ele><time>2026-04-04T09:34:04Z</time></trkpt><trkpt lat="40.355430256021705" lon="9.660220336458066"><ele>126.25</ele><time>2026-04-04T09:34:05Z</time></trkpt><trkpt lat="40.35530279046998" lon="9.66029802784962"><ele>126.5</ele><time>2026-04-04T09:34:06Z</time></trkpt><trkpt lat="40.35517081786065" lon="9.660306803680944"><ele>126.75</ele><time>2026-04-04T09:34:07Z</time></trkpt><trkpt lat="40.35503598020896" lon="9.66030357457081"><ele>127.0</ele><time>2026-04-04T09:34:08Z</time></trkpt><trkpt lat="40.35489572251445" lon="9.66024964659"><ele>127.0</ele><time>2026-04-04T09:34:09Z</time></trkpt><trkpt lat="40.35474605222988" lon="9.660155849683282"><ele>127.0</ele><time>2026-04-04T09:34:10Z</time></trkpt><trkpt lat="40.35458286514902" lon="9.660044575704887"><ele>127.0</ele><time>2026-04-04T09:34:11Z</time></trkpt><trkpt lat="40.354397795879876" lon="9.659935795620884"><ele>127.33333333333334</ele><time>2026-04-04T09:34:12Z</time></trkpt><trkpt lat="40.35422931646473" lon="9.659814355826184"><ele>127.66666666666666</ele><time>2026-04-04T09:34:13Z</time></trkpt><trkpt lat="40.354049696205614" lon="9.659688087398237"><ele>128.0</ele><time>2026-04-04T09:34:14Z</time></trkpt><trkpt lat="40.35384958786901" lon="9.659552632731609"><ele>130.5</ele><time>2026-04-04T09:34:15Z</time></trkpt><trkpt lat="40.35364123341287" lon="9.659411907079965"><ele>133.0</ele><time>2026-04-04T09:34:16Z</time></trkpt><trkpt lat="40.353428941284626" lon="9.659263125717766"><ele>133.0</ele><time>2026-04-04T09:34:17Z</time></trkpt><trkpt lat="40.35322638100528" lon="9.659117634749435"><ele>133.0</ele><time>2026-04-04T09:34:18Z</time></trkpt><trkpt lat="40.35301933149933" lon="9.658971086298052"><ele>132.33333333333334</ele><time>2026-04-04T09:34:19Z</time></trkpt><trkpt lat="40.35281751049293" lon="9.6588304011768"><ele>131.66666666666666</ele><time>2026-04-04T09:34:20Z</time></trkpt><trkpt lat="40.352635544730965" lon="9.658700438013359"><ele>131.0</ele><time>2026-04-04T09:34:21Z</time></trkpt><trkpt lat="40.35248162226734" lon="9.658574580062387"><ele>131.66666666666666</ele><time>2026-04-04T09:34:22Z</time></trkpt><trkpt lat="40.352365387788765" lon="9.658412273120254"><ele>132.33333333333334</ele><time>2026-04-04T09:34:23Z</time></trkpt><trkpt lat="40.35227259500069" lon="9.658247058706065"><ele>133.0</ele><time>2026-04-04T09:34:24Z</time></trkpt><trkpt lat="40.352188015507444" lon="9.65804705385788"><ele>133.0</ele><time>2026-04-04T09:34:25Z</time></trkpt><trkpt lat="40.35208740624963" lon="9.65783226221015"><ele>133.0</ele><time>2026-04-04T09:34:26Z</time></trkpt><trkpt lat="40.35199991259386" lon="9.657586351025792"><ele>133.0</ele><time>2026-04-04T09:34:27Z</time></trkpt><trkpt lat="40.35190064186913" lon="9.657332523141697"><ele>133.66666666666669</ele><time>2026-04-04T09:34:28Z</time></trkpt><trkpt lat="40.351792700961305" lon="9.657070190337032"><ele>134.33333333333334</ele><time>2026-04-04T09:34:29Z</time></trkpt><trkpt lat="40.35170116552035" lon="9.656850393617548"><ele>135.0</ele><time>2026-04-04T09:34:30Z</time></trkpt><trkpt lat="40.351627026794745" lon="9.65669491882818"><ele>136.25</ele><time>2026-04-04T09:34:31Z</time></trkpt><trkpt lat="40.351543540408784" lon="9.656607432043469"><ele>137.5</ele><time>2026-04-04T09:34:32Z</time></trkpt><trkpt lat="40.3514350787896" lon="9.656560792675764"><ele>138.75</ele><time>2026-04-04T09:34:33Z</time></trkpt><trkpt lat="40.35130727428038" lon="9.656568070023077"><ele>140.0</ele><time>2026-04-04T09:34:34Z</time></trkpt><trkpt lat="40.3511676987094" lon="9.656633891630976"><ele>140.66666666666666</ele><time>2026-04-04T09:34:35Z</time></trkpt><trkpt lat="40.351022236388914" lon="9.656737405891649"><ele>141.33333333333334</ele><time>2026-04-04T09:34:36Z</time></trkpt><trkpt lat="40.35086192993056" lon="9.656837069922723"><ele>142.0</ele><time>2026-04-04T09:34:37Z</time></trkpt><trkpt lat="40.35072541189108" lon="9.656910513600305"><ele>142.0</ele><time>2026-04-04T09:34:38Z</time></trkpt><trkpt lat="40.35060345548766" lon="9.656933290173834"><ele>142.0</ele><time>2026-04-04T09:34:39Z</time></trkpt><trkpt lat="40.350491021670315" lon="9.656891483652082"><ele>142.0</ele><time>2026-04-04T09:34:40Z</time></trkpt><trkpt lat="40.35039494039318" lon="9.65680920142355"><ele>142.0</ele><time>2026-04-04T09:34:41Z</time></trkpt><trkpt lat="40.35031160007436" lon="9.656669371026265"><ele>141.66666666666669</ele><time>2026-04-04T09:34:42Z</time></trkpt><trkpt lat="40.3502442557765" lon="9.656476479196634"><ele>141.33333333333334</ele><time>2026-04-04T09:34:43Z</time></trkpt><trkpt lat="40.350171603334715" lon="9.656252810688551"><ele>141.0</ele><time>2026-04-04T09:34:44Z</time></trkpt><trkpt lat="40.35005861670293" lon="9.656020804565372"><ele>141.66666666666666</ele><time>2026-04-04T09:34:45Z</time></trkpt><trkpt lat="40.34992288138126" lon="9.655801598622615"><ele>142.33333333333331</ele><time>2026-04-04T09:34:46Z</time></trkpt><trkpt lat="40.34977846801685" lon="9.655588511237136"><ele>143.0</ele><time>2026-04-04T09:34:47Z</time></trkpt><trkpt lat="40.34962342597324" lon="9.655366129054007"><ele>144.33333333333331</ele><time>2026-04-04T09:34:48Z</time></trkpt><trkpt lat="40.34945077911146" lon="9.655188446788992"><ele>145.66666666666666</ele><time>2026-04-04T09:34:49Z</time></trkpt><trkpt lat="40.34925443450899" lon="9.655037936190876"><ele>147.0</ele><time>2026-04-04T09:34:50Z</time></trkpt><trkpt lat="40.34908663349845" lon="9.654873499229138"><ele>147.0</ele><time>2026-04-04T09:34:51Z</time></trkpt><trkpt lat="40.34894642529495" lon="9.654730834369717"><ele>147.0</ele><time>2026-04-04T09:34:52Z</time></trkpt><trkpt lat="40.348836336043426" lon="9.65457541771069"><ele>147.0</ele><time>2026-04-04T09:34:53Z</time></trkpt><trkpt lat="40.34875560120721" lon="9.654411176448187"><ele>146.66666666666666</ele><time>2026-04-04T09:34:54Z</time></trkpt><trkpt lat="40.34869118400201" lon="9.654218941983702"><ele>146.33333333333331</ele><time>2026-04-04T09:34:55Z</time></trkpt><trkpt lat="40.348657924000975" lon="9.654011149027337"><ele>146.0</ele><time>2026-04-04T09:34:56Z</time></trkpt><trkpt lat="40.34865344905901" lon="9.653796948861773"><ele>145.66666666666666</ele><time>2026-04-04T09:34:57Z</time></trkpt><trkpt lat="40.34868014175682" lon="9.653574842085872"><ele>145.33333333333334</ele><time>2026-04-04T09:34:58Z</time></trkpt><trkpt lat="40.348733174609876" lon="9.653358508080448"><ele>145.0</ele><time>2026-04-04T09:34:59Z</time></trkpt><trkpt lat="40.3487821718284" lon="9.65312399448837"><ele>145.0</ele><time>2026-04-04T09:35:00.001Z</time></trkpt><trkpt lat="40.348841472972154" lon="9.652920855846947"><ele>145.0</ele><time>2026-04-04T09:35:01.001Z</time></trkpt><trkpt lat="40.348873653235465" lon="9.652724042377583"><ele>145.0</ele><time>2026-04-04T09:35:02.001Z</time></trkpt><trkpt lat="40.348865602498115" lon="9.652521651871773"><ele>145.0</ele><time>2026-04-04T09:35:03.001Z</time></trkpt><trkpt lat="40.34880848846818" lon="9.652318660899962"><ele>145.0</ele><time>2026-04-04T09:35:04.001Z</time></trkpt><trkpt lat="40.34870903426947" lon="9.652113946402775"><ele>145.0</ele><time>2026-04-04T09:35:05.001Z</time></trkpt><trkpt lat="40.34858422795246" lon="9.65190188565713"><ele>149.33333333333334</ele><time>2026-04-04T09:35:06.001Z</time></trkpt><trkpt lat="40.348448225096625" lon="9.651704376624737"><ele>153.66666666666666</ele><time>2026-04-04T09:35:07.001Z</time></trkpt><trkpt lat="40.348365490550194" lon="9.65150375273724"><ele>158.0</ele><time>2026-04-04T09:35:08.001Z</time></trkpt><trkpt lat="40.348299859736976" lon="9.651320715151645"><ele>158.0</ele><time>2026-04-04T09:35:09.001Z</time></trkpt><trkpt lat="40.34826334093009" lon="9.651125567219287"><ele>158.0</ele><time>2026-04-04T09:35:10.001Z</time></trkpt><trkpt lat="40.34825456002805" lon="9.650914855820664"><ele>158.0</ele><time>2026-04-04T09:35:11.001Z</time></trkpt><trkpt lat="40.34826557562397" lon="9.650712664902468"><ele>159.0</ele><time>2026-04-04T09:35:12.001Z</time></trkpt><trkpt lat="40.34830606622793" lon="9.650522947223838"><ele>160.0</ele><time>2026-04-04T09:35:13.001Z</time></trkpt><trkpt lat="40.34837279860972" lon="9.650333502990364"><ele>161.0</ele><time>2026-04-04T09:35:14.001Z</time></trkpt><trkpt lat="40.348466507261584" lon="9.650138105354479"><ele>161.0</ele><time>2026-04-04T09:35:15.001Z</time></trkpt><trkpt lat="40.34856243510428" lon="9.64991722066745"><ele>161.0</ele><time>2026-04-04T09:35:16.001Z</time></trkpt><trkpt lat="40.34868274219348" lon="9.649693859940598"><ele>161.0</ele><time>2026-04-04T09:35:17.001Z</time></trkpt><trkpt lat="40.34880748740388" lon="9.64945141971753"><ele>164.66666666666666</ele><time>2026-04-04T09:35:18.001Z</time></trkpt><trkpt lat="40.348931006963554" lon="9.649203679044787"><ele>168.33333333333334</ele><time>2026-04-04T09:35:19.001Z</time></trkpt><trkpt lat="40.349045248622545" lon="9.648977348471801"><ele>172.0</ele><time>2026-04-04T09:35:20.001Z</time></trkpt><trkpt lat="40.34915666512385" lon="9.64875837994953"><ele>170.66666666666669</ele><time>2026-04-04T09:35:21.001Z</time></trkpt><trkpt lat="40.34926245910098" lon="9.648551836197912"><ele>169.33333333333334</ele><time>2026-04-04T09:35:22.001Z</time></trkpt><trkpt lat="40.34935964050586" lon="9.648364369317926"><ele>168.0</ele><time>2026-04-04T09:35:23.001Z</time></trkpt><trkpt lat="40.34945667849957" lon="9.648177345517123"><ele>168.0</ele><time>2026-04-04T09:35:24.001Z</time></trkpt><trkpt lat="40.34955966315215" lon="9.647981009222004"><ele>168.0</ele><time>2026-04-04T09:35:25.001Z</time></trkpt><trkpt lat="40.34965315179761" lon="9.647795818686088"><ele>168.0</ele><time>2026-04-04T09:35:26.001Z</time></trkpt><trkpt lat="40.349719905139025" lon="9.647608564986879"><ele>174.33333333333334</ele><time>2026-04-04T09:35:27.001Z</time></trkpt><trkpt lat="40.34975329015847" lon="9.647404337989743"><ele>180.66666666666669</ele><time>2026-04-04T09:35:28.001Z</time></trkpt><trkpt lat="40.349754299396686" lon="9.647173097345656"><ele>187.0</ele><time>2026-04-04T09:35:29.001Z</time></trkpt><trkpt lat="40.34974314976597" lon="9.646934438411122"><ele>187.33333333333334</ele><time>2026-04-04T09:35:30.001Z</time></trkpt><trkpt lat="40.34971690948046" lon="9.64670707427643"><ele>187.66666666666666</ele><time>2026-04-04T09:35:31.001Z</time></trkpt><trkpt lat="40.34970815996967" lon="9.646505930355774"><ele>188.0</ele><time>2026-04-04T09:35:32.001Z</time></trkpt><trkpt lat="40.34972800432081" lon="9.646313638576373"><ele>187.66666666666666</ele><time>2026-04-04T09:35:33.001Z</time></trkpt><trkpt lat="40.3497841657431" lon="9.646127635651968"><ele>187.33333333333334</ele><time>2026-04-04T09:35:34.001Z</time></trkpt><trkpt lat="40.34987992983768" lon="9.645971867164086"><ele>187.0</ele><time>2026-04-04T09:35:35.001Z</time></trkpt><trkpt lat="40.3500021905313" lon="9.64583153412689"><ele>187.0</ele><time>2026-04-04T09:35:36.001Z</time></trkpt><trkpt lat="40.350140728626876" lon="9.645675752121564"><ele>187.0</ele><time>2026-04-04T09:35:37.001Z</time></trkpt><trkpt lat="40.350302581142486" lon="9.645530127116727"><ele>187.0</ele><time>2026-04-04T09:35:38.001Z</time></trkpt><trkpt lat="40.3504699127641" lon="9.645370811618305"><ele>188.0</ele><time>2026-04-04T09:35:39.001Z</time></trkpt><trkpt lat="40.350644386878315" lon="9.64519936829134"><ele>189.0</ele><time>2026-04-04T09:35:40.001Z</time></trkpt><trkpt lat="40.350827140689006" lon="9.645018692118821"><ele>190.0</ele><time>2026-04-04T09:35:41.001Z</time></trkpt><trkpt lat="40.35101417648884" lon="9.644837170972476"><ele>190.0</ele><time>2026-04-04T09:35:42.001Z</time></trkpt><trkpt lat="40.3511893616712" lon="9.644671645756047"><ele>190.0</ele><time>2026-04-04T09:35:43.001Z</time></trkpt><trkpt lat="40.3513340940723" lon="9.644529699335218"><ele>190.0</ele><time>2026-04-04T09:35:44.001Z</time></trkpt><trkpt lat="40.35145305891337" lon="9.644414717777936"><ele>191.0</ele><time>2026-04-04T09:35:45.001Z</time></trkpt><trkpt lat="40.351539160744146" lon="9.644309025055616"><ele>192.0</ele><time>2026-04-04T09:35:46.001Z</time></trkpt><trkpt lat="40.351599125849475" lon="9.64417279808239"><ele>193.0</ele><time>2026-04-04T09:35:47.001Z</time></trkpt><trkpt lat="40.35161976923909" lon="9.644009011530418"><ele>194.0</ele><time>2026-04-04T09:35:48.001Z</time></trkpt><trkpt lat="40.351595295090625" lon="9.64381919816445"><ele>195.66666666666669</ele><time>2026-04-04T09:35:49.001Z</time></trkpt><trkpt lat="40.35153224562024" lon="9.64361151835133"><ele>197.33333333333331</ele><time>2026-04-04T09:35:50.001Z</time></trkpt><trkpt lat="40.35148947646926" lon="9.643384279284447"><ele>199.0</ele><time>2026-04-04T09:35:51.001Z</time></trkpt><trkpt lat="40.35142954653099" lon="9.643135501765814"><ele>197.66666666666666</ele><time>2026-04-04T09:35:52.001Z</time></trkpt><trkpt lat="40.351363867691674" lon="9.64286285928057"><ele>196.33333333333331</ele><time>2026-04-04T09:35:53.001Z</time></trkpt><trkpt lat="40.351294932327484" lon="9.642576698740545"><ele>195.0</ele><time>2026-04-04T09:35:54.001Z</time></trkpt><trkpt lat="40.35123051637825" lon="9.64230698122346"><ele>195.0</ele><time>2026-04-04T09:35:55.001Z</time></trkpt><trkpt lat="40.35117013277749" lon="9.642054108676922"><ele>195.0</ele><time>2026-04-04T09:35:56.001Z</time></trkpt><trkpt lat="40.35111950564404" lon="9.641836851924365"><ele>195.0</ele><time>2026-04-04T09:35:57.001Z</time></trkpt><trkpt lat="40.35108590949799" lon="9.641657912122682"><ele>195.75</ele><time>2026-04-04T09:35:58.001Z</time></trkpt><trkpt lat="40.35108251986304" lon="9.64148960577467"><ele>196.5</ele><time>2026-04-04T09:35:59.001Z</time></trkpt><trkpt lat="40.35111106148488" lon="9.641328731607617"><ele>197.25</ele><time>2026-04-04T09:36:00.001Z</time></trkpt><trkpt lat="40.35117823848948" lon="9.641192047534823"><ele>198.0</ele><time>2026-04-04T09:36:01.001Z</time></trkpt><trkpt lat="40.35127727206771" lon="9.641079410090995"><ele>200.0</ele><time>2026-04-04T09:36:02.001Z</time></trkpt><trkpt lat="40.35140997025308" lon="9.640964882109785"><ele>202.0</ele><time>2026-04-04T09:36:03.001Z</time></trkpt><trkpt lat="40.35155994351612" lon="9.640828613432305"><ele>204.0</ele><time>2026-04-04T09:36:04.001Z</time></trkpt><trkpt lat="40.351731238239736" lon="9.640695214224676"><ele>204.0</ele><time>2026-04-04T09:36:05.001Z</time></trkpt><trkpt lat="40.351913330222196" lon="9.640550803722384"><ele>204.0</ele><time>2026-04-04T09:36:06.001Z</time></trkpt><trkpt lat="40.352107425251816" lon="9.640394947902395"><ele>204.0</ele><time>2026-04-04T09:36:07.001Z</time></trkpt><trkpt lat="40.352297662734195" lon="9.64026754668202"><ele>203.0</ele><time>2026-04-04T09:36:08.001Z</time></trkpt><trkpt lat="40.352484264335324" lon="9.640119637792202"><ele>202.0</ele><time>2026-04-04T09:36:09.001Z</time></trkpt><trkpt lat="40.352657956786366" lon="9.639981528418385"><ele>201.0</ele><time>2026-04-04T09:36:10.001Z</time></trkpt><trkpt lat="40.352807179236514" lon="9.639843749239738"><ele>201.0</ele><time>2026-04-04T09:36:11.001Z</time></trkpt><trkpt lat="40.35296418532646" lon="9.639770041736547"><ele>201.0</ele><time>2026-04-04T09:36:12.001Z</time></trkpt><trkpt lat="40.35311989536502" lon="9.639688286523612"><ele>201.0</ele><time>2026-04-04T09:36:13.001Z</time></trkpt><trkpt lat="40.353287841484665" lon="9.639678229505071"><ele>204.33333333333331</ele><time>2026-04-04T09:36:14.001Z</time></trkpt><trkpt lat="40.35346864137788" lon="9.639660102471138"><ele>207.66666666666666</ele><time>2026-04-04T09:36:15.001Z</time></trkpt><trkpt lat="40.35365218657145" lon="9.639670743794031"><ele>211.0</ele><time>2026-04-04T09:36:16.001Z</time></trkpt><trkpt lat="40.35381864181338" lon="9.639665478350585"><ele>210.0</ele><time>2026-04-04T09:36:17.001Z</time></trkpt><trkpt lat="40.35396442612199" lon="9.63961088610289"><ele>209.0</ele><time>2026-04-04T09:36:18.001Z</time></trkpt><trkpt lat="40.354105704893925" lon="9.63951145807343"><ele>208.0</ele><time>2026-04-04T09:36:19.001Z</time></trkpt><trkpt lat="40.35423806536746" lon="9.639366412405066"><ele>208.0</ele><time>2026-04-04T09:36:20.001Z</time></trkpt><trkpt lat="40.354349039535094" lon="9.639187694329008"><ele>208.0</ele><time>2026-04-04T09:36:21.001Z</time></trkpt><trkpt lat="40.35443951262948" lon="9.638980130459258"><ele>208.0</ele><time>2026-04-04T09:36:22.001Z</time></trkpt><trkpt lat="40.35449621952434" lon="9.63875294144328"><ele>207.66666666666666</ele><time>2026-04-04T09:36:23.001Z</time></trkpt><trkpt lat="40.354517076844125" lon="9.638529278430354"><ele>207.33333333333331</ele><time>2026-04-04T09:36:24.001Z</time></trkpt><trkpt lat="40.35450645534126" lon="9.638303202594315"><ele>207.0</ele><time>2026-04-04T09:36:25.001Z</time></trkpt><trkpt lat="40.35447141354284" lon="9.638076589885655"><ele>207.0</ele><time>2026-04-04T09:36:26.001Z</time></trkpt><trkpt lat="40.35440991389032" lon="9.63783842530012"><ele>207.0</ele><time>2026-04-04T09:36:27.001Z</time></trkpt><trkpt lat="40.35432264032677" lon="9.637576300155104"><ele>207.0</ele><time>2026-04-04T09:36:28.001Z</time></trkpt><trkpt lat="40.35424489817534" lon="9.637282339278006"><ele>207.0</ele><time>2026-04-04T09:36:29.001Z</time></trkpt><trkpt lat="40.354152086081506" lon="9.636982516474092"><ele>207.0</ele><time>2026-04-04T09:36:30.001Z</time></trkpt><trkpt lat="40.35403165747537" lon="9.636678324686935"><ele>207.0</ele><time>2026-04-04T09:36:31.001Z</time></trkpt><trkpt lat="40.353928802184306" lon="9.636352648661658"><ele>207.0</ele><time>2026-04-04T09:36:32.001Z</time></trkpt><trkpt lat="40.353838566508294" lon="9.636054555266757"><ele>209.0</ele><time>2026-04-04T09:36:33.001Z</time></trkpt><trkpt lat="40.35374740887718" lon="9.635757110128738"><ele>211.0</ele><time>2026-04-04T09:36:34.001Z</time></trkpt><trkpt lat="40.35365473759343" lon="9.635462029968938"><ele>212.0</ele><time>2026-04-04T09:36:35.001Z</time></trkpt><trkpt lat="40.353568182235605" lon="9.63518803122483"><ele>213.0</ele><time>2026-04-04T09:36:36.001Z</time></trkpt><trkpt lat="40.353489140623694" lon="9.634934397199947"><ele>214.0</ele><time>2026-04-04T09:36:37.001Z</time></trkpt><trkpt lat="40.353419608871434" lon="9.63470434342829"><ele>214.0</ele><time>2026-04-04T09:36:38.001Z</time></trkpt><trkpt lat="40.353353139299095" lon="9.634499243173158"><ele>214.0</ele><time>2026-04-04T09:36:39.001Z</time></trkpt><trkpt lat="40.35328235487512" lon="9.634328726050743"><ele>214.0</ele><time>2026-04-04T09:36:40.001Z</time></trkpt><trkpt lat="40.353192625482706" lon="9.63419384422754"><ele>215.0</ele><time>2026-04-04T09:36:41.001Z</time></trkpt><trkpt lat="40.353074250128124" lon="9.634113595381796"><ele>216.0</ele><time>2026-04-04T09:36:42.001Z</time></trkpt><trkpt lat="40.35292173295623" lon="9.634085487794549"><ele>217.0</ele><time>2026-04-04T09:36:43.001Z</time></trkpt><trkpt lat="40.352756232273364" lon="9.63408833009111"><ele>217.33333333333331</ele><time>2026-04-04T09:36:44.001Z</time></trkpt><trkpt lat="40.35257535954603" lon="9.634090144503933"><ele>217.66666666666669</ele><time>2026-04-04T09:36:45.001Z</time></trkpt><trkpt lat="40.35238657263702" lon="9.634076268581566"><ele>218.0</ele><time>2026-04-04T09:36:46.001Z</time></trkpt><trkpt lat="40.35220283805005" lon="9.634035966166081"><ele>218.0</ele><time>2026-04-04T09:36:47.001Z</time></trkpt><trkpt lat="40.35203802452064" lon="9.633964707533961"><ele>218.0</ele><time>2026-04-04T09:36:48.001Z</time></trkpt><trkpt lat="40.35187982162998" lon="9.633850211121796"><ele>218.0</ele><time>2026-04-04T09:36:49.001Z</time></trkpt><trkpt lat="40.351740037276535" lon="9.633719926644186"><ele>218.5</ele><time>2026-04-04T09:36:50.001Z</time></trkpt><trkpt lat="40.351611199778574" lon="9.633621015179875"><ele>219.0</ele><time>2026-04-04T09:36:51.001Z</time></trkpt><trkpt lat="40.35147607690878" lon="9.633579123651222"><ele>219.5</ele><time>2026-04-04T09:36:52.001Z</time></trkpt><trkpt lat="40.35132024502817" lon="9.633591100762455"><ele>220.0</ele><time>2026-04-04T09:36:53.001Z</time></trkpt><trkpt lat="40.351156851527946" lon="9.633658142301615"><ele>220.0</ele><time>2026-04-04T09:36:54.001Z</time></trkpt><trkpt lat="40.35098599708502" lon="9.633742883447898"><ele>220.0</ele><time>2026-04-04T09:36:55.001Z</time></trkpt><trkpt lat="40.35080315331794" lon="9.633821252564053"><ele>220.0</ele><time>2026-04-04T09:36:56.001Z</time></trkpt><trkpt lat="40.35060990533209" lon="9.633891727586883"><ele>220.33333333333331</ele><time>2026-04-04T09:36:57.001Z</time></trkpt><trkpt lat="40.350440596121615" lon="9.633945386253929"><ele>220.66666666666669</ele><time>2026-04-04T09:36:58.001Z</time></trkpt><trkpt lat="40.35028993476096" lon="9.633982154541998"><ele>221.0</ele><time>2026-04-04T09:36:59.001Z</time></trkpt><trkpt lat="40.350152994935414" lon="9.633979295177678"><ele>221.0</ele><time>2026-04-04T09:37:00.001Z</time></trkpt><trkpt lat="40.350020057405125" lon="9.63393189675458"><ele>221.0</ele><time>2026-04-04T09:37:01.001Z</time></trkpt><trkpt lat="40.34988846248334" lon="9.633834049742331"><ele>221.0</ele><time>2026-04-04T09:37:02.001Z</time></trkpt><trkpt lat="40.34975290326522" lon="9.633697569572414"><ele>221.33333333333334</ele><time>2026-04-04T09:37:03.001Z</time></trkpt><trkpt lat="40.34961177290961" lon="9.633534114534937"><ele>221.66666666666669</ele><time>2026-04-04T09:37:04.001Z</time></trkpt><trkpt lat="40.349458054534374" lon="9.633362226824097"><ele>222.0</ele><time>2026-04-04T09:37:05.001Z</time></trkpt><trkpt lat="40.349294674037715" lon="9.633188088818052"><ele>222.0</ele><time>2026-04-04T09:37:06.001Z</time></trkpt><trkpt lat="40.349132458549526" lon="9.633029522420612"><ele>222.0</ele><time>2026-04-04T09:37:07.001Z</time></trkpt><trkpt lat="40.34897113471351" lon="9.632907104218885"><ele>222.0</ele><time>2026-04-04T09:37:08.001Z</time></trkpt><trkpt lat="40.34879848682634" lon="9.632833988558566"><ele>222.66666666666669</ele><time>2026-04-04T09:37:09.001Z</time></trkpt><trkpt lat="40.348602972004976" lon="9.632800129133447"><ele>223.33333333333334</ele><time>2026-04-04T09:37:10.001Z</time></trkpt><trkpt lat="40.348387865218974" lon="9.632795518272419"><ele>224.0</ele><time>2026-04-04T09:37:11.001Z</time></trkpt><trkpt lat="40.34814972059086" lon="9.632810490257173"><ele>225.0</ele><time>2026-04-04T09:37:12.001Z</time></trkpt><trkpt lat="40.34790030321106" lon="9.63281199774167"><ele>226.0</ele><time>2026-04-04T09:37:13.001Z</time></trkpt><trkpt lat="40.34764951167205" lon="9.63280986518406"><ele>228.5</ele><time>2026-04-04T09:37:14.001Z</time></trkpt><trkpt lat="40.34739015503391" lon="9.632802854767544"><ele>231.0</ele><time>2026-04-04T09:37:15.001Z</time></trkpt><trkpt lat="40.3471186447333" lon="9.632798884800247"><ele>231.0</ele><time>2026-04-04T09:37:16.001Z</time></trkpt><trkpt lat="40.346860849416906" lon="9.632791571056623"><ele>231.0</ele><time>2026-04-04T09:37:17.001Z</time></trkpt><trkpt lat="40.34660851390527" lon="9.632789637190422"><ele>231.0</ele><time>2026-04-04T09:37:18.001Z</time></trkpt><trkpt lat="40.34635958712556" lon="9.632785521441988"><ele>231.0</ele><time>2026-04-04T09:37:19.001Z</time></trkpt><trkpt lat="40.34611903284567" lon="9.632784263175829"><ele>231.0</ele><time>2026-04-04T09:37:20.001Z</time></trkpt><trkpt lat="40.34589535795045" lon="9.632780660895639"><ele>231.0</ele><time>2026-04-04T09:37:21.001Z</time></trkpt><trkpt lat="40.3456856062265" lon="9.632767735558778"><ele>231.0</ele><time>2026-04-04T09:37:22.001Z</time></trkpt><trkpt lat="40.34548314042579" lon="9.632733654962093"><ele>231.66666666666669</ele><time>2026-04-04T09:37:23.001Z</time></trkpt><trkpt lat="40.345276443771326" lon="9.63266825179579"><ele>232.33333333333334</ele><time>2026-04-04T09:37:24.001Z</time></trkpt><trkpt lat="40.34506366681447" lon="9.632579624135834"><ele>233.0</ele><time>2026-04-04T09:37:25.001Z</time></trkpt><trkpt lat="40.34484243821752" lon="9.632494376927328"><ele>233.0</ele><time>2026-04-04T09:37:26.001Z</time></trkpt><trkpt lat="40.34461596287996" lon="9.63240938627067"><ele>233.0</ele><time>2026-04-04T09:37:27.001Z</time></trkpt><trkpt lat="40.34438730425316" lon="9.632326318389396"><ele>233.0</ele><time>2026-04-04T09:37:28.001Z</time></trkpt><trkpt lat="40.34416855142523" lon="9.632245979433213"><ele>233.0</ele><time>2026-04-04T09:37:29.001Z</time></trkpt><trkpt lat="40.34397376281535" lon="9.632172252523972"><ele>233.0</ele><time>2026-04-04T09:37:30.001Z</time></trkpt><trkpt lat="40.3438086891402" lon="9.632104287274373"><ele>232.75</ele><time>2026-04-04T09:37:31.001Z</time></trkpt><trkpt lat="40.34366787470113" lon="9.632037927973943"><ele>232.5</ele><time>2026-04-04T09:37:32.001Z</time></trkpt><trkpt lat="40.34355313554983" lon="9.631947071481804"><ele>232.25</ele><time>2026-04-04T09:37:33.001Z</time></trkpt><trkpt lat="40.34345839900857" lon="9.631816291418767"><ele>232.0</ele><time>2026-04-04T09:37:34.001Z</time></trkpt><trkpt lat="40.343383282246066" lon="9.631648461151308"><ele>232.66666666666666</ele><time>2026-04-04T09:37:35.001Z</time></trkpt><trkpt lat="40.34331839296825" lon="9.631439719403454"><ele>233.33333333333331</ele><time>2026-04-04T09:37:36.001Z</time></trkpt><trkpt lat="40.34324618879385" lon="9.631218663301247"><ele>234.0</ele><time>2026-04-04T09:37:37.001Z</time></trkpt><trkpt lat="40.34316298650531" lon="9.631016738296255"><ele>235.0</ele><time>2026-04-04T09:37:38.001Z</time></trkpt><trkpt lat="40.34307457209553" lon="9.630851103157815"><ele>236.0</ele><time>2026-04-04T09:37:39.001Z</time></trkpt><trkpt lat="40.34296433128036" lon="9.63071996292676"><ele>237.0</ele><time>2026-04-04T09:37:40.001Z</time></trkpt><trkpt lat="40.342822376752295" lon="9.630646580358869"><ele>237.0</ele><time>2026-04-04T09:37:41.001Z</time></trkpt><trkpt lat="40.342661072778036" lon="9.630620443095868"><ele>237.0</ele><time>2026-04-04T09:37:42.001Z</time></trkpt><trkpt lat="40.34247625653182" lon="9.63063003405063"><ele>237.0</ele><time>2026-04-04T09:37:43.001Z</time></trkpt><trkpt lat="40.3422838962564" lon="9.630662997647997"><ele>237.0</ele><time>2026-04-04T09:37:44.001Z</time></trkpt><trkpt lat="40.34211008305649" lon="9.630682938547162"><ele>237.0</ele><time>2026-04-04T09:37:45.001Z</time></trkpt><trkpt lat="40.341962834393776" lon="9.630681980408388"><ele>237.0</ele><time>2026-04-04T09:37:46.001Z</time></trkpt><trkpt lat="40.341829204705164" lon="9.630648631877621"><ele>237.0</ele><time>2026-04-04T09:37:47.001Z</time></trkpt><trkpt lat="40.341716963560465" lon="9.630557158080785"><ele>237.0</ele><time>2026-04-04T09:37:48.001Z</time></trkpt><trkpt lat="40.34162659918449" lon="9.630426808140149"><ele>237.0</ele><time>2026-04-04T09:37:49.001Z</time></trkpt><trkpt lat="40.34156575022832" lon="9.630258904847375"><ele>237.0</ele><time>2026-04-04T09:37:50.001Z</time></trkpt><trkpt lat="40.341524930453794" lon="9.630049807525406"><ele>239.0</ele><time>2026-04-04T09:37:51.001Z</time></trkpt><trkpt lat="40.34149296126389" lon="9.629820989565511"><ele>241.0</ele><time>2026-04-04T09:37:52.001Z</time></trkpt><trkpt lat="40.34145061027368" lon="9.629583863084715"><ele>243.0</ele><time>2026-04-04T09:37:53.001Z</time></trkpt><trkpt lat="40.34139582965278" lon="9.62932753462621"><ele>242.33333333333331</ele><time>2026-04-04T09:37:54.001Z</time></trkpt><trkpt lat="40.341338985476135" lon="9.629051714925263"><ele>241.66666666666666</ele><time>2026-04-04T09:37:55.001Z</time></trkpt><trkpt lat="40.34128450429196" lon="9.62878746173069"><ele>241.0</ele><time>2026-04-04T09:37:56.001Z</time></trkpt><trkpt lat="40.34122325233198" lon="9.628545760363975"><ele>241.0</ele><time>2026-04-04T09:37:57.001Z</time></trkpt><trkpt lat="40.34114070168014" lon="9.628316040265377"><ele>241.0</ele><time>2026-04-04T09:37:58.001Z</time></trkpt><trkpt lat="40.34102305977396" lon="9.628103327203473"><ele>241.0</ele><time>2026-04-04T09:37:59.001Z</time></trkpt><trkpt lat="40.340905123872616" lon="9.627906544440926"><ele>242.66666666666666</ele><time>2026-04-04T09:38:00.001Z</time></trkpt><trkpt lat="40.34080604890401" lon="9.62772737854145"><ele>244.33333333333331</ele><time>2026-04-04T09:38:01.001Z</time></trkpt><trkpt lat="40.34074728397664" lon="9.627538473757097"><ele>246.0</ele><time>2026-04-04T09:38:02.001Z</time></trkpt><trkpt lat="40.34072532057338" lon="9.627337634635587"><ele>246.0</ele><time>2026-04-04T09:38:03.001Z</time></trkpt><trkpt lat="40.34073921857616" lon="9.627126709823871"><ele>246.0</ele><time>2026-04-04T09:38:04.001Z</time></trkpt><trkpt lat="40.34077610168932" lon="9.626938902167327"><ele>246.0</ele><time>2026-04-04T09:38:05.001Z</time></trkpt><trkpt lat="40.34078017691205" lon="9.626769094157925"><ele>246.0</ele><time>2026-04-04T09:38:06.001Z</time></trkpt><trkpt lat="40.34073681698114" lon="9.626610622040904"><ele>246.66666666666669</ele><time>2026-04-04T09:38:07.001Z</time></trkpt><trkpt lat="40.340654239599424" lon="9.626456063196839"><ele>247.33333333333334</ele><time>2026-04-04T09:38:08.001Z</time></trkpt><trkpt lat="40.34052100891763" lon="9.626340275188301"><ele>248.0</ele><time>2026-04-04T09:38:09.001Z</time></trkpt><trkpt lat="40.34036213006912" lon="9.626244680617843"><ele>249.33333333333334</ele><time>2026-04-04T09:38:10.001Z</time></trkpt><trkpt lat="40.34019668323379" lon="9.626178248579688"><ele>250.66666666666669</ele><time>2026-04-04T09:38:11.001Z</time></trkpt><trkpt lat="40.34005953748593" lon="9.626092334001388"><ele>252.0</ele><time>2026-04-04T09:38:12.001Z</time></trkpt><trkpt lat="40.339946159261764" lon="9.62597112738862"><ele>252.0</ele><time>2026-04-04T09:38:13.001Z</time></trkpt><trkpt lat="40.339841532890894" lon="9.625817888393383"><ele>252.0</ele><time>2026-04-04T09:38:14.001Z</time></trkpt><trkpt lat="40.33973323813292" lon="9.625641398705426"><ele>252.0</ele><time>2026-04-04T09:38:15.001Z</time></trkpt><trkpt lat="40.33961443907079" lon="9.62545034152142"><ele>251.33333333333331</ele><time>2026-04-04T09:38:16.001Z</time></trkpt><trkpt lat="40.33949077077558" lon="9.625252833027822"><ele>250.66666666666666</ele><time>2026-04-04T09:38:17.001Z</time></trkpt><trkpt lat="40.33936082942855" lon="9.625027775166927"><ele>250.0</ele><time>2026-04-04T09:38:18.001Z</time></trkpt><trkpt lat="40.33924990160992" lon="9.624804274160947"><ele>250.0</ele><time>2026-04-04T09:38:19.001Z</time></trkpt><trkpt lat="40.339160376775276" lon="9.62459831156037"><ele>250.0</ele><time>2026-04-04T09:38:20.001Z</time></trkpt><trkpt lat="40.33907323420372" lon="9.624404648924632"><ele>250.0</ele><time>2026-04-04T09:38:21.001Z</time></trkpt><trkpt lat="40.338987511701255" lon="9.624219771404585"><ele>251.66666666666666</ele><time>2026-04-04T09:38:22.001Z</time></trkpt><trkpt lat="40.33890366682156" lon="9.624035797801062"><ele>253.33333333333331</ele><time>2026-04-04T09:38:23.001Z</time></trkpt><trkpt lat="40.33882379700046" lon="9.623850520844645"><ele>255.0</ele><time>2026-04-04T09:38:24.001Z</time></trkpt><trkpt lat="40.3387612060451" lon="9.623658953194676"><ele>251.66666666666669</ele><time>2026-04-04T09:38:25.001Z</time></trkpt><trkpt lat="40.33872588228084" lon="9.62345001087927"><ele>248.33333333333334</ele><time>2026-04-04T09:38:26.001Z</time></trkpt><trkpt lat="40.33871576605077" lon="9.623226366818729"><ele>245.0</ele><time>2026-04-04T09:38:27.001Z</time></trkpt><trkpt lat="40.33872831725402" lon="9.62301840960337"><ele>245.0</ele><time>2026-04-04T09:38:28.001Z</time></trkpt><trkpt lat="40.338742455270456" lon="9.622832012942219"><ele>245.0</ele><time>2026-04-04T09:38:29.001Z</time></trkpt><trkpt lat="40.338740521033834" lon="9.62266216533929"><ele>245.0</ele><time>2026-04-04T09:38:30.001Z</time></trkpt><trkpt lat="40.3387079209054" lon="9.622512137656718"><ele>245.0</ele><time>2026-04-04T09:38:31.001Z</time></trkpt><trkpt lat="40.33863581470337" lon="9.622390610430314"><ele>246.5</ele><time>2026-04-04T09:38:32.001Z</time></trkpt><trkpt lat="40.33852535413169" lon="9.622294112601521"><ele>248.0</ele><time>2026-04-04T09:38:33.001Z</time></trkpt><trkpt lat="40.33838501944542" lon="9.622238669998811"><ele>249.5</ele><time>2026-04-04T09:38:34.001Z</time></trkpt><trkpt lat="40.33823997331874" lon="9.622209046699199"><ele>251.0</ele><time>2026-04-04T09:38:35.001Z</time></trkpt><trkpt lat="40.33811712219348" lon="9.622163353418404"><ele>250.5</ele><time>2026-04-04T09:38:36.001Z</time></trkpt><trkpt lat="40.338025292501385" lon="9.622062717363265"><ele>250.0</ele><time>2026-04-04T09:38:37.001Z</time></trkpt><trkpt lat="40.33795243925521" lon="9.621912385137216"><ele>249.5</ele><time>2026-04-04T09:38:38.001Z</time></trkpt><trkpt lat="40.337903848909356" lon="9.62172700069485"><ele>249.0</ele><time>2026-04-04T09:38:39.001Z</time></trkpt><trkpt lat="40.33787392924454" lon="9.62152059705121"><ele>249.0</ele><time>2026-04-04T09:38:40.001Z</time></trkpt><trkpt lat="40.337843549425756" lon="9.621317742401287"><ele>249.0</ele><time>2026-04-04T09:38:41.001Z</time></trkpt><trkpt lat="40.33780745817896" lon="9.621139472377966"><ele>249.0</ele><time>2026-04-04T09:38:42.001Z</time></trkpt><trkpt lat="40.33776789421746" lon="9.620963678115674"><ele>249.0</ele><time>2026-04-04T09:38:43.001Z</time></trkpt><trkpt lat="40.33772645049864" lon="9.620780741593775"><ele>250.0</ele><time>2026-04-04T09:38:44.001Z</time></trkpt><trkpt lat="40.33768476994751" lon="9.62058493582375"><ele>251.0</ele><time>2026-04-04T09:38:45.001Z</time></trkpt><trkpt lat="40.33764443694984" lon="9.620381502259022"><ele>252.0</ele><time>2026-04-04T09:38:46.001Z</time></trkpt><trkpt lat="40.33760324150119" lon="9.620161069106791"><ele>252.66666666666669</ele><time>2026-04-04T09:38:47.001Z</time></trkpt><trkpt lat="40.33756448167188" lon="9.619948290335124"><ele>253.33333333333334</ele><time>2026-04-04T09:38:48.001Z</time></trkpt><trkpt lat="40.33753626307198" lon="9.619749354678955"><ele>254.0</ele><time>2026-04-04T09:38:49.001Z</time></trkpt><trkpt lat="40.33752734678354" lon="9.619560974978269"><ele>253.33333333333334</ele><time>2026-04-04T09:38:50.001Z</time></trkpt><trkpt lat="40.33753397676329" lon="9.619355598762755"><ele>252.66666666666669</ele><time>2026-04-04T09:38:51.001Z</time></trkpt><trkpt lat="40.337558696989525" lon="9.619139248603977"><ele>252.0</ele><time>2026-04-04T09:38:52.001Z</time></trkpt><trkpt lat="40.33759854657748" lon="9.618882088619474"><ele>251.0</ele><time>2026-04-04T09:38:53.001Z</time></trkpt><trkpt lat="40.3376550155782" lon="9.618607922264049"><ele>250.0</ele><time>2026-04-04T09:38:54.001Z</time></trkpt><trkpt lat="40.33771666129968" lon="9.61830669868584"><ele>250.0</ele><time>2026-04-04T09:38:55.001Z</time></trkpt><trkpt lat="40.33777862478212" lon="9.618002815216178"><ele>250.0</ele><time>2026-04-04T09:38:56.001Z</time></trkpt><trkpt lat="40.33784431345512" lon="9.617733382967232"><ele>249.0</ele><time>2026-04-04T09:38:57.001Z</time></trkpt><trkpt lat="40.33790125468977" lon="9.617485483023415"><ele>248.0</ele><time>2026-04-04T09:38:58.001Z</time></trkpt><trkpt lat="40.33795100749588" lon="9.617241596125293"><ele>247.0</ele><time>2026-04-04T09:38:59.001Z</time></trkpt><trkpt lat="40.33799772115845" lon="9.616968773435415"><ele>244.5</ele><time>2026-04-04T09:39:00.001Z</time></trkpt><trkpt lat="40.33805041358388" lon="9.616656875057076"><ele>242.0</ele><time>2026-04-04T09:39:01.001Z</time></trkpt><trkpt lat="40.338119521960145" lon="9.616331518646946"><ele>246.5</ele><time>2026-04-04T09:39:02.001Z</time></trkpt><trkpt lat="40.33820081020743" lon="9.615987394409823"><ele>251.0</ele><time>2026-04-04T09:39:03.001Z</time></trkpt><trkpt lat="40.33828143846768" lon="9.615621255499734"><ele>249.0</ele><time>2026-04-04T09:39:04.001Z</time></trkpt><trkpt lat="40.338357404179305" lon="9.615240992422725"><ele>247.0</ele><time>2026-04-04T09:39:05.001Z</time></trkpt><trkpt lat="40.33842907542349" lon="9.614878048983172"><ele>247.0</ele><time>2026-04-04T09:39:06.001Z</time></trkpt><trkpt lat="40.33852665367198" lon="9.614523172205141"><ele>247.0</ele><time>2026-04-04T09:39:07.001Z</time></trkpt><trkpt lat="40.33859852098397" lon="9.614163426735445"><ele>245.0</ele><time>2026-04-04T09:39:08.001Z</time></trkpt><trkpt lat="40.338670634625664" lon="9.613806671517137"><ele>243.0</ele><time>2026-04-04T09:39:09.001Z</time></trkpt><trkpt lat="40.33874189035456" lon="9.61346195196129"><ele>243.0</ele><time>2026-04-04T09:39:10.001Z</time></trkpt><trkpt lat="40.33880705344117" lon="9.61314687818039"><ele>243.0</ele><time>2026-04-04T09:39:11.001Z</time></trkpt><trkpt lat="40.338874773763386" lon="9.612819704592045"><ele>245.0</ele><time>2026-04-04T09:39:12.001Z</time></trkpt><trkpt lat="40.33893980593266" lon="9.612498932891091"><ele>247.0</ele><time>2026-04-04T09:39:13.001Z</time></trkpt><trkpt lat="40.3390002784839" lon="9.612204031072674"><ele>245.33333333333331</ele><time>2026-04-04T09:39:14.001Z</time></trkpt><trkpt lat="40.33905162801172" lon="9.611950038489375"><ele>243.66666666666669</ele><time>2026-04-04T09:39:15.001Z</time></trkpt><trkpt lat="40.33910139771811" lon="9.611724653987425"><ele>242.0</ele><time>2026-04-04T09:39:16.001Z</time></trkpt><trkpt lat="40.339129131369276" lon="9.61154932943651"><ele>242.0</ele><time>2026-04-04T09:39:17.001Z</time></trkpt><trkpt lat="40.33911036517628" lon="9.611393919465678"><ele>242.0</ele><time>2026-04-04T09:39:18.001Z</time></trkpt><trkpt lat="40.33907761979663" lon="9.611236263020924"><ele>242.0</ele><time>2026-04-04T09:39:19.001Z</time></trkpt><trkpt lat="40.33902246773124" lon="9.611079990947305"><ele>242.0</ele><time>2026-04-04T09:39:20.001Z</time></trkpt><trkpt lat="40.33889058776299" lon="9.610966395526562"><ele>241.33333333333334</ele><time>2026-04-04T09:39:21.001Z</time></trkpt><trkpt lat="40.33873325936521" lon="9.610862376672545"><ele>240.66666666666669</ele><time>2026-04-04T09:39:22.001Z</time></trkpt><trkpt lat="40.338564035518004" lon="9.610719551340596"><ele>240.0</ele><time>2026-04-04T09:39:23.001Z</time></trkpt><trkpt lat="40.33837490087535" lon="9.610571260368847"><ele>240.0</ele><time>2026-04-04T09:39:24.001Z</time></trkpt><trkpt lat="40.33818848826195" lon="9.610398909710746"><ele>240.0</ele><time>2026-04-04T09:39:25.001Z</time></trkpt><trkpt lat="40.338031112027046" lon="9.610216580732546"><ele>240.0</ele><time>2026-04-04T09:39:26.001Z</time></trkpt><trkpt lat="40.33788956737237" lon="9.609992103018529"><ele>240.5</ele><time>2026-04-04T09:39:27.001Z</time></trkpt><trkpt lat="40.33774104477588" lon="9.609730036485734"><ele>241.0</ele><time>2026-04-04T09:39:28.001Z</time></trkpt><trkpt lat="40.33758056571766" lon="9.609447026050464"><ele>241.0</ele><time>2026-04-04T09:39:29.001Z</time></trkpt><trkpt lat="40.337412132073155" lon="9.609147627021168"><ele>241.0</ele><time>2026-04-04T09:39:30.001Z</time></trkpt><trkpt lat="40.337243352220774" lon="9.608849281111368"><ele>238.0</ele><time>2026-04-04T09:39:31.001Z</time></trkpt><trkpt lat="40.33707642474716" lon="9.608555383540361"><ele>235.0</ele><time>2026-04-04T09:39:32.001Z</time></trkpt><trkpt lat="40.33690732353201" lon="9.608254965455634"><ele>235.0</ele><time>2026-04-04T09:39:33.001Z</time></trkpt><trkpt lat="40.336734421650036" lon="9.607946507121063"><ele>235.0</ele><time>2026-04-04T09:39:34.001Z</time></trkpt><trkpt lat="40.336566420517364" lon="9.607648505970559"><ele>235.66666666666666</ele><time>2026-04-04T09:39:35.001Z</time></trkpt><trkpt lat="40.336418440798944" lon="9.607387354927365"><ele>236.33333333333331</ele><time>2026-04-04T09:39:36.001Z</time></trkpt><trkpt lat="40.336299415674844" lon="9.607177536918106"><ele>237.0</ele><time>2026-04-04T09:39:37.001Z</time></trkpt><trkpt lat="40.33619914766385" lon="9.606994396472768"><ele>236.0</ele><time>2026-04-04T09:39:38.001Z</time></trkpt><trkpt lat="40.33611707091518" lon="9.606815444620262"><ele>235.0</ele><time>2026-04-04T09:39:39.001Z</time></trkpt><trkpt lat="40.336066589744846" lon="9.606614117702996"><ele>234.0</ele><time>2026-04-04T09:39:40.001Z</time></trkpt><trkpt lat="40.336043168295994" lon="9.606388147958627"><ele>233.66666666666669</ele><time>2026-04-04T09:39:41.001Z</time></trkpt><trkpt lat="40.33604766042465" lon="9.606116690300132"><ele>233.33333333333334</ele><time>2026-04-04T09:39:42.001Z</time></trkpt><trkpt lat="40.33605514317345" lon="9.605813893895675"><ele>233.0</ele><time>2026-04-04T09:39:43.001Z</time></trkpt><trkpt lat="40.336047335470944" lon="9.605488504850056"><ele>232.5</ele><time>2026-04-04T09:39:44.001Z</time></trkpt><trkpt lat="40.33605878048781" lon="9.605146908929374"><ele>232.0</ele><time>2026-04-04T09:39:45.001Z</time></trkpt><trkpt lat="40.33606752971305" lon="9.604817053014557"><ele>231.5</ele><time>2026-04-04T09:39:46.001Z</time></trkpt><trkpt lat="40.33607537647589" lon="9.604478966121823"><ele>231.0</ele><time>2026-04-04T09:39:47.001Z</time></trkpt><trkpt lat="40.33608021198022" lon="9.604144730625352"><ele>231.0</ele><time>2026-04-04T09:39:48.001Z</time></trkpt><trkpt lat="40.3360944312171" lon="9.603836765623072"><ele>231.0</ele><time>2026-04-04T09:39:49.001Z</time></trkpt><trkpt lat="40.336075374592646" lon="9.60351793981112"><ele>230.5</ele><time>2026-04-04T09:39:50.001Z</time></trkpt><trkpt lat="40.3360089744505" lon="9.603193095139446"><ele>230.0</ele><time>2026-04-04T09:39:51.001Z</time></trkpt><trkpt lat="40.33596010559267" lon="9.602837993052166"><ele>229.5</ele><time>2026-04-04T09:39:52.001Z</time></trkpt><trkpt lat="40.33589242213725" lon="9.602482840268983"><ele>229.0</ele><time>2026-04-04T09:39:53.001Z</time></trkpt><trkpt lat="40.335825787435596" lon="9.602133190672182"><ele>229.0</ele><time>2026-04-04T09:39:54.001Z</time></trkpt><trkpt lat="40.335765993687176" lon="9.601819437529446"><ele>229.0</ele><time>2026-04-04T09:39:55.001Z</time></trkpt><trkpt lat="40.33571297394744" lon="9.60154122935399"><ele>229.0</ele><time>2026-04-04T09:39:56.001Z</time></trkpt><trkpt lat="40.335663302807966" lon="9.601285577180967"><ele>229.0</ele><time>2026-04-04T09:39:57.001Z</time></trkpt><trkpt lat="40.335594640410406" lon="9.601062924732357"><ele>229.0</ele><time>2026-04-04T09:39:58.001Z</time></trkpt><trkpt lat="40.33552397238787" lon="9.600874249935085"><ele>228.0</ele><time>2026-04-04T09:39:59.001Z</time></trkpt><trkpt lat="40.33542144049331" lon="9.600691044789142"><ele>227.0</ele><time>2026-04-04T09:40:00.001Z</time></trkpt><trkpt lat="40.33526948887589" lon="9.600523033042494"><ele>226.0</ele><time>2026-04-04T09:40:01.001Z</time></trkpt><trkpt lat="40.33508411498783" lon="9.600366201380503"><ele>226.0</ele><time>2026-04-04T09:40:02.001Z</time></trkpt><trkpt lat="40.33487453919141" lon="9.60019840026459"><ele>226.0</ele><time>2026-04-04T09:40:03.001Z</time></trkpt><trkpt lat="40.3346492857056" lon="9.600009561176684"><ele>223.5</ele><time>2026-04-04T09:40:04.001Z</time></trkpt><trkpt lat="40.33442533749632" lon="9.599815532869385"><ele>221.0</ele><time>2026-04-04T09:40:05.001Z</time></trkpt><trkpt lat="40.334200304750034" lon="9.599615511669862"><ele>221.5</ele><time>2026-04-04T09:40:06.001Z</time></trkpt><trkpt lat="40.333964821414625" lon="9.5994048273832"><ele>222.0</ele><time>2026-04-04T09:40:07.001Z</time></trkpt><trkpt lat="40.3337194033569" lon="9.599187141129468"><ele>219.0</ele><time>2026-04-04T09:40:08.001Z</time></trkpt><trkpt lat="40.333483049273504" lon="9.59897940469719"><ele>216.0</ele><time>2026-04-04T09:40:09.001Z</time></trkpt><trkpt lat="40.333275094217086" lon="9.598796163813391"><ele>216.0</ele><time>2026-04-04T09:40:10.001Z</time></trkpt><trkpt lat="40.33308998929466" lon="9.598630623308805"><ele>216.0</ele><time>2026-04-04T09:40:11.001Z</time></trkpt><trkpt lat="40.3329177010692" lon="9.598485406914941"><ele>216.0</ele><time>2026-04-04T09:40:12.001Z</time></trkpt><trkpt lat="40.332733801888736" lon="9.598370370392002"><ele>215.5</ele><time>2026-04-04T09:40:13.001Z</time></trkpt><trkpt lat="40.33252512445974" lon="9.59828877944485"><ele>215.0</ele><time>2026-04-04T09:40:14.001Z</time></trkpt><trkpt lat="40.332285509329466" lon="9.598251497136374"><ele>216.0</ele><time>2026-04-04T09:40:15.001Z</time></trkpt><trkpt lat="40.33202793738496" lon="9.598227444563852"><ele>217.0</ele><time>2026-04-04T09:40:16.001Z</time></trkpt><trkpt lat="40.33176292386277" lon="9.598199556988074"><ele>217.0</ele><time>2026-04-04T09:40:17.001Z</time></trkpt><trkpt lat="40.331493474327154" lon="9.598157480376177"><ele>217.0</ele><time>2026-04-04T09:40:18.001Z</time></trkpt><trkpt lat="40.33123584368234" lon="9.598108682978653"><ele>218.5</ele><time>2026-04-04T09:40:19.001Z</time></trkpt><trkpt lat="40.33098821687217" lon="9.598022710478224"><ele>220.0</ele><time>2026-04-04T09:40:20.001Z</time></trkpt><trkpt lat="40.33073444614573" lon="9.597901201330886"><ele>221.5</ele><time>2026-04-04T09:40:21.001Z</time></trkpt><trkpt lat="40.33046788734579" lon="9.597753271627896"><ele>223.0</ele><time>2026-04-04T09:40:22.001Z</time></trkpt><trkpt lat="40.330190762587335" lon="9.597608429078791"><ele>223.0</ele><time>2026-04-04T09:40:23.001Z</time></trkpt><trkpt lat="40.32992599153288" lon="9.597476791244787"><ele>223.0</ele><time>2026-04-04T09:40:24.001Z</time></trkpt><trkpt lat="40.329662074083664" lon="9.597351211280694"><ele>225.5</ele><time>2026-04-04T09:40:25.001Z</time></trkpt><trkpt lat="40.3294006644991" lon="9.59722512084747"><ele>228.0</ele><time>2026-04-04T09:40:26.001Z</time></trkpt><trkpt lat="40.32913795904189" lon="9.597094758948725"><ele>230.5</ele><time>2026-04-04T09:40:27.001Z</time></trkpt><trkpt lat="40.32887953358189" lon="9.596961725334024"><ele>233.0</ele><time>2026-04-04T09:40:28.001Z</time></trkpt><trkpt lat="40.3286279520119" lon="9.596833910307673"><ele>233.0</ele><time>2026-04-04T09:40:29.001Z</time></trkpt><trkpt lat="40.3283947247788" lon="9.59671549869238"><ele>233.0</ele><time>2026-04-04T09:40:30.001Z</time></trkpt><trkpt lat="40.32815957877395" lon="9.59659895005678"><ele>234.0</ele><time>2026-04-04T09:40:31.001Z</time></trkpt><trkpt lat="40.32792875511955" lon="9.596484234345434"><ele>235.0</ele><time>2026-04-04T09:40:32.001Z</time></trkpt><trkpt lat="40.32770108640099" lon="9.596369461181919"><ele>235.0</ele><time>2026-04-04T09:40:33.001Z</time></trkpt><trkpt lat="40.32747397030218" lon="9.596249113738489"><ele>235.0</ele><time>2026-04-04T09:40:34.001Z</time></trkpt><trkpt lat="40.32725336764821" lon="9.596133490240076"><ele>237.5</ele><time>2026-04-04T09:40:35.001Z</time></trkpt><trkpt lat="40.32702614106786" lon="9.596019390468339"><ele>240.0</ele><time>2026-04-04T09:40:36.001Z</time></trkpt><trkpt lat="40.326803425238055" lon="9.595909035000274"><ele>240.0</ele><time>2026-04-04T09:40:37.001Z</time></trkpt><trkpt lat="40.32658307680724" lon="9.59579918481941"><ele>240.0</ele><time>2026-04-04T09:40:38.001Z</time></trkpt><trkpt lat="40.32636253438831" lon="9.595687213283005"><ele>242.0</ele><time>2026-04-04T09:40:39.001Z</time></trkpt><trkpt lat="40.32614199731745" lon="9.595580010806305"><ele>244.0</ele><time>2026-04-04T09:40:40.001Z</time></trkpt><trkpt lat="40.32592043933692" lon="9.59547249096497"><ele>244.0</ele><time>2026-04-04T09:40:41.001Z</time></trkpt><trkpt lat="40.3256915187076" lon="9.595356419740265"><ele>244.0</ele><time>2026-04-04T09:40:42.001Z</time></trkpt><trkpt lat="40.325459569435196" lon="9.595237559149073"><ele>245.0</ele><time>2026-04-04T09:40:43.001Z</time></trkpt><trkpt lat="40.32522338387102" lon="9.595119978506446"><ele>246.0</ele><time>2026-04-04T09:40:44.001Z</time></trkpt><trkpt lat="40.32498369792551" lon="9.594998076690995"><ele>246.0</ele><time>2026-04-04T09:40:45.001Z</time></trkpt><trkpt lat="40.32474118820603" lon="9.594875514278975"><ele>246.0</ele><time>2026-04-04T09:40:46.001Z</time></trkpt><trkpt lat="40.324496623462274" lon="9.594750235768206"><ele>245.5</ele><time>2026-04-04T09:40:47.001Z</time></trkpt><trkpt lat="40.32425712588213" lon="9.594628165566093"><ele>245.0</ele><time>2026-04-04T09:40:48.001Z</time></trkpt><trkpt lat="40.32403550786325" lon="9.594518536160471"><ele>246.66666666666669</ele><time>2026-04-04T09:40:49.001Z</time></trkpt><trkpt lat="40.32382984413509" lon="9.594418445673238"><ele>248.33333333333331</ele><time>2026-04-04T09:40:50.001Z</time></trkpt><trkpt lat="40.3236364400449" lon="9.594319784529906"><ele>250.0</ele><time>2026-04-04T09:40:51.001Z</time></trkpt><trkpt lat="40.323455911371404" lon="9.594227935618498"><ele>250.0</ele><time>2026-04-04T09:40:52.001Z</time></trkpt><trkpt lat="40.32329400273797" lon="9.594131356291067"><ele>250.0</ele><time>2026-04-04T09:40:53.001Z</time></trkpt><trkpt lat="40.32313767758495" lon="9.594008605149604"><ele>250.0</ele><time>2026-04-04T09:40:54.001Z</time></trkpt><trkpt lat="40.32298018414987" lon="9.593840809430565"><ele>250.0</ele><time>2026-04-04T09:40:55.001Z</time></trkpt><trkpt lat="40.322836028448535" lon="9.593651349041545"><ele>250.0</ele><time>2026-04-04T09:40:56.001Z</time></trkpt><trkpt lat="40.32269887114478" lon="9.593430441899953"><ele>250.0</ele><time>2026-04-04T09:40:57.001Z</time></trkpt><trkpt lat="40.32257661563974" lon="9.593189354906578"><ele>250.0</ele><time>2026-04-04T09:40:58.001Z</time></trkpt><trkpt lat="40.322462456626525" lon="9.592918749083363"><ele>250.0</ele><time>2026-04-04T09:40:59.001Z</time></trkpt><trkpt lat="40.322351097518634" lon="9.592628361166687"><ele>250.0</ele><time>2026-04-04T09:41:00.001Z</time></trkpt><trkpt lat="40.32223255242922" lon="9.592331576523172"><ele>250.0</ele><time>2026-04-04T09:41:01.001Z</time></trkpt><trkpt lat="40.32211691814237" lon="9.592046424827258"><ele>252.5</ele><time>2026-04-04T09:41:02.001Z</time></trkpt><trkpt lat="40.32201684610299" lon="9.591754406361186"><ele>255.0</ele><time>2026-04-04T09:41:03.001Z</time></trkpt><trkpt lat="40.32188839307653" lon="9.591478071252766"><ele>255.0</ele><time>2026-04-04T09:41:04.001Z</time></trkpt><trkpt lat="40.321751295944296" lon="9.59121722711899"><ele>255.0</ele><time>2026-04-04T09:41:05.001Z</time></trkpt><trkpt lat="40.32159900169632" lon="9.590971359959592"><ele>255.5</ele><time>2026-04-04T09:41:06.001Z</time></trkpt><trkpt lat="40.3214300487644" lon="9.590739749054066"><ele>256.0</ele><time>2026-04-04T09:41:07.001Z</time></trkpt><trkpt lat="40.32124431490906" lon="9.590525208962259"><ele>256.5</ele><time>2026-04-04T09:41:08.001Z</time></trkpt><trkpt lat="40.32105065636959" lon="9.590304235853267"><ele>257.0</ele><time>2026-04-04T09:41:09.001Z</time></trkpt><trkpt lat="40.320868041176155" lon="9.590093852526964"><ele>257.0</ele><time>2026-04-04T09:41:10.001Z</time></trkpt><trkpt lat="40.32070157335547" lon="9.589903131622117"><ele>257.0</ele><time>2026-04-04T09:41:11.001Z</time></trkpt><trkpt lat="40.32055734358055" lon="9.589721951335713"><ele>257.0</ele><time>2026-04-04T09:41:12.001Z</time></trkpt><trkpt lat="40.32043246118748" lon="9.589527314327244"><ele>257.0</ele><time>2026-04-04T09:41:13.001Z</time></trkpt><trkpt lat="40.320322691114505" lon="9.589292011474345"><ele>257.0</ele><time>2026-04-04T09:41:14.001Z</time></trkpt><trkpt lat="40.32022793957085" lon="9.589029086694493"><ele>257.0</ele><time>2026-04-04T09:41:15.001Z</time></trkpt><trkpt lat="40.32013814421384" lon="9.588742412840553"><ele>257.33333333333337</ele><time>2026-04-04T09:41:16.001Z</time></trkpt><trkpt lat="40.3200526736698" lon="9.588454916634282"><ele>257.6666666666667</ele><time>2026-04-04T09:41:17.001Z</time></trkpt><trkpt lat="40.319989265797915" lon="9.588194891614638"><ele>258.0</ele><time>2026-04-04T09:41:18.001Z</time></trkpt><trkpt lat="40.31995373569076" lon="9.587935952502821"><ele>258.0</ele><time>2026-04-04T09:41:19.001Z</time></trkpt><trkpt lat="40.31994706953877" lon="9.587664273626952"><ele>258.0</ele><time>2026-04-04T09:41:20.001Z</time></trkpt><trkpt lat="40.31995612019065" lon="9.587398147511593"><ele>258.0</ele><time>2026-04-04T09:41:21.001Z</time></trkpt><trkpt lat="40.31996710649718" lon="9.587152031616009"><ele>258.0</ele><time>2026-04-04T09:41:22.001Z</time></trkpt><trkpt lat="40.3199552720541" lon="9.58691205555542"><ele>258.0</ele><time>2026-04-04T09:41:23.001Z</time></trkpt><trkpt lat="40.31991869197657" lon="9.586665431961361"><ele>258.0</ele><time>2026-04-04T09:41:24.001Z</time></trkpt><trkpt lat="40.31983775833689" lon="9.586415537868548"><ele>258.0</ele><time>2026-04-04T09:41:25.001Z</time></trkpt><trkpt lat="40.319752192556116" lon="9.586186486795858"><ele>258.0</ele><time>2026-04-04T09:41:26.001Z</time></trkpt><trkpt lat="40.319637288326106" lon="9.585982603917099"><ele>258.0</ele><time>2026-04-04T09:41:27.001Z</time></trkpt><trkpt lat="40.31950243740178" lon="9.5858314946913"><ele>257.0</ele><time>2026-04-04T09:41:28.001Z</time></trkpt><trkpt lat="40.31935405908224" lon="9.585736952236507"><ele>256.0</ele><time>2026-04-04T09:41:29.001Z</time></trkpt><trkpt lat="40.31918407700897" lon="9.585679247165697"><ele>255.0</ele><time>2026-04-04T09:41:30.001Z</time></trkpt><trkpt lat="40.31898798343856" lon="9.585614187439882"><ele>253.66666666666669</ele><time>2026-04-04T09:41:31.001Z</time></trkpt><trkpt lat="40.318783270907964" lon="9.585567042228405"><ele>252.33333333333334</ele><time>2026-04-04T09:41:32.001Z</time></trkpt><trkpt lat="40.31860112397629" lon="9.585525595380052"><ele>251.0</ele><time>2026-04-04T09:41:33.001Z</time></trkpt><trkpt lat="40.318444637780274" lon="9.58547949349871"><ele>251.0</ele><time>2026-04-04T09:41:34.001Z</time></trkpt><trkpt lat="40.31830685293055" lon="9.585395849709546"><ele>251.0</ele><time>2026-04-04T09:41:35.001Z</time></trkpt><trkpt lat="40.31818163385628" lon="9.585284922791557"><ele>251.0</ele><time>2026-04-04T09:41:36.001Z</time></trkpt><trkpt lat="40.318069290133444" lon="9.585132093731767"><ele>250.0</ele><time>2026-04-04T09:41:37.001Z</time></trkpt><trkpt lat="40.31797309138107" lon="9.584929309368825"><ele>249.0</ele><time>2026-04-04T09:41:38.001Z</time></trkpt><trkpt lat="40.31787345545651" lon="9.58471630967799"><ele>248.0</ele><time>2026-04-04T09:41:39.001Z</time></trkpt><trkpt lat="40.3177767145048" lon="9.584500700613528"><ele>247.33333333333334</ele><time>2026-04-04T09:41:40.001Z</time></trkpt><trkpt lat="40.317684904060194" lon="9.58426192121906"><ele>246.66666666666669</ele><time>2026-04-04T09:41:41.001Z</time></trkpt><trkpt lat="40.31760650016045" lon="9.584004474886724"><ele>246.0</ele><time>2026-04-04T09:41:42.001Z</time></trkpt><trkpt lat="40.31753388797624" lon="9.583715618299966"><ele>244.5</ele><time>2026-04-04T09:41:43.001Z</time></trkpt><trkpt lat="40.31747223783903" lon="9.583409542081991"><ele>243.0</ele><time>2026-04-04T09:41:44.001Z</time></trkpt><trkpt lat="40.31741211606873" lon="9.583119346187521"><ele>243.0</ele><time>2026-04-04T09:41:45.001Z</time></trkpt><trkpt lat="40.31735687908152" lon="9.58285056418517"><ele>243.0</ele><time>2026-04-04T09:41:46.001Z</time></trkpt><trkpt lat="40.31730694223831" lon="9.582611295038062"><ele>243.0</ele><time>2026-04-04T09:41:47.001Z</time></trkpt><trkpt lat="40.317225661329324" lon="9.582429426323317"><ele>242.0</ele><time>2026-04-04T09:41:48.001Z</time></trkpt><trkpt lat="40.317140706685436" lon="9.58226304611702"><ele>241.0</ele><time>2026-04-04T09:41:49.001Z</time></trkpt><trkpt lat="40.317013721154844" lon="9.582124068588756"><ele>240.0</ele><time>2026-04-04T09:41:50.001Z</time></trkpt><trkpt lat="40.31686220124903" lon="9.582011224895183"><ele>240.0</ele><time>2026-04-04T09:41:51.001Z</time></trkpt><trkpt lat="40.31672265077371" lon="9.581867701660347"><ele>240.0</ele><time>2026-04-04T09:41:52.001Z</time></trkpt><trkpt lat="40.31660891919598" lon="9.581719180606736"><ele>240.0</ele><time>2026-04-04T09:41:53.001Z</time></trkpt><trkpt lat="40.31651894706861" lon="9.58151318184751"><ele>240.0</ele><time>2026-04-04T09:41:54.001Z</time></trkpt><trkpt lat="40.31641462545834" lon="9.581278510416018"><ele>240.0</ele><time>2026-04-04T09:41:55.001Z</time></trkpt><trkpt lat="40.31630413584436" lon="9.58102690120973"><ele>240.0</ele><time>2026-04-04T09:41:56.001Z</time></trkpt><trkpt lat="40.31618462058977" lon="9.580754738240406"><ele>240.0</ele><time>2026-04-04T09:41:57.001Z</time></trkpt><trkpt lat="40.31605779671257" lon="9.580463113107712"><ele>240.0</ele><time>2026-04-04T09:41:58.001Z</time></trkpt><trkpt lat="40.31593647803597" lon="9.580177730751279"><ele>240.0</ele><time>2026-04-04T09:41:59.001Z</time></trkpt><trkpt lat="40.31581719986696" lon="9.579901332406802"><ele>240.0</ele><time>2026-04-04T09:42:00.001Z</time></trkpt><trkpt lat="40.31569620769194" lon="9.579621527887648"><ele>240.5</ele><time>2026-04-04T09:42:01.001Z</time></trkpt><trkpt lat="40.31557416560469" lon="9.579336888566564"><ele>241.0</ele><time>2026-04-04T09:42:02.001Z</time></trkpt><trkpt lat="40.31547075837506" lon="9.579071235182964"><ele>242.33333333333331</ele><time>2026-04-04T09:42:03.001Z</time></trkpt><trkpt lat="40.31538550001173" lon="9.57880789911072"><ele>243.66666666666669</ele><time>2026-04-04T09:42:04.001Z</time></trkpt><trkpt lat="40.31531485614124" lon="9.578538044164791"><ele>245.0</ele><time>2026-04-04T09:42:05.001Z</time></trkpt><trkpt lat="40.31524655841733" lon="9.578285018049758"><ele>245.0</ele><time>2026-04-04T09:42:06.001Z</time></trkpt><trkpt lat="40.315170018183395" lon="9.578053513357572"><ele>245.0</ele><time>2026-04-04T09:42:07.001Z</time></trkpt><trkpt lat="40.3150596662798" lon="9.577848223233973"><ele>245.0</ele><time>2026-04-04T09:42:08.001Z</time></trkpt><trkpt lat="40.3149425038787" lon="9.577649319308032"><ele>245.0</ele><time>2026-04-04T09:42:09.001Z</time></trkpt><trkpt lat="40.31479561439095" lon="9.577465459074054"><ele>245.0</ele><time>2026-04-04T09:42:10.001Z</time></trkpt><trkpt lat="40.31462324981039" lon="9.57729473254408"><ele>245.0</ele><time>2026-04-04T09:42:11.001Z</time></trkpt><trkpt lat="40.314430630010314" lon="9.577132337383283"><ele>247.0</ele><time>2026-04-04T09:42:12.001Z</time></trkpt><trkpt lat="40.31423494198393" lon="9.576952834068221"><ele>249.0</ele><time>2026-04-04T09:42:13.001Z</time></trkpt><trkpt lat="40.31401861725517" lon="9.576785923227435"><ele>252.0</ele><time>2026-04-04T09:42:14.001Z</time></trkpt><trkpt lat="40.313798095304925" lon="9.576616060425073"><ele>255.0</ele><time>2026-04-04T09:42:15.001Z</time></trkpt><trkpt lat="40.31357964103375" lon="9.576460545987327"><ele>255.0</ele><time>2026-04-04T09:42:16.001Z</time></trkpt><trkpt lat="40.31336745945156" lon="9.576365266789438"><ele>255.0</ele><time>2026-04-04T09:42:17.001Z</time></trkpt><trkpt lat="40.31318103033944" lon="9.576256604133043"><ele>255.0</ele><time>2026-04-04T09:42:18.001Z</time></trkpt><trkpt lat="40.313014629899" lon="9.576174150971388"><ele>256.25</ele><time>2026-04-04T09:42:19.001Z</time></trkpt><trkpt lat="40.31287341007489" lon="9.576093865828236"><ele>257.5</ele><time>2026-04-04T09:42:20.001Z</time></trkpt><trkpt lat="40.3127525305602" lon="9.575993053614452"><ele>258.75</ele><time>2026-04-04T09:42:21Z</time></trkpt><trkpt lat="40.312654898599604" lon="9.575856759372853"><ele>260.0</ele><time>2026-04-04T09:42:22Z</time></trkpt><trkpt lat="40.31259768837472" lon="9.575686317305042"><ele>260.0</ele><time>2026-04-04T09:42:23Z</time></trkpt><trkpt lat="40.3125537283917" lon="9.575489635489644"><ele>260.0</ele><time>2026-04-04T09:42:24Z</time></trkpt><trkpt lat="40.31251033917145" lon="9.575259209823702"><ele>260.0</ele><time>2026-04-04T09:42:25Z</time></trkpt><trkpt lat="40.3124527641156" lon="9.57501806266838"><ele>260.0</ele><time>2026-04-04T09:42:26Z</time></trkpt><trkpt lat="40.31238949133344" lon="9.57476716493289"><ele>260.0</ele><time>2026-04-04T09:42:27Z</time></trkpt><trkpt lat="40.312291615303536" lon="9.574516816673754"><ele>260.0</ele><time>2026-04-04T09:42:28Z</time></trkpt><trkpt lat="40.31217314648126" lon="9.574306361541332"><ele>261.0</ele><time>2026-04-04T09:42:29Z</time></trkpt><trkpt lat="40.31202917890317" lon="9.57413613520772"><ele>262.0</ele><time>2026-04-04T09:42:30Z</time></trkpt><trkpt lat="40.31187210373003" lon="9.574013218958235"><ele>263.0</ele><time>2026-04-04T09:42:31Z</time></trkpt><trkpt lat="40.311708583040314" lon="9.573893945286512"><ele>263.0</ele><time>2026-04-04T09:42:32Z</time></trkpt><trkpt lat="40.311526375509104" lon="9.573850348177501"><ele>263.0</ele><time>2026-04-04T09:42:33Z</time></trkpt><trkpt lat="40.311354589694325" lon="9.573839513951459"><ele>263.0</ele><time>2026-04-04T09:42:34Z</time></trkpt><trkpt lat="40.31118844303113" lon="9.573881881289578"><ele>263.0</ele><time>2026-04-04T09:42:35Z</time></trkpt><trkpt lat="40.3110169514633" lon="9.573958733740302"><ele>263.0</ele><time>2026-04-04T09:42:36Z</time></trkpt><trkpt lat="40.31082345754578" lon="9.573982988458194"><ele>263.0</ele><time>2026-04-04T09:42:37Z</time></trkpt><trkpt lat="40.310613359063964" lon="9.573981486293516"><ele>264.0</ele><time>2026-04-04T09:42:38Z</time></trkpt><trkpt lat="40.310381404879685" lon="9.57395772609937"><ele>265.0</ele><time>2026-04-04T09:42:39Z</time></trkpt><trkpt lat="40.31012852593879" lon="9.573930230753174"><ele>265.0</ele><time>2026-04-04T09:42:40Z</time></trkpt><trkpt lat="40.309866718844475" lon="9.573916588994903"><ele>265.0</ele><time>2026-04-04T09:42:41Z</time></trkpt><trkpt lat="40.30959994851065" lon="9.573886364697598"><ele>266.0</ele><time>2026-04-04T09:42:42Z</time></trkpt><trkpt lat="40.309338325434084" lon="9.573863344958381"><ele>267.0</ele><time>2026-04-04T09:42:43Z</time></trkpt><trkpt lat="40.309073740376896" lon="9.57381353067295"><ele>268.5</ele><time>2026-04-04T09:42:44Z</time></trkpt><trkpt lat="40.30882877304133" lon="9.573786463191103"><ele>270.0</ele><time>2026-04-04T09:42:45Z</time></trkpt><trkpt lat="40.30861495539452" lon="9.573761627536427"><ele>270.0</ele><time>2026-04-04T09:42:46Z</time></trkpt><trkpt lat="40.30843869876784" lon="9.573731168539698"><ele>270.0</ele><time>2026-04-04T09:42:47Z</time></trkpt><trkpt lat="40.30827420825986" lon="9.57367426301711"><ele>270.0</ele><time>2026-04-04T09:42:48Z</time></trkpt><trkpt lat="40.308137080614024" lon="9.573578384517376"><ele>271.0</ele><time>2026-04-04T09:42:49Z</time></trkpt><trkpt lat="40.3080071811701" lon="9.573439512683404"><ele>272.0</ele><time>2026-04-04T09:42:50Z</time></trkpt><trkpt lat="40.30790476036786" lon="9.573256936424961"><ele>273.0</ele><time>2026-04-04T09:42:51Z</time></trkpt><trkpt lat="40.307796001988685" lon="9.573055632696525"><ele>272.3333333333333</ele><time>2026-04-04T09:42:52Z</time></trkpt><trkpt lat="40.30767842654951" lon="9.572835107134638"><ele>271.66666666666663</ele><time>2026-04-04T09:42:53Z</time></trkpt><trkpt lat="40.307552910255744" lon="9.57260076552286"><ele>271.0</ele><time>2026-04-04T09:42:54Z</time></trkpt><trkpt lat="40.307421804659576" lon="9.572355640912548"><ele>271.0</ele><time>2026-04-04T09:42:55Z</time></trkpt><trkpt lat="40.30728329733426" lon="9.572093466304501"><ele>271.0</ele><time>2026-04-04T09:42:56Z</time></trkpt><trkpt lat="40.30714729832194" lon="9.57184277306646"><ele>272.66666666666663</ele><time>2026-04-04T09:42:57Z</time></trkpt><trkpt lat="40.30702966533314" lon="9.571629459685855"><ele>274.3333333333333</ele><time>2026-04-04T09:42:58Z</time></trkpt><trkpt lat="40.30692056675214" lon="9.571459122378647"><ele>276.0</ele><time>2026-04-04T09:42:59Z</time></trkpt><trkpt lat="40.306800040913" lon="9.571322865342418"><ele>276.0</ele><time>2026-04-04T09:43:00Z</time></trkpt><trkpt lat="40.30665320486492" lon="9.571222676947107"><ele>276.0</ele><time>2026-04-04T09:43:01Z</time></trkpt><trkpt lat="40.30649965949843" lon="9.571140209925277"><ele>276.0</ele><time>2026-04-04T09:43:02Z</time></trkpt><trkpt lat="40.306340392014775" lon="9.571103931355351"><ele>274.6666666666667</ele><time>2026-04-04T09:43:03Z</time></trkpt><trkpt lat="40.30617678589254" lon="9.571104879861558"><ele>273.33333333333337</ele><time>2026-04-04T09:43:04Z</time></trkpt><trkpt lat="40.30601238409087" lon="9.571123773614994"><ele>272.0</ele><time>2026-04-04T09:43:05Z</time></trkpt><trkpt lat="40.30584241789143" lon="9.571183091152486"><ele>272.6666666666667</ele><time>2026-04-04T09:43:06Z</time></trkpt><trkpt lat="40.30567684671413" lon="9.571271770687327"><ele>273.3333333333333</ele><time>2026-04-04T09:43:07Z</time></trkpt><trkpt lat="40.30551768541913" lon="9.571403586988591"><ele>274.0</ele><time>2026-04-04T09:43:08Z</time></trkpt><trkpt lat="40.3053473567217" lon="9.571541492675992"><ele>274.0</ele><time>2026-04-04T09:43:09Z</time></trkpt><trkpt lat="40.30516015711453" lon="9.57167977468738"><ele>274.0</ele><time>2026-04-04T09:43:10Z</time></trkpt><trkpt lat="40.304964724392505" lon="9.57182790819305"><ele>274.0</ele><time>2026-04-04T09:43:11Z</time></trkpt><trkpt lat="40.304761254062576" lon="9.571997545754474"><ele>274.3333333333333</ele><time>2026-04-04T09:43:12Z</time></trkpt><trkpt lat="40.3045724642513" lon="9.572176099135918"><ele>274.6666666666667</ele><time>2026-04-04T09:43:13Z</time></trkpt><trkpt lat="40.30440621689773" lon="9.572355818651069"><ele>275.0</ele><time>2026-04-04T09:43:14Z</time></trkpt><trkpt lat="40.30426650893981" lon="9.572524219721837"><ele>275.0</ele><time>2026-04-04T09:43:15Z</time></trkpt><trkpt lat="40.30415607827246" lon="9.572691055036058"><ele>275.0</ele><time>2026-04-04T09:43:16Z</time></trkpt><trkpt lat="40.30407001381506" lon="9.572871563047707"><ele>275.0</ele><time>2026-04-04T09:43:17Z</time></trkpt><trkpt lat="40.30399554257694" lon="9.573075352108694"><ele>275.6666666666667</ele><time>2026-04-04T09:43:18Z</time></trkpt><trkpt lat="40.303919546739415" lon="9.573280122284594"><ele>276.3333333333333</ele><time>2026-04-04T09:43:19Z</time></trkpt><trkpt lat="40.30384311101049" lon="9.57347478423069"><ele>277.0</ele><time>2026-04-04T09:43:20Z</time></trkpt><trkpt lat="40.30377362704111" lon="9.573652273527204"><ele>278.0</ele><time>2026-04-04T09:43:21Z</time></trkpt><trkpt lat="40.303709218165835" lon="9.573818398842862"><ele>279.0</ele><time>2026-04-04T09:43:22Z</time></trkpt><trkpt lat="40.30365782666442" lon="9.573964844050526"><ele>280.0</ele><time>2026-04-04T09:43:23Z</time></trkpt><trkpt lat="40.303608183206286" lon="9.57408220030948"><ele>281.0</ele><time>2026-04-04T09:43:24Z</time></trkpt><trkpt lat="40.303545543131165" lon="9.5741637991614"><ele>281.0</ele><time>2026-04-04T09:43:25Z</time></trkpt><trkpt lat="40.303457329902685" lon="9.574179542992406"><ele>281.0</ele><time>2026-04-04T09:43:26Z</time></trkpt><trkpt lat="40.30337614633397" lon="9.574089582495574"><ele>281.0</ele><time>2026-04-04T09:43:27Z</time></trkpt><trkpt lat="40.30329719299369" lon="9.574020285302108"><ele>281.0</ele><time>2026-04-04T09:43:28Z</time></trkpt><trkpt lat="40.30322226809261" lon="9.573920250033336"><ele>281.0</ele><time>2026-04-04T09:43:29Z</time></trkpt><trkpt lat="40.30320785176246" lon="9.573762413196905"><ele>279.6666666666667</ele><time>2026-04-04T09:43:30Z</time></trkpt><trkpt lat="40.30318813260827" lon="9.573573516641503"><ele>278.3333333333333</ele><time>2026-04-04T09:43:31Z</time></trkpt><trkpt lat="40.303143480555676" lon="9.573368596431983"><ele>277.0</ele><time>2026-04-04T09:43:32Z</time></trkpt><trkpt lat="40.30311488712265" lon="9.573133684221165"><ele>277.0</ele><time>2026-04-04T09:43:33Z</time></trkpt><trkpt lat="40.303083436594974" lon="9.572893714418127"><ele>277.0</ele><time>2026-04-04T09:43:34Z</time></trkpt><trkpt lat="40.30305424231363" lon="9.572683749316905"><ele>277.0</ele><time>2026-04-04T09:43:35Z</time></trkpt><trkpt lat="40.3030261960524" lon="9.572492314737291"><ele>279.75</ele><time>2026-04-04T09:43:36Z</time></trkpt><trkpt lat="40.302998907635946" lon="9.572314647294467"><ele>282.5</ele><time>2026-04-04T09:43:37Z</time></trkpt><trkpt lat="40.302969962855784" lon="9.572150168836822"><ele>285.25</ele><time>2026-04-04T09:43:38Z</time></trkpt><trkpt lat="40.302934918371626" lon="9.572000192694622"><ele>288.0</ele><time>2026-04-04T09:43:39Z</time></trkpt><trkpt lat="40.3028840326736" lon="9.571875697735756"><ele>288.0</ele><time>2026-04-04T09:43:40Z</time></trkpt><trkpt lat="40.302797535052214" lon="9.571782377148573"><ele>288.0</ele><time>2026-04-04T09:43:41Z</time></trkpt><trkpt lat="40.30267683053832" lon="9.571723326027078"><ele>288.0</ele><time>2026-04-04T09:43:42Z</time></trkpt><trkpt lat="40.30253198492194" lon="9.571692326175787"><ele>288.0</ele><time>2026-04-04T09:43:43Z</time></trkpt><trkpt lat="40.30237047476589" lon="9.571681523392666"><ele>290.6666666666667</ele><time>2026-04-04T09:43:44Z</time></trkpt><trkpt lat="40.302191357060735" lon="9.571630981372522"><ele>293.33333333333337</ele><time>2026-04-04T09:43:45Z</time></trkpt><trkpt lat="40.302021004044626" lon="9.571596047700728"><ele>296.0</ele><time>2026-04-04T09:43:46Z</time></trkpt><trkpt lat="40.30187839821805" lon="9.571522809182808"><ele>296.0</ele><time>2026-04-04T09:43:47Z</time></trkpt><trkpt lat="40.30175077819673" lon="9.571426191762018"><ele>296.0</ele><time>2026-04-04T09:43:48Z</time></trkpt><trkpt lat="40.30165042652572" lon="9.571283751853311"><ele>296.0</ele><time>2026-04-04T09:43:49Z</time></trkpt><trkpt lat="40.301546992812874" lon="9.571112213237084"><ele>295.0</ele><time>2026-04-04T09:43:50Z</time></trkpt><trkpt lat="40.30144055487385" lon="9.570959610191128"><ele>294.0</ele><time>2026-04-04T09:43:51Z</time></trkpt><trkpt lat="40.30135487808994" lon="9.570839600656853"><ele>293.0</ele><time>2026-04-04T09:43:52Z</time></trkpt><trkpt lat="40.30125141241242" lon="9.570780873624322"><ele>292.0</ele><time>2026-04-04T09:43:53Z</time></trkpt><trkpt lat="40.301128312875335" lon="9.570782195731987"><ele>291.25</ele><time>2026-04-04T09:43:54Z</time></trkpt><trkpt lat="40.30101430074766" lon="9.570850916412132"><ele>290.5</ele><time>2026-04-04T09:43:55Z</time></trkpt><trkpt lat="40.30092774133588" lon="9.570982911523794"><ele>289.75</ele><time>2026-04-04T09:43:56Z</time></trkpt><trkpt lat="40.30087503662749" lon="9.571162344463158"><ele>289.0</ele><time>2026-04-04T09:43:57Z</time></trkpt><trkpt lat="40.300847590595126" lon="9.571371672323183"><ele>291.66666666666663</ele><time>2026-04-04T09:43:58Z</time></trkpt><trkpt lat="40.300825287782914" lon="9.571598511126545"><ele>294.3333333333333</ele><time>2026-04-04T09:43:59Z</time></trkpt><trkpt lat="40.300789471098085" lon="9.571840585262226"><ele>297.0</ele><time>2026-04-04T09:44:00Z</time></trkpt><trkpt lat="40.300737583857185" lon="9.5720854871283"><ele>296.6666666666667</ele><time>2026-04-04T09:44:01Z</time></trkpt><trkpt lat="40.30063614606316" lon="9.572307037373793"><ele>296.33333333333337</ele><time>2026-04-04T09:44:02Z</time></trkpt><trkpt lat="40.30052134943106" lon="9.57254405335422"><ele>296.0</ele><time>2026-04-04T09:44:03Z</time></trkpt><trkpt lat="40.30040118074276" lon="9.572779561597597"><ele>299.0</ele><time>2026-04-04T09:44:04Z</time></trkpt><trkpt lat="40.30027593249089" lon="9.572990134119928"><ele>302.0</ele><time>2026-04-04T09:44:05Z</time></trkpt><trkpt lat="40.30014824632944" lon="9.573196759800824"><ele>305.0</ele><time>2026-04-04T09:44:06Z</time></trkpt><trkpt lat="40.300040842450116" lon="9.573388996404713"><ele>305.0</ele><time>2026-04-04T09:44:07Z</time></trkpt><trkpt lat="40.29994744972752" lon="9.573578758360965"><ele>305.0</ele><time>2026-04-04T09:44:08.001Z</time></trkpt><trkpt lat="40.29988386096531" lon="9.573788098581316"><ele>305.0</ele><time>2026-04-04T09:44:09.001Z</time></trkpt><trkpt lat="40.29984668434111" lon="9.574026859503308"><ele>308.0</ele><time>2026-04-04T09:44:10.001Z</time></trkpt><trkpt lat="40.299817991717106" lon="9.574281709709119"><ele>311.0</ele><time>2026-04-04T09:44:11.001Z</time></trkpt><trkpt lat="40.29977468864658" lon="9.574518963899033"><ele>314.0</ele><time>2026-04-04T09:44:12.001Z</time></trkpt><trkpt lat="40.29970805354974" lon="9.574744417185984"><ele>314.33333333333337</ele><time>2026-04-04T09:44:13.001Z</time></trkpt><trkpt lat="40.29961611815078" lon="9.57496300833522"><ele>314.6666666666667</ele><time>2026-04-04T09:44:14.001Z</time></trkpt><trkpt lat="40.299509246678475" lon="9.575188461691695"><ele>315.0</ele><time>2026-04-04T09:44:15.001Z</time></trkpt><trkpt lat="40.29939313334189" lon="9.57542071737505"><ele>317.6666666666667</ele><time>2026-04-04T09:44:16.001Z</time></trkpt><trkpt lat="40.29928027634103" lon="9.575663594714323"><ele>320.33333333333337</ele><time>2026-04-04T09:44:17.001Z</time></trkpt><trkpt lat="40.299166965087046" lon="9.575922103789804"><ele>323.0</ele><time>2026-04-04T09:44:18.001Z</time></trkpt><trkpt lat="40.299051635689096" lon="9.576191810218079"><ele>325.0</ele><time>2026-04-04T09:44:19.001Z</time></trkpt><trkpt lat="40.29893981238184" lon="9.576461467596857"><ele>327.0</ele><time>2026-04-04T09:44:20.001Z</time></trkpt><trkpt lat="40.29883518624034" lon="9.576724542993675"><ele>327.0</ele><time>2026-04-04T09:44:21.001Z</time></trkpt><trkpt lat="40.29872969028164" lon="9.576962746119246"><ele>327.0</ele><time>2026-04-04T09:44:22.001Z</time></trkpt><trkpt lat="40.298603043326224" lon="9.577166679700111"><ele>327.0</ele><time>2026-04-04T09:44:23Z</time></trkpt><trkpt lat="40.298483330433946" lon="9.577344067519848"><ele>328.25</ele><time>2026-04-04T09:44:24Z</time></trkpt><trkpt lat="40.2983857440637" lon="9.577510233111484"><ele>329.5</ele><time>2026-04-04T09:44:25Z</time></trkpt><trkpt lat="40.29828748314903" lon="9.577632570485745"><ele>330.75</ele><time>2026-04-04T09:44:26Z</time></trkpt><trkpt lat="40.29819047456208" lon="9.577722113073749"><ele>332.0</ele><time>2026-04-04T09:44:27Z</time></trkpt><trkpt lat="40.298074510674134" lon="9.577748028885747"><ele>332.75</ele><time>2026-04-04T09:44:28Z</time></trkpt><trkpt lat="40.297958415412566" lon="9.577729854125804"><ele>333.5</ele><time>2026-04-04T09:44:29Z</time></trkpt><trkpt lat="40.29785823845007" lon="9.57765506097411"><ele>334.25</ele><time>2026-04-04T09:44:30Z</time></trkpt><trkpt lat="40.29776476447671" lon="9.577559513352332"><ele>335.0</ele><time>2026-04-04T09:44:31Z</time></trkpt><trkpt lat="40.29766239849981" lon="9.577455717326671"><ele>335.0</ele><time>2026-04-04T09:44:32Z</time></trkpt><trkpt lat="40.297555797430356" lon="9.577388117985956"><ele>335.0</ele><time>2026-04-04T09:44:33Z</time></trkpt><trkpt lat="40.29745353731701" lon="9.577349846742132"><ele>335.0</ele><time>2026-04-04T09:44:34Z</time></trkpt><trkpt lat="40.29732996954895" lon="9.577408680729127"><ele>335.0</ele><time>2026-04-04T09:44:35Z</time></trkpt><trkpt lat="40.29720033349649" lon="9.577478905939646"><ele>335.75</ele><time>2026-04-04T09:44:36Z</time></trkpt><trkpt lat="40.297064652043986" lon="9.577554702907584"><ele>336.5</ele><time>2026-04-04T09:44:37Z</time></trkpt><trkpt lat="40.29693853690839" lon="9.577625945019925"><ele>337.25</ele><time>2026-04-04T09:44:38Z</time></trkpt><trkpt lat="40.29684297898864" lon="9.577706446065736"><ele>338.0</ele><time>2026-04-04T09:44:39Z</time></trkpt><trkpt lat="40.29676593198449" lon="9.577797358927713"><ele>339.4</ele><time>2026-04-04T09:44:40Z</time></trkpt><trkpt lat="40.296701253340174" lon="9.577888795017177"><ele>340.79999999999995</ele><time>2026-04-04T09:44:41Z</time></trkpt><trkpt lat="40.29664124678935" lon="9.578004102487569"><ele>342.2</ele><time>2026-04-04T09:44:42Z</time></trkpt><trkpt lat="40.29658609732591" lon="9.578120809236236"><ele>343.6</ele><time>2026-04-04T09:44:43Z</time></trkpt><trkpt lat="40.29653944727622" lon="9.578251984584142"><ele>345.0</ele><time>2026-04-04T09:44:44Z</time></trkpt><trkpt lat="40.29650532173504" lon="9.578391203623006"><ele>345.0</ele><time>2026-04-04T09:44:45Z</time></trkpt><trkpt lat="40.2964896581042" lon="9.578521059187718"><ele>345.0</ele><time>2026-04-04T09:44:46Z</time></trkpt><trkpt lat="40.29648758244901" lon="9.57862376906535"><ele>345.0</ele><time>2026-04-04T09:44:47Z</time></trkpt><trkpt lat="40.29648704499816" lon="9.578715911975154"><ele>345.0</ele><time>2026-04-04T09:44:48Z</time></trkpt><trkpt lat="40.296490480501156" lon="9.578817074257158"><ele>345.0</ele><time>2026-04-04T09:44:49Z</time></trkpt><trkpt lat="40.296496359570526" lon="9.57892776210663"><ele>345.0</ele><time>2026-04-04T09:44:50Z</time></trkpt><trkpt lat="40.29650714478998" lon="9.579041658265211"><ele>345.0</ele><time>2026-04-04T09:44:51Z</time></trkpt><trkpt lat="40.29652055170874" lon="9.579164959464082"><ele>345.0</ele><time>2026-04-04T09:44:52Z</time></trkpt><trkpt lat="40.29653531779243" lon="9.579296086748071"><ele>345.0</ele><time>2026-04-04T09:44:53Z</time></trkpt><trkpt lat="40.29655073091561" lon="9.579436168170055"><ele>345.0</ele><time>2026-04-04T09:44:54Z</time></trkpt><trkpt lat="40.29656431156023" lon="9.579584836843294"><ele>345.0</ele><time>2026-04-04T09:44:55Z</time></trkpt><trkpt lat="40.29657286060259" lon="9.57974854807252"><ele>345.5</ele><time>2026-04-04T09:44:56Z</time></trkpt><trkpt lat="40.29656727068957" lon="9.57990369460801"><ele>346.0</ele><time>2026-04-04T09:44:57Z</time></trkpt><trkpt lat="40.29654071291026" lon="9.580062021279018"><ele>346.5</ele><time>2026-04-04T09:44:58Z</time></trkpt><trkpt lat="40.29647974603693" lon="9.580217005922218"><ele>347.0</ele><time>2026-04-04T09:44:59Z</time></trkpt><trkpt lat="40.296400262980654" lon="9.58037018033239"><ele>347.25</ele><time>2026-04-04T09:45:00Z</time></trkpt><trkpt lat="40.296269943066484" lon="9.580627239883462"><ele>347.5</ele><time>2026-04-04T09:45:02Z</time></trkpt><trkpt lat="40.29622708293355" lon="9.580739413360462"><ele>347.75</ele><time>2026-04-04T09:45:03Z</time></trkpt><trkpt lat="40.29619036271048" lon="9.580853888907724"><ele>348.0</ele><time>2026-04-04T09:45:04Z</time></trkpt><trkpt lat="40.29615074393612" lon="9.580999055592336"><ele>348.0</ele><time>2026-04-04T09:45:05Z</time></trkpt><trkpt lat="40.29613017556466" lon="9.581149019571875"><ele>348.0</ele><time>2026-04-04T09:45:06Z</time></trkpt><trkpt lat="40.29611779646299" lon="9.581303677859635"><ele>348.0</ele><time>2026-04-04T09:45:07Z</time></trkpt><trkpt lat="40.29611063629601" lon="9.581460280812305"><ele>348.0</ele><time>2026-04-04T09:45:08Z</time></trkpt><trkpt lat="40.29611062956634" lon="9.581599670254272"><ele>348.79999999999995</ele><time>2026-04-04T09:45:09Z</time></trkpt><trkpt lat="40.29611795995468" lon="9.581746357021183"><ele>349.6</ele><time>2026-04-04T09:45:10Z</time></trkpt><trkpt lat="40.29612868244572" lon="9.581897568336304"><ele>350.4</ele><time>2026-04-04T09:45:11Z</time></trkpt><trkpt lat="40.296138850652376" lon="9.582039076197763"><ele>351.20000000000005</ele><time>2026-04-04T09:45:12Z</time></trkpt><trkpt lat="40.29613940149407" lon="9.58215519124392"><ele>352.0</ele><time>2026-04-04T09:45:13Z</time></trkpt><trkpt lat="40.29614234377137" lon="9.58226492601567"><ele>352.0</ele><time>2026-04-04T09:45:14Z</time></trkpt><trkpt lat="40.296148645771744" lon="9.58238527896811"><ele>352.0</ele><time>2026-04-04T09:45:15Z</time></trkpt><trkpt lat="40.296157324135265" lon="9.582515154395077"><ele>352.0</ele><time>2026-04-04T09:45:16Z</time></trkpt><trkpt lat="40.296168159184234" lon="9.582658346108193"><ele>352.0</ele><time>2026-04-04T09:45:17Z</time></trkpt><trkpt lat="40.296180551892256" lon="9.582803320518261"><ele>352.0</ele><time>2026-04-04T09:45:18Z</time></trkpt><trkpt lat="40.296192817247785" lon="9.582943292188686"><ele>353.16666666666663</ele><time>2026-04-04T09:45:19Z</time></trkpt><trkpt lat="40.29620235699293" lon="9.583055884698231"><ele>354.3333333333333</ele><time>2026-04-04T09:45:20Z</time></trkpt><trkpt lat="40.296200907301824" lon="9.583151901038494"><ele>355.5</ele><time>2026-04-04T09:45:21Z</time></trkpt><trkpt lat="40.296209174526524" lon="9.583322153962342"><ele>356.6666666666667</ele><time>2026-04-04T09:45:23Z</time></trkpt><trkpt lat="40.29622171207194" lon="9.583426596853096"><ele>357.83333333333337</ele><time>2026-04-04T09:45:24Z</time></trkpt><trkpt lat="40.29622594168964" lon="9.58351794688093"><ele>359.0</ele><time>2026-04-04T09:45:25Z</time></trkpt><trkpt lat="40.29621153440428" lon="9.58368147861316"><ele>360.6</ele><time>2026-04-04T09:45:27Z</time></trkpt><trkpt lat="40.29617627575023" lon="9.583772396362985"><ele>362.2</ele><time>2026-04-04T09:45:29Z</time></trkpt><trkpt lat="40.29605216358737" lon="9.583821072153226"><ele>363.8</ele><time>2026-04-04T09:45:31Z</time></trkpt><trkpt lat="40.295944344075686" lon="9.583825481293907"><ele>365.40000000000003</ele><time>2026-04-04T09:45:33Z</time></trkpt><trkpt lat="40.2958621521941" lon="9.583834712862897"><ele>367.0</ele><time>2026-04-04T09:45:34Z</time></trkpt><trkpt lat="40.29577390365762" lon="9.583844895378972"><ele>367.0</ele><time>2026-04-04T09:45:35Z</time></trkpt><trkpt lat="40.29566153807721" lon="9.583858792699836"><ele>367.0</ele><time>2026-04-04T09:45:36Z</time></trkpt><trkpt lat="40.29553610909073" lon="9.58387554678988"><ele>367.0</ele><time>2026-04-04T09:45:37Z</time></trkpt><trkpt lat="40.29541848684841" lon="9.583891663820411"><ele>367.0</ele><time>2026-04-04T09:45:38Z</time></trkpt><trkpt lat="40.29532203060921" lon="9.583891585084954"><ele>366.75</ele><time>2026-04-04T09:45:39Z</time></trkpt><trkpt lat="40.29521328108574" lon="9.58387959963623"><ele>366.5</ele><time>2026-04-04T09:45:40Z</time></trkpt><trkpt lat="40.29509495721114" lon="9.583849479183156"><ele>366.25</ele><time>2026-04-04T09:45:41Z</time></trkpt><trkpt lat="40.29496567339253" lon="9.58380037611476"><ele>366.0</ele><time>2026-04-04T09:45:42Z</time></trkpt><trkpt lat="40.29483097391077" lon="9.583747386521177"><ele>365.25</ele><time>2026-04-04T09:45:43Z</time></trkpt><trkpt lat="40.29468829372041" lon="9.583689916635356"><ele>364.5</ele><time>2026-04-04T09:45:44Z</time></trkpt><trkpt lat="40.29455923970748" lon="9.583637802011703"><ele>363.75</ele><time>2026-04-04T09:45:45Z</time></trkpt><trkpt lat="40.29443618543452" lon="9.583588110178152"><ele>363.0</ele><time>2026-04-04T09:45:46Z</time></trkpt><trkpt lat="40.294320034981475" lon="9.5835412059886"><ele>363.0</ele><time>2026-04-04T09:45:47Z</time></trkpt><trkpt lat="40.294204961353984" lon="9.58352842958976"><ele>363.0</ele><time>2026-04-04T09:45:48Z</time></trkpt><trkpt lat="40.29409529138816" lon="9.583480263189957"><ele>363.0</ele><time>2026-04-04T09:45:49Z</time></trkpt><trkpt lat="40.29397753811952" lon="9.58342763891107"><ele>363.0</ele><time>2026-04-04T09:45:50Z</time></trkpt><trkpt lat="40.293850986515224" lon="9.58337281391354"><ele>362.25</ele><time>2026-04-04T09:45:51Z</time></trkpt><trkpt lat="40.29371176617282" lon="9.58332207064853"><ele>361.5</ele><time>2026-04-04T09:45:52Z</time></trkpt><trkpt lat="40.293587423690084" lon="9.583272213899557"><ele>360.75</ele><time>2026-04-04T09:45:53Z</time></trkpt><trkpt lat="40.2934621972926" lon="9.583214490013404"><ele>360.0</ele><time>2026-04-04T09:45:54Z</time></trkpt><trkpt lat="40.29334334563981" lon="9.583168183936625"><ele>360.0</ele><time>2026-04-04T09:45:55Z</time></trkpt><trkpt lat="40.29322059261828" lon="9.583134798064739"><ele>360.0</ele><time>2026-04-04T09:45:56Z</time></trkpt><trkpt lat="40.29309338508794" lon="9.58312833240789"><ele>360.0</ele><time>2026-04-04T09:45:57Z</time></trkpt><trkpt lat="40.292977840376174" lon="9.583186033065255"><ele>360.0</ele><time>2026-04-04T09:45:58Z</time></trkpt><trkpt lat="40.292856139488926" lon="9.583297591994343"><ele>357.0</ele><time>2026-04-04T09:45:59Z</time></trkpt><trkpt lat="40.29273868735579" lon="9.583458627121091"><ele>354.0</ele><time>2026-04-04T09:46:00Z</time></trkpt><trkpt lat="40.29249842485962" lon="9.583879778722242"><ele>354.0</ele><time>2026-04-04T09:46:02Z</time></trkpt><trkpt lat="40.292372637444686" lon="9.584081974194262"><ele>354.0</ele><time>2026-04-04T09:46:03Z</time></trkpt><trkpt lat="40.292281620669" lon="9.584264963920596"><ele>354.0</ele><time>2026-04-04T09:46:04Z</time></trkpt><trkpt lat="40.29218410600234" lon="9.58443506387657"><ele>355.0</ele><time>2026-04-04T09:46:05Z</time></trkpt><trkpt lat="40.292086712173685" lon="9.584613188952124"><ele>356.0</ele><time>2026-04-04T09:46:06Z</time></trkpt><trkpt lat="40.292003905992075" lon="9.584764504025248"><ele>357.0</ele><time>2026-04-04T09:46:07Z</time></trkpt><trkpt lat="40.291924955322536" lon="9.58490746533847"><ele>358.0</ele><time>2026-04-04T09:46:08Z</time></trkpt><trkpt lat="40.2918489392956" lon="9.585033752988531"><ele>358.0</ele><time>2026-04-04T09:46:09Z</time></trkpt><trkpt lat="40.29171395583829" lon="9.585249990840781"><ele>358.0</ele><time>2026-04-04T09:46:11.001Z</time></trkpt><trkpt lat="40.2916298148751" lon="9.585336094270707"><ele>358.0</ele><time>2026-04-04T09:46:12.001Z</time></trkpt><trkpt lat="40.29152581873324" lon="9.585375696148565"><ele>358.0</ele><time>2026-04-04T09:46:13.001Z</time></trkpt><trkpt lat="40.291425886928266" lon="9.585351520322428"><ele>360.75</ele><time>2026-04-04T09:46:14.001Z</time></trkpt><trkpt lat="40.29133304798875" lon="9.58527290419102"><ele>363.5</ele><time>2026-04-04T09:46:15.001Z</time></trkpt><trkpt lat="40.2912600801985" lon="9.58514846832123"><ele>366.25</ele><time>2026-04-04T09:46:16Z</time></trkpt><trkpt lat="40.29123812365398" lon="9.58498079355283"><ele>369.0</ele><time>2026-04-04T09:46:17Z</time></trkpt><trkpt lat="40.29121225565281" lon="9.58479637652418"><ele>369.0</ele><time>2026-04-04T09:46:18Z</time></trkpt><trkpt lat="40.29118273737746" lon="9.584589374751555"><ele>369.0</ele><time>2026-04-04T09:46:19Z</time></trkpt><trkpt lat="40.29116714188481" lon="9.5843638952645"><ele>369.0</ele><time>2026-04-04T09:46:20Z</time></trkpt><trkpt lat="40.29116633300863" lon="9.584167833960041"><ele>369.0</ele><time>2026-04-04T09:46:21Z</time></trkpt><trkpt lat="40.29116856191201" lon="9.58399842466593"><ele>369.0</ele><time>2026-04-04T09:46:22Z</time></trkpt><trkpt lat="40.291151986330185" lon="9.583848311921408"><ele>369.0</ele><time>2026-04-04T09:46:23Z</time></trkpt><trkpt lat="40.29110420142155" lon="9.58369971506315"><ele>369.0</ele><time>2026-04-04T09:46:24Z</time></trkpt><trkpt lat="40.29103476335407" lon="9.583562594714824"><ele>368.4</ele><time>2026-04-04T09:46:25Z</time></trkpt><trkpt lat="40.2909620150954" lon="9.583451955438305"><ele>367.79999999999995</ele><time>2026-04-04T09:46:26Z</time></trkpt><trkpt lat="40.290885271325244" lon="9.58334517263164"><ele>367.20000000000005</ele><time>2026-04-04T09:46:27Z</time></trkpt><trkpt lat="40.290813671382715" lon="9.583234436741058"><ele>366.6</ele><time>2026-04-04T09:46:28Z</time></trkpt><trkpt lat="40.29074648827484" lon="9.583133707284322"><ele>366.0</ele><time>2026-04-04T09:46:29Z</time></trkpt><trkpt lat="40.29066559336427" lon="9.583039517991782"><ele>366.6</ele><time>2026-04-04T09:46:30Z</time></trkpt><trkpt lat="40.29056199949739" lon="9.582968283799623"><ele>367.20000000000005</ele><time>2026-04-04T09:46:31Z</time></trkpt><trkpt lat="40.29045015593097" lon="9.582940048116194"><ele>367.79999999999995</ele><time>2026-04-04T09:46:32Z</time></trkpt><trkpt lat="40.29034304240438" lon="9.582921268877536"><ele>368.4</ele><time>2026-04-04T09:46:33Z</time></trkpt><trkpt lat="40.29025044629062" lon="9.582919379269436"><ele>369.0</ele><time>2026-04-04T09:46:34Z</time></trkpt><trkpt lat="40.29015701006888" lon="9.582923480549466"><ele>369.0</ele><time>2026-04-04T09:46:35Z</time></trkpt><trkpt lat="40.29006694193047" lon="9.582934016604483"><ele>369.0</ele><time>2026-04-04T09:46:36Z</time></trkpt><trkpt lat="40.28998218851218" lon="9.582951402050739"><ele>369.0</ele><time>2026-04-04T09:46:37Z</time></trkpt><trkpt lat="40.289914258271985" lon="9.582970578185384"><ele>369.0</ele><time>2026-04-04T09:46:38Z</time></trkpt><trkpt lat="40.28980610855647" lon="9.582993972552801"><ele>369.0</ele><time>2026-04-04T09:46:40Z</time></trkpt><trkpt lat="40.28971147191479" lon="9.582995871896301"><ele>367.4</ele><time>2026-04-04T09:46:42Z</time></trkpt><trkpt lat="40.28958710305088" lon="9.583004044562061"><ele>365.79999999999995</ele><time>2026-04-04T09:46:44Z</time></trkpt><trkpt lat="40.28951435618432" lon="9.583048809169794"><ele>364.20000000000005</ele><time>2026-04-04T09:46:45Z</time></trkpt><trkpt lat="40.28943538970268" lon="9.58311300015696"><ele>362.6</ele><time>2026-04-04T09:46:46Z</time></trkpt><trkpt lat="40.289361524891554" lon="9.583186104851311"><ele>361.0</ele><time>2026-04-04T09:46:47Z</time></trkpt><trkpt lat="40.28929127160125" lon="9.58327445235228"><ele>361.0</ele><time>2026-04-04T09:46:48Z</time></trkpt><trkpt lat="40.28922213825572" lon="9.583379632324414"><ele>361.0</ele><time>2026-04-04T09:46:49Z</time></trkpt><trkpt lat="40.289161398455654" lon="9.583512249627956"><ele>361.0</ele><time>2026-04-04T09:46:50Z</time></trkpt><trkpt lat="40.28909524457063" lon="9.583654120503349"><ele>361.0</ele><time>2026-04-04T09:46:51Z</time></trkpt><trkpt lat="40.2890272747632" lon="9.583802554122428"><ele>361.5</ele><time>2026-04-04T09:46:52Z</time></trkpt><trkpt lat="40.28895723099763" lon="9.583959270599047"><ele>362.0</ele><time>2026-04-04T09:46:53Z</time></trkpt><trkpt lat="40.288890180216946" lon="9.584103694590318"><ele>362.5</ele><time>2026-04-04T09:46:54Z</time></trkpt><trkpt lat="40.2888211974048" lon="9.584251323845548"><ele>363.0</ele><time>2026-04-04T09:46:55Z</time></trkpt><trkpt lat="40.288743559358856" lon="9.58439238700845"><ele>366.75</ele><time>2026-04-04T09:46:56Z</time></trkpt><trkpt lat="40.288651715933916" lon="9.584516111934194"><ele>370.5</ele><time>2026-04-04T09:46:57Z</time></trkpt><trkpt lat="40.28854515109966" lon="9.584625741891122"><ele>374.25</ele><time>2026-04-04T09:46:58Z</time></trkpt><trkpt lat="40.28842606168964" lon="9.584711950082912"><ele>378.0</ele><time>2026-04-04T09:46:59Z</time></trkpt><trkpt lat="40.28830014696754" lon="9.584809564780583"><ele>378.0</ele><time>2026-04-04T09:47:00Z</time></trkpt><trkpt lat="40.288181734825876" lon="9.584907963376255"><ele>378.0</ele><time>2026-04-04T09:47:01Z</time></trkpt><trkpt lat="40.28806118553097" lon="9.585001164643748"><ele>378.0</ele><time>2026-04-04T09:47:02Z</time></trkpt><trkpt lat="40.287942894900226" lon="9.585112607961076"><ele>378.0</ele><time>2026-04-04T09:47:03Z</time></trkpt><trkpt lat="40.28783116979119" lon="9.585221442481044"><ele>378.75</ele><time>2026-04-04T09:47:04Z</time></trkpt><trkpt lat="40.287718989861354" lon="9.585330335263816"><ele>379.5</ele><time>2026-04-04T09:47:05Z</time></trkpt><trkpt lat="40.28761886685616" lon="9.585452712087625"><ele>380.25</ele><time>2026-04-04T09:47:06Z</time></trkpt><trkpt lat="40.28750728910254" lon="9.585556617106416"><ele>381.0</ele><time>2026-04-04T09:47:07Z</time></trkpt><trkpt lat="40.287397700176214" lon="9.58566197394988"><ele>384.25</ele><time>2026-04-04T09:47:08Z</time></trkpt><trkpt lat="40.28728543096707" lon="9.585762997199364"><ele>387.5</ele><time>2026-04-04T09:47:09Z</time></trkpt><trkpt lat="40.28717326388567" lon="9.585852341095833"><ele>390.75</ele><time>2026-04-04T09:47:10Z</time></trkpt><trkpt lat="40.2870492650665" lon="9.585923823920167"><ele>394.0</ele><time>2026-04-04T09:47:11Z</time></trkpt><trkpt lat="40.2869297013164" lon="9.585964724276433"><ele>395.25</ele><time>2026-04-04T09:47:12Z</time></trkpt><trkpt lat="40.28680253479361" lon="9.585937845383619"><ele>396.5</ele><time>2026-04-04T09:47:13Z</time></trkpt><trkpt lat="40.28666550818368" lon="9.585952786358465"><ele>397.75</ele><time>2026-04-04T09:47:14Z</time></trkpt><trkpt lat="40.28652459145286" lon="9.585940413337257"><ele>399.0</ele><time>2026-04-04T09:47:15Z</time></trkpt><trkpt lat="40.2863628341615" lon="9.585930338849618"><ele>400.33333333333337</ele><time>2026-04-04T09:47:16Z</time></trkpt><trkpt lat="40.28619057339333" lon="9.585922544935555"><ele>401.6666666666667</ele><time>2026-04-04T09:47:17Z</time></trkpt><trkpt lat="40.286022231982244" lon="9.58591807338627"><ele>403.0</ele><time>2026-04-04T09:47:18Z</time></trkpt><trkpt lat="40.285860208338" lon="9.58591701531809"><ele>403.0</ele><time>2026-04-04T09:47:19Z</time></trkpt><trkpt lat="40.285713096693264" lon="9.585935692256887"><ele>403.0</ele><time>2026-04-04T09:47:20Z</time></trkpt><trkpt lat="40.28558929756937" lon="9.585987729623392"><ele>403.0</ele><time>2026-04-04T09:47:21Z</time></trkpt><trkpt lat="40.28548929388871" lon="9.58607642822187"><ele>403.0</ele><time>2026-04-04T09:47:22Z</time></trkpt><trkpt lat="40.28541430025075" lon="9.58619843012982"><ele>404.25</ele><time>2026-04-04T09:47:23Z</time></trkpt><trkpt lat="40.28536296337842" lon="9.586346550167066"><ele>405.5</ele><time>2026-04-04T09:47:24Z</time></trkpt><trkpt lat="40.28534073269632" lon="9.586517723102576"><ele>406.75</ele><time>2026-04-04T09:47:25Z</time></trkpt><trkpt lat="40.285340186585266" lon="9.586703038703961"><ele>408.0</ele><time>2026-04-04T09:47:26Z</time></trkpt><trkpt lat="40.285353725504386" lon="9.58688935496098"><ele>408.25</ele><time>2026-04-04T09:47:27Z</time></trkpt><trkpt lat="40.28536597007618" lon="9.587067655597494"><ele>408.5</ele><time>2026-04-04T09:47:28Z</time></trkpt><trkpt lat="40.28537393840755" lon="9.58721320298296"><ele>408.75</ele><time>2026-04-04T09:47:29Z</time></trkpt><trkpt lat="40.28538237441997" lon="9.587336379603164"><ele>409.0</ele><time>2026-04-04T09:47:30Z</time></trkpt><trkpt lat="40.28538941090272" lon="9.587482499445775"><ele>409.0</ele><time>2026-04-04T09:47:31Z</time></trkpt><trkpt lat="40.285396887585065" lon="9.587653571461216"><ele>409.0</ele><time>2026-04-04T09:47:32Z</time></trkpt><trkpt lat="40.28540191398199" lon="9.587847732704686"><ele>409.0</ele><time>2026-04-04T09:47:33Z</time></trkpt><trkpt lat="40.28540794003015" lon="9.588062137560392"><ele>409.0</ele><time>2026-04-04T09:47:34Z</time></trkpt><trkpt lat="40.28542046679326" lon="9.588295020292287"><ele>409.33333333333337</ele><time>2026-04-04T09:47:35Z</time></trkpt><trkpt lat="40.28543928323968" lon="9.588528753164718"><ele>409.66666666666663</ele><time>2026-04-04T09:47:36Z</time></trkpt><trkpt lat="40.285468752675975" lon="9.58874177379447"><ele>410.0</ele><time>2026-04-04T09:47:37Z</time></trkpt><trkpt lat="40.28550079865069" lon="9.588950343635329"><ele>410.25</ele><time>2026-04-04T09:47:38Z</time></trkpt><trkpt lat="40.28553354062681" lon="9.589146658181743"><ele>410.5</ele><time>2026-04-04T09:47:39Z</time></trkpt><trkpt lat="40.28555735676369" lon="9.589331959957372"><ele>410.75</ele><time>2026-04-04T09:47:40Z</time></trkpt><trkpt lat="40.28557041393203" lon="9.589496297196032"><ele>411.0</ele><time>2026-04-04T09:47:41Z</time></trkpt><trkpt lat="40.28556846114766" lon="9.58966839755605"><ele>412.25</ele><time>2026-04-04T09:47:42Z</time></trkpt><trkpt lat="40.285552385663046" lon="9.589843449545603"><ele>413.5</ele><time>2026-04-04T09:47:43Z</time></trkpt><trkpt lat="40.285531460118385" lon="9.590017840372843"><ele>414.75</ele><time>2026-04-04T09:47:44Z</time></trkpt><trkpt lat="40.28548386511791" lon="9.59019496290054"><ele>416.0</ele><time>2026-04-04T09:47:45Z</time></trkpt><trkpt lat="40.285395066982396" lon="9.590332327124724"><ele>422.0</ele><time>2026-04-04T09:47:46Z</time></trkpt><trkpt lat="40.28530331798743" lon="9.590475517701433"><ele>428.0</ele><time>2026-04-04T09:47:47Z</time></trkpt><trkpt lat="40.28520421656101" lon="9.590649904708945"><ele>434.0</ele><time>2026-04-04T09:47:48Z</time></trkpt><trkpt lat="40.28509827734666" lon="9.590807785724813"><ele>434.0</ele><time>2026-04-04T09:47:49Z</time></trkpt><trkpt lat="40.28501067760525" lon="9.590946306335542"><ele>434.0</ele><time>2026-04-04T09:47:50Z</time></trkpt><trkpt lat="40.28492972245244" lon="9.59107176690516"><ele>434.0</ele><time>2026-04-04T09:47:51Z</time></trkpt><trkpt lat="40.28485651516395" lon="9.591183872962814"><ele>434.0</ele><time>2026-04-04T09:47:52Z</time></trkpt><trkpt lat="40.28479117420003" lon="9.591281365916844"><ele>437.4</ele><time>2026-04-04T09:47:53Z</time></trkpt><trkpt lat="40.28472455471534" lon="9.591359085724664"><ele>440.79999999999995</ele><time>2026-04-04T09:47:54Z</time></trkpt><trkpt lat="40.284632954759466" lon="9.591396700127165"><ele>444.20000000000005</ele><time>2026-04-04T09:47:55Z</time></trkpt><trkpt lat="40.284536822578175" lon="9.59144709137538"><ele>447.6</ele><time>2026-04-04T09:47:56Z</time></trkpt><trkpt lat="40.284418548313454" lon="9.591410110167097"><ele>451.0</ele><time>2026-04-04T09:47:57Z</time></trkpt><trkpt lat="40.28429401289928" lon="9.591375922555343"><ele>451.0</ele><time>2026-04-04T09:47:58Z</time></trkpt><trkpt lat="40.28414357024522" lon="9.591348752988964"><ele>451.0</ele><time>2026-04-04T09:47:59Z</time></trkpt><trkpt lat="40.28398920168029" lon="9.591290160672301"><ele>451.0</ele><time>2026-04-04T09:48:00Z</time></trkpt><trkpt lat="40.28381633976141" lon="9.591244702448698"><ele>455.33333333333337</ele><time>2026-04-04T09:48:01Z</time></trkpt><trkpt lat="40.28364287308599" lon="9.591192670057096"><ele>459.66666666666663</ele><time>2026-04-04T09:48:02Z</time></trkpt><trkpt lat="40.28348553133854" lon="9.59114755113954"><ele>464.0</ele><time>2026-04-04T09:48:03Z</time></trkpt><trkpt lat="40.28334611302033" lon="9.591116003961542"><ele>464.25</ele><time>2026-04-04T09:48:04Z</time></trkpt><trkpt lat="40.28319971270962" lon="9.591112532280215"><ele>464.5</ele><time>2026-04-04T09:48:05Z</time></trkpt><trkpt lat="40.28305590817428" lon="9.5911591374772"><ele>464.75</ele><time>2026-04-04T09:48:06Z</time></trkpt><trkpt lat="40.28291811700364" lon="9.591222878903997"><ele>465.0</ele><time>2026-04-04T09:48:07Z</time></trkpt><trkpt lat="40.282797022222944" lon="9.591271506561663"><ele>465.0</ele><time>2026-04-04T09:48:08Z</time></trkpt><trkpt lat="40.282683605661276" lon="9.591265985315152"><ele>465.0</ele><time>2026-04-04T09:48:09Z</time></trkpt><trkpt lat="40.2825787084958" lon="9.591195853932518"><ele>465.0</ele><time>2026-04-04T09:48:10Z</time></trkpt><trkpt lat="40.282473913655615" lon="9.591130579432216"><ele>465.0</ele><time>2026-04-04T09:48:11Z</time></trkpt><trkpt lat="40.2823717709175" lon="9.591082837947187"><ele>459.4</ele><time>2026-04-04T09:48:12Z</time></trkpt><trkpt lat="40.28227739736675" lon="9.59106734157005"><ele>453.8</ele><time>2026-04-04T09:48:13Z</time></trkpt><trkpt lat="40.282189473877665" lon="9.5910558156282"><ele>448.20000000000005</ele><time>2026-04-04T09:48:14Z</time></trkpt><trkpt lat="40.28209794324589" lon="9.59105023640964"><ele>442.6</ele><time>2026-04-04T09:48:15Z</time></trkpt><trkpt lat="40.281996572196135" lon="9.591049507079479"><ele>437.0</ele><time>2026-04-04T09:48:16Z</time></trkpt><trkpt lat="40.281891229054516" lon="9.59106020735365"><ele>436.75</ele><time>2026-04-04T09:48:17Z</time></trkpt><trkpt lat="40.281780442227976" lon="9.591046374247252"><ele>436.5</ele><time>2026-04-04T09:48:18Z</time></trkpt><trkpt lat="40.28166840063691" lon="9.59105109482824"><ele>436.25</ele><time>2026-04-04T09:48:19Z</time></trkpt><trkpt lat="40.281552196358305" lon="9.591055990800108"><ele>436.0</ele><time>2026-04-04T09:48:20Z</time></trkpt><trkpt lat="40.28143094224139" lon="9.591080842257005"><ele>436.0</ele><time>2026-04-04T09:48:21Z</time></trkpt><trkpt lat="40.28130676553941" lon="9.591083733933331"><ele>436.0</ele><time>2026-04-04T09:48:22Z</time></trkpt><trkpt lat="40.28117579994502" lon="9.5910997341609"><ele>436.0</ele><time>2026-04-04T09:48:23Z</time></trkpt><trkpt lat="40.28103809937481" lon="9.591132464888398"><ele>436.0</ele><time>2026-04-04T09:48:24Z</time></trkpt><trkpt lat="40.280898350665964" lon="9.591186609427115"><ele>442.5</ele><time>2026-04-04T09:48:25Z</time></trkpt><trkpt lat="40.2807536462025" lon="9.591252177391548"><ele>449.0</ele><time>2026-04-04T09:48:26Z</time></trkpt><trkpt lat="40.28061648220182" lon="9.59131080824982"><ele>455.5</ele><time>2026-04-04T09:48:27Z</time></trkpt><trkpt lat="40.280474918496395" lon="9.591322485771796"><ele>462.0</ele><time>2026-04-04T09:48:28Z</time></trkpt><trkpt lat="40.280342297978756" lon="9.59133809275356"><ele>462.0</ele><time>2026-04-04T09:48:29Z</time></trkpt><trkpt lat="40.2801659304979" lon="9.591367597006201"><ele>462.0</ele><time>2026-04-04T09:48:30Z</time></trkpt><trkpt lat="40.279993371237794" lon="9.591383721864826"><ele>462.0</ele><time>2026-04-04T09:48:31Z</time></trkpt><trkpt lat="40.27981632653997" lon="9.591405350729328"><ele>461.66666666666663</ele><time>2026-04-04T09:48:32Z</time></trkpt><trkpt lat="40.27963656206972" lon="9.591428345465157"><ele>461.3333333333333</ele><time>2026-04-04T09:48:33Z</time></trkpt><trkpt lat="40.27947508725528" lon="9.591449245353555"><ele>461.0</ele><time>2026-04-04T09:48:34Z</time></trkpt><trkpt lat="40.279325329995224" lon="9.591472770493759"><ele>461.0</ele><time>2026-04-04T09:48:35Z</time></trkpt><trkpt lat="40.27918264475699" lon="9.591496776215445"><ele>461.0</ele><time>2026-04-04T09:48:36Z</time></trkpt><trkpt lat="40.279042924677604" lon="9.591524523256567"><ele>461.0</ele><time>2026-04-04T09:48:37Z</time></trkpt><trkpt lat="40.27890191503706" lon="9.591557619093294"><ele>461.0</ele><time>2026-04-04T09:48:38Z</time></trkpt><trkpt lat="40.27875597993185" lon="9.591589160151791"><ele>456.0</ele><time>2026-04-04T09:48:39Z</time></trkpt><trkpt lat="40.27861130347495" lon="9.591622289117028"><ele>451.0</ele><time>2026-04-04T09:48:40Z</time></trkpt><trkpt lat="40.278462434257165" lon="9.59165640122611"><ele>446.0</ele><time>2026-04-04T09:48:41Z</time></trkpt><trkpt lat="40.27831201044859" lon="9.591694476501894"><ele>446.0</ele><time>2026-04-04T09:48:42Z</time></trkpt><trkpt lat="40.27815714765624" lon="9.591733427747664"><ele>446.0</ele><time>2026-04-04T09:48:43Z</time></trkpt><trkpt lat="40.278000211486116" lon="9.591777974000125"><ele>446.0</ele><time>2026-04-04T09:48:44Z</time></trkpt><trkpt lat="40.27785404146723" lon="9.591813771728146"><ele>444.75</ele><time>2026-04-04T09:48:45Z</time></trkpt><trkpt lat="40.277713882231964" lon="9.591849654769165"><ele>443.5</ele><time>2026-04-04T09:48:46Z</time></trkpt><trkpt lat="40.277574119918455" lon="9.591884245898244"><ele>442.25</ele><time>2026-04-04T09:48:47Z</time></trkpt><trkpt lat="40.27743462352168" lon="9.591919948019434"><ele>441.0</ele><time>2026-04-04T09:48:48Z</time></trkpt><trkpt lat="40.277291683248876" lon="9.5919590136605"><ele>439.0</ele><time>2026-04-04T09:48:49Z</time></trkpt><trkpt lat="40.277147259784705" lon="9.592001570150142"><ele>437.0</ele><time>2026-04-04T09:48:50Z</time></trkpt><trkpt lat="40.277004927337686" lon="9.59204204855419"><ele>435.0</ele><time>2026-04-04T09:48:51Z</time></trkpt><trkpt lat="40.2768724526236" lon="9.592077075275586"><ele>433.0</ele><time>2026-04-04T09:48:52Z</time></trkpt><trkpt lat="40.27674197637395" lon="9.592108778611804"><ele>442.75</ele><time>2026-04-04T09:48:53Z</time></trkpt><trkpt lat="40.27661295311119" lon="9.59214153142196"><ele>452.5</ele><time>2026-04-04T09:48:54Z</time></trkpt><trkpt lat="40.276484287311725" lon="9.592177812050526"><ele>462.25</ele><time>2026-04-04T09:48:55Z</time></trkpt><trkpt lat="40.27635129396282" lon="9.592209487869521"><ele>472.0</ele><time>2026-04-04T09:48:56Z</time></trkpt><trkpt lat="40.27623075870986" lon="9.592226712838093"><ele>472.0</ele><time>2026-04-04T09:48:57Z</time></trkpt><trkpt lat="40.276128643369695" lon="9.592236904796264"><ele>472.00000000000006</ele><time>2026-04-04T09:48:58Z</time></trkpt><trkpt lat="40.27605437650704" lon="9.592242878686973"><ele>472.00000000000006</ele><time>2026-04-04T09:48:59Z</time></trkpt><trkpt lat="40.275933802984135" lon="9.592251170435942"><ele>472.0</ele><time>2026-04-04T09:49:01Z</time></trkpt><trkpt lat="40.27581734343127" lon="9.592261450903031"><ele>472.0</ele><time>2026-04-04T09:49:03Z</time></trkpt><trkpt lat="40.2757059099971" lon="9.592270836850778"><ele>472.0</ele><time>2026-04-04T09:49:05Z</time></trkpt><trkpt lat="40.275607741628306" lon="9.592252452329001"><ele>472.0</ele><time>2026-04-04T09:49:07Z</time></trkpt><trkpt lat="40.27554335128601" lon="9.592488198467514"><ele>472.0</ele><time>2026-04-04T09:49:09Z</time></trkpt><trkpt lat="40.275531864287565" lon="9.592616335019118"><ele>472.0</ele><time>2026-04-04T09:49:10Z</time></trkpt><trkpt lat="40.27551617794608" lon="9.592755773091449"><ele>484.40000000000003</ele><time>2026-04-04T09:49:11Z</time></trkpt><trkpt lat="40.275499718958315" lon="9.592882915335785"><ele>496.80000000000007</ele><time>2026-04-04T09:49:12Z</time></trkpt><trkpt lat="40.27548262995718" lon="9.593007665429347"><ele>509.2</ele><time>2026-04-04T09:49:13Z</time></trkpt><trkpt lat="40.27546508594848" lon="9.593131001665082"><ele>521.6</ele><time>2026-04-04T09:49:14Z</time></trkpt><trkpt lat="40.275446151587296" lon="9.59323611290811"><ele>534.0</ele><time>2026-04-04T09:49:15Z</time></trkpt><trkpt lat="40.27542686535132" lon="9.59334701948021"><ele>534.0</ele><time>2026-04-04T09:49:16Z</time></trkpt><trkpt lat="40.27540480942631" lon="9.593474896599707"><ele>534.0</ele><time>2026-04-04T09:49:17.074Z</time></trkpt><trkpt lat="40.27538347216694" lon="9.593604999248367"><ele>534.0</ele><time>2026-04-04T09:49:18.061Z</time></trkpt><trkpt lat="40.27536739774441" lon="9.593738431821148"><ele>534.0</ele><time>2026-04-04T09:49:19.062Z</time></trkpt><trkpt lat="40.27534763128056" lon="9.593876497937393"><ele>534.0</ele><time>2026-04-04T09:49:20.065Z</time></trkpt><trkpt lat="40.275329463778725" lon="9.593999721270633"><ele>544.3333333333334</ele><time>2026-04-04T09:49:21.045Z</time></trkpt><trkpt lat="40.27530984617194" lon="9.594109887959217"><ele>554.6666666666667</ele><time>2026-04-04T09:49:22.033Z</time></trkpt><trkpt lat="40.27528919471023" lon="9.594225534236653"><ele>565.0</ele><time>2026-04-04T09:49:23.032Z</time></trkpt><trkpt lat="40.27505040716367" lon="9.5962652620933"><ele>523.5</ele><time>2026-04-04T09:49:26.54Z</time></trkpt><trkpt lat="40.27497111425832" lon="9.596843974220512"><ele>482.0</ele><time>2026-04-04T09:49:27.54Z</time></trkpt><trkpt lat="40.27477367497028" lon="9.597531491196714"><ele>476.6</ele><time>2026-04-04T09:49:40Z</time></trkpt><trkpt lat="40.274738296293705" lon="9.597673219538471"><ele>471.20000000000005</ele><time>2026-04-04T09:49:41Z</time></trkpt><trkpt lat="40.27468276003181" lon="9.597714915037733"><ele>465.8</ele><time>2026-04-04T09:49:42Z</time></trkpt><trkpt lat="40.27461397086506" lon="9.59781174229612"><ele>460.4</ele><time>2026-04-04T09:49:43Z</time></trkpt><trkpt lat="40.27453822143459" lon="9.59786717959058"><ele>455.0</ele><time>2026-04-04T09:49:44Z</time></trkpt><trkpt lat="40.274453864493815" lon="9.597907862000495"><ele>451.42857142857144</ele><time>2026-04-04T09:49:45Z</time></trkpt><trkpt lat="40.27437415601276" lon="9.597932919766436"><ele>447.8571428571429</ele><time>2026-04-04T09:49:46Z</time></trkpt><trkpt lat="40.27429296426496" lon="9.597932741909561"><ele>444.2857142857143</ele><time>2026-04-04T09:49:48Z</time></trkpt><trkpt lat="40.27426484547911" lon="9.598020943655987"><ele>440.7142857142857</ele><time>2026-04-04T09:49:51Z</time></trkpt><trkpt lat="40.274306332539844" lon="9.598088616586384"><ele>437.14285714285717</ele><time>2026-04-04T09:49:54Z</time></trkpt><trkpt lat="40.27436836661856" lon="9.598066856893452"><ele>433.57142857142856</ele><time>2026-04-04T09:49:58Z</time></trkpt><trkpt lat="40.27431017983674" lon="9.598102867109866"><ele>430.0</ele><time>2026-04-04T09:58:04.999Z</time></trkpt><trkpt lat="40.2743089080048" lon="9.598010818504239"><ele>430.00000000000006</ele><time>2026-04-04T10:04:09Z</time></trkpt><trkpt lat="40.27424950697885" lon="9.597940871972693"><ele>430.0</ele><time>2026-04-04T10:04:12Z</time></trkpt><trkpt lat="40.27415271139958" lon="9.59790184552903"><ele>430.0</ele><time>2026-04-04T10:04:14Z</time></trkpt><trkpt lat="40.2740886291617" lon="9.597893949530153"><ele>430.0</ele><time>2026-04-04T10:04:15Z</time></trkpt><trkpt lat="40.27401246760313" lon="9.597883745102829"><ele>430.00000000000006</ele><time>2026-04-04T10:04:16Z</time></trkpt><trkpt lat="40.27392178707176" lon="9.597878833292413"><ele>430.0</ele><time>2026-04-04T10:04:17Z</time></trkpt><trkpt lat="40.273824925010985" lon="9.59787916355147"><ele>428.75</ele><time>2026-04-04T10:04:18Z</time></trkpt><trkpt lat="40.273708722054266" lon="9.597879867701838"><ele>427.5</ele><time>2026-04-04T10:04:19Z</time></trkpt><trkpt lat="40.27358630397719" lon="9.597858878197805"><ele>426.25</ele><time>2026-04-04T10:04:20Z</time></trkpt><trkpt lat="40.27346072310876" lon="9.597853775108106"><ele>425.0</ele><time>2026-04-04T10:04:21Z</time></trkpt><trkpt lat="40.27331187276773" lon="9.597866060505423"><ele>425.0</ele><time>2026-04-04T10:04:22Z</time></trkpt><trkpt lat="40.27315081419502" lon="9.597862873831358"><ele>425.0</ele><time>2026-04-04T10:04:23Z</time></trkpt><trkpt lat="40.273013187232316" lon="9.597873404021305"><ele>425.0</ele><time>2026-04-04T10:04:24Z</time></trkpt><trkpt lat="40.27290396254892" lon="9.597907376039496"><ele>425.0</ele><time>2026-04-04T10:04:25Z</time></trkpt><trkpt lat="40.272812227039665" lon="9.597979038826733"><ele>429.0</ele><time>2026-04-04T10:04:26Z</time></trkpt><trkpt lat="40.27273645559189" lon="9.598098830788054"><ele>433.0</ele><time>2026-04-04T10:04:27Z</time></trkpt><trkpt lat="40.27266097777399" lon="9.598258053358146"><ele>437.0</ele><time>2026-04-04T10:04:28Z</time></trkpt><trkpt lat="40.27257493936117" lon="9.598457215647437"><ele>441.0</ele><time>2026-04-04T10:04:29Z</time></trkpt><trkpt lat="40.272489373346986" lon="9.598646744573005"><ele>437.4</ele><time>2026-04-04T10:04:30Z</time></trkpt><trkpt lat="40.27242321516784" lon="9.598782242260762"><ele>433.8</ele><time>2026-04-04T10:04:31Z</time></trkpt><trkpt lat="40.27237023533645" lon="9.598900054685654"><ele>430.2</ele><time>2026-04-04T10:04:32Z</time></trkpt><trkpt lat="40.272336535691856" lon="9.599008442516217"><ele>426.59999999999997</ele><time>2026-04-04T10:04:33Z</time></trkpt><trkpt lat="40.27233505245659" lon="9.599104093368389"><ele>423.0</ele><time>2026-04-04T10:04:34Z</time></trkpt><trkpt lat="40.27236717464573" lon="9.59917701523363"><ele>423.0</ele><time>2026-04-04T10:04:35Z</time></trkpt><trkpt lat="40.272430920278836" lon="9.599220039803182"><ele>423.0</ele><time>2026-04-04T10:04:36Z</time></trkpt><trkpt lat="40.272510060265155" lon="9.599217584726103"><ele>423.0</ele><time>2026-04-04T10:04:37Z</time></trkpt><trkpt lat="40.27258629974353" lon="9.599167107299492"><ele>423.0</ele><time>2026-04-04T10:04:38Z</time></trkpt><trkpt lat="40.27264362216671" lon="9.599076537354286"><ele>423.0</ele><time>2026-04-04T10:04:39Z</time></trkpt><trkpt lat="40.27269934604753" lon="9.59893886884582"><ele>423.0</ele><time>2026-04-04T10:04:40Z</time></trkpt><trkpt lat="40.27278246354884" lon="9.598770924911497"><ele>427.5</ele><time>2026-04-04T10:04:41Z</time></trkpt><trkpt lat="40.272854182350265" lon="9.59857961143943"><ele>432.0</ele><time>2026-04-04T10:04:42Z</time></trkpt><trkpt lat="40.2729178858167" lon="9.598445453607628"><ele>436.5</ele><time>2026-04-04T10:04:43Z</time></trkpt><trkpt lat="40.272979576174656" lon="9.598334187864207"><ele>441.0</ele><time>2026-04-04T10:04:44Z</time></trkpt><trkpt lat="40.2730557668674" lon="9.598260930511062"><ele>437.0</ele><time>2026-04-04T10:04:45Z</time></trkpt><trkpt lat="40.27315002068716" lon="9.598230407068298"><ele>433.0</ele><time>2026-04-04T10:04:46Z</time></trkpt><trkpt lat="40.273275869314304" lon="9.598253355364507"><ele>429.0</ele><time>2026-04-04T10:04:47Z</time></trkpt><trkpt lat="40.27341412562037" lon="9.598306881623792"><ele>425.0</ele><time>2026-04-04T10:04:48Z</time></trkpt><trkpt lat="40.273570502799494" lon="9.598373613565789"><ele>425.0</ele><time>2026-04-04T10:04:49Z</time></trkpt><trkpt lat="40.273720578620626" lon="9.598459995955176"><ele>425.0</ele><time>2026-04-04T10:04:50Z</time></trkpt><trkpt lat="40.27383149765693" lon="9.59856585205989"><ele>425.0</ele><time>2026-04-04T10:04:51Z</time></trkpt><trkpt lat="40.27391252157047" lon="9.598685623267798"><ele>425.0</ele><time>2026-04-04T10:04:52Z</time></trkpt><trkpt lat="40.27396484715575" lon="9.598819599982505"><ele>419.75</ele><time>2026-04-04T10:04:53Z</time></trkpt><trkpt lat="40.27402415558896" lon="9.598937327363213"><ele>414.5</ele><time>2026-04-04T10:04:54Z</time></trkpt><trkpt lat="40.27412758900491" lon="9.59900859032912"><ele>409.25</ele><time>2026-04-04T10:04:55Z</time></trkpt><trkpt lat="40.27426890567447" lon="9.59904168237329"><ele>404.0</ele><time>2026-04-04T10:04:56Z</time></trkpt><trkpt lat="40.27444418718485" lon="9.599046864994694"><ele>404.0</ele><time>2026-04-04T10:04:57Z</time></trkpt><trkpt lat="40.27462078826054" lon="9.599047565602643"><ele>404.0</ele><time>2026-04-04T10:04:58Z</time></trkpt><trkpt lat="40.274765046266495" lon="9.599052233240863"><ele>404.0</ele><time>2026-04-04T10:04:59Z</time></trkpt><trkpt lat="40.27488730422331" lon="9.599081661013443"><ele>404.0</ele><time>2026-04-04T10:05:00Z</time></trkpt><trkpt lat="40.27500098193509" lon="9.599157413101242"><ele>405.25</ele><time>2026-04-04T10:05:01Z</time></trkpt><trkpt lat="40.275127001539154" lon="9.599263580458008"><ele>406.5</ele><time>2026-04-04T10:05:02Z</time></trkpt><trkpt lat="40.27524016838517" lon="9.599351163535314"><ele>407.75</ele><time>2026-04-04T10:05:02.999Z</time></trkpt><trkpt lat="40.275319743404715" lon="9.599420752644313"><ele>409.0</ele><time>2026-04-04T10:05:03.999Z</time></trkpt><trkpt lat="40.27536408630554" lon="9.599502460169438"><ele>407.0</ele><time>2026-04-04T10:05:04.999Z</time></trkpt><trkpt lat="40.27537230185887" lon="9.599603221139626"><ele>405.0</ele><time>2026-04-04T10:05:05.999Z</time></trkpt><trkpt lat="40.275330273486496" lon="9.599698769379303"><ele>403.0</ele><time>2026-04-04T10:05:06.999Z</time></trkpt><trkpt lat="40.27515532764996" lon="9.599719545202221"><ele>401.0</ele><time>2026-04-04T10:05:08.999Z</time></trkpt><trkpt lat="40.27506258392456" lon="9.599656261147127"><ele>399.0</ele><time>2026-04-04T10:05:09.999Z</time></trkpt><trkpt lat="40.27492688877977" lon="9.599612076740323"><ele>399.0</ele><time>2026-04-04T10:05:10.999Z</time></trkpt><trkpt lat="40.274779047957715" lon="9.599541794810655"><ele>399.0</ele><time>2026-04-04T10:05:11.999Z</time></trkpt><trkpt lat="40.27461908169737" lon="9.599498798768215"><ele>399.0</ele><time>2026-04-04T10:05:12.999Z</time></trkpt><trkpt lat="40.2744420986803" lon="9.59948140515775"><ele>399.75</ele><time>2026-04-04T10:05:13.999Z</time></trkpt><trkpt lat="40.27427204259582" lon="9.599484583238928"><ele>400.5</ele><time>2026-04-04T10:05:14.999Z</time></trkpt><trkpt lat="40.27413523511605" lon="9.599464487602228"><ele>401.25</ele><time>2026-04-04T10:05:15.999Z</time></trkpt><trkpt lat="40.274010750459524" lon="9.599420681892429"><ele>402.0</ele><time>2026-04-04T10:05:16.999Z</time></trkpt><trkpt lat="40.273902127807915" lon="9.599346926858802"><ele>402.0</ele><time>2026-04-04T10:05:17.999Z</time></trkpt><trkpt lat="40.27380579293129" lon="9.599264360117157"><ele>402.0</ele><time>2026-04-04T10:05:18.999Z</time></trkpt><trkpt lat="40.273717491033686" lon="9.59922284340315"><ele>402.0</ele><time>2026-04-04T10:05:19.999Z</time></trkpt><trkpt lat="40.27364014811848" lon="9.599208894279865"><ele>402.0</ele><time>2026-04-04T10:05:20.999Z</time></trkpt><trkpt lat="40.27356542207335" lon="9.599236108348403"><ele>402.0</ele><time>2026-04-04T10:05:21.999Z</time></trkpt><trkpt lat="40.27349960050921" lon="9.599289277276634"><ele>402.0</ele><time>2026-04-04T10:05:22.999Z</time></trkpt><trkpt lat="40.2734504441009" lon="9.59935897443997"><ele>402.0</ele><time>2026-04-04T10:05:23.999Z</time></trkpt><trkpt lat="40.273417865947245" lon="9.599451441888286"><ele>402.0</ele><time>2026-04-04T10:05:24.999Z</time></trkpt><trkpt lat="40.273396470204105" lon="9.599578428187117"><ele>402.0</ele><time>2026-04-04T10:05:25.999Z</time></trkpt><trkpt lat="40.27337808783301" lon="9.59971453437981"><ele>402.0</ele><time>2026-04-04T10:05:27Z</time></trkpt><trkpt lat="40.273364959124216" lon="9.599863752559493"><ele>402.0</ele><time>2026-04-04T10:05:28Z</time></trkpt><trkpt lat="40.27336816559674" lon="9.600041533742289"><ele>398.0</ele><time>2026-04-04T10:05:29Z</time></trkpt><trkpt lat="40.2733698682323" lon="9.60020449473022"><ele>394.0</ele><time>2026-04-04T10:05:30Z</time></trkpt><trkpt lat="40.27338019665646" lon="9.60036189652478"><ele>390.0</ele><time>2026-04-04T10:05:31Z</time></trkpt><trkpt lat="40.273385001095875" lon="9.600517079167794"><ele>386.0</ele><time>2026-04-04T10:05:32Z</time></trkpt><trkpt lat="40.27338660184485" lon="9.600665839446709"><ele>383.5</ele><time>2026-04-04T10:05:33Z</time></trkpt><trkpt lat="40.27336469292347" lon="9.600805075132921"><ele>381.0</ele><time>2026-04-04T10:05:34Z</time></trkpt><trkpt lat="40.27331462509406" lon="9.600941808489953"><ele>378.5</ele><time>2026-04-04T10:05:35Z</time></trkpt><trkpt lat="40.2732226634225" lon="9.601065866924431"><ele>376.0</ele><time>2026-04-04T10:05:36Z</time></trkpt><trkpt lat="40.273132185127956" lon="9.601216468591737"><ele>373.75</ele><time>2026-04-04T10:05:37Z</time></trkpt><trkpt lat="40.273051210048834" lon="9.601348963072889"><ele>371.5</ele><time>2026-04-04T10:05:38Z</time></trkpt><trkpt lat="40.272974658381926" lon="9.601483886700493"><ele>369.25</ele><time>2026-04-04T10:05:39Z</time></trkpt><trkpt lat="40.2728715781291" lon="9.601576726474992"><ele>367.0</ele><time>2026-04-04T10:05:40Z</time></trkpt><trkpt lat="40.272741114145425" lon="9.601626075622583"><ele>367.0</ele><time>2026-04-04T10:05:41Z</time></trkpt><trkpt lat="40.272600574020586" lon="9.601671500293474"><ele>367.0</ele><time>2026-04-04T10:05:42Z</time></trkpt><trkpt lat="40.27245127114478" lon="9.601718644097193"><ele>367.0</ele><time>2026-04-04T10:05:43Z</time></trkpt><trkpt lat="40.27230294852588" lon="9.601766109874426"><ele>369.66666666666663</ele><time>2026-04-04T10:05:44Z</time></trkpt><trkpt lat="40.27214203874998" lon="9.601823289761148"><ele>372.3333333333333</ele><time>2026-04-04T10:05:45Z</time></trkpt><trkpt lat="40.27199153780396" lon="9.601907456943945"><ele>375.0</ele><time>2026-04-04T10:05:46Z</time></trkpt><trkpt lat="40.271856298138445" lon="9.602000268923575"><ele>373.5</ele><time>2026-04-04T10:05:47Z</time></trkpt><trkpt lat="40.271732866122576" lon="9.60208986883616"><ele>372.0</ele><time>2026-04-04T10:05:48Z</time></trkpt><trkpt lat="40.27162250094105" lon="9.602173943513872"><ele>370.5</ele><time>2026-04-04T10:05:49Z</time></trkpt><trkpt lat="40.2715222236116" lon="9.602278110345862"><ele>369.0</ele><time>2026-04-04T10:05:50Z</time></trkpt><trkpt lat="40.271422490292835" lon="9.602425079323"><ele>369.0</ele><time>2026-04-04T10:05:51Z</time></trkpt><trkpt lat="40.271314377029505" lon="9.602630417858032"><ele>369.0</ele><time>2026-04-04T10:05:52Z</time></trkpt><trkpt lat="40.2712001631016" lon="9.602861552557405"><ele>369.0</ele><time>2026-04-04T10:05:53Z</time></trkpt><trkpt lat="40.27108165950015" lon="9.603106740241246"><ele>363.3333333333333</ele><time>2026-04-04T10:05:54Z</time></trkpt><trkpt lat="40.27096686623074" lon="9.603340502220203"><ele>357.66666666666663</ele><time>2026-04-04T10:05:55Z</time></trkpt><trkpt lat="40.27087870358306" lon="9.603543558052182"><ele>352.0</ele><time>2026-04-04T10:05:56Z</time></trkpt><trkpt lat="40.27077710180524" lon="9.60365650979106"><ele>352.8</ele><time>2026-04-04T10:05:57Z</time></trkpt><trkpt lat="40.27068080613534" lon="9.603730375147908"><ele>353.6</ele><time>2026-04-04T10:05:58Z</time></trkpt><trkpt lat="40.27058149384891" lon="9.603804116804545"><ele>354.40000000000003</ele><time>2026-04-04T10:05:59Z</time></trkpt><trkpt lat="40.27051973060745" lon="9.603891780807334"><ele>355.20000000000005</ele><time>2026-04-04T10:06:00Z</time></trkpt><trkpt lat="40.270495566765874" lon="9.603990233925089"><ele>356.0</ele><time>2026-04-04T10:06:01Z</time></trkpt><trkpt lat="40.270516940439265" lon="9.60409127136952"><ele>356.0</ele><time>2026-04-04T10:06:02Z</time></trkpt><trkpt lat="40.27057917346755" lon="9.604171147845822"><ele>356.0</ele><time>2026-04-04T10:06:03Z</time></trkpt><trkpt lat="40.27066712810245" lon="9.604190393854527"><ele>356.0</ele><time>2026-04-04T10:06:04Z</time></trkpt><trkpt lat="40.27074936445075" lon="9.604157898052096"><ele>356.0</ele><time>2026-04-04T10:06:05Z</time></trkpt><trkpt lat="40.27083045180554" lon="9.604067575882512"><ele>356.0</ele><time>2026-04-04T10:06:06Z</time></trkpt><trkpt lat="40.27093028637792" lon="9.603954350923843"><ele>350.33333333333337</ele><time>2026-04-04T10:06:07Z</time></trkpt><trkpt lat="40.271077689375026" lon="9.603847603750637"><ele>344.6666666666667</ele><time>2026-04-04T10:06:08Z</time></trkpt><trkpt lat="40.2712595989032" lon="9.603739152662254"><ele>339.0</ele><time>2026-04-04T10:06:09Z</time></trkpt><trkpt lat="40.271443676955535" lon="9.603628068847769"><ele>339.0</ele><time>2026-04-04T10:06:10Z</time></trkpt><trkpt lat="40.27160420167851" lon="9.603529180499189"><ele>339.0</ele><time>2026-04-04T10:06:11Z</time></trkpt><trkpt lat="40.27172871810722" lon="9.603456816735946"><ele>339.0</ele><time>2026-04-04T10:06:12Z</time></trkpt><trkpt lat="40.27184005472526" lon="9.60340558754022"><ele>339.0</ele><time>2026-04-04T10:06:13Z</time></trkpt><trkpt lat="40.27195030267094" lon="9.603391102523414"><ele>339.0</ele><time>2026-04-04T10:06:14Z</time></trkpt><trkpt lat="40.27205603097005" lon="9.603435724076327"><ele>339.0</ele><time>2026-04-04T10:06:15Z</time></trkpt><trkpt lat="40.272147452468246" lon="9.603540005977122"><ele>339.0</ele><time>2026-04-04T10:06:16Z</time></trkpt><trkpt lat="40.272239455787215" lon="9.60367502008366"><ele>339.0</ele><time>2026-04-04T10:06:17Z</time></trkpt><trkpt lat="40.27233097510222" lon="9.603790037455099"><ele>334.75</ele><time>2026-04-04T10:06:18Z</time></trkpt><trkpt lat="40.272432325046445" lon="9.603851673232866"><ele>330.5</ele><time>2026-04-04T10:06:19Z</time></trkpt><trkpt lat="40.27254254075866" lon="9.603859274386311"><ele>326.25</ele><time>2026-04-04T10:06:20Z</time></trkpt><trkpt lat="40.27265364791925" lon="9.60380420454292"><ele>322.0</ele><time>2026-04-04T10:06:21Z</time></trkpt><trkpt lat="40.272760975103246" lon="9.603726128629408"><ele>322.0</ele><time>2026-04-04T10:06:22Z</time></trkpt><trkpt lat="40.27285180559506" lon="9.603703847090111"><ele>322.0</ele><time>2026-04-04T10:06:23Z</time></trkpt><trkpt lat="40.27293310201993" lon="9.603763943415753"><ele>322.0</ele><time>2026-04-04T10:06:24Z</time></trkpt><trkpt lat="40.2729983684565" lon="9.603888159422082"><ele>322.0</ele><time>2026-04-04T10:06:25Z</time></trkpt><trkpt lat="40.27304285732478" lon="9.604059592511334"><ele>322.0</ele><time>2026-04-04T10:06:26Z</time></trkpt><trkpt lat="40.27309513682451" lon="9.604243691376867"><ele>322.5</ele><time>2026-04-04T10:06:27Z</time></trkpt><trkpt lat="40.2731651200111" lon="9.604392919674742"><ele>323.0</ele><time>2026-04-04T10:06:28Z</time></trkpt><trkpt lat="40.273258342072005" lon="9.604490203158726"><ele>323.5</ele><time>2026-04-04T10:06:29Z</time></trkpt><trkpt lat="40.27337423844782" lon="9.60453256159643"><ele>324.0</ele><time>2026-04-04T10:06:30Z</time></trkpt><trkpt lat="40.27351859967938" lon="9.60452839630249"><ele>324.0</ele><time>2026-04-04T10:06:31Z</time></trkpt><trkpt lat="40.273686198469804" lon="9.604489570623546"><ele>324.0</ele><time>2026-04-04T10:06:32Z</time></trkpt><trkpt lat="40.27387517621708" lon="9.604466723120096"><ele>324.0</ele><time>2026-04-04T10:06:33Z</time></trkpt><trkpt lat="40.27404935975833" lon="9.604471089676247"><ele>317.6666666666667</ele><time>2026-04-04T10:06:34Z</time></trkpt><trkpt lat="40.27420078209945" lon="9.604513944043541"><ele>311.33333333333337</ele><time>2026-04-04T10:06:35Z</time></trkpt><trkpt lat="40.27434865361544" lon="9.604612231042973"><ele>305.0</ele><time>2026-04-04T10:06:36Z</time></trkpt><trkpt lat="40.27450391310362" lon="9.604750630267858"><ele>305.0</ele><time>2026-04-04T10:06:37Z</time></trkpt><trkpt lat="40.2746680738344" lon="9.604897013707594"><ele>305.0</ele><time>2026-04-04T10:06:38Z</time></trkpt><trkpt lat="40.27485635654242" lon="9.605041224294036"><ele>305.0</ele><time>2026-04-04T10:06:39Z</time></trkpt><trkpt lat="40.275049954797026" lon="9.605159976922842"><ele>304.33333333333337</ele><time>2026-04-04T10:06:40Z</time></trkpt><trkpt lat="40.275256701061224" lon="9.605263373957413"><ele>303.6666666666667</ele><time>2026-04-04T10:06:41Z</time></trkpt><trkpt lat="40.27545168144732" lon="9.605366295999046"><ele>303.0</ele><time>2026-04-04T10:06:42Z</time></trkpt><trkpt lat="40.275612379251974" lon="9.605480811439117"><ele>303.0</ele><time>2026-04-04T10:06:43Z</time></trkpt><trkpt lat="40.27572280742123" lon="9.605583943260712"><ele>303.0</ele><time>2026-04-04T10:06:44Z</time></trkpt><trkpt lat="40.27580257294419" lon="9.605672474805788"><ele>303.0</ele><time>2026-04-04T10:06:45Z</time></trkpt><trkpt lat="40.27585937066062" lon="9.605754533088273"><ele>303.0</ele><time>2026-04-04T10:06:46Z</time></trkpt><trkpt lat="40.27587490377327" lon="9.605851638979692"><ele>303.0</ele><time>2026-04-04T10:06:47Z</time></trkpt><trkpt lat="40.275839426950576" lon="9.605948438450387"><ele>303.0</ele><time>2026-04-04T10:06:48Z</time></trkpt><trkpt lat="40.27576298455702" lon="9.606003178437831"><ele>303.0</ele><time>2026-04-04T10:06:49Z</time></trkpt><trkpt lat="40.27566743928005" lon="9.60596067896156"><ele>303.0</ele><time>2026-04-04T10:06:50Z</time></trkpt><trkpt lat="40.275589280188875" lon="9.605879778833868"><ele>303.0</ele><time>2026-04-04T10:06:51Z</time></trkpt><trkpt lat="40.27547605039727" lon="9.605834605986258"><ele>303.0</ele><time>2026-04-04T10:06:52Z</time></trkpt><trkpt lat="40.27534061782196" lon="9.605878045318288"><ele>300.0</ele><time>2026-04-04T10:06:53Z</time></trkpt><trkpt lat="40.27520113813833" lon="9.605941960342514"><ele>297.0</ele><time>2026-04-04T10:06:54Z</time></trkpt><trkpt lat="40.275039645759385" lon="9.606031073812952"><ele>294.0</ele><time>2026-04-04T10:06:55Z</time></trkpt><trkpt lat="40.27487125430871" lon="9.606075950134192"><ele>294.3333333333333</ele><time>2026-04-04T10:06:56Z</time></trkpt><trkpt lat="40.274691945948106" lon="9.606095654304436"><ele>294.66666666666663</ele><time>2026-04-04T10:06:57Z</time></trkpt><trkpt lat="40.274521294604504" lon="9.606105212084419"><ele>295.0</ele><time>2026-04-04T10:06:58Z</time></trkpt><trkpt lat="40.27437795290038" lon="9.606136112357214"><ele>295.0</ele><time>2026-04-04T10:06:59Z</time></trkpt><trkpt lat="40.27425607301827" lon="9.606157595470798"><ele>295.0</ele><time>2026-04-04T10:07:00Z</time></trkpt><trkpt lat="40.2741636654093" lon="9.606219579056038"><ele>295.0</ele><time>2026-04-04T10:07:01Z</time></trkpt><trkpt lat="40.2740820538375" lon="9.606342129546801"><ele>295.0</ele><time>2026-04-04T10:07:02Z</time></trkpt><trkpt lat="40.27400792180341" lon="9.606511158978408"><ele>292.0</ele><time>2026-04-04T10:07:03Z</time></trkpt><trkpt lat="40.27389838218493" lon="9.60667441841555"><ele>289.0</ele><time>2026-04-04T10:07:04Z</time></trkpt><trkpt lat="40.273773295943236" lon="9.606831165291721"><ele>286.0</ele><time>2026-04-04T10:07:05Z</time></trkpt><trkpt lat="40.273643235031855" lon="9.606988664007307"><ele>282.0</ele><time>2026-04-04T10:07:06Z</time></trkpt><trkpt lat="40.273518022363206" lon="9.607163874535583"><ele>278.0</ele><time>2026-04-04T10:07:07Z</time></trkpt><trkpt lat="40.27336669676586" lon="9.607282462865548"><ele>274.0</ele><time>2026-04-04T10:07:08Z</time></trkpt><trkpt lat="40.27321405258034" lon="9.60736281909736"><ele>273.66666666666663</ele><time>2026-04-04T10:07:08.999Z</time></trkpt><trkpt lat="40.27308073294512" lon="9.60748861012799"><ele>273.3333333333333</ele><time>2026-04-04T10:07:09.999Z</time></trkpt><trkpt lat="40.272979664584874" lon="9.607640930878697"><ele>273.0</ele><time>2026-04-04T10:07:10.999Z</time></trkpt><trkpt lat="40.27287317793565" lon="9.607755053801633"><ele>269.75</ele><time>2026-04-04T10:07:11.999Z</time></trkpt><trkpt lat="40.27276732808708" lon="9.607831025706094"><ele>266.5</ele><time>2026-04-04T10:07:12.999Z</time></trkpt><trkpt lat="40.27264440610858" lon="9.607828107338552"><ele>263.25</ele><time>2026-04-04T10:07:13.999Z</time></trkpt><trkpt lat="40.27248434084636" lon="9.607833194768425"><ele>260.0</ele><time>2026-04-04T10:07:14.999Z</time></trkpt><trkpt lat="40.272301928195795" lon="9.607858905776673"><ele>259.4</ele><time>2026-04-04T10:07:15.999Z</time></trkpt><trkpt lat="40.27214915534412" lon="9.607856833850256"><ele>258.8</ele><time>2026-04-04T10:07:16.999Z</time></trkpt><trkpt lat="40.27203044071463" lon="9.607865189697028"><ele>258.2</ele><time>2026-04-04T10:07:17.999Z</time></trkpt><trkpt lat="40.27193823718149" lon="9.607879111065897"><ele>257.6</ele><time>2026-04-04T10:07:18.999Z</time></trkpt><trkpt lat="40.27187169887241" lon="9.607931437646247"><ele>257.0</ele><time>2026-04-04T10:07:19.999Z</time></trkpt><trkpt lat="40.271841640118815" lon="9.60802925647383"><ele>257.0</ele><time>2026-04-04T10:07:20.999Z</time></trkpt><trkpt lat="40.271855357057305" lon="9.608140284280477"><ele>257.0</ele><time>2026-04-04T10:07:21.999Z</time></trkpt><trkpt lat="40.27191412767881" lon="9.60823850856459"><ele>257.0</ele><time>2026-04-04T10:07:23Z</time></trkpt><trkpt lat="40.27201422274737" lon="9.60829405412236"><ele>257.0</ele><time>2026-04-04T10:07:24Z</time></trkpt><trkpt lat="40.272141128821" lon="9.608315126901443"><ele>257.0</ele><time>2026-04-04T10:07:25Z</time></trkpt><trkpt lat="40.27228135954304" lon="9.608346921809394"><ele>258.0</ele><time>2026-04-04T10:07:26Z</time></trkpt><trkpt lat="40.272411808729856" lon="9.608439747421569"><ele>259.0</ele><time>2026-04-04T10:07:27Z</time></trkpt><trkpt lat="40.272546699820204" lon="9.608595013682702"><ele>260.0</ele><time>2026-04-04T10:07:28Z</time></trkpt><trkpt lat="40.27271178942643" lon="9.608749289697109"><ele>256.33333333333337</ele><time>2026-04-04T10:07:29Z</time></trkpt><trkpt lat="40.27288941420982" lon="9.608878482799357"><ele>252.66666666666669</ele><time>2026-04-04T10:07:30Z</time></trkpt><trkpt lat="40.273057476429486" lon="9.608995410988792"><ele>249.0</ele><time>2026-04-04T10:07:31Z</time></trkpt><trkpt lat="40.27321055259729" lon="9.609083806717766"><ele>249.0</ele><time>2026-04-04T10:07:32Z</time></trkpt><trkpt lat="40.27336539292918" lon="9.609142068387449"><ele>249.0</ele><time>2026-04-04T10:07:33Z</time></trkpt><trkpt lat="40.27353036663969" lon="9.609173199304788"><ele>249.0</ele><time>2026-04-04T10:07:34Z</time></trkpt><trkpt lat="40.27370543645955" lon="9.609178069521631"><ele>249.0</ele><time>2026-04-04T10:07:35Z</time></trkpt><trkpt lat="40.27386764436303" lon="9.609155961709059"><ele>249.0</ele><time>2026-04-04T10:07:36Z</time></trkpt><trkpt lat="40.27401190407544" lon="9.60912960150742"><ele>249.0</ele><time>2026-04-04T10:07:37Z</time></trkpt><trkpt lat="40.2741459469512" lon="9.609113762900027"><ele>249.0</ele><time>2026-04-04T10:07:38Z</time></trkpt><trkpt lat="40.2742789885779" lon="9.609130736941793"><ele>247.75</ele><time>2026-04-04T10:07:39Z</time></trkpt><trkpt lat="40.27440563622247" lon="9.609182704635645"><ele>246.5</ele><time>2026-04-04T10:07:40Z</time></trkpt><trkpt lat="40.274532803152205" lon="9.609254494046398"><ele>245.25</ele><time>2026-04-04T10:07:41Z</time></trkpt><trkpt lat="40.2746668595012" lon="9.609325509659755"><ele>244.0</ele><time>2026-04-04T10:07:42Z</time></trkpt><trkpt lat="40.274800127727836" lon="9.6093979227131"><ele>243.0</ele><time>2026-04-04T10:07:43Z</time></trkpt><trkpt lat="40.27492638926555" lon="9.609473671430962"><ele>242.0</ele><time>2026-04-04T10:07:44Z</time></trkpt><trkpt lat="40.275053158220736" lon="9.609570105071793"><ele>241.0</ele><time>2026-04-04T10:07:45Z</time></trkpt><trkpt lat="40.2751763578732" lon="9.609678773908035"><ele>240.0</ele><time>2026-04-04T10:07:46Z</time></trkpt><trkpt lat="40.27529165952456" lon="9.609782724119958"><ele>237.5</ele><time>2026-04-04T10:07:47Z</time></trkpt><trkpt lat="40.27541068187973" lon="9.609874047755575"><ele>235.0</ele><time>2026-04-04T10:07:48Z</time></trkpt><trkpt lat="40.275547493425485" lon="9.609943363246689"><ele>232.5</ele><time>2026-04-04T10:07:49Z</time></trkpt><trkpt lat="40.275686888832915" lon="9.609978827068147"><ele>230.0</ele><time>2026-04-04T10:07:50Z</time></trkpt><trkpt lat="40.27580268504091" lon="9.609997621434038"><ele>229.99999999999997</ele><time>2026-04-04T10:07:51Z</time></trkpt><trkpt lat="40.27589247443199" lon="9.610010447184003"><ele>230.0</ele><time>2026-04-04T10:07:52Z</time></trkpt><trkpt lat="40.27596512634035" lon="9.610033174068404"><ele>229.99999999999997</ele><time>2026-04-04T10:07:53Z</time></trkpt><trkpt lat="40.276015842212004" lon="9.610087527186844"><ele>229.99999999999997</ele><time>2026-04-04T10:07:54Z</time></trkpt><trkpt lat="40.27604411734614" lon="9.610167348667456"><ele>230.0</ele><time>2026-04-04T10:07:55Z</time></trkpt><trkpt lat="40.276032201259774" lon="9.610255316145995"><ele>229.99999999999997</ele><time>2026-04-04T10:07:56Z</time></trkpt><trkpt lat="40.27598327368856" lon="9.610319580652176"><ele>229.99999999999997</ele><time>2026-04-04T10:07:57Z</time></trkpt><trkpt lat="40.27591038812049" lon="9.610355045065036"><ele>230.0</ele><time>2026-04-04T10:07:58Z</time></trkpt><trkpt lat="40.27579297194196" lon="9.610324025955142"><ele>230.0</ele><time>2026-04-04T10:07:59Z</time></trkpt><trkpt lat="40.275665839812326" lon="9.61034712518705"><ele>230.0</ele><time>2026-04-04T10:08:00Z</time></trkpt><trkpt lat="40.27553462172222" lon="9.610415617778365"><ele>230.0</ele><time>2026-04-04T10:08:01Z</time></trkpt><trkpt lat="40.27540438125559" lon="9.61048198192962"><ele>225.33333333333334</ele><time>2026-04-04T10:08:02Z</time></trkpt><trkpt lat="40.27525748648708" lon="9.610558087572672"><ele>220.66666666666669</ele><time>2026-04-04T10:08:03Z</time></trkpt><trkpt lat="40.275109849938765" lon="9.610631218899304"><ele>216.0</ele><time>2026-04-04T10:08:04Z</time></trkpt><trkpt lat="40.274963231606876" lon="9.610676434209866"><ele>216.0</ele><time>2026-04-04T10:08:05Z</time></trkpt><trkpt lat="40.27481824038213" lon="9.61072921754309"><ele>216.0</ele><time>2026-04-04T10:08:06Z</time></trkpt><trkpt lat="40.27467417900139" lon="9.610780408984382"><ele>216.0</ele><time>2026-04-04T10:08:07Z</time></trkpt><trkpt lat="40.274551686835515" lon="9.610851751804052"><ele>216.0</ele><time>2026-04-04T10:08:08Z</time></trkpt><trkpt lat="40.274438585981855" lon="9.610941984384938"><ele>217.0</ele><time>2026-04-04T10:08:09Z</time></trkpt><trkpt lat="40.274328952849935" lon="9.61107728938549"><ele>218.0</ele><time>2026-04-04T10:08:10Z</time></trkpt><trkpt lat="40.27422551881028" lon="9.611241317402772"><ele>219.0</ele><time>2026-04-04T10:08:11Z</time></trkpt><trkpt lat="40.27410110129933" lon="9.611369371641707"><ele>216.0</ele><time>2026-04-04T10:08:12Z</time></trkpt><trkpt lat="40.27397834715902" lon="9.611506854103103"><ele>213.0</ele><time>2026-04-04T10:08:13Z</time></trkpt><trkpt lat="40.273852577757225" lon="9.611629516609574"><ele>210.0</ele><time>2026-04-04T10:08:14Z</time></trkpt><trkpt lat="40.273727929272845" lon="9.611735188844655"><ele>210.0</ele><time>2026-04-04T10:08:15Z</time></trkpt><trkpt lat="40.27360572306175" lon="9.611832589436755"><ele>210.0</ele><time>2026-04-04T10:08:16Z</time></trkpt><trkpt lat="40.27348630361766" lon="9.611917116291371"><ele>210.0</ele><time>2026-04-04T10:08:17Z</time></trkpt><trkpt lat="40.27335568081752" lon="9.611987313337062"><ele>210.0</ele><time>2026-04-04T10:08:18Z</time></trkpt><trkpt lat="40.2732160234855" lon="9.612044840416795"><ele>205.66666666666669</ele><time>2026-04-04T10:08:19Z</time></trkpt><trkpt lat="40.273080335784776" lon="9.61209985562634"><ele>201.33333333333334</ele><time>2026-04-04T10:08:20Z</time></trkpt><trkpt lat="40.2729327439793" lon="9.612159697417036"><ele>197.0</ele><time>2026-04-04T10:08:21Z</time></trkpt><trkpt lat="40.27278200898317" lon="9.612217447169181"><ele>197.0</ele><time>2026-04-04T10:08:22Z</time></trkpt><trkpt lat="40.272642138956" lon="9.612270305031167"><ele>197.0</ele><time>2026-04-04T10:08:23Z</time></trkpt><trkpt lat="40.27252206345559" lon="9.612315682406964"><ele>197.0</ele><time>2026-04-04T10:08:24Z</time></trkpt><trkpt lat="40.27240789901184" lon="9.612354403269212"><ele>197.0</ele><time>2026-04-04T10:08:25Z</time></trkpt><trkpt lat="40.27229866587628" lon="9.612364724421067"><ele>197.50000000000003</ele><time>2026-04-04T10:08:26Z</time></trkpt><trkpt lat="40.272192818776084" lon="9.612370298091642"><ele>198.0</ele><time>2026-04-04T10:08:27Z</time></trkpt><trkpt lat="40.272106343860216" lon="9.61239689470317"><ele>198.5</ele><time>2026-04-04T10:08:28Z</time></trkpt><trkpt lat="40.272031176998205" lon="9.612400178973052"><ele>199.0</ele><time>2026-04-04T10:08:29Z</time></trkpt><trkpt lat="40.271969560366664" lon="9.612464186406987"><ele>199.50000000000003</ele><time>2026-04-04T10:08:30Z</time></trkpt><trkpt lat="40.271928539253004" lon="9.612543901859507"><ele>200.0</ele><time>2026-04-04T10:08:31Z</time></trkpt><trkpt lat="40.27198043483141" lon="9.612692135294441"><ele>200.0</ele><time>2026-04-04T10:08:32Z</time></trkpt><trkpt lat="40.27203986349256" lon="9.61278056993288"><ele>200.0</ele><time>2026-04-04T10:08:33Z</time></trkpt><trkpt lat="40.272129351891415" lon="9.61281654077637"><ele>200.0</ele><time>2026-04-04T10:08:34Z</time></trkpt><trkpt lat="40.27224724097944" lon="9.612798471877579"><ele>200.0</ele><time>2026-04-04T10:08:35Z</time></trkpt><trkpt lat="40.27236420546843" lon="9.612798389545668"><ele>200.0</ele><time>2026-04-04T10:08:36Z</time></trkpt><trkpt lat="40.272476008186835" lon="9.61283724514677"><ele>195.0</ele><time>2026-04-04T10:08:37Z</time></trkpt><trkpt lat="40.27259915345003" lon="9.612892417396294"><ele>190.0</ele><time>2026-04-04T10:08:38Z</time></trkpt><trkpt lat="40.27276768582486" lon="9.612983849995326"><ele>185.0</ele><time>2026-04-04T10:08:39Z</time></trkpt><trkpt lat="40.2729448657577" lon="9.613100360258327"><ele>185.0</ele><time>2026-04-04T10:08:40Z</time></trkpt><trkpt lat="40.27313657805993" lon="9.6132653232291"><ele>185.0</ele><time>2026-04-04T10:08:41Z</time></trkpt><trkpt lat="40.27332889389673" lon="9.613441659127156"><ele>185.0</ele><time>2026-04-04T10:08:42Z</time></trkpt><trkpt lat="40.27351721077776" lon="9.613588521768346"><ele>185.0</ele><time>2026-04-04T10:08:43Z</time></trkpt><trkpt lat="40.27367720098692" lon="9.613690484221943"><ele>185.0</ele><time>2026-04-04T10:08:44Z</time></trkpt><trkpt lat="40.27385754675473" lon="9.613770110314872"><ele>179.5</ele><time>2026-04-04T10:08:45Z</time></trkpt><trkpt lat="40.27407443428959" lon="9.61381039926703"><ele>174.0</ele><time>2026-04-04T10:08:46Z</time></trkpt><trkpt lat="40.27431004931678" lon="9.613839969521013"><ele>174.0</ele><time>2026-04-04T10:08:47Z</time></trkpt><trkpt lat="40.27452899422506" lon="9.613887690032367"><ele>174.0</ele><time>2026-04-04T10:08:48Z</time></trkpt><trkpt lat="40.27472193159841" lon="9.613956853892107"><ele>174.0</ele><time>2026-04-04T10:08:49Z</time></trkpt><trkpt lat="40.27490546686158" lon="9.614038218808956"><ele>172.66666666666666</ele><time>2026-04-04T10:08:50Z</time></trkpt><trkpt lat="40.27507999976332" lon="9.61413045159421"><ele>171.33333333333331</ele><time>2026-04-04T10:08:51Z</time></trkpt><trkpt lat="40.27522872929356" lon="9.614243311237761"><ele>170.0</ele><time>2026-04-04T10:08:52Z</time></trkpt><trkpt lat="40.27536736642058" lon="9.61434755764461"><ele>170.0</ele><time>2026-04-04T10:08:53Z</time></trkpt><trkpt lat="40.27552590203492" lon="9.614406705889802"><ele>170.0</ele><time>2026-04-04T10:08:54Z</time></trkpt><trkpt lat="40.275694561334085" lon="9.614443864577053"><ele>170.0</ele><time>2026-04-04T10:08:55Z</time></trkpt><trkpt lat="40.275853079209845" lon="9.614458027820438"><ele>169.66666666666666</ele><time>2026-04-04T10:08:56Z</time></trkpt><trkpt lat="40.27602025787384" lon="9.614428384985482"><ele>169.33333333333334</ele><time>2026-04-04T10:08:57Z</time></trkpt><trkpt lat="40.27619189342837" lon="9.6143817389387"><ele>169.0</ele><time>2026-04-04T10:08:58Z</time></trkpt><trkpt lat="40.276370029551295" lon="9.614359639597495"><ele>168.0</ele><time>2026-04-04T10:08:59Z</time></trkpt><trkpt lat="40.27655204052446" lon="9.614383990116682"><ele>167.0</ele><time>2026-04-04T10:09:00Z</time></trkpt><trkpt lat="40.27672851493081" lon="9.614425626277475"><ele>166.0</ele><time>2026-04-04T10:09:01Z</time></trkpt><trkpt lat="40.27689908273862" lon="9.614499086137204"><ele>163.0</ele><time>2026-04-04T10:09:02Z</time></trkpt><trkpt lat="40.27707422078622" lon="9.61460246351803"><ele>160.0</ele><time>2026-04-04T10:09:03Z</time></trkpt><trkpt lat="40.27723100734337" lon="9.614696331999614"><ele>157.0</ele><time>2026-04-04T10:09:04Z</time></trkpt><trkpt lat="40.27736809539864" lon="9.61478955712529"><ele>157.0</ele><time>2026-04-04T10:09:05Z</time></trkpt><trkpt lat="40.27749946328472" lon="9.614908292352421"><ele>157.0</ele><time>2026-04-04T10:09:06Z</time></trkpt><trkpt lat="40.27763345466996" lon="9.615067444862005"><ele>157.0</ele><time>2026-04-04T10:09:07Z</time></trkpt><trkpt lat="40.27778054615878" lon="9.615275606090442"><ele>153.5</ele><time>2026-04-04T10:09:08Z</time></trkpt><trkpt lat="40.27795157267388" lon="9.615480450753774"><ele>150.0</ele><time>2026-04-04T10:09:09Z</time></trkpt><trkpt lat="40.2781282531774" lon="9.615677527406836"><ele>150.0</ele><time>2026-04-04T10:09:10Z</time></trkpt><trkpt lat="40.278313067973414" lon="9.615881508122955"><ele>150.0</ele><time>2026-04-04T10:09:11Z</time></trkpt><trkpt lat="40.278482162945394" lon="9.616082742371841"><ele>146.33333333333334</ele><time>2026-04-04T10:09:12Z</time></trkpt><trkpt lat="40.2786256949074" lon="9.616275673748257"><ele>142.66666666666669</ele><time>2026-04-04T10:09:13Z</time></trkpt><trkpt lat="40.27875242440977" lon="9.61647343500414"><ele>139.0</ele><time>2026-04-04T10:09:14Z</time></trkpt><trkpt lat="40.27887116297825" lon="9.616671951925033"><ele>140.33333333333334</ele><time>2026-04-04T10:09:15Z</time></trkpt><trkpt lat="40.27896477302035" lon="9.616886626960556"><ele>141.66666666666666</ele><time>2026-04-04T10:09:16Z</time></trkpt><trkpt lat="40.2790457407293" lon="9.617117817662544"><ele>143.0</ele><time>2026-04-04T10:09:17Z</time></trkpt><trkpt lat="40.27911794761672" lon="9.617343818202013"><ele>141.0</ele><time>2026-04-04T10:09:18Z</time></trkpt><trkpt lat="40.27918192491126" lon="9.617536274009831"><ele>139.0</ele><time>2026-04-04T10:09:19Z</time></trkpt><trkpt lat="40.279245576581495" lon="9.617716180919686"><ele>137.0</ele><time>2026-04-04T10:09:20Z</time></trkpt><trkpt lat="40.279297394490314" lon="9.617871840964549"><ele>135.0</ele><time>2026-04-04T10:09:21Z</time></trkpt><trkpt lat="40.27934036703813" lon="9.618001952343565"><ele>133.83333333333334</ele><time>2026-04-04T10:09:22Z</time></trkpt><trkpt lat="40.27937323515047" lon="9.618104372226329"><ele>132.66666666666666</ele><time>2026-04-04T10:09:23Z</time></trkpt><trkpt lat="40.27941355821475" lon="9.618227967573501"><ele>131.5</ele><time>2026-04-04T10:09:25Z</time></trkpt><trkpt lat="40.27945409088182" lon="9.61834485451772"><ele>130.33333333333331</ele><time>2026-04-04T10:09:27Z</time></trkpt><trkpt lat="40.27948087533612" lon="9.61843141553193"><ele>129.16666666666666</ele><time>2026-04-04T10:09:29Z</time></trkpt><trkpt lat="40.27951344536995" lon="9.618533665294168"><ele>128.0</ele><time>2026-04-04T10:09:32Z</time></trkpt><trkpt lat="40.27954751313327" lon="9.618630291466285"><ele>126.99999999999999</ele><time>2026-04-04T10:09:36Z</time></trkpt><trkpt lat="40.27957700953171" lon="9.618733732297652"><ele>126.0</ele><time>2026-04-04T10:09:39Z</time></trkpt><trkpt lat="40.27960036264975" lon="9.618842243604787"><ele>125.0</ele><time>2026-04-04T10:09:42Z</time></trkpt><trkpt lat="40.27960576718283" lon="9.618951709357862"><ele>124.0</ele><time>2026-04-04T10:09:44Z</time></trkpt><trkpt lat="40.279618504845175" lon="9.619070194054022"><ele>122.99999999999999</ele><time>2026-04-04T10:09:46Z</time></trkpt><trkpt lat="40.279653806303536" lon="9.619144116380657"><ele>122.0</ele><time>2026-04-04T10:09:47Z</time></trkpt><trkpt lat="40.27970028063799" lon="9.619228212830441"><ele>122.0</ele><time>2026-04-04T10:09:48Z</time></trkpt><trkpt lat="40.27974478233324" lon="9.619303873649345"><ele>121.99999999999999</ele><time>2026-04-04T10:09:49Z</time></trkpt><trkpt lat="40.27978949375724" lon="9.619401547802081"><ele>121.99999999999999</ele><time>2026-04-04T10:09:50Z</time></trkpt><trkpt lat="40.27983417502126" lon="9.619509602191064"><ele>122.0</ele><time>2026-04-04T10:09:51Z</time></trkpt><trkpt lat="40.27987742760481" lon="9.6196226796125"><ele>122.0</ele><time>2026-04-04T10:09:52Z</time></trkpt><trkpt lat="40.27992030686503" lon="9.619745750712204"><ele>122.25</ele><time>2026-04-04T10:09:53Z</time></trkpt><trkpt lat="40.279967590955955" lon="9.619878238146095"><ele>122.5</ele><time>2026-04-04T10:09:54Z</time></trkpt><trkpt lat="40.28001415889314" lon="9.620009444950353"><ele>122.75</ele><time>2026-04-04T10:09:55Z</time></trkpt><trkpt lat="40.28006315965232" lon="9.620141630444706"><ele>123.0</ele><time>2026-04-04T10:09:56Z</time></trkpt><trkpt lat="40.280113764973315" lon="9.620278178155317"><ele>121.4</ele><time>2026-04-04T10:09:57Z</time></trkpt><trkpt lat="40.28016321606156" lon="9.620409043485747"><ele>119.80000000000001</ele><time>2026-04-04T10:09:58Z</time></trkpt><trkpt lat="40.28021150328393" lon="9.620527677294563"><ele>118.2</ele><time>2026-04-04T10:09:59Z</time></trkpt><trkpt lat="40.2802596969609" lon="9.620638563503674"><ele>116.6</ele><time>2026-04-04T10:10:00Z</time></trkpt><trkpt lat="40.28030783276068" lon="9.620749428707436"><ele>115.0</ele><time>2026-04-04T10:10:01Z</time></trkpt><trkpt lat="40.280361174247545" lon="9.620871949662872"><ele>115.0</ele><time>2026-04-04T10:10:02Z</time></trkpt><trkpt lat="40.28041882265905" lon="9.621012636421094"><ele>115.0</ele><time>2026-04-04T10:10:03Z</time></trkpt><trkpt lat="40.28048251007769" lon="9.621171542076981"><ele>115.0</ele><time>2026-04-04T10:10:04Z</time></trkpt><trkpt lat="40.280544366930684" lon="9.621324157773696"><ele>115.0</ele><time>2026-04-04T10:10:05Z</time></trkpt><trkpt lat="40.280606733033" lon="9.621474896436538"><ele>114.75</ele><time>2026-04-04T10:10:06Z</time></trkpt><trkpt lat="40.280672373345034" lon="9.62163156475565"><ele>114.5</ele><time>2026-04-04T10:10:07Z</time></trkpt><trkpt lat="40.28073860714324" lon="9.621787036892506"><ele>114.25</ele><time>2026-04-04T10:10:08Z</time></trkpt><trkpt lat="40.28080006668607" lon="9.621931454858398"><ele>114.0</ele><time>2026-04-04T10:10:09Z</time></trkpt><trkpt lat="40.280856424227046" lon="9.62206238742321"><ele>112.0</ele><time>2026-04-04T10:10:10Z</time></trkpt><trkpt lat="40.28091131163168" lon="9.622193357232703"><ele>110.0</ele><time>2026-04-04T10:10:11Z</time></trkpt><trkpt lat="40.280967510322526" lon="9.62232780451119"><ele>108.0</ele><time>2026-04-04T10:10:12Z</time></trkpt><trkpt lat="40.28102579236893" lon="9.622469318373804"><ele>106.0</ele><time>2026-04-04T10:10:13Z</time></trkpt><trkpt lat="40.2810828343408" lon="9.622607175804037"><ele>106.0</ele><time>2026-04-04T10:10:14Z</time></trkpt><trkpt lat="40.28113978387446" lon="9.622742099874237"><ele>106.0</ele><time>2026-04-04T10:10:15Z</time></trkpt><trkpt lat="40.2811982629548" lon="9.622882045909355"><ele>106.0</ele><time>2026-04-04T10:10:16Z</time></trkpt><trkpt lat="40.28126034493463" lon="9.623028711006553"><ele>106.0</ele><time>2026-04-04T10:10:17Z</time></trkpt><trkpt lat="40.281322399947264" lon="9.623182192491456"><ele>106.5</ele><time>2026-04-04T10:10:18Z</time></trkpt><trkpt lat="40.281386195468436" lon="9.62334349745438"><ele>107.0</ele><time>2026-04-04T10:10:19Z</time></trkpt><trkpt lat="40.28145158969564" lon="9.623517551781639"><ele>107.5</ele><time>2026-04-04T10:10:20Z</time></trkpt><trkpt lat="40.281518875943334" lon="9.623703506713545"><ele>108.0</ele><time>2026-04-04T10:10:21Z</time></trkpt><trkpt lat="40.281582436992444" lon="9.623896253357753"><ele>105.75</ele><time>2026-04-04T10:10:22Z</time></trkpt><trkpt lat="40.2816400520039" lon="9.624083380617362"><ele>103.5</ele><time>2026-04-04T10:10:23Z</time></trkpt><trkpt lat="40.28169389261599" lon="9.624260601487157"><ele>101.25</ele><time>2026-04-04T10:10:24Z</time></trkpt><trkpt lat="40.28172462826634" lon="9.62444945094119"><ele>99.0</ele><time>2026-04-04T10:10:25Z</time></trkpt><trkpt lat="40.2817639643666" lon="9.62462852740719"><ele>96.75</ele><time>2026-04-04T10:10:27Z</time></trkpt><trkpt lat="40.28179229838482" lon="9.624781032522051"><ele>94.5</ele><time>2026-04-04T10:10:28Z</time></trkpt><trkpt lat="40.281818345352214" lon="9.624935488863581"><ele>92.25</ele><time>2026-04-04T10:10:29Z</time></trkpt><trkpt lat="40.281847959561595" lon="9.625103294520825"><ele>90.0</ele><time>2026-04-04T10:10:30Z</time></trkpt><trkpt lat="40.28187727344003" lon="9.625271848683687"><ele>88.75</ele><time>2026-04-04T10:10:31Z</time></trkpt><trkpt lat="40.28190594574413" lon="9.625444768674061"><ele>87.5</ele><time>2026-04-04T10:10:32Z</time></trkpt><trkpt lat="40.281933056318216" lon="9.625610035637218"><ele>86.25</ele><time>2026-04-04T10:10:33Z</time></trkpt><trkpt lat="40.2819623248222" lon="9.625780679800588"><ele>85.0</ele><time>2026-04-04T10:10:34Z</time></trkpt><trkpt lat="40.28198586974188" lon="9.625939616083473"><ele>85.0</ele><time>2026-04-04T10:10:35Z</time></trkpt><trkpt lat="40.28200504808874" lon="9.62609830557817"><ele>85.0</ele><time>2026-04-04T10:10:36Z</time></trkpt><trkpt lat="40.282025847543196" lon="9.626252898637105"><ele>85.0</ele><time>2026-04-04T10:10:37Z</time></trkpt><trkpt lat="40.28205069194377" lon="9.626418762041293"><ele>85.0</ele><time>2026-04-04T10:10:38Z</time></trkpt><trkpt lat="40.28207332412945" lon="9.626591418965203"><ele>84.0</ele><time>2026-04-04T10:10:39Z</time></trkpt><trkpt lat="40.282096162336856" lon="9.626754760191789"><ele>83.0</ele><time>2026-04-04T10:10:40Z</time></trkpt><trkpt lat="40.28211465983651" lon="9.626906957706886"><ele>82.0</ele><time>2026-04-04T10:10:41Z</time></trkpt><trkpt lat="40.2821306906576" lon="9.627058619616284"><ele>81.0</ele><time>2026-04-04T10:10:42Z</time></trkpt><trkpt lat="40.28214568253818" lon="9.627201795601989"><ele>80.0</ele><time>2026-04-04T10:10:43Z</time></trkpt><trkpt lat="40.28216622255635" lon="9.627341675563702"><ele>79.0</ele><time>2026-04-04T10:10:44Z</time></trkpt><trkpt lat="40.28218935133977" lon="9.627479107411988"><ele>78.0</ele><time>2026-04-04T10:10:45Z</time></trkpt><trkpt lat="40.28221091584297" lon="9.62761330677459"><ele>77.0</ele><time>2026-04-04T10:10:46.001Z</time></trkpt><trkpt lat="40.28223592617256" lon="9.62775470692161"><ele>76.0</ele><time>2026-04-04T10:10:47.001Z</time></trkpt><trkpt lat="40.2822578096925" lon="9.627900972892945"><ele>76.75</ele><time>2026-04-04T10:10:48.001Z</time></trkpt><trkpt lat="40.28228563204837" lon="9.628045193470253"><ele>77.5</ele><time>2026-04-04T10:10:49.001Z</time></trkpt><trkpt lat="40.28231521543009" lon="9.628192861775002"><ele>78.25</ele><time>2026-04-04T10:10:50.001Z</time></trkpt><trkpt lat="40.28234654049581" lon="9.628343394003334"><ele>79.0</ele><time>2026-04-04T10:10:51.001Z</time></trkpt><trkpt lat="40.28237537791214" lon="9.628485999638665"><ele>79.0</ele><time>2026-04-04T10:10:52.001Z</time></trkpt><trkpt lat="40.28240428773596" lon="9.628625346394383"><ele>79.0</ele><time>2026-04-04T10:10:53.001Z</time></trkpt><trkpt lat="40.28243886762233" lon="9.628768128732759"><ele>79.0</ele><time>2026-04-04T10:10:54.001Z</time></trkpt><trkpt lat="40.282486529272695" lon="9.628911637856854"><ele>79.0</ele><time>2026-04-04T10:10:55.001Z</time></trkpt><trkpt lat="40.28254908691436" lon="9.62905876460659"><ele>76.5</ele><time>2026-04-04T10:10:56.001Z</time></trkpt><trkpt lat="40.28262936334785" lon="9.629209014468032"><ele>74.0</ele><time>2026-04-04T10:10:57.001Z</time></trkpt><trkpt lat="40.282718723629934" lon="9.629354131462968"><ele>71.5</ele><time>2026-04-04T10:10:58.001Z</time></trkpt><trkpt lat="40.282814966777345" lon="9.629482704449808"><ele>69.0</ele><time>2026-04-04T10:10:59.001Z</time></trkpt><trkpt lat="40.28291762775171" lon="9.629601968441138"><ele>67.5</ele><time>2026-04-04T10:11:00.001Z</time></trkpt><trkpt lat="40.28301683400371" lon="9.629714908039"><ele>66.0</ele><time>2026-04-04T10:11:01.001Z</time></trkpt><trkpt lat="40.28311992653166" lon="9.629816830077669"><ele>64.5</ele><time>2026-04-04T10:11:02.001Z</time></trkpt><trkpt lat="40.283229961198316" lon="9.629898185950909"><ele>63.0</ele><time>2026-04-04T10:11:03.001Z</time></trkpt><trkpt lat="40.28334625461616" lon="9.629953769821523"><ele>63.0</ele><time>2026-04-04T10:11:04.001Z</time></trkpt><trkpt lat="40.28345899052877" lon="9.630002354807065"><ele>63.0</ele><time>2026-04-04T10:11:05.001Z</time></trkpt><trkpt lat="40.28356797257007" lon="9.630058414350723"><ele>63.0</ele><time>2026-04-04T10:11:06.001Z</time></trkpt><trkpt lat="40.283670255033435" lon="9.630121885186062"><ele>63.0</ele><time>2026-04-04T10:11:07.001Z</time></trkpt><trkpt lat="40.28375823991272" lon="9.630191087822851"><ele>63.0</ele><time>2026-04-04T10:11:08.001Z</time></trkpt><trkpt lat="40.28384173399376" lon="9.63026710072805"><ele>63.0</ele><time>2026-04-04T10:11:09.001Z</time></trkpt><trkpt lat="40.2839212770116" lon="9.63034658725646"><ele>63.0</ele><time>2026-04-04T10:11:10.001Z</time></trkpt><trkpt lat="40.28399822857634" lon="9.630426411557417"><ele>63.0</ele><time>2026-04-04T10:11:11.001Z</time></trkpt><trkpt lat="40.28407221309459" lon="9.63050606839596"><ele>63.0</ele><time>2026-04-04T10:11:12.001Z</time></trkpt><trkpt lat="40.284143971853155" lon="9.630587801459379"><ele>61.8</ele><time>2026-04-04T10:11:13.001Z</time></trkpt><trkpt lat="40.28420388664149" lon="9.63067892887368"><ele>60.599999999999994</ele><time>2026-04-04T10:11:14.001Z</time></trkpt><trkpt lat="40.28424892159413" lon="9.63078584864297"><ele>59.400000000000006</ele><time>2026-04-04T10:11:15.001Z</time></trkpt><trkpt lat="40.28427448717043" lon="9.630902447283729"><ele>58.2</ele><time>2026-04-04T10:11:16.001Z</time></trkpt><trkpt lat="40.28429889404607" lon="9.631015255042293"><ele>57.0</ele><time>2026-04-04T10:11:17.001Z</time></trkpt><trkpt lat="40.28432256226354" lon="9.631128154061216"><ele>56.2</ele><time>2026-04-04T10:11:18.001Z</time></trkpt><trkpt lat="40.28434522125239" lon="9.631242897538923"><ele>55.400000000000006</ele><time>2026-04-04T10:11:19.001Z</time></trkpt><trkpt lat="40.28436341681163" lon="9.631364759082778"><ele>54.599999999999994</ele><time>2026-04-04T10:11:20.001Z</time></trkpt><trkpt lat="40.28436697042251" lon="9.631507346367018"><ele>53.8</ele><time>2026-04-04T10:11:21.001Z</time></trkpt><trkpt lat="40.284348847235904" lon="9.631661448753833"><ele>53.0</ele><time>2026-04-04T10:11:22.001Z</time></trkpt><trkpt lat="40.28431353839984" lon="9.631829221119984"><ele>51.5</ele><time>2026-04-04T10:11:23.001Z</time></trkpt><trkpt lat="40.28428576503338" lon="9.631998280763852"><ele>50.0</ele><time>2026-04-04T10:11:24.001Z</time></trkpt><trkpt lat="40.28426152544011" lon="9.63215480650457"><ele>48.5</ele><time>2026-04-04T10:11:25.001Z</time></trkpt><trkpt lat="40.28423831724725" lon="9.632304855889464"><ele>47.0</ele><time>2026-04-04T10:11:26.001Z</time></trkpt><trkpt lat="40.28421719030763" lon="9.632441615572365"><ele>47.0</ele><time>2026-04-04T10:11:27.001Z</time></trkpt><trkpt lat="40.28419738622916" lon="9.632580955700671"><ele>47.0</ele><time>2026-04-04T10:11:28.001Z</time></trkpt><trkpt lat="40.28417674626034" lon="9.63271575123961"><ele>47.0</ele><time>2026-04-04T10:11:29.001Z</time></trkpt><trkpt lat="40.28415773353004" lon="9.632848468084255"><ele>47.0</ele><time>2026-04-04T10:11:30.001Z</time></trkpt><trkpt lat="40.28413881927018" lon="9.632976909324075"><ele>47.0</ele><time>2026-04-04T10:11:31.001Z</time></trkpt><trkpt lat="40.28411988499279" lon="9.633092449212418"><ele>46.0</ele><time>2026-04-04T10:11:32.001Z</time></trkpt><trkpt lat="40.28410073924459" lon="9.633210456444857"><ele>45.0</ele><time>2026-04-04T10:11:33.001Z</time></trkpt><trkpt lat="40.2840819974228" lon="9.63332778713392"><ele>44.0</ele><time>2026-04-04T10:11:34Z</time></trkpt><trkpt lat="40.28406733991566" lon="9.63344211116633"><ele>43.0</ele><time>2026-04-04T10:11:35Z</time></trkpt><trkpt lat="40.284053069017254" lon="9.633551030827064"><ele>42.0</ele><time>2026-04-04T10:11:36Z</time></trkpt><trkpt lat="40.28403834676462" lon="9.633662912423897"><ele>41.0</ele><time>2026-04-04T10:11:37Z</time></trkpt><trkpt lat="40.28402026272482" lon="9.633766974967296"><ele>40.5</ele><time>2026-04-04T10:11:38Z</time></trkpt><trkpt lat="40.283988624227504" lon="9.63386787688719"><ele>40.0</ele><time>2026-04-04T10:11:39Z</time></trkpt><trkpt lat="40.28394919683007" lon="9.633957056500757"><ele>39.5</ele><time>2026-04-04T10:11:40Z</time></trkpt><trkpt lat="40.283913121564545" lon="9.63404485489011"><ele>39.0</ele><time>2026-04-04T10:11:41Z</time></trkpt><trkpt lat="40.28388818641582" lon="9.634127647312702"><ele>38.5</ele><time>2026-04-04T10:11:42Z</time></trkpt><trkpt lat="40.283837046658036" lon="9.63426147149228"><ele>38.0</ele><time>2026-04-04T10:11:44Z</time></trkpt><trkpt lat="40.28378522809907" lon="9.634383904380375"><ele>35.6</ele><time>2026-04-04T10:11:46Z</time></trkpt><trkpt lat="40.283740108825405" lon="9.634512737408599"><ele>33.199999999999996</ele><time>2026-04-04T10:11:48Z</time></trkpt><trkpt lat="40.28369064271992" lon="9.634643324420443"><ele>30.8</ele><time>2026-04-04T10:11:50Z</time></trkpt><trkpt lat="40.283637822881836" lon="9.63477811349302"><ele>28.4</ele><time>2026-04-04T10:11:52Z</time></trkpt><trkpt lat="40.28359910685876" lon="9.63489793678634"><ele>26.0</ele><time>2026-04-04T10:11:54Z</time></trkpt><trkpt lat="40.28355178427093" lon="9.635012849753313"><ele>25.999999999999996</ele><time>2026-04-04T10:11:56Z</time></trkpt><trkpt lat="40.283517031837654" lon="9.635084286413134"><ele>26.0</ele><time>2026-04-04T10:11:58Z</time></trkpt><trkpt lat="40.28345337253017" lon="9.635159748552912"><ele>26.0</ele><time>2026-04-04T10:12:01Z</time></trkpt><trkpt lat="40.28341224334097" lon="9.635232813489573"><ele>26.0</ele><time>2026-04-04T10:12:04Z</time></trkpt><trkpt lat="40.283386063392854" lon="9.635322122509082"><ele>25.999999999999996</ele><time>2026-04-04T10:12:06Z</time></trkpt><trkpt lat="40.283435047136024" lon="9.635427147088425"><ele>26.0</ele><time>2026-04-04T10:12:08Z</time></trkpt><trkpt lat="40.283486987482036" lon="9.635486671217441"><ele>25.499999999999996</ele><time>2026-04-04T10:12:09Z</time></trkpt><trkpt lat="40.28354371930108" lon="9.635556508930314"><ele>25.0</ele><time>2026-04-04T10:12:10Z</time></trkpt><trkpt lat="40.283601821088915" lon="9.635625882660419"><ele>24.5</ele><time>2026-04-04T10:12:11Z</time></trkpt><trkpt lat="40.28365940952782" lon="9.63569081601555"><ele>24.0</ele><time>2026-04-04T10:12:12Z</time></trkpt><trkpt lat="40.2837191797277" lon="9.63575866435403"><ele>23.5</ele><time>2026-04-04T10:12:13Z</time></trkpt><trkpt lat="40.28376813321584" lon="9.635835650894103"><ele>23.0</ele><time>2026-04-04T10:12:14Z</time></trkpt><trkpt lat="40.28380891668125" lon="9.635933399291655"><ele>23.0</ele><time>2026-04-04T10:12:15Z</time></trkpt><trkpt lat="40.28384354672476" lon="9.63602716886663"><ele>23.0</ele><time>2026-04-04T10:12:16Z</time></trkpt><trkpt lat="40.28387398379671" lon="9.636105229865693"><ele>23.0</ele><time>2026-04-04T10:12:17Z</time></trkpt><trkpt lat="40.28389580409054" lon="9.6362272949556"><ele>23.0</ele><time>2026-04-04T10:12:19Z</time></trkpt><trkpt lat="40.2838458331362" lon="9.63633924078746"><ele>23.0</ele><time>2026-04-04T10:12:21Z</time></trkpt><trkpt lat="40.28378389005784" lon="9.636470558674855"><ele>20.2</ele><time>2026-04-04T10:12:23Z</time></trkpt><trkpt lat="40.28371992894128" lon="9.636609931302118"><ele>17.4</ele><time>2026-04-04T10:12:25Z</time></trkpt><trkpt lat="40.28368809717604" lon="9.636685450783059"><ele>14.6</ele><time>2026-04-04T10:12:26Z</time></trkpt><trkpt lat="40.283636402763136" lon="9.636813246540202"><ele>11.8</ele><time>2026-04-04T10:12:28Z</time></trkpt><trkpt lat="40.28360757005828" lon="9.636937434218263"><ele>9.0</ele><time>2026-04-04T10:12:30Z</time></trkpt><trkpt lat="40.28358951121566" lon="9.637056845859133"><ele>8.0</ele><time>2026-04-04T10:12:32Z</time></trkpt><trkpt lat="40.283569746879415" lon="9.637188616465547"><ele>7.0</ele><time>2026-04-04T10:12:34.001Z</time></trkpt><trkpt lat="40.283567466446335" lon="9.637314851614466"><ele>6.0</ele><time>2026-04-04T10:12:36.001Z</time></trkpt><trkpt lat="40.283578153206165" lon="9.637439349515626"><ele>5.0</ele><time>2026-04-04T10:12:38.001Z</time></trkpt><trkpt lat="40.28359728420631" lon="9.637554321120515"><ele>4.0</ele><time>2026-04-04T10:12:40.001Z</time></trkpt><trkpt lat="40.283636679982536" lon="9.637675862522785"><ele>3.9999999999999996</ele><time>2026-04-04T10:12:42.001Z</time></trkpt><trkpt lat="40.28367173129166" lon="9.637796102140712"><ele>4.0</ele><time>2026-04-04T10:12:44.001Z</time></trkpt><trkpt lat="40.28371123809149" lon="9.637917821669781"><ele>4.0</ele><time>2026-04-04T10:12:46.001Z</time></trkpt><trkpt lat="40.28375121436952" lon="9.63802551501908"><ele>4.0</ele><time>2026-04-04T10:12:48.001Z</time></trkpt><trkpt lat="40.283770763031995" lon="9.638122105777011"><ele>3.9999999999999996</ele><time>2026-04-04T10:12:50.001Z</time></trkpt><trkpt lat="40.283717418567676" lon="9.638179454712875"><ele>4.0</ele><time>2026-04-04T10:12:53.001Z</time></trkpt><trkpt lat="40.28364693249262" lon="9.638187352233048"><ele>3.6666666666666665</ele><time>2026-04-04T10:12:57.001Z</time></trkpt><trkpt lat="40.283579105749524" lon="9.63816002831683"><ele>3.333333333333333</ele><time>2026-04-04T10:13:02.001Z</time></trkpt><trkpt lat="40.283502076341" lon="9.638267662552064"><ele>3.0</ele><time>2026-04-04T10:13:04.001Z</time></trkpt><trkpt lat="40.28354134899828" lon="9.638342160122265"><ele>2.6666666666666665</ele><time>2026-04-04T10:13:05.001Z</time></trkpt><trkpt lat="40.283563996514665" lon="9.638440643928124"><ele>2.333333333333333</ele><time>2026-04-04T10:13:12.001Z</time></trkpt><trkpt lat="40.28363333772244" lon="9.638459161963883"><ele>2.0</ele><time>2026-04-04T10:13:15.001Z</time></trkpt><trkpt lat="40.283656328087766" lon="9.63854454109839"><ele>2.0</ele><time>2026-04-04T10:17:08Z</time></trkpt><trkpt lat="40.28366788158041" lon="9.63862748237035"><ele>2.0</ele><time>2026-04-04T10:17:13Z</time></trkpt><trkpt lat="40.28367031942493" lon="9.638709963720329"><ele>1.0</ele><time>2026-04-04T10:17:18Z</time></trkpt><trkpt lat="40.283676257761655" lon="9.638617400827908"><ele>2.0</ele><time>2026-04-04T10:18:43Z</time></trkpt><trkpt lat="40.2836643767997" lon="9.638522837919753"><ele>2.0</ele><time>2026-04-04T10:18:49Z</time></trkpt><trkpt lat="40.283725640503604" lon="9.638560820844226"><ele>2.0</ele><time>2026-04-04T10:19:15Z</time></trkpt><trkpt lat="40.28373971550468" lon="9.63865048193526"><ele>1.0</ele><time>2026-04-04T10:19:54.001Z</time></trkpt></trkseg><trkseg><trkpt lat="40.283671330445955" lon="9.638460274305338"><ele>2.0</ele><time>2026-04-04T12:14:03Z</time></trkpt><trkpt lat="40.283719859911564" lon="9.638515997412837"><ele>2.0</ele><time>2026-04-04T12:18:28.999Z</time></trkpt><trkpt lat="40.28372597103843" lon="9.63863774379385"><ele>2.0</ele><time>2026-04-04T12:18:30.999Z</time></trkpt><trkpt lat="40.28373889455008" lon="9.638789364140578"><ele>2.0</ele><time>2026-04-04T12:18:32.999Z</time></trkpt><trkpt lat="40.283751619571646" lon="9.638901039403068"><ele>2.0</ele><time>2026-04-04T12:18:34.999Z</time></trkpt><trkpt lat="40.28381110630869" lon="9.63898918749625"><ele>1.8333333333333333</ele><time>2026-04-04T12:18:36.999Z</time></trkpt><trkpt lat="40.28390425394692" lon="9.63900701000129"><ele>1.6666666666666665</ele><time>2026-04-04T12:18:39.999Z</time></trkpt><trkpt lat="40.2839776555232" lon="9.638979677134762"><ele>1.5</ele><time>2026-04-04T12:18:42.999Z</time></trkpt><trkpt lat="40.283998275699545" lon="9.63889348154913"><ele>1.3333333333333333</ele><time>2026-04-04T12:18:44.999Z</time></trkpt><trkpt lat="40.28397770459947" lon="9.638758828148719"><ele>1.1666666666666665</ele><time>2026-04-04T12:18:46.999Z</time></trkpt><trkpt lat="40.28397480710652" lon="9.638660937452647"><ele>1.0</ele><time>2026-04-04T12:18:47.999Z</time></trkpt><trkpt lat="40.283979743444284" lon="9.638528336887138"><ele>2.5</ele><time>2026-04-04T12:18:49.999Z</time></trkpt><trkpt lat="40.2839855540095" lon="9.638438104054112"><ele>4.0</ele><time>2026-04-04T12:18:50.999Z</time></trkpt><trkpt lat="40.283999232482536" lon="9.638347870947305"><ele>5.5</ele><time>2026-04-04T12:18:51.999Z</time></trkpt><trkpt lat="40.28402873670067" lon="9.638249033548597"><ele>7.0</ele><time>2026-04-04T12:18:52.999Z</time></trkpt><trkpt lat="40.28407270267358" lon="9.6381661102946"><ele>8.5</ele><time>2026-04-04T12:18:53.999Z</time></trkpt><trkpt lat="40.284122265375586" lon="9.63805303744127"><ele>10.0</ele><time>2026-04-04T12:18:54.999Z</time></trkpt><trkpt lat="40.28416450360412" lon="9.637944200617401"><ele>10.0</ele><time>2026-04-04T12:18:55.999Z</time></trkpt><trkpt lat="40.284206998437696" lon="9.637840564378696"><ele>10.0</ele><time>2026-04-04T12:18:56.999Z</time></trkpt><trkpt lat="40.28424141685112" lon="9.637761207979304"><ele>10.0</ele><time>2026-04-04T12:18:57.999Z</time></trkpt><trkpt lat="40.284290568020126" lon="9.63765219324281"><ele>10.0</ele><time>2026-04-04T12:18:59.999Z</time></trkpt><trkpt lat="40.28435421776373" lon="9.637496084746804"><ele>10.0</ele><time>2026-04-04T12:19:01.999Z</time></trkpt><trkpt lat="40.284395546817706" lon="9.637406919803198"><ele>10.0</ele><time>2026-04-04T12:19:02.999Z</time></trkpt><trkpt lat="40.28445823978583" lon="9.637239462053408"><ele>10.0</ele><time>2026-04-04T12:19:04.999Z</time></trkpt><trkpt lat="40.28448402075643" lon="9.637157474386774"><ele>10.0</ele><time>2026-04-04T12:19:05.999Z</time></trkpt><trkpt lat="40.28451750701722" lon="9.637072350501233"><ele>10.0</ele><time>2026-04-04T12:19:06.999Z</time></trkpt><trkpt lat="40.28455235336219" lon="9.637000099888299"><ele>10.0</ele><time>2026-04-04T12:19:07.999Z</time></trkpt><trkpt lat="40.28462414493691" lon="9.636866855304946"><ele>11.333333333333334</ele><time>2026-04-04T12:19:09.999Z</time></trkpt><trkpt lat="40.28469330854449" lon="9.636726030202652"><ele>12.666666666666668</ele><time>2026-04-04T12:19:11.999Z</time></trkpt><trkpt lat="40.28473209484149" lon="9.636652261345125"><ele>14.0</ele><time>2026-04-04T12:19:12.999Z</time></trkpt><trkpt lat="40.28478373312759" lon="9.636579970490128"><ele>15.333333333333334</ele><time>2026-04-04T12:19:13.999Z</time></trkpt><trkpt lat="40.284847034017005" lon="9.636513405004543"><ele>16.666666666666668</ele><time>2026-04-04T12:19:14.999Z</time></trkpt><trkpt lat="40.28492492766331" lon="9.636451595628026"><ele>18.0</ele><time>2026-04-04T12:19:15.999Z</time></trkpt><trkpt lat="40.28500663933355" lon="9.6363946470137"><ele>19.2</ele><time>2026-04-04T12:19:16.999Z</time></trkpt><trkpt lat="40.285091638545794" lon="9.636336183481774"><ele>20.4</ele><time>2026-04-04T12:19:17.999Z</time></trkpt><trkpt lat="40.2851834398881" lon="9.636282270555666"><ele>21.599999999999998</ele><time>2026-04-04T12:19:18.999Z</time></trkpt><trkpt lat="40.285284013757945" lon="9.636221777679369"><ele>22.8</ele><time>2026-04-04T12:19:19.999Z</time></trkpt><trkpt lat="40.28538844105471" lon="9.636154428505435"><ele>24.0</ele><time>2026-04-04T12:19:20.999Z</time></trkpt><trkpt lat="40.28548919849899" lon="9.636072017605628"><ele>25.2</ele><time>2026-04-04T12:19:21.999Z</time></trkpt><trkpt lat="40.28557697525693" lon="9.635976746204461"><ele>26.4</ele><time>2026-04-04T12:19:22.999Z</time></trkpt><trkpt lat="40.285655330193904" lon="9.635890162176633"><ele>27.6</ele><time>2026-04-04T12:19:23.999Z</time></trkpt><trkpt lat="40.28573672701954" lon="9.635791670170782"><ele>28.8</ele><time>2026-04-04T12:19:24.999Z</time></trkpt><trkpt lat="40.285807075824145" lon="9.635700275345446"><ele>30.0</ele><time>2026-04-04T12:19:25.999Z</time></trkpt><trkpt lat="40.285881730270866" lon="9.635642607693374"><ele>30.0</ele><time>2026-04-04T12:19:26.999Z</time></trkpt><trkpt lat="40.28593751478937" lon="9.635582349309969"><ele>30.0</ele><time>2026-04-04T12:19:27.999Z</time></trkpt><trkpt lat="40.28602796954777" lon="9.635591922066917"><ele>30.0</ele><time>2026-04-04T12:19:28.999Z</time></trkpt><trkpt lat="40.28613030253968" lon="9.635557745799007"><ele>30.0</ele><time>2026-04-04T12:19:29.999Z</time></trkpt><trkpt lat="40.2862492234182" lon="9.63553180463537"><ele>30.0</ele><time>2026-04-04T12:19:30.999Z</time></trkpt><trkpt lat="40.286365467572814" lon="9.635486501156201"><ele>34.5</ele><time>2026-04-04T12:19:31.999Z</time></trkpt><trkpt lat="40.2864872928198" lon="9.635419211183425"><ele>39.0</ele><time>2026-04-04T12:19:32.999Z</time></trkpt><trkpt lat="40.286604853966786" lon="9.635343755855763"><ele>43.5</ele><time>2026-04-04T12:19:33.999Z</time></trkpt><trkpt lat="40.28671707464179" lon="9.635271540312633"><ele>48.0</ele><time>2026-04-04T12:19:34.999Z</time></trkpt><trkpt lat="40.28681867243838" lon="9.635209969451259"><ele>48.0</ele><time>2026-04-04T12:19:35.999Z</time></trkpt><trkpt lat="40.28690201500913" lon="9.635170927592158"><ele>48.0</ele><time>2026-04-04T12:19:36.999Z</time></trkpt><trkpt lat="40.28699029823066" lon="9.635143366352708"><ele>48.0</ele><time>2026-04-04T12:19:37.999Z</time></trkpt><trkpt lat="40.28709143661916" lon="9.635130453087923"><ele>48.0</ele><time>2026-04-04T12:19:38.999Z</time></trkpt><trkpt lat="40.28719925864908" lon="9.63514268861908"><ele>48.0</ele><time>2026-04-04T12:19:39.999Z</time></trkpt><trkpt lat="40.28731428060973" lon="9.635170008867513"><ele>49.0</ele><time>2026-04-04T12:19:40.999Z</time></trkpt><trkpt lat="40.28743113990822" lon="9.635198257716173"><ele>50.0</ele><time>2026-04-04T12:19:41.999Z</time></trkpt><trkpt lat="40.28755145668571" lon="9.635225953457804"><ele>51.0</ele><time>2026-04-04T12:19:42.999Z</time></trkpt><trkpt lat="40.287671488265815" lon="9.635263254559991"><ele>52.0</ele><time>2026-04-04T12:19:43.999Z</time></trkpt><trkpt lat="40.28778750419469" lon="9.63533325827682"><ele>53.5</ele><time>2026-04-04T12:19:44.999Z</time></trkpt><trkpt lat="40.287884819872176" lon="9.635443500400841"><ele>55.0</ele><time>2026-04-04T12:19:45.998Z</time></trkpt><trkpt lat="40.28795490350114" lon="9.635572871114643"><ele>56.5</ele><time>2026-04-04T12:19:46.998Z</time></trkpt><trkpt lat="40.28801017620252" lon="9.635716119821868"><ele>58.0</ele><time>2026-04-04T12:19:47.998Z</time></trkpt><trkpt lat="40.288042125923354" lon="9.635874735012894"><ele>58.0</ele><time>2026-04-04T12:19:48.998Z</time></trkpt><trkpt lat="40.28807555695621" lon="9.636040107822879"><ele>58.0</ele><time>2026-04-04T12:19:49.998Z</time></trkpt><trkpt lat="40.28812148329218" lon="9.636209191132384"><ele>58.0</ele><time>2026-04-04T12:19:50.998Z</time></trkpt><trkpt lat="40.2881876501269" lon="9.63637506425592"><ele>58.0</ele><time>2026-04-04T12:19:51.998Z</time></trkpt><trkpt lat="40.28826618673252" lon="9.636517761021356"><ele>59.25</ele><time>2026-04-04T12:19:52.998Z</time></trkpt><trkpt lat="40.2883571985256" lon="9.636645669869116"><ele>60.5</ele><time>2026-04-04T12:19:53.998Z</time></trkpt><trkpt lat="40.28846629905146" lon="9.636768015416836"><ele>61.75</ele><time>2026-04-04T12:19:54.998Z</time></trkpt><trkpt lat="40.28857703444064" lon="9.636877109978375"><ele>63.0</ele><time>2026-04-04T12:19:55.998Z</time></trkpt><trkpt lat="40.28869214358445" lon="9.636948857573305"><ele>64.75</ele><time>2026-04-04T12:19:56.998Z</time></trkpt><trkpt lat="40.28881794614852" lon="9.636982937257764"><ele>66.5</ele><time>2026-04-04T12:19:57.998Z</time></trkpt><trkpt lat="40.288946221844185" lon="9.636980479573147"><ele>68.25</ele><time>2026-04-04T12:19:58.998Z</time></trkpt><trkpt lat="40.289066117360676" lon="9.63695021065883"><ele>70.0</ele><time>2026-04-04T12:19:59.998Z</time></trkpt><trkpt lat="40.289160232915215" lon="9.636907669507634"><ele>70.0</ele><time>2026-04-04T12:20:00.998Z</time></trkpt><trkpt lat="40.289236619239205" lon="9.636836148504026"><ele>70.0</ele><time>2026-04-04T12:20:01.998Z</time></trkpt><trkpt lat="40.289299677077146" lon="9.636733468883934"><ele>70.0</ele><time>2026-04-04T12:20:02.998Z</time></trkpt><trkpt lat="40.28933675140239" lon="9.636604271408855"><ele>70.0</ele><time>2026-04-04T12:20:03.998Z</time></trkpt><trkpt lat="40.28934659529756" lon="9.636458625311434"><ele>70.0</ele><time>2026-04-04T12:20:04.998Z</time></trkpt><trkpt lat="40.289331616650436" lon="9.636298597997687"><ele>70.75</ele><time>2026-04-04T12:20:05.998Z</time></trkpt><trkpt lat="40.28931895950244" lon="9.636129853330607"><ele>71.5</ele><time>2026-04-04T12:20:06.998Z</time></trkpt><trkpt lat="40.28929992945483" lon="9.635944484825734"><ele>72.25</ele><time>2026-04-04T12:20:07.998Z</time></trkpt><trkpt lat="40.28928031458629" lon="9.635745817204757"><ele>73.0</ele><time>2026-04-04T12:20:08.998Z</time></trkpt><trkpt lat="40.28926529392955" lon="9.635574781960612"><ele>73.0</ele><time>2026-04-04T12:20:09.999Z</time></trkpt><trkpt lat="40.2892558971317" lon="9.635450784472626"><ele>73.0</ele><time>2026-04-04T12:20:10.999Z</time></trkpt><trkpt lat="40.289253245060884" lon="9.63536159060001"><ele>73.0</ele><time>2026-04-04T12:20:11.999Z</time></trkpt><trkpt lat="40.28925149877613" lon="9.635258299357105"><ele>73.0</ele><time>2026-04-04T12:20:13.999Z</time></trkpt><trkpt lat="40.2892447225034" lon="9.635117980418741"><ele>73.0</ele><time>2026-04-04T12:20:17.999Z</time></trkpt><trkpt lat="40.28927887107755" lon="9.635008070018639"><ele>73.0</ele><time>2026-04-04T12:20:22.999Z</time></trkpt><trkpt lat="40.28923292356476" lon="9.63488832577374"><ele>74.0</ele><time>2026-04-04T12:20:23.999Z</time></trkpt><trkpt lat="40.289175383339874" lon="9.634802214917224"><ele>75.0</ele><time>2026-04-04T12:20:24.999Z</time></trkpt><trkpt lat="40.28910419829656" lon="9.63469856604424"><ele>76.0</ele><time>2026-04-04T12:20:25.999Z</time></trkpt><trkpt lat="40.28903339969348" lon="9.634595479707375"><ele>77.0</ele><time>2026-04-04T12:20:26.999Z</time></trkpt><trkpt lat="40.288963288584796" lon="9.634495791315823"><ele>78.0</ele><time>2026-04-04T12:20:27.999Z</time></trkpt><trkpt lat="40.28888217309557" lon="9.634387406981414"><ele>75.5</ele><time>2026-04-04T12:20:28.999Z</time></trkpt><trkpt lat="40.288794112717724" lon="9.634272314697593"><ele>73.0</ele><time>2026-04-04T12:20:29.999Z</time></trkpt><trkpt lat="40.28870112476164" lon="9.634154331765627"><ele>70.5</ele><time>2026-04-04T12:20:30.999Z</time></trkpt><trkpt lat="40.28861755784084" lon="9.634049742253826"><ele>68.0</ele><time>2026-04-04T12:20:31.999Z</time></trkpt><trkpt lat="40.288532129882455" lon="9.633956244640288"><ele>68.0</ele><time>2026-04-04T12:20:32.999Z</time></trkpt><trkpt lat="40.288442361666995" lon="9.633878768964841"><ele>68.0</ele><time>2026-04-04T12:20:33.999Z</time></trkpt><trkpt lat="40.28832818921259" lon="9.633842159613046"><ele>68.0</ele><time>2026-04-04T12:20:34.999Z</time></trkpt><trkpt lat="40.28820743624437" lon="9.63380841072459"><ele>68.0</ele><time>2026-04-04T12:20:35.999Z</time></trkpt><trkpt lat="40.288066467066876" lon="9.63380945480393"><ele>65.75</ele><time>2026-04-04T12:20:36.999Z</time></trkpt><trkpt lat="40.28791540602897" lon="9.633820823026026"><ele>63.5</ele><time>2026-04-04T12:20:37.999Z</time></trkpt><trkpt lat="40.28777853143841" lon="9.633790973059511"><ele>61.25</ele><time>2026-04-04T12:20:38.999Z</time></trkpt><trkpt lat="40.28764152454969" lon="9.633763125233866"><ele>59.0</ele><time>2026-04-04T12:20:39.999Z</time></trkpt><trkpt lat="40.287513321259574" lon="9.633718682315948"><ele>59.0</ele><time>2026-04-04T12:20:40.999Z</time></trkpt><trkpt lat="40.287400909572426" lon="9.633648038709916"><ele>59.0</ele><time>2026-04-04T12:20:41.999Z</time></trkpt><trkpt lat="40.28730415982213" lon="9.63355036558815"><ele>59.0</ele><time>2026-04-04T12:20:42.999Z</time></trkpt><trkpt lat="40.287192538379465" lon="9.633430513797439"><ele>59.0</ele><time>2026-04-04T12:20:43.999Z</time></trkpt><trkpt lat="40.28707988172886" lon="9.6332880972357"><ele>59.333333333333336</ele><time>2026-04-04T12:20:44.999Z</time></trkpt><trkpt lat="40.28695998550379" lon="9.633138933364737"><ele>59.66666666666667</ele><time>2026-04-04T12:20:45.999Z</time></trkpt><trkpt lat="40.28683914737697" lon="9.632983578504062"><ele>60.0</ele><time>2026-04-04T12:20:46.999Z</time></trkpt><trkpt lat="40.286721898159875" lon="9.632842332376967"><ele>61.33333333333333</ele><time>2026-04-04T12:20:47.999Z</time></trkpt><trkpt lat="40.28660642169842" lon="9.632702009763506"><ele>62.666666666666664</ele><time>2026-04-04T12:20:48.999Z</time></trkpt><trkpt lat="40.28648118108827" lon="9.632548254400122"><ele>64.0</ele><time>2026-04-04T12:20:49.999Z</time></trkpt><trkpt lat="40.28635139468066" lon="9.632394954239391"><ele>62.666666666666664</ele><time>2026-04-04T12:20:50.999Z</time></trkpt><trkpt lat="40.28622539714701" lon="9.632240939589083"><ele>61.33333333333333</ele><time>2026-04-04T12:20:51.999Z</time></trkpt><trkpt lat="40.28609416025295" lon="9.63207848476904"><ele>60.0</ele><time>2026-04-04T12:20:52.999Z</time></trkpt><trkpt lat="40.28596600320812" lon="9.631927654185167"><ele>60.0</ele><time>2026-04-04T12:20:53.999Z</time></trkpt><trkpt lat="40.28583728505298" lon="9.631773264871473"><ele>60.0</ele><time>2026-04-04T12:20:54.999Z</time></trkpt><trkpt lat="40.28571573036065" lon="9.631627735432302"><ele>60.0</ele><time>2026-04-04T12:20:55.999Z</time></trkpt><trkpt lat="40.28558862482602" lon="9.631496791111138"><ele>60.66666666666667</ele><time>2026-04-04T12:20:56.999Z</time></trkpt><trkpt lat="40.28547556927249" lon="9.631341572108996"><ele>61.333333333333336</ele><time>2026-04-04T12:20:57.999Z</time></trkpt><trkpt lat="40.28537402513915" lon="9.631186467223312"><ele>62.0</ele><time>2026-04-04T12:20:58.999Z</time></trkpt><trkpt lat="40.285292198505225" lon="9.631035673551628"><ele>62.0</ele><time>2026-04-04T12:20:59.999Z</time></trkpt><trkpt lat="40.28523526892514" lon="9.63087612575806"><ele>62.0</ele><time>2026-04-04T12:21:00.999Z</time></trkpt><trkpt lat="40.28520344309071" lon="9.630682368833268"><ele>62.0</ele><time>2026-04-04T12:21:01.999Z</time></trkpt><trkpt lat="40.28517224594907" lon="9.630483161763994"><ele>62.0</ele><time>2026-04-04T12:21:02.999Z</time></trkpt><trkpt lat="40.28511777957446" lon="9.630289054560434"><ele>64.66666666666667</ele><time>2026-04-04T12:21:03.999Z</time></trkpt><trkpt lat="40.285046413552514" lon="9.630109251550126"><ele>67.33333333333333</ele><time>2026-04-04T12:21:04.999Z</time></trkpt><trkpt lat="40.28496618118053" lon="9.629916536581378"><ele>70.0</ele><time>2026-04-04T12:21:05.999Z</time></trkpt><trkpt lat="40.2848820807903" lon="9.62971708436564"><ele>70.0</ele><time>2026-04-04T12:21:06.999Z</time></trkpt><trkpt lat="40.284794926262386" lon="9.629523269631315"><ele>70.0</ele><time>2026-04-04T12:21:07.999Z</time></trkpt><trkpt lat="40.28472130884775" lon="9.629321763323047"><ele>70.0</ele><time>2026-04-04T12:21:08.999Z</time></trkpt><trkpt lat="40.284599968000585" lon="9.629170351414608"><ele>71.66666666666666</ele><time>2026-04-04T12:21:09.999Z</time></trkpt><trkpt lat="40.28448670545557" lon="9.629010644224621"><ele>73.33333333333333</ele><time>2026-04-04T12:21:10.999Z</time></trkpt><trkpt lat="40.284371176485195" lon="9.628832852639977"><ele>75.0</ele><time>2026-04-04T12:21:11.999Z</time></trkpt><trkpt lat="40.28426619533659" lon="9.628639619518212"><ele>79.33333333333333</ele><time>2026-04-04T12:21:12.999Z</time></trkpt><trkpt lat="40.28415611623699" lon="9.62843863439058"><ele>83.66666666666666</ele><time>2026-04-04T12:21:13.999Z</time></trkpt><trkpt lat="40.284048244460244" lon="9.628235376407238"><ele>88.0</ele><time>2026-04-04T12:21:14.999Z</time></trkpt><trkpt lat="40.28393954996647" lon="9.628036209957841"><ele>86.66666666666666</ele><time>2026-04-04T12:21:15.999Z</time></trkpt><trkpt lat="40.28382177117413" lon="9.62783961720056"><ele>85.33333333333333</ele><time>2026-04-04T12:21:16.999Z</time></trkpt><trkpt lat="40.28370552973118" lon="9.627661043018698"><ele>84.0</ele><time>2026-04-04T12:21:17.999Z</time></trkpt><trkpt lat="40.28360333856769" lon="9.627501617072141"><ele>86.0</ele><time>2026-04-04T12:21:18.999Z</time></trkpt><trkpt lat="40.28352272860449" lon="9.627362365769406"><ele>88.0</ele><time>2026-04-04T12:21:19.999Z</time></trkpt><trkpt lat="40.283467044860245" lon="9.627237380629893"><ele>90.0</ele><time>2026-04-04T12:21:20.999Z</time></trkpt><trkpt lat="40.28342955024465" lon="9.62712015336488"><ele>92.0</ele><time>2026-04-04T12:21:21.999Z</time></trkpt><trkpt lat="40.28340918927678" lon="9.626987162642791"><ele>94.0</ele><time>2026-04-04T12:21:22.999Z</time></trkpt><trkpt lat="40.28340586502707" lon="9.626828529104964"><ele>95.5</ele><time>2026-04-04T12:21:23.999Z</time></trkpt><trkpt lat="40.28342774994191" lon="9.626656147382503"><ele>97.0</ele><time>2026-04-04T12:21:24.999Z</time></trkpt><trkpt lat="40.28346016796803" lon="9.626478138384133"><ele>98.5</ele><time>2026-04-04T12:21:25.999Z</time></trkpt><trkpt lat="40.28350859117442" lon="9.626290017644234"><ele>100.0</ele><time>2026-04-04T12:21:26.999Z</time></trkpt><trkpt lat="40.28357353039314" lon="9.626099363284716"><ele>101.75</ele><time>2026-04-04T12:21:27.999Z</time></trkpt><trkpt lat="40.28363977557827" lon="9.625912474523377"><ele>103.5</ele><time>2026-04-04T12:21:28.999Z</time></trkpt><trkpt lat="40.28369123036566" lon="9.625735702353797"><ele>105.25</ele><time>2026-04-04T12:21:29.999Z</time></trkpt><trkpt lat="40.283714571579466" lon="9.625580628751324"><ele>107.0</ele><time>2026-04-04T12:21:30.999Z</time></trkpt><trkpt lat="40.28370934624519" lon="9.62542215441079"><ele>109.0</ele><time>2026-04-04T12:21:31.999Z</time></trkpt><trkpt lat="40.2836751252588" lon="9.625244151675693"><ele>111.0</ele><time>2026-04-04T12:21:32.999Z</time></trkpt><trkpt lat="40.283615871613435" lon="9.625056407481628"><ele>113.0</ele><time>2026-04-04T12:21:33.999Z</time></trkpt><trkpt lat="40.28349193694148" lon="9.624639834850468"><ele>115.0</ele><time>2026-04-04T12:21:35.999Z</time></trkpt><trkpt lat="40.28343214257989" lon="9.624426891936329"><ele>117.0</ele><time>2026-04-04T12:21:36.999Z</time></trkpt><trkpt lat="40.2833723043406" lon="9.624223137373134"><ele>119.0</ele><time>2026-04-04T12:21:37.999Z</time></trkpt><trkpt lat="40.28330997204941" lon="9.624019936752703"><ele>119.0</ele><time>2026-04-04T12:21:38.999Z</time></trkpt><trkpt lat="40.28324493687231" lon="9.623808635972011"><ele>119.0</ele><time>2026-04-04T12:21:39.999Z</time></trkpt><trkpt lat="40.2831740926947" lon="9.62360187633116"><ele>119.0</ele><time>2026-04-04T12:21:40.999Z</time></trkpt><trkpt lat="40.283092267282754" lon="9.623398165531954"><ele>118.66666666666666</ele><time>2026-04-04T12:21:41.999Z</time></trkpt><trkpt lat="40.28300064090839" lon="9.623197030028246"><ele>118.33333333333334</ele><time>2026-04-04T12:21:42.999Z</time></trkpt><trkpt lat="40.28290714746895" lon="9.622999502531592"><ele>118.0</ele><time>2026-04-04T12:21:43.999Z</time></trkpt><trkpt lat="40.28282095943112" lon="9.622826644319893"><ele>120.0</ele><time>2026-04-04T12:21:44.999Z</time></trkpt><trkpt lat="40.282730748063" lon="9.622663980463024"><ele>122.0</ele><time>2026-04-04T12:21:45.999Z</time></trkpt><trkpt lat="40.28262422321726" lon="9.622520793871354"><ele>124.0</ele><time>2026-04-04T12:21:46.999Z</time></trkpt><trkpt lat="40.28248811896537" lon="9.622388303967433"><ele>124.0</ele><time>2026-04-04T12:21:47.999Z</time></trkpt><trkpt lat="40.282334706221825" lon="9.622270247887759"><ele>124.0</ele><time>2026-04-04T12:21:48.999Z</time></trkpt><trkpt lat="40.282165880735434" lon="9.622143272130382"><ele>124.0</ele><time>2026-04-04T12:21:49.999Z</time></trkpt><trkpt lat="40.2819871406916" lon="9.62201050171463"><ele>124.33333333333334</ele><time>2026-04-04T12:21:50.999Z</time></trkpt><trkpt lat="40.28181870424192" lon="9.621851278667748"><ele>124.66666666666666</ele><time>2026-04-04T12:21:51.998Z</time></trkpt><trkpt lat="40.28164197394415" lon="9.621728879125742"><ele>125.0</ele><time>2026-04-04T12:21:52.998Z</time></trkpt><trkpt lat="40.28147557739979" lon="9.621588270220931"><ele>121.33333333333333</ele><time>2026-04-04T12:21:53.998Z</time></trkpt><trkpt lat="40.28131289421833" lon="9.621453959576382"><ele>117.66666666666666</ele><time>2026-04-04T12:21:54.998Z</time></trkpt><trkpt lat="40.281159881633144" lon="9.621330756886053"><ele>114.0</ele><time>2026-04-04T12:21:55.998Z</time></trkpt><trkpt lat="40.28100978080804" lon="9.621215521092399"><ele>114.25</ele><time>2026-04-04T12:21:56.998Z</time></trkpt><trkpt lat="40.28086931875145" lon="9.621109702601899"><ele>114.5</ele><time>2026-04-04T12:21:57.998Z</time></trkpt><trkpt lat="40.280743497528846" lon="9.621014972153663"><ele>114.75</ele><time>2026-04-04T12:21:58.998Z</time></trkpt><trkpt lat="40.28062956246825" lon="9.620925396320269"><ele>115.0</ele><time>2026-04-04T12:21:59.998Z</time></trkpt><trkpt lat="40.28052325658555" lon="9.620845258715946"><ele>115.0</ele><time>2026-04-04T12:22:00.998Z</time></trkpt><trkpt lat="40.28036478468207" lon="9.620724594486598"><ele>115.0</ele><time>2026-04-04T12:22:02.998Z</time></trkpt><trkpt lat="40.28031156037018" lon="9.620662801888903"><ele>115.0</ele><time>2026-04-04T12:22:03.998Z</time></trkpt><trkpt lat="40.280255188854525" lon="9.620558799442586"><ele>115.0</ele><time>2026-04-04T12:22:04.998Z</time></trkpt><trkpt lat="40.28020457486569" lon="9.620418449447744"><ele>117.66666666666667</ele><time>2026-04-04T12:22:05.998Z</time></trkpt><trkpt lat="40.28014039200508" lon="9.62024736058874"><ele>120.33333333333334</ele><time>2026-04-04T12:22:06.998Z</time></trkpt><trkpt lat="40.280067827000295" lon="9.620056495170944"><ele>123.0</ele><time>2026-04-04T12:22:07.998Z</time></trkpt><trkpt lat="40.27999282484274" lon="9.619847584570273"><ele>123.0</ele><time>2026-04-04T12:22:08.998Z</time></trkpt><trkpt lat="40.27992834564625" lon="9.619655194211555"><ele>123.0</ele><time>2026-04-04T12:22:09.998Z</time></trkpt><trkpt lat="40.27986802269141" lon="9.619485040815842"><ele>123.0</ele><time>2026-04-04T12:22:10.998Z</time></trkpt><trkpt lat="40.27981984975044" lon="9.619341249585768"><ele>123.0</ele><time>2026-04-04T12:22:11.998Z</time></trkpt><trkpt lat="40.27978870327271" lon="9.619224559389687"><ele>122.80000000000001</ele><time>2026-04-04T12:22:12.998Z</time></trkpt><trkpt lat="40.27977545081664" lon="9.61912163565931"><ele>122.60000000000001</ele><time>2026-04-04T12:22:13.998Z</time></trkpt><trkpt lat="40.27977397876611" lon="9.619016812276039"><ele>122.39999999999999</ele><time>2026-04-04T12:22:14.998Z</time></trkpt><trkpt lat="40.279752351411915" lon="9.618903519305631"><ele>122.19999999999999</ele><time>2026-04-04T12:22:15.999Z</time></trkpt><trkpt lat="40.27968433799799" lon="9.61879287221857"><ele>122.0</ele><time>2026-04-04T12:22:16.999Z</time></trkpt><trkpt lat="40.27959843521083" lon="9.6186658914519"><ele>124.0</ele><time>2026-04-04T12:22:17.999Z</time></trkpt><trkpt lat="40.279524851712765" lon="9.618490239703247"><ele>126.0</ele><time>2026-04-04T12:22:18.999Z</time></trkpt><trkpt lat="40.27945199998868" lon="9.618275953103504"><ele>128.0</ele><time>2026-04-04T12:22:19.999Z</time></trkpt><trkpt lat="40.27937678832999" lon="9.618047132005936"><ele>128.0</ele><time>2026-04-04T12:22:20.999Z</time></trkpt><trkpt lat="40.279303728099784" lon="9.617823295727913"><ele>128.0</ele><time>2026-04-04T12:22:21.999Z</time></trkpt><trkpt lat="40.279230360079396" lon="9.617607840953733"><ele>128.0</ele><time>2026-04-04T12:22:22.999Z</time></trkpt><trkpt lat="40.279153684735206" lon="9.617390511249754"><ele>130.33333333333331</ele><time>2026-04-04T12:22:23.999Z</time></trkpt><trkpt lat="40.279080427412566" lon="9.617173782330209"><ele>132.66666666666666</ele><time>2026-04-04T12:22:24.999Z</time></trkpt><trkpt lat="40.27900698530522" lon="9.616952285379762"><ele>135.0</ele><time>2026-04-04T12:22:25.999Z</time></trkpt><trkpt lat="40.27892459040921" lon="9.61672419941329"><ele>136.33333333333334</ele><time>2026-04-04T12:22:26.999Z</time></trkpt><trkpt lat="40.278822309334835" lon="9.616504978009916"><ele>137.66666666666669</ele><time>2026-04-04T12:22:27.999Z</time></trkpt><trkpt lat="40.278693701606585" lon="9.61629443794047"><ele>139.0</ele><time>2026-04-04T12:22:28.999Z</time></trkpt><trkpt lat="40.27854391311558" lon="9.616094706439556"><ele>141.66666666666669</ele><time>2026-04-04T12:22:29.999Z</time></trkpt><trkpt lat="40.27838251676317" lon="9.615909879202599"><ele>144.33333333333334</ele><time>2026-04-04T12:22:30.999Z</time></trkpt><trkpt lat="40.27822485485603" lon="9.615737630563022"><ele>147.0</ele><time>2026-04-04T12:22:31.999Z</time></trkpt><trkpt lat="40.278065612290995" lon="9.615559051056366"><ele>147.0</ele><time>2026-04-04T12:22:32.999Z</time></trkpt><trkpt lat="40.27790572053596" lon="9.615374593065146"><ele>147.0</ele><time>2026-04-04T12:22:33.999Z</time></trkpt><trkpt lat="40.277747737759626" lon="9.615178166684721"><ele>147.0</ele><time>2026-04-04T12:22:34.999Z</time></trkpt><trkpt lat="40.27760374865343" lon="9.61498922468476"><ele>150.0</ele><time>2026-04-04T12:22:35.999Z</time></trkpt><trkpt lat="40.277476131658645" lon="9.614833761983737"><ele>153.0</ele><time>2026-04-04T12:22:36.999Z</time></trkpt><trkpt lat="40.277334553756106" lon="9.614700641486001"><ele>156.0</ele><time>2026-04-04T12:22:37.999Z</time></trkpt><trkpt lat="40.277166351625574" lon="9.614604738067216"><ele>156.0</ele><time>2026-04-04T12:22:38.999Z</time></trkpt><trkpt lat="40.27697954238269" lon="9.614514030902695"><ele>156.0</ele><time>2026-04-04T12:22:39.999Z</time></trkpt><trkpt lat="40.276798886636605" lon="9.614425933483222"><ele>156.0</ele><time>2026-04-04T12:22:40.999Z</time></trkpt><trkpt lat="40.27662475451674" lon="9.61435599690268"><ele>160.33333333333334</ele><time>2026-04-04T12:22:41.999Z</time></trkpt><trkpt lat="40.27643614346211" lon="9.61432131610967"><ele>164.66666666666669</ele><time>2026-04-04T12:22:42.999Z</time></trkpt><trkpt lat="40.27623798405901" lon="9.61432573661132"><ele>169.0</ele><time>2026-04-04T12:22:43.999Z</time></trkpt><trkpt lat="40.27604484440041" lon="9.61435349487321"><ele>169.0</ele><time>2026-04-04T12:22:44.999Z</time></trkpt><trkpt lat="40.275886494863336" lon="9.614395549881682"><ele>169.0</ele><time>2026-04-04T12:22:45.999Z</time></trkpt><trkpt lat="40.27575003136946" lon="9.614389673070685"><ele>169.0</ele><time>2026-04-04T12:22:46.999Z</time></trkpt><trkpt lat="40.27560451676896" lon="9.614354139183913"><ele>169.0</ele><time>2026-04-04T12:22:47.999Z</time></trkpt><trkpt lat="40.27543693289174" lon="9.61432595760346"><ele>169.33333333333334</ele><time>2026-04-04T12:22:48.999Z</time></trkpt><trkpt lat="40.2752677016103" lon="9.61424566987374"><ele>169.66666666666666</ele><time>2026-04-04T12:22:49.999Z</time></trkpt><trkpt lat="40.275119923096554" lon="9.614096211892178"><ele>170.0</ele><time>2026-04-04T12:22:50.999Z</time></trkpt><trkpt lat="40.27494345475615" lon="9.613993277209918"><ele>171.33333333333331</ele><time>2026-04-04T12:22:51.999Z</time></trkpt><trkpt lat="40.27475665391752" lon="9.61390011636797"><ele>172.66666666666666</ele><time>2026-04-04T12:22:52.999Z</time></trkpt><trkpt lat="40.27454297003073" lon="9.613834659225937"><ele>174.0</ele><time>2026-04-04T12:22:53.999Z</time></trkpt><trkpt lat="40.27432886337728" lon="9.613799606354862"><ele>174.0</ele><time>2026-04-04T12:22:54.999Z</time></trkpt><trkpt lat="40.27411047442327" lon="9.613756726945258"><ele>174.0</ele><time>2026-04-04T12:22:55.999Z</time></trkpt><trkpt lat="40.273910087284364" lon="9.613720762052699"><ele>174.0</ele><time>2026-04-04T12:22:56.999Z</time></trkpt><trkpt lat="40.27372998976001" lon="9.613663731611409"><ele>177.66666666666666</ele><time>2026-04-04T12:22:57.999Z</time></trkpt><trkpt lat="40.27355279498944" lon="9.613563799512642"><ele>181.33333333333331</ele><time>2026-04-04T12:22:58.999Z</time></trkpt><trkpt lat="40.27336809675618" lon="9.613422228930784"><ele>185.0</ele><time>2026-04-04T12:22:59.999Z</time></trkpt><trkpt lat="40.273185750617486" lon="9.61326374377511"><ele>185.0</ele><time>2026-04-04T12:23:00.999Z</time></trkpt><trkpt lat="40.2729972408243" lon="9.61310715635516"><ele>185.0</ele><time>2026-04-04T12:23:01.999Z</time></trkpt><trkpt lat="40.27280142585968" lon="9.6129696144525"><ele>185.0</ele><time>2026-04-04T12:23:02.999Z</time></trkpt><trkpt lat="40.272616270478075" lon="9.612867380711155"><ele>189.0</ele><time>2026-04-04T12:23:03.999Z</time></trkpt><trkpt lat="40.27244731167811" lon="9.612785441886995"><ele>193.0</ele><time>2026-04-04T12:23:04.999Z</time></trkpt><trkpt lat="40.27230118907515" lon="9.612736540627138"><ele>197.0</ele><time>2026-04-04T12:23:05.999Z</time></trkpt><trkpt lat="40.272171155915764" lon="9.612729306202915"><ele>197.6</ele><time>2026-04-04T12:23:06.999Z</time></trkpt><trkpt lat="40.272073921415696" lon="9.612727824372023"><ele>198.2</ele><time>2026-04-04T12:23:07.999Z</time></trkpt><trkpt lat="40.27200150966915" lon="9.612678795410812"><ele>198.8</ele><time>2026-04-04T12:23:08.999Z</time></trkpt><trkpt lat="40.271973506620725" lon="9.612576397928226"><ele>199.4</ele><time>2026-04-04T12:23:09.999Z</time></trkpt><trkpt lat="40.27200218319499" lon="9.612463218722805"><ele>200.0</ele><time>2026-04-04T12:23:10.999Z</time></trkpt><trkpt lat="40.27219950681178" lon="9.612413571428105"><ele>199.0</ele><time>2026-04-04T12:23:12.999Z</time></trkpt><trkpt lat="40.27232868400204" lon="9.612397531145817"><ele>198.0</ele><time>2026-04-04T12:23:13.999Z</time></trkpt><trkpt lat="40.27248273065265" lon="9.612385339480927"><ele>197.0</ele><time>2026-04-04T12:23:14.999Z</time></trkpt><trkpt lat="40.27265667280676" lon="9.612329187160553"><ele>197.0</ele><time>2026-04-04T12:23:15.999Z</time></trkpt><trkpt lat="40.27283821877586" lon="9.612245050296385"><ele>197.0</ele><time>2026-04-04T12:23:16.999Z</time></trkpt><trkpt lat="40.27302452948102" lon="9.612163778647135"><ele>197.0</ele><time>2026-04-04T12:23:17.999Z</time></trkpt><trkpt lat="40.273225700537495" lon="9.61208773555669"><ele>196.66666666666669</ele><time>2026-04-04T12:23:18.999Z</time></trkpt><trkpt lat="40.27342304693869" lon="9.612004094512596"><ele>196.33333333333331</ele><time>2026-04-04T12:23:19.999Z</time></trkpt><trkpt lat="40.27360720507664" lon="9.611895710447472"><ele>196.0</ele><time>2026-04-04T12:23:20.999Z</time></trkpt><trkpt lat="40.273780139340346" lon="9.611753870591102"><ele>199.66666666666666</ele><time>2026-04-04T12:23:21.999Z</time></trkpt><trkpt lat="40.27394095040359" lon="9.611596910306154"><ele>203.33333333333331</ele><time>2026-04-04T12:23:22.999Z</time></trkpt><trkpt lat="40.274100073633406" lon="9.611421323162096"><ele>207.0</ele><time>2026-04-04T12:23:23.999Z</time></trkpt><trkpt lat="40.2742523113883" lon="9.611228173126982"><ele>211.0</ele><time>2026-04-04T12:23:24.999Z</time></trkpt><trkpt lat="40.27438849562212" lon="9.611042688110176"><ele>215.0</ele><time>2026-04-04T12:23:25.999Z</time></trkpt><trkpt lat="40.27451044037977" lon="9.610897137189177"><ele>219.0</ele><time>2026-04-04T12:23:26.999Z</time></trkpt><trkpt lat="40.27465042215065" lon="9.610831939688167"><ele>218.0</ele><time>2026-04-04T12:23:27.999Z</time></trkpt><trkpt lat="40.27481444990302" lon="9.610775648044024"><ele>217.0</ele><time>2026-04-04T12:23:28.999Z</time></trkpt><trkpt lat="40.27499435076196" lon="9.610698094114728"><ele>216.0</ele><time>2026-04-04T12:23:29.999Z</time></trkpt><trkpt lat="40.27518365821253" lon="9.610620350557"><ele>216.0</ele><time>2026-04-04T12:23:30.999Z</time></trkpt><trkpt lat="40.275375489448045" lon="9.61050996070825"><ele>216.0</ele><time>2026-04-04T12:23:31.999Z</time></trkpt><trkpt lat="40.275570203908394" lon="9.6104124209127"><ele>216.0</ele><time>2026-04-04T12:23:32.999Z</time></trkpt><trkpt lat="40.275737669193404" lon="9.610352853963544"><ele>216.0</ele><time>2026-04-04T12:23:33.999Z</time></trkpt><trkpt lat="40.275871659239876" lon="9.61036302740805"><ele>216.00000000000003</ele><time>2026-04-04T12:23:34.999Z</time></trkpt><trkpt lat="40.2759681990478" lon="9.610350226204766"><ele>216.00000000000003</ele><time>2026-04-04T12:23:35.999Z</time></trkpt><trkpt lat="40.27603830854522" lon="9.610333914598055"><ele>216.0</ele><time>2026-04-04T12:23:36.999Z</time></trkpt><trkpt lat="40.27607788691025" lon="9.610243439430187"><ele>216.0</ele><time>2026-04-04T12:23:37.999Z</time></trkpt><trkpt lat="40.2760756265439" lon="9.610112943394908"><ele>219.5</ele><time>2026-04-04T12:23:38.999Z</time></trkpt><trkpt lat="40.276018625388254" lon="9.609989964382592"><ele>223.0</ele><time>2026-04-04T12:23:39.999Z</time></trkpt><trkpt lat="40.27591673163714" lon="9.609934995397904"><ele>226.5</ele><time>2026-04-04T12:23:40.999Z</time></trkpt><trkpt lat="40.2758024360887" lon="9.60993146616215"><ele>230.0</ele><time>2026-04-04T12:23:41.999Z</time></trkpt><trkpt lat="40.275670140999594" lon="9.609928531802469"><ele>229.33333333333334</ele><time>2026-04-04T12:23:42.999Z</time></trkpt><trkpt lat="40.27550810330489" lon="9.609871234690578"><ele>228.66666666666669</ele><time>2026-04-04T12:23:43.999Z</time></trkpt><trkpt lat="40.27535282734447" lon="9.609779137670873"><ele>228.0</ele><time>2026-04-04T12:23:44.999Z</time></trkpt><trkpt lat="40.27519303661245" lon="9.609650252950626"><ele>228.0</ele><time>2026-04-04T12:23:45.999Z</time></trkpt><trkpt lat="40.275036236272875" lon="9.6095083372715"><ele>228.0</ele><time>2026-04-04T12:23:46.999Z</time></trkpt><trkpt lat="40.27486236454991" lon="9.609377732806948"><ele>228.0</ele><time>2026-04-04T12:23:47.999Z</time></trkpt><trkpt lat="40.274670225999614" lon="9.609265950351649"><ele>233.33333333333331</ele><time>2026-04-04T12:23:48.999Z</time></trkpt><trkpt lat="40.274475108277315" lon="9.609174847727328"><ele>238.66666666666666</ele><time>2026-04-04T12:23:49.999Z</time></trkpt><trkpt lat="40.27430267154057" lon="9.609107399483406"><ele>244.0</ele><time>2026-04-04T12:23:50.999Z</time></trkpt><trkpt lat="40.27412319292268" lon="9.60907330339062"><ele>245.66666666666666</ele><time>2026-04-04T12:23:51.999Z</time></trkpt><trkpt lat="40.27393452481526" lon="9.60907874343581"><ele>247.33333333333331</ele><time>2026-04-04T12:23:52.999Z</time></trkpt><trkpt lat="40.27374265494693" lon="9.609112713966224"><ele>249.0</ele><time>2026-04-04T12:23:53.999Z</time></trkpt><trkpt lat="40.273542127487794" lon="9.609102810852631"><ele>249.0</ele><time>2026-04-04T12:23:54.999Z</time></trkpt><trkpt lat="40.27336313891019" lon="9.609070506040965"><ele>249.0</ele><time>2026-04-04T12:23:55.999Z</time></trkpt><trkpt lat="40.27319973786527" lon="9.609014128003514"><ele>249.0</ele><time>2026-04-04T12:23:56.999Z</time></trkpt><trkpt lat="40.27304118786492" lon="9.608915374483324"><ele>247.66666666666669</ele><time>2026-04-04T12:23:57.999Z</time></trkpt><trkpt lat="40.27287387605611" lon="9.60879526921733"><ele>246.33333333333334</ele><time>2026-04-04T12:23:58.999Z</time></trkpt><trkpt lat="40.27269433386571" lon="9.608685502597773"><ele>245.0</ele><time>2026-04-04T12:23:59.999Z</time></trkpt><trkpt lat="40.27253091323593" lon="9.608554848339887"><ele>248.0</ele><time>2026-04-04T12:24:00.999Z</time></trkpt><trkpt lat="40.27242376122667" lon="9.60839028919097"><ele>251.0</ele><time>2026-04-04T12:24:01.999Z</time></trkpt><trkpt lat="40.27230694214924" lon="9.608301043716352"><ele>254.0</ele><time>2026-04-04T12:24:02.999Z</time></trkpt><trkpt lat="40.27218958750801" lon="9.608236626041874"><ele>257.0</ele><time>2026-04-04T12:24:03.999Z</time></trkpt><trkpt lat="40.27205861718311" lon="9.608219437371007"><ele>257.0</ele><time>2026-04-04T12:24:04.999Z</time></trkpt><trkpt lat="40.27195385617808" lon="9.608200196657647"><ele>257.0</ele><time>2026-04-04T12:24:05.999Z</time></trkpt><trkpt lat="40.27188394835382" lon="9.60814550846583"><ele>257.0</ele><time>2026-04-04T12:24:06.999Z</time></trkpt><trkpt lat="40.27185952703643" lon="9.608040844704725"><ele>257.0</ele><time>2026-04-04T12:24:07.999Z</time></trkpt><trkpt lat="40.27188745288373" lon="9.6079293176514"><ele>257.0</ele><time>2026-04-04T12:24:08.999Z</time></trkpt><trkpt lat="40.27196752245664" lon="9.607857708718534"><ele>257.0</ele><time>2026-04-04T12:24:09.999Z</time></trkpt><trkpt lat="40.272041643925064" lon="9.607816755700279"><ele>257.0</ele><time>2026-04-04T12:24:10.999Z</time></trkpt><trkpt lat="40.27220185593126" lon="9.607875436587118"><ele>257.0</ele><time>2026-04-04T12:24:11.999Z</time></trkpt><trkpt lat="40.272342903127715" lon="9.607883258372443"><ele>257.0</ele><time>2026-04-04T12:24:12.999Z</time></trkpt><trkpt lat="40.27250558537303" lon="9.607881646571963"><ele>257.75</ele><time>2026-04-04T12:24:13.999Z</time></trkpt><trkpt lat="40.2726782809933" lon="9.607876558990132"><ele>258.5</ele><time>2026-04-04T12:24:14.999Z</time></trkpt><trkpt lat="40.27281568547597" lon="9.607863787123021"><ele>259.25</ele><time>2026-04-04T12:24:15.999Z</time></trkpt><trkpt lat="40.27292392484449" lon="9.607799019067766"><ele>260.0</ele><time>2026-04-04T12:24:16.999Z</time></trkpt><trkpt lat="40.27302081540045" lon="9.607661983233202"><ele>264.6666666666667</ele><time>2026-04-04T12:24:17.999Z</time></trkpt><trkpt lat="40.273125650339004" lon="9.607482146431192"><ele>269.3333333333333</ele><time>2026-04-04T12:24:18.999Z</time></trkpt><trkpt lat="40.27327702232832" lon="9.607367133926747"><ele>274.0</ele><time>2026-04-04T12:24:19.999Z</time></trkpt><trkpt lat="40.27343870794657" lon="9.60727378402748"><ele>274.0</ele><time>2026-04-04T12:24:20.999Z</time></trkpt><trkpt lat="40.27356984499909" lon="9.607157259075596"><ele>274.0</ele><time>2026-04-04T12:24:21.999Z</time></trkpt><trkpt lat="40.273693864800904" lon="9.607006797192827"><ele>274.0</ele><time>2026-04-04T12:24:22.999Z</time></trkpt><trkpt lat="40.27382143590313" lon="9.606826841767344"><ele>276.3333333333333</ele><time>2026-04-04T12:24:23.999Z</time></trkpt><trkpt lat="40.2739510668713" lon="9.606647101916"><ele>278.6666666666667</ele><time>2026-04-04T12:24:24.999Z</time></trkpt><trkpt lat="40.27405837791005" lon="9.606482176482807"><ele>281.0</ele><time>2026-04-04T12:24:25.999Z</time></trkpt><trkpt lat="40.2741350523297" lon="9.606336342980477"><ele>281.0</ele><time>2026-04-04T12:24:26.999Z</time></trkpt><trkpt lat="40.27420429151528" lon="9.606220341143052"><ele>281.0</ele><time>2026-04-04T12:24:27.999Z</time></trkpt><trkpt lat="40.274294271693456" lon="9.606149101388837"><ele>281.0</ele><time>2026-04-04T12:24:28.999Z</time></trkpt><trkpt lat="40.27442293915078" lon="9.606154866367858"><ele>281.0</ele><time>2026-04-04T12:24:29.999Z</time></trkpt><trkpt lat="40.27457475584488" lon="9.606142822158034"><ele>285.33333333333337</ele><time>2026-04-04T12:24:30.999Z</time></trkpt><trkpt lat="40.274743521943236" lon="9.606141127897745"><ele>289.6666666666667</ele><time>2026-04-04T12:24:31.999Z</time></trkpt><trkpt lat="40.27493162697636" lon="9.606100305771008"><ele>294.0</ele><time>2026-04-04T12:24:32.999Z</time></trkpt><trkpt lat="40.27511309181337" lon="9.606025226868105"><ele>294.0</ele><time>2026-04-04T12:24:33.999Z</time></trkpt><trkpt lat="40.27528098842082" lon="9.605934675246191"><ele>294.0</ele><time>2026-04-04T12:24:34.999Z</time></trkpt><trkpt lat="40.275427825805984" lon="9.605870991674905"><ele>294.0</ele><time>2026-04-04T12:24:35.999Z</time></trkpt><trkpt lat="40.27555255157108" lon="9.60587240847108"><ele>295.8</ele><time>2026-04-04T12:24:36.999Z</time></trkpt><trkpt lat="40.2756490777244" lon="9.60595415076553"><ele>297.59999999999997</ele><time>2026-04-04T12:24:37.999Z</time></trkpt><trkpt lat="40.27573719190975" lon="9.605997657883835"><ele>299.4</ele><time>2026-04-04T12:24:38.999Z</time></trkpt><trkpt lat="40.27581342576141" lon="9.606014850322646"><ele>301.2</ele><time>2026-04-04T12:24:39.999Z</time></trkpt><trkpt lat="40.27588019137143" lon="9.605939812568028"><ele>303.0</ele><time>2026-04-04T12:24:40.999Z</time></trkpt><trkpt lat="40.275912563467216" lon="9.605817935136853"><ele>303.0</ele><time>2026-04-04T12:24:41.999Z</time></trkpt><trkpt lat="40.2758914088772" lon="9.605684767040067"><ele>303.0</ele><time>2026-04-04T12:24:42.999Z</time></trkpt><trkpt lat="40.27581301243139" lon="9.60556541171538"><ele>303.0</ele><time>2026-04-04T12:24:43.999Z</time></trkpt><trkpt lat="40.275685223410534" lon="9.605482633445822"><ele>303.0</ele><time>2026-04-04T12:24:44.999Z</time></trkpt><trkpt lat="40.27554649219711" lon="9.605387764862916"><ele>304.6666666666667</ele><time>2026-04-04T12:24:45.999Z</time></trkpt><trkpt lat="40.2753972706909" lon="9.605287076623018"><ele>306.33333333333337</ele><time>2026-04-04T12:24:46.999Z</time></trkpt><trkpt lat="40.27522456062732" lon="9.605199098296927"><ele>308.0</ele><time>2026-04-04T12:24:47.999Z</time></trkpt><trkpt lat="40.27506906881926" lon="9.605123614768237"><ele>308.0</ele><time>2026-04-04T12:24:48.999Z</time></trkpt><trkpt lat="40.27491077428298" lon="9.605021182166588"><ele>308.0</ele><time>2026-04-04T12:24:49.999Z</time></trkpt><trkpt lat="40.274748881482545" lon="9.604888990851766"><ele>308.0</ele><time>2026-04-04T12:24:50.999Z</time></trkpt><trkpt lat="40.27457930781689" lon="9.604745171918271"><ele>307.0</ele><time>2026-04-04T12:24:51.999Z</time></trkpt><trkpt lat="40.274399071638655" lon="9.604599828720673"><ele>306.0</ele><time>2026-04-04T12:24:52.999Z</time></trkpt><trkpt lat="40.27423861238924" lon="9.604484525859062"><ele>305.0</ele><time>2026-04-04T12:24:53.999Z</time></trkpt><trkpt lat="40.27409266591311" lon="9.6044128273383"><ele>310.33333333333337</ele><time>2026-04-04T12:24:54.999Z</time></trkpt><trkpt lat="40.273942845652186" lon="9.604388425411836"><ele>315.6666666666667</ele><time>2026-04-04T12:24:55.999Z</time></trkpt><trkpt lat="40.27377400061369" lon="9.604410269530865"><ele>321.0</ele><time>2026-04-04T12:24:56.999Z</time></trkpt><trkpt lat="40.27358696470838" lon="9.604448775124332"><ele>321.75</ele><time>2026-04-04T12:24:57.999Z</time></trkpt><trkpt lat="40.27342379212076" lon="9.604438311804124"><ele>322.5</ele><time>2026-04-04T12:24:58.999Z</time></trkpt><trkpt lat="40.27330542035443" lon="9.604432134396342"><ele>323.25</ele><time>2026-04-04T12:24:59.999Z</time></trkpt><trkpt lat="40.27322327694184" lon="9.604380750462035"><ele>324.0</ele><time>2026-04-04T12:25:00.999Z</time></trkpt><trkpt lat="40.2731664173528" lon="9.604258596215153"><ele>323.5</ele><time>2026-04-04T12:25:01.999Z</time></trkpt><trkpt lat="40.273085197266695" lon="9.60409606662051"><ele>323.0</ele><time>2026-04-04T12:25:02.999Z</time></trkpt><trkpt lat="40.27303071610692" lon="9.60389801124221"><ele>322.5</ele><time>2026-04-04T12:25:03.999Z</time></trkpt><trkpt lat="40.27297317524228" lon="9.6037436455992"><ele>322.0</ele><time>2026-04-04T12:25:04.999Z</time></trkpt><trkpt lat="40.27290429039387" lon="9.603655617127055"><ele>322.0</ele><time>2026-04-04T12:25:05.999Z</time></trkpt><trkpt lat="40.272817227308046" lon="9.60362105694623"><ele>322.0</ele><time>2026-04-04T12:25:06.999Z</time></trkpt><trkpt lat="40.27271206507556" lon="9.603656571227209"><ele>322.0</ele><time>2026-04-04T12:25:07.999Z</time></trkpt><trkpt lat="40.27259645484511" lon="9.60374038395701"><ele>322.0</ele><time>2026-04-04T12:25:08.999Z</time></trkpt><trkpt lat="40.27247999043014" lon="9.603802932395755"><ele>322.0</ele><time>2026-04-04T12:25:09.999Z</time></trkpt><trkpt lat="40.272373541645145" lon="9.603757803613302"><ele>322.0</ele><time>2026-04-04T12:25:10.999Z</time></trkpt><trkpt lat="40.272285664319604" lon="9.603642723427134"><ele>322.0</ele><time>2026-04-04T12:25:11.999Z</time></trkpt><trkpt lat="40.27216981985614" lon="9.603524256597527"><ele>322.0</ele><time>2026-04-04T12:25:12.999Z</time></trkpt><trkpt lat="40.27207377728975" lon="9.603395001157574"><ele>326.25</ele><time>2026-04-04T12:25:13.999Z</time></trkpt><trkpt lat="40.27196492943864" lon="9.603335682814523"><ele>330.5</ele><time>2026-04-04T12:25:14.999Z</time></trkpt><trkpt lat="40.271833855962996" lon="9.603347259340024"><ele>334.75</ele><time>2026-04-04T12:25:15.999Z</time></trkpt><trkpt lat="40.271697582874765" lon="9.603405295111498"><ele>339.0</ele><time>2026-04-04T12:25:16.999Z</time></trkpt><trkpt lat="40.27154891781059" lon="9.60351561790983"><ele>338.6666666666667</ele><time>2026-04-04T12:25:17.999Z</time></trkpt><trkpt lat="40.271385214638556" lon="9.60363412306008"><ele>338.33333333333337</ele><time>2026-04-04T12:25:18.999Z</time></trkpt><trkpt lat="40.27119996116333" lon="9.603723297574176"><ele>338.0</ele><time>2026-04-04T12:25:19.999Z</time></trkpt><trkpt lat="40.27103470680749" lon="9.603840331099216"><ele>338.0</ele><time>2026-04-04T12:25:20.999Z</time></trkpt><trkpt lat="40.270887798904134" lon="9.603939484534525"><ele>338.0</ele><time>2026-04-04T12:25:21.999Z</time></trkpt><trkpt lat="40.27078343151593" lon="9.604043353294593"><ele>338.0</ele><time>2026-04-04T12:25:22.999Z</time></trkpt><trkpt lat="40.27071074844667" lon="9.604139576385492"><ele>338.0</ele><time>2026-04-04T12:25:23.999Z</time></trkpt><trkpt lat="40.27062383350487" lon="9.604159567572486"><ele>338.0</ele><time>2026-04-04T12:25:24.999Z</time></trkpt><trkpt lat="40.27056532859862" lon="9.604107283232173"><ele>338.0</ele><time>2026-04-04T12:25:25.999Z</time></trkpt><trkpt lat="40.27052117949559" lon="9.60401590045378"><ele>338.0</ele><time>2026-04-04T12:25:26.999Z</time></trkpt><trkpt lat="40.270527140347525" lon="9.603901368698534"><ele>338.0</ele><time>2026-04-04T12:25:27.999Z</time></trkpt><trkpt lat="40.27059160759965" lon="9.60380049612539"><ele>338.0</ele><time>2026-04-04T12:25:28.999Z</time></trkpt><trkpt lat="40.270705554438926" lon="9.603761754593927"><ele>338.0</ele><time>2026-04-04T12:25:29.999Z</time></trkpt><trkpt lat="40.2708171136445" lon="9.603671734613838"><ele>338.0</ele><time>2026-04-04T12:25:30.999Z</time></trkpt><trkpt lat="40.270919469959495" lon="9.603544827496986"><ele>338.0</ele><time>2026-04-04T12:25:31.999Z</time></trkpt><trkpt lat="40.271014423515645" lon="9.603343965846777"><ele>342.6666666666667</ele><time>2026-04-04T12:25:32.999Z</time></trkpt><trkpt lat="40.2711069192152" lon="9.603132168353989"><ele>347.3333333333333</ele><time>2026-04-04T12:25:33.999Z</time></trkpt><trkpt lat="40.27120010144989" lon="9.602928101321723"><ele>352.0</ele><time>2026-04-04T12:25:34.999Z</time></trkpt><trkpt lat="40.27129994893364" lon="9.60271971101409"><ele>352.66666666666663</ele><time>2026-04-04T12:25:35.999Z</time></trkpt><trkpt lat="40.27139460552073" lon="9.602538472009451"><ele>353.3333333333333</ele><time>2026-04-04T12:25:36.999Z</time></trkpt><trkpt lat="40.271497538424775" lon="9.602363638207937"><ele>354.0</ele><time>2026-04-04T12:25:37.999Z</time></trkpt><trkpt lat="40.27163051756855" lon="9.602215265739336"><ele>354.0</ele><time>2026-04-04T12:25:38.999Z</time></trkpt><trkpt lat="40.27178388511608" lon="9.602090943399341"><ele>354.0</ele><time>2026-04-04T12:25:40Z</time></trkpt><trkpt lat="40.271952532635716" lon="9.601973511255252"><ele>354.0</ele><time>2026-04-04T12:25:41Z</time></trkpt><trkpt lat="40.27213786284035" lon="9.601871377744965"><ele>358.3333333333333</ele><time>2026-04-04T12:25:42Z</time></trkpt><trkpt lat="40.27233379046597" lon="9.601790222822899"><ele>362.66666666666663</ele><time>2026-04-04T12:25:43Z</time></trkpt><trkpt lat="40.272532657810444" lon="9.601732288780498"><ele>367.0</ele><time>2026-04-04T12:25:44Z</time></trkpt><trkpt lat="40.27272146722045" lon="9.60167283038514"><ele>367.0</ele><time>2026-04-04T12:25:45Z</time></trkpt><trkpt lat="40.27285854025025" lon="9.60160582571592"><ele>367.0</ele><time>2026-04-04T12:25:46Z</time></trkpt><trkpt lat="40.27299522515212" lon="9.601514778039798"><ele>367.0</ele><time>2026-04-04T12:25:47Z</time></trkpt><trkpt lat="40.27311114695142" lon="9.601363271724704"><ele>364.3333333333333</ele><time>2026-04-04T12:25:48Z</time></trkpt><trkpt lat="40.27322361704647" lon="9.60116588154837"><ele>361.6666666666667</ele><time>2026-04-04T12:25:49Z</time></trkpt><trkpt lat="40.273331365624536" lon="9.600964607634"><ele>359.0</ele><time>2026-04-04T12:25:50Z</time></trkpt><trkpt lat="40.27340639374409" lon="9.600805191091036"><ele>364.6666666666667</ele><time>2026-04-04T12:25:51Z</time></trkpt><trkpt lat="40.27344936161308" lon="9.60063112903785"><ele>370.3333333333333</ele><time>2026-04-04T12:25:52Z</time></trkpt><trkpt lat="40.273448821531645" lon="9.600425099221534"><ele>376.0</ele><time>2026-04-04T12:25:53Z</time></trkpt><trkpt lat="40.2734236563828" lon="9.60018974992365"><ele>379.3333333333333</ele><time>2026-04-04T12:25:54Z</time></trkpt><trkpt lat="40.27340148800417" lon="9.599941958194973"><ele>382.66666666666663</ele><time>2026-04-04T12:25:55Z</time></trkpt><trkpt lat="40.27339151822124" lon="9.59971422842146"><ele>386.0</ele><time>2026-04-04T12:25:56Z</time></trkpt><trkpt lat="40.27344085978453" lon="9.599534803491611"><ele>389.20000000000005</ele><time>2026-04-04T12:25:57Z</time></trkpt><trkpt lat="40.27348083047167" lon="9.599388122803525"><ele>392.40000000000003</ele><time>2026-04-04T12:25:58Z</time></trkpt><trkpt lat="40.27354077357553" lon="9.599290220685273"><ele>395.6</ele><time>2026-04-04T12:25:59Z</time></trkpt><trkpt lat="40.27360342549132" lon="9.599230359002389"><ele>398.8</ele><time>2026-04-04T12:26:00Z</time></trkpt><trkpt lat="40.273677924816916" lon="9.599233792267558"><ele>402.0</ele><time>2026-04-04T12:26:01Z</time></trkpt><trkpt lat="40.27377024546195" lon="9.599272692039733"><ele>402.0</ele><time>2026-04-04T12:26:02Z</time></trkpt><trkpt lat="40.27387404159562" lon="9.599370638421071"><ele>402.0</ele><time>2026-04-04T12:26:02.999Z</time></trkpt><trkpt lat="40.27402268676266" lon="9.599452673982267"><ele>402.0</ele><time>2026-04-04T12:26:03.999Z</time></trkpt><trkpt lat="40.27418025122758" lon="9.599523775587349"><ele>396.0</ele><time>2026-04-04T12:26:04.999Z</time></trkpt><trkpt lat="40.27436147623596" lon="9.599529296015186"><ele>390.0</ele><time>2026-04-04T12:26:05.999Z</time></trkpt><trkpt lat="40.27454341817497" lon="9.599519955851763"><ele>384.0</ele><time>2026-04-04T12:26:06.999Z</time></trkpt><trkpt lat="40.2747404340584" lon="9.599538061073039"><ele>389.0</ele><time>2026-04-04T12:26:07.999Z</time></trkpt><trkpt lat="40.27491828536925" lon="9.599631477431192"><ele>394.0</ele><time>2026-04-04T12:26:08.999Z</time></trkpt><trkpt lat="40.27507488540622" lon="9.599695127338936"><ele>399.0</ele><time>2026-04-04T12:26:09.999Z</time></trkpt><trkpt lat="40.27518646992105" lon="9.599756877328922"><ele>399.0</ele><time>2026-04-04T12:26:10.999Z</time></trkpt><trkpt lat="40.275271136729984" lon="9.599770764736693"><ele>399.0</ele><time>2026-04-04T12:26:11.999Z</time></trkpt><trkpt lat="40.27535054788168" lon="9.59972427931675"><ele>399.0</ele><time>2026-04-04T12:26:12.999Z</time></trkpt><trkpt lat="40.2753984756819" lon="9.599615777951172"><ele>399.0</ele><time>2026-04-04T12:26:13.999Z</time></trkpt><trkpt lat="40.2754215679764" lon="9.599484582550645"><ele>399.0</ele><time>2026-04-04T12:26:14.999Z</time></trkpt><trkpt lat="40.2753642073957" lon="9.59933843306408"><ele>401.5</ele><time>2026-04-04T12:26:15.999Z</time></trkpt><trkpt lat="40.27524320155265" lon="9.599262252502474"><ele>404.0</ele><time>2026-04-04T12:26:16.999Z</time></trkpt><trkpt lat="40.27512622680928" lon="9.599209256636252"><ele>406.5</ele><time>2026-04-04T12:26:17.999Z</time></trkpt><trkpt lat="40.2749950167261" lon="9.59913033870089"><ele>409.0</ele><time>2026-04-04T12:26:18.999Z</time></trkpt><trkpt lat="40.274861980179075" lon="9.599035004941227"><ele>407.33333333333337</ele><time>2026-04-04T12:26:19.999Z</time></trkpt><trkpt lat="40.27470268005881" lon="9.59898482199024"><ele>405.66666666666663</ele><time>2026-04-04T12:26:20.999Z</time></trkpt><trkpt lat="40.274526288355744" lon="9.598984447992637"><ele>404.0</ele><time>2026-04-04T12:26:22Z</time></trkpt><trkpt lat="40.274365650741224" lon="9.598990803560685"><ele>404.0</ele><time>2026-04-04T12:26:23Z</time></trkpt><trkpt lat="40.27422492100344" lon="9.598971903135293"><ele>404.0</ele><time>2026-04-04T12:26:24Z</time></trkpt><trkpt lat="40.2741058611896" lon="9.598933852136952"><ele>404.0</ele><time>2026-04-04T12:26:25Z</time></trkpt><trkpt lat="40.274013973813084" lon="9.598840701357881"><ele>404.0</ele><time>2026-04-04T12:26:26Z</time></trkpt><trkpt lat="40.27394232086367" lon="9.598711707110725"><ele>409.25</ele><time>2026-04-04T12:26:27Z</time></trkpt><trkpt lat="40.273871570269044" lon="9.59855826379916"><ele>414.5</ele><time>2026-04-04T12:26:28Z</time></trkpt><trkpt lat="40.27376255093675" lon="9.598439857700594"><ele>419.75</ele><time>2026-04-04T12:26:29Z</time></trkpt><trkpt lat="40.27363040651358" lon="9.598336519778387"><ele>425.0</ele><time>2026-04-04T12:26:30Z</time></trkpt><trkpt lat="40.27347807221233" lon="9.598265638199777"><ele>425.0</ele><time>2026-04-04T12:26:31Z</time></trkpt><trkpt lat="40.27334475493663" lon="9.598225393678662"><ele>425.0</ele><time>2026-04-04T12:26:32Z</time></trkpt><trkpt lat="40.273237698601825" lon="9.598207851553758"><ele>425.0</ele><time>2026-04-04T12:26:33Z</time></trkpt><trkpt lat="40.27314607408909" lon="9.598199319173146"><ele>425.0</ele><time>2026-04-04T12:26:34Z</time></trkpt><trkpt lat="40.27306830784189" lon="9.598206543418321"><ele>425.0</ele><time>2026-04-04T12:26:35Z</time></trkpt><trkpt lat="40.27300347454036" lon="9.598252487504109"><ele>424.66666666666663</ele><time>2026-04-04T12:26:36Z</time></trkpt><trkpt lat="40.27294521524485" lon="9.598338689036684"><ele>424.3333333333333</ele><time>2026-04-04T12:26:37Z</time></trkpt><trkpt lat="40.27290274036605" lon="9.598423333525623"><ele>424.0</ele><time>2026-04-04T12:26:38Z</time></trkpt><trkpt lat="40.272863676009564" lon="9.598514178785965"><ele>423.66666666666663</ele><time>2026-04-04T12:26:39Z</time></trkpt><trkpt lat="40.27281903427339" lon="9.598611318675829"><ele>423.3333333333333</ele><time>2026-04-04T12:26:40Z</time></trkpt><trkpt lat="40.2727674953085" lon="9.598729005537109"><ele>423.0</ele><time>2026-04-04T12:26:41Z</time></trkpt><trkpt lat="40.272716924221804" lon="9.598855187275708"><ele>423.0</ele><time>2026-04-04T12:26:42Z</time></trkpt><trkpt lat="40.27266875240736" lon="9.598971785515955"><ele>423.0</ele><time>2026-04-04T12:26:43Z</time></trkpt><trkpt lat="40.272620290781816" lon="9.599078678805869"><ele>423.0</ele><time>2026-04-04T12:26:44Z</time></trkpt><trkpt lat="40.27257350050082" lon="9.599158266944956"><ele>423.0</ele><time>2026-04-04T12:26:45Z</time></trkpt><trkpt lat="40.272513500260224" lon="9.599192965964578"><ele>423.0</ele><time>2026-04-04T12:26:46Z</time></trkpt><trkpt lat="40.27243881739929" lon="9.599173855595083"><ele>423.0</ele><time>2026-04-04T12:26:47Z</time></trkpt><trkpt lat="40.27237781771736" lon="9.599091404424405"><ele>423.0</ele><time>2026-04-04T12:26:48Z</time></trkpt><trkpt lat="40.2723669691738" lon="9.598962680348158"><ele>423.0</ele><time>2026-04-04T12:26:49Z</time></trkpt><trkpt lat="40.27240483178372" lon="9.598839269375672"><ele>423.0</ele><time>2026-04-04T12:26:50Z</time></trkpt><trkpt lat="40.27248393699604" lon="9.598709680015029"><ele>423.0</ele><time>2026-04-04T12:26:51Z</time></trkpt><trkpt lat="40.27257450332841" lon="9.598550282089619"><ele>427.5</ele><time>2026-04-04T12:26:52Z</time></trkpt><trkpt lat="40.27265461560466" lon="9.598380279691543"><ele>432.0</ele><time>2026-04-04T12:26:53Z</time></trkpt><trkpt lat="40.27271654980696" lon="9.598230987235226"><ele>436.5</ele><time>2026-04-04T12:26:54Z</time></trkpt><trkpt lat="40.27276960284048" lon="9.598107949335942"><ele>441.0</ele><time>2026-04-04T12:26:55Z</time></trkpt><trkpt lat="40.27283951231379" lon="9.598005774954325"><ele>441.0</ele><time>2026-04-04T12:26:56Z</time></trkpt><trkpt lat="40.27294075326022" lon="9.597929117693624"><ele>441.0</ele><time>2026-04-04T12:26:57Z</time></trkpt><trkpt lat="40.2730661392159" lon="9.597880808558886"><ele>441.0</ele><time>2026-04-04T12:26:58Z</time></trkpt><trkpt lat="40.27320416538749" lon="9.597888564172111"><ele>441.0</ele><time>2026-04-04T12:26:59Z</time></trkpt><trkpt lat="40.27335159076562" lon="9.597878457989001"><ele>437.0</ele><time>2026-04-04T12:27:00Z</time></trkpt><trkpt lat="40.273508613592426" lon="9.597889007259196"><ele>433.0</ele><time>2026-04-04T12:27:01Z</time></trkpt><trkpt lat="40.273659388611904" lon="9.597900256565971"><ele>429.0</ele><time>2026-04-04T12:27:02Z</time></trkpt><trkpt lat="40.273797659906016" lon="9.59790694038467"><ele>425.0</ele><time>2026-04-04T12:27:03Z</time></trkpt><trkpt lat="40.27393146979322" lon="9.59791195863171"><ele>426.25</ele><time>2026-04-04T12:27:04Z</time></trkpt><trkpt lat="40.27406525959408" lon="9.597919452840127"><ele>427.5</ele><time>2026-04-04T12:27:05Z</time></trkpt><trkpt lat="40.27420375411652" lon="9.597926448536747"><ele>428.75</ele><time>2026-04-04T12:27:06Z</time></trkpt><trkpt lat="40.274339869721615" lon="9.597926747589321"><ele>430.0</ele><time>2026-04-04T12:27:07Z</time></trkpt><trkpt lat="40.27445778306983" lon="9.597914884351509"><ele>430.0</ele><time>2026-04-04T12:27:08Z</time></trkpt><trkpt lat="40.27455745850628" lon="9.597882473125235"><ele>430.0</ele><time>2026-04-04T12:27:09Z</time></trkpt><trkpt lat="40.27465323213054" lon="9.59782276000451"><ele>430.0</ele><time>2026-04-04T12:27:10Z</time></trkpt><trkpt lat="40.27474191491294" lon="9.597729477105831"><ele>430.0</ele><time>2026-04-04T12:27:11Z</time></trkpt><trkpt lat="40.274822722188546" lon="9.597610938431492"><ele>430.0</ele><time>2026-04-04T12:27:12Z</time></trkpt><trkpt lat="40.27488714860585" lon="9.597470631341942"><ele>436.5</ele><time>2026-04-04T12:27:13Z</time></trkpt><trkpt lat="40.27493072462013" lon="9.597307744564098"><ele>443.0</ele><time>2026-04-04T12:27:14Z</time></trkpt><trkpt lat="40.27495279171757" lon="9.597132948451241"><ele>449.5</ele><time>2026-04-04T12:27:15Z</time></trkpt><trkpt lat="40.27495806131073" lon="9.596949331370368"><ele>456.0</ele><time>2026-04-04T12:27:16Z</time></trkpt><trkpt lat="40.27499831261938" lon="9.596768744013108"><ele>462.5</ele><time>2026-04-04T12:27:17Z</time></trkpt><trkpt lat="40.275023785396534" lon="9.596582530219875"><ele>469.0</ele><time>2026-04-04T12:27:18Z</time></trkpt><trkpt lat="40.27505003437878" lon="9.596391287626657"><ele>475.5</ele><time>2026-04-04T12:27:19Z</time></trkpt><trkpt lat="40.2750753707397" lon="9.59620669415216"><ele>482.0</ele><time>2026-04-04T12:27:20Z</time></trkpt><trkpt lat="40.27510099168832" lon="9.596020027213294"><ele>492.3333333333333</ele><time>2026-04-04T12:27:21Z</time></trkpt><trkpt lat="40.275154050678914" lon="9.595637330747582"><ele>502.66666666666663</ele><time>2026-04-04T12:27:23.067Z</time></trkpt><trkpt lat="40.275181451136056" lon="9.595441064458129"><ele>513.0</ele><time>2026-04-04T12:27:24.07Z</time></trkpt><trkpt lat="40.275208245334866" lon="9.59524914104996"><ele>534.0</ele><time>2026-04-04T12:27:25.071Z</time></trkpt><trkpt lat="40.27546806607807" lon="9.593247604090422"><ele>549.5</ele><time>2026-04-04T12:27:28.542Z</time></trkpt><trkpt lat="40.27554936627771" lon="9.592668523920679"><ele>565.0</ele><time>2026-04-04T12:27:29.543Z</time></trkpt><trkpt lat="40.27515492518828" lon="9.593979183589974"><ele>565.0</ele><time>2026-04-04T12:27:33.541Z</time></trkpt><trkpt lat="40.2751225795399" lon="9.594166463487017"><ele>565.0</ele><time>2026-04-04T12:27:34.54Z</time></trkpt><trkpt lat="40.27508935164367" lon="9.59435376595982"><ele>565.0</ele><time>2026-04-04T12:27:35.542Z</time></trkpt><trkpt lat="40.27505532286199" lon="9.594540924259084"><ele>565.0</ele><time>2026-04-04T12:27:36.543Z</time></trkpt><trkpt lat="40.2750210709594" lon="9.594727672192496"><ele>560.75</ele><time>2026-04-04T12:27:37.543Z</time></trkpt><trkpt lat="40.27498674051114" lon="9.594914396864858"><ele>556.5</ele><time>2026-04-04T12:27:38.543Z</time></trkpt><trkpt lat="40.274952819939095" lon="9.59510124693322"><ele>552.25</ele><time>2026-04-04T12:27:39.543Z</time></trkpt><trkpt lat="40.27491886009076" lon="9.595288313353441"><ele>548.0</ele><time>2026-04-04T12:27:40.545Z</time></trkpt><trkpt lat="40.27488476208455" lon="9.595474886011372"><ele>472.0</ele><time>2026-04-04T12:27:41.543Z</time></trkpt><trkpt lat="40.275630472197584" lon="9.592540483828554"><ele>472.0</ele><time>2026-04-04T12:27:42Z</time></trkpt><trkpt lat="40.27562932853313" lon="9.5924302169821"><ele>472.00000000000006</ele><time>2026-04-04T12:27:43Z</time></trkpt><trkpt lat="40.275604061289464" lon="9.592321003273144"><ele>472.00000000000006</ele><time>2026-04-04T12:27:45Z</time></trkpt><trkpt lat="40.275498931613" lon="9.592272298509247"><ele>472.0</ele><time>2026-04-04T12:27:47Z</time></trkpt><trkpt lat="40.275418137868606" lon="9.592266931939701"><ele>472.0</ele><time>2026-04-04T12:27:48Z</time></trkpt><trkpt lat="40.275327401649164" lon="9.592258548351099"><ele>472.8</ele><time>2026-04-04T12:27:49Z</time></trkpt><trkpt lat="40.27523779563826" lon="9.592252543273622"><ele>473.6</ele><time>2026-04-04T12:27:50Z</time></trkpt><trkpt lat="40.27511725596889" lon="9.592232794203783"><ele>474.40000000000003</ele><time>2026-04-04T12:27:51Z</time></trkpt><trkpt lat="40.2749982644714" lon="9.592178039058508"><ele>475.20000000000005</ele><time>2026-04-04T12:27:52Z</time></trkpt><trkpt lat="40.27490122074034" lon="9.592135973650441"><ele>476.0</ele><time>2026-04-04T12:27:53Z</time></trkpt><trkpt lat="40.27482263985674" lon="9.592060587032824"><ele>473.3333333333333</ele><time>2026-04-04T12:27:54Z</time></trkpt><trkpt lat="40.27469369730781" lon="9.59195113467321"><ele>470.66666666666663</ele><time>2026-04-04T12:27:55Z</time></trkpt><trkpt lat="40.274562952728644" lon="9.591851250497847"><ele>468.0</ele><time>2026-04-04T12:27:56Z</time></trkpt><trkpt lat="40.27441863063383" lon="9.591718395866106"><ele>468.0</ele><time>2026-04-04T12:27:57Z</time></trkpt><trkpt lat="40.274259894099785" lon="9.591564936252851"><ele>468.0</ele><time>2026-04-04T12:27:58Z</time></trkpt><trkpt lat="40.27411106292391" lon="9.591403501406678"><ele>468.0</ele><time>2026-04-04T12:27:59Z</time></trkpt><trkpt lat="40.27396612553276" lon="9.591238980346949"><ele>469.66666666666663</ele><time>2026-04-04T12:28:00Z</time></trkpt><trkpt lat="40.273830390780844" lon="9.591032980379387"><ele>471.3333333333333</ele><time>2026-04-04T12:28:01Z</time></trkpt><trkpt lat="40.273675606173555" lon="9.59081397915705"><ele>473.0</ele><time>2026-04-04T12:28:02Z</time></trkpt><trkpt lat="40.27353144676232" lon="9.590609524312287"><ele>473.0</ele><time>2026-04-04T12:28:03Z</time></trkpt><trkpt lat="40.273401751501" lon="9.590422086857247"><ele>473.0</ele><time>2026-04-04T12:28:04Z</time></trkpt><trkpt lat="40.27330259952129" lon="9.590242991189129"><ele>473.0</ele><time>2026-04-04T12:28:05Z</time></trkpt><trkpt lat="40.27324471459254" lon="9.590065772893086"><ele>467.66666666666663</ele><time>2026-04-04T12:28:06Z</time></trkpt><trkpt lat="40.27321430671923" lon="9.589867318835074"><ele>462.33333333333337</ele><time>2026-04-04T12:28:07Z</time></trkpt><trkpt lat="40.273179760920584" lon="9.58962881980237"><ele>457.0</ele><time>2026-04-04T12:28:08Z</time></trkpt><trkpt lat="40.27313533452013" lon="9.589375822246886"><ele>465.6666666666667</ele><time>2026-04-04T12:28:09Z</time></trkpt><trkpt lat="40.27306517828279" lon="9.58914233238604"><ele>474.33333333333337</ele><time>2026-04-04T12:28:10Z</time></trkpt><trkpt lat="40.27301887654221" lon="9.588947050293163"><ele>483.0</ele><time>2026-04-04T12:28:11Z</time></trkpt><trkpt lat="40.27295648631895" lon="9.588799797756723"><ele>483.0</ele><time>2026-04-04T12:28:12Z</time></trkpt><trkpt lat="40.27285986218534" lon="9.588676252905834"><ele>483.0</ele><time>2026-04-04T12:28:13Z</time></trkpt><trkpt lat="40.27271865877606" lon="9.588592017307812"><ele>483.0</ele><time>2026-04-04T12:28:14Z</time></trkpt><trkpt lat="40.272572930407314" lon="9.588514891332444"><ele>483.0</ele><time>2026-04-04T12:28:15Z</time></trkpt><trkpt lat="40.272471388900485" lon="9.588406975171646"><ele>477.75</ele><time>2026-04-04T12:28:16Z</time></trkpt><trkpt lat="40.27246488525687" lon="9.588251823240828"><ele>472.5</ele><time>2026-04-04T12:28:17Z</time></trkpt><trkpt lat="40.27246147623237" lon="9.588073921026142"><ele>467.25</ele><time>2026-04-04T12:28:18Z</time></trkpt><trkpt lat="40.272425270520095" lon="9.587887758700763"><ele>462.0</ele><time>2026-04-04T12:28:19Z</time></trkpt><trkpt lat="40.272357405728336" lon="9.587744519173214"><ele>464.66666666666663</ele><time>2026-04-04T12:28:20Z</time></trkpt><trkpt lat="40.27222504686576" lon="9.5876144339027"><ele>467.3333333333333</ele><time>2026-04-04T12:28:21Z</time></trkpt><trkpt lat="40.27206432484269" lon="9.587496391412769"><ele>470.0</ele><time>2026-04-04T12:28:22Z</time></trkpt><trkpt lat="40.27189229204025" lon="9.58739595288266"><ele>470.0</ele><time>2026-04-04T12:28:23Z</time></trkpt><trkpt lat="40.271721426834915" lon="9.587327376571528"><ele>470.0</ele><time>2026-04-04T12:28:24Z</time></trkpt><trkpt lat="40.27159205916998" lon="9.587258329657061"><ele>470.0</ele><time>2026-04-04T12:28:25Z</time></trkpt><trkpt lat="40.27151550726837" lon="9.587117387551098"><ele>475.66666666666663</ele><time>2026-04-04T12:28:26Z</time></trkpt><trkpt lat="40.27143968122206" lon="9.58693699825963"><ele>481.33333333333337</ele><time>2026-04-04T12:28:27Z</time></trkpt><trkpt lat="40.2713347048065" lon="9.586748002273858"><ele>487.0</ele><time>2026-04-04T12:28:28Z</time></trkpt><trkpt lat="40.271257032365824" lon="9.586520329548614"><ele>487.0</ele><time>2026-04-04T12:28:29Z</time></trkpt><trkpt lat="40.27121850450002" lon="9.586252545042626"><ele>487.0</ele><time>2026-04-04T12:28:30Z</time></trkpt><trkpt lat="40.2711709076596" lon="9.585987389593091"><ele>487.0</ele><time>2026-04-04T12:28:31Z</time></trkpt><trkpt lat="40.27109607530059" lon="9.585762909021307"><ele>482.6666666666667</ele><time>2026-04-04T12:28:32Z</time></trkpt><trkpt lat="40.27099118928086" lon="9.585553259454763"><ele>478.33333333333337</ele><time>2026-04-04T12:28:33Z</time></trkpt><trkpt lat="40.27086375304431" lon="9.585375711964318"><ele>474.0</ele><time>2026-04-04T12:28:34Z</time></trkpt><trkpt lat="40.27080127163414" lon="9.585193387187298"><ele>478.5</ele><time>2026-04-04T12:28:35Z</time></trkpt><trkpt lat="40.27075744632187" lon="9.585022552024173"><ele>483.0</ele><time>2026-04-04T12:28:36Z</time></trkpt><trkpt lat="40.27069549356758" lon="9.58487241127441"><ele>487.5</ele><time>2026-04-04T12:28:37Z</time></trkpt><trkpt lat="40.27059385740004" lon="9.584753110571379"><ele>492.0</ele><time>2026-04-04T12:28:38Z</time></trkpt><trkpt lat="40.270436636304815" lon="9.58466011492983"><ele>492.0</ele><time>2026-04-04T12:28:39Z</time></trkpt><trkpt lat="40.270270051124925" lon="9.584555366842892"><ele>492.0</ele><time>2026-04-04T12:28:40Z</time></trkpt><trkpt lat="40.270133325213884" lon="9.584362101350509"><ele>492.0</ele><time>2026-04-04T12:28:41Z</time></trkpt><trkpt lat="40.26997633150109" lon="9.584169703662118"><ele>493.66666666666663</ele><time>2026-04-04T12:28:42Z</time></trkpt><trkpt lat="40.26985739304466" lon="9.583967756471976"><ele>495.3333333333333</ele><time>2026-04-04T12:28:43Z</time></trkpt><trkpt lat="40.26977510114458" lon="9.583789942557486"><ele>497.0</ele><time>2026-04-04T12:28:44Z</time></trkpt><trkpt lat="40.26967485262386" lon="9.583659633827098"><ele>486.0</ele><time>2026-04-04T12:28:45Z</time></trkpt><trkpt lat="40.269547219073395" lon="9.583563305238616"><ele>475.0</ele><time>2026-04-04T12:28:46Z</time></trkpt><trkpt lat="40.26938144125809" lon="9.583511724575196"><ele>464.0</ele><time>2026-04-04T12:28:47Z</time></trkpt><trkpt lat="40.26923667517589" lon="9.583467839007987"><ele>464.0</ele><time>2026-04-04T12:28:48Z</time></trkpt><trkpt lat="40.269129740600675" lon="9.583361423325398"><ele>464.0</ele><time>2026-04-04T12:28:49Z</time></trkpt><trkpt lat="40.26908178203366" lon="9.583167559559346"><ele>464.0</ele><time>2026-04-04T12:28:50Z</time></trkpt><trkpt lat="40.26899264035434" lon="9.583046537730104"><ele>464.0</ele><time>2026-04-04T12:28:51Z</time></trkpt><trkpt lat="40.26888599026027" lon="9.58298498957248"><ele>461.75</ele><time>2026-04-04T12:28:52Z</time></trkpt><trkpt lat="40.26872449912698" lon="9.582968237687119"><ele>459.5</ele><time>2026-04-04T12:28:53Z</time></trkpt><trkpt lat="40.26857450924411" lon="9.582997222420007"><ele>457.25</ele><time>2026-04-04T12:28:54Z</time></trkpt><trkpt lat="40.268451479233825" lon="9.582951440021969"><ele>455.0</ele><time>2026-04-04T12:28:55Z</time></trkpt><trkpt lat="40.26837838005044" lon="9.58282443807465"><ele>455.0</ele><time>2026-04-04T12:28:56Z</time></trkpt><trkpt lat="40.268262799822814" lon="9.582679495506667"><ele>455.0</ele><time>2026-04-04T12:28:57Z</time></trkpt><trkpt lat="40.26811647261254" lon="9.582545090643336"><ele>455.0</ele><time>2026-04-04T12:28:58Z</time></trkpt><trkpt lat="40.26794906328589" lon="9.58240798816059"><ele>469.0</ele><time>2026-04-04T12:28:59Z</time></trkpt><trkpt lat="40.267761420365524" lon="9.582256084419946"><ele>483.0</ele><time>2026-04-04T12:29:00Z</time></trkpt><trkpt lat="40.26756864570113" lon="9.582091352742548"><ele>484.0</ele><time>2026-04-04T12:29:01Z</time></trkpt><trkpt lat="40.26738238052215" lon="9.58193112924908"><ele>485.0</ele><time>2026-04-04T12:29:02Z</time></trkpt><trkpt lat="40.26719099352085" lon="9.581769893477656"><ele>485.0</ele><time>2026-04-04T12:29:03Z</time></trkpt><trkpt lat="40.26701891324171" lon="9.581616439013978"><ele>485.0</ele><time>2026-04-04T12:29:04Z</time></trkpt><trkpt lat="40.26690008058027" lon="9.58143833931978"><ele>485.0</ele><time>2026-04-04T12:29:05Z</time></trkpt><trkpt lat="40.266788996596425" lon="9.581255496686088"><ele>483.0</ele><time>2026-04-04T12:29:06Z</time></trkpt><trkpt lat="40.26666371669514" lon="9.581105342484355"><ele>481.0</ele><time>2026-04-04T12:29:07Z</time></trkpt><trkpt lat="40.266526164181684" lon="9.580979454939024"><ele>479.0</ele><time>2026-04-04T12:29:08Z</time></trkpt><trkpt lat="40.26635981165403" lon="9.580895470010265"><ele>479.0</ele><time>2026-04-04T12:29:09Z</time></trkpt><trkpt lat="40.26617662272718" lon="9.580827569815929"><ele>479.0</ele><time>2026-04-04T12:29:10Z</time></trkpt><trkpt lat="40.26601087211684" lon="9.58074030023078"><ele>479.0</ele><time>2026-04-04T12:29:11Z</time></trkpt><trkpt lat="40.2658947476205" lon="9.580591135617578"><ele>479.0</ele><time>2026-04-04T12:29:12Z</time></trkpt><trkpt lat="40.265779312614605" lon="9.580422678699728"><ele>479.0</ele><time>2026-04-04T12:29:13Z</time></trkpt><trkpt lat="40.26564343517009" lon="9.580249030504575"><ele>479.0</ele><time>2026-04-04T12:29:14Z</time></trkpt><trkpt lat="40.26553432145898" lon="9.580072996039194"><ele>478.25</ele><time>2026-04-04T12:29:15Z</time></trkpt><trkpt lat="40.26543239523223" lon="9.579928440992054"><ele>477.5</ele><time>2026-04-04T12:29:16Z</time></trkpt><trkpt lat="40.26534578226286" lon="9.57981096021722"><ele>476.75</ele><time>2026-04-04T12:29:17Z</time></trkpt><trkpt lat="40.265254238725866" lon="9.579726401691971"><ele>476.0</ele><time>2026-04-04T12:29:18Z</time></trkpt><trkpt lat="40.265151778258726" lon="9.579692486726945"><ele>476.0</ele><time>2026-04-04T12:29:19Z</time></trkpt><trkpt lat="40.26504191009693" lon="9.579712292359675"><ele>476.0</ele><time>2026-04-04T12:29:20Z</time></trkpt><trkpt lat="40.26492681180567" lon="9.579777320024748"><ele>476.0</ele><time>2026-04-04T12:29:21Z</time></trkpt><trkpt lat="40.26481427546169" lon="9.579855409129749"><ele>476.0</ele><time>2026-04-04T12:29:22Z</time></trkpt><trkpt lat="40.26471081583329" lon="9.579913085801367"><ele>476.6</ele><time>2026-04-04T12:29:23Z</time></trkpt><trkpt lat="40.26461597902276" lon="9.579951204012792"><ele>477.20000000000005</ele><time>2026-04-04T12:29:24Z</time></trkpt><trkpt lat="40.264525677113575" lon="9.579932285695781"><ele>477.79999999999995</ele><time>2026-04-04T12:29:25Z</time></trkpt><trkpt lat="40.26444498060447" lon="9.579895808761663"><ele>478.4</ele><time>2026-04-04T12:29:26.001Z</time></trkpt><trkpt lat="40.26434458071018" lon="9.57987438266053"><ele>479.0</ele><time>2026-04-04T12:29:27.001Z</time></trkpt><trkpt lat="40.264238704040785" lon="9.579825800600963"><ele>479.0</ele><time>2026-04-04T12:29:28.001Z</time></trkpt><trkpt lat="40.26412377769814" lon="9.57978543690322"><ele>479.0</ele><time>2026-04-04T12:29:29.001Z</time></trkpt><trkpt lat="40.26400452233419" lon="9.5797403837185"><ele>479.0</ele><time>2026-04-04T12:29:30.001Z</time></trkpt><trkpt lat="40.26388262786726" lon="9.57969640786915"><ele>479.0</ele><time>2026-04-04T12:29:31.001Z</time></trkpt><trkpt lat="40.263752649515745" lon="9.57967836191954"><ele>481.0</ele><time>2026-04-04T12:29:32.001Z</time></trkpt><trkpt lat="40.26361430256685" lon="9.579709999388761"><ele>483.0</ele><time>2026-04-04T12:29:33.001Z</time></trkpt><trkpt lat="40.26347264715746" lon="9.579767350597711"><ele>485.0</ele><time>2026-04-04T12:29:34.001Z</time></trkpt><trkpt lat="40.26332621655057" lon="9.57979320090714"><ele>487.0</ele><time>2026-04-04T12:29:35.001Z</time></trkpt><trkpt lat="40.263185310042125" lon="9.579723377015515"><ele>488.75</ele><time>2026-04-04T12:29:36.001Z</time></trkpt><trkpt lat="40.26304994613936" lon="9.579721287040071"><ele>490.5</ele><time>2026-04-04T12:29:37.001Z</time></trkpt><trkpt lat="40.26292542616" lon="9.579722121965377"><ele>492.25</ele><time>2026-04-04T12:29:38.001Z</time></trkpt><trkpt lat="40.26280677658837" lon="9.579741577187546"><ele>494.0</ele><time>2026-04-04T12:29:39.001Z</time></trkpt><trkpt lat="40.262678876983365" lon="9.579720443403577"><ele>494.0</ele><time>2026-04-04T12:29:40.001Z</time></trkpt><trkpt lat="40.26254808644249" lon="9.579666493321515"><ele>494.0</ele><time>2026-04-04T12:29:41.001Z</time></trkpt><trkpt lat="40.26241546780661" lon="9.579588555924772"><ele>494.0</ele><time>2026-04-04T12:29:42.001Z</time></trkpt><trkpt lat="40.26227364005062" lon="9.579501096325616"><ele>494.0</ele><time>2026-04-04T12:29:43.001Z</time></trkpt><trkpt lat="40.26214004704103" lon="9.579417153714394"><ele>488.5</ele><time>2026-04-04T12:29:44.001Z</time></trkpt><trkpt lat="40.26202268920747" lon="9.579335760342993"><ele>483.0</ele><time>2026-04-04T12:29:45.001Z</time></trkpt><trkpt lat="40.26191913141719" lon="9.579243464840703"><ele>477.5</ele><time>2026-04-04T12:29:46.001Z</time></trkpt><trkpt lat="40.261805483617636" lon="9.579177321402582"><ele>472.0</ele><time>2026-04-04T12:29:47.001Z</time></trkpt><trkpt lat="40.261659651499215" lon="9.579162700976134"><ele>472.0</ele><time>2026-04-04T12:29:48.001Z</time></trkpt><trkpt lat="40.26150151491778" lon="9.579170091509253"><ele>472.0</ele><time>2026-04-04T12:29:49.001Z</time></trkpt><trkpt lat="40.261345586629396" lon="9.579173403345333"><ele>472.0</ele><time>2026-04-04T12:29:50.001Z</time></trkpt><trkpt lat="40.26118566100596" lon="9.579127274076948"><ele>477.33333333333337</ele><time>2026-04-04T12:29:51.001Z</time></trkpt><trkpt lat="40.261022818477606" lon="9.578992055254583"><ele>482.66666666666663</ele><time>2026-04-04T12:29:52.001Z</time></trkpt><trkpt lat="40.260833169924354" lon="9.57888583053754"><ele>488.0</ele><time>2026-04-04T12:29:53.001Z</time></trkpt><trkpt lat="40.260653278695294" lon="9.578819074926557"><ele>493.0</ele><time>2026-04-04T12:29:54.001Z</time></trkpt><trkpt lat="40.26047874341874" lon="9.578749745419216"><ele>498.0</ele><time>2026-04-04T12:29:55.001Z</time></trkpt><trkpt lat="40.26031171256287" lon="9.57868542019534"><ele>503.0</ele><time>2026-04-04T12:29:56.001Z</time></trkpt><trkpt lat="40.26016455515133" lon="9.57862252959794"><ele>503.75</ele><time>2026-04-04T12:29:57.001Z</time></trkpt><trkpt lat="40.26002446767623" lon="9.578564961580948"><ele>504.5</ele><time>2026-04-04T12:29:58.001Z</time></trkpt><trkpt lat="40.25990193568546" lon="9.578503372250971"><ele>505.25</ele><time>2026-04-04T12:29:59.001Z</time></trkpt><trkpt lat="40.25980790809796" lon="9.578415192008961"><ele>506.0</ele><time>2026-04-04T12:30:00.001Z</time></trkpt><trkpt lat="40.25974091828234" lon="9.578284326422722"><ele>506.0</ele><time>2026-04-04T12:30:01.001Z</time></trkpt><trkpt lat="40.25973841767621" lon="9.578106371534897"><ele>506.0</ele><time>2026-04-04T12:30:02.001Z</time></trkpt><trkpt lat="40.259675680071744" lon="9.57797061772857"><ele>506.0</ele><time>2026-04-04T12:30:03.001Z</time></trkpt><trkpt lat="40.25960659723709" lon="9.577866279466306"><ele>506.0</ele><time>2026-04-04T12:30:04.001Z</time></trkpt><trkpt lat="40.259503941697844" lon="9.577773234661707"><ele>496.75</ele><time>2026-04-04T12:30:05.001Z</time></trkpt><trkpt lat="40.25938224459766" lon="9.577704075527935"><ele>487.5</ele><time>2026-04-04T12:30:06.001Z</time></trkpt><trkpt lat="40.25924882594174" lon="9.577688515633493"><ele>478.25</ele><time>2026-04-04T12:30:07.001Z</time></trkpt><trkpt lat="40.259112514900444" lon="9.577721178864987"><ele>469.0</ele><time>2026-04-04T12:30:08.001Z</time></trkpt><trkpt lat="40.25898491224625" lon="9.577761153195"><ele>471.5</ele><time>2026-04-04T12:30:09.001Z</time></trkpt><trkpt lat="40.258865224456976" lon="9.57772998079909"><ele>474.0</ele><time>2026-04-04T12:30:10.001Z</time></trkpt><trkpt lat="40.25874978872708" lon="9.577667151217915"><ele>476.5</ele><time>2026-04-04T12:30:11.001Z</time></trkpt><trkpt lat="40.258610361458416" lon="9.577604870361837"><ele>479.0</ele><time>2026-04-04T12:30:12.001Z</time></trkpt><trkpt lat="40.258452843694656" lon="9.577558904989017"><ele>479.0</ele><time>2026-04-04T12:30:13.001Z</time></trkpt><trkpt lat="40.25826869134011" lon="9.577519744926914"><ele>479.0</ele><time>2026-04-04T12:30:14.001Z</time></trkpt><trkpt lat="40.25806575276537" lon="9.577491581107317"><ele>479.0</ele><time>2026-04-04T12:30:15.001Z</time></trkpt><trkpt lat="40.257846928102786" lon="9.577480024946635"><ele>485.66666666666663</ele><time>2026-04-04T12:30:16.001Z</time></trkpt><trkpt lat="40.25762404905958" lon="9.577414098605004"><ele>492.33333333333337</ele><time>2026-04-04T12:30:17.001Z</time></trkpt><trkpt lat="40.25741194588411" lon="9.577342674585951"><ele>499.0</ele><time>2026-04-04T12:30:18.001Z</time></trkpt><trkpt lat="40.25719747163376" lon="9.577256408181366"><ele>504.33333333333337</ele><time>2026-04-04T12:30:19.001Z</time></trkpt><trkpt lat="40.256982938759535" lon="9.577200953013014"><ele>509.66666666666663</ele><time>2026-04-04T12:30:20.001Z</time></trkpt><trkpt lat="40.25675488554817" lon="9.577200153228253"><ele>515.0</ele><time>2026-04-04T12:30:21.001Z</time></trkpt><trkpt lat="40.25652849823305" lon="9.577210361022138"><ele>521.3333333333333</ele><time>2026-04-04T12:30:22.001Z</time></trkpt><trkpt lat="40.25633385819364" lon="9.577195062571068"><ele>527.6666666666666</ele><time>2026-04-04T12:30:23.001Z</time></trkpt><trkpt lat="40.256159264316416" lon="9.577113696858778"><ele>534.0</ele><time>2026-04-04T12:30:24.001Z</time></trkpt><trkpt lat="40.255981165801934" lon="9.577004462355221"><ele>530.3333333333334</ele><time>2026-04-04T12:30:25.001Z</time></trkpt><trkpt lat="40.25578340340458" lon="9.576933575953621"><ele>526.6666666666667</ele><time>2026-04-04T12:30:26.001Z</time></trkpt><trkpt lat="40.2556066452345" lon="9.576902950607415"><ele>523.0</ele><time>2026-04-04T12:30:27.001Z</time></trkpt><trkpt lat="40.2554568498063" lon="9.5768688592328"><ele>523.0</ele><time>2026-04-04T12:30:28.001Z</time></trkpt><trkpt lat="40.255336119422076" lon="9.576792087121094"><ele>523.0</ele><time>2026-04-04T12:30:29.001Z</time></trkpt><trkpt lat="40.255254365893954" lon="9.57664489674322"><ele>523.0</ele><time>2026-04-04T12:30:30.001Z</time></trkpt><trkpt lat="40.255137132581936" lon="9.576469070239844"><ele>523.0</ele><time>2026-04-04T12:30:31.001Z</time></trkpt><trkpt lat="40.25500062860062" lon="9.576279235031187"><ele>523.0</ele><time>2026-04-04T12:30:32.001Z</time></trkpt><trkpt lat="40.25483603964688" lon="9.576116664996867"><ele>523.0</ele><time>2026-04-04T12:30:33.001Z</time></trkpt><trkpt lat="40.25466425755937" lon="9.575951541194868"><ele>524.5</ele><time>2026-04-04T12:30:34.001Z</time></trkpt><trkpt lat="40.25453503320144" lon="9.575800018440173"><ele>526.0</ele><time>2026-04-04T12:30:35.001Z</time></trkpt><trkpt lat="40.25446928864457" lon="9.575650662237837"><ele>527.5</ele><time>2026-04-04T12:30:36.001Z</time></trkpt><trkpt lat="40.25444353649533" lon="9.57547290801027"><ele>529.0</ele><time>2026-04-04T12:30:37.001Z</time></trkpt><trkpt lat="40.25440242382366" lon="9.57529521159047"><ele>528.25</ele><time>2026-04-04T12:30:38.001Z</time></trkpt><trkpt lat="40.25431720834871" lon="9.575172095648297"><ele>527.5</ele><time>2026-04-04T12:30:39.001Z</time></trkpt><trkpt lat="40.25419445065536" lon="9.575092518114051"><ele>526.75</ele><time>2026-04-04T12:30:40.001Z</time></trkpt><trkpt lat="40.254044878326674" lon="9.575063995979095"><ele>526.0</ele><time>2026-04-04T12:30:41.001Z</time></trkpt><trkpt lat="40.25386477128454" lon="9.575067964077029"><ele>526.0</ele><time>2026-04-04T12:30:42.001Z</time></trkpt><trkpt lat="40.25367295738024" lon="9.575051996322498"><ele>526.0</ele><time>2026-04-04T12:30:43.001Z</time></trkpt><trkpt lat="40.25346296056403" lon="9.575013927015927"><ele>526.0</ele><time>2026-04-04T12:30:44.001Z</time></trkpt><trkpt lat="40.253244670632036" lon="9.574950668070745"><ele>535.0</ele><time>2026-04-04T12:30:45.001Z</time></trkpt><trkpt lat="40.25302034213465" lon="9.57485067002352"><ele>544.0</ele><time>2026-04-04T12:30:46.001Z</time></trkpt><trkpt lat="40.2528029076484" lon="9.574735501248009"><ele>544.0</ele><time>2026-04-04T12:30:47.001Z</time></trkpt><trkpt lat="40.25259174744164" lon="9.574614602861265"><ele>544.0</ele><time>2026-04-04T12:30:48.001Z</time></trkpt><trkpt lat="40.25238169406985" lon="9.574485942955805"><ele>540.3333333333334</ele><time>2026-04-04T12:30:49.001Z</time></trkpt><trkpt lat="40.25219636028384" lon="9.57437684222493"><ele>536.6666666666666</ele><time>2026-04-04T12:30:50.001Z</time></trkpt><trkpt lat="40.25202383472163" lon="9.574315040693822"><ele>533.0</ele><time>2026-04-04T12:30:51.001Z</time></trkpt><trkpt lat="40.25184963160565" lon="9.574253356414058"><ele>533.0</ele><time>2026-04-04T12:30:52.001Z</time></trkpt><trkpt lat="40.25169673388708" lon="9.574096032823293"><ele>533.0</ele><time>2026-04-04T12:30:53.001Z</time></trkpt><trkpt lat="40.25153273261791" lon="9.573986154988829"><ele>533.0</ele><time>2026-04-04T12:30:54.001Z</time></trkpt><trkpt lat="40.25136517862422" lon="9.573890580567127"><ele>539.6666666666666</ele><time>2026-04-04T12:30:55.001Z</time></trkpt><trkpt lat="40.25117762997104" lon="9.573847843054965"><ele>546.3333333333334</ele><time>2026-04-04T12:30:56.001Z</time></trkpt><trkpt lat="40.251012520476095" lon="9.573808185456457"><ele>553.0</ele><time>2026-04-04T12:30:57.001Z</time></trkpt><trkpt lat="40.250896515558445" lon="9.573687033997308"><ele>547.3333333333334</ele><time>2026-04-04T12:30:58.001Z</time></trkpt><trkpt lat="40.250787416134266" lon="9.573547255420992"><ele>541.6666666666666</ele><time>2026-04-04T12:30:59.001Z</time></trkpt><trkpt lat="40.25066773396897" lon="9.573416425326688"><ele>536.0</ele><time>2026-04-04T12:31:00.001Z</time></trkpt><trkpt lat="40.25051851459157" lon="9.57336641246509"><ele>536.0</ele><time>2026-04-04T12:31:01.001Z</time></trkpt><trkpt lat="40.25031795854394" lon="9.573418009779067"><ele>536.0</ele><time>2026-04-04T12:31:02.001Z</time></trkpt><trkpt lat="40.25013413000657" lon="9.573340087300961"><ele>536.0</ele><time>2026-04-04T12:31:03.001Z</time></trkpt><trkpt lat="40.24995568893103" lon="9.573204983136668"><ele>544.3333333333333</ele><time>2026-04-04T12:31:04.001Z</time></trkpt><trkpt lat="40.249772706460256" lon="9.573069639509452"><ele>552.6666666666666</ele><time>2026-04-04T12:31:05.001Z</time></trkpt><trkpt lat="40.24960792080523" lon="9.572974465403751"><ele>561.0</ele><time>2026-04-04T12:31:06.001Z</time></trkpt><trkpt lat="40.249448390236374" lon="9.572920754289695"><ele>561.0</ele><time>2026-04-04T12:31:07.001Z</time></trkpt><trkpt lat="40.2492711568554" lon="9.572911616775198"><ele>561.0</ele><time>2026-04-04T12:31:08.001Z</time></trkpt><trkpt lat="40.24907987893191" lon="9.572923578147023"><ele>561.0</ele><time>2026-04-04T12:31:09.001Z</time></trkpt><trkpt lat="40.248901765018324" lon="9.572913192504402"><ele>555.6666666666666</ele><time>2026-04-04T12:31:10.001Z</time></trkpt><trkpt lat="40.24874168951519" lon="9.572833107248023"><ele>550.3333333333333</ele><time>2026-04-04T12:31:11.001Z</time></trkpt><trkpt lat="40.248567177746736" lon="9.572758693400925"><ele>545.0</ele><time>2026-04-04T12:31:12.001Z</time></trkpt><trkpt lat="40.248385010585096" lon="9.572637501994226"><ele>545.0</ele><time>2026-04-04T12:31:13.001Z</time></trkpt><trkpt lat="40.24820046904491" lon="9.572495179971481"><ele>545.0</ele><time>2026-04-04T12:31:14.001Z</time></trkpt><trkpt lat="40.24801872950907" lon="9.572322941661753"><ele>545.0</ele><time>2026-04-04T12:31:15.001Z</time></trkpt><trkpt lat="40.24785220882371" lon="9.572152539260177"><ele>542.0</ele><time>2026-04-04T12:31:16.001Z</time></trkpt><trkpt lat="40.24770228018034" lon="9.572014415198463"><ele>539.0</ele><time>2026-04-04T12:31:17.001Z</time></trkpt><trkpt lat="40.24755164274263" lon="9.571932059254484"><ele>536.0</ele><time>2026-04-04T12:31:18.001Z</time></trkpt><trkpt lat="40.2473800719421" lon="9.57190934189481"><ele>544.0</ele><time>2026-04-04T12:31:19.001Z</time></trkpt><trkpt lat="40.24719821171486" lon="9.57190855084436"><ele>552.0</ele><time>2026-04-04T12:31:20.001Z</time></trkpt><trkpt lat="40.24705334085239" lon="9.571850184573915"><ele>560.0</ele><time>2026-04-04T12:31:21.001Z</time></trkpt><trkpt lat="40.24693020454067" lon="9.57174739287348"><ele>560.0</ele><time>2026-04-04T12:31:22.001Z</time></trkpt><trkpt lat="40.24681378232391" lon="9.571575697448973"><ele>560.0</ele><time>2026-04-04T12:31:23.001Z</time></trkpt><trkpt lat="40.2466631101719" lon="9.571420307434602"><ele>560.0</ele><time>2026-04-04T12:31:24.001Z</time></trkpt><trkpt lat="40.24648551625883" lon="9.571285126273214"><ele>559.0</ele><time>2026-04-04T12:31:25.001Z</time></trkpt><trkpt lat="40.246301081015616" lon="9.571164261132694"><ele>558.0</ele><time>2026-04-04T12:31:26.001Z</time></trkpt><trkpt lat="40.24610235873392" lon="9.571029701716883"><ele>557.0</ele><time>2026-04-04T12:31:27.001Z</time></trkpt><trkpt lat="40.24571368513803" lon="9.570694364374708"><ele>559.0</ele><time>2026-04-04T12:31:29.001Z</time></trkpt><trkpt lat="40.24552160206219" lon="9.570508514227885"><ele>561.0</ele><time>2026-04-04T12:31:30.001Z</time></trkpt><trkpt lat="40.245350011579056" lon="9.570366785328725"><ele>563.0</ele><time>2026-04-04T12:31:31.001Z</time></trkpt><trkpt lat="40.24520251457864" lon="9.570246982643113"><ele>563.0</ele><time>2026-04-04T12:31:32.001Z</time></trkpt><trkpt lat="40.245096084515204" lon="9.570079833992544"><ele>563.0</ele><time>2026-04-04T12:31:33.001Z</time></trkpt><trkpt lat="40.24495584291762" lon="9.569876058651737"><ele>563.0</ele><time>2026-04-04T12:31:34.001Z</time></trkpt><trkpt lat="40.244781574962694" lon="9.569681883508231"><ele>563.5</ele><time>2026-04-04T12:31:35.001Z</time></trkpt><trkpt lat="40.24459421213083" lon="9.569482909162847"><ele>564.0</ele><time>2026-04-04T12:31:36.001Z</time></trkpt><trkpt lat="40.244403772130795" lon="9.56928913131279"><ele>564.0</ele><time>2026-04-04T12:31:37.001Z</time></trkpt><trkpt lat="40.24421152314969" lon="9.569082944130935"><ele>564.0</ele><time>2026-04-04T12:31:38.001Z</time></trkpt><trkpt lat="40.244031408685295" lon="9.568889072548362"><ele>561.6666666666666</ele><time>2026-04-04T12:31:39.001Z</time></trkpt><trkpt lat="40.2438721113528" lon="9.568720772287223"><ele>559.3333333333333</ele><time>2026-04-04T12:31:40.001Z</time></trkpt><trkpt lat="40.24373308810439" lon="9.568581739536645"><ele>557.0</ele><time>2026-04-04T12:31:41.001Z</time></trkpt><trkpt lat="40.243599167390606" lon="9.56849136701122"><ele>557.0</ele><time>2026-04-04T12:31:42.001Z</time></trkpt><trkpt lat="40.24340786005259" lon="9.568440696547432"><ele>557.0</ele><time>2026-04-04T12:31:43.001Z</time></trkpt><trkpt lat="40.24320828223789" lon="9.56838958208305"><ele>557.0</ele><time>2026-04-04T12:31:44.001Z</time></trkpt><trkpt lat="40.24301132916984" lon="9.568291528560994"><ele>576.5</ele><time>2026-04-04T12:31:45.001Z</time></trkpt><trkpt lat="40.24283416887439" lon="9.56809863548956"><ele>596.0</ele><time>2026-04-04T12:31:46.001Z</time></trkpt><trkpt lat="40.24261882454201" lon="9.567960196793864"><ele>596.6666666666666</ele><time>2026-04-04T12:31:47.001Z</time></trkpt><trkpt lat="40.24242302711235" lon="9.567808609909074"><ele>597.3333333333334</ele><time>2026-04-04T12:31:48.001Z</time></trkpt><trkpt lat="40.242247054484864" lon="9.567683843198244"><ele>598.0</ele><time>2026-04-04T12:31:49.001Z</time></trkpt><trkpt lat="40.24209594403816" lon="9.567569750073472"><ele>598.0</ele><time>2026-04-04T12:31:50.001Z</time></trkpt><trkpt lat="40.24199119113523" lon="9.567441183034692"><ele>598.0</ele><time>2026-04-04T12:31:51.001Z</time></trkpt><trkpt lat="40.241912753417715" lon="9.567321467605508"><ele>598.0</ele><time>2026-04-04T12:31:52.001Z</time></trkpt><trkpt lat="40.2418874847625" lon="9.56718111784682"><ele>598.0</ele><time>2026-04-04T12:31:53.001Z</time></trkpt><trkpt lat="40.24187702275273" lon="9.566998556228494"><ele>591.0</ele><time>2026-04-04T12:31:54.001Z</time></trkpt><trkpt lat="40.24181435367457" lon="9.566806568096919"><ele>584.0</ele><time>2026-04-04T12:31:55.001Z</time></trkpt><trkpt lat="40.241722712087316" lon="9.566611579127319"><ele>577.0</ele><time>2026-04-04T12:31:56.001Z</time></trkpt><trkpt lat="40.24158854261515" lon="9.566437233014236"><ele>574.6666666666667</ele><time>2026-04-04T12:31:57.001Z</time></trkpt><trkpt lat="40.241414664512824" lon="9.566275826362611"><ele>572.3333333333334</ele><time>2026-04-04T12:31:58.001Z</time></trkpt><trkpt lat="40.24123437504351" lon="9.566132884838666"><ele>570.0</ele><time>2026-04-04T12:31:59.001Z</time></trkpt><trkpt lat="40.241033850294805" lon="9.566033188713924"><ele>570.0</ele><time>2026-04-04T12:32:00.001Z</time></trkpt><trkpt lat="40.24080290748908" lon="9.56595254774882"><ele>570.0</ele><time>2026-04-04T12:32:01.001Z</time></trkpt><trkpt lat="40.240574347124706" lon="9.56587825118359"><ele>587.0</ele><time>2026-04-04T12:32:02.001Z</time></trkpt><trkpt lat="40.24035026951483" lon="9.565787517908356"><ele>604.0</ele><time>2026-04-04T12:32:03.001Z</time></trkpt><trkpt lat="40.24012644199942" lon="9.565668055804565"><ele>604.0</ele><time>2026-04-04T12:32:04.001Z</time></trkpt><trkpt lat="40.23991528984762" lon="9.565524583675275"><ele>604.0</ele><time>2026-04-04T12:32:05.001Z</time></trkpt><trkpt lat="40.23973166639713" lon="9.565379268531156"><ele>605.0</ele><time>2026-04-04T12:32:06.001Z</time></trkpt><trkpt lat="40.23958913153242" lon="9.565215702692173"><ele>606.0</ele><time>2026-04-04T12:32:07.001Z</time></trkpt><trkpt lat="40.239463138482165" lon="9.565038191084833"><ele>607.0</ele><time>2026-04-04T12:32:08.001Z</time></trkpt><trkpt lat="40.239314890349746" lon="9.564896847832486"><ele>607.0</ele><time>2026-04-04T12:32:09.001Z</time></trkpt><trkpt lat="40.23915951558151" lon="9.564779970544624"><ele>607.0</ele><time>2026-04-04T12:32:10.001Z</time></trkpt><trkpt lat="40.23897264677079" lon="9.564705930920727"><ele>607.0</ele><time>2026-04-04T12:32:11.001Z</time></trkpt><trkpt lat="40.23880027511943" lon="9.564595970859155"><ele>611.0</ele><time>2026-04-04T12:32:12.001Z</time></trkpt><trkpt lat="40.238643245544544" lon="9.564436105575476"><ele>615.0</ele><time>2026-04-04T12:32:13.001Z</time></trkpt><trkpt lat="40.23848981107729" lon="9.56425317734101"><ele>619.0</ele><time>2026-04-04T12:32:14.001Z</time></trkpt><trkpt lat="40.2383587084828" lon="9.56404297496654"><ele>619.0</ele><time>2026-04-04T12:32:15.001Z</time></trkpt><trkpt lat="40.23824583492877" lon="9.563815542278585"><ele>619.0</ele><time>2026-04-04T12:32:16.001Z</time></trkpt><trkpt lat="40.23813472460788" lon="9.563583669896225"><ele>619.0</ele><time>2026-04-04T12:32:17.001Z</time></trkpt><trkpt lat="40.23805861646739" lon="9.563318403070468"><ele>624.0</ele><time>2026-04-04T12:32:18.001Z</time></trkpt><trkpt lat="40.237968031776866" lon="9.563068248917796"><ele>629.0</ele><time>2026-04-04T12:32:19.001Z</time></trkpt><trkpt lat="40.23783928175112" lon="9.562844234420274"><ele>634.0</ele><time>2026-04-04T12:32:20.001Z</time></trkpt><trkpt lat="40.237691253340174" lon="9.562632865101646"><ele>618.5</ele><time>2026-04-04T12:32:21.001Z</time></trkpt><trkpt lat="40.23753038103863" lon="9.562433345157206"><ele>603.0</ele><time>2026-04-04T12:32:22.001Z</time></trkpt><trkpt lat="40.23734517381483" lon="9.562250115549721"><ele>607.5</ele><time>2026-04-04T12:32:23.001Z</time></trkpt><trkpt lat="40.23713711649417" lon="9.562088604917063"><ele>612.0</ele><time>2026-04-04T12:32:24.001Z</time></trkpt><trkpt lat="40.236919904635606" lon="9.561919821029216"><ele>612.0</ele><time>2026-04-04T12:32:25.001Z</time></trkpt><trkpt lat="40.2367180602075" lon="9.561743520530706"><ele>612.0</ele><time>2026-04-04T12:32:26.001Z</time></trkpt><trkpt lat="40.23655496401275" lon="9.561559226615941"><ele>613.6666666666666</ele><time>2026-04-04T12:32:27.001Z</time></trkpt><trkpt lat="40.23640816444319" lon="9.561377135891698"><ele>615.3333333333333</ele><time>2026-04-04T12:32:28.001Z</time></trkpt><trkpt lat="40.23627778586876" lon="9.56116818573735"><ele>617.0</ele><time>2026-04-04T12:32:29.001Z</time></trkpt><trkpt lat="40.23613534254387" lon="9.560971788603206"><ele>617.0</ele><time>2026-04-04T12:32:30.001Z</time></trkpt><trkpt lat="40.235999153925874" lon="9.560803186538722"><ele>617.0</ele><time>2026-04-04T12:32:31.001Z</time></trkpt><trkpt lat="40.2358363843453" lon="9.560680779009893"><ele>617.0</ele><time>2026-04-04T12:32:32.001Z</time></trkpt><trkpt lat="40.23565064039424" lon="9.560591432796782"><ele>628.0</ele><time>2026-04-04T12:32:33.001Z</time></trkpt><trkpt lat="40.235443200905465" lon="9.560524586915419"><ele>639.0</ele><time>2026-04-04T12:32:34.001Z</time></trkpt><trkpt lat="40.235223634486275" lon="9.560462991789997"><ele>650.0</ele><time>2026-04-04T12:32:35.001Z</time></trkpt><trkpt lat="40.23502052464819" lon="9.560392077743655"><ele>646.0</ele><time>2026-04-04T12:32:36.001Z</time></trkpt><trkpt lat="40.23485758095424" lon="9.560259239093197"><ele>642.0</ele><time>2026-04-04T12:32:37.001Z</time></trkpt><trkpt lat="40.2346942929729" lon="9.560103068311884"><ele>638.0</ele><time>2026-04-04T12:32:38.001Z</time></trkpt><trkpt lat="40.23451065734192" lon="9.559941785610334"><ele>638.0</ele><time>2026-04-04T12:32:39.001Z</time></trkpt><trkpt lat="40.23432264420056" lon="9.559763827774807"><ele>638.0</ele><time>2026-04-04T12:32:40Z</time></trkpt><trkpt lat="40.234123497038695" lon="9.559608403251337"><ele>640.0</ele><time>2026-04-04T12:32:41Z</time></trkpt><trkpt lat="40.233938793979235" lon="9.559476711756046"><ele>642.0</ele><time>2026-04-04T12:32:42Z</time></trkpt><trkpt lat="40.233777268965085" lon="9.559359437191626"><ele>644.0</ele><time>2026-04-04T12:32:43Z</time></trkpt><trkpt lat="40.233654843604356" lon="9.559195031994268"><ele>644.0</ele><time>2026-04-04T12:32:44Z</time></trkpt><trkpt lat="40.23351354008313" lon="9.559030536335387"><ele>644.0</ele><time>2026-04-04T12:32:45Z</time></trkpt><trkpt lat="40.233364724118246" lon="9.558858074954507"><ele>644.0</ele><time>2026-04-04T12:32:46Z</time></trkpt><trkpt lat="40.23322800244004" lon="9.55875728631648"><ele>645.75</ele><time>2026-04-04T12:32:47Z</time></trkpt><trkpt lat="40.23312751957269" lon="9.558679611305735"><ele>647.5</ele><time>2026-04-04T12:32:48Z</time></trkpt><trkpt lat="40.2330619104442" lon="9.55856264624508"><ele>649.25</ele><time>2026-04-04T12:32:49Z</time></trkpt><trkpt lat="40.23306312350108" lon="9.55838449179621"><ele>651.0</ele><time>2026-04-04T12:32:50Z</time></trkpt><trkpt lat="40.233018696359096" lon="9.558204297532068"><ele>651.0</ele><time>2026-04-04T12:32:50.999Z</time></trkpt><trkpt lat="40.232947750709336" lon="9.558049217378286"><ele>651.0</ele><time>2026-04-04T12:32:51.999Z</time></trkpt><trkpt lat="40.23282091736999" lon="9.557950070943175"><ele>651.0</ele><time>2026-04-04T12:32:52.999Z</time></trkpt><trkpt lat="40.23265913793769" lon="9.557863995132028"><ele>644.0</ele><time>2026-04-04T12:32:53.999Z</time></trkpt><trkpt lat="40.232482060430236" lon="9.55777488543078"><ele>637.0</ele><time>2026-04-04T12:32:54.999Z</time></trkpt><trkpt lat="40.23228789152993" lon="9.55768393032346"><ele>630.0</ele><time>2026-04-04T12:32:55.999Z</time></trkpt><trkpt lat="40.23208107175175" lon="9.557592396416586"><ele>630.0</ele><time>2026-04-04T12:32:56.999Z</time></trkpt><trkpt lat="40.23188045573386" lon="9.557518153623636"><ele>630.0</ele><time>2026-04-04T12:32:57.999Z</time></trkpt><trkpt lat="40.23170468481878" lon="9.557490440127737"><ele>630.0</ele><time>2026-04-04T12:32:58.999Z</time></trkpt><trkpt lat="40.23154933623926" lon="9.557520808568983"><ele>636.75</ele><time>2026-04-04T12:32:59.999Z</time></trkpt><trkpt lat="40.231416680953636" lon="9.557563190245688"><ele>643.5</ele><time>2026-04-04T12:33:00.999Z</time></trkpt><trkpt lat="40.231312611946635" lon="9.557514761556638"><ele>650.25</ele><time>2026-04-04T12:33:01.999Z</time></trkpt><trkpt lat="40.231243378679665" lon="9.557385655960008"><ele>657.0</ele><time>2026-04-04T12:33:02.999Z</time></trkpt><trkpt lat="40.231133646514316" lon="9.557242726005141"><ele>657.0</ele><time>2026-04-04T12:33:03.999Z</time></trkpt><trkpt lat="40.23104109957041" lon="9.557063581492883"><ele>657.0</ele><time>2026-04-04T12:33:04.999Z</time></trkpt><trkpt lat="40.23089647338202" lon="9.556933801289286"><ele>657.0</ele><time>2026-04-04T12:33:05.999Z</time></trkpt><trkpt lat="40.230729771486146" lon="9.556872911051359"><ele>650.3333333333334</ele><time>2026-04-04T12:33:06.999Z</time></trkpt><trkpt lat="40.23055486599364" lon="9.556854056101846"><ele>643.6666666666667</ele><time>2026-04-04T12:33:07.999Z</time></trkpt><trkpt lat="40.23035011835858" lon="9.556835406170201"><ele>637.0</ele><time>2026-04-04T12:33:08.999Z</time></trkpt><trkpt lat="40.23015076848274" lon="9.556732465552638"><ele>637.0</ele><time>2026-04-04T12:33:09.999Z</time></trkpt><trkpt lat="40.22994089539264" lon="9.556621729706075"><ele>637.0</ele><time>2026-04-04T12:33:10.999Z</time></trkpt><trkpt lat="40.229782677428716" lon="9.556490853175628"><ele>637.0</ele><time>2026-04-04T12:33:11.999Z</time></trkpt><trkpt lat="40.22967083764431" lon="9.556349534050387"><ele>641.25</ele><time>2026-04-04T12:33:12.999Z</time></trkpt><trkpt lat="40.22958375879781" lon="9.55623258847068"><ele>645.5</ele><time>2026-04-04T12:33:13.999Z</time></trkpt><trkpt lat="40.229485638487546" lon="9.556129909161838"><ele>649.75</ele><time>2026-04-04T12:33:14.999Z</time></trkpt><trkpt lat="40.22936949667899" lon="9.556110217347623"><ele>654.0</ele><time>2026-04-04T12:33:15.999Z</time></trkpt><trkpt lat="40.229238153649504" lon="9.556161395862636"><ele>654.0</ele><time>2026-04-04T12:33:16.999Z</time></trkpt><trkpt lat="40.22914005072898" lon="9.556260799332392"><ele>654.0</ele><time>2026-04-04T12:33:17.999Z</time></trkpt><trkpt lat="40.229057634234856" lon="9.556339667634331"><ele>654.0</ele><time>2026-04-04T12:33:18.999Z</time></trkpt><trkpt lat="40.2289527048617" lon="9.556396038952478"><ele>654.0</ele><time>2026-04-04T12:33:19.999Z</time></trkpt><trkpt lat="40.22883055281314" lon="9.55638858474321"><ele>657.0</ele><time>2026-04-04T12:33:20.999Z</time></trkpt><trkpt lat="40.228706983737354" lon="9.556316498738896"><ele>660.0</ele><time>2026-04-04T12:33:21.999Z</time></trkpt><trkpt lat="40.22857749504318" lon="9.556251683193688"><ele>663.0</ele><time>2026-04-04T12:33:22.999Z</time></trkpt><trkpt lat="40.22844216780827" lon="9.556197701056178"><ele>666.0</ele><time>2026-04-04T12:33:23.999Z</time></trkpt><trkpt lat="40.2282995957203" lon="9.556144918057042"><ele>664.3333333333334</ele><time>2026-04-04T12:33:24.999Z</time></trkpt><trkpt lat="40.22814526934142" lon="9.556063300204881"><ele>662.6666666666667</ele><time>2026-04-04T12:33:25.999Z</time></trkpt><trkpt lat="40.22799093889386" lon="9.555907448553912"><ele>661.0</ele><time>2026-04-04T12:33:26.999Z</time></trkpt><trkpt lat="40.22782321624672" lon="9.555747298973394"><ele>661.0</ele><time>2026-04-04T12:33:27.999Z</time></trkpt><trkpt lat="40.22768298823225" lon="9.555619259723338"><ele>661.0</ele><time>2026-04-04T12:33:28.999Z</time></trkpt><trkpt lat="40.22746783300595" lon="9.555518451368725"><ele>661.0</ele><time>2026-04-04T12:33:29.999Z</time></trkpt><trkpt lat="40.22725032759502" lon="9.555450591241076"><ele>672.5</ele><time>2026-04-04T12:33:30.999Z</time></trkpt><trkpt lat="40.227018352362215" lon="9.555374384108683"><ele>684.0</ele><time>2026-04-04T12:33:31.999Z</time></trkpt><trkpt lat="40.22678728999436" lon="9.555274797909316"><ele>668.5</ele><time>2026-04-04T12:33:32.999Z</time></trkpt><trkpt lat="40.22655551135994" lon="9.555155491942818"><ele>653.0</ele><time>2026-04-04T12:33:33.999Z</time></trkpt><trkpt lat="40.22631781649955" lon="9.555052941295802"><ele>653.0</ele><time>2026-04-04T12:33:34.999Z</time></trkpt><trkpt lat="40.22610146961502" lon="9.554984105227316"><ele>653.0</ele><time>2026-04-04T12:33:35.999Z</time></trkpt><trkpt lat="40.22589903543972" lon="9.554940790108823"><ele>653.0</ele><time>2026-04-04T12:33:36.999Z</time></trkpt><trkpt lat="40.22571977605945" lon="9.554905941786865"><ele>657.0</ele><time>2026-04-04T12:33:37.999Z</time></trkpt><trkpt lat="40.22557267092977" lon="9.55488395508242"><ele>661.0</ele><time>2026-04-04T12:33:38.999Z</time></trkpt><trkpt lat="40.22546193334295" lon="9.55481469300825"><ele>665.0</ele><time>2026-04-04T12:33:39.999Z</time></trkpt><trkpt lat="40.22538033336233" lon="9.554678472454746"><ele>669.0</ele><time>2026-04-04T12:33:40.999Z</time></trkpt><trkpt lat="40.225235797626375" lon="9.554557221004686"><ele>666.6666666666666</ele><time>2026-04-04T12:33:41.999Z</time></trkpt><trkpt lat="40.225080413490915" lon="9.554430238282459"><ele>664.3333333333333</ele><time>2026-04-04T12:33:42.999Z</time></trkpt><trkpt lat="40.22488827656691" lon="9.554319895381122"><ele>662.0</ele><time>2026-04-04T12:33:43.999Z</time></trkpt><trkpt lat="40.22468372803408" lon="9.554218944921203"><ele>662.0</ele><time>2026-04-04T12:33:44.999Z</time></trkpt><trkpt lat="40.224456943384965" lon="9.554149616412625"><ele>662.0</ele><time>2026-04-04T12:33:45.999Z</time></trkpt><trkpt lat="40.224229031884924" lon="9.554073628013684"><ele>662.0</ele><time>2026-04-04T12:33:46.999Z</time></trkpt><trkpt lat="40.224015622442714" lon="9.553971367170956"><ele>662.0</ele><time>2026-04-04T12:33:47.999Z</time></trkpt><trkpt lat="40.223826190501896" lon="9.55388426127105"><ele>662.0</ele><time>2026-04-04T12:33:48.999Z</time></trkpt><trkpt lat="40.22363724099133" lon="9.553848504825694"><ele>666.6666666666666</ele><time>2026-04-04T12:33:49.999Z</time></trkpt><trkpt lat="40.223437454144275" lon="9.553852992597573"><ele>671.3333333333334</ele><time>2026-04-04T12:33:50.999Z</time></trkpt><trkpt lat="40.22323764973924" lon="9.553901434094566"><ele>676.0</ele><time>2026-04-04T12:33:51.999Z</time></trkpt><trkpt lat="40.2230400271462" lon="9.553945782496811"><ele>678.3333333333334</ele><time>2026-04-04T12:33:52.999Z</time></trkpt><trkpt lat="40.222839368781536" lon="9.553913860400174"><ele>680.6666666666666</ele><time>2026-04-04T12:33:53.999Z</time></trkpt><trkpt lat="40.22261799717937" lon="9.553877004761244"><ele>683.0</ele><time>2026-04-04T12:33:54.999Z</time></trkpt><trkpt lat="40.22239009153149" lon="9.553832132049509"><ele>684.0</ele><time>2026-04-04T12:33:55.999Z</time></trkpt><trkpt lat="40.22215223261416" lon="9.553839407175973"><ele>685.0</ele><time>2026-04-04T12:33:56.999Z</time></trkpt><trkpt lat="40.22190747111446" lon="9.553863660393299"><ele>685.0</ele><time>2026-04-04T12:33:57.999Z</time></trkpt><trkpt lat="40.22165242867471" lon="9.553868248695847"><ele>685.0</ele><time>2026-04-04T12:33:58.999Z</time></trkpt><trkpt lat="40.22141134722462" lon="9.553845503605848"><ele>687.6666666666667</ele><time>2026-04-04T12:33:59.999Z</time></trkpt><trkpt lat="40.22120782306113" lon="9.553817540588946"><ele>690.3333333333334</ele><time>2026-04-04T12:34:00.999Z</time></trkpt><trkpt lat="40.22103781688356" lon="9.553778366317857"><ele>693.0</ele><time>2026-04-04T12:34:01.999Z</time></trkpt><trkpt lat="40.22088939520013" lon="9.553756347484347"><ele>693.0</ele><time>2026-04-04T12:34:02.999Z</time></trkpt><trkpt lat="40.2207374999053" lon="9.553801278743602"><ele>693.0</ele><time>2026-04-04T12:34:03.999Z</time></trkpt><trkpt lat="40.22058295291009" lon="9.553902419225528"><ele>693.0</ele><time>2026-04-04T12:34:04.999Z</time></trkpt><trkpt lat="40.220426583428825" lon="9.55391257190344"><ele>695.3333333333334</ele><time>2026-04-04T12:34:05.999Z</time></trkpt><trkpt lat="40.22024188754804" lon="9.55388946833825"><ele>697.6666666666667</ele><time>2026-04-04T12:34:06.999Z</time></trkpt><trkpt lat="40.22004132395595" lon="9.55388502749467"><ele>700.0</ele><time>2026-04-04T12:34:07.999Z</time></trkpt><trkpt lat="40.219847935736134" lon="9.553852683017135"><ele>695.5</ele><time>2026-04-04T12:34:08.999Z</time></trkpt><trkpt lat="40.21969490232948" lon="9.553837626137462"><ele>691.0</ele><time>2026-04-04T12:34:09.999Z</time></trkpt><trkpt lat="40.21956956557949" lon="9.553815046323102"><ele>686.5</ele><time>2026-04-04T12:34:10.999Z</time></trkpt><trkpt lat="40.21947209956027" lon="9.553725210905649"><ele>682.0</ele><time>2026-04-04T12:34:11.999Z</time></trkpt><trkpt lat="40.21939744046992" lon="9.553597784616843"><ele>682.0</ele><time>2026-04-04T12:34:12.999Z</time></trkpt><trkpt lat="40.21933009598475" lon="9.553429765925538"><ele>682.0</ele><time>2026-04-04T12:34:13.999Z</time></trkpt><trkpt lat="40.21921186827862" lon="9.55328084389654"><ele>682.0</ele><time>2026-04-04T12:34:14.999Z</time></trkpt><trkpt lat="40.21909554613685" lon="9.553221562361463"><ele>682.0</ele><time>2026-04-04T12:34:15.999Z</time></trkpt><trkpt lat="40.21895720664206" lon="9.553219520208808"><ele>692.6666666666667</ele><time>2026-04-04T12:34:16.999Z</time></trkpt><trkpt lat="40.21881307235597" lon="9.553230137483753"><ele>703.3333333333334</ele><time>2026-04-04T12:34:17.999Z</time></trkpt><trkpt lat="40.21867544710927" lon="9.55316176770735"><ele>714.0</ele><time>2026-04-04T12:34:18.999Z</time></trkpt><trkpt lat="40.21853470202714" lon="9.55303545979907"><ele>714.0</ele><time>2026-04-04T12:34:19.999Z</time></trkpt><trkpt lat="40.21836977896434" lon="9.552940005634882"><ele>714.0</ele><time>2026-04-04T12:34:20.999Z</time></trkpt><trkpt lat="40.21820878164973" lon="9.552884548517364"><ele>714.0</ele><time>2026-04-04T12:34:21.999Z</time></trkpt><trkpt lat="40.21802892535968" lon="9.552887482592716"><ele>708.0</ele><time>2026-04-04T12:34:22.999Z</time></trkpt><trkpt lat="40.217854214843264" lon="9.552894095433505"><ele>702.0</ele><time>2026-04-04T12:34:23.999Z</time></trkpt><trkpt lat="40.21770155582458" lon="9.552809473730472"><ele>696.0</ele><time>2026-04-04T12:34:24.999Z</time></trkpt><trkpt lat="40.217542796911985" lon="9.552694615766264"><ele>696.0</ele><time>2026-04-04T12:34:25.999Z</time></trkpt><trkpt lat="40.21739802568573" lon="9.552533736049334"><ele>696.0</ele><time>2026-04-04T12:34:26.999Z</time></trkpt><trkpt lat="40.21723878816433" lon="9.552372998399202"><ele>696.0</ele><time>2026-04-04T12:34:27.999Z</time></trkpt><trkpt lat="40.21706954419283" lon="9.552252292824631"><ele>701.3333333333334</ele><time>2026-04-04T12:34:28.999Z</time></trkpt><trkpt lat="40.216900648366156" lon="9.552163312131794"><ele>706.6666666666667</ele><time>2026-04-04T12:34:29.999Z</time></trkpt><trkpt lat="40.21671328873796" lon="9.552128843488953"><ele>712.0</ele><time>2026-04-04T12:34:30.999Z</time></trkpt><trkpt lat="40.21650852891363" lon="9.552124982831907"><ele>717.3333333333334</ele><time>2026-04-04T12:34:32Z</time></trkpt><trkpt lat="40.21628593438218" lon="9.552153037979965"><ele>722.6666666666666</ele><time>2026-04-04T12:34:33Z</time></trkpt><trkpt lat="40.216070208275305" lon="9.552189498098523"><ele>728.0</ele><time>2026-04-04T12:34:34Z</time></trkpt><trkpt lat="40.21587282366286" lon="9.552151262051492"><ele>728.0</ele><time>2026-04-04T12:34:35Z</time></trkpt><trkpt lat="40.21567352670806" lon="9.552101992022358"><ele>728.0</ele><time>2026-04-04T12:34:36Z</time></trkpt><trkpt lat="40.21547861876733" lon="9.552029615014073"><ele>728.0</ele><time>2026-04-04T12:34:37Z</time></trkpt><trkpt lat="40.21530019002966" lon="9.551912202485244"><ele>719.3333333333333</ele><time>2026-04-04T12:34:38Z</time></trkpt><trkpt lat="40.21513844004924" lon="9.551819463032434"><ele>710.6666666666666</ele><time>2026-04-04T12:34:39Z</time></trkpt><trkpt lat="40.21499368379445" lon="9.551743423013002"><ele>702.0</ele><time>2026-04-04T12:34:40Z</time></trkpt><trkpt lat="40.21482976804823" lon="9.551737310855202"><ele>706.3333333333334</ele><time>2026-04-04T12:34:41Z</time></trkpt><trkpt lat="40.214645899551236" lon="9.551773306881808"><ele>710.6666666666667</ele><time>2026-04-04T12:34:42Z</time></trkpt><trkpt lat="40.21445110903551" lon="9.551806277491181"><ele>715.0</ele><time>2026-04-04T12:34:43Z</time></trkpt><trkpt lat="40.214249943165285" lon="9.551806305472187"><ele>715.0</ele><time>2026-04-04T12:34:44Z</time></trkpt><trkpt lat="40.21405679402261" lon="9.551715795786365"><ele>715.0</ele><time>2026-04-04T12:34:45Z</time></trkpt><trkpt lat="40.21385603080508" lon="9.551594856070219"><ele>715.0</ele><time>2026-04-04T12:34:46Z</time></trkpt><trkpt lat="40.21365009139577" lon="9.551470712001592"><ele>709.0</ele><time>2026-04-04T12:34:47Z</time></trkpt><trkpt lat="40.21343434003702" lon="9.551334685482729"><ele>703.0</ele><time>2026-04-04T12:34:48Z</time></trkpt><trkpt lat="40.21321427382441" lon="9.551205419854371"><ele>719.0</ele><time>2026-04-04T12:34:49Z</time></trkpt><trkpt lat="40.21299073919786" lon="9.551075458458376"><ele>735.0</ele><time>2026-04-04T12:34:50.001Z</time></trkpt><trkpt lat="40.21280178656542" lon="9.550893297496133"><ele>735.0</ele><time>2026-04-04T12:34:51.001Z</time></trkpt><trkpt lat="40.2126223049036" lon="9.550713884664251"><ele>735.0</ele><time>2026-04-04T12:34:52.001Z</time></trkpt><trkpt lat="40.21243494111055" lon="9.550498133857692"><ele>744.5</ele><time>2026-04-04T12:34:53.001Z</time></trkpt><trkpt lat="40.21225401333033" lon="9.550269700472375"><ele>754.0</ele><time>2026-04-04T12:34:54.001Z</time></trkpt><trkpt lat="40.21206907854749" lon="9.550053344735694"><ele>754.0</ele><time>2026-04-04T12:34:55.001Z</time></trkpt><trkpt lat="40.21188999503669" lon="9.549896915078602"><ele>754.0</ele><time>2026-04-04T12:34:56.001Z</time></trkpt><trkpt lat="40.21176260765855" lon="9.549736885017435"><ele>754.0</ele><time>2026-04-04T12:34:57.001Z</time></trkpt><trkpt lat="40.211650380629564" lon="9.54954235425264"><ele>758.0</ele><time>2026-04-04T12:34:58.001Z</time></trkpt><trkpt lat="40.21151556332338" lon="9.549320668625644"><ele>762.0</ele><time>2026-04-04T12:34:59.001Z</time></trkpt><trkpt lat="40.21136938888385" lon="9.549113228278935"><ele>766.0</ele><time>2026-04-04T12:35:00.001Z</time></trkpt><trkpt lat="40.21120517448337" lon="9.54890876074815"><ele>766.0</ele><time>2026-04-04T12:35:01.001Z</time></trkpt><trkpt lat="40.21103402420977" lon="9.54872474967069"><ele>766.0</ele><time>2026-04-04T12:35:02.001Z</time></trkpt><trkpt lat="40.21086744902436" lon="9.548588025425824"><ele>766.0</ele><time>2026-04-04T12:35:03.001Z</time></trkpt><trkpt lat="40.21069939126413" lon="9.548481633993637"><ele>766.0</ele><time>2026-04-04T12:35:04.001Z</time></trkpt><trkpt lat="40.21052455918181" lon="9.548365186622803"><ele>766.0</ele><time>2026-04-04T12:35:05.001Z</time></trkpt><trkpt lat="40.21034461500917" lon="9.548228635572224"><ele>766.0</ele><time>2026-04-04T12:35:06.001Z</time></trkpt><trkpt lat="40.21019490243571" lon="9.548059550884297"><ele>770.3333333333334</ele><time>2026-04-04T12:35:07.001Z</time></trkpt><trkpt lat="40.21006866418435" lon="9.547855404281052"><ele>774.6666666666667</ele><time>2026-04-04T12:35:08.001Z</time></trkpt><trkpt lat="40.20993798406534" lon="9.547615071107295"><ele>779.0</ele><time>2026-04-04T12:35:09.001Z</time></trkpt><trkpt lat="40.20975732043311" lon="9.547412950853122"><ele>779.0</ele><time>2026-04-04T12:35:10.001Z</time></trkpt><trkpt lat="40.20956424442314" lon="9.547207194456501"><ele>779.0</ele><time>2026-04-04T12:35:11.001Z</time></trkpt><trkpt lat="40.209376146265804" lon="9.546980908643377"><ele>766.5</ele><time>2026-04-04T12:35:12.001Z</time></trkpt><trkpt lat="40.209205861292396" lon="9.54671114498043"><ele>754.0</ele><time>2026-04-04T12:35:13.001Z</time></trkpt><trkpt lat="40.20906462442386" lon="9.546395934691454"><ele>768.5</ele><time>2026-04-04T12:35:14.001Z</time></trkpt><trkpt lat="40.208910707891185" lon="9.546096847645385"><ele>783.0</ele><time>2026-04-04T12:35:15.001Z</time></trkpt><trkpt lat="40.20875335692036" lon="9.545823336556728"><ele>783.0</ele><time>2026-04-04T12:35:16.001Z</time></trkpt><trkpt lat="40.208630374769136" lon="9.54557882878577"><ele>783.0</ele><time>2026-04-04T12:35:17.001Z</time></trkpt><trkpt lat="40.208524582018214" lon="9.545365051897964"><ele>783.0</ele><time>2026-04-04T12:35:18.001Z</time></trkpt><trkpt lat="40.20843128423564" lon="9.545185610177692"><ele>783.0</ele><time>2026-04-04T12:35:19.001Z</time></trkpt><trkpt lat="40.208338532908094" lon="9.545030490520174"><ele>783.0</ele><time>2026-04-04T12:35:20.001Z</time></trkpt><trkpt lat="40.2082176762064" lon="9.544914733288127"><ele>783.0</ele><time>2026-04-04T12:35:21.001Z</time></trkpt><trkpt lat="40.20785875624379" lon="9.544785163349168"><ele>783.0</ele><time>2026-04-04T12:35:23.001Z</time></trkpt><trkpt lat="40.207655597127925" lon="9.544721868526528"><ele>783.0</ele><time>2026-04-04T12:35:24.001Z</time></trkpt><trkpt lat="40.207443401002216" lon="9.544661345338701"><ele>783.0</ele><time>2026-04-04T12:35:25.001Z</time></trkpt><trkpt lat="40.20722967851234" lon="9.544621816539934"><ele>788.6666666666667</ele><time>2026-04-04T12:35:26.001Z</time></trkpt><trkpt lat="40.20701839909454" lon="9.54457493678905"><ele>794.3333333333334</ele><time>2026-04-04T12:35:27.001Z</time></trkpt><trkpt lat="40.20679765899241" lon="9.544496528757158"><ele>800.0</ele><time>2026-04-04T12:35:28.001Z</time></trkpt><trkpt lat="40.20656966223699" lon="9.544407690227063"><ele>784.5</ele><time>2026-04-04T12:35:29.001Z</time></trkpt><trkpt lat="40.20633176004721" lon="9.544340914563715"><ele>769.0</ele><time>2026-04-04T12:35:30.001Z</time></trkpt><trkpt lat="40.206084059845026" lon="9.544316027838292"><ele>769.0</ele><time>2026-04-04T12:35:31.001Z</time></trkpt><trkpt lat="40.20585563975155" lon="9.544337784955001"><ele>769.0</ele><time>2026-04-04T12:35:32.001Z</time></trkpt><trkpt lat="40.20565235883813" lon="9.54437789494616"><ele>769.0</ele><time>2026-04-04T12:35:33.001Z</time></trkpt><trkpt lat="40.20549002915583" lon="9.544388750644286"><ele>776.6666666666666</ele><time>2026-04-04T12:35:34.001Z</time></trkpt><trkpt lat="40.20534491903046" lon="9.544360423815677"><ele>784.3333333333333</ele><time>2026-04-04T12:35:35.001Z</time></trkpt><trkpt lat="40.2052237913847" lon="9.544240419180547"><ele>792.0</ele><time>2026-04-04T12:35:36.001Z</time></trkpt><trkpt lat="40.205094933087715" lon="9.544098180779265"><ele>792.0</ele><time>2026-04-04T12:35:37.001Z</time></trkpt><trkpt lat="40.204988500038425" lon="9.543917355461303"><ele>792.0</ele><time>2026-04-04T12:35:38.001Z</time></trkpt><trkpt lat="40.20483929919398" lon="9.543786080631042"><ele>792.0</ele><time>2026-04-04T12:35:39.001Z</time></trkpt><trkpt lat="40.20466855996632" lon="9.543739702188287"><ele>787.3333333333333</ele><time>2026-04-04T12:35:40.001Z</time></trkpt><trkpt lat="40.2045134602576" lon="9.543722485411422"><ele>782.6666666666666</ele><time>2026-04-04T12:35:41.001Z</time></trkpt><trkpt lat="40.20433759134299" lon="9.543631335312485"><ele>778.0</ele><time>2026-04-04T12:35:42.001Z</time></trkpt><trkpt lat="40.20416964731444" lon="9.543463864637179"><ele>790.3333333333333</ele><time>2026-04-04T12:35:43.001Z</time></trkpt><trkpt lat="40.20398493582286" lon="9.543294166789144"><ele>802.6666666666667</ele><time>2026-04-04T12:35:44.001Z</time></trkpt><trkpt lat="40.2037855344904" lon="9.543199694692815"><ele>815.0</ele><time>2026-04-04T12:35:45.001Z</time></trkpt><trkpt lat="40.203620305524844" lon="9.543112740920703"><ele>815.0</ele><time>2026-04-04T12:35:46.001Z</time></trkpt><trkpt lat="40.20347818275655" lon="9.54297826890693"><ele>815.0</ele><time>2026-04-04T12:35:47.001Z</time></trkpt><trkpt lat="40.203345253032296" lon="9.542791618704259"><ele>815.0</ele><time>2026-04-04T12:35:48.001Z</time></trkpt><trkpt lat="40.203198965408596" lon="9.542592857268719"><ele>819.0</ele><time>2026-04-04T12:35:49.001Z</time></trkpt><trkpt lat="40.20305589750319" lon="9.542413094211526"><ele>823.0</ele><time>2026-04-04T12:35:50.001Z</time></trkpt><trkpt lat="40.20294195071931" lon="9.542247894063205"><ele>827.0</ele><time>2026-04-04T12:35:51.001Z</time></trkpt><trkpt lat="40.20285916206883" lon="9.542071469547272"><ele>818.75</ele><time>2026-04-04T12:35:52.001Z</time></trkpt><trkpt lat="40.20279617619378" lon="9.541880451755745"><ele>810.5</ele><time>2026-04-04T12:35:53.001Z</time></trkpt><trkpt lat="40.202723611332445" lon="9.541728058540773"><ele>802.25</ele><time>2026-04-04T12:35:54.001Z</time></trkpt><trkpt lat="40.20261615548515" lon="9.541622552581828"><ele>794.0</ele><time>2026-04-04T12:35:55.001Z</time></trkpt><trkpt lat="40.20246501421732" lon="9.541579222453095"><ele>800.6666666666667</ele><time>2026-04-04T12:35:56.001Z</time></trkpt><trkpt lat="40.202285411172994" lon="9.541594109031305"><ele>807.3333333333333</ele><time>2026-04-04T12:35:57.001Z</time></trkpt><trkpt lat="40.20209229571431" lon="9.541614845996548"><ele>814.0</ele><time>2026-04-04T12:35:58.001Z</time></trkpt><trkpt lat="40.201889523291825" lon="9.541591445952447"><ele>814.0</ele><time>2026-04-04T12:35:59.001Z</time></trkpt><trkpt lat="40.201692576667774" lon="9.541542224729056"><ele>814.0</ele><time>2026-04-04T12:36:00.001Z</time></trkpt><trkpt lat="40.201526814919525" lon="9.541474494614226"><ele>814.0</ele><time>2026-04-04T12:36:01.001Z</time></trkpt><trkpt lat="40.20140296485861" lon="9.541363778159988"><ele>812.75</ele><time>2026-04-04T12:36:02.001Z</time></trkpt><trkpt lat="40.20132073142606" lon="9.541197475583926"><ele>811.5</ele><time>2026-04-04T12:36:03.001Z</time></trkpt><trkpt lat="40.201277920243186" lon="9.541013466557274"><ele>810.25</ele><time>2026-04-04T12:36:04.001Z</time></trkpt><trkpt lat="40.20122024528536" lon="9.540850060943136"><ele>809.0</ele><time>2026-04-04T12:36:05.001Z</time></trkpt><trkpt lat="40.20110135824821" lon="9.540710968713878"><ele>809.0</ele><time>2026-04-04T12:36:06.001Z</time></trkpt><trkpt lat="40.20096465134199" lon="9.540576602926196"><ele>809.0</ele><time>2026-04-04T12:36:07.001Z</time></trkpt><trkpt lat="40.20082536939013" lon="9.540595978988835"><ele>809.0</ele><time>2026-04-04T12:36:08.001Z</time></trkpt><trkpt lat="40.20067047713166" lon="9.540636859796486"><ele>812.0</ele><time>2026-04-04T12:36:09.001Z</time></trkpt><trkpt lat="40.20051901611375" lon="9.540746202965838"><ele>815.0</ele><time>2026-04-04T12:36:10.001Z</time></trkpt><trkpt lat="40.200372564434176" lon="9.540874505430676"><ele>818.0</ele><time>2026-04-04T12:36:11.001Z</time></trkpt><trkpt lat="40.20023631610787" lon="9.540962667085132"><ele>818.0</ele><time>2026-04-04T12:36:12.001Z</time></trkpt><trkpt lat="40.200102683723884" lon="9.540930499678883"><ele>818.0</ele><time>2026-04-04T12:36:13.001Z</time></trkpt><trkpt lat="40.199966041075996" lon="9.540837350600045"><ele>818.0</ele><time>2026-04-04T12:36:14.001Z</time></trkpt><trkpt lat="40.199830948577215" lon="9.540784571468263"><ele>818.0</ele><time>2026-04-04T12:36:15.001Z</time></trkpt><trkpt lat="40.1997230530182" lon="9.540443665206428"><ele>820.25</ele><time>2026-04-04T12:36:16.001Z</time></trkpt><trkpt lat="40.19955919892412" lon="9.540372065014743"><ele>822.5</ele><time>2026-04-04T12:36:17.001Z</time></trkpt><trkpt lat="40.1994285677024" lon="9.54030678906805"><ele>824.75</ele><time>2026-04-04T12:36:18.001Z</time></trkpt><trkpt lat="40.19936763143321" lon="9.540205350999306"><ele>827.0</ele><time>2026-04-04T12:36:19.001Z</time></trkpt><trkpt lat="40.19935884112304" lon="9.540051048326855"><ele>827.0</ele><time>2026-04-04T12:36:20.001Z</time></trkpt><trkpt lat="40.199396519268014" lon="9.539874938849499"><ele>827.0</ele><time>2026-04-04T12:36:21.001Z</time></trkpt><trkpt lat="40.19944755672138" lon="9.539693064922556"><ele>827.0</ele><time>2026-04-04T12:36:22.001Z</time></trkpt><trkpt lat="40.199436919294726" lon="9.539507895811768"><ele>827.0</ele><time>2026-04-04T12:36:23.001Z</time></trkpt><trkpt lat="40.19934879720917" lon="9.5393448953367"><ele>824.5</ele><time>2026-04-04T12:36:24.001Z</time></trkpt><trkpt lat="40.19924176196459" lon="9.53924553831088"><ele>822.0</ele><time>2026-04-04T12:36:25.001Z</time></trkpt><trkpt lat="40.19909993397937" lon="9.539162939153158"><ele>819.5</ele><time>2026-04-04T12:36:26.001Z</time></trkpt><trkpt lat="40.198950188713745" lon="9.53910553323122"><ele>817.0</ele><time>2026-04-04T12:36:27.001Z</time></trkpt><trkpt lat="40.1987911509753" lon="9.539122256135641"><ele>817.0</ele><time>2026-04-04T12:36:28.001Z</time></trkpt><trkpt lat="40.19863265954513" lon="9.539194667659972"><ele>817.0</ele><time>2026-04-04T12:36:29.001Z</time></trkpt><trkpt lat="40.19850515598965" lon="9.539293018263846"><ele>817.0</ele><time>2026-04-04T12:36:30.001Z</time></trkpt><trkpt lat="40.198405470753364" lon="9.539334442619143"><ele>817.0</ele><time>2026-04-04T12:36:31.001Z</time></trkpt><trkpt lat="40.19829102342241" lon="9.539300209134165"><ele>817.0</ele><time>2026-04-04T12:36:32.001Z</time></trkpt><trkpt lat="40.19820075650685" lon="9.539184334306814"><ele>817.0</ele><time>2026-04-04T12:36:33.001Z</time></trkpt><trkpt lat="40.1981198439155" lon="9.539035309448284"><ele>817.0</ele><time>2026-04-04T12:36:34.001Z</time></trkpt><trkpt lat="40.19801655062513" lon="9.538842285651013"><ele>817.0</ele><time>2026-04-04T12:36:35.001Z</time></trkpt><trkpt lat="40.197903667265024" lon="9.538673045351326"><ele>820.6666666666666</ele><time>2026-04-04T12:36:36.001Z</time></trkpt><trkpt lat="40.197761763076294" lon="9.53854960786925"><ele>824.3333333333333</ele><time>2026-04-04T12:36:37.001Z</time></trkpt><trkpt lat="40.19760912593091" lon="9.538484493883047"><ele>828.0</ele><time>2026-04-04T12:36:38.001Z</time></trkpt><trkpt lat="40.19748103237738" lon="9.538426686319648"><ele>828.0</ele><time>2026-04-04T12:36:39.001Z</time></trkpt><trkpt lat="40.19740320305864" lon="9.538329124768943"><ele>828.0</ele><time>2026-04-04T12:36:40.001Z</time></trkpt><trkpt lat="40.19734279651874" lon="9.538184142730271"><ele>828.0</ele><time>2026-04-04T12:36:41.001Z</time></trkpt><trkpt lat="40.197342698718906" lon="9.538019563266598"><ele>828.0</ele><time>2026-04-04T12:36:42.001Z</time></trkpt><trkpt lat="40.19737335612402" lon="9.537856980205884"><ele>825.6666666666667</ele><time>2026-04-04T12:36:43.001Z</time></trkpt><trkpt lat="40.197404756401504" lon="9.53763831186572"><ele>823.3333333333334</ele><time>2026-04-04T12:36:44.001Z</time></trkpt><trkpt lat="40.19740623300412" lon="9.53737465080013"><ele>821.0</ele><time>2026-04-04T12:36:45.001Z</time></trkpt><trkpt lat="40.19738422836486" lon="9.537112173463486"><ele>821.3333333333334</ele><time>2026-04-04T12:36:46.001Z</time></trkpt><trkpt lat="40.19736913351106" lon="9.536855518936635"><ele>821.6666666666667</ele><time>2026-04-04T12:36:47.001Z</time></trkpt><trkpt lat="40.197354360946704" lon="9.53655415633911"><ele>822.0</ele><time>2026-04-04T12:36:48.001Z</time></trkpt><trkpt lat="40.197350311574695" lon="9.53629496209039"><ele>822.2</ele><time>2026-04-04T12:36:49.001Z</time></trkpt><trkpt lat="40.19735739984169" lon="9.536146044751332"><ele>822.4000000000001</ele><time>2026-04-04T12:36:50.001Z</time></trkpt><trkpt lat="40.197327268154254" lon="9.535977652481758"><ele>822.5999999999999</ele><time>2026-04-04T12:36:51.001Z</time></trkpt><trkpt lat="40.19725463467648" lon="9.535898266473271"><ele>822.8</ele><time>2026-04-04T12:36:52.001Z</time></trkpt><trkpt lat="40.19715805673359" lon="9.53584953978016"><ele>823.0</ele><time>2026-04-04T12:36:53.001Z</time></trkpt><trkpt lat="40.197061882134015" lon="9.535831700030714"><ele>819.6666666666666</ele><time>2026-04-04T12:36:54.001Z</time></trkpt><trkpt lat="40.19690951500765" lon="9.535882906478928"><ele>816.3333333333333</ele><time>2026-04-04T12:36:55.001Z</time></trkpt><trkpt lat="40.196747623552234" lon="9.535972013941874"><ele>813.0</ele><time>2026-04-04T12:36:56.001Z</time></trkpt><trkpt lat="40.19656672017943" lon="9.536070408427072"><ele>816.3333333333333</ele><time>2026-04-04T12:36:57.001Z</time></trkpt><trkpt lat="40.19637399582572" lon="9.536186396845265"><ele>819.6666666666666</ele><time>2026-04-04T12:36:58.001Z</time></trkpt><trkpt lat="40.19617706052111" lon="9.536316452136624"><ele>823.0</ele><time>2026-04-04T12:36:59.001Z</time></trkpt><trkpt lat="40.19599748821095" lon="9.536460719182069"><ele>823.0</ele><time>2026-04-04T12:37:00.001Z</time></trkpt><trkpt lat="40.19583510902299" lon="9.536643802334986"><ele>823.0</ele><time>2026-04-04T12:37:01.001Z</time></trkpt><trkpt lat="40.195704449038374" lon="9.536872159475584"><ele>823.0</ele><time>2026-04-04T12:37:02.001Z</time></trkpt><trkpt lat="40.19560518953478" lon="9.537088720816133"><ele>827.5</ele><time>2026-04-04T12:37:03.001Z</time></trkpt><trkpt lat="40.19551196256728" lon="9.537267192219431"><ele>832.0</ele><time>2026-04-04T12:37:04.001Z</time></trkpt><trkpt lat="40.19538650906454" lon="9.537371643213497"><ele>836.5</ele><time>2026-04-04T12:37:05.001Z</time></trkpt><trkpt lat="40.19527193499612" lon="9.537452608043521"><ele>841.0</ele><time>2026-04-04T12:37:06.001Z</time></trkpt><trkpt lat="40.19516021229126" lon="9.537502831355503"><ele>841.0</ele><time>2026-04-04T12:37:07.001Z</time></trkpt><trkpt lat="40.19505675771171" lon="9.537500547793028"><ele>841.0</ele><time>2026-04-04T12:37:08.001Z</time></trkpt><trkpt lat="40.194984288115094" lon="9.537406199993548"><ele>841.0</ele><time>2026-04-04T12:37:09.001Z</time></trkpt><trkpt lat="40.194932245532975" lon="9.537283994026206"><ele>841.0</ele><time>2026-04-04T12:37:10.001Z</time></trkpt><trkpt lat="40.19484782944236" lon="9.537161972122693"><ele>841.0</ele><time>2026-04-04T12:37:11.001Z</time></trkpt><trkpt lat="40.19472794862596" lon="9.537014818570414"><ele>829.3333333333333</ele><time>2026-04-04T12:37:12.001Z</time></trkpt><trkpt lat="40.19458527952637" lon="9.537010487847994"><ele>817.6666666666667</ele><time>2026-04-04T12:37:13.001Z</time></trkpt><trkpt lat="40.19443569764729" lon="9.536987330714485"><ele>806.0</ele><time>2026-04-04T12:37:14.001Z</time></trkpt><trkpt lat="40.19427638241495" lon="9.536990387790844"><ele>816.25</ele><time>2026-04-04T12:37:15.001Z</time></trkpt><trkpt lat="40.194153430934826" lon="9.537059202751289"><ele>826.5</ele><time>2026-04-04T12:37:16.001Z</time></trkpt><trkpt lat="40.19405848937497" lon="9.537184241941429"><ele>836.75</ele><time>2026-04-04T12:37:17.001Z</time></trkpt><trkpt lat="40.193974316799014" lon="9.537321742723343"><ele>847.0</ele><time>2026-04-04T12:37:18.001Z</time></trkpt><trkpt lat="40.193878982534116" lon="9.537408261174768"><ele>849.0</ele><time>2026-04-04T12:37:19.001Z</time></trkpt><trkpt lat="40.19379036283264" lon="9.537375737634816"><ele>851.0</ele><time>2026-04-04T12:37:20.001Z</time></trkpt><trkpt lat="40.19368497641004" lon="9.5372519497946"><ele>853.0</ele><time>2026-04-04T12:37:21.001Z</time></trkpt><trkpt lat="40.193585359326406" lon="9.53714625817522"><ele>855.0</ele><time>2026-04-04T12:37:22.001Z</time></trkpt><trkpt lat="40.193464964570104" lon="9.536997116441357"><ele>855.3333333333333</ele><time>2026-04-04T12:37:23.001Z</time></trkpt><trkpt lat="40.19332006373044" lon="9.536832229122249"><ele>855.6666666666666</ele><time>2026-04-04T12:37:24.001Z</time></trkpt><trkpt lat="40.19314521900579" lon="9.536639817516107"><ele>856.0</ele><time>2026-04-04T12:37:25.001Z</time></trkpt><trkpt lat="40.19298606536836" lon="9.536472265046406"><ele>856.0</ele><time>2026-04-04T12:37:26.001Z</time></trkpt><trkpt lat="40.19284850289312" lon="9.536319907836273"><ele>856.0</ele><time>2026-04-04T12:37:27.001Z</time></trkpt><trkpt lat="40.19277425572091" lon="9.536190309589424"><ele>856.0</ele><time>2026-04-04T12:37:28.001Z</time></trkpt><trkpt lat="40.19273464253982" lon="9.536079270546248"><ele>856.0</ele><time>2026-04-04T12:37:29.001Z</time></trkpt><trkpt lat="40.19276656371771" lon="9.535947415515363"><ele>849.1999999999999</ele><time>2026-04-04T12:37:30.001Z</time></trkpt><trkpt lat="40.19272959711255" lon="9.535816216930046"><ele>842.3999999999999</ele><time>2026-04-04T12:37:31.001Z</time></trkpt><trkpt lat="40.192690994397374" lon="9.53568515430574"><ele>835.6</ele><time>2026-04-04T12:37:32.001Z</time></trkpt><trkpt lat="40.19260695806279" lon="9.535602834077851"><ele>828.8</ele><time>2026-04-04T12:37:33.001Z</time></trkpt><trkpt lat="40.19248179949199" lon="9.53557526249504"><ele>822.0</ele><time>2026-04-04T12:37:34.001Z</time></trkpt><trkpt lat="40.19230933195791" lon="9.535583704533009"><ele>820.6666666666667</ele><time>2026-04-04T12:37:35.001Z</time></trkpt><trkpt lat="40.192133680009896" lon="9.535624326168286"><ele>819.3333333333334</ele><time>2026-04-04T12:37:36.001Z</time></trkpt><trkpt lat="40.19196364380526" lon="9.535680820131661"><ele>818.0</ele><time>2026-04-04T12:37:37.001Z</time></trkpt><trkpt lat="40.19175981074712" lon="9.535789294477873"><ele>818.0</ele><time>2026-04-04T12:37:38.001Z</time></trkpt><trkpt lat="40.19153781057442" lon="9.535921640458275"><ele>818.0</ele><time>2026-04-04T12:37:39.001Z</time></trkpt><trkpt lat="40.19131827256483" lon="9.536040569011286"><ele>809.6666666666667</ele><time>2026-04-04T12:37:40.001Z</time></trkpt><trkpt lat="40.19110684515016" lon="9.5361584116117"><ele>801.3333333333333</ele><time>2026-04-04T12:37:41.001Z</time></trkpt><trkpt lat="40.19092030842899" lon="9.536290763405946"><ele>793.0</ele><time>2026-04-04T12:37:42.001Z</time></trkpt><trkpt lat="40.19079118060291" lon="9.536422027360212"><ele>805.0</ele><time>2026-04-04T12:37:43.001Z</time></trkpt><trkpt lat="40.19067687019456" lon="9.536505404547743"><ele>817.0</ele><time>2026-04-04T12:37:44.001Z</time></trkpt><trkpt lat="40.190571930451085" lon="9.536476815190262"><ele>829.0</ele><time>2026-04-04T12:37:45.001Z</time></trkpt><trkpt lat="40.190423355563745" lon="9.536481895098635"><ele>841.0</ele><time>2026-04-04T12:37:46.001Z</time></trkpt><trkpt lat="40.19028856341443" lon="9.536527384950707"><ele>841.0</ele><time>2026-04-04T12:37:47.001Z</time></trkpt><trkpt lat="40.19017093414114" lon="9.536599650609018"><ele>841.0</ele><time>2026-04-04T12:37:48.001Z</time></trkpt><trkpt lat="40.1900904879021" lon="9.536594533312112"><ele>841.0</ele><time>2026-04-04T12:37:49.001Z</time></trkpt><trkpt lat="40.19002433258807" lon="9.536514693306687"><ele>841.0</ele><time>2026-04-04T12:37:50.001Z</time></trkpt><trkpt lat="40.18995596913556" lon="9.536380124853608"><ele>841.0</ele><time>2026-04-04T12:37:51.001Z</time></trkpt><trkpt lat="40.18991206951093" lon="9.536233696049859"><ele>837.0</ele><time>2026-04-04T12:37:52.001Z</time></trkpt><trkpt lat="40.189838071601585" lon="9.536042870485307"><ele>833.0</ele><time>2026-04-04T12:37:53.001Z</time></trkpt><trkpt lat="40.18975193323263" lon="9.535887762812546"><ele>829.0</ele><time>2026-04-04T12:37:54.001Z</time></trkpt><trkpt lat="40.189626480005614" lon="9.535797519793928"><ele>829.0</ele><time>2026-04-04T12:37:55.001Z</time></trkpt><trkpt lat="40.18945002351146" lon="9.535742543922236"><ele>829.0</ele><time>2026-04-04T12:37:56.001Z</time></trkpt><trkpt lat="40.189284270069514" lon="9.535669929427522"><ele>829.0</ele><time>2026-04-04T12:37:57.001Z</time></trkpt><trkpt lat="40.18910693330784" lon="9.53556289430724"><ele>828.0</ele><time>2026-04-04T12:37:58.001Z</time></trkpt><trkpt lat="40.18895078160588" lon="9.535508792621929"><ele>827.0</ele><time>2026-04-04T12:37:59.001Z</time></trkpt><trkpt lat="40.18884487589387" lon="9.535542881424588"><ele>826.0</ele><time>2026-04-04T12:38:00.001Z</time></trkpt><trkpt lat="40.18869851993538" lon="9.535621624296121"><ele>825.0</ele><time>2026-04-04T12:38:01Z</time></trkpt><trkpt lat="40.18856613400887" lon="9.535726835194694"><ele>825.0</ele><time>2026-04-04T12:38:02Z</time></trkpt><trkpt lat="40.18841062104209" lon="9.53586655559479"><ele>825.0</ele><time>2026-04-04T12:38:03Z</time></trkpt><trkpt lat="40.188270721214614" lon="9.53600577701917"><ele>825.0</ele><time>2026-04-04T12:38:04Z</time></trkpt><trkpt lat="40.18816583597811" lon="9.536087646921064"><ele>826.5</ele><time>2026-04-04T12:38:05Z</time></trkpt><trkpt lat="40.18803400537268" lon="9.536106020686207"><ele>828.0</ele><time>2026-04-04T12:38:06Z</time></trkpt><trkpt lat="40.187933317048056" lon="9.536048497098372"><ele>829.5</ele><time>2026-04-04T12:38:07Z</time></trkpt><trkpt lat="40.187850834548094" lon="9.535988487419491"><ele>831.0</ele><time>2026-04-04T12:38:08Z</time></trkpt><trkpt lat="40.18765674706431" lon="9.535844306491654"><ele>831.0</ele><time>2026-04-04T12:38:09Z</time></trkpt><trkpt lat="40.18750544790459" lon="9.5356853050133"><ele>831.0</ele><time>2026-04-04T12:38:10Z</time></trkpt><trkpt lat="40.18738860161785" lon="9.535530202572364"><ele>831.0</ele><time>2026-04-04T12:38:11Z</time></trkpt><trkpt lat="40.187290420674586" lon="9.535448656861853"><ele>830.5</ele><time>2026-04-04T12:38:12Z</time></trkpt><trkpt lat="40.18719320703771" lon="9.535452927751576"><ele>830.0</ele><time>2026-04-04T12:38:13Z</time></trkpt><trkpt lat="40.187097782102505" lon="9.535498771322722"><ele>829.5</ele><time>2026-04-04T12:38:14Z</time></trkpt><trkpt lat="40.18698687794494" lon="9.535596452949667"><ele>829.0</ele><time>2026-04-04T12:38:15Z</time></trkpt><trkpt lat="40.18685851339731" lon="9.53571925440575"><ele>829.0</ele><time>2026-04-04T12:38:16Z</time></trkpt><trkpt lat="40.18673370486177" lon="9.535823584032407"><ele>829.0</ele><time>2026-04-04T12:38:17Z</time></trkpt><trkpt lat="40.18658483109452" lon="9.535956331204748"><ele>829.0</ele><time>2026-04-04T12:38:18Z</time></trkpt><trkpt lat="40.186443300558665" lon="9.536122432958987"><ele>839.0</ele><time>2026-04-04T12:38:19Z</time></trkpt><trkpt lat="40.18634452665845" lon="9.536246578059636"><ele>849.0</ele><time>2026-04-04T12:38:20Z</time></trkpt><trkpt lat="40.18623268154335" lon="9.53632515143708"><ele>859.0</ele><time>2026-04-04T12:38:21Z</time></trkpt><trkpt lat="40.186131801473834" lon="9.536326622269193"><ele>869.0</ele><time>2026-04-04T12:38:22Z</time></trkpt><trkpt lat="40.18603492181463" lon="9.536276792968428"><ele>862.25</ele><time>2026-04-04T12:38:23Z</time></trkpt><trkpt lat="40.18598141743921" lon="9.536149106890138"><ele>855.5</ele><time>2026-04-04T12:38:24Z</time></trkpt><trkpt lat="40.185899884239824" lon="9.53602272522856"><ele>848.75</ele><time>2026-04-04T12:38:25Z</time></trkpt><trkpt lat="40.185797745046195" lon="9.535914445616777"><ele>842.0</ele><time>2026-04-04T12:38:26Z</time></trkpt><trkpt lat="40.185688828642434" lon="9.535843283097496"><ele>848.25</ele><time>2026-04-04T12:38:27Z</time></trkpt><trkpt lat="40.18563191059454" lon="9.53572527735716"><ele>854.5</ele><time>2026-04-04T12:38:28Z</time></trkpt><trkpt lat="40.18565476596879" lon="9.535588953792491"><ele>860.75</ele><time>2026-04-04T12:38:29Z</time></trkpt><trkpt lat="40.185661223275204" lon="9.535404151410164"><ele>867.0</ele><time>2026-04-04T12:38:30Z</time></trkpt><trkpt lat="40.18567143406093" lon="9.535203431427837"><ele>867.0</ele><time>2026-04-04T12:38:31Z</time></trkpt><trkpt lat="40.18564878230967" lon="9.535002119642858"><ele>867.0</ele><time>2026-04-04T12:38:32Z</time></trkpt><trkpt lat="40.1855901418271" lon="9.534770449496433"><ele>867.0</ele><time>2026-04-04T12:38:33Z</time></trkpt><trkpt lat="40.185504677005426" lon="9.534549628961555"><ele>859.75</ele><time>2026-04-04T12:38:34Z</time></trkpt><trkpt lat="40.1854618648578" lon="9.534409681058614"><ele>852.5</ele><time>2026-04-04T12:38:35Z</time></trkpt><trkpt lat="40.18537485522073" lon="9.534289242584284"><ele>845.25</ele><time>2026-04-04T12:38:36Z</time></trkpt><trkpt lat="40.18528468887715" lon="9.534250866513059"><ele>838.0</ele><time>2026-04-04T12:38:37Z</time></trkpt><trkpt lat="40.185144204679716" lon="9.534246392884892"><ele>838.0</ele><time>2026-04-04T12:38:38.001Z</time></trkpt><trkpt lat="40.18498661927016" lon="9.53428241923502"><ele>838.0</ele><time>2026-04-04T12:38:39.001Z</time></trkpt><trkpt lat="40.18482032538854" lon="9.53434166851894"><ele>838.0</ele><time>2026-04-04T12:38:40.001Z</time></trkpt><trkpt lat="40.18468520092671" lon="9.534378338660039"><ele>843.8</ele><time>2026-04-04T12:38:41.001Z</time></trkpt><trkpt lat="40.18459087559265" lon="9.534368490184773"><ele>849.5999999999999</ele><time>2026-04-04T12:38:42.001Z</time></trkpt><trkpt lat="40.18452116861571" lon="9.53429694888723"><ele>855.4000000000001</ele><time>2026-04-04T12:38:43.001Z</time></trkpt><trkpt lat="40.18447932924847" lon="9.534167507905353"><ele>861.2</ele><time>2026-04-04T12:38:44.001Z</time></trkpt><trkpt lat="40.18446434112011" lon="9.53402326316742"><ele>867.0</ele><time>2026-04-04T12:38:45.001Z</time></trkpt><trkpt lat="40.18440909429772" lon="9.533836146075549"><ele>857.6666666666667</ele><time>2026-04-04T12:38:46.001Z</time></trkpt><trkpt lat="40.18431565114516" lon="9.533680448303796"><ele>848.3333333333334</ele><time>2026-04-04T12:38:47.001Z</time></trkpt><trkpt lat="40.18419815881471" lon="9.533523188337119"><ele>839.0</ele><time>2026-04-04T12:38:48.001Z</time></trkpt><trkpt lat="40.184037164077544" lon="9.533415230464096"><ele>844.0</ele><time>2026-04-04T12:38:49.001Z</time></trkpt><trkpt lat="40.18384833807829" lon="9.533348226159665"><ele>849.0</ele><time>2026-04-04T12:38:50.001Z</time></trkpt><trkpt lat="40.183654265003874" lon="9.533292107990931"><ele>854.0</ele><time>2026-04-04T12:38:51.001Z</time></trkpt><trkpt lat="40.183467632761996" lon="9.533247439826303"><ele>854.0</ele><time>2026-04-04T12:38:52.001Z</time></trkpt><trkpt lat="40.183261435085655" lon="9.533211773327903"><ele>854.0</ele><time>2026-04-04T12:38:53.001Z</time></trkpt><trkpt lat="40.18303085478873" lon="9.533200260564755"><ele>854.0</ele><time>2026-04-04T12:38:54.001Z</time></trkpt><trkpt lat="40.18279217461548" lon="9.533187429063483"><ele>859.0</ele><time>2026-04-04T12:38:55.001Z</time></trkpt><trkpt lat="40.18258254797982" lon="9.533153173143429"><ele>864.0</ele><time>2026-04-04T12:38:56.001Z</time></trkpt><trkpt lat="40.182396894343" lon="9.533061468830361"><ele>869.0</ele><time>2026-04-04T12:38:57.001Z</time></trkpt><trkpt lat="40.182196067708205" lon="9.532962071070262"><ele>856.6666666666667</ele><time>2026-04-04T12:38:58.001Z</time></trkpt><trkpt lat="40.18200431706461" lon="9.532884037538796"><ele>844.3333333333333</ele><time>2026-04-04T12:38:59.001Z</time></trkpt><trkpt lat="40.18186633486005" lon="9.53279769957072"><ele>832.0</ele><time>2026-04-04T12:39:00.001Z</time></trkpt><trkpt lat="40.18173835951945" lon="9.532734412344034"><ele>832.0</ele><time>2026-04-04T12:39:01.001Z</time></trkpt><trkpt lat="40.181596300940754" lon="9.532729502021365"><ele>832.0</ele><time>2026-04-04T12:39:02.001Z</time></trkpt><trkpt lat="40.18144808788582" lon="9.532794786976552"><ele>832.0</ele><time>2026-04-04T12:39:03.001Z</time></trkpt><trkpt lat="40.18130161160323" lon="9.532905177846924"><ele>833.0</ele><time>2026-04-04T12:39:04.001Z</time></trkpt><trkpt lat="40.18116002959953" lon="9.532978236246098"><ele>834.0</ele><time>2026-04-04T12:39:05.001Z</time></trkpt><trkpt lat="40.18100886909381" lon="9.532948724156064"><ele>835.0</ele><time>2026-04-04T12:39:06.001Z</time></trkpt><trkpt lat="40.18083905020967" lon="9.532886045119696"><ele>838.0</ele><time>2026-04-04T12:39:07.001Z</time></trkpt><trkpt lat="40.18065268088176" lon="9.532816221255459"><ele>841.0</ele><time>2026-04-04T12:39:08.001Z</time></trkpt><trkpt lat="40.18045371218142" lon="9.532756356309141"><ele>844.0</ele><time>2026-04-04T12:39:09.001Z</time></trkpt><trkpt lat="40.18027138628829" lon="9.532710395875664"><ele>844.0</ele><time>2026-04-04T12:39:10.001Z</time></trkpt><trkpt lat="40.18009612575377" lon="9.532727653971726"><ele>844.0</ele><time>2026-04-04T12:39:11.001Z</time></trkpt><trkpt lat="40.17989867400026" lon="9.532780892774554"><ele>844.0</ele><time>2026-04-04T12:39:12.001Z</time></trkpt><trkpt lat="40.17969501772785" lon="9.532824389254628"><ele>850.6666666666666</ele><time>2026-04-04T12:39:13.001Z</time></trkpt><trkpt lat="40.17951174707218" lon="9.532788876046677"><ele>857.3333333333333</ele><time>2026-04-04T12:39:14.001Z</time></trkpt><trkpt lat="40.179357381374565" lon="9.53275824291838"><ele>864.0</ele><time>2026-04-04T12:39:15.001Z</time></trkpt><trkpt lat="40.17923251905866" lon="9.532715410453264"><ele>864.0</ele><time>2026-04-04T12:39:16.001Z</time></trkpt><trkpt lat="40.17913305332585" lon="9.532652840611338"><ele>864.0000000000001</ele><time>2026-04-04T12:39:17Z</time></trkpt><trkpt lat="40.17905377407678" lon="9.532545372352972"><ele>864.0000000000001</ele><time>2026-04-04T12:39:18Z</time></trkpt><trkpt lat="40.179012865483244" lon="9.53240840479426"><ele>864.0</ele><time>2026-04-04T12:39:19Z</time></trkpt><trkpt lat="40.17900932853407" lon="9.532263344062983"><ele>864.0</ele><time>2026-04-04T12:39:20Z</time></trkpt><trkpt lat="40.17905511723545" lon="9.532095760460289"><ele>861.6666666666667</ele><time>2026-04-04T12:39:21Z</time></trkpt><trkpt lat="40.17907883276097" lon="9.531870299739394"><ele>859.3333333333334</ele><time>2026-04-04T12:39:22Z</time></trkpt><trkpt lat="40.179052570236486" lon="9.53163474225301"><ele>857.0</ele><time>2026-04-04T12:39:23Z</time></trkpt><trkpt lat="40.17902187435359" lon="9.531400384297962"><ele>860.3333333333334</ele><time>2026-04-04T12:39:24Z</time></trkpt><trkpt lat="40.17906646634809" lon="9.531172266538878"><ele>863.6666666666667</ele><time>2026-04-04T12:39:25Z</time></trkpt><trkpt lat="40.17911697282534" lon="9.530914187498784"><ele>867.0</ele><time>2026-04-04T12:39:26Z</time></trkpt><trkpt lat="40.17919753106662" lon="9.530653456891605"><ele>867.0</ele><time>2026-04-04T12:39:27Z</time></trkpt><trkpt lat="40.179274996302766" lon="9.530434961848254"><ele>867.0</ele><time>2026-04-04T12:39:28Z</time></trkpt><trkpt lat="40.17931681688298" lon="9.530269090320347"><ele>867.0</ele><time>2026-04-04T12:39:29Z</time></trkpt><trkpt lat="40.1793464471917" lon="9.530128713233507"><ele>867.0</ele><time>2026-04-04T12:39:30Z</time></trkpt><trkpt lat="40.1793225989242" lon="9.529986843311328"><ele>867.3333333333333</ele><time>2026-04-04T12:39:31Z</time></trkpt><trkpt lat="40.17923146905082" lon="9.529843699448312"><ele>867.6666666666666</ele><time>2026-04-04T12:39:32Z</time></trkpt><trkpt lat="40.179088755107394" lon="9.529692553349488"><ele>868.0</ele><time>2026-04-04T12:39:33Z</time></trkpt><trkpt lat="40.179003652883864" lon="9.529493853739076"><ele>870.75</ele><time>2026-04-04T12:39:34Z</time></trkpt><trkpt lat="40.178944960754066" lon="9.52930085307466"><ele>873.5</ele><time>2026-04-04T12:39:35Z</time></trkpt><trkpt lat="40.17887458289668" lon="9.529160128372965"><ele>876.25</ele><time>2026-04-04T12:39:36Z</time></trkpt><trkpt lat="40.178759033748285" lon="9.529070246691436"><ele>879.0</ele><time>2026-04-04T12:39:37Z</time></trkpt><trkpt lat="40.17860060439186" lon="9.529033300899815"><ele>879.0</ele><time>2026-04-04T12:39:38Z</time></trkpt><trkpt lat="40.178424446351165" lon="9.529021087653206"><ele>879.0</ele><time>2026-04-04T12:39:39Z</time></trkpt><trkpt lat="40.17827123982235" lon="9.52892886854556"><ele>879.0</ele><time>2026-04-04T12:39:40Z</time></trkpt><trkpt lat="40.17811353476357" lon="9.528780530174892"><ele>881.0</ele><time>2026-04-04T12:39:41Z</time></trkpt><trkpt lat="40.17792867439909" lon="9.528631366117333"><ele>883.0</ele><time>2026-04-04T12:39:42Z</time></trkpt><trkpt lat="40.17778250019274" lon="9.528421202521852"><ele>885.0</ele><time>2026-04-04T12:39:43Z</time></trkpt><trkpt lat="40.17764266975417" lon="9.528193244909076"><ele>885.0</ele><time>2026-04-04T12:39:44Z</time></trkpt><trkpt lat="40.177488483676086" lon="9.527969495607808"><ele>885.0</ele><time>2026-04-04T12:39:45Z</time></trkpt><trkpt lat="40.177355765024785" lon="9.527742720481312"><ele>885.0</ele><time>2026-04-04T12:39:46Z</time></trkpt><trkpt lat="40.1772396877981" lon="9.52756657076856"><ele>888.6666666666667</ele><time>2026-04-04T12:39:47Z</time></trkpt><trkpt lat="40.177094735086676" lon="9.527422780009653"><ele>892.3333333333334</ele><time>2026-04-04T12:39:48Z</time></trkpt><trkpt lat="40.17692289986934" lon="9.527303747459937"><ele>896.0</ele><time>2026-04-04T12:39:49Z</time></trkpt><trkpt lat="40.1767324129985" lon="9.527199818322284"><ele>896.0</ele><time>2026-04-04T12:39:50Z</time></trkpt><trkpt lat="40.17656366409879" lon="9.52710230608087"><ele>896.0</ele><time>2026-04-04T12:39:51Z</time></trkpt><trkpt lat="40.17640938141033" lon="9.52702830573877"><ele>896.0</ele><time>2026-04-04T12:39:52Z</time></trkpt><trkpt lat="40.17626629690435" lon="9.526987839609799"><ele>898.75</ele><time>2026-04-04T12:39:53Z</time></trkpt><trkpt lat="40.17613476514846" lon="9.52698898085692"><ele>901.5</ele><time>2026-04-04T12:39:54Z</time></trkpt><trkpt lat="40.17600344371755" lon="9.527042250309622"><ele>904.25</ele><time>2026-04-04T12:39:55Z</time></trkpt><trkpt lat="40.175872560208916" lon="9.52716524769525"><ele>907.0</ele><time>2026-04-04T12:39:56Z</time></trkpt><trkpt lat="40.175742315589645" lon="9.527275672654044"><ele>907.75</ele><time>2026-04-04T12:39:57Z</time></trkpt><trkpt lat="40.17561966922949" lon="9.527324122799977"><ele>908.5</ele><time>2026-04-04T12:39:58Z</time></trkpt><trkpt lat="40.17550258258132" lon="9.527237487411439"><ele>909.25</ele><time>2026-04-04T12:39:59Z</time></trkpt><trkpt lat="40.17537258592155" lon="9.52720122712705"><ele>910.0</ele><time>2026-04-04T12:40:00Z</time></trkpt><trkpt lat="40.17521810196452" lon="9.527213457887482"><ele>910.0</ele><time>2026-04-04T12:40:01Z</time></trkpt><trkpt lat="40.17504454611967" lon="9.52722584106658"><ele>910.0</ele><time>2026-04-04T12:40:02Z</time></trkpt><trkpt lat="40.174842823168746" lon="9.527189084627071"><ele>910.0</ele><time>2026-04-04T12:40:03Z</time></trkpt><trkpt lat="40.174626650452645" lon="9.527130668410242"><ele>912.0</ele><time>2026-04-04T12:40:04Z</time></trkpt><trkpt lat="40.17440984284656" lon="9.5270762467432"><ele>914.0</ele><time>2026-04-04T12:40:05Z</time></trkpt><trkpt lat="40.1741965946858" lon="9.527018730042704"><ele>916.0</ele><time>2026-04-04T12:40:06Z</time></trkpt><trkpt lat="40.173979136669956" lon="9.526945214235752"><ele>903.5</ele><time>2026-04-04T12:40:07Z</time></trkpt><trkpt lat="40.17376009478536" lon="9.526888757824493"><ele>891.0</ele><time>2026-04-04T12:40:08Z</time></trkpt><trkpt lat="40.1735388617711" lon="9.526821550839019"><ele>898.0</ele><time>2026-04-04T12:40:09Z</time></trkpt><trkpt lat="40.1731713548069" lon="9.526795630463411"><ele>905.0</ele><time>2026-04-04T12:40:11Z</time></trkpt><trkpt lat="40.17301589201845" lon="9.526834052237698"><ele>905.0</ele><time>2026-04-04T12:40:12Z</time></trkpt><trkpt lat="40.1728531796445" lon="9.52688797391325"><ele>905.0</ele><time>2026-04-04T12:40:13Z</time></trkpt><trkpt lat="40.17270627840202" lon="9.526927010115276"><ele>905.0</ele><time>2026-04-04T12:40:14Z</time></trkpt><trkpt lat="40.17255426733922" lon="9.526952598207538"><ele>905.0</ele><time>2026-04-04T12:40:15Z</time></trkpt><trkpt lat="40.17240262772845" lon="9.526980419640987"><ele>905.0</ele><time>2026-04-04T12:40:16Z</time></trkpt><trkpt lat="40.17225602725676" lon="9.527012712030999"><ele>905.0</ele><time>2026-04-04T12:40:17Z</time></trkpt><trkpt lat="40.17212676590171" lon="9.5270443458696"><ele>905.0</ele><time>2026-04-04T12:40:18Z</time></trkpt><trkpt lat="40.172002671932425" lon="9.527073714304017"><ele>904.75</ele><time>2026-04-04T12:40:19Z</time></trkpt><trkpt lat="40.171873817560396" lon="9.527102225164118"><ele>904.5</ele><time>2026-04-04T12:40:20Z</time></trkpt><trkpt lat="40.171770691597665" lon="9.52713525157104"><ele>904.25</ele><time>2026-04-04T12:40:21Z</time></trkpt><trkpt lat="40.17165565665894" lon="9.527119283766675"><ele>904.0</ele><time>2026-04-04T12:40:22Z</time></trkpt><trkpt lat="40.1715251193688" lon="9.527101451110845"><ele>906.25</ele><time>2026-04-04T12:40:23Z</time></trkpt><trkpt lat="40.1713714354744" lon="9.527055196851295"><ele>908.5</ele><time>2026-04-04T12:40:24Z</time></trkpt><trkpt lat="40.171220327893565" lon="9.527001637191189"><ele>910.75</ele><time>2026-04-04T12:40:25Z</time></trkpt><trkpt lat="40.17109273535729" lon="9.526956586851538"><ele>913.0</ele><time>2026-04-04T12:40:26Z</time></trkpt><trkpt lat="40.17097559369069" lon="9.526915226533397"><ele>913.0</ele><time>2026-04-04T12:40:27Z</time></trkpt><trkpt lat="40.170870459339454" lon="9.52687613752641"><ele>913.0</ele><time>2026-04-04T12:40:28Z</time></trkpt><trkpt lat="40.170773228289576" lon="9.52682798486278"><ele>913.0</ele><time>2026-04-04T12:40:29Z</time></trkpt><trkpt lat="40.1706779757654" lon="9.526764050958967"><ele>913.0</ele><time>2026-04-04T12:40:30Z</time></trkpt><trkpt lat="40.17059217126895" lon="9.526677676240409"><ele>913.0</ele><time>2026-04-04T12:40:31Z</time></trkpt><trkpt lat="40.170513152699826" lon="9.526575171647961"><ele>913.0</ele><time>2026-04-04T12:40:32Z</time></trkpt><trkpt lat="40.17043922135694" lon="9.526426759517154"><ele>913.0</ele><time>2026-04-04T12:40:33Z</time></trkpt><trkpt lat="40.170365734295885" lon="9.526242381212102"><ele>913.0</ele><time>2026-04-04T12:40:34Z</time></trkpt><trkpt lat="40.170287447169436" lon="9.52602184209351"><ele>913.0</ele><time>2026-04-04T12:40:35Z</time></trkpt><trkpt lat="40.170196118075175" lon="9.525846472885572"><ele>913.0</ele><time>2026-04-04T12:40:36Z</time></trkpt><trkpt lat="40.17012897582589" lon="9.525727403887037"><ele>913.0</ele><time>2026-04-04T12:40:37Z</time></trkpt><trkpt lat="40.17003352600642" lon="9.525667274305103"><ele>913.0</ele><time>2026-04-04T12:40:38Z</time></trkpt><trkpt lat="40.16992745607353" lon="9.5256916748815"><ele>915.75</ele><time>2026-04-04T12:40:39Z</time></trkpt><trkpt lat="40.169819005823115" lon="9.525781017647784"><ele>918.5</ele><time>2026-04-04T12:40:40Z</time></trkpt><trkpt lat="40.169726250834394" lon="9.525929798350127"><ele>921.25</ele><time>2026-04-04T12:40:41Z</time></trkpt><trkpt lat="40.169654377490446" lon="9.52613209682148"><ele>924.0</ele><time>2026-04-04T12:40:42Z</time></trkpt><trkpt lat="40.16960402594416" lon="9.526357296772156"><ele>924.0</ele><time>2026-04-04T12:40:43.001Z</time></trkpt><trkpt lat="40.16953382262584" lon="9.52658139867248"><ele>924.0</ele><time>2026-04-04T12:40:44.001Z</time></trkpt><trkpt lat="40.1693960655433" lon="9.526737693683435"><ele>924.0</ele><time>2026-04-04T12:40:45.001Z</time></trkpt><trkpt lat="40.16923169346704" lon="9.526880849164973"><ele>924.0</ele><time>2026-04-04T12:40:46.001Z</time></trkpt><trkpt lat="40.16904888212453" lon="9.527041000522235"><ele>924.0</ele><time>2026-04-04T12:40:47.001Z</time></trkpt><trkpt lat="40.16885498553994" lon="9.527210863121848"><ele>925.5</ele><time>2026-04-04T12:40:48.001Z</time></trkpt><trkpt lat="40.16867025416865" lon="9.527370193735951"><ele>927.0</ele><time>2026-04-04T12:40:49.001Z</time></trkpt><trkpt lat="40.16847202172191" lon="9.527542031539946"><ele>927.0</ele><time>2026-04-04T12:40:50.001Z</time></trkpt><trkpt lat="40.16827222004334" lon="9.527716897574118"><ele>927.0</ele><time>2026-04-04T12:40:51.001Z</time></trkpt><trkpt lat="40.168068306938444" lon="9.527877812383204"><ele>927.5</ele><time>2026-04-04T12:40:52.001Z</time></trkpt><trkpt lat="40.167852177992344" lon="9.527995666093416"><ele>928.0</ele><time>2026-04-04T12:40:53.001Z</time></trkpt><trkpt lat="40.16761445814304" lon="9.528100054662369"><ele>928.0</ele><time>2026-04-04T12:40:54.001Z</time></trkpt><trkpt lat="40.16736854932016" lon="9.528209304834574"><ele>928.0</ele><time>2026-04-04T12:40:55.001Z</time></trkpt><trkpt lat="40.16714581232122" lon="9.528307560253294"><ele>930.3333333333333</ele><time>2026-04-04T12:40:56.001Z</time></trkpt><trkpt lat="40.16693841064417" lon="9.528382854743986"><ele>932.6666666666667</ele><time>2026-04-04T12:40:57.001Z</time></trkpt><trkpt lat="40.166747666889016" lon="9.528409702133082"><ele>935.0</ele><time>2026-04-04T12:40:58.001Z</time></trkpt><trkpt lat="40.166544639987606" lon="9.528408620345605"><ele>936.3333333333334</ele><time>2026-04-04T12:40:59.001Z</time></trkpt><trkpt lat="40.16632903159026" lon="9.528413942015476"><ele>937.6666666666667</ele><time>2026-04-04T12:41:00.001Z</time></trkpt><trkpt lat="40.16611407732399" lon="9.5284192659937"><ele>939.0</ele><time>2026-04-04T12:41:01.001Z</time></trkpt><trkpt lat="40.16590807345191" lon="9.52848006918348"><ele>939.0</ele><time>2026-04-04T12:41:02.001Z</time></trkpt><trkpt lat="40.165718699878276" lon="9.528603626466658"><ele>939.0</ele><time>2026-04-04T12:41:03.001Z</time></trkpt><trkpt lat="40.16554532086156" lon="9.528747655402894"><ele>939.0</ele><time>2026-04-04T12:41:04.001Z</time></trkpt><trkpt lat="40.16537579603687" lon="9.52885634709613"><ele>937.0</ele><time>2026-04-04T12:41:05.001Z</time></trkpt><trkpt lat="40.16518039643917" lon="9.528879746974619"><ele>935.0</ele><time>2026-04-04T12:41:06Z</time></trkpt><trkpt lat="40.16496506206771" lon="9.52888008890874"><ele>933.0</ele><time>2026-04-04T12:41:07Z</time></trkpt><trkpt lat="40.164733138436866" lon="9.528883169326441"><ele>933.0</ele><time>2026-04-04T12:41:08Z</time></trkpt><trkpt lat="40.16449166379345" lon="9.528903367755303"><ele>933.0</ele><time>2026-04-04T12:41:09Z</time></trkpt><trkpt lat="40.164262892190784" lon="9.52890033531758"><ele>933.0</ele><time>2026-04-04T12:41:10Z</time></trkpt><trkpt lat="40.16406065055452" lon="9.528876943576382"><ele>933.0</ele><time>2026-04-04T12:41:11Z</time></trkpt><trkpt lat="40.16388457214027" lon="9.528783976430853"><ele>933.0</ele><time>2026-04-04T12:41:12Z</time></trkpt><trkpt lat="40.16371697493187" lon="9.52868805231946"><ele>934.75</ele><time>2026-04-04T12:41:13Z</time></trkpt><trkpt lat="40.163594533849995" lon="9.528567010061069"><ele>936.5</ele><time>2026-04-04T12:41:14Z</time></trkpt><trkpt lat="40.16352133422019" lon="9.528418019020817"><ele>938.25</ele><time>2026-04-04T12:41:15Z</time></trkpt><trkpt lat="40.16347822398624" lon="9.528246615197006"><ele>940.0</ele><time>2026-04-04T12:41:16Z</time></trkpt><trkpt lat="40.163438409100806" lon="9.528020965056404"><ele>938.0</ele><time>2026-04-04T12:41:17Z</time></trkpt><trkpt lat="40.16337974679265" lon="9.527782205750203"><ele>936.0</ele><time>2026-04-04T12:41:18Z</time></trkpt><trkpt lat="40.163284749947856" lon="9.527585181374102"><ele>934.0</ele><time>2026-04-04T12:41:19Z</time></trkpt><trkpt lat="40.16315717182829" lon="9.527423306782026"><ele>934.0</ele><time>2026-04-04T12:41:20Z</time></trkpt><trkpt lat="40.162998700048064" lon="9.527280935458371"><ele>934.0</ele><time>2026-04-04T12:41:21Z</time></trkpt><trkpt lat="40.16283613363211" lon="9.5271413973123"><ele>934.0</ele><time>2026-04-04T12:41:22Z</time></trkpt><trkpt lat="40.16270889039471" lon="9.527005301252983"><ele>936.25</ele><time>2026-04-04T12:41:23Z</time></trkpt><trkpt lat="40.16264525045879" lon="9.526852639708473"><ele>938.5</ele><time>2026-04-04T12:41:24Z</time></trkpt><trkpt lat="40.16263098655812" lon="9.526684224469726"><ele>940.75</ele><time>2026-04-04T12:41:25Z</time></trkpt><trkpt lat="40.162639090443534" lon="9.526492109459364"><ele>943.0</ele><time>2026-04-04T12:41:26Z</time></trkpt><trkpt lat="40.162707105201925" lon="9.526315943387024"><ele>940.3333333333333</ele><time>2026-04-04T12:41:27Z</time></trkpt><trkpt lat="40.162796990720786" lon="9.526097721708334"><ele>937.6666666666667</ele><time>2026-04-04T12:41:28Z</time></trkpt><trkpt lat="40.162893528398456" lon="9.525859683503073"><ele>935.0</ele><time>2026-04-04T12:41:29Z</time></trkpt><trkpt lat="40.16298740158901" lon="9.525626342840992"><ele>935.0</ele><time>2026-04-04T12:41:30Z</time></trkpt><trkpt lat="40.1630559645492" lon="9.525436932652"><ele>935.0</ele><time>2026-04-04T12:41:31Z</time></trkpt><trkpt lat="40.1630841877872" lon="9.525269915192748"><ele>935.0</ele><time>2026-04-04T12:41:32Z</time></trkpt><trkpt lat="40.1630756131846" lon="9.525135197098702"><ele>935.0</ele><time>2026-04-04T12:41:33Z</time></trkpt><trkpt lat="40.16301427163568" lon="9.525018355292785"><ele>936.5</ele><time>2026-04-04T12:41:34Z</time></trkpt><trkpt lat="40.162918201456655" lon="9.5249282270514"><ele>938.0</ele><time>2026-04-04T12:41:35Z</time></trkpt><trkpt lat="40.16287927811136" lon="9.524817474813839"><ele>939.5</ele><time>2026-04-04T12:41:36Z</time></trkpt><trkpt lat="40.162645777387674" lon="9.524874461684478"><ele>941.0</ele><time>2026-04-04T12:41:37Z</time></trkpt><trkpt lat="40.16249688254868" lon="9.524820162205074"><ele>936.0</ele><time>2026-04-04T12:41:38Z</time></trkpt><trkpt lat="40.162344349788086" lon="9.524662666541019"><ele>931.0</ele><time>2026-04-04T12:41:39Z</time></trkpt><trkpt lat="40.162213811337566" lon="9.524488038900744"><ele>926.0</ele><time>2026-04-04T12:41:40Z</time></trkpt><trkpt lat="40.16210547835923" lon="9.52432200955724"><ele>926.0</ele><time>2026-04-04T12:41:41Z</time></trkpt><trkpt lat="40.16203202227766" lon="9.524149606751353"><ele>926.0</ele><time>2026-04-04T12:41:42Z</time></trkpt><trkpt lat="40.1620023085227" lon="9.523944810249612"><ele>926.0</ele><time>2026-04-04T12:41:43Z</time></trkpt><trkpt lat="40.16196726809105" lon="9.523722703032368"><ele>928.5</ele><time>2026-04-04T12:41:44Z</time></trkpt><trkpt lat="40.161898503435914" lon="9.52353305880769"><ele>931.0</ele><time>2026-04-04T12:41:45Z</time></trkpt><trkpt lat="40.161830529110624" lon="9.523365005201283"><ele>933.5</ele><time>2026-04-04T12:41:46Z</time></trkpt><trkpt lat="40.16180202582097" lon="9.52318943116846"><ele>936.0</ele><time>2026-04-04T12:41:47Z</time></trkpt><trkpt lat="40.16182910883684" lon="9.522999017547903"><ele>933.6666666666667</ele><time>2026-04-04T12:41:48Z</time></trkpt><trkpt lat="40.16190593659323" lon="9.522800825381157"><ele>931.3333333333334</ele><time>2026-04-04T12:41:49Z</time></trkpt><trkpt lat="40.1620089331385" lon="9.522593107673128"><ele>929.0</ele><time>2026-04-04T12:41:50Z</time></trkpt><trkpt lat="40.1620993996057" lon="9.522380627844791"><ele>929.0</ele><time>2026-04-04T12:41:51Z</time></trkpt><trkpt lat="40.16214016590871" lon="9.522181344669168"><ele>929.0</ele><time>2026-04-04T12:41:52Z</time></trkpt><trkpt lat="40.16211934340181" lon="9.52198063023261"><ele>929.0</ele><time>2026-04-04T12:41:53Z</time></trkpt><trkpt lat="40.162070034676255" lon="9.521774146856284"><ele>928.6666666666667</ele><time>2026-04-04T12:41:54Z</time></trkpt><trkpt lat="40.16202669424129" lon="9.521564112325152"><ele>928.3333333333333</ele><time>2026-04-04T12:41:55Z</time></trkpt><trkpt lat="40.16203775979413" lon="9.521365625777836"><ele>928.0</ele><time>2026-04-04T12:41:56Z</time></trkpt><trkpt lat="40.16210782099141" lon="9.521157270008079"><ele>927.6666666666666</ele><time>2026-04-04T12:41:57Z</time></trkpt><trkpt lat="40.162208145691444" lon="9.520939346479484"><ele>927.3333333333333</ele><time>2026-04-04T12:41:58Z</time></trkpt><trkpt lat="40.1623266154247" lon="9.52070556969659"><ele>927.0</ele><time>2026-04-04T12:41:59Z</time></trkpt><trkpt lat="40.16243192885395" lon="9.520433670591379"><ele>937.6666666666667</ele><time>2026-04-04T12:42:00Z</time></trkpt><trkpt lat="40.162513533331" lon="9.520168410390994"><ele>948.3333333333334</ele><time>2026-04-04T12:42:01Z</time></trkpt><trkpt lat="40.16256934309715" lon="9.5199555304404"><ele>959.0</ele><time>2026-04-04T12:42:02Z</time></trkpt><trkpt lat="40.162581041768235" lon="9.519792289795424"><ele>959.0</ele><time>2026-04-04T12:42:03Z</time></trkpt><trkpt lat="40.16254187537067" lon="9.519649976824637"><ele>959.0</ele><time>2026-04-04T12:42:04Z</time></trkpt><trkpt lat="40.1624522316868" lon="9.519516937882573"><ele>959.0</ele><time>2026-04-04T12:42:05Z</time></trkpt><trkpt lat="40.162326532666924" lon="9.519404800660554"><ele>959.0</ele><time>2026-04-04T12:42:06Z</time></trkpt><trkpt lat="40.162175991272974" lon="9.519333092247706"><ele>963.3333333333334</ele><time>2026-04-04T12:42:07Z</time></trkpt><trkpt lat="40.16199025028447" lon="9.51932107805538"><ele>967.6666666666667</ele><time>2026-04-04T12:42:08Z</time></trkpt><trkpt lat="40.161783213914624" lon="9.51934250365069"><ele>972.0</ele><time>2026-04-04T12:42:09Z</time></trkpt><trkpt lat="40.16156528256917" lon="9.519360234176839"><ele>975.0</ele><time>2026-04-04T12:42:10Z</time></trkpt><trkpt lat="40.161329138401136" lon="9.519376039072462"><ele>978.0</ele><time>2026-04-04T12:42:11Z</time></trkpt><trkpt lat="40.161086848866645" lon="9.519390272984767"><ele>978.0</ele><time>2026-04-04T12:42:12Z</time></trkpt><trkpt lat="40.16085029788817" lon="9.519407907751074"><ele>978.0</ele><time>2026-04-04T12:42:13Z</time></trkpt><trkpt lat="40.16060334214349" lon="9.51942614852659"><ele>978.6666666666667</ele><time>2026-04-04T12:42:14Z</time></trkpt><trkpt lat="40.16036427347435" lon="9.519442106865096"><ele>979.3333333333334</ele><time>2026-04-04T12:42:15Z</time></trkpt><trkpt lat="40.16015794326464" lon="9.519450245728153"><ele>980.0</ele><time>2026-04-04T12:42:16Z</time></trkpt><trkpt lat="40.15997610928469" lon="9.519459160910749"><ele>975.0</ele><time>2026-04-04T12:42:17Z</time></trkpt><trkpt lat="40.15981412155359" lon="9.519467263430778"><ele>970.0</ele><time>2026-04-04T12:42:18Z</time></trkpt><trkpt lat="40.15965063374342" lon="9.519463735732893"><ele>965.0</ele><time>2026-04-04T12:42:19Z</time></trkpt><trkpt lat="40.15948367992739" lon="9.519412643651862"><ele>965.0</ele><time>2026-04-04T12:42:20Z</time></trkpt><trkpt lat="40.15931094124527" lon="9.51929854743015"><ele>965.0</ele><time>2026-04-04T12:42:21Z</time></trkpt><trkpt lat="40.15912540219456" lon="9.519135616062865"><ele>965.0</ele><time>2026-04-04T12:42:22Z</time></trkpt><trkpt lat="40.15894818374096" lon="9.518972964744536"><ele>961.6666666666667</ele><time>2026-04-04T12:42:23Z</time></trkpt><trkpt lat="40.15879499914841" lon="9.518829074366886"><ele>958.3333333333333</ele><time>2026-04-04T12:42:24Z</time></trkpt><trkpt lat="40.15867466307057" lon="9.518695590733865"><ele>955.0</ele><time>2026-04-04T12:42:25Z</time></trkpt><trkpt lat="40.158611207798046" lon="9.518517187884953"><ele>955.0</ele><time>2026-04-04T12:42:26Z</time></trkpt><trkpt lat="40.15855263628189" lon="9.518314591667714"><ele>955.0</ele><time>2026-04-04T12:42:27Z</time></trkpt><trkpt lat="40.158484684565344" lon="9.518079157530748"><ele>955.0</ele><time>2026-04-04T12:42:28Z</time></trkpt><trkpt lat="40.15841936299811" lon="9.517835353736208"><ele>959.0</ele><time>2026-04-04T12:42:29Z</time></trkpt><trkpt lat="40.15836487652633" lon="9.517574334853293"><ele>963.0</ele><time>2026-04-04T12:42:30Z</time></trkpt><trkpt lat="40.15832638466337" lon="9.5173157959864"><ele>967.0</ele><time>2026-04-04T12:42:31Z</time></trkpt><trkpt lat="40.15828055088856" lon="9.517101903753492"><ele>967.3333333333333</ele><time>2026-04-04T12:42:32Z</time></trkpt><trkpt lat="40.15826447463697" lon="9.516909541288788"><ele>967.6666666666667</ele><time>2026-04-04T12:42:33Z</time></trkpt><trkpt lat="40.15829867652276" lon="9.51672395998376"><ele>968.0</ele><time>2026-04-04T12:42:34Z</time></trkpt><trkpt lat="40.158354840980444" lon="9.516528414523627"><ele>968.0</ele><time>2026-04-04T12:42:35Z</time></trkpt><trkpt lat="40.15842608013596" lon="9.5163194516744"><ele>968.0</ele><time>2026-04-04T12:42:36Z</time></trkpt><trkpt lat="40.158510351409205" lon="9.516143654959913"><ele>968.0</ele><time>2026-04-04T12:42:37Z</time></trkpt><trkpt lat="40.15861580135254" lon="9.51600233410753"><ele>971.6666666666667</ele><time>2026-04-04T12:42:38Z</time></trkpt><trkpt lat="40.15876465073429" lon="9.515893076297811"><ele>975.3333333333333</ele><time>2026-04-04T12:42:39Z</time></trkpt><trkpt lat="40.158941275165304" lon="9.515788645730128"><ele>979.0</ele><time>2026-04-04T12:42:40Z</time></trkpt><trkpt lat="40.159144108311445" lon="9.51568520862841"><ele>979.0</ele><time>2026-04-04T12:42:41Z</time></trkpt><trkpt lat="40.159360831768744" lon="9.51557547580338"><ele>979.0</ele><time>2026-04-04T12:42:42Z</time></trkpt><trkpt lat="40.15957688739926" lon="9.515450071337176"><ele>978.0</ele><time>2026-04-04T12:42:43Z</time></trkpt><trkpt lat="40.159746904050685" lon="9.515229136308905"><ele>977.0</ele><time>2026-04-04T12:42:44Z</time></trkpt><trkpt lat="40.15991687298045" lon="9.515012204578953"><ele>977.0</ele><time>2026-04-04T12:42:45Z</time></trkpt><trkpt lat="40.16009908592956" lon="9.514816269341937"><ele>977.0</ele><time>2026-04-04T12:42:46Z</time></trkpt><trkpt lat="40.16027608238511" lon="9.514597952615553"><ele>977.0</ele><time>2026-04-04T12:42:47Z</time></trkpt><trkpt lat="40.160496987807285" lon="9.514452434436672"><ele>977.0</ele><time>2026-04-04T12:42:48Z</time></trkpt><trkpt lat="40.160713041106476" lon="9.514329559074305"><ele>977.0</ele><time>2026-04-04T12:42:49Z</time></trkpt><trkpt lat="40.160896327602785" lon="9.514182415283507"><ele>977.0</ele><time>2026-04-04T12:42:50Z</time></trkpt><trkpt lat="40.16105889794429" lon="9.513954079747919"><ele>970.0</ele><time>2026-04-04T12:42:51Z</time></trkpt><trkpt lat="40.1612304245473" lon="9.513701678530817"><ele>963.0</ele><time>2026-04-04T12:42:52Z</time></trkpt><trkpt lat="40.16141674937525" lon="9.513455411989554"><ele>974.5</ele><time>2026-04-04T12:42:53Z</time></trkpt><trkpt lat="40.16160036466558" lon="9.513191588118694"><ele>986.0</ele><time>2026-04-04T12:42:54Z</time></trkpt><trkpt lat="40.161777177233986" lon="9.512937460313172"><ele>982.3333333333334</ele><time>2026-04-04T12:42:55Z</time></trkpt><trkpt lat="40.16193105341875" lon="9.512719833876982"><ele>978.6666666666667</ele><time>2026-04-04T12:42:56Z</time></trkpt><trkpt lat="40.16205056181655" lon="9.512537617265673"><ele>975.0</ele><time>2026-04-04T12:42:57Z</time></trkpt><trkpt lat="40.16211513267131" lon="9.512342327814737"><ele>975.0</ele><time>2026-04-04T12:42:58Z</time></trkpt><trkpt lat="40.16215518196518" lon="9.512168854762978"><ele>975.0</ele><time>2026-04-04T12:42:59Z</time></trkpt><trkpt lat="40.162146213851564" lon="9.511992367427828"><ele>975.0</ele><time>2026-04-04T12:43:00Z</time></trkpt><trkpt lat="40.16209607327668" lon="9.511799763122731"><ele>975.0</ele><time>2026-04-04T12:43:01Z</time></trkpt><trkpt lat="40.162051484572544" lon="9.511580033202105"><ele>976.3333333333333</ele><time>2026-04-04T12:43:02Z</time></trkpt><trkpt lat="40.161999583941224" lon="9.511353194457149"><ele>977.6666666666666</ele><time>2026-04-04T12:43:03Z</time></trkpt><trkpt lat="40.16194286643235" lon="9.511105362213856"><ele>979.0</ele><time>2026-04-04T12:43:04Z</time></trkpt><trkpt lat="40.1618845992656" lon="9.510850774879952"><ele>981.6666666666666</ele><time>2026-04-04T12:43:05Z</time></trkpt><trkpt lat="40.16182384525411" lon="9.510583087829952"><ele>984.3333333333333</ele><time>2026-04-04T12:43:06Z</time></trkpt><trkpt lat="40.161763542192546" lon="9.510308232268441"><ele>987.0</ele><time>2026-04-04T12:43:07Z</time></trkpt><trkpt lat="40.16168670143347" lon="9.510079208261505"><ele>987.0</ele><time>2026-04-04T12:43:08Z</time></trkpt><trkpt lat="40.16161366769989" lon="9.509867835584856"><ele>987.0</ele><time>2026-04-04T12:43:09Z</time></trkpt><trkpt lat="40.16152106615715" lon="9.50967841839928"><ele>987.0</ele><time>2026-04-04T12:43:10Z</time></trkpt><trkpt lat="40.16141016468566" lon="9.509534854665539"><ele>987.6666666666667</ele><time>2026-04-04T12:43:11Z</time></trkpt><trkpt lat="40.16127872405688" lon="9.509430694854931"><ele>988.3333333333334</ele><time>2026-04-04T12:43:12Z</time></trkpt><trkpt lat="40.16111915422219" lon="9.50939250363713"><ele>989.0</ele><time>2026-04-04T12:43:13Z</time></trkpt><trkpt lat="40.160936497514925" lon="9.509399884131959"><ele>999.0</ele><time>2026-04-04T12:43:14Z</time></trkpt><trkpt lat="40.16056582624535" lon="9.509286936719418"><ele>1009.0</ele><time>2026-04-04T12:43:16Z</time></trkpt><trkpt lat="40.16040396398548" lon="9.509153242299726"><ele>1009.0</ele><time>2026-04-04T12:43:17Z</time></trkpt><trkpt lat="40.160274572398635" lon="9.508976910960175"><ele>1009.0</ele><time>2026-04-04T12:43:18Z</time></trkpt><trkpt lat="40.16012816908471" lon="9.508842794863869"><ele>1009.0</ele><time>2026-04-04T12:43:19Z</time></trkpt><trkpt lat="40.15998231172564" lon="9.50873078194333"><ele>1007.3333333333333</ele><time>2026-04-04T12:43:20Z</time></trkpt><trkpt lat="40.15981802242553" lon="9.508664616612805"><ele>1005.6666666666667</ele><time>2026-04-04T12:43:21Z</time></trkpt><trkpt lat="40.159628439111195" lon="9.508619691642174"><ele>1004.0</ele><time>2026-04-04T12:43:22Z</time></trkpt><trkpt lat="40.159442958101295" lon="9.508583254914514"><ele>1004.0</ele><time>2026-04-04T12:43:23Z</time></trkpt><trkpt lat="40.15928244233335" lon="9.508528980776362"><ele>1004.0</ele><time>2026-04-04T12:43:24Z</time></trkpt><trkpt lat="40.15913820468726" lon="9.508457527881033"><ele>1004.0</ele><time>2026-04-04T12:43:25Z</time></trkpt><trkpt lat="40.159032572735946" lon="9.508336089685752"><ele>1004.5</ele><time>2026-04-04T12:43:26Z</time></trkpt><trkpt lat="40.15892260714484" lon="9.508245171092135"><ele>1005.0</ele><time>2026-04-04T12:43:27Z</time></trkpt><trkpt lat="40.158824600584516" lon="9.508136982808319"><ele>1005.5</ele><time>2026-04-04T12:43:28Z</time></trkpt><trkpt lat="40.158739180195944" lon="9.508046812664368"><ele>1006.0</ele><time>2026-04-04T12:43:29Z</time></trkpt><trkpt lat="40.158665325517006" lon="9.507974220856893"><ele>1006.5999999999999</ele><time>2026-04-04T12:43:30Z</time></trkpt><trkpt lat="40.15859472232261" lon="9.507903123871031"><ele>1007.1999999999999</ele><time>2026-04-04T12:43:31Z</time></trkpt><trkpt lat="40.15852233259411" lon="9.50783073686167"><ele>1007.8000000000001</ele><time>2026-04-04T12:43:32Z</time></trkpt><trkpt lat="40.15844328565578" lon="9.507751875889364"><ele>1008.4000000000001</ele><time>2026-04-04T12:43:33Z</time></trkpt><trkpt lat="40.15835761268305" lon="9.507663511279844"><ele>1009.0</ele><time>2026-04-04T12:43:34Z</time></trkpt><trkpt lat="40.15827706085107" lon="9.507576978879811"><ele>1009.0</ele><time>2026-04-04T12:43:35Z</time></trkpt><trkpt lat="40.15820371635123" lon="9.50750403987694"><ele>1009.0000000000001</ele><time>2026-04-04T12:43:36Z</time></trkpt><trkpt lat="40.15813593900815" lon="9.507439628860652"><ele>1009.0000000000001</ele><time>2026-04-04T12:43:37Z</time></trkpt><trkpt lat="40.15806535611671" lon="9.507371709135414"><ele>1009.0</ele><time>2026-04-04T12:43:38Z</time></trkpt><trkpt lat="40.15797863045139" lon="9.507304865512117"><ele>1009.0</ele><time>2026-04-04T12:43:39Z</time></trkpt><trkpt lat="40.15787381537639" lon="9.507245895840256"><ele>1008.0</ele><time>2026-04-04T12:43:40Z</time></trkpt><trkpt lat="40.15776072372065" lon="9.507192312440589"><ele>1007.0</ele><time>2026-04-04T12:43:41Z</time></trkpt><trkpt lat="40.15764029194843" lon="9.50714575453761"><ele>1006.0</ele><time>2026-04-04T12:43:42Z</time></trkpt><trkpt lat="40.157516103345245" lon="9.507102111774529"><ele>1005.0</ele><time>2026-04-04T12:43:43Z</time></trkpt><trkpt lat="40.15738626093181" lon="9.507055573847177"><ele>1011.25</ele><time>2026-04-04T12:43:44Z</time></trkpt><trkpt lat="40.15724878731515" lon="9.507008747435872"><ele>1017.5</ele><time>2026-04-04T12:43:45Z</time></trkpt><trkpt lat="40.15710371892946" lon="9.506962514365151"><ele>1023.75</ele><time>2026-04-04T12:43:46Z</time></trkpt><trkpt lat="40.15695464025164" lon="9.506923168967086"><ele>1030.0</ele><time>2026-04-04T12:43:47Z</time></trkpt><trkpt lat="40.156802295380395" lon="9.506901696352184"><ele>1030.0</ele><time>2026-04-04T12:43:48Z</time></trkpt><trkpt lat="40.15664413559471" lon="9.506931710179295"><ele>1030.0</ele><time>2026-04-04T12:43:49Z</time></trkpt><trkpt lat="40.15646886064144" lon="9.506972710354235"><ele>1030.0</ele><time>2026-04-04T12:43:50Z</time></trkpt><trkpt lat="40.15627686466332" lon="9.507036359179642"><ele>1024.6666666666665</ele><time>2026-04-04T12:43:51Z</time></trkpt><trkpt lat="40.156068264639806" lon="9.507104023452978"><ele>1019.3333333333333</ele><time>2026-04-04T12:43:52Z</time></trkpt><trkpt lat="40.15585418547832" lon="9.507153271330138"><ele>1014.0</ele><time>2026-04-04T12:43:53Z</time></trkpt><trkpt lat="40.155634940253705" lon="9.507172725029706"><ele>1014.0</ele><time>2026-04-04T12:43:54Z</time></trkpt><trkpt lat="40.155396984262104" lon="9.507187919251823"><ele>1014.0</ele><time>2026-04-04T12:43:55Z</time></trkpt><trkpt lat="40.15514645773653" lon="9.50720318778696"><ele>1014.0</ele><time>2026-04-04T12:43:56Z</time></trkpt><trkpt lat="40.154895925199405" lon="9.507297603747404"><ele>1014.0</ele><time>2026-04-04T12:43:57Z</time></trkpt><trkpt lat="40.15464253886174" lon="9.5073799336575"><ele>1020.0</ele><time>2026-04-04T12:43:58Z</time></trkpt><trkpt lat="40.15438194382009" lon="9.50747650365251"><ele>1026.0</ele><time>2026-04-04T12:43:59Z</time></trkpt><trkpt lat="40.154148766316325" lon="9.507568808997647"><ele>1025.6666666666667</ele><time>2026-04-04T12:44:00Z</time></trkpt><trkpt lat="40.15393602796194" lon="9.507647831942599"><ele>1025.3333333333335</ele><time>2026-04-04T12:44:01Z</time></trkpt><trkpt lat="40.153746852894585" lon="9.507709618227281"><ele>1025.0</ele><time>2026-04-04T12:44:02Z</time></trkpt><trkpt lat="40.15355729025558" lon="9.507751034001704"><ele>1025.0</ele><time>2026-04-04T12:44:03Z</time></trkpt><trkpt lat="40.153361014441664" lon="9.50775253893689"><ele>1025.0</ele><time>2026-04-04T12:44:04Z</time></trkpt><trkpt lat="40.15315292190655" lon="9.507712435782093"><ele>1025.0</ele><time>2026-04-04T12:44:05Z</time></trkpt><trkpt lat="40.152947474909254" lon="9.507644097517947"><ele>1022.6666666666667</ele><time>2026-04-04T12:44:06Z</time></trkpt><trkpt lat="40.152739584628215" lon="9.50756496348545"><ele>1020.3333333333333</ele><time>2026-04-04T12:44:07Z</time></trkpt><trkpt lat="40.15251719321209" lon="9.507487994207384"><ele>1018.0</ele><time>2026-04-04T12:44:08Z</time></trkpt><trkpt lat="40.15228287005063" lon="9.507435364290785"><ele>1014.5</ele><time>2026-04-04T12:44:09Z</time></trkpt><trkpt lat="40.1520320985537" lon="9.50741563915692"><ele>1011.0</ele><time>2026-04-04T12:44:10Z</time></trkpt><trkpt lat="40.15176184744779" lon="9.507416837457912"><ele>1008.5</ele><time>2026-04-04T12:44:11Z</time></trkpt><trkpt lat="40.15149344306519" lon="9.50742841695465"><ele>1006.0</ele><time>2026-04-04T12:44:12Z</time></trkpt><trkpt lat="40.151248346081196" lon="9.507432249630373"><ele>1006.0</ele><time>2026-04-04T12:44:13Z</time></trkpt><trkpt lat="40.151018257378084" lon="9.507423044542639"><ele>1006.0</ele><time>2026-04-04T12:44:14Z</time></trkpt><trkpt lat="40.15079988472692" lon="9.507378696800362"><ele>1000.0</ele><time>2026-04-04T12:44:15Z</time></trkpt><trkpt lat="40.1505758827284" lon="9.507294648023969"><ele>994.0</ele><time>2026-04-04T12:44:16Z</time></trkpt><trkpt lat="40.15035321716384" lon="9.507177938703652"><ele>1010.5</ele><time>2026-04-04T12:44:17Z</time></trkpt><trkpt lat="40.15013158528473" lon="9.507063368740042"><ele>1027.0</ele><time>2026-04-04T12:44:18Z</time></trkpt><trkpt lat="40.14989863845385" lon="9.50695262574733"><ele>1020.0</ele><time>2026-04-04T12:44:19Z</time></trkpt><trkpt lat="40.149653256279805" lon="9.506861520194352"><ele>1013.0</ele><time>2026-04-04T12:44:20Z</time></trkpt><trkpt lat="40.149396493241355" lon="9.506795379063538"><ele>1013.0</ele><time>2026-04-04T12:44:21Z</time></trkpt><trkpt lat="40.14913140835591" lon="9.506757690609433"><ele>1013.0</ele><time>2026-04-04T12:44:22Z</time></trkpt><trkpt lat="40.148859369687486" lon="9.506729190172221"><ele>1005.0</ele><time>2026-04-04T12:44:23Z</time></trkpt><trkpt lat="40.14858655248166" lon="9.506686222805182"><ele>997.0</ele><time>2026-04-04T12:44:24Z</time></trkpt><trkpt lat="40.148313722463364" lon="9.506622023883066"><ele>989.5</ele><time>2026-04-04T12:44:25Z</time></trkpt><trkpt lat="40.14804277814815" lon="9.50654891360184"><ele>982.0</ele><time>2026-04-04T12:44:26Z</time></trkpt><trkpt lat="40.147774261215446" lon="9.506467013763238"><ele>982.0</ele><time>2026-04-04T12:44:27Z</time></trkpt><trkpt lat="40.14750822088453" lon="9.506372132220326"><ele>982.0</ele><time>2026-04-04T12:44:28Z</time></trkpt><trkpt lat="40.14725771763326" lon="9.50627586162984"><ele>997.0</ele><time>2026-04-04T12:44:29Z</time></trkpt><trkpt lat="40.147013206647074" lon="9.506189350668153"><ele>1012.0</ele><time>2026-04-04T12:44:30Z</time></trkpt><trkpt lat="40.14678040309573" lon="9.506118809787647"><ele>1006.5</ele><time>2026-04-04T12:44:31Z</time></trkpt><trkpt lat="40.14650977213838" lon="9.506116156972652"><ele>1001.0</ele><time>2026-04-04T12:44:32Z</time></trkpt><trkpt lat="40.14624601742799" lon="9.506135949405543"><ele>1001.0</ele><time>2026-04-04T12:44:33Z</time></trkpt><trkpt lat="40.14598717847336" lon="9.506150250985662"><ele>1001.0</ele><time>2026-04-04T12:44:34Z</time></trkpt><trkpt lat="40.145747400396424" lon="9.50615516708295"><ele>997.0</ele><time>2026-04-04T12:44:35Z</time></trkpt><trkpt lat="40.145525255143134" lon="9.506152524317347"><ele>993.0</ele><time>2026-04-04T12:44:36Z</time></trkpt><trkpt lat="40.14531420964674" lon="9.506128852495273"><ele>989.0</ele><time>2026-04-04T12:44:37Z</time></trkpt><trkpt lat="40.145114773250576" lon="9.506070525942071"><ele>989.0</ele><time>2026-04-04T12:44:38Z</time></trkpt><trkpt lat="40.144924890409115" lon="9.505962285945037"><ele>989.0</ele><time>2026-04-04T12:44:39Z</time></trkpt><trkpt lat="40.14474244367546" lon="9.505829458686078"><ele>989.0</ele><time>2026-04-04T12:44:40Z</time></trkpt><trkpt lat="40.14455895521779" lon="9.505713620175248"><ele>982.3333333333334</ele><time>2026-04-04T12:44:41Z</time></trkpt><trkpt lat="40.14436419670074" lon="9.505634020986784"><ele>975.6666666666667</ele><time>2026-04-04T12:44:41.999Z</time></trkpt><trkpt lat="40.14415876867426" lon="9.5055995050515"><ele>969.0</ele><time>2026-04-04T12:44:42.999Z</time></trkpt><trkpt lat="40.14394498193159" lon="9.505612002641895"><ele>967.5</ele><time>2026-04-04T12:44:43.999Z</time></trkpt><trkpt lat="40.143718837503165" lon="9.505650658554828"><ele>966.0</ele><time>2026-04-04T12:44:44.999Z</time></trkpt><trkpt lat="40.14346777333153" lon="9.505700178723925"><ele>966.0</ele><time>2026-04-04T12:44:45.999Z</time></trkpt><trkpt lat="40.14324677618809" lon="9.50570991599901"><ele>966.0</ele><time>2026-04-04T12:44:46.999Z</time></trkpt><trkpt lat="40.14301428488155" lon="9.505667494806971"><ele>959.0</ele><time>2026-04-04T12:44:47.999Z</time></trkpt><trkpt lat="40.14277161733" lon="9.505621179238814"><ele>952.0</ele><time>2026-04-04T12:44:48.999Z</time></trkpt><trkpt lat="40.14252082774934" lon="9.505653863911272"><ele>957.5</ele><time>2026-04-04T12:44:49.999Z</time></trkpt><trkpt lat="40.14227116451697" lon="9.505709003257175"><ele>963.0</ele><time>2026-04-04T12:44:50.999Z</time></trkpt><trkpt lat="40.142018277516655" lon="9.50577935201466"><ele>963.0</ele><time>2026-04-04T12:44:51.999Z</time></trkpt><trkpt lat="40.1417692173144" lon="9.50584325602802"><ele>963.0</ele><time>2026-04-04T12:44:52.999Z</time></trkpt><trkpt lat="40.141528947080346" lon="9.5058894354887"><ele>960.5</ele><time>2026-04-04T12:44:53.999Z</time></trkpt><trkpt lat="40.14129802442061" lon="9.505901355949067"><ele>958.0</ele><time>2026-04-04T12:44:55Z</time></trkpt><trkpt lat="40.141057124819454" lon="9.505864978312294"><ele>958.0</ele><time>2026-04-04T12:44:56Z</time></trkpt><trkpt lat="40.140805872375765" lon="9.50581267275614"><ele>958.0</ele><time>2026-04-04T12:44:57Z</time></trkpt><trkpt lat="40.14054347187897" lon="9.505760064738466"><ele>955.0</ele><time>2026-04-04T12:44:58Z</time></trkpt><trkpt lat="40.14027450710916" lon="9.505732163649212"><ele>952.0</ele><time>2026-04-04T12:44:59Z</time></trkpt><trkpt lat="40.139999293058395" lon="9.505720964401299"><ele>948.5</ele><time>2026-04-04T12:45:00Z</time></trkpt><trkpt lat="40.13972766890195" lon="9.505716968409498"><ele>945.0</ele><time>2026-04-04T12:45:01Z</time></trkpt><trkpt lat="40.13947805408107" lon="9.505711384419216"><ele>945.0</ele><time>2026-04-04T12:45:02Z</time></trkpt><trkpt lat="40.13923727710277" lon="9.505693169171751"><ele>945.0</ele><time>2026-04-04T12:45:03Z</time></trkpt><trkpt lat="40.13900282999313" lon="9.505677183114646"><ele>947.5</ele><time>2026-04-04T12:45:04Z</time></trkpt><trkpt lat="40.13876826935511" lon="9.505689023934368"><ele>950.0</ele><time>2026-04-04T12:45:05Z</time></trkpt><trkpt lat="40.13853361465156" lon="9.50574154586657"><ele>950.0</ele><time>2026-04-04T12:45:06Z</time></trkpt><trkpt lat="40.138293374886516" lon="9.505830783466232"><ele>950.0</ele><time>2026-04-04T12:45:07Z</time></trkpt><trkpt lat="40.13805851052212" lon="9.50594169851691"><ele>961.5</ele><time>2026-04-04T12:45:08Z</time></trkpt><trkpt lat="40.137817453234106" lon="9.506053345364814"><ele>973.0</ele><time>2026-04-04T12:45:09Z</time></trkpt><trkpt lat="40.1375628499484" lon="9.50615021478356"><ele>981.0</ele><time>2026-04-04T12:45:10Z</time></trkpt><trkpt lat="40.13730644265454" lon="9.506235940418422"><ele>989.0</ele><time>2026-04-04T12:45:11Z</time></trkpt><trkpt lat="40.137051541689694" lon="9.506328761931101"><ele>966.5</ele><time>2026-04-04T12:45:12Z</time></trkpt><trkpt lat="40.13680018416378" lon="9.506466092779023"><ele>944.0</ele><time>2026-04-04T12:45:13Z</time></trkpt><trkpt lat="40.13654100102283" lon="9.506553085936863"><ele>944.0</ele><time>2026-04-04T12:45:14Z</time></trkpt><trkpt lat="40.136289368767805" lon="9.506626341713451"><ele>944.0</ele><time>2026-04-04T12:45:15Z</time></trkpt><trkpt lat="40.136043002129675" lon="9.506686034895928"><ele>944.0</ele><time>2026-04-04T12:45:16Z</time></trkpt><trkpt lat="40.13581428237594" lon="9.506737286575781"><ele>944.0</ele><time>2026-04-04T12:45:17Z</time></trkpt><trkpt lat="40.13558880123411" lon="9.506729665708235"><ele>951.5</ele><time>2026-04-04T12:45:18Z</time></trkpt><trkpt lat="40.135363898613065" lon="9.506745051328256"><ele>959.0</ele><time>2026-04-04T12:45:19Z</time></trkpt><trkpt lat="40.13514640744619" lon="9.506819406442261"><ele>959.0</ele><time>2026-04-04T12:45:20Z</time></trkpt><trkpt lat="40.13495335156085" lon="9.506886943919797"><ele>959.0</ele><time>2026-04-04T12:45:21Z</time></trkpt><trkpt lat="40.134770493619804" lon="9.506921180009575"><ele>959.0</ele><time>2026-04-04T12:45:22Z</time></trkpt><trkpt lat="40.13457890945566" lon="9.506931146870588"><ele>959.3333333333334</ele><time>2026-04-04T12:45:23Z</time></trkpt><trkpt lat="40.13437491100763" lon="9.506853977821152"><ele>959.6666666666667</ele><time>2026-04-04T12:45:24Z</time></trkpt><trkpt lat="40.13416681948535" lon="9.506769695420083"><ele>960.0</ele><time>2026-04-04T12:45:25Z</time></trkpt><trkpt lat="40.133942873751884" lon="9.506700951321346"><ele>957.0</ele><time>2026-04-04T12:45:26Z</time></trkpt><trkpt lat="40.13370775261721" lon="9.506665402707267"><ele>954.0</ele><time>2026-04-04T12:45:27Z</time></trkpt><trkpt lat="40.13345873824483" lon="9.506667790968908"><ele>964.0</ele><time>2026-04-04T12:45:28Z</time></trkpt><trkpt lat="40.13320022964087" lon="9.506682736520874"><ele>974.0</ele><time>2026-04-04T12:45:29Z</time></trkpt><trkpt lat="40.13293664230834" lon="9.506713829126797"><ele>974.0</ele><time>2026-04-04T12:45:30Z</time></trkpt><trkpt lat="40.132683625356364" lon="9.506745956615571"><ele>974.0</ele><time>2026-04-04T12:45:31Z</time></trkpt><trkpt lat="40.13244059315549" lon="9.506773255641171"><ele>980.5</ele><time>2026-04-04T12:45:32Z</time></trkpt><trkpt lat="40.13220528079454" lon="9.50680094111413"><ele>987.0</ele><time>2026-04-04T12:45:33Z</time></trkpt><trkpt lat="40.131983724543524" lon="9.506863496395193"><ele>987.0</ele><time>2026-04-04T12:45:34Z</time></trkpt><trkpt lat="40.13177918007103" lon="9.506964385721068"><ele>987.0</ele><time>2026-04-04T12:45:35Z</time></trkpt><trkpt lat="40.13158511881291" lon="9.507039920559789"><ele>987.0</ele><time>2026-04-04T12:45:36Z</time></trkpt><trkpt lat="40.13139719910693" lon="9.507101015263077"><ele>988.3333333333333</ele><time>2026-04-04T12:45:37Z</time></trkpt><trkpt lat="40.131185448726434" lon="9.507109696129515"><ele>989.6666666666666</ele><time>2026-04-04T12:45:38Z</time></trkpt><trkpt lat="40.13096032748442" lon="9.50707130595768"><ele>991.0</ele><time>2026-04-04T12:45:39Z</time></trkpt><trkpt lat="40.13072113450055" lon="9.50705395810275"><ele>993.5</ele><time>2026-04-04T12:45:40Z</time></trkpt><trkpt lat="40.1304784675044" lon="9.507061484432949"><ele>996.0</ele><time>2026-04-04T12:45:41Z</time></trkpt><trkpt lat="40.13023764390301" lon="9.507157849503034"><ele>976.0</ele><time>2026-04-04T12:45:42Z</time></trkpt><trkpt lat="40.12996862013762" lon="9.507212357713577"><ele>956.0</ele><time>2026-04-04T12:45:43Z</time></trkpt><trkpt lat="40.12970779893209" lon="9.507291623370747"><ele>956.0</ele><time>2026-04-04T12:45:44Z</time></trkpt><trkpt lat="40.12944043346956" lon="9.507372474444056"><ele>956.0</ele><time>2026-04-04T12:45:45Z</time></trkpt><trkpt lat="40.129199095912384" lon="9.50744683417287"><ele>961.3333333333334</ele><time>2026-04-04T12:45:46Z</time></trkpt><trkpt lat="40.128996656456266" lon="9.507495235949161"><ele>966.6666666666667</ele><time>2026-04-04T12:45:47Z</time></trkpt><trkpt lat="40.12882037088817" lon="9.50757386888999"><ele>972.0</ele><time>2026-04-04T12:45:48Z</time></trkpt><trkpt lat="40.12865811574" lon="9.507676169372155"><ele>972.0</ele><time>2026-04-04T12:45:49Z</time></trkpt><trkpt lat="40.12848822144506" lon="9.507695321950871"><ele>972.0</ele><time>2026-04-04T12:45:50Z</time></trkpt><trkpt lat="40.12830986208615" lon="9.507732654975545"><ele>972.0</ele><time>2026-04-04T12:45:51Z</time></trkpt><trkpt lat="40.128105548175775" lon="9.507760540755372"><ele>980.5</ele><time>2026-04-04T12:45:52Z</time></trkpt><trkpt lat="40.12788599876976" lon="9.50782358076144"><ele>989.0</ele><time>2026-04-04T12:45:53Z</time></trkpt><trkpt lat="40.12765415651766" lon="9.507903134280157"><ele>971.5</ele><time>2026-04-04T12:45:54Z</time></trkpt><trkpt lat="40.12741151330034" lon="9.507992166889387"><ele>954.0</ele><time>2026-04-04T12:45:55Z</time></trkpt><trkpt lat="40.127156079072265" lon="9.50808110687707"><ele>954.0</ele><time>2026-04-04T12:45:56Z</time></trkpt><trkpt lat="40.126908268341104" lon="9.5081853140163"><ele>954.0</ele><time>2026-04-04T12:45:57Z</time></trkpt><trkpt lat="40.12665976542052" lon="9.508298974321288"><ele>961.0</ele><time>2026-04-04T12:45:58Z</time></trkpt><trkpt lat="40.126402155096415" lon="9.508410239754642"><ele>968.0</ele><time>2026-04-04T12:45:59Z</time></trkpt><trkpt lat="40.12614627226934" lon="9.508501303140154"><ele>968.0</ele><time>2026-04-04T12:46:00Z</time></trkpt><trkpt lat="40.12591216983743" lon="9.508579001025225"><ele>968.0</ele><time>2026-04-04T12:46:01Z</time></trkpt><trkpt lat="40.12571592535852" lon="9.508654342872212"><ele>968.0</ele><time>2026-04-04T12:46:02Z</time></trkpt><trkpt lat="40.12556328312808" lon="9.508711982933967"><ele>971.75</ele><time>2026-04-04T12:46:03Z</time></trkpt><trkpt lat="40.12541991099379" lon="9.50875330455664"><ele>975.5</ele><time>2026-04-04T12:46:04Z</time></trkpt><trkpt lat="40.125277164582414" lon="9.508704999177487"><ele>979.25</ele><time>2026-04-04T12:46:05Z</time></trkpt><trkpt lat="40.12512406942689" lon="9.508735073718563"><ele>983.0</ele><time>2026-04-04T12:46:06Z</time></trkpt><trkpt lat="40.12495301904536" lon="9.508784007964369"><ele>970.0</ele><time>2026-04-04T12:46:07Z</time></trkpt><trkpt lat="40.12476914973062" lon="9.508883317698041"><ele>957.0</ele><time>2026-04-04T12:46:08Z</time></trkpt><trkpt lat="40.12458472702376" lon="9.508992703714611"><ele>944.0</ele><time>2026-04-04T12:46:09Z</time></trkpt><trkpt lat="40.12438111488394" lon="9.509105339879104"><ele>944.0</ele><time>2026-04-04T12:46:10Z</time></trkpt><trkpt lat="40.12416747518509" lon="9.50916632028719"><ele>944.0</ele><time>2026-04-04T12:46:11Z</time></trkpt><trkpt lat="40.123950779113564" lon="9.509215930255587"><ele>944.0</ele><time>2026-04-04T12:46:12Z</time></trkpt><trkpt lat="40.12371776142445" lon="9.50928799999109"><ele>949.0</ele><time>2026-04-04T12:46:13Z</time></trkpt><trkpt lat="40.1234688317455" lon="9.509334793528556"><ele>954.0</ele><time>2026-04-04T12:46:14Z</time></trkpt><trkpt lat="40.123216880780085" lon="9.509378670691175"><ele>959.0</ele><time>2026-04-04T12:46:15Z</time></trkpt><trkpt lat="40.12297412749679" lon="9.509381072400766"><ele>964.0</ele><time>2026-04-04T12:46:16Z</time></trkpt><trkpt lat="40.122745044182345" lon="9.509439750363217"><ele>964.0</ele><time>2026-04-04T12:46:17Z</time></trkpt><trkpt lat="40.122531709053824" lon="9.509484997908405"><ele>964.0</ele><time>2026-04-04T12:46:18Z</time></trkpt><trkpt lat="40.12231148762565" lon="9.509524288457849"><ele>964.0</ele><time>2026-04-04T12:46:19Z</time></trkpt><trkpt lat="40.12208236141712" lon="9.509535283731603"><ele>966.5</ele><time>2026-04-04T12:46:20Z</time></trkpt><trkpt lat="40.12184350791944" lon="9.50953266166437"><ele>969.0</ele><time>2026-04-04T12:46:20.999Z</time></trkpt><trkpt lat="40.121587605703475" lon="9.509530607305672"><ele>968.5</ele><time>2026-04-04T12:46:21.999Z</time></trkpt><trkpt lat="40.121341075633055" lon="9.509541150902635"><ele>968.0</ele><time>2026-04-04T12:46:22.999Z</time></trkpt><trkpt lat="40.12109451500616" lon="9.50956359492363"><ele>939.5</ele><time>2026-04-04T12:46:23.999Z</time></trkpt><trkpt lat="40.12084475928383" lon="9.509595129024603"><ele>911.0</ele><time>2026-04-04T12:46:24.999Z</time></trkpt><trkpt lat="40.120605362001434" lon="9.509619421139957"><ele>911.0</ele><time>2026-04-04T12:46:25.999Z</time></trkpt><trkpt lat="40.12038444186113" lon="9.509649144457653"><ele>911.0</ele><time>2026-04-04T12:46:26.999Z</time></trkpt><trkpt lat="40.12018901659233" lon="9.509690291028285"><ele>911.0</ele><time>2026-04-04T12:46:27.999Z</time></trkpt><trkpt lat="40.12001025981967" lon="9.509745998008585"><ele>915.6666666666667</ele><time>2026-04-04T12:46:28.999Z</time></trkpt><trkpt lat="40.11984532040794" lon="9.509774713972265"><ele>920.3333333333333</ele><time>2026-04-04T12:46:29.999Z</time></trkpt><trkpt lat="40.11969042021445" lon="9.509753520960981"><ele>925.0</ele><time>2026-04-04T12:46:30.999Z</time></trkpt><trkpt lat="40.119551140778924" lon="9.509720793031116"><ele>925.0</ele><time>2026-04-04T12:46:31.999Z</time></trkpt><trkpt lat="40.119423275131545" lon="9.509721557914288"><ele>925.0</ele><time>2026-04-04T12:46:32.999Z</time></trkpt><trkpt lat="40.119301977213496" lon="9.509813805508676"><ele>925.0</ele><time>2026-04-04T12:46:33.999Z</time></trkpt><trkpt lat="40.11918663496141" lon="9.509961278497252"><ele>925.0</ele><time>2026-04-04T12:46:34.999Z</time></trkpt><trkpt lat="40.119066399455335" lon="9.510099272010034"><ele>947.0</ele><time>2026-04-04T12:46:35.999Z</time></trkpt><trkpt lat="40.118862626300924" lon="9.51018669230497"><ele>969.0</ele><time>2026-04-04T12:46:36.999Z</time></trkpt><trkpt lat="40.1186737080756" lon="9.510370109934541"><ele>947.5</ele><time>2026-04-04T12:46:37.999Z</time></trkpt><trkpt lat="40.118487728903645" lon="9.510570139660318"><ele>926.0</ele><time>2026-04-04T12:46:38.999Z</time></trkpt><trkpt lat="40.11832191899103" lon="9.510787211697776"><ele>923.3333333333334</ele><time>2026-04-04T12:46:39.999Z</time></trkpt><trkpt lat="40.11816796418742" lon="9.510989309038159"><ele>920.6666666666667</ele><time>2026-04-04T12:46:40.999Z</time></trkpt><trkpt lat="40.11800411359335" lon="9.511152254255729"><ele>918.0</ele><time>2026-04-04T12:46:41.999Z</time></trkpt><trkpt lat="40.11781798573528" lon="9.511291651009827"><ele>918.0</ele><time>2026-04-04T12:46:42.999Z</time></trkpt><trkpt lat="40.11761103920218" lon="9.511437389858061"><ele>918.0</ele><time>2026-04-04T12:46:43.999Z</time></trkpt><trkpt lat="40.11742147823143" lon="9.511575639964136"><ele>924.3333333333333</ele><time>2026-04-04T12:46:44.999Z</time></trkpt><trkpt lat="40.117239824798055" lon="9.511706869944119"><ele>930.6666666666666</ele><time>2026-04-04T12:46:45.999Z</time></trkpt><trkpt lat="40.11706577719667" lon="9.511813550106979"><ele>937.0</ele><time>2026-04-04T12:46:46.999Z</time></trkpt><trkpt lat="40.11688523026233" lon="9.511884830757042"><ele>937.0</ele><time>2026-04-04T12:46:47.999Z</time></trkpt><trkpt lat="40.11669109989708" lon="9.511909244593106"><ele>937.0</ele><time>2026-04-04T12:46:48.999Z</time></trkpt><trkpt lat="40.11649839836224" lon="9.511931882026099"><ele>937.0</ele><time>2026-04-04T12:46:49.999Z</time></trkpt><trkpt lat="40.11632118358605" lon="9.511984591926034"><ele>929.0</ele><time>2026-04-04T12:46:50.999Z</time></trkpt><trkpt lat="40.11615522191953" lon="9.51209560008633"><ele>921.0</ele><time>2026-04-04T12:46:51.999Z</time></trkpt><trkpt lat="40.11598289428034" lon="9.512208840214555"><ele>913.0</ele><time>2026-04-04T12:46:52.999Z</time></trkpt><trkpt lat="40.11578585169824" lon="9.512276332948911"><ele>919.5</ele><time>2026-04-04T12:46:53.999Z</time></trkpt><trkpt lat="40.11556266845382" lon="9.512335363125352"><ele>926.0</ele><time>2026-04-04T12:46:54.999Z</time></trkpt><trkpt lat="40.11532714830585" lon="9.512410389421426"><ele>926.0</ele><time>2026-04-04T12:46:55.999Z</time></trkpt><trkpt lat="40.115087965637095" lon="9.512515622132602"><ele>926.0</ele><time>2026-04-04T12:46:56.999Z</time></trkpt><trkpt lat="40.114842914992906" lon="9.512656990747162"><ele>933.5</ele><time>2026-04-04T12:46:57.999Z</time></trkpt><trkpt lat="40.1146117910245" lon="9.51279499065396"><ele>941.0</ele><time>2026-04-04T12:46:58.999Z</time></trkpt><trkpt lat="40.11437565114034" lon="9.512931967157261"><ele>932.5</ele><time>2026-04-04T12:46:59.999Z</time></trkpt><trkpt lat="40.114138060393586" lon="9.513069631862185"><ele>924.0</ele><time>2026-04-04T12:47:01Z</time></trkpt><trkpt lat="40.113897203155275" lon="9.513212887370875"><ele>924.0</ele><time>2026-04-04T12:47:02Z</time></trkpt><trkpt lat="40.113662366085464" lon="9.513362367527186"><ele>924.0</ele><time>2026-04-04T12:47:03Z</time></trkpt><trkpt lat="40.113449459396136" lon="9.51349841491313"><ele>924.0</ele><time>2026-04-04T12:47:04Z</time></trkpt><trkpt lat="40.113249879399106" lon="9.5136615932025"><ele>924.0</ele><time>2026-04-04T12:47:05Z</time></trkpt><trkpt lat="40.1130550537372" lon="9.51387062466219"><ele>919.0</ele><time>2026-04-04T12:47:06Z</time></trkpt><trkpt lat="40.112859733848374" lon="9.514089076297596"><ele>914.0</ele><time>2026-04-04T12:47:07Z</time></trkpt><trkpt lat="40.112661424403264" lon="9.514302322759463"><ele>914.0</ele><time>2026-04-04T12:47:08Z</time></trkpt><trkpt lat="40.112472018631244" lon="9.514491723944893"><ele>914.0</ele><time>2026-04-04T12:47:09Z</time></trkpt><trkpt lat="40.112285581784825" lon="9.514677760012257"><ele>908.6666666666667</ele><time>2026-04-04T12:47:10Z</time></trkpt><trkpt lat="40.11211637401944" lon="9.514858428155271"><ele>903.3333333333333</ele><time>2026-04-04T12:47:11Z</time></trkpt><trkpt lat="40.11195723267816" lon="9.515058184064227"><ele>898.0</ele><time>2026-04-04T12:47:12Z</time></trkpt><trkpt lat="40.11180293480988" lon="9.515295454942903"><ele>900.5</ele><time>2026-04-04T12:47:13Z</time></trkpt><trkpt lat="40.111648998609866" lon="9.515552515369048"><ele>903.0</ele><time>2026-04-04T12:47:14Z</time></trkpt><trkpt lat="40.11150331693062" lon="9.515810954035302"><ele>894.0</ele><time>2026-04-04T12:47:15Z</time></trkpt><trkpt lat="40.11139017809155" lon="9.516046552685403"><ele>885.0</ele><time>2026-04-04T12:47:16Z</time></trkpt><trkpt lat="40.11130372290287" lon="9.516279557574896"><ele>876.0</ele><time>2026-04-04T12:47:17Z</time></trkpt><trkpt lat="40.11124211014096" lon="9.516499529604278"><ele>876.0</ele><time>2026-04-04T12:47:18Z</time></trkpt><trkpt lat="40.11119273020049" lon="9.516699905413063"><ele>876.0</ele><time>2026-04-04T12:47:19Z</time></trkpt><trkpt lat="40.11113168991424" lon="9.516859251468418"><ele>876.0</ele><time>2026-04-04T12:47:20Z</time></trkpt><trkpt lat="40.11103328268072" lon="9.516974939361582"><ele>876.0</ele><time>2026-04-04T12:47:21Z</time></trkpt><trkpt lat="40.11090568471713" lon="9.51708379169817"><ele>882.0</ele><time>2026-04-04T12:47:22Z</time></trkpt><trkpt lat="40.11079565464869" lon="9.517247688576767"><ele>888.0</ele><time>2026-04-04T12:47:23Z</time></trkpt><trkpt lat="40.11071270903674" lon="9.517472664715399"><ele>894.0</ele><time>2026-04-04T12:47:24Z</time></trkpt><trkpt lat="40.110668831715145" lon="9.517691431687531"><ele>887.25</ele><time>2026-04-04T12:47:25Z</time></trkpt><trkpt lat="40.11064114274956" lon="9.517895942806172"><ele>880.5</ele><time>2026-04-04T12:47:26Z</time></trkpt><trkpt lat="40.11061079065486" lon="9.518067107401935"><ele>873.75</ele><time>2026-04-04T12:47:27Z</time></trkpt><trkpt lat="40.110554809100954" lon="9.518225545088317"><ele>867.0</ele><time>2026-04-04T12:47:28Z</time></trkpt><trkpt lat="40.1104657132695" lon="9.518364155278945"><ele>867.0</ele><time>2026-04-04T12:47:29Z</time></trkpt><trkpt lat="40.11034940414781" lon="9.518483142978976"><ele>867.0</ele><time>2026-04-04T12:47:30Z</time></trkpt><trkpt lat="40.11022258767431" lon="9.518575192859782"><ele>867.0</ele><time>2026-04-04T12:47:31Z</time></trkpt><trkpt lat="40.11011095038302" lon="9.518671962659907"><ele>867.0</ele><time>2026-04-04T12:47:32Z</time></trkpt><trkpt lat="40.11001212856555" lon="9.5187809904488"><ele>866.5</ele><time>2026-04-04T12:47:33Z</time></trkpt><trkpt lat="40.10990015606701" lon="9.518872918933813"><ele>866.0</ele><time>2026-04-04T12:47:34Z</time></trkpt><trkpt lat="40.10977006880636" lon="9.518948686719472"><ele>865.5</ele><time>2026-04-04T12:47:35Z</time></trkpt><trkpt lat="40.109622253355056" lon="9.519013361444935"><ele>865.0</ele><time>2026-04-04T12:47:36Z</time></trkpt><trkpt lat="40.109468418483374" lon="9.519075778689283"><ele>865.0</ele><time>2026-04-04T12:47:37Z</time></trkpt><trkpt lat="40.109317662485445" lon="9.519161823882063"><ele>865.0</ele><time>2026-04-04T12:47:38Z</time></trkpt><trkpt lat="40.1091906455375" lon="9.519278728121213"><ele>865.0</ele><time>2026-04-04T12:47:39Z</time></trkpt><trkpt lat="40.10905088128789" lon="9.51942566509217"><ele>859.5</ele><time>2026-04-04T12:47:40Z</time></trkpt><trkpt lat="40.108892517095825" lon="9.519617681228702"><ele>854.0</ele><time>2026-04-04T12:47:41Z</time></trkpt><trkpt lat="40.10872873549765" lon="9.519853379571611"><ele>854.0</ele><time>2026-04-04T12:47:42Z</time></trkpt><trkpt lat="40.108535105619175" lon="9.520089260864104"><ele>854.0</ele><time>2026-04-04T12:47:43Z</time></trkpt><trkpt lat="40.10834285012961" lon="9.520297257301724"><ele>856.3333333333334</ele><time>2026-04-04T12:47:44Z</time></trkpt><trkpt lat="40.10818088248072" lon="9.520464603663957"><ele>858.6666666666667</ele><time>2026-04-04T12:47:45Z</time></trkpt><trkpt lat="40.108023267919606" lon="9.520593381343812"><ele>861.0</ele><time>2026-04-04T12:47:46Z</time></trkpt><trkpt lat="40.10784330585979" lon="9.5206386106331"><ele>861.0</ele><time>2026-04-04T12:47:47Z</time></trkpt><trkpt lat="40.107656541187936" lon="9.52071049959077"><ele>861.0</ele><time>2026-04-04T12:47:48Z</time></trkpt><trkpt lat="40.10748869068277" lon="9.5207585630065"><ele>861.0</ele><time>2026-04-04T12:47:49Z</time></trkpt><trkpt lat="40.107334168282804" lon="9.520837231187372"><ele>858.6666666666667</ele><time>2026-04-04T12:47:50Z</time></trkpt><trkpt lat="40.10718053070897" lon="9.52098134068791"><ele>856.3333333333334</ele><time>2026-04-04T12:47:51Z</time></trkpt><trkpt lat="40.10702665089254" lon="9.52121492944955"><ele>854.0</ele><time>2026-04-04T12:47:52Z</time></trkpt><trkpt lat="40.10686313998922" lon="9.521435841030462"><ele>854.0</ele><time>2026-04-04T12:47:53Z</time></trkpt><trkpt lat="40.10670030028029" lon="9.521650951045258"><ele>854.0</ele><time>2026-04-04T12:47:54Z</time></trkpt><trkpt lat="40.10655694960484" lon="9.521855139020452"><ele>854.0</ele><time>2026-04-04T12:47:55Z</time></trkpt><trkpt lat="40.10643874108817" lon="9.522083519075071"><ele>846.0</ele><time>2026-04-04T12:47:56Z</time></trkpt><trkpt lat="40.10634669413417" lon="9.522353335216728"><ele>838.0</ele><time>2026-04-04T12:47:57Z</time></trkpt><trkpt lat="40.10625205325087" lon="9.52260296314291"><ele>830.0</ele><time>2026-04-04T12:47:58Z</time></trkpt><trkpt lat="40.10612443370991" lon="9.522820666043605"><ele>840.0</ele><time>2026-04-04T12:47:59Z</time></trkpt><trkpt lat="40.1059652373953" lon="9.523028912896802"><ele>850.0</ele><time>2026-04-04T12:48:00Z</time></trkpt><trkpt lat="40.10577773270949" lon="9.523215233409758"><ele>841.3333333333333</ele><time>2026-04-04T12:48:01Z</time></trkpt><trkpt lat="40.10558756216731" lon="9.52336495695846"><ele>832.6666666666667</ele><time>2026-04-04T12:48:02Z</time></trkpt><trkpt lat="40.105404612587996" lon="9.52348978028396"><ele>824.0</ele><time>2026-04-04T12:48:03Z</time></trkpt><trkpt lat="40.10523486715422" lon="9.523605044552223"><ele>824.0</ele><time>2026-04-04T12:48:04Z</time></trkpt><trkpt lat="40.10508107006361" lon="9.523719914112332"><ele>824.0</ele><time>2026-04-04T12:48:05Z</time></trkpt><trkpt lat="40.10495349092976" lon="9.523862100598027"><ele>824.0</ele><time>2026-04-04T12:48:06Z</time></trkpt><trkpt lat="40.10484316355829" lon="9.524053972032226"><ele>822.5</ele><time>2026-04-04T12:48:07Z</time></trkpt><trkpt lat="40.104776962581745" lon="9.524249746154064"><ele>821.0</ele><time>2026-04-04T12:48:08Z</time></trkpt><trkpt lat="40.104751325471234" lon="9.524427878120088"><ele>819.5</ele><time>2026-04-04T12:48:09Z</time></trkpt><trkpt lat="40.104755299462575" lon="9.524593475365414"><ele>818.0</ele><time>2026-04-04T12:48:10Z</time></trkpt><trkpt lat="40.10481735179401" lon="9.52473825866878"><ele>821.25</ele><time>2026-04-04T12:48:11Z</time></trkpt><trkpt lat="40.10491548919936" lon="9.524839700028732"><ele>824.5</ele><time>2026-04-04T12:48:12Z</time></trkpt><trkpt lat="40.10504900373358" lon="9.524892228399878"><ele>827.75</ele><time>2026-04-04T12:48:13Z</time></trkpt><trkpt lat="40.10520210819646" lon="9.524899933067093"><ele>831.0</ele><time>2026-04-04T12:48:14Z</time></trkpt><trkpt lat="40.10537076810193" lon="9.524915781783676"><ele>831.0</ele><time>2026-04-04T12:48:15Z</time></trkpt><trkpt lat="40.105567434587215" lon="9.524932865548157"><ele>831.0</ele><time>2026-04-04T12:48:16Z</time></trkpt><trkpt lat="40.105769610954724" lon="9.524953983479822"><ele>831.0</ele><time>2026-04-04T12:48:17Z</time></trkpt><trkpt lat="40.1059391688461" lon="9.524976502515601"><ele>831.6666666666667</ele><time>2026-04-04T12:48:17.999Z</time></trkpt><trkpt lat="40.10608271007388" lon="9.525033101317373"><ele>832.3333333333334</ele><time>2026-04-04T12:48:18.999Z</time></trkpt><trkpt lat="40.1061889205977" lon="9.52515825965991"><ele>833.0</ele><time>2026-04-04T12:48:19.999Z</time></trkpt><trkpt lat="40.10627507116604" lon="9.525330594763991"><ele>826.0</ele><time>2026-04-04T12:48:20.999Z</time></trkpt><trkpt lat="40.10637502422468" lon="9.525517822496996"><ele>819.0</ele><time>2026-04-04T12:48:21.999Z</time></trkpt><trkpt lat="40.10644350734463" lon="9.525704998622953"><ele>812.0</ele><time>2026-04-04T12:48:22.999Z</time></trkpt><trkpt lat="40.106492172986236" lon="9.525895272225785"><ele>812.0</ele><time>2026-04-04T12:48:23.999Z</time></trkpt><trkpt lat="40.10647924100007" lon="9.52609079930386"><ele>812.0</ele><time>2026-04-04T12:48:24.999Z</time></trkpt><trkpt lat="40.10646684848628" lon="9.526281710912977"><ele>812.0</ele><time>2026-04-04T12:48:25.999Z</time></trkpt><trkpt lat="40.1063958089785" lon="9.526468368600776"><ele>813.6666666666667</ele><time>2026-04-04T12:48:26.999Z</time></trkpt><trkpt lat="40.10628677328664" lon="9.526640245262215"><ele>815.3333333333333</ele><time>2026-04-04T12:48:27.999Z</time></trkpt><trkpt lat="40.1061493305534" lon="9.526784663709158"><ele>817.0</ele><time>2026-04-04T12:48:28.999Z</time></trkpt><trkpt lat="40.10599353294039" lon="9.526873150915566"><ele>817.0</ele><time>2026-04-04T12:48:29.999Z</time></trkpt><trkpt lat="40.105810391309696" lon="9.52689275526737"><ele>817.0</ele><time>2026-04-04T12:48:30.999Z</time></trkpt><trkpt lat="40.1055978808277" lon="9.526922632888706"><ele>817.0</ele><time>2026-04-04T12:48:31.999Z</time></trkpt><trkpt lat="40.10538037548572" lon="9.526964447272455"><ele>817.5</ele><time>2026-04-04T12:48:32.999Z</time></trkpt><trkpt lat="40.10516860198677" lon="9.52705455165417"><ele>818.0</ele><time>2026-04-04T12:48:33.999Z</time></trkpt><trkpt lat="40.104968596482614" lon="9.527198247118418"><ele>808.6666666666667</ele><time>2026-04-04T12:48:34.999Z</time></trkpt><trkpt lat="40.1048069851254" lon="9.527355142383257"><ele>799.3333333333333</ele><time>2026-04-04T12:48:35.999Z</time></trkpt><trkpt lat="40.104679935479986" lon="9.527506555990499"><ele>790.0</ele><time>2026-04-04T12:48:36.999Z</time></trkpt><trkpt lat="40.104578272975154" lon="9.527677821816985"><ele>791.6666666666666</ele><time>2026-04-04T12:48:37.999Z</time></trkpt><trkpt lat="40.104499304668046" lon="9.527897836084009"><ele>793.3333333333333</ele><time>2026-04-04T12:48:38.999Z</time></trkpt><trkpt lat="40.10443081091981" lon="9.52815092269197"><ele>795.0</ele><time>2026-04-04T12:48:39.999Z</time></trkpt><trkpt lat="40.104404856900814" lon="9.52839083561875"><ele>795.0</ele><time>2026-04-04T12:48:40.999Z</time></trkpt><trkpt lat="40.10441169179292" lon="9.52863512683572"><ele>795.0</ele><time>2026-04-04T12:48:41.999Z</time></trkpt><trkpt lat="40.104463048210675" lon="9.528896579604039"><ele>795.0</ele><time>2026-04-04T12:48:42.999Z</time></trkpt><trkpt lat="40.10453035771329" lon="9.529183871451638"><ele>794.0</ele><time>2026-04-04T12:48:43.999Z</time></trkpt><trkpt lat="40.10459833969497" lon="9.529483408331128"><ele>793.0</ele><time>2026-04-04T12:48:44.999Z</time></trkpt><trkpt lat="40.10465120610422" lon="9.52975112431162"><ele>792.3333333333333</ele><time>2026-04-04T12:48:45.999Z</time></trkpt><trkpt lat="40.104692243347046" lon="9.529981471346291"><ele>791.6666666666667</ele><time>2026-04-04T12:48:46.999Z</time></trkpt><trkpt lat="40.104729845061165" lon="9.53017890902319"><ele>791.0</ele><time>2026-04-04T12:48:47.999Z</time></trkpt><trkpt lat="40.104752612468" lon="9.530334463583756"><ele>789.8</ele><time>2026-04-04T12:48:48.999Z</time></trkpt><trkpt lat="40.104739300247545" lon="9.530461608949384"><ele>788.5999999999999</ele><time>2026-04-04T12:48:49.999Z</time></trkpt><trkpt lat="40.10466079670507" lon="9.530548951614023"><ele>787.4</ele><time>2026-04-04T12:48:50.999Z</time></trkpt><trkpt lat="40.104566665051806" lon="9.53060616398876"><ele>786.2</ele><time>2026-04-04T12:48:51.999Z</time></trkpt><trkpt lat="40.104444121374726" lon="9.530602696128618"><ele>785.0</ele><time>2026-04-04T12:48:52.999Z</time></trkpt><trkpt lat="40.104331768852624" lon="9.53052615073282"><ele>786.5</ele><time>2026-04-04T12:48:53.999Z</time></trkpt><trkpt lat="40.10426946158298" lon="9.530384589748714"><ele>788.0</ele><time>2026-04-04T12:48:54.999Z</time></trkpt><trkpt lat="40.10427047412025" lon="9.530204733781098"><ele>789.5</ele><time>2026-04-04T12:48:55.999Z</time></trkpt><trkpt lat="40.104291254784854" lon="9.529999306629456"><ele>791.0</ele><time>2026-04-04T12:48:56.999Z</time></trkpt><trkpt lat="40.10433067775162" lon="9.529793640618296"><ele>791.0</ele><time>2026-04-04T12:48:57.999Z</time></trkpt><trkpt lat="40.10432740359688" lon="9.529642645570734"><ele>791.0</ele><time>2026-04-04T12:48:58.999Z</time></trkpt><trkpt lat="40.10430355580845" lon="9.52952040818295"><ele>791.0</ele><time>2026-04-04T12:48:59.999Z</time></trkpt><trkpt lat="40.10423988801855" lon="9.529429831667485"><ele>791.0</ele><time>2026-04-04T12:49:00.999Z</time></trkpt><trkpt lat="40.10413408650283" lon="9.529397381146286"><ele>791.0</ele><time>2026-04-04T12:49:01.999Z</time></trkpt><trkpt lat="40.104021163146484" lon="9.529418053122031"><ele>788.75</ele><time>2026-04-04T12:49:02.999Z</time></trkpt><trkpt lat="40.103934538410634" lon="9.52950964196449"><ele>786.5</ele><time>2026-04-04T12:49:03.999Z</time></trkpt><trkpt lat="40.10387421370265" lon="9.529644624391075"><ele>784.25</ele><time>2026-04-04T12:49:04.999Z</time></trkpt><trkpt lat="40.10385388298459" lon="9.529845640632873"><ele>782.0</ele><time>2026-04-04T12:49:05.999Z</time></trkpt><trkpt lat="40.103821638292935" lon="9.53004171864414"><ele>782.0</ele><time>2026-04-04T12:49:07Z</time></trkpt><trkpt lat="40.10376156665137" lon="9.530192306885091"><ele>782.0</ele><time>2026-04-04T12:49:08Z</time></trkpt><trkpt lat="40.103653717605994" lon="9.53027235861562"><ele>782.0</ele><time>2026-04-04T12:49:09Z</time></trkpt><trkpt lat="40.10352710249418" lon="9.530302161182124"><ele>782.0</ele><time>2026-04-04T12:49:10Z</time></trkpt><trkpt lat="40.103379521660564" lon="9.53026291111549"><ele>780.3333333333334</ele><time>2026-04-04T12:49:11Z</time></trkpt><trkpt lat="40.10318697585402" lon="9.530213070946132"><ele>778.6666666666667</ele><time>2026-04-04T12:49:12Z</time></trkpt><trkpt lat="40.102971737430565" lon="9.530169437836923"><ele>777.0</ele><time>2026-04-04T12:49:13Z</time></trkpt><trkpt lat="40.10275601204178" lon="9.530114774861074"><ele>777.0</ele><time>2026-04-04T12:49:14Z</time></trkpt><trkpt lat="40.102533053013566" lon="9.530066426120333"><ele>777.0</ele><time>2026-04-04T12:49:15Z</time></trkpt><trkpt lat="40.10233028630204" lon="9.530020823943676"><ele>777.0</ele><time>2026-04-04T12:49:16Z</time></trkpt><trkpt lat="40.10216388163642" lon="9.529980789391331"><ele>776.5</ele><time>2026-04-04T12:49:17Z</time></trkpt><trkpt lat="40.10203746614707" lon="9.529933036488414"><ele>776.0</ele><time>2026-04-04T12:49:18Z</time></trkpt><trkpt lat="40.10195443750425" lon="9.529829282507524"><ele>775.5</ele><time>2026-04-04T12:49:19Z</time></trkpt><trkpt lat="40.10188709343663" lon="9.52970470293623"><ele>775.0</ele><time>2026-04-04T12:49:20Z</time></trkpt><trkpt lat="40.10185416723704" lon="9.529523479151326"><ele>773.0</ele><time>2026-04-04T12:49:21Z</time></trkpt><trkpt lat="40.10187961219477" lon="9.529308327690638"><ele>771.0</ele><time>2026-04-04T12:49:22Z</time></trkpt><trkpt lat="40.101882517472404" lon="9.529084132312567"><ele>769.0</ele><time>2026-04-04T12:49:23Z</time></trkpt><trkpt lat="40.10185989192181" lon="9.528904780313262"><ele>769.0</ele><time>2026-04-04T12:49:24Z</time></trkpt><trkpt lat="40.10180636670649" lon="9.528754975458979"><ele>769.0</ele><time>2026-04-04T12:49:25Z</time></trkpt><trkpt lat="40.10171743067523" lon="9.528637324308587"><ele>769.0</ele><time>2026-04-04T12:49:26Z</time></trkpt><trkpt lat="40.101592133827076" lon="9.528581706969632"><ele>769.0</ele><time>2026-04-04T12:49:27Z</time></trkpt><trkpt lat="40.101453397204125" lon="9.528570189223396"><ele>767.6666666666666</ele><time>2026-04-04T12:49:28Z</time></trkpt><trkpt lat="40.10128158546677" lon="9.52861026693676"><ele>766.3333333333333</ele><time>2026-04-04T12:49:29Z</time></trkpt><trkpt lat="40.10109418347204" lon="9.528671770424724"><ele>765.0</ele><time>2026-04-04T12:49:30Z</time></trkpt><trkpt lat="40.10090323879824" lon="9.528750795705879"><ele>761.6666666666666</ele><time>2026-04-04T12:49:31Z</time></trkpt><trkpt lat="40.10069976584359" lon="9.528828968283078"><ele>758.3333333333333</ele><time>2026-04-04T12:49:32Z</time></trkpt><trkpt lat="40.10048198448515" lon="9.528896913108799"><ele>755.0</ele><time>2026-04-04T12:49:33Z</time></trkpt><trkpt lat="40.10025527220887" lon="9.528945228387505"><ele>755.0</ele><time>2026-04-04T12:49:34Z</time></trkpt><trkpt lat="40.10002607277487" lon="9.5289931691274"><ele>755.0</ele><time>2026-04-04T12:49:35Z</time></trkpt><trkpt lat="40.09979950065987" lon="9.529050179223068"><ele>749.5</ele><time>2026-04-04T12:49:36Z</time></trkpt><trkpt lat="40.09955732913335" lon="9.529141475321268"><ele>744.0</ele><time>2026-04-04T12:49:37Z</time></trkpt><trkpt lat="40.09932496618316" lon="9.529265717786169"><ele>744.0</ele><time>2026-04-04T12:49:38Z</time></trkpt><trkpt lat="40.09910413014323" lon="9.529420825390906"><ele>744.0</ele><time>2026-04-04T12:49:39Z</time></trkpt><trkpt lat="40.09887486772905" lon="9.529576449112174"><ele>742.0</ele><time>2026-04-04T12:49:40Z</time></trkpt><trkpt lat="40.09863806380565" lon="9.529725029418444"><ele>740.0</ele><time>2026-04-04T12:49:41Z</time></trkpt><trkpt lat="40.098395980949334" lon="9.529865994855095"><ele>739.5</ele><time>2026-04-04T12:49:42Z</time></trkpt><trkpt lat="40.09816256072817" lon="9.529992759825637"><ele>739.0</ele><time>2026-04-04T12:49:43Z</time></trkpt><trkpt lat="40.097938040811655" lon="9.530088051280684"><ele>739.0</ele><time>2026-04-04T12:49:44Z</time></trkpt><trkpt lat="40.09771249891947" lon="9.530151565300848"><ele>739.0</ele><time>2026-04-04T12:49:45Z</time></trkpt><trkpt lat="40.097477749591896" lon="9.5301842715916"><ele>736.6666666666667</ele><time>2026-04-04T12:49:46Z</time></trkpt><trkpt lat="40.097262140341535" lon="9.530187929668893"><ele>734.3333333333334</ele><time>2026-04-04T12:49:47Z</time></trkpt><trkpt lat="40.097060781931134" lon="9.530190814294198"><ele>732.0</ele><time>2026-04-04T12:49:48Z</time></trkpt><trkpt lat="40.09687022418912" lon="9.530184191756765"><ele>732.0</ele><time>2026-04-04T12:49:49Z</time></trkpt><trkpt lat="40.096705756818515" lon="9.530193060429497"><ele>732.0</ele><time>2026-04-04T12:49:50Z</time></trkpt><trkpt lat="40.09656036405971" lon="9.530228503203649"><ele>732.0</ele><time>2026-04-04T12:49:51Z</time></trkpt><trkpt lat="40.09644366166426" lon="9.530315785176006"><ele>732.0</ele><time>2026-04-04T12:49:52Z</time></trkpt><trkpt lat="40.096343574533854" lon="9.53044413088579"><ele>729.6666666666666</ele><time>2026-04-04T12:49:53Z</time></trkpt><trkpt lat="40.09626012054167" lon="9.53060310095699"><ele>727.3333333333333</ele><time>2026-04-04T12:49:54Z</time></trkpt><trkpt lat="40.09620855372624" lon="9.530798223654154"><ele>725.0</ele><time>2026-04-04T12:49:55Z</time></trkpt><trkpt lat="40.09619951609044" lon="9.53102471206028"><ele>725.0</ele><time>2026-04-04T12:49:56Z</time></trkpt><trkpt lat="40.09620737620198" lon="9.531277246791333"><ele>725.0</ele><time>2026-04-04T12:49:57Z</time></trkpt><trkpt lat="40.096212594072284" lon="9.531549982505444"><ele>725.0</ele><time>2026-04-04T12:49:58Z</time></trkpt><trkpt lat="40.09621181063225" lon="9.531842548073522"><ele>724.6666666666666</ele><time>2026-04-04T12:49:59Z</time></trkpt><trkpt lat="40.096210926327984" lon="9.532123969298409"><ele>724.3333333333334</ele><time>2026-04-04T12:50:00Z</time></trkpt><trkpt lat="40.09621156546839" lon="9.532409241880117"><ele>724.0</ele><time>2026-04-04T12:50:01Z</time></trkpt><trkpt lat="40.09620681111651" lon="9.532695559409294"><ele>725.0</ele><time>2026-04-04T12:50:02Z</time></trkpt><trkpt lat="40.09620058951691" lon="9.532964592054718"><ele>726.0</ele><time>2026-04-04T12:50:03Z</time></trkpt><trkpt lat="40.0961963366059" lon="9.533199741747012"><ele>727.0</ele><time>2026-04-04T12:50:03.999Z</time></trkpt><trkpt lat="40.09618622526662" lon="9.533400695561399"><ele>727.0</ele><time>2026-04-04T12:50:04.999Z</time></trkpt><trkpt lat="40.09614911499846" lon="9.53358053997758"><ele>727.0</ele><time>2026-04-04T12:50:05.999Z</time></trkpt><trkpt lat="40.09606837121703" lon="9.533737914100628"><ele>727.0</ele><time>2026-04-04T12:50:06.999Z</time></trkpt><trkpt lat="40.09596034032909" lon="9.533875662604833"><ele>727.0</ele><time>2026-04-04T12:50:07.999Z</time></trkpt><trkpt lat="40.095818294054574" lon="9.53398885367454"><ele>726.6666666666667</ele><time>2026-04-04T12:50:08.999Z</time></trkpt><trkpt lat="40.095654869082736" lon="9.534097366946117"><ele>726.3333333333334</ele><time>2026-04-04T12:50:09.999Z</time></trkpt><trkpt lat="40.09549131031586" lon="9.534218888865677"><ele>726.0</ele><time>2026-04-04T12:50:10.999Z</time></trkpt><trkpt lat="40.095345583257945" lon="9.534338149198641"><ele>726.0</ele><time>2026-04-04T12:50:11.999Z</time></trkpt><trkpt lat="40.0952212735958" lon="9.534470884360156"><ele>726.0</ele><time>2026-04-04T12:50:12.999Z</time></trkpt><trkpt lat="40.09512838014344" lon="9.534650771927563"><ele>726.0</ele><time>2026-04-04T12:50:13.999Z</time></trkpt><trkpt lat="40.095067657446755" lon="9.534859237015349"><ele>725.0</ele><time>2026-04-04T12:50:14.999Z</time></trkpt><trkpt lat="40.09501771501571" lon="9.535086390824114"><ele>724.0</ele><time>2026-04-04T12:50:15.999Z</time></trkpt><trkpt lat="40.0949618174796" lon="9.535323274675216"><ele>723.0</ele><time>2026-04-04T12:50:16.999Z</time></trkpt><trkpt lat="40.094901862883454" lon="9.535566753660168"><ele>722.3333333333334</ele><time>2026-04-04T12:50:17.999Z</time></trkpt><trkpt lat="40.09483903391048" lon="9.535812788730608"><ele>721.6666666666667</ele><time>2026-04-04T12:50:18.999Z</time></trkpt><trkpt lat="40.094778187217116" lon="9.536052683416537"><ele>721.0</ele><time>2026-04-04T12:50:19.999Z</time></trkpt><trkpt lat="40.09471533925114" lon="9.536302943567167"><ele>721.0</ele><time>2026-04-04T12:50:20.999Z</time></trkpt><trkpt lat="40.09465085062618" lon="9.536566811155073"><ele>721.0</ele><time>2026-04-04T12:50:21.999Z</time></trkpt><trkpt lat="40.094594123751925" lon="9.536821647066127"><ele>721.0</ele><time>2026-04-04T12:50:22.999Z</time></trkpt><trkpt lat="40.094563370697955" lon="9.537061673465114"><ele>721.0</ele><time>2026-04-04T12:50:23.999Z</time></trkpt><trkpt lat="40.09455870957775" lon="9.537296395892703"><ele>721.0</ele><time>2026-04-04T12:50:24.999Z</time></trkpt><trkpt lat="40.09458475052014" lon="9.537531125378985"><ele>721.0</ele><time>2026-04-04T12:50:25.999Z</time></trkpt><trkpt lat="40.09464104997535" lon="9.537768771376728"><ele>721.3333333333334</ele><time>2026-04-04T12:50:26.999Z</time></trkpt><trkpt lat="40.09473275013443" lon="9.537999998304839"><ele>721.6666666666666</ele><time>2026-04-04T12:50:27.999Z</time></trkpt><trkpt lat="40.09485969742753" lon="9.538220179660668"><ele>722.0</ele><time>2026-04-04T12:50:28.999Z</time></trkpt><trkpt lat="40.09502093942677" lon="9.538425972933682"><ele>722.5</ele><time>2026-04-04T12:50:29.999Z</time></trkpt><trkpt lat="40.095195649019004" lon="9.538637587687576"><ele>723.0</ele><time>2026-04-04T12:50:30.999Z</time></trkpt><trkpt lat="40.09537724859683" lon="9.538864978512063"><ele>722.0</ele><time>2026-04-04T12:50:31.999Z</time></trkpt><trkpt lat="40.09555563899639" lon="9.539091816317788"><ele>721.0</ele><time>2026-04-04T12:50:32.999Z</time></trkpt><trkpt lat="40.09571673665426" lon="9.539299764217958"><ele>720.75</ele><time>2026-04-04T12:50:33.999Z</time></trkpt><trkpt lat="40.0958555565559" lon="9.539483985743296"><ele>720.5</ele><time>2026-04-04T12:50:34.999Z</time></trkpt><trkpt lat="40.09598443843736" lon="9.539653210087327"><ele>720.25</ele><time>2026-04-04T12:50:35.999Z</time></trkpt><trkpt lat="40.09604732236425" lon="9.539681041797357"><ele>720.0</ele><time>2026-04-04T12:50:36.999Z</time></trkpt><trkpt lat="40.09615750330338" lon="9.539724408077056"><ele>720.0</ele><time>2026-04-04T12:50:37.999Z</time></trkpt><trkpt lat="40.096284885121236" lon="9.539698067500577"><ele>720.0</ele><time>2026-04-04T12:50:38.999Z</time></trkpt><trkpt lat="40.096430802912046" lon="9.539626235333603"><ele>720.0</ele><time>2026-04-04T12:50:39.999Z</time></trkpt><trkpt lat="40.09658956447512" lon="9.539548356379536"><ele>719.5</ele><time>2026-04-04T12:50:40.999Z</time></trkpt><trkpt lat="40.09674083150705" lon="9.539502959653184"><ele>719.0</ele><time>2026-04-04T12:50:41.999Z</time></trkpt><trkpt lat="40.09687068590175" lon="9.539503974806774"><ele>718.5</ele><time>2026-04-04T12:50:42.999Z</time></trkpt><trkpt lat="40.096999398332905" lon="9.539574836465556"><ele>718.0</ele><time>2026-04-04T12:50:43.999Z</time></trkpt><trkpt lat="40.09710592529519" lon="9.539698691947029"><ele>719.6666666666667</ele><time>2026-04-04T12:50:44.999Z</time></trkpt><trkpt lat="40.09718641282908" lon="9.539873650683038"><ele>721.3333333333334</ele><time>2026-04-04T12:50:45.999Z</time></trkpt><trkpt lat="40.09722316775516" lon="9.540081476555262"><ele>723.0</ele><time>2026-04-04T12:50:46.999Z</time></trkpt><trkpt lat="40.097225131882745" lon="9.540303077938463"><ele>723.3333333333334</ele><time>2026-04-04T12:50:47.999Z</time></trkpt><trkpt lat="40.09720127294344" lon="9.540567704527541"><ele>723.6666666666667</ele><time>2026-04-04T12:50:48.999Z</time></trkpt><trkpt lat="40.09716190193778" lon="9.540857347585671"><ele>724.0</ele><time>2026-04-04T12:50:49.999Z</time></trkpt><trkpt lat="40.09709703060065" lon="9.541131649259041"><ele>724.6666666666667</ele><time>2026-04-04T12:50:50.999Z</time></trkpt><trkpt lat="40.09700803063854" lon="9.541394212700473"><ele>725.3333333333334</ele><time>2026-04-04T12:50:51.999Z</time></trkpt><trkpt lat="40.09692900678537" lon="9.541624847187292"><ele>726.0</ele><time>2026-04-04T12:50:52.999Z</time></trkpt><trkpt lat="40.09689027256153" lon="9.541886003962071"><ele>726.3333333333334</ele><time>2026-04-04T12:50:53.999Z</time></trkpt><trkpt lat="40.09689407021792" lon="9.542177271824327"><ele>726.6666666666667</ele><time>2026-04-04T12:50:54.999Z</time></trkpt><trkpt lat="40.096914098047165" lon="9.542468314663347"><ele>727.0</ele><time>2026-04-04T12:50:55.999Z</time></trkpt><trkpt lat="40.096937772411685" lon="9.542757567908296"><ele>727.0</ele><time>2026-04-04T12:50:56.999Z</time></trkpt><trkpt lat="40.09695683297363" lon="9.543051581367813"><ele>727.0</ele><time>2026-04-04T12:50:57.999Z</time></trkpt><trkpt lat="40.096969947187944" lon="9.543351055130476"><ele>727.0</ele><time>2026-04-04T12:50:58.999Z</time></trkpt><trkpt lat="40.09697579185278" lon="9.543628554743329"><ele>727.0</ele><time>2026-04-04T12:50:59.999Z</time></trkpt><trkpt lat="40.096964979689695" lon="9.54389149025077"><ele>727.0</ele><time>2026-04-04T12:51:00.999Z</time></trkpt><trkpt lat="40.09692570658375" lon="9.544134583092456"><ele>724.6666666666667</ele><time>2026-04-04T12:51:01.999Z</time></trkpt><trkpt lat="40.09685815486641" lon="9.544347643151797"><ele>722.3333333333334</ele><time>2026-04-04T12:51:02.999Z</time></trkpt><trkpt lat="40.09679516376652" lon="9.54453011251372"><ele>720.0</ele><time>2026-04-04T12:51:03.999Z</time></trkpt><trkpt lat="40.096764334301696" lon="9.544700095167332"><ele>719.25</ele><time>2026-04-04T12:51:04.999Z</time></trkpt><trkpt lat="40.09679588133901" lon="9.544859973926492"><ele>718.5</ele><time>2026-04-04T12:51:05.999Z</time></trkpt><trkpt lat="40.096882825246425" lon="9.54498234931516"><ele>717.75</ele><time>2026-04-04T12:51:06.999Z</time></trkpt><trkpt lat="40.0970182202288" lon="9.545084241688569"><ele>717.0</ele><time>2026-04-04T12:51:07.999Z</time></trkpt><trkpt lat="40.09716065685009" lon="9.545186091317744"><ele>717.0</ele><time>2026-04-04T12:51:08.999Z</time></trkpt><trkpt lat="40.09725250315336" lon="9.54531805130357"><ele>717.0</ele><time>2026-04-04T12:51:09.999Z</time></trkpt><trkpt lat="40.09729246247219" lon="9.545490973576879"><ele>717.0</ele><time>2026-04-04T12:51:10.999Z</time></trkpt><trkpt lat="40.0972821653327" lon="9.545699037944699"><ele>717.0</ele><time>2026-04-04T12:51:11.999Z</time></trkpt><trkpt lat="40.09724236584281" lon="9.545945940467051"><ele>715.6666666666666</ele><time>2026-04-04T12:51:13Z</time></trkpt><trkpt lat="40.09719736083221" lon="9.546213899091493"><ele>714.3333333333333</ele><time>2026-04-04T12:51:14Z</time></trkpt><trkpt lat="40.09716509202013" lon="9.546509436196416"><ele>713.0</ele><time>2026-04-04T12:51:15Z</time></trkpt><trkpt lat="40.09713253028871" lon="9.546813864678159"><ele>712.0</ele><time>2026-04-04T12:51:16Z</time></trkpt><trkpt lat="40.097100601786885" lon="9.547113274415377"><ele>711.0</ele><time>2026-04-04T12:51:17Z</time></trkpt><trkpt lat="40.09707168699011" lon="9.547415924678303"><ele>711.0</ele><time>2026-04-04T12:51:18Z</time></trkpt><trkpt lat="40.097042119843486" lon="9.54773701575439"><ele>711.0</ele><time>2026-04-04T12:51:19Z</time></trkpt><trkpt lat="40.09701322238305" lon="9.548040633974889"><ele>709.0</ele><time>2026-04-04T12:51:20Z</time></trkpt><trkpt lat="40.09697578115697" lon="9.548328054583708"><ele>707.0</ele><time>2026-04-04T12:51:21Z</time></trkpt><trkpt lat="40.096916758412746" lon="9.548615605333804"><ele>703.0</ele><time>2026-04-04T12:51:22Z</time></trkpt><trkpt lat="40.09682655557974" lon="9.548909951979923"><ele>699.0</ele><time>2026-04-04T12:51:23Z</time></trkpt><trkpt lat="40.096732333781034" lon="9.549215517619816"><ele>699.0</ele><time>2026-04-04T12:51:24Z</time></trkpt><trkpt lat="40.09663931780598" lon="9.549527781367532"><ele>699.0</ele><time>2026-04-04T12:51:25Z</time></trkpt><trkpt lat="40.096558340580444" lon="9.549811982288997"><ele>699.6666666666666</ele><time>2026-04-04T12:51:26Z</time></trkpt><trkpt lat="40.09648697481545" lon="9.550066216486796"><ele>700.3333333333333</ele><time>2026-04-04T12:51:27Z</time></trkpt><trkpt lat="40.09642482617653" lon="9.550273462881568"><ele>701.0</ele><time>2026-04-04T12:51:28Z</time></trkpt><trkpt lat="40.09636711867927" lon="9.550427842125284"><ele>698.75</ele><time>2026-04-04T12:51:29Z</time></trkpt><trkpt lat="40.09630548040065" lon="9.550540965638264"><ele>696.5</ele><time>2026-04-04T12:51:30Z</time></trkpt><trkpt lat="40.096202035836534" lon="9.55058578568916"><ele>694.25</ele><time>2026-04-04T12:51:31Z</time></trkpt><trkpt lat="40.09607651625156" lon="9.550603452055919"><ele>692.0</ele><time>2026-04-04T12:51:32Z</time></trkpt><trkpt lat="40.095921350310796" lon="9.550627329080953"><ele>692.0</ele><time>2026-04-04T12:51:33Z</time></trkpt><trkpt lat="40.09574465647295" lon="9.55061755056377"><ele>692.0</ele><time>2026-04-04T12:51:34Z</time></trkpt><trkpt lat="40.09559917314402" lon="9.5506549054201"><ele>692.0</ele><time>2026-04-04T12:51:35Z</time></trkpt><trkpt lat="40.095488495918445" lon="9.550730919961907"><ele>692.0</ele><time>2026-04-04T12:51:36Z</time></trkpt><trkpt lat="40.09542112448354" lon="9.550867223367812"><ele>692.0</ele><time>2026-04-04T12:51:37Z</time></trkpt><trkpt lat="40.09538178697009" lon="9.551048448781001"><ele>692.0</ele><time>2026-04-04T12:51:38Z</time></trkpt><trkpt lat="40.09536758582215" lon="9.551273508462774"><ele>692.0</ele><time>2026-04-04T12:51:39Z</time></trkpt><trkpt lat="40.09535891807074" lon="9.551521305451883"><ele>692.3333333333333</ele><time>2026-04-04T12:51:40Z</time></trkpt><trkpt lat="40.09534819346451" lon="9.551769100015587"><ele>692.6666666666666</ele><time>2026-04-04T12:51:41Z</time></trkpt><trkpt lat="40.0953318090863" lon="9.5520112542952"><ele>693.0</ele><time>2026-04-04T12:51:42Z</time></trkpt><trkpt lat="40.095311647688966" lon="9.552276724684978"><ele>693.0</ele><time>2026-04-04T12:51:43Z</time></trkpt><trkpt lat="40.095289501281165" lon="9.552550329963818"><ele>693.0</ele><time>2026-04-04T12:51:44Z</time></trkpt><trkpt lat="40.09527301373052" lon="9.552790423765765"><ele>693.0</ele><time>2026-04-04T12:51:44.999Z</time></trkpt><trkpt lat="40.09527340951426" lon="9.5529786608484"><ele>694.75</ele><time>2026-04-04T12:51:45.999Z</time></trkpt><trkpt lat="40.09530129988785" lon="9.553132148962087"><ele>696.5</ele><time>2026-04-04T12:51:46.999Z</time></trkpt><trkpt lat="40.09536627449141" lon="9.553254867808016"><ele>698.25</ele><time>2026-04-04T12:51:47.999Z</time></trkpt><trkpt lat="40.09548134854439" lon="9.553335563042673"><ele>700.0</ele><time>2026-04-04T12:51:48.999Z</time></trkpt><trkpt lat="40.09561988748054" lon="9.553393894679882"><ele>699.3333333333334</ele><time>2026-04-04T12:51:49.999Z</time></trkpt><trkpt lat="40.09578712340193" lon="9.553409547623996"><ele>698.6666666666666</ele><time>2026-04-04T12:51:50.999Z</time></trkpt><trkpt lat="40.09595650913689" lon="9.553436381309789"><ele>698.0</ele><time>2026-04-04T12:51:51.999Z</time></trkpt><trkpt lat="40.09611322367439" lon="9.553490475491182"><ele>698.0</ele><time>2026-04-04T12:51:52.999Z</time></trkpt><trkpt lat="40.096243162561215" lon="9.553572305893859"><ele>698.0</ele><time>2026-04-04T12:51:53.999Z</time></trkpt><trkpt lat="40.09633295048786" lon="9.553738601100763"><ele>698.0</ele><time>2026-04-04T12:51:54.999Z</time></trkpt><trkpt lat="40.096438036480706" lon="9.553917041998115"><ele>699.6666666666666</ele><time>2026-04-04T12:51:55.999Z</time></trkpt><trkpt lat="40.09655954524196" lon="9.554123003595965"><ele>701.3333333333334</ele><time>2026-04-04T12:51:56.999Z</time></trkpt><trkpt lat="40.09668162367375" lon="9.55433249467027"><ele>703.0</ele><time>2026-04-04T12:51:57.999Z</time></trkpt><trkpt lat="40.09680409182229" lon="9.554528925099739"><ele>704.6666666666667</ele><time>2026-04-04T12:51:58.999Z</time></trkpt><trkpt lat="40.09693382361481" lon="9.55473471112617"><ele>706.3333333333334</ele><time>2026-04-04T12:51:59.999Z</time></trkpt><trkpt lat="40.09705008787861" lon="9.554937682652492"><ele>708.0</ele><time>2026-04-04T12:52:00.999Z</time></trkpt><trkpt lat="40.09713579426114" lon="9.555127707545243"><ele>708.0</ele><time>2026-04-04T12:52:01.999Z</time></trkpt><trkpt lat="40.097200022003484" lon="9.555332183325469"><ele>708.0</ele><time>2026-04-04T12:52:02.999Z</time></trkpt><trkpt lat="40.09723607828078" lon="9.555572399961852"><ele>708.0</ele><time>2026-04-04T12:52:03.999Z</time></trkpt><trkpt lat="40.0972504433244" lon="9.555852752266071"><ele>710.5</ele><time>2026-04-04T12:52:04.999Z</time></trkpt><trkpt lat="40.09726604738968" lon="9.556151656600742"><ele>713.0</ele><time>2026-04-04T12:52:05.999Z</time></trkpt><trkpt lat="40.09728936422897" lon="9.55646829903656"><ele>714.3333333333333</ele><time>2026-04-04T12:52:06.999Z</time></trkpt><trkpt lat="40.097312723363636" lon="9.556764359593151"><ele>715.6666666666666</ele><time>2026-04-04T12:52:07.999Z</time></trkpt><trkpt lat="40.097334438344646" lon="9.557024658778241"><ele>717.0</ele><time>2026-04-04T12:52:08.999Z</time></trkpt><trkpt lat="40.097346233719925" lon="9.557265288394461"><ele>717.0</ele><time>2026-04-04T12:52:09.999Z</time></trkpt><trkpt lat="40.09732123019913" lon="9.557499588348533"><ele>717.0</ele><time>2026-04-04T12:52:10.999Z</time></trkpt><trkpt lat="40.09723768102081" lon="9.557733216152876"><ele>717.0</ele><time>2026-04-04T12:52:11.999Z</time></trkpt><trkpt lat="40.097151389834245" lon="9.55799997391714"><ele>716.3333333333334</ele><time>2026-04-04T12:52:12.999Z</time></trkpt><trkpt lat="40.097049674490016" lon="9.55826156260922"><ele>715.6666666666667</ele><time>2026-04-04T12:52:13.999Z</time></trkpt><trkpt lat="40.096965014420896" lon="9.558496806747488"><ele>715.0</ele><time>2026-04-04T12:52:14.999Z</time></trkpt><trkpt lat="40.096919713232765" lon="9.558704797411734"><ele>715.0</ele><time>2026-04-04T12:52:15.999Z</time></trkpt><trkpt lat="40.096922338313675" lon="9.55888802148397"><ele>715.0</ele><time>2026-04-04T12:52:16.999Z</time></trkpt><trkpt lat="40.09698659332957" lon="9.559059001849308"><ele>715.0</ele><time>2026-04-04T12:52:17.999Z</time></trkpt><trkpt lat="40.09708058401227" lon="9.559240988288535"><ele>715.0</ele><time>2026-04-04T12:52:18.999Z</time></trkpt><trkpt lat="40.097184949356034" lon="9.55943851795751"><ele>715.0</ele><time>2026-04-04T12:52:19.999Z</time></trkpt><trkpt lat="40.09727421007887" lon="9.559650289956597"><ele>715.0</ele><time>2026-04-04T12:52:20.999Z</time></trkpt><trkpt lat="40.09733035808703" lon="9.559842477169132"><ele>717.0</ele><time>2026-04-04T12:52:21.999Z</time></trkpt><trkpt lat="40.09735468245045" lon="9.560037806737627"><ele>719.0</ele><time>2026-04-04T12:52:22.999Z</time></trkpt><trkpt lat="40.09730052303005" lon="9.560237190124674"><ele>721.0</ele><time>2026-04-04T12:52:23.999Z</time></trkpt><trkpt lat="40.0972727887282" lon="9.560440108104677"><ele>721.25</ele><time>2026-04-04T12:52:24.999Z</time></trkpt><trkpt lat="40.097255886638564" lon="9.560611499726063"><ele>721.5</ele><time>2026-04-04T12:52:25.999Z</time></trkpt><trkpt lat="40.09728857639275" lon="9.560777959265128"><ele>721.75</ele><time>2026-04-04T12:52:26.999Z</time></trkpt><trkpt lat="40.09738054264603" lon="9.560925126870325"><ele>722.0</ele><time>2026-04-04T12:52:27.999Z</time></trkpt><trkpt lat="40.09751668088627" lon="9.561015050250868"><ele>720.3333333333333</ele><time>2026-04-04T12:52:28.999Z</time></trkpt><trkpt lat="40.0976690554005" lon="9.561048364717548"><ele>718.6666666666666</ele><time>2026-04-04T12:52:29.999Z</time></trkpt><trkpt lat="40.09783692914485" lon="9.561081792777735"><ele>717.0</ele><time>2026-04-04T12:52:30.999Z</time></trkpt><trkpt lat="40.09801314015626" lon="9.561130912166622"><ele>717.0</ele><time>2026-04-04T12:52:31.999Z</time></trkpt><trkpt lat="40.09816937181643" lon="9.561174056630412"><ele>717.0</ele><time>2026-04-04T12:52:32.999Z</time></trkpt><trkpt lat="40.09828016221984" lon="9.561233903941002"><ele>717.0</ele><time>2026-04-04T12:52:33.999Z</time></trkpt><trkpt lat="40.09836226569075" lon="9.561326914452238"><ele>717.0</ele><time>2026-04-04T12:52:34.999Z</time></trkpt><trkpt lat="40.098408879040036" lon="9.561494958946192"><ele>720.0</ele><time>2026-04-04T12:52:35.999Z</time></trkpt><trkpt lat="40.0984641913764" lon="9.561707008088383"><ele>723.0</ele><time>2026-04-04T12:52:36.999Z</time></trkpt><trkpt lat="40.09853993181326" lon="9.561923847813121"><ele>726.0</ele><time>2026-04-04T12:52:37.999Z</time></trkpt><trkpt lat="40.09859827555332" lon="9.562133905259772"><ele>727.0</ele><time>2026-04-04T12:52:38.999Z</time></trkpt><trkpt lat="40.098622408309296" lon="9.562313627726162"><ele>728.0</ele><time>2026-04-04T12:52:39.999Z</time></trkpt><trkpt lat="40.09863405504494" lon="9.562466859638922"><ele>729.0</ele><time>2026-04-04T12:52:40.999Z</time></trkpt><trkpt lat="40.09855902123183" lon="9.56264047680097"><ele>730.0</ele><time>2026-04-04T12:52:41.999Z</time></trkpt><trkpt lat="40.09848713445216" lon="9.562854341048151"><ele>729.0</ele><time>2026-04-04T12:52:42.999Z</time></trkpt><trkpt lat="40.09838929943297" lon="9.563078615242603"><ele>728.0</ele><time>2026-04-04T12:52:43.999Z</time></trkpt><trkpt lat="40.0983046840688" lon="9.563305263862512"><ele>727.0</ele><time>2026-04-04T12:52:44.999Z</time></trkpt><trkpt lat="40.09821982877694" lon="9.56353903759443"><ele>730.3333333333334</ele><time>2026-04-04T12:52:45.999Z</time></trkpt><trkpt lat="40.09812878583157" lon="9.563790209526767"><ele>733.6666666666666</ele><time>2026-04-04T12:52:46.999Z</time></trkpt><trkpt lat="40.09803856333112" lon="9.564026116677805"><ele>737.0</ele><time>2026-04-04T12:52:47.999Z</time></trkpt><trkpt lat="40.09796747141106" lon="9.56421133296426"><ele>737.0</ele><time>2026-04-04T12:52:48.999Z</time></trkpt><trkpt lat="40.09792950626039" lon="9.564366546858006"><ele>737.0</ele><time>2026-04-04T12:52:49.999Z</time></trkpt><trkpt lat="40.097934619834874" lon="9.564509009782274"><ele>737.0</ele><time>2026-04-04T12:52:50.999Z</time></trkpt><trkpt lat="40.09799724390044" lon="9.564628057215888"><ele>737.0</ele><time>2026-04-04T12:52:51.999Z</time></trkpt><trkpt lat="40.09810939729599" lon="9.564729005834025"><ele>736.3333333333333</ele><time>2026-04-04T12:52:52.999Z</time></trkpt><trkpt lat="40.098247141880904" lon="9.56482745883544"><ele>735.6666666666666</ele><time>2026-04-04T12:52:53.999Z</time></trkpt><trkpt lat="40.09839237718757" lon="9.564943302941721"><ele>735.0</ele><time>2026-04-04T12:52:54.999Z</time></trkpt><trkpt lat="40.098539488811326" lon="9.565077446319018"><ele>735.0</ele><time>2026-04-04T12:52:55.999Z</time></trkpt><trkpt lat="40.09868011164231" lon="9.565229690449904"><ele>735.0</ele><time>2026-04-04T12:52:56.999Z</time></trkpt><trkpt lat="40.09876800667899" lon="9.56541407631664"><ele>735.0</ele><time>2026-04-04T12:52:57.999Z</time></trkpt><trkpt lat="40.09883973972718" lon="9.565624623679875"><ele>737.6666666666666</ele><time>2026-04-04T12:52:58.999Z</time></trkpt><trkpt lat="40.09892710853708" lon="9.565856575825627"><ele>740.3333333333333</ele><time>2026-04-04T12:52:59.999Z</time></trkpt><trkpt lat="40.09899898081859" lon="9.566090918303106"><ele>743.0</ele><time>2026-04-04T12:53:00.999Z</time></trkpt><trkpt lat="40.099094073366416" lon="9.566281161650574"><ele>743.0</ele><time>2026-04-04T12:53:01.999Z</time></trkpt><trkpt lat="40.09923223955157" lon="9.566430936966459"><ele>743.0</ele><time>2026-04-04T12:53:02.999Z</time></trkpt><trkpt lat="40.09940274326092" lon="9.566524598162282"><ele>743.0</ele><time>2026-04-04T12:53:03.999Z</time></trkpt><trkpt lat="40.099556288510094" lon="9.566622992831837"><ele>743.0</ele><time>2026-04-04T12:53:04.999Z</time></trkpt><trkpt lat="40.09963822254693" lon="9.566782645440355"><ele>743.0</ele><time>2026-04-04T12:53:05.999Z</time></trkpt><trkpt lat="40.09972595732104" lon="9.566980309658657"><ele>743.0</ele><time>2026-04-04T12:53:06.999Z</time></trkpt><trkpt lat="40.09979468329949" lon="9.567204249316077"><ele>746.3333333333333</ele><time>2026-04-04T12:53:07.999Z</time></trkpt><trkpt lat="40.09982578218181" lon="9.567425098676736"><ele>749.6666666666666</ele><time>2026-04-04T12:53:08.999Z</time></trkpt><trkpt lat="40.09985346752973" lon="9.56761821421898"><ele>753.0</ele><time>2026-04-04T12:53:09.999Z</time></trkpt><trkpt lat="40.09983124817034" lon="9.567791594529883"><ele>752.0</ele><time>2026-04-04T12:53:10.999Z</time></trkpt><trkpt lat="40.09977629834837" lon="9.567959214454259"><ele>751.0</ele><time>2026-04-04T12:53:11.999Z</time></trkpt><trkpt lat="40.0996822788398" lon="9.568090120288478"><ele>750.0</ele><time>2026-04-04T12:53:12.999Z</time></trkpt><trkpt lat="40.09953171060557" lon="9.568223435907932"><ele>750.0</ele><time>2026-04-04T12:53:13.999Z</time></trkpt><trkpt lat="40.099352246162255" lon="9.568363469990864"><ele>750.0</ele><time>2026-04-04T12:53:14.999Z</time></trkpt><trkpt lat="40.099157424194985" lon="9.568511262863314"><ele>750.0</ele><time>2026-04-04T12:53:15.999Z</time></trkpt><trkpt lat="40.09896231971772" lon="9.568677695708107"><ele>753.5</ele><time>2026-04-04T12:53:16.999Z</time></trkpt><trkpt lat="40.09874266300813" lon="9.568844677867357"><ele>757.0</ele><time>2026-04-04T12:53:17.999Z</time></trkpt><trkpt lat="40.09854305191012" lon="9.569003300308742"><ele>757.0</ele><time>2026-04-04T12:53:18.999Z</time></trkpt><trkpt lat="40.098358302829965" lon="9.569197910613076"><ele>757.0</ele><time>2026-04-04T12:53:19.999Z</time></trkpt><trkpt lat="40.09819620837239" lon="9.569441395670196"><ele>762.0</ele><time>2026-04-04T12:53:20.999Z</time></trkpt><trkpt lat="40.09805734169092" lon="9.569726080389225"><ele>767.0</ele><time>2026-04-04T12:53:21.999Z</time></trkpt><trkpt lat="40.097915435511716" lon="9.570020165677853"><ele>767.0</ele><time>2026-04-04T12:53:22.999Z</time></trkpt><trkpt lat="40.09777664400155" lon="9.570307836939826"><ele>767.0</ele><time>2026-04-04T12:53:23.999Z</time></trkpt><trkpt lat="40.0976688265453" lon="9.57059526682292"><ele>760.0</ele><time>2026-04-04T12:53:24.999Z</time></trkpt><trkpt lat="40.09759868068394" lon="9.570911740408686"><ele>753.0</ele><time>2026-04-04T12:53:25.999Z</time></trkpt><trkpt lat="40.09754289903064" lon="9.571207477103933"><ele>751.6666666666666</ele><time>2026-04-04T12:53:26.999Z</time></trkpt><trkpt lat="40.0974928550169" lon="9.571454695083803"><ele>750.3333333333333</ele><time>2026-04-04T12:53:27.999Z</time></trkpt><trkpt lat="40.09747084622653" lon="9.571665700466488"><ele>749.0</ele><time>2026-04-04T12:53:28.999Z</time></trkpt><trkpt lat="40.097488693580864" lon="9.57186843742651"><ele>749.3333333333333</ele><time>2026-04-04T12:53:29.999Z</time></trkpt><trkpt lat="40.097553854514445" lon="9.57206245874921"><ele>749.6666666666666</ele><time>2026-04-04T12:53:30.999Z</time></trkpt><trkpt lat="40.097652765633015" lon="9.572245012009207"><ele>750.0</ele><time>2026-04-04T12:53:31.999Z</time></trkpt><trkpt lat="40.09771924762895" lon="9.572408511017295"><ele>750.0</ele><time>2026-04-04T12:53:32.999Z</time></trkpt><trkpt lat="40.09768763219118" lon="9.572611187065725"><ele>750.0</ele><time>2026-04-04T12:53:33.999Z</time></trkpt><trkpt lat="40.09766780937164" lon="9.57285633929933"><ele>750.0</ele><time>2026-04-04T12:53:34.999Z</time></trkpt><trkpt lat="40.09764396920032" lon="9.573104842441335"><ele>752.0</ele><time>2026-04-04T12:53:35.999Z</time></trkpt><trkpt lat="40.09760715400103" lon="9.573310284719119"><ele>754.0</ele><time>2026-04-04T12:53:36.999Z</time></trkpt><trkpt lat="40.097524429021036" lon="9.573485049680636"><ele>756.0</ele><time>2026-04-04T12:53:37.999Z</time></trkpt><trkpt lat="40.09740547354362" lon="9.573655438747066"><ele>752.3333333333334</ele><time>2026-04-04T12:53:38.999Z</time></trkpt><trkpt lat="40.09727101520131" lon="9.573838602210932"><ele>748.6666666666667</ele><time>2026-04-04T12:53:39.999Z</time></trkpt><trkpt lat="40.097166761024866" lon="9.574008149136372"><ele>745.0</ele><time>2026-04-04T12:53:40.999Z</time></trkpt><trkpt lat="40.09710412490814" lon="9.574138559287396"><ele>745.0</ele><time>2026-04-04T12:53:41.999Z</time></trkpt><trkpt lat="40.09710222719215" lon="9.574284368872515"><ele>745.0</ele><time>2026-04-04T12:53:42.999Z</time></trkpt><trkpt lat="40.09716247274672" lon="9.57441357908626"><ele>745.0</ele><time>2026-04-04T12:53:43.999Z</time></trkpt><trkpt lat="40.097270467778294" lon="9.574513229134958"><ele>745.0</ele><time>2026-04-04T12:53:44.999Z</time></trkpt><trkpt lat="40.097424419567446" lon="9.574570919485211"><ele>746.6666666666667</ele><time>2026-04-04T12:53:45.999Z</time></trkpt><trkpt lat="40.09758780145444" lon="9.574642748553117"><ele>748.3333333333334</ele><time>2026-04-04T12:53:46.999Z</time></trkpt><trkpt lat="40.097766070363484" lon="9.574714627539295"><ele>750.0</ele><time>2026-04-04T12:53:47.999Z</time></trkpt><trkpt lat="40.09795258822115" lon="9.574769921747356"><ele>750.0</ele><time>2026-04-04T12:53:48.999Z</time></trkpt><trkpt lat="40.09817301510819" lon="9.574869692498089"><ele>750.0</ele><time>2026-04-04T12:53:49.999Z</time></trkpt><trkpt lat="40.098386677058144" lon="9.574996267609206"><ele>752.0</ele><time>2026-04-04T12:53:50.999Z</time></trkpt><trkpt lat="40.09858912676108" lon="9.575122061964528"><ele>754.0</ele><time>2026-04-04T12:53:51.999Z</time></trkpt><trkpt lat="40.09874919263133" lon="9.575229207147414"><ele>756.0</ele><time>2026-04-04T12:53:52.999Z</time></trkpt><trkpt lat="40.09886077934998" lon="9.575359178044176"><ele>756.0</ele><time>2026-04-04T12:53:53.999Z</time></trkpt><trkpt lat="40.09893501447227" lon="9.575521688276135"><ele>756.0</ele><time>2026-04-04T12:53:54.999Z</time></trkpt><trkpt lat="40.099035682350305" lon="9.575724381824427"><ele>756.0</ele><time>2026-04-04T12:53:55.999Z</time></trkpt><trkpt lat="40.09913490829311" lon="9.575918941519147"><ele>760.0</ele><time>2026-04-04T12:53:56.999Z</time></trkpt><trkpt lat="40.099244104927514" lon="9.576069821623484"><ele>764.0</ele><time>2026-04-04T12:53:57.999Z</time></trkpt><trkpt lat="40.09937656449056" lon="9.576206571000954"><ele>768.0</ele><time>2026-04-04T12:53:58.999Z</time></trkpt><trkpt lat="40.099530998554634" lon="9.576299702279918"><ele>760.6666666666666</ele><time>2026-04-04T12:53:59.999Z</time></trkpt><trkpt lat="40.09967104819659" lon="9.576333291964605"><ele>753.3333333333333</ele><time>2026-04-04T12:54:00.999Z</time></trkpt><trkpt lat="40.09982361427713" lon="9.57631609537113"><ele>746.0</ele><time>2026-04-04T12:54:01.999Z</time></trkpt><trkpt lat="40.099998076125814" lon="9.576251107321411"><ele>755.0</ele><time>2026-04-04T12:54:02.999Z</time></trkpt><trkpt lat="40.10019502857982" lon="9.576161938881405"><ele>764.0</ele><time>2026-04-04T12:54:03.999Z</time></trkpt><trkpt lat="40.100413202423" lon="9.576092641676704"><ele>773.0</ele><time>2026-04-04T12:54:04.999Z</time></trkpt><trkpt lat="40.1006480580707" lon="9.576088214004116"><ele>772.0</ele><time>2026-04-04T12:54:05.999Z</time></trkpt><trkpt lat="40.1008393183956" lon="9.576068599163728"><ele>771.0</ele><time>2026-04-04T12:54:06.999Z</time></trkpt><trkpt lat="40.10099452187593" lon="9.576052827511406"><ele>770.0</ele><time>2026-04-04T12:54:07.999Z</time></trkpt><trkpt lat="40.10109744458429" lon="9.576054592970243"><ele>770.0</ele><time>2026-04-04T12:54:08.999Z</time></trkpt><trkpt lat="40.101147313104384" lon="9.576118007969535"><ele>770.0</ele><time>2026-04-04T12:54:09.999Z</time></trkpt><trkpt lat="40.101161477900334" lon="9.576219256661826"><ele>770.0</ele><time>2026-04-04T12:54:10.999Z</time></trkpt><trkpt lat="40.10111867818064" lon="9.576323599944965"><ele>770.0</ele><time>2026-04-04T12:54:11.999Z</time></trkpt><trkpt lat="40.101056031333975" lon="9.57642082032436"><ele>770.0</ele><time>2026-04-04T12:54:12.999Z</time></trkpt><trkpt lat="40.10099124054075" lon="9.576596307459102"><ele>765.6666666666667</ele><time>2026-04-04T12:54:13.999Z</time></trkpt><trkpt lat="40.100934977979534" lon="9.576793589390237"><ele>761.3333333333334</ele><time>2026-04-04T12:54:14.999Z</time></trkpt><trkpt lat="40.10091446486966" lon="9.577020349608349"><ele>757.0</ele><time>2026-04-04T12:54:15.999Z</time></trkpt><trkpt lat="40.100939913554946" lon="9.577252777703508"><ele>752.0</ele><time>2026-04-04T12:54:16.999Z</time></trkpt><trkpt lat="40.100983267674536" lon="9.57744657206093"><ele>747.0</ele><time>2026-04-04T12:54:17.999Z</time></trkpt><trkpt lat="40.10107272160991" lon="9.57760414419868"><ele>742.0</ele><time>2026-04-04T12:54:18.999Z</time></trkpt><trkpt lat="40.101207639180075" lon="9.577737425619732"><ele>742.0</ele><time>2026-04-04T12:54:19.999Z</time></trkpt><trkpt lat="40.10137319722725" lon="9.577844117969494"><ele>742.0</ele><time>2026-04-04T12:54:20.999Z</time></trkpt><trkpt lat="40.101559496604416" lon="9.577928452204622"><ele>742.0</ele><time>2026-04-04T12:54:21.999Z</time></trkpt><trkpt lat="40.10171686805182" lon="9.57798129100544"><ele>742.5</ele><time>2026-04-04T12:54:22.999Z</time></trkpt><trkpt lat="40.10182524557729" lon="9.578066279012235"><ele>743.0</ele><time>2026-04-04T12:54:23.999Z</time></trkpt><trkpt lat="40.10190270370059" lon="9.578178454771484"><ele>743.5</ele><time>2026-04-04T12:54:24.999Z</time></trkpt><trkpt lat="40.10192805800497" lon="9.578339984542582"><ele>744.0</ele><time>2026-04-04T12:54:25.999Z</time></trkpt><trkpt lat="40.10194141268052" lon="9.578524878206968"><ele>740.6666666666666</ele><time>2026-04-04T12:54:26.999Z</time></trkpt><trkpt lat="40.101919197834164" lon="9.578738149462144"><ele>737.3333333333333</ele><time>2026-04-04T12:54:27.999Z</time></trkpt><trkpt lat="40.101870500397574" lon="9.578972066928193"><ele>734.0</ele><time>2026-04-04T12:54:28.999Z</time></trkpt><trkpt lat="40.10182190492117" lon="9.579211659811731"><ele>734.0</ele><time>2026-04-04T12:54:29.999Z</time></trkpt><trkpt lat="40.10180573691456" lon="9.579416722225934"><ele>734.0</ele><time>2026-04-04T12:54:30.999Z</time></trkpt><trkpt lat="40.101803560438064" lon="9.579620128601258"><ele>734.0</ele><time>2026-04-04T12:54:31.999Z</time></trkpt><trkpt lat="40.10185250689779" lon="9.579845508875854"><ele>731.75</ele><time>2026-04-04T12:54:32.999Z</time></trkpt><trkpt lat="40.10192065078779" lon="9.580031688968624"><ele>729.5</ele><time>2026-04-04T12:54:33.999Z</time></trkpt><trkpt lat="40.10199211684026" lon="9.580159564663688"><ele>727.25</ele><time>2026-04-04T12:54:34.999Z</time></trkpt><trkpt lat="40.10207091645715" lon="9.5802325260322"><ele>725.0</ele><time>2026-04-04T12:54:35.999Z</time></trkpt><trkpt lat="40.10216899222802" lon="9.58025170756647"><ele>725.0</ele><time>2026-04-04T12:54:36.999Z</time></trkpt><trkpt lat="40.10229128833952" lon="9.580209352019766"><ele>725.0</ele><time>2026-04-04T12:54:37.999Z</time></trkpt><trkpt lat="40.10244083436301" lon="9.580118533940158"><ele>725.0</ele><time>2026-04-04T12:54:38.999Z</time></trkpt><trkpt lat="40.10260509214568" lon="9.580046916323587"><ele>731.3333333333333</ele><time>2026-04-04T12:54:39.999Z</time></trkpt><trkpt lat="40.10280584288999" lon="9.580047907585769"><ele>737.6666666666666</ele><time>2026-04-04T12:54:40.999Z</time></trkpt><trkpt lat="40.103011777767804" lon="9.580000266628609"><ele>744.0</ele><time>2026-04-04T12:54:41.999Z</time></trkpt><trkpt lat="40.103212782426105" lon="9.5799530970936"><ele>742.3333333333334</ele><time>2026-04-04T12:54:42.999Z</time></trkpt><trkpt lat="40.10341580318142" lon="9.579938419120898"><ele>740.6666666666667</ele><time>2026-04-04T12:54:43.999Z</time></trkpt><trkpt lat="40.10363512765501" lon="9.579950905886987"><ele>739.0</ele><time>2026-04-04T12:54:44.999Z</time></trkpt><trkpt lat="40.103818185954246" lon="9.57999213869974"><ele>739.0</ele><time>2026-04-04T12:54:45.999Z</time></trkpt><trkpt lat="40.10397601529323" lon="9.580067734117863"><ele>739.0</ele><time>2026-04-04T12:54:46.999Z</time></trkpt><trkpt lat="40.10413778964942" lon="9.580156596385702"><ele>739.0</ele><time>2026-04-04T12:54:47.999Z</time></trkpt><trkpt lat="40.10424876658405" lon="9.580247616797815"><ele>735.25</ele><time>2026-04-04T12:54:48.999Z</time></trkpt><trkpt lat="40.10429940667522" lon="9.58039354517058"><ele>731.5</ele><time>2026-04-04T12:54:49.999Z</time></trkpt><trkpt lat="40.104356759995085" lon="9.580557758253518"><ele>727.75</ele><time>2026-04-04T12:54:50.999Z</time></trkpt><trkpt lat="40.104459436237136" lon="9.580695959620893"><ele>724.0</ele><time>2026-04-04T12:54:51.999Z</time></trkpt><trkpt lat="40.10457301780066" lon="9.580821350685298"><ele>724.0</ele><time>2026-04-04T12:54:52.999Z</time></trkpt><trkpt lat="40.10472365918463" lon="9.580894430693844"><ele>724.0</ele><time>2026-04-04T12:54:53.999Z</time></trkpt><trkpt lat="40.10490075072071" lon="9.580940245967614"><ele>724.0</ele><time>2026-04-04T12:54:54.999Z</time></trkpt><trkpt lat="40.10505883871956" lon="9.58097179522108"><ele>724.8000000000001</ele><time>2026-04-04T12:54:55.999Z</time></trkpt><trkpt lat="40.10516739504418" lon="9.581034704737075"><ele>725.6</ele><time>2026-04-04T12:54:56.999Z</time></trkpt><trkpt lat="40.105241031292834" lon="9.58110883721071"><ele>726.4</ele><time>2026-04-04T12:54:57.999Z</time></trkpt><trkpt lat="40.10526155326791" lon="9.58122837847247"><ele>727.2</ele><time>2026-04-04T12:54:58.999Z</time></trkpt><trkpt lat="40.105213799168304" lon="9.581355269614383"><ele>728.0</ele><time>2026-04-04T12:54:59.999Z</time></trkpt><trkpt lat="40.105180573784246" lon="9.581559980733884"><ele>728.0</ele><time>2026-04-04T12:55:00.999Z</time></trkpt><trkpt lat="40.10514007661351" lon="9.581793236634963"><ele>728.0</ele><time>2026-04-04T12:55:01.999Z</time></trkpt><trkpt lat="40.10508259774669" lon="9.582008542341251"><ele>728.0</ele><time>2026-04-04T12:55:02.999Z</time></trkpt><trkpt lat="40.104967072510625" lon="9.582157231821059"><ele>722.6666666666666</ele><time>2026-04-04T12:55:03.999Z</time></trkpt><trkpt lat="40.10483363152426" lon="9.582344994629421"><ele>717.3333333333334</ele><time>2026-04-04T12:55:04.999Z</time></trkpt><trkpt lat="40.104722681957426" lon="9.58251133357442"><ele>712.0</ele><time>2026-04-04T12:55:05.999Z</time></trkpt><trkpt lat="40.104605340789156" lon="9.582580617209521"><ele>712.0</ele><time>2026-04-04T12:55:06.999Z</time></trkpt><trkpt lat="40.104492193908534" lon="9.582539663204331"><ele>712.0</ele><time>2026-04-04T12:55:07.999Z</time></trkpt><trkpt lat="40.104363574252176" lon="9.582579665019763"><ele>712.0</ele><time>2026-04-04T12:55:08.999Z</time></trkpt><trkpt lat="40.10422277164263" lon="9.58264041571248"><ele>712.0</ele><time>2026-04-04T12:55:09.999Z</time></trkpt><trkpt lat="40.10408896092813" lon="9.582800702091772"><ele>711.0</ele><time>2026-04-04T12:55:10.999Z</time></trkpt><trkpt lat="40.10394357591964" lon="9.582969334196994"><ele>710.0</ele><time>2026-04-04T12:55:11.999Z</time></trkpt><trkpt lat="40.10378337294543" lon="9.583134087747878"><ele>709.0</ele><time>2026-04-04T12:55:12.999Z</time></trkpt><trkpt lat="40.103626850204165" lon="9.583317749296803"><ele>709.0</ele><time>2026-04-04T12:55:13.999Z</time></trkpt><trkpt lat="40.10344817780052" lon="9.583468557129333"><ele>709.0</ele><time>2026-04-04T12:55:14.999Z</time></trkpt><trkpt lat="40.103298903074" lon="9.583587534068458"><ele>709.0</ele><time>2026-04-04T12:55:15.999Z</time></trkpt><trkpt lat="40.103184936756755" lon="9.583684336767998"><ele>702.0</ele><time>2026-04-04T12:55:16.999Z</time></trkpt><trkpt lat="40.10310570157265" lon="9.583801648059314"><ele>695.0</ele><time>2026-04-04T12:55:17.999Z</time></trkpt><trkpt lat="40.10308158884686" lon="9.583947753882292"><ele>688.0</ele><time>2026-04-04T12:55:18.999Z</time></trkpt><trkpt lat="40.103103959564834" lon="9.584110324306291"><ele>681.0</ele><time>2026-04-04T12:55:19.999Z</time></trkpt><trkpt lat="40.10317208424291" lon="9.584277682925814"><ele>683.6666666666666</ele><time>2026-04-04T12:55:20.999Z</time></trkpt><trkpt lat="40.103281823196966" lon="9.584425715376426"><ele>686.3333333333333</ele><time>2026-04-04T12:55:21.999Z</time></trkpt><trkpt lat="40.1034324632056" lon="9.584530346352057"><ele>689.0</ele><time>2026-04-04T12:55:22.999Z</time></trkpt><trkpt lat="40.10359042861872" lon="9.584636799321316"><ele>689.0</ele><time>2026-04-04T12:55:23.999Z</time></trkpt><trkpt lat="40.103723762551965" lon="9.584783250458297"><ele>689.0</ele><time>2026-04-04T12:55:24.999Z</time></trkpt><trkpt lat="40.10381813778066" lon="9.58494285572854"><ele>689.0</ele><time>2026-04-04T12:55:25.999Z</time></trkpt><trkpt lat="40.103857135378504" lon="9.585126758074995"><ele>689.0</ele><time>2026-04-04T12:55:26.999Z</time></trkpt><trkpt lat="40.103910026524524" lon="9.585327400690415"><ele>689.0</ele><time>2026-04-04T12:55:27.999Z</time></trkpt><trkpt lat="40.10391624044662" lon="9.58551627688892"><ele>689.0</ele><time>2026-04-04T12:55:28.999Z</time></trkpt><trkpt lat="40.10388981820008" lon="9.58567798614942"><ele>689.0</ele><time>2026-04-04T12:55:29.999Z</time></trkpt><trkpt lat="40.10381983657134" lon="9.58581069745044"><ele>685.25</ele><time>2026-04-04T12:55:30.999Z</time></trkpt><trkpt lat="40.10372942595437" lon="9.585912629593063"><ele>681.5</ele><time>2026-04-04T12:55:31.999Z</time></trkpt><trkpt lat="40.10366754770943" lon="9.586025608646635"><ele>677.75</ele><time>2026-04-04T12:55:32.999Z</time></trkpt><trkpt lat="40.103699686754304" lon="9.586162578951438"><ele>674.0</ele><time>2026-04-04T12:55:33.999Z</time></trkpt><trkpt lat="40.10377897866011" lon="9.586306826290368"><ele>673.75</ele><time>2026-04-04T12:55:34.999Z</time></trkpt><trkpt lat="40.103845393161095" lon="9.586469213989536"><ele>673.5</ele><time>2026-04-04T12:55:35.999Z</time></trkpt><trkpt lat="40.10387150473068" lon="9.586658235223029"><ele>673.25</ele><time>2026-04-04T12:55:36.999Z</time></trkpt><trkpt lat="40.10383654469441" lon="9.58686248817903"><ele>673.0</ele><time>2026-04-04T12:55:37.999Z</time></trkpt><trkpt lat="40.10376679434933" lon="9.587039642008447"><ele>673.75</ele><time>2026-04-04T12:55:38.999Z</time></trkpt><trkpt lat="40.103677443913675" lon="9.587195086134559"><ele>674.5</ele><time>2026-04-04T12:55:39.999Z</time></trkpt><trkpt lat="40.10363217347815" lon="9.587356551750956"><ele>675.25</ele><time>2026-04-04T12:55:40.999Z</time></trkpt><trkpt lat="40.103629011699674" lon="9.58751910387748"><ele>676.0</ele><time>2026-04-04T12:55:41.999Z</time></trkpt><trkpt lat="40.103680208756884" lon="9.587694262692702"><ele>675.5</ele><time>2026-04-04T12:55:42.999Z</time></trkpt><trkpt lat="40.10375490275822" lon="9.587862454912452"><ele>675.0</ele><time>2026-04-04T12:55:43.999Z</time></trkpt><trkpt lat="40.103808461243354" lon="9.588009949055191"><ele>674.5</ele><time>2026-04-04T12:55:44.999Z</time></trkpt><trkpt lat="40.10380948451399" lon="9.588161816225703"><ele>674.0</ele><time>2026-04-04T12:55:45.999Z</time></trkpt><trkpt lat="40.10374211563766" lon="9.588323991080216"><ele>674.0</ele><time>2026-04-04T12:55:46.999Z</time></trkpt><trkpt lat="40.103667509486286" lon="9.588499588616026"><ele>674.0</ele><time>2026-04-04T12:55:47.999Z</time></trkpt><trkpt lat="40.103625146028" lon="9.588707096981809"><ele>674.0</ele><time>2026-04-04T12:55:48.999Z</time></trkpt><trkpt lat="40.103640907222506" lon="9.58894431016626"><ele>676.3333333333333</ele><time>2026-04-04T12:55:49.999Z</time></trkpt><trkpt lat="40.103664158140774" lon="9.589156975539881"><ele>678.6666666666666</ele><time>2026-04-04T12:55:50.999Z</time></trkpt><trkpt lat="40.10365133177441" lon="9.589345948918568"><ele>681.0</ele><time>2026-04-04T12:55:51.999Z</time></trkpt><trkpt lat="40.10357395298786" lon="9.589513959001307"><ele>687.6666666666666</ele><time>2026-04-04T12:55:52.999Z</time></trkpt><trkpt lat="40.103453089039554" lon="9.589688015926875"><ele>694.3333333333333</ele><time>2026-04-04T12:55:53.999Z</time></trkpt><trkpt lat="40.10331641713917" lon="9.589878602596192"><ele>701.0</ele><time>2026-04-04T12:55:54.999Z</time></trkpt><trkpt lat="40.1031919590698" lon="9.590087835824775"><ele>695.3333333333333</ele><time>2026-04-04T12:55:55.999Z</time></trkpt><trkpt lat="40.10306785616469" lon="9.590299492299952"><ele>689.6666666666666</ele><time>2026-04-04T12:55:56.999Z</time></trkpt><trkpt lat="40.10293486695512" lon="9.590526542781275"><ele>684.0</ele><time>2026-04-04T12:55:57.999Z</time></trkpt><trkpt lat="40.10278529437247" lon="9.590756369878193"><ele>684.0</ele><time>2026-04-04T12:55:59Z</time></trkpt><trkpt lat="40.102638904213016" lon="9.59095564133925"><ele>684.0</ele><time>2026-04-04T12:56:00Z</time></trkpt><trkpt lat="40.10249662465839" lon="9.591130377440038"><ele>684.0</ele><time>2026-04-04T12:56:01Z</time></trkpt><trkpt lat="40.10238413403485" lon="9.591305940319492"><ele>681.0</ele><time>2026-04-04T12:56:02Z</time></trkpt><trkpt lat="40.102314939874965" lon="9.591486458946873"><ele>678.0</ele><time>2026-04-04T12:56:03Z</time></trkpt><trkpt lat="40.10226603561715" lon="9.591638908974597"><ele>675.0</ele><time>2026-04-04T12:56:04Z</time></trkpt><trkpt lat="40.10217937782204" lon="9.59175201739882"><ele>672.0</ele><time>2026-04-04T12:56:05Z</time></trkpt><trkpt lat="40.102032013998425" lon="9.591817427252844"><ele>672.0</ele><time>2026-04-04T12:56:06Z</time></trkpt><trkpt lat="40.10186761982718" lon="9.591901683837422"><ele>672.0</ele><time>2026-04-04T12:56:07Z</time></trkpt><trkpt lat="40.10172502312185" lon="9.592075019681662"><ele>672.0</ele><time>2026-04-04T12:56:08Z</time></trkpt><trkpt lat="40.1015926145979" lon="9.59231728758939"><ele>667.5</ele><time>2026-04-04T12:56:09Z</time></trkpt><trkpt lat="40.10145773785847" lon="9.592575358466641"><ele>663.0</ele><time>2026-04-04T12:56:10Z</time></trkpt><trkpt lat="40.10131110682605" lon="9.592841585353078"><ele>678.0</ele><time>2026-04-04T12:56:11Z</time></trkpt><trkpt lat="40.10115504039382" lon="9.59305963776316"><ele>693.0</ele><time>2026-04-04T12:56:12Z</time></trkpt><trkpt lat="40.10100134350878" lon="9.59326744015628"><ele>693.0</ele><time>2026-04-04T12:56:13Z</time></trkpt><trkpt lat="40.100859141290236" lon="9.593466528217881"><ele>693.0</ele><time>2026-04-04T12:56:14Z</time></trkpt><trkpt lat="40.100688346395714" lon="9.593631730828866"><ele>693.0</ele><time>2026-04-04T12:56:15Z</time></trkpt><trkpt lat="40.100539102492256" lon="9.593811774061717"><ele>693.3333333333334</ele><time>2026-04-04T12:56:16Z</time></trkpt><trkpt lat="40.10036427919649" lon="9.593957289131883"><ele>693.6666666666667</ele><time>2026-04-04T12:56:17Z</time></trkpt><trkpt lat="40.100175607129486" lon="9.594083562293024"><ele>694.0</ele><time>2026-04-04T12:56:18Z</time></trkpt><trkpt lat="40.09996448898668" lon="9.594197798984547"><ele>698.0</ele><time>2026-04-04T12:56:19Z</time></trkpt><trkpt lat="40.09975831191837" lon="9.594328639191355"><ele>702.0</ele><time>2026-04-04T12:56:20Z</time></trkpt><trkpt lat="40.099562098133354" lon="9.594456992366938"><ele>706.0</ele><time>2026-04-04T12:56:21Z</time></trkpt><trkpt lat="40.099369037322695" lon="9.594585002256952"><ele>706.0</ele><time>2026-04-04T12:56:22Z</time></trkpt><trkpt lat="40.09919235090034" lon="9.594704962024245"><ele>706.0</ele><time>2026-04-04T12:56:23Z</time></trkpt><trkpt lat="40.09902790852161" lon="9.594812578145941"><ele>706.0</ele><time>2026-04-04T12:56:24Z</time></trkpt><trkpt lat="40.09887560222648" lon="9.594948428714991"><ele>700.6666666666667</ele><time>2026-04-04T12:56:25Z</time></trkpt><trkpt lat="40.09875457756089" lon="9.595117680697715"><ele>695.3333333333334</ele><time>2026-04-04T12:56:26Z</time></trkpt><trkpt lat="40.098653499213235" lon="9.595320171548146"><ele>690.0</ele><time>2026-04-04T12:56:27Z</time></trkpt><trkpt lat="40.09856800657998" lon="9.595546880611286"><ele>690.0</ele><time>2026-04-04T12:56:28Z</time></trkpt><trkpt lat="40.09847984062124" lon="9.595786069345627"><ele>690.0</ele><time>2026-04-04T12:56:29Z</time></trkpt><trkpt lat="40.09839631125859" lon="9.595998398078606"><ele>690.0</ele><time>2026-04-04T12:56:30Z</time></trkpt><trkpt lat="40.09831421394334" lon="9.596152577799728"><ele>693.75</ele><time>2026-04-04T12:56:31Z</time></trkpt><trkpt lat="40.098225593736856" lon="9.596287503701557"><ele>697.5</ele><time>2026-04-04T12:56:32Z</time></trkpt><trkpt lat="40.098113830346804" lon="9.596386149550044"><ele>701.25</ele><time>2026-04-04T12:56:33Z</time></trkpt><trkpt lat="40.09797582225414" lon="9.596424813774329"><ele>705.0</ele><time>2026-04-04T12:56:34Z</time></trkpt><trkpt lat="40.09781674754317" lon="9.596426438438868"><ele>705.0</ele><time>2026-04-04T12:56:35Z</time></trkpt><trkpt lat="40.09764378828676" lon="9.596443477118152"><ele>705.0</ele><time>2026-04-04T12:56:36Z</time></trkpt><trkpt lat="40.097445832456344" lon="9.59640901611773"><ele>705.0</ele><time>2026-04-04T12:56:37Z</time></trkpt><trkpt lat="40.09723071571768" lon="9.596397459095902"><ele>707.0</ele><time>2026-04-04T12:56:38Z</time></trkpt><trkpt lat="40.097005239066426" lon="9.596392537497843"><ele>709.0</ele><time>2026-04-04T12:56:39Z</time></trkpt><trkpt lat="40.096769294844265" lon="9.59634433153171"><ele>710.0</ele><time>2026-04-04T12:56:40Z</time></trkpt><trkpt lat="40.09654101719223" lon="9.596339144486533"><ele>711.0</ele><time>2026-04-04T12:56:41Z</time></trkpt><trkpt lat="40.0963118779532" lon="9.596316735348331"><ele>711.0</ele><time>2026-04-04T12:56:42Z</time></trkpt><trkpt lat="40.09607140866694" lon="9.596297621367787"><ele>711.0</ele><time>2026-04-04T12:56:43Z</time></trkpt><trkpt lat="40.09584147461038" lon="9.596276613302516"><ele>710.6666666666666</ele><time>2026-04-04T12:56:44Z</time></trkpt><trkpt lat="40.095631670968295" lon="9.596235344894087"><ele>710.3333333333333</ele><time>2026-04-04T12:56:45Z</time></trkpt><trkpt lat="40.09543158934493" lon="9.596216407713989"><ele>710.0</ele><time>2026-04-04T12:56:46Z</time></trkpt><trkpt lat="40.09522780339353" lon="9.5962285496669"><ele>710.0</ele><time>2026-04-04T12:56:47Z</time></trkpt><trkpt lat="40.09501531882226" lon="9.596273804054137"><ele>710.0</ele><time>2026-04-04T12:56:48Z</time></trkpt><trkpt lat="40.09480407094107" lon="9.596344827124868"><ele>710.0</ele><time>2026-04-04T12:56:49Z</time></trkpt><trkpt lat="40.09458862953547" lon="9.596408393315603"><ele>704.0</ele><time>2026-04-04T12:56:50Z</time></trkpt><trkpt lat="40.094378076558264" lon="9.596453712401152"><ele>698.0</ele><time>2026-04-04T12:56:51Z</time></trkpt><trkpt lat="40.094197663900346" lon="9.596535229028468"><ele>692.0</ele><time>2026-04-04T12:56:52Z</time></trkpt><trkpt lat="40.09402380318495" lon="9.59660416171699"><ele>693.3333333333333</ele><time>2026-04-04T12:56:53Z</time></trkpt><trkpt lat="40.09385799536184" lon="9.596700630751595"><ele>694.6666666666666</ele><time>2026-04-04T12:56:54Z</time></trkpt><trkpt lat="40.09367963011118" lon="9.596833076471945"><ele>696.0</ele><time>2026-04-04T12:56:55Z</time></trkpt><trkpt lat="40.09351820888141" lon="9.597009933970535"><ele>696.0</ele><time>2026-04-04T12:56:56Z</time></trkpt><trkpt lat="40.09335610835846" lon="9.59720526031597"><ele>696.0</ele><time>2026-04-04T12:56:57Z</time></trkpt><trkpt lat="40.093197745648176" lon="9.597430932107526"><ele>697.5</ele><time>2026-04-04T12:56:58Z</time></trkpt><trkpt lat="40.09303959443507" lon="9.597654171443017"><ele>699.0</ele><time>2026-04-04T12:56:59Z</time></trkpt><trkpt lat="40.09286775198789" lon="9.59784894409632"><ele>699.0</ele><time>2026-04-04T12:57:00Z</time></trkpt><trkpt lat="40.092657433384595" lon="9.598002320625476"><ele>699.0</ele><time>2026-04-04T12:57:01Z</time></trkpt><trkpt lat="40.092427479020294" lon="9.598138634933193"><ele>685.0</ele><time>2026-04-04T12:57:02Z</time></trkpt><trkpt lat="40.09218266012212" lon="9.598282143471273"><ele>671.0</ele><time>2026-04-04T12:57:03Z</time></trkpt><trkpt lat="40.091926887993054" lon="9.598443328359757"><ele>671.0</ele><time>2026-04-04T12:57:04Z</time></trkpt><trkpt lat="40.09168335155076" lon="9.598605378879897"><ele>671.0</ele><time>2026-04-04T12:57:05Z</time></trkpt><trkpt lat="40.09146223724053" lon="9.598751253737706"><ele>682.5</ele><time>2026-04-04T12:57:06Z</time></trkpt><trkpt lat="40.09125827374381" lon="9.598889604754234"><ele>694.0</ele><time>2026-04-04T12:57:07Z</time></trkpt><trkpt lat="40.09105642886135" lon="9.599004137486542"><ele>694.0</ele><time>2026-04-04T12:57:08Z</time></trkpt><trkpt lat="40.090849548923494" lon="9.599073616002359"><ele>694.0</ele><time>2026-04-04T12:57:09Z</time></trkpt><trkpt lat="40.090630898654474" lon="9.599112828415798"><ele>694.0</ele><time>2026-04-04T12:57:10Z</time></trkpt><trkpt lat="40.09043487410486" lon="9.599174759445186"><ele>695.3333333333334</ele><time>2026-04-04T12:57:11Z</time></trkpt><trkpt lat="40.090264631803024" lon="9.59926704507892"><ele>696.6666666666666</ele><time>2026-04-04T12:57:12Z</time></trkpt><trkpt lat="40.090094761255564" lon="9.599390858758083"><ele>698.0</ele><time>2026-04-04T12:57:13Z</time></trkpt><trkpt lat="40.08993525445655" lon="9.599553047920267"><ele>687.6666666666666</ele><time>2026-04-04T12:57:14Z</time></trkpt><trkpt lat="40.089784283055415" lon="9.599747247288633"><ele>677.3333333333334</ele><time>2026-04-04T12:57:15Z</time></trkpt><trkpt lat="40.08960698913799" lon="9.59994795133809"><ele>667.0</ele><time>2026-04-04T12:57:16Z</time></trkpt><trkpt lat="40.08944575003981" lon="9.60015531848976"><ele>667.0</ele><time>2026-04-04T12:57:17Z</time></trkpt><trkpt lat="40.089269612786545" lon="9.600364871237687"><ele>667.0</ele><time>2026-04-04T12:57:18Z</time></trkpt><trkpt lat="40.089070348862236" lon="9.600563800864675"><ele>667.0</ele><time>2026-04-04T12:57:19Z</time></trkpt><trkpt lat="40.088869593759185" lon="9.600776561061583"><ele>667.0</ele><time>2026-04-04T12:57:20Z</time></trkpt><trkpt lat="40.088657504563194" lon="9.60098584489773"><ele>681.0</ele><time>2026-04-04T12:57:21Z</time></trkpt><trkpt lat="40.088444761179794" lon="9.60119564291279"><ele>695.0</ele><time>2026-04-04T12:57:22Z</time></trkpt><trkpt lat="40.08830170468239" lon="9.601425463647683"><ele>677.5</ele><time>2026-04-04T12:57:23Z</time></trkpt><trkpt lat="40.08803467833014" lon="9.601539414180417"><ele>660.0</ele><time>2026-04-04T12:57:24Z</time></trkpt><trkpt lat="40.08780814945356" lon="9.601737862128523"><ele>660.0</ele><time>2026-04-04T12:57:25Z</time></trkpt><trkpt lat="40.08761998265716" lon="9.601946228461134"><ele>660.0</ele><time>2026-04-04T12:57:26Z</time></trkpt><trkpt lat="40.08744239097807" lon="9.602129858357797"><ele>661.0</ele><time>2026-04-04T12:57:27Z</time></trkpt><trkpt lat="40.08726968262294" lon="9.602289252446086"><ele>662.0</ele><time>2026-04-04T12:57:28Z</time></trkpt><trkpt lat="40.0870960720804" lon="9.602459591029698"><ele>663.0</ele><time>2026-04-04T12:57:29Z</time></trkpt><trkpt lat="40.08694477056557" lon="9.60263376629358"><ele>663.0</ele><time>2026-04-04T12:57:30Z</time></trkpt><trkpt lat="40.0868025499654" lon="9.602748005183676"><ele>663.0</ele><time>2026-04-04T12:57:31Z</time></trkpt><trkpt lat="40.08668862610699" lon="9.602848433127475"><ele>663.0</ele><time>2026-04-04T12:57:32Z</time></trkpt><trkpt lat="40.08657577627126" lon="9.602909900501697"><ele>663.0</ele><time>2026-04-04T12:57:33Z</time></trkpt><trkpt lat="40.08647460797514" lon="9.6029317963704"><ele>662.2</ele><time>2026-04-04T12:57:34Z</time></trkpt><trkpt lat="40.08639993161406" lon="9.602943669879702"><ele>661.4</ele><time>2026-04-04T12:57:35Z</time></trkpt><trkpt lat="40.08631524021863" lon="9.602835856391323"><ele>660.6</ele><time>2026-04-04T12:57:36Z</time></trkpt><trkpt lat="40.086235772539" lon="9.602732757477948"><ele>659.8000000000001</ele><time>2026-04-04T12:57:37Z</time></trkpt><trkpt lat="40.08611480700784" lon="9.602681400661089"><ele>659.0</ele><time>2026-04-04T12:57:38Z</time></trkpt><trkpt lat="40.08596949851757" lon="9.602674475129492"><ele>659.0</ele><time>2026-04-04T12:57:39Z</time></trkpt><trkpt lat="40.08580619803087" lon="9.602744259978225"><ele>659.0</ele><time>2026-04-04T12:57:40Z</time></trkpt><trkpt lat="40.08566419335908" lon="9.602844103536038"><ele>659.0</ele><time>2026-04-04T12:57:41Z</time></trkpt><trkpt lat="40.08552769221932" lon="9.602934165122507"><ele>671.0</ele><time>2026-04-04T12:57:42Z</time></trkpt><trkpt lat="40.08538743771249" lon="9.602972042020273"><ele>683.0</ele><time>2026-04-04T12:57:43Z</time></trkpt><trkpt lat="40.08521936946866" lon="9.602998237434146"><ele>695.0</ele><time>2026-04-04T12:57:44Z</time></trkpt><trkpt lat="40.0850668857465" lon="9.602944417208668"><ele>688.0</ele><time>2026-04-04T12:57:45Z</time></trkpt><trkpt lat="40.08492664466555" lon="9.602777334264394"><ele>681.0</ele><time>2026-04-04T12:57:46Z</time></trkpt><trkpt lat="40.08475782415757" lon="9.60268100988133"><ele>674.0</ele><time>2026-04-04T12:57:47Z</time></trkpt><trkpt lat="40.084583535897146" lon="9.6025920950135"><ele>674.0</ele><time>2026-04-04T12:57:48Z</time></trkpt><trkpt lat="40.084413611662164" lon="9.602500614374732"><ele>674.0</ele><time>2026-04-04T12:57:49Z</time></trkpt><trkpt lat="40.08425052611049" lon="9.602430500591819"><ele>674.0</ele><time>2026-04-04T12:57:50Z</time></trkpt><trkpt lat="40.084121579714804" lon="9.602367613964198"><ele>671.75</ele><time>2026-04-04T12:57:51Z</time></trkpt><trkpt lat="40.084024494638136" lon="9.602277536658463"><ele>669.5</ele><time>2026-04-04T12:57:52Z</time></trkpt><trkpt lat="40.08396362993815" lon="9.602109951446899"><ele>667.25</ele><time>2026-04-04T12:57:53Z</time></trkpt><trkpt lat="40.08387797057219" lon="9.601916570281073"><ele>665.0</ele><time>2026-04-04T12:57:54Z</time></trkpt><trkpt lat="40.083796231518086" lon="9.601771808744019"><ele>662.5</ele><time>2026-04-04T12:57:55Z</time></trkpt><trkpt lat="40.08368545222397" lon="9.601671958100855"><ele>660.0</ele><time>2026-04-04T12:57:56Z</time></trkpt><trkpt lat="40.083558068520354" lon="9.60163868510314"><ele>657.5</ele><time>2026-04-04T12:57:57Z</time></trkpt><trkpt lat="40.08342342587157" lon="9.60165282707535"><ele>655.0</ele><time>2026-04-04T12:57:58Z</time></trkpt><trkpt lat="40.0832857248326" lon="9.601727267506424"><ele>655.75</ele><time>2026-04-04T12:57:59Z</time></trkpt><trkpt lat="40.08316760956159" lon="9.601852570212568"><ele>656.5</ele><time>2026-04-04T12:58:00Z</time></trkpt><trkpt lat="40.08304129228677" lon="9.601939923050567"><ele>657.25</ele><time>2026-04-04T12:58:01Z</time></trkpt><trkpt lat="40.08291084919535" lon="9.601962644180952"><ele>658.0</ele><time>2026-04-04T12:58:02Z</time></trkpt><trkpt lat="40.08274311907736" lon="9.601907086964278"><ele>658.0</ele><time>2026-04-04T12:58:03Z</time></trkpt><trkpt lat="40.082562103036295" lon="9.601840288369491"><ele>658.0</ele><time>2026-04-04T12:58:04Z</time></trkpt><trkpt lat="40.08238250963262" lon="9.601813834024492"><ele>658.0</ele><time>2026-04-04T12:58:05Z</time></trkpt><trkpt lat="40.0821867197214" lon="9.601841613407876"><ele>657.3333333333334</ele><time>2026-04-04T12:58:06Z</time></trkpt><trkpt lat="40.081977087171026" lon="9.60195580395892"><ele>656.6666666666666</ele><time>2026-04-04T12:58:07Z</time></trkpt><trkpt lat="40.081815198632775" lon="9.602076076407547"><ele>656.0</ele><time>2026-04-04T12:58:08Z</time></trkpt><trkpt lat="40.08168622706179" lon="9.602176868322953"><ele>658.0</ele><time>2026-04-04T12:58:09Z</time></trkpt><trkpt lat="40.081581816208995" lon="9.602231533413295"><ele>660.0</ele><time>2026-04-04T12:58:10Z</time></trkpt><trkpt lat="40.08147018443781" lon="9.602229748927343"><ele>662.0</ele><time>2026-04-04T12:58:11Z</time></trkpt><trkpt lat="40.08135880451967" lon="9.602162543849493"><ele>664.0</ele><time>2026-04-04T12:58:12Z</time></trkpt><trkpt lat="40.08125001677313" lon="9.602045952549943"><ele>664.0</ele><time>2026-04-04T12:58:13Z</time></trkpt><trkpt lat="40.08111072931865" lon="9.602015233610635"><ele>664.0</ele><time>2026-04-04T12:58:14Z</time></trkpt><trkpt lat="40.08094649245785" lon="9.602055088587862"><ele>664.0</ele><time>2026-04-04T12:58:15Z</time></trkpt><trkpt lat="40.08077586043134" lon="9.602138337860227"><ele>667.6666666666667</ele><time>2026-04-04T12:58:16Z</time></trkpt><trkpt lat="40.08060150017318" lon="9.60221480187941"><ele>671.3333333333334</ele><time>2026-04-04T12:58:17Z</time></trkpt><trkpt lat="40.0804442205254" lon="9.602252225485799"><ele>675.0</ele><time>2026-04-04T12:58:18Z</time></trkpt><trkpt lat="40.0803000939319" lon="9.602220267403737"><ele>675.0</ele><time>2026-04-04T12:58:19Z</time></trkpt><trkpt lat="40.080148303776305" lon="9.602150992709353"><ele>675.0</ele><time>2026-04-04T12:58:20Z</time></trkpt><trkpt lat="40.07997442983593" lon="9.602121388752481"><ele>675.0</ele><time>2026-04-04T12:58:21Z</time></trkpt><trkpt lat="40.07978481106121" lon="9.60214606371058"><ele>678.3333333333334</ele><time>2026-04-04T12:58:22Z</time></trkpt><trkpt lat="40.0795818420896" lon="9.602194028755939"><ele>681.6666666666667</ele><time>2026-04-04T12:58:23Z</time></trkpt><trkpt lat="40.07936646825193" lon="9.602268055435088"><ele>685.0</ele><time>2026-04-04T12:58:24Z</time></trkpt><trkpt lat="40.079152229567164" lon="9.602365093895793"><ele>690.6666666666667</ele><time>2026-04-04T12:58:25Z</time></trkpt><trkpt lat="40.078958094866266" lon="9.60247808110612"><ele>696.3333333333334</ele><time>2026-04-04T12:58:26Z</time></trkpt><trkpt lat="40.07879685033736" lon="9.602589758728545"><ele>702.0</ele><time>2026-04-04T12:58:27Z</time></trkpt><trkpt lat="40.07866854712653" lon="9.602716078089019"><ele>699.3333333333334</ele><time>2026-04-04T12:58:28Z</time></trkpt><trkpt lat="40.078567394725454" lon="9.602884768885936"><ele>696.6666666666667</ele><time>2026-04-04T12:58:29Z</time></trkpt><trkpt lat="40.078484541123416" lon="9.603087303837793"><ele>694.0</ele><time>2026-04-04T12:58:30Z</time></trkpt><trkpt lat="40.078422511419824" lon="9.603326874846552"><ele>694.0</ele><time>2026-04-04T12:58:31Z</time></trkpt><trkpt lat="40.078359187646825" lon="9.603584571536446"><ele>694.0</ele><time>2026-04-04T12:58:32Z</time></trkpt><trkpt lat="40.078289955568614" lon="9.603842107655943"><ele>694.0</ele><time>2026-04-04T12:58:33Z</time></trkpt><trkpt lat="40.07823555144183" lon="9.604080733725732"><ele>698.5</ele><time>2026-04-04T12:58:34Z</time></trkpt><trkpt lat="40.07819946814145" lon="9.604290311907013"><ele>703.0</ele><time>2026-04-04T12:58:35Z</time></trkpt><trkpt lat="40.07817254549848" lon="9.60448004555631"><ele>707.5</ele><time>2026-04-04T12:58:36Z</time></trkpt><trkpt lat="40.07812917361246" lon="9.604626818498168"><ele>712.0</ele><time>2026-04-04T12:58:37Z</time></trkpt><trkpt lat="40.078050855956434" lon="9.604721234360538"><ele>712.0</ele><time>2026-04-04T12:58:38Z</time></trkpt><trkpt lat="40.07795872173042" lon="9.60475271067934"><ele>712.0</ele><time>2026-04-04T12:58:39Z</time></trkpt><trkpt lat="40.07787488938027" lon="9.604703114722836"><ele>712.0</ele><time>2026-04-04T12:58:40Z</time></trkpt><trkpt lat="40.07780598673717" lon="9.60460358425752"><ele>712.0</ele><time>2026-04-04T12:58:41Z</time></trkpt><trkpt lat="40.077793184566524" lon="9.604459155469788"><ele>712.0</ele><time>2026-04-04T12:58:42Z</time></trkpt><trkpt lat="40.07783239686047" lon="9.604315370297835"><ele>712.0</ele><time>2026-04-04T12:58:43Z</time></trkpt><trkpt lat="40.077900811395644" lon="9.604162096355385"><ele>712.0</ele><time>2026-04-04T12:58:44Z</time></trkpt><trkpt lat="40.077968917099014" lon="9.603979867991143"><ele>712.0</ele><time>2026-04-04T12:58:45Z</time></trkpt><trkpt lat="40.07801578630591" lon="9.60379474663267"><ele>712.0</ele><time>2026-04-04T12:58:46Z</time></trkpt><trkpt lat="40.07802490220668" lon="9.603632263880131"><ele>712.0</ele><time>2026-04-04T12:58:47Z</time></trkpt><trkpt lat="40.077989224636674" lon="9.603457085324706"><ele>712.0</ele><time>2026-04-04T12:58:48Z</time></trkpt><trkpt lat="40.077914864389854" lon="9.603254973283425"><ele>712.0</ele><time>2026-04-04T12:58:49Z</time></trkpt><trkpt lat="40.07784653547406" lon="9.603033051820299"><ele>712.0</ele><time>2026-04-04T12:58:50Z</time></trkpt><trkpt lat="40.07778480604299" lon="9.602797143945741"><ele>712.0</ele><time>2026-04-04T12:58:51Z</time></trkpt><trkpt lat="40.07772871676702" lon="9.60259796641797"><ele>712.0</ele><time>2026-04-04T12:58:52Z</time></trkpt><trkpt lat="40.07767247380848" lon="9.602454340021332"><ele>712.0</ele><time>2026-04-04T12:58:53Z</time></trkpt><trkpt lat="40.07758712318076" lon="9.602363718122714"><ele>712.0</ele><time>2026-04-04T12:58:54Z</time></trkpt><trkpt lat="40.0774786480179" lon="9.602325676158127"><ele>712.0</ele><time>2026-04-04T12:58:55Z</time></trkpt><trkpt lat="40.07735949503923" lon="9.60234371514716"><ele>712.0</ele><time>2026-04-04T12:58:56Z</time></trkpt><trkpt lat="40.07725601793361" lon="9.602415692125032"><ele>709.6666666666667</ele><time>2026-04-04T12:58:57Z</time></trkpt><trkpt lat="40.07718493103526" lon="9.602556661874662"><ele>707.3333333333334</ele><time>2026-04-04T12:58:58Z</time></trkpt><trkpt lat="40.0771313485278" lon="9.602741964503025"><ele>705.0</ele><time>2026-04-04T12:58:59Z</time></trkpt><trkpt lat="40.07709428305779" lon="9.602963746254595"><ele>705.0</ele><time>2026-04-04T12:59:00Z</time></trkpt><trkpt lat="40.077047964484834" lon="9.603188373953564"><ele>705.0</ele><time>2026-04-04T12:59:01Z</time></trkpt><trkpt lat="40.07698748925337" lon="9.60336590137724"><ele>705.0</ele><time>2026-04-04T12:59:02Z</time></trkpt><trkpt lat="40.076878029392184" lon="9.60350949948727"><ele>705.0</ele><time>2026-04-04T12:59:03Z</time></trkpt><trkpt lat="40.076728035870424" lon="9.6036323651195"><ele>705.0</ele><time>2026-04-04T12:59:04Z</time></trkpt><trkpt lat="40.07654226373628" lon="9.603754183130471"><ele>705.0</ele><time>2026-04-04T12:59:05Z</time></trkpt><trkpt lat="40.07636330165132" lon="9.60388073326499"><ele>706.0</ele><time>2026-04-04T12:59:06Z</time></trkpt><trkpt lat="40.076185262775525" lon="9.604017574576467"><ele>707.0</ele><time>2026-04-04T12:59:07Z</time></trkpt><trkpt lat="40.07600271089484" lon="9.604187172054285"><ele>708.0</ele><time>2026-04-04T12:59:08Z</time></trkpt><trkpt lat="40.07583531534332" lon="9.604377591891168"><ele>709.6666666666666</ele><time>2026-04-04T12:59:09Z</time></trkpt><trkpt lat="40.07568391109049" lon="9.604549684185587"><ele>711.3333333333333</ele><time>2026-04-04T12:59:10Z</time></trkpt><trkpt lat="40.075518815501454" lon="9.604676141324436"><ele>713.0</ele><time>2026-04-04T12:59:11Z</time></trkpt><trkpt lat="40.075318001549164" lon="9.604759889819524"><ele>713.0</ele><time>2026-04-04T12:59:12Z</time></trkpt><trkpt lat="40.075119955759014" lon="9.604850296101912"><ele>713.0</ele><time>2026-04-04T12:59:13Z</time></trkpt><trkpt lat="40.07494629785145" lon="9.604960841387332"><ele>713.0</ele><time>2026-04-04T12:59:14Z</time></trkpt><trkpt lat="40.07480293051316" lon="9.60511253476551"><ele>710.6666666666666</ele><time>2026-04-04T12:59:15Z</time></trkpt><trkpt lat="40.074668998963325" lon="9.605313225256548"><ele>708.3333333333334</ele><time>2026-04-04T12:59:16Z</time></trkpt><trkpt lat="40.07453443064843" lon="9.60555304967822"><ele>706.0</ele><time>2026-04-04T12:59:17Z</time></trkpt><trkpt lat="40.074389453217556" lon="9.605782647971203"><ele>706.0</ele><time>2026-04-04T12:59:18Z</time></trkpt><trkpt lat="40.074260527595946" lon="9.605990730468797"><ele>706.0</ele><time>2026-04-04T12:59:19Z</time></trkpt><trkpt lat="40.07416142425665" lon="9.606194894700522"><ele>706.0</ele><time>2026-04-04T12:59:20Z</time></trkpt><trkpt lat="40.07409935294992" lon="9.606416512240715"><ele>702.0</ele><time>2026-04-04T12:59:21Z</time></trkpt><trkpt lat="40.07406616096489" lon="9.606675637738018"><ele>698.0</ele><time>2026-04-04T12:59:22Z</time></trkpt><trkpt lat="40.07404946897051" lon="9.606956400895395"><ele>694.0</ele><time>2026-04-04T12:59:23Z</time></trkpt><trkpt lat="40.07402701143592" lon="9.607218644094504"><ele>694.0</ele><time>2026-04-04T12:59:24Z</time></trkpt><trkpt lat="40.07399390836178" lon="9.607450854548578"><ele>694.0</ele><time>2026-04-04T12:59:25Z</time></trkpt><trkpt lat="40.07394527521745" lon="9.607649682102892"><ele>694.0</ele><time>2026-04-04T12:59:26Z</time></trkpt><trkpt lat="40.07385515917805" lon="9.607809430970326"><ele>699.6666666666667</ele><time>2026-04-04T12:59:27Z</time></trkpt><trkpt lat="40.073731631137896" lon="9.607953656365243"><ele>705.3333333333334</ele><time>2026-04-04T12:59:28Z</time></trkpt><trkpt lat="40.073592051956986" lon="9.608095083520308"><ele>711.0</ele><time>2026-04-04T12:59:29Z</time></trkpt><trkpt lat="40.07343194479041" lon="9.608226987351461"><ele>711.0</ele><time>2026-04-04T12:59:30Z</time></trkpt><trkpt lat="40.07328300785751" lon="9.608362191427723"><ele>711.0</ele><time>2026-04-04T12:59:31Z</time></trkpt><trkpt lat="40.07317818914537" lon="9.608531549069415"><ele>711.0</ele><time>2026-04-04T12:59:32Z</time></trkpt><trkpt lat="40.073117595742545" lon="9.608718605507697"><ele>710.25</ele><time>2026-04-04T12:59:33Z</time></trkpt><trkpt lat="40.073109332600396" lon="9.60892087890649"><ele>709.5</ele><time>2026-04-04T12:59:34Z</time></trkpt><trkpt lat="40.0731049118124" lon="9.609114976736453"><ele>708.75</ele><time>2026-04-04T12:59:35Z</time></trkpt><trkpt lat="40.073044684688476" lon="9.609262779391488"><ele>708.0</ele><time>2026-04-04T12:59:36Z</time></trkpt><trkpt lat="40.07296505910945" lon="9.609413693833893"><ele>708.0</ele><time>2026-04-04T12:59:37Z</time></trkpt><trkpt lat="40.072849993196186" lon="9.609508974241265"><ele>708.0</ele><time>2026-04-04T12:59:38Z</time></trkpt><trkpt lat="40.07272270824129" lon="9.609548089573028"><ele>708.0</ele><time>2026-04-04T12:59:39Z</time></trkpt><trkpt lat="40.0725826857043" lon="9.609492052734021"><ele>708.0</ele><time>2026-04-04T12:59:40Z</time></trkpt><trkpt lat="40.07241472610893" lon="9.60946450657701"><ele>707.6666666666666</ele><time>2026-04-04T12:59:41Z</time></trkpt><trkpt lat="40.07223609201835" lon="9.609432902229903"><ele>707.3333333333333</ele><time>2026-04-04T12:59:42Z</time></trkpt><trkpt lat="40.072043373206284" lon="9.609458513525636"><ele>707.0</ele><time>2026-04-04T12:59:43Z</time></trkpt><trkpt lat="40.07184638407926" lon="9.609548905543086"><ele>713.3333333333333</ele><time>2026-04-04T12:59:44Z</time></trkpt><trkpt lat="40.07166546640507" lon="9.609641286144212"><ele>719.6666666666666</ele><time>2026-04-04T12:59:45Z</time></trkpt><trkpt lat="40.0714743534973" lon="9.609655486755763"><ele>726.0</ele><time>2026-04-04T12:59:46Z</time></trkpt><trkpt lat="40.071292057008414" lon="9.609640701074813"><ele>726.0</ele><time>2026-04-04T12:59:47Z</time></trkpt><trkpt lat="40.07111165129216" lon="9.609567686013479"><ele>726.0</ele><time>2026-04-04T12:59:48Z</time></trkpt><trkpt lat="40.070933119689535" lon="9.6094727405744"><ele>726.0</ele><time>2026-04-04T12:59:49Z</time></trkpt><trkpt lat="40.07077063633708" lon="9.609413726332196"><ele>719.0</ele><time>2026-04-04T12:59:50Z</time></trkpt><trkpt lat="40.0706195810712" lon="9.60938067039564"><ele>712.0</ele><time>2026-04-04T12:59:51Z</time></trkpt><trkpt lat="40.07045775468403" lon="9.60941134902756"><ele>705.0</ele><time>2026-04-04T12:59:52Z</time></trkpt><trkpt lat="40.07026441892306" lon="9.60947049666938"><ele>708.5</ele><time>2026-04-04T12:59:53Z</time></trkpt><trkpt lat="40.07006132154242" lon="9.609586939192631"><ele>712.0</ele><time>2026-04-04T12:59:54Z</time></trkpt><trkpt lat="40.06985142407115" lon="9.609714738062037"><ele>712.0</ele><time>2026-04-04T12:59:55Z</time></trkpt><trkpt lat="40.0696248595079" lon="9.60981495562714"><ele>712.0</ele><time>2026-04-04T12:59:56Z</time></trkpt><trkpt lat="40.069434643924154" lon="9.609903372046027"><ele>712.0</ele><time>2026-04-04T12:59:57Z</time></trkpt><trkpt lat="40.069284053649085" lon="9.609987559000125"><ele>712.0</ele><time>2026-04-04T12:59:58Z</time></trkpt><trkpt lat="40.069177039836184" lon="9.610094429936032"><ele>712.0</ele><time>2026-04-04T12:59:59Z</time></trkpt><trkpt lat="40.0690948926214" lon="9.61024772744589"><ele>712.0</ele><time>2026-04-04T13:00:00Z</time></trkpt><trkpt lat="40.069004582099886" lon="9.61041593509235"><ele>712.0</ele><time>2026-04-04T13:00:01Z</time></trkpt><trkpt lat="40.06887191958794" lon="9.610544908157184"><ele>712.0</ele><time>2026-04-04T13:00:02Z</time></trkpt><trkpt lat="40.068713335262245" lon="9.610621769834694"><ele>712.0</ele><time>2026-04-04T13:00:03Z</time></trkpt><trkpt lat="40.068587556166186" lon="9.610663592239783"><ele>712.0</ele><time>2026-04-04T13:00:04Z</time></trkpt><trkpt lat="40.06849823525957" lon="9.610784315304405"><ele>712.0</ele><time>2026-04-04T13:00:05Z</time></trkpt><trkpt lat="40.068441297728576" lon="9.610970260308735"><ele>713.0</ele><time>2026-04-04T13:00:06Z</time></trkpt><trkpt lat="40.06836617502531" lon="9.611162615265325"><ele>714.0</ele><time>2026-04-04T13:00:07Z</time></trkpt><trkpt lat="40.06824657192008" lon="9.611320141310177"><ele>715.0</ele><time>2026-04-04T13:00:08Z</time></trkpt><trkpt lat="40.06809424964843" lon="9.611422955600403"><ele>715.0</ele><time>2026-04-04T13:00:09Z</time></trkpt><trkpt lat="40.06792138789856" lon="9.61150336707716"><ele>715.0</ele><time>2026-04-04T13:00:10Z</time></trkpt><trkpt lat="40.06771900287196" lon="9.611567765129456"><ele>715.0</ele><time>2026-04-04T13:00:11Z</time></trkpt><trkpt lat="40.06751168302669" lon="9.611649248632382"><ele>711.3333333333334</ele><time>2026-04-04T13:00:12Z</time></trkpt><trkpt lat="40.06732805755786" lon="9.61174652776806"><ele>707.6666666666666</ele><time>2026-04-04T13:00:13Z</time></trkpt><trkpt lat="40.06718929222877" lon="9.611841925079885"><ele>704.0</ele><time>2026-04-04T13:00:14Z</time></trkpt><trkpt lat="40.06706518411437" lon="9.611858635641166"><ele>704.0</ele><time>2026-04-04T13:00:15Z</time></trkpt><trkpt lat="40.06692084981886" lon="9.611870631543663"><ele>704.0</ele><time>2026-04-04T13:00:16Z</time></trkpt><trkpt lat="40.06675137190596" lon="9.61188747623194"><ele>704.0</ele><time>2026-04-04T13:00:17Z</time></trkpt><trkpt lat="40.06657509560323" lon="9.611999880282983"><ele>709.6666666666666</ele><time>2026-04-04T13:00:18Z</time></trkpt><trkpt lat="40.06638551429886" lon="9.612115843698215"><ele>715.3333333333334</ele><time>2026-04-04T13:00:19Z</time></trkpt><trkpt lat="40.066170253026776" lon="9.61219256014452"><ele>721.0</ele><time>2026-04-04T13:00:20Z</time></trkpt><trkpt lat="40.06595478284035" lon="9.61225284052858"><ele>720.3333333333334</ele><time>2026-04-04T13:00:21Z</time></trkpt><trkpt lat="40.065758515224516" lon="9.612350035370348"><ele>719.6666666666666</ele><time>2026-04-04T13:00:22Z</time></trkpt><trkpt lat="40.06560587821779" lon="9.612432238147035"><ele>719.0</ele><time>2026-04-04T13:00:23Z</time></trkpt><trkpt lat="40.06547203300774" lon="9.612488029993209"><ele>719.0</ele><time>2026-04-04T13:00:24Z</time></trkpt><trkpt lat="40.06533824345231" lon="9.612490066424616"><ele>719.0</ele><time>2026-04-04T13:00:25Z</time></trkpt><trkpt lat="40.065209230986746" lon="9.612398897833229"><ele>719.0</ele><time>2026-04-04T13:00:26Z</time></trkpt><trkpt lat="40.06506148049268" lon="9.612360485285482"><ele>719.0</ele><time>2026-04-04T13:00:27Z</time></trkpt><trkpt lat="40.064897291859786" lon="9.612335986059502"><ele>720.0</ele><time>2026-04-04T13:00:28Z</time></trkpt><trkpt lat="40.064701313430696" lon="9.612369416686908"><ele>721.0</ele><time>2026-04-04T13:00:29Z</time></trkpt><trkpt lat="40.064486235920214" lon="9.612428088145029"><ele>722.0</ele><time>2026-04-04T13:00:30Z</time></trkpt><trkpt lat="40.06427653998561" lon="9.612476930288365"><ele>722.6666666666666</ele><time>2026-04-04T13:00:31Z</time></trkpt><trkpt lat="40.06407005998477" lon="9.612509661937402"><ele>723.3333333333334</ele><time>2026-04-04T13:00:32Z</time></trkpt><trkpt lat="40.063864012550646" lon="9.612546797810733"><ele>724.0</ele><time>2026-04-04T13:00:33Z</time></trkpt><trkpt lat="40.06368302626031" lon="9.61259696562656"><ele>724.0</ele><time>2026-04-04T13:00:34Z</time></trkpt><trkpt lat="40.063514222196254" lon="9.612672678624769"><ele>724.0</ele><time>2026-04-04T13:00:35Z</time></trkpt><trkpt lat="40.06335202530244" lon="9.612820149836246"><ele>724.0</ele><time>2026-04-04T13:00:36Z</time></trkpt><trkpt lat="40.0631901920244" lon="9.612993018806604"><ele>719.3333333333334</ele><time>2026-04-04T13:00:37Z</time></trkpt><trkpt lat="40.063030782866676" lon="9.613143738848139"><ele>714.6666666666666</ele><time>2026-04-04T13:00:38Z</time></trkpt><trkpt lat="40.06285402402971" lon="9.613224305743552"><ele>710.0</ele><time>2026-04-04T13:00:39Z</time></trkpt><trkpt lat="40.062667473259175" lon="9.613295507888264"><ele>710.0</ele><time>2026-04-04T13:00:40Z</time></trkpt><trkpt lat="40.062488730536195" lon="9.613343735876564"><ele>710.0</ele><time>2026-04-04T13:00:41Z</time></trkpt><trkpt lat="40.06230360907359" lon="9.613354817954095"><ele>710.0</ele><time>2026-04-04T13:00:42Z</time></trkpt><trkpt lat="40.06209810153874" lon="9.613345155075145"><ele>710.0</ele><time>2026-04-04T13:00:43Z</time></trkpt><trkpt lat="40.061876948718016" lon="9.613322731306916"><ele>710.0</ele><time>2026-04-04T13:00:44Z</time></trkpt><trkpt lat="40.06165421460054" lon="9.61328025854512"><ele>710.0</ele><time>2026-04-04T13:00:45Z</time></trkpt><trkpt lat="40.061454735165164" lon="9.613228468107664"><ele>710.0</ele><time>2026-04-04T13:00:46Z</time></trkpt><trkpt lat="40.06129800123095" lon="9.61321764849541"><ele>710.0</ele><time>2026-04-04T13:00:47Z</time></trkpt><trkpt lat="40.06118233502982" lon="9.613219183693776"><ele>710.0</ele><time>2026-04-04T13:00:48Z</time></trkpt><trkpt lat="40.06109103131286" lon="9.613292034037336"><ele>710.0</ele><time>2026-04-04T13:00:49Z</time></trkpt><trkpt lat="40.060995097280916" lon="9.61342601180336"><ele>710.0</ele><time>2026-04-04T13:00:50Z</time></trkpt><trkpt lat="40.060889448305005" lon="9.613603378774723"><ele>710.0</ele><time>2026-04-04T13:00:51Z</time></trkpt><trkpt lat="40.060736820881395" lon="9.61375208857307"><ele>710.0</ele><time>2026-04-04T13:00:52Z</time></trkpt><trkpt lat="40.0605938423482" lon="9.613904056285977"><ele>706.25</ele><time>2026-04-04T13:00:53Z</time></trkpt><trkpt lat="40.060479831861" lon="9.61403055765628"><ele>702.5</ele><time>2026-04-04T13:00:54Z</time></trkpt><trkpt lat="40.060341996309866" lon="9.614070597132917"><ele>698.75</ele><time>2026-04-04T13:00:55Z</time></trkpt><trkpt lat="40.06020148324365" lon="9.614076011407816"><ele>695.0</ele><time>2026-04-04T13:00:56Z</time></trkpt><trkpt lat="40.0600475412993" lon="9.61408676114697"><ele>693.0</ele><time>2026-04-04T13:00:57Z</time></trkpt><trkpt lat="40.05992146741159" lon="9.614151659043612"><ele>691.0</ele><time>2026-04-04T13:00:58Z</time></trkpt><trkpt lat="40.05982596392071" lon="9.614276140501918"><ele>689.0</ele><time>2026-04-04T13:00:59Z</time></trkpt><trkpt lat="40.059750359800844" lon="9.614454816203303"><ele>687.0</ele><time>2026-04-04T13:01:00Z</time></trkpt><trkpt lat="40.0596399267224" lon="9.614591928384948"><ele>687.0</ele><time>2026-04-04T13:01:01Z</time></trkpt><trkpt lat="40.05950797189036" lon="9.614707881442445"><ele>687.0</ele><time>2026-04-04T13:01:02Z</time></trkpt><trkpt lat="40.05936084948444" lon="9.614837787529382"><ele>687.0</ele><time>2026-04-04T13:01:03Z</time></trkpt><trkpt lat="40.059203221462596" lon="9.614930490481779"><ele>686.3333333333334</ele><time>2026-04-04T13:01:04Z</time></trkpt><trkpt lat="40.059023053506046" lon="9.614986624198025"><ele>685.6666666666667</ele><time>2026-04-04T13:01:05Z</time></trkpt><trkpt lat="40.058809115286884" lon="9.615020641799283"><ele>685.0</ele><time>2026-04-04T13:01:06Z</time></trkpt><trkpt lat="40.05860080917569" lon="9.615048906695367"><ele>685.0</ele><time>2026-04-04T13:01:07Z</time></trkpt><trkpt lat="40.058439544959256" lon="9.615068428365579"><ele>685.0</ele><time>2026-04-04T13:01:08Z</time></trkpt><trkpt lat="40.05829121682606" lon="9.615064758832897"><ele>685.0</ele><time>2026-04-04T13:01:09Z</time></trkpt><trkpt lat="40.05813988932112" lon="9.615017142381124"><ele>679.6666666666667</ele><time>2026-04-04T13:01:10Z</time></trkpt><trkpt lat="40.05798605141447" lon="9.61491020782008"><ele>674.3333333333334</ele><time>2026-04-04T13:01:11Z</time></trkpt><trkpt lat="40.05783797025849" lon="9.614779017334344"><ele>669.0</ele><time>2026-04-04T13:01:12Z</time></trkpt><trkpt lat="40.0577274939308" lon="9.6146774678693"><ele>669.0</ele><time>2026-04-04T13:01:13Z</time></trkpt><trkpt lat="40.05760957272291" lon="9.614642717920441"><ele>669.0</ele><time>2026-04-04T13:01:14Z</time></trkpt><trkpt lat="40.057474712683316" lon="9.614661499244432"><ele>669.0</ele><time>2026-04-04T13:01:15Z</time></trkpt><trkpt lat="40.05732477175246" lon="9.614744182975992"><ele>669.0</ele><time>2026-04-04T13:01:16Z</time></trkpt><trkpt lat="40.05717058848051" lon="9.614780776747585"><ele>666.3333333333334</ele><time>2026-04-04T13:01:17Z</time></trkpt><trkpt lat="40.0570220147136" lon="9.614813023322327"><ele>663.6666666666667</ele><time>2026-04-04T13:01:18Z</time></trkpt><trkpt lat="40.05686772420554" lon="9.614762985422946"><ele>661.0</ele><time>2026-04-04T13:01:19Z</time></trkpt><trkpt lat="40.05669463414139" lon="9.614673013332224"><ele>662.0</ele><time>2026-04-04T13:01:20Z</time></trkpt><trkpt lat="40.05651822147235" lon="9.614581582707277"><ele>663.0</ele><time>2026-04-04T13:01:21Z</time></trkpt><trkpt lat="40.05637594363775" lon="9.614543347102"><ele>664.0</ele><time>2026-04-04T13:01:22Z</time></trkpt><trkpt lat="40.05624588467056" lon="9.614566121093645"><ele>664.0</ele><time>2026-04-04T13:01:23Z</time></trkpt><trkpt lat="40.05610362851853" lon="9.614644002323168"><ele>664.0</ele><time>2026-04-04T13:01:24Z</time></trkpt><trkpt lat="40.05593635852594" lon="9.614733381587387"><ele>664.0</ele><time>2026-04-04T13:01:25Z</time></trkpt><trkpt lat="40.05574847092343" lon="9.614840116770027"><ele>668.0</ele><time>2026-04-04T13:01:26Z</time></trkpt><trkpt lat="40.05555841508928" lon="9.615000032122625"><ele>672.0</ele><time>2026-04-04T13:01:27Z</time></trkpt><trkpt lat="40.05537199592726" lon="9.615149663183145"><ele>676.0</ele><time>2026-04-04T13:01:28Z</time></trkpt><trkpt lat="40.055217016110426" lon="9.615260795125186"><ele>674.0</ele><time>2026-04-04T13:01:29Z</time></trkpt><trkpt lat="40.0551039487956" lon="9.615362564371104"><ele>672.0</ele><time>2026-04-04T13:01:30Z</time></trkpt><trkpt lat="40.05504908955761" lon="9.615493230563846"><ele>670.0</ele><time>2026-04-04T13:01:31Z</time></trkpt><trkpt lat="40.05499167454414" lon="9.615616094477001"><ele>668.0</ele><time>2026-04-04T13:01:32Z</time></trkpt><trkpt lat="40.0550105677953" lon="9.61570230711925"><ele>666.0</ele><time>2026-04-04T13:01:33Z</time></trkpt><trkpt lat="40.05513671401789" lon="9.615803673324997"><ele>666.0</ele><time>2026-04-04T13:01:34Z</time></trkpt><trkpt lat="40.05526120759102" lon="9.615842730411167"><ele>666.0</ele><time>2026-04-04T13:01:35Z</time></trkpt><trkpt lat="40.055372708879695" lon="9.615922851997441"><ele>666.0</ele><time>2026-04-04T13:01:36Z</time></trkpt><trkpt lat="40.05549909897201" lon="9.616062623425895"><ele>666.0</ele><time>2026-04-04T13:01:37Z</time></trkpt><trkpt lat="40.05559514437562" lon="9.61622257748358"><ele>669.0</ele><time>2026-04-04T13:01:38Z</time></trkpt><trkpt lat="40.055644860306266" lon="9.616422022102716"><ele>672.0</ele><time>2026-04-04T13:01:39Z</time></trkpt><trkpt lat="40.0557159246404" lon="9.61666572854844"><ele>675.0</ele><time>2026-04-04T13:01:40Z</time></trkpt><trkpt lat="40.05582513939157" lon="9.616904304220279"><ele>667.0</ele><time>2026-04-04T13:01:41Z</time></trkpt><trkpt lat="40.055880571269" lon="9.617114309048103"><ele>659.0</ele><time>2026-04-04T13:01:42Z</time></trkpt><trkpt lat="40.05589875293993" lon="9.617313348939913"><ele>651.0</ele><time>2026-04-04T13:01:43Z</time></trkpt><trkpt lat="40.055909992961965" lon="9.617544708954476"><ele>651.0</ele><time>2026-04-04T13:01:44Z</time></trkpt><trkpt lat="40.05588560838503" lon="9.617795820211832"><ele>651.0</ele><time>2026-04-04T13:01:45Z</time></trkpt><trkpt lat="40.05581760478208" lon="9.618065844237218"><ele>651.0</ele><time>2026-04-04T13:01:46Z</time></trkpt><trkpt lat="40.0557491905822" lon="9.618336804172033"><ele>650.6666666666666</ele><time>2026-04-04T13:01:47Z</time></trkpt><trkpt lat="40.05570433088538" lon="9.618605733096604"><ele>650.3333333333333</ele><time>2026-04-04T13:01:48Z</time></trkpt><trkpt lat="40.05569532178911" lon="9.618810835540824"><ele>650.0</ele><time>2026-04-04T13:01:49Z</time></trkpt><trkpt lat="40.0557224814258" lon="9.61902806395583"><ele>647.6666666666666</ele><time>2026-04-04T13:01:50Z</time></trkpt><trkpt lat="40.05581166742566" lon="9.619180744217324"><ele>645.3333333333334</ele><time>2026-04-04T13:01:51Z</time></trkpt><trkpt lat="40.05591059776417" lon="9.619357783469175"><ele>643.0</ele><time>2026-04-04T13:01:52Z</time></trkpt><trkpt lat="40.056008668422194" lon="9.619572589340654"><ele>643.0</ele><time>2026-04-04T13:01:53Z</time></trkpt><trkpt lat="40.05606885543817" lon="9.619851305511816"><ele>643.0</ele><time>2026-04-04T13:01:54Z</time></trkpt><trkpt lat="40.056132466251334" lon="9.620137129289608"><ele>643.0</ele><time>2026-04-04T13:01:55Z</time></trkpt><trkpt lat="40.05617079392382" lon="9.620417705783803"><ele>643.0</ele><time>2026-04-04T13:01:56Z</time></trkpt><trkpt lat="40.056207951887174" lon="9.620721435925127"><ele>643.0</ele><time>2026-04-04T13:01:57Z</time></trkpt><trkpt lat="40.05628153838105" lon="9.621026419134056"><ele>647.0</ele><time>2026-04-04T13:01:58Z</time></trkpt><trkpt lat="40.05635595023599" lon="9.621337631089222"><ele>651.0</ele><time>2026-04-04T13:01:59Z</time></trkpt><trkpt lat="40.05644730927255" lon="9.621599655181102"><ele>651.0</ele><time>2026-04-04T13:02:00Z</time></trkpt><trkpt lat="40.05652026886006" lon="9.62179669889371"><ele>651.0</ele><time>2026-04-04T13:02:01Z</time></trkpt><trkpt lat="40.05659899476564" lon="9.62195199189089"><ele>651.0</ele><time>2026-04-04T13:02:02Z</time></trkpt><trkpt lat="40.05671497653919" lon="9.622079540761069"><ele>645.0</ele><time>2026-04-04T13:02:03Z</time></trkpt><trkpt lat="40.05683323639295" lon="9.622177886357656"><ele>639.0</ele><time>2026-04-04T13:02:04Z</time></trkpt><trkpt lat="40.05689320903277" lon="9.622322639096652"><ele>633.0</ele><time>2026-04-04T13:02:05Z</time></trkpt><trkpt lat="40.05692106607561" lon="9.622489220985456"><ele>627.0</ele><time>2026-04-04T13:02:06Z</time></trkpt><trkpt lat="40.05691188523104" lon="9.622680201195312"><ele>624.6666666666666</ele><time>2026-04-04T13:02:07Z</time></trkpt><trkpt lat="40.05687179555717" lon="9.62289369325561"><ele>622.3333333333333</ele><time>2026-04-04T13:02:08Z</time></trkpt><trkpt lat="40.05681223106739" lon="9.623141272776335"><ele>620.0</ele><time>2026-04-04T13:02:09Z</time></trkpt><trkpt lat="40.05675811396954" lon="9.623425852060569"><ele>617.3333333333333</ele><time>2026-04-04T13:02:10Z</time></trkpt><trkpt lat="40.056767139659165" lon="9.623698350309379"><ele>614.6666666666666</ele><time>2026-04-04T13:02:11Z</time></trkpt><trkpt lat="40.056749893506726" lon="9.623938062187412"><ele>612.0</ele><time>2026-04-04T13:02:12Z</time></trkpt><trkpt lat="40.05672790256545" lon="9.624154708800276"><ele>612.0</ele><time>2026-04-04T13:02:13Z</time></trkpt><trkpt lat="40.056653795177525" lon="9.624326973167596"><ele>612.0</ele><time>2026-04-04T13:02:14Z</time></trkpt><trkpt lat="40.0565761046739" lon="9.62450588655143"><ele>612.0</ele><time>2026-04-04T13:02:15Z</time></trkpt><trkpt lat="40.05648257356712" lon="9.624653361751902"><ele>608.75</ele><time>2026-04-04T13:02:16Z</time></trkpt><trkpt lat="40.056374047088674" lon="9.624775901710855"><ele>605.5</ele><time>2026-04-04T13:02:17Z</time></trkpt><trkpt lat="40.05626152139613" lon="9.624873195834958"><ele>602.25</ele><time>2026-04-04T13:02:18Z</time></trkpt><trkpt lat="40.05612692094438" lon="9.624932439580695"><ele>599.0</ele><time>2026-04-04T13:02:19Z</time></trkpt><trkpt lat="40.05598384822612" lon="9.624956076990866"><ele>599.0</ele><time>2026-04-04T13:02:20Z</time></trkpt><trkpt lat="40.05582347541847" lon="9.624959038738284"><ele>599.0</ele><time>2026-04-04T13:02:21Z</time></trkpt><trkpt lat="40.05569117936211" lon="9.62493640953814"><ele>599.0</ele><time>2026-04-04T13:02:22Z</time></trkpt><trkpt lat="40.05558567252" lon="9.624852369461093"><ele>599.0</ele><time>2026-04-04T13:02:23Z</time></trkpt><trkpt lat="40.055454979176616" lon="9.624756325531978"><ele>597.75</ele><time>2026-04-04T13:02:24Z</time></trkpt><trkpt lat="40.055319410792634" lon="9.624715154858341"><ele>596.5</ele><time>2026-04-04T13:02:25Z</time></trkpt><trkpt lat="40.055193303980914" lon="9.62468718844577"><ele>595.25</ele><time>2026-04-04T13:02:26Z</time></trkpt><trkpt lat="40.05504223487576" lon="9.62471683374168"><ele>594.0</ele><time>2026-04-04T13:02:27Z</time></trkpt><trkpt lat="40.05492092805358" lon="9.624805878122416"><ele>589.6666666666666</ele><time>2026-04-04T13:02:28Z</time></trkpt><trkpt lat="40.05481372170537" lon="9.624950216595765"><ele>585.3333333333333</ele><time>2026-04-04T13:02:29Z</time></trkpt><trkpt lat="40.05468183730223" lon="9.625166408346008"><ele>581.0</ele><time>2026-04-04T13:02:30Z</time></trkpt><trkpt lat="40.05458061849143" lon="9.625336337602993"><ele>578.3333333333333</ele><time>2026-04-04T13:02:31Z</time></trkpt><trkpt lat="40.054505354422666" lon="9.625523105218166"><ele>575.6666666666666</ele><time>2026-04-04T13:02:32Z</time></trkpt><trkpt lat="40.054444829626796" lon="9.625724455603901"><ele>573.0</ele><time>2026-04-04T13:02:33Z</time></trkpt><trkpt lat="40.054400346666036" lon="9.625901274684354"><ele>573.0</ele><time>2026-04-04T13:02:34Z</time></trkpt><trkpt lat="40.054350051106866" lon="9.626075640080847"><ele>573.0</ele><time>2026-04-04T13:02:35Z</time></trkpt><trkpt lat="40.05432776304668" lon="9.626184235380565"><ele>573.0</ele><time>2026-04-04T13:02:36Z</time></trkpt><trkpt lat="40.05428478462134" lon="9.626335212302232"><ele>573.0</ele><time>2026-04-04T13:02:38Z</time></trkpt><trkpt lat="40.054287547430455" lon="9.62643914430117"><ele>573.0</ele><time>2026-04-04T13:12:02.999Z</time></trkpt><trkpt lat="40.05429961891134" lon="9.626546961836135"><ele>572.8333333333334</ele><time>2026-04-04T13:12:05.999Z</time></trkpt><trkpt lat="40.05430440621173" lon="9.626639012986532"><ele>572.6666666666666</ele><time>2026-04-04T13:12:07.999Z</time></trkpt><trkpt lat="40.05432732546896" lon="9.62673441807676"><ele>572.5</ele><time>2026-04-04T13:12:09Z</time></trkpt><trkpt lat="40.05434843180552" lon="9.626829000681427"><ele>572.3333333333333</ele><time>2026-04-04T13:12:10Z</time></trkpt><trkpt lat="40.05438547193585" lon="9.626974488231339"><ele>572.1666666666666</ele><time>2026-04-04T13:12:12Z</time></trkpt><trkpt lat="40.05439394221155" lon="9.627059198619426"><ele>572.0</ele><time>2026-04-04T13:12:13Z</time></trkpt><trkpt lat="40.054386953529914" lon="9.627172429866098"><ele>572.0</ele><time>2026-04-04T13:12:14Z</time></trkpt><trkpt lat="40.05436268787242" lon="9.62729831084512"><ele>572.0</ele><time>2026-04-04T13:12:15Z</time></trkpt><trkpt lat="40.05432275367703" lon="9.627442966579359"><ele>572.0</ele><time>2026-04-04T13:12:16Z</time></trkpt><trkpt lat="40.05427793657614" lon="9.627579747248404"><ele>572.0</ele><time>2026-04-04T13:12:17Z</time></trkpt><trkpt lat="40.05421879521324" lon="9.62772096867648"><ele>576.0</ele><time>2026-04-04T13:12:18Z</time></trkpt><trkpt lat="40.05413821383432" lon="9.627860611615095"><ele>580.0</ele><time>2026-04-04T13:12:19Z</time></trkpt><trkpt lat="40.054039209281896" lon="9.627991613940388"><ele>584.0</ele><time>2026-04-04T13:12:20Z</time></trkpt><trkpt lat="40.05392660571313" lon="9.628097740503636"><ele>588.0</ele><time>2026-04-04T13:12:21Z</time></trkpt><trkpt lat="40.0538108017089" lon="9.628180632299099"><ele>580.8</ele><time>2026-04-04T13:12:22Z</time></trkpt><trkpt lat="40.053710644893435" lon="9.628244656534545"><ele>573.5999999999999</ele><time>2026-04-04T13:12:23Z</time></trkpt><trkpt lat="40.05363636230857" lon="9.62833799992131"><ele>566.4000000000001</ele><time>2026-04-04T13:12:24Z</time></trkpt><trkpt lat="40.05359287382182" lon="9.6284698465027"><ele>559.2</ele><time>2026-04-04T13:12:25Z</time></trkpt><trkpt lat="40.05359757609419" lon="9.628627174841467"><ele>552.0</ele><time>2026-04-04T13:12:26Z</time></trkpt><trkpt lat="40.05364769235873" lon="9.62878380273103"><ele>552.0</ele><time>2026-04-04T13:12:27Z</time></trkpt><trkpt lat="40.0536882281972" lon="9.628955609820732"><ele>552.0</ele><time>2026-04-04T13:12:28Z</time></trkpt><trkpt lat="40.05371185693393" lon="9.629146220160019"><ele>552.0</ele><time>2026-04-04T13:12:29Z</time></trkpt><trkpt lat="40.053699289570254" lon="9.629369372271432"><ele>552.6666666666666</ele><time>2026-04-04T13:12:30Z</time></trkpt><trkpt lat="40.05366193018057" lon="9.629585171631518"><ele>553.3333333333333</ele><time>2026-04-04T13:12:31Z</time></trkpt><trkpt lat="40.05360897852421" lon="9.62981302564359"><ele>554.0</ele><time>2026-04-04T13:12:32Z</time></trkpt><trkpt lat="40.053556952444566" lon="9.630049907756305"><ele>554.0</ele><time>2026-04-04T13:12:33Z</time></trkpt><trkpt lat="40.05352918033207" lon="9.630274182762344"><ele>554.0</ele><time>2026-04-04T13:12:34Z</time></trkpt><trkpt lat="40.05350770989727" lon="9.630482038605313"><ele>554.0</ele><time>2026-04-04T13:12:35Z</time></trkpt><trkpt lat="40.05346058587223" lon="9.630679273624864"><ele>557.3333333333333</ele><time>2026-04-04T13:12:36Z</time></trkpt><trkpt lat="40.053372238200204" lon="9.630851974630145"><ele>560.6666666666666</ele><time>2026-04-04T13:12:37Z</time></trkpt><trkpt lat="40.053252725553925" lon="9.631005405358817"><ele>564.0</ele><time>2026-04-04T13:12:38Z</time></trkpt><trkpt lat="40.05315093032997" lon="9.631183561372637"><ele>554.3333333333334</ele><time>2026-04-04T13:12:39Z</time></trkpt><trkpt lat="40.05307225022435" lon="9.631414337312743"><ele>544.6666666666667</ele><time>2026-04-04T13:12:40Z</time></trkpt><trkpt lat="40.052996158484916" lon="9.631665908798327"><ele>535.0</ele><time>2026-04-04T13:12:41Z</time></trkpt><trkpt lat="40.052926859648" lon="9.631880502111757"><ele>544.0</ele><time>2026-04-04T13:12:42Z</time></trkpt><trkpt lat="40.052840682032375" lon="9.632064267011604"><ele>553.0</ele><time>2026-04-04T13:12:43Z</time></trkpt><trkpt lat="40.05270954812422" lon="9.63223313343123"><ele>562.0</ele><time>2026-04-04T13:12:44Z</time></trkpt><trkpt lat="40.05256131216586" lon="9.63240371344465"><ele>558.0</ele><time>2026-04-04T13:12:45Z</time></trkpt><trkpt lat="40.052414405354504" lon="9.632601149406137"><ele>554.0</ele><time>2026-04-04T13:12:46Z</time></trkpt><trkpt lat="40.052276915170204" lon="9.632777173560788"><ele>550.0</ele><time>2026-04-04T13:12:47Z</time></trkpt><trkpt lat="40.05214051999835" lon="9.63294695685914"><ele>550.0</ele><time>2026-04-04T13:12:48Z</time></trkpt><trkpt lat="40.05203715604999" lon="9.63311012105704"><ele>550.0</ele><time>2026-04-04T13:12:49Z</time></trkpt><trkpt lat="40.051950364087034" lon="9.633296268395965"><ele>550.0</ele><time>2026-04-04T13:12:50Z</time></trkpt><trkpt lat="40.05191150276073" lon="9.633526855514562"><ele>550.0</ele><time>2026-04-04T13:12:51Z</time></trkpt><trkpt lat="40.051876725621575" lon="9.633750891985365"><ele>550.0</ele><time>2026-04-04T13:12:52Z</time></trkpt><trkpt lat="40.051860326996376" lon="9.633961330935618"><ele>550.0</ele><time>2026-04-04T13:12:53Z</time></trkpt><trkpt lat="40.0518712143661" lon="9.634160720484621"><ele>550.0</ele><time>2026-04-04T13:12:54Z</time></trkpt><trkpt lat="40.0519162177874" lon="9.634361119023676"><ele>550.0</ele><time>2026-04-04T13:12:55Z</time></trkpt><trkpt lat="40.05199559559763" lon="9.634554123980656"><ele>550.0</ele><time>2026-04-04T13:12:56Z</time></trkpt><trkpt lat="40.052080727499465" lon="9.634710641706135"><ele>547.6</ele><time>2026-04-04T13:12:57Z</time></trkpt><trkpt lat="40.05214460696404" lon="9.634822606649525"><ele>545.2</ele><time>2026-04-04T13:12:58Z</time></trkpt><trkpt lat="40.05217742021169" lon="9.634914521506563"><ele>542.8</ele><time>2026-04-04T13:12:59Z</time></trkpt><trkpt lat="40.05216307515923" lon="9.635010590606383"><ele>540.4</ele><time>2026-04-04T13:13:00Z</time></trkpt><trkpt lat="40.05210281074808" lon="9.63510168808291"><ele>538.0</ele><time>2026-04-04T13:13:01Z</time></trkpt><trkpt lat="40.051983984570946" lon="9.635125536477338"><ele>538.0</ele><time>2026-04-04T13:13:02Z</time></trkpt><trkpt lat="40.05188734705214" lon="9.635212815831823"><ele>538.0</ele><time>2026-04-04T13:13:03Z</time></trkpt><trkpt lat="40.05181657592592" lon="9.635304336384328"><ele>538.0</ele><time>2026-04-04T13:13:04Z</time></trkpt><trkpt lat="40.051795566979976" lon="9.63541741126068"><ele>538.0</ele><time>2026-04-04T13:13:05Z</time></trkpt><trkpt lat="40.051814969710755" lon="9.635536014960262"><ele>538.0</ele><time>2026-04-04T13:13:05.999Z</time></trkpt><trkpt lat="40.051870071568786" lon="9.635664165119556"><ele>538.5</ele><time>2026-04-04T13:13:06.999Z</time></trkpt><trkpt lat="40.05195316236369" lon="9.635798542398206"><ele>539.0</ele><time>2026-04-04T13:13:07.999Z</time></trkpt><trkpt lat="40.052054128765256" lon="9.635930055375107"><ele>539.5</ele><time>2026-04-04T13:13:08.999Z</time></trkpt><trkpt lat="40.05212114300375" lon="9.636051993993934"><ele>540.0</ele><time>2026-04-04T13:13:09.999Z</time></trkpt><trkpt lat="40.05214194337359" lon="9.63616936814307"><ele>540.0</ele><time>2026-04-04T13:13:10.999Z</time></trkpt><trkpt lat="40.05208178812089" lon="9.636266543828857"><ele>540.0</ele><time>2026-04-04T13:13:11.999Z</time></trkpt><trkpt lat="40.05201078595683" lon="9.636329494635167"><ele>540.0</ele><time>2026-04-04T13:13:12.999Z</time></trkpt><trkpt lat="40.051938800911365" lon="9.636437237885014"><ele>540.0</ele><time>2026-04-04T13:13:13.999Z</time></trkpt><trkpt lat="40.051851551008106" lon="9.636575306171316"><ele>540.0</ele><time>2026-04-04T13:13:14.999Z</time></trkpt><trkpt lat="40.05177215525617" lon="9.636761045862132"><ele>544.0</ele><time>2026-04-04T13:13:15.999Z</time></trkpt><trkpt lat="40.05171104352447" lon="9.636980947071919"><ele>548.0</ele><time>2026-04-04T13:13:16.999Z</time></trkpt><trkpt lat="40.05167905671129" lon="9.637179410851225"><ele>552.0</ele><time>2026-04-04T13:13:17.999Z</time></trkpt><trkpt lat="40.05166954640926" lon="9.637382268393356"><ele>552.0</ele><time>2026-04-04T13:13:18.999Z</time></trkpt><trkpt lat="40.05165268471304" lon="9.637562930614475"><ele>552.0</ele><time>2026-04-04T13:13:19.999Z</time></trkpt><trkpt lat="40.05155063195971" lon="9.637684915130562"><ele>552.0</ele><time>2026-04-04T13:13:20.999Z</time></trkpt><trkpt lat="40.05146751123345" lon="9.637851712721275"><ele>552.0</ele><time>2026-04-04T13:13:21.999Z</time></trkpt><trkpt lat="40.05133544941143" lon="9.637941896177487"><ele>543.25</ele><time>2026-04-04T13:13:22.999Z</time></trkpt><trkpt lat="40.05123759043555" lon="9.638055770485995"><ele>534.5</ele><time>2026-04-04T13:13:23.999Z</time></trkpt><trkpt lat="40.05114982588833" lon="9.638188553348316"><ele>525.75</ele><time>2026-04-04T13:13:24.999Z</time></trkpt><trkpt lat="40.05108849695552" lon="9.638374758971164"><ele>517.0</ele><time>2026-04-04T13:13:25.999Z</time></trkpt><trkpt lat="40.05102769988465" lon="9.638572032652807"><ele>525.3333333333334</ele><time>2026-04-04T13:13:26.999Z</time></trkpt><trkpt lat="40.050957111072265" lon="9.638775693961263"><ele>533.6666666666666</ele><time>2026-04-04T13:13:27.999Z</time></trkpt><trkpt lat="40.05087445095503" lon="9.638983414622627"><ele>542.0</ele><time>2026-04-04T13:13:28.999Z</time></trkpt><trkpt lat="40.05079075316863" lon="9.639185509344369"><ele>529.5</ele><time>2026-04-04T13:13:29.999Z</time></trkpt><trkpt lat="40.05072444587528" lon="9.639365625256481"><ele>517.0</ele><time>2026-04-04T13:13:30.999Z</time></trkpt><trkpt lat="40.05068182327798" lon="9.639533478579049"><ele>504.5</ele><time>2026-04-04T13:13:31.999Z</time></trkpt><trkpt lat="40.05066858485223" lon="9.639731064913763"><ele>492.0</ele><time>2026-04-04T13:13:32.999Z</time></trkpt><trkpt lat="40.050668718489504" lon="9.639966577756146"><ele>492.0</ele><time>2026-04-04T13:13:33.999Z</time></trkpt><trkpt lat="40.050674640406086" lon="9.64021756236643"><ele>492.0</ele><time>2026-04-04T13:13:34.999Z</time></trkpt><trkpt lat="40.0506730716886" lon="9.640443989046435"><ele>492.0</ele><time>2026-04-04T13:13:35.999Z</time></trkpt><trkpt lat="40.050663321630374" lon="9.640682157781827"><ele>492.33333333333337</ele><time>2026-04-04T13:13:36.999Z</time></trkpt><trkpt lat="40.05065300563325" lon="9.64093446354119"><ele>492.6666666666667</ele><time>2026-04-04T13:13:37.999Z</time></trkpt><trkpt lat="40.050630541796835" lon="9.64119913602154"><ele>493.0</ele><time>2026-04-04T13:13:38.999Z</time></trkpt><trkpt lat="40.050607969407906" lon="9.641472729637277"><ele>495.0</ele><time>2026-04-04T13:13:39.999Z</time></trkpt><trkpt lat="40.05059322063806" lon="9.641733523809501"><ele>497.0</ele><time>2026-04-04T13:13:40.999Z</time></trkpt><trkpt lat="40.0505826322058" lon="9.641975830171571"><ele>499.0</ele><time>2026-04-04T13:13:41.999Z</time></trkpt><trkpt lat="40.05057221058873" lon="9.642206322535465"><ele>501.6666666666667</ele><time>2026-04-04T13:13:42.999Z</time></trkpt><trkpt lat="40.050522757688064" lon="9.642431856496668"><ele>504.33333333333337</ele><time>2026-04-04T13:13:43.999Z</time></trkpt><trkpt lat="40.05044706604792" lon="9.642672765495407"><ele>507.0</ele><time>2026-04-04T13:13:44.999Z</time></trkpt><trkpt lat="40.05036953248822" lon="9.642924543050494"><ele>512.3333333333334</ele><time>2026-04-04T13:13:45.999Z</time></trkpt><trkpt lat="40.050302984215676" lon="9.643179779245802"><ele>517.6666666666667</ele><time>2026-04-04T13:13:46.999Z</time></trkpt><trkpt lat="40.05023909269514" lon="9.643415432957232"><ele>523.0</ele><time>2026-04-04T13:13:47.999Z</time></trkpt><trkpt lat="40.050171218983806" lon="9.643628027256712"><ele>529.0</ele><time>2026-04-04T13:13:48.999Z</time></trkpt><trkpt lat="40.05008586334364" lon="9.64381320385806"><ele>535.0</ele><time>2026-04-04T13:13:49.999Z</time></trkpt><trkpt lat="40.04996561550331" lon="9.64399281148247"><ele>541.0</ele><time>2026-04-04T13:13:50.999Z</time></trkpt><trkpt lat="40.04982530133305" lon="9.64419059783582"><ele>532.3333333333334</ele><time>2026-04-04T13:13:51.999Z</time></trkpt><trkpt lat="40.049688460846404" lon="9.644424977318357"><ele>523.6666666666666</ele><time>2026-04-04T13:13:52.999Z</time></trkpt><trkpt lat="40.049564931775386" lon="9.644655722753368"><ele>515.0</ele><time>2026-04-04T13:13:53.999Z</time></trkpt><trkpt lat="40.04944463782777" lon="9.644869335683453"><ele>515.0</ele><time>2026-04-04T13:13:54.999Z</time></trkpt><trkpt lat="40.0493191160505" lon="9.645095121034695"><ele>515.0</ele><time>2026-04-04T13:13:55.999Z</time></trkpt><trkpt lat="40.04918771333955" lon="9.64532634599556"><ele>515.0</ele><time>2026-04-04T13:13:56.999Z</time></trkpt><trkpt lat="40.04905423282391" lon="9.645556220260625"><ele>515.6666666666666</ele><time>2026-04-04T13:13:57.999Z</time></trkpt><trkpt lat="40.04892006028592" lon="9.645792562166271"><ele>516.3333333333334</ele><time>2026-04-04T13:13:58.999Z</time></trkpt><trkpt lat="40.0487912538371" lon="9.646026477966585"><ele>517.0</ele><time>2026-04-04T13:13:59.999Z</time></trkpt><trkpt lat="40.04866214341205" lon="9.646267457606976"><ele>517.0</ele><time>2026-04-04T13:14:00.999Z</time></trkpt><trkpt lat="40.048533502416454" lon="9.646511757320964"><ele>517.0</ele><time>2026-04-04T13:14:01.999Z</time></trkpt><trkpt lat="40.048407699388896" lon="9.646747452886833"><ele>517.0</ele><time>2026-04-04T13:14:02.999Z</time></trkpt><trkpt lat="40.04829203199301" lon="9.646957111922795"><ele>503.0</ele><time>2026-04-04T13:14:03.999Z</time></trkpt><trkpt lat="40.04818785438026" lon="9.64714142563857"><ele>489.0</ele><time>2026-04-04T13:14:04.999Z</time></trkpt><trkpt lat="40.048090930463104" lon="9.647319802205844"><ele>475.0</ele><time>2026-04-04T13:14:05.999Z</time></trkpt><trkpt lat="40.048011036201686" lon="9.647512235868193"><ele>475.0</ele><time>2026-04-04T13:14:06.999Z</time></trkpt><trkpt lat="40.04795998926185" lon="9.64773760278423"><ele>475.0</ele><time>2026-04-04T13:14:07.999Z</time></trkpt><trkpt lat="40.04792284717034" lon="9.647977492076913"><ele>475.0</ele><time>2026-04-04T13:14:08.999Z</time></trkpt><trkpt lat="40.04788247706753" lon="9.648212163396174"><ele>481.0</ele><time>2026-04-04T13:14:09.999Z</time></trkpt><trkpt lat="40.047833332261284" lon="9.648427740186829"><ele>487.0</ele><time>2026-04-04T13:14:10.999Z</time></trkpt><trkpt lat="40.04776797774038" lon="9.648622661236066"><ele>493.0</ele><time>2026-04-04T13:14:11.999Z</time></trkpt><trkpt lat="40.047688318378036" lon="9.648800208393748"><ele>491.25</ele><time>2026-04-04T13:14:12.999Z</time></trkpt><trkpt lat="40.047593475475" lon="9.648941794244934"><ele>489.5</ele><time>2026-04-04T13:14:13.999Z</time></trkpt><trkpt lat="40.04747821992611" lon="9.649050446586088"><ele>487.75</ele><time>2026-04-04T13:14:14.999Z</time></trkpt><trkpt lat="40.04733258234355" lon="9.649125858496905"><ele>486.0</ele><time>2026-04-04T13:14:15.999Z</time></trkpt><trkpt lat="40.04717428169214" lon="9.649204094945354"><ele>486.0</ele><time>2026-04-04T13:14:16.999Z</time></trkpt><trkpt lat="40.047025898433084" lon="9.649346286068557"><ele>486.0</ele><time>2026-04-04T13:14:17.999Z</time></trkpt><trkpt lat="40.04688263277953" lon="9.649537716594214"><ele>486.0</ele><time>2026-04-04T13:14:18.999Z</time></trkpt><trkpt lat="40.04673161815878" lon="9.649746646421393"><ele>480.0</ele><time>2026-04-04T13:14:19.999Z</time></trkpt><trkpt lat="40.04657786882666" lon="9.649977964195827"><ele>474.0</ele><time>2026-04-04T13:14:20.999Z</time></trkpt><trkpt lat="40.046424643456746" lon="9.6502083629861"><ele>484.0</ele><time>2026-04-04T13:14:21.999Z</time></trkpt><trkpt lat="40.046262897402755" lon="9.650424129075374"><ele>494.0</ele><time>2026-04-04T13:14:22.999Z</time></trkpt><trkpt lat="40.04610680715386" lon="9.650644871044952"><ele>494.0</ele><time>2026-04-04T13:14:23.999Z</time></trkpt><trkpt lat="40.04594682901351" lon="9.650867979449915"><ele>494.0</ele><time>2026-04-04T13:14:24.999Z</time></trkpt><trkpt lat="40.045788731605434" lon="9.65110016968786"><ele>484.0</ele><time>2026-04-04T13:14:25.999Z</time></trkpt><trkpt lat="40.04563900727857" lon="9.651339638893628"><ele>474.0</ele><time>2026-04-04T13:14:26.999Z</time></trkpt><trkpt lat="40.04550238071934" lon="9.651593128047452"><ele>474.0</ele><time>2026-04-04T13:14:27.999Z</time></trkpt><trkpt lat="40.04538680184105" lon="9.651860057998435"><ele>474.0</ele><time>2026-04-04T13:14:28.999Z</time></trkpt><trkpt lat="40.04528448605392" lon="9.652135313775739"><ele>482.5</ele><time>2026-04-04T13:14:29.999Z</time></trkpt><trkpt lat="40.04517699385944" lon="9.652407882625752"><ele>491.0</ele><time>2026-04-04T13:14:30.999Z</time></trkpt><trkpt lat="40.04506033817548" lon="9.65267525113072"><ele>483.0</ele><time>2026-04-04T13:14:31.999Z</time></trkpt><trkpt lat="40.04493479013341" lon="9.652934089015048"><ele>475.0</ele><time>2026-04-04T13:14:32.999Z</time></trkpt><trkpt lat="40.0448022251995" lon="9.653191400485056"><ele>475.0</ele><time>2026-04-04T13:14:33.999Z</time></trkpt><trkpt lat="40.04467278647902" lon="9.653447544678937"><ele>475.0</ele><time>2026-04-04T13:14:34.999Z</time></trkpt><trkpt lat="40.044550607559614" lon="9.653681221650583"><ele>484.0</ele><time>2026-04-04T13:14:35.999Z</time></trkpt><trkpt lat="40.04442513679901" lon="9.65391247498645"><ele>493.0</ele><time>2026-04-04T13:14:36.999Z</time></trkpt><trkpt lat="40.04429294731059" lon="9.654129020543396"><ele>502.0</ele><time>2026-04-04T13:14:37.999Z</time></trkpt><trkpt lat="40.04414192355311" lon="9.654326831198295"><ele>500.6666666666667</ele><time>2026-04-04T13:14:38.999Z</time></trkpt><trkpt lat="40.0439682830766" lon="9.654494171051104"><ele>499.33333333333337</ele><time>2026-04-04T13:14:39.999Z</time></trkpt><trkpt lat="40.0437736100134" lon="9.65464488682322"><ele>498.0</ele><time>2026-04-04T13:14:40.999Z</time></trkpt><trkpt lat="40.04356621451534" lon="9.65479262408048"><ele>498.0</ele><time>2026-04-04T13:14:41.999Z</time></trkpt><trkpt lat="40.04336017945174" lon="9.65493311884132"><ele>498.0</ele><time>2026-04-04T13:14:42.999Z</time></trkpt><trkpt lat="40.04317143155752" lon="9.655059882568299"><ele>498.0</ele><time>2026-04-04T13:14:43.999Z</time></trkpt><trkpt lat="40.04298973947557" lon="9.655181978444679"><ele>499.0</ele><time>2026-04-04T13:14:44.999Z</time></trkpt><trkpt lat="40.04281952558827" lon="9.655302138003211"><ele>500.0</ele><time>2026-04-04T13:14:45.999Z</time></trkpt><trkpt lat="40.04266641157769" lon="9.655429405563723"><ele>501.0</ele><time>2026-04-04T13:14:46.999Z</time></trkpt><trkpt lat="40.04254308992282" lon="9.655572622455791"><ele>491.33333333333337</ele><time>2026-04-04T13:14:47.999Z</time></trkpt><trkpt lat="40.042434150823986" lon="9.655754808434764"><ele>481.6666666666667</ele><time>2026-04-04T13:14:48.999Z</time></trkpt><trkpt lat="40.04234768550573" lon="9.655939092454771"><ele>472.0</ele><time>2026-04-04T13:14:49.999Z</time></trkpt><trkpt lat="40.0422407244934" lon="9.656078129530067"><ele>479.75</ele><time>2026-04-04T13:14:50.999Z</time></trkpt><trkpt lat="40.04211316751362" lon="9.656185173635203"><ele>487.5</ele><time>2026-04-04T13:14:51.999Z</time></trkpt><trkpt lat="40.04198069517491" lon="9.656262612712332"><ele>495.25</ele><time>2026-04-04T13:14:52.999Z</time></trkpt><trkpt lat="40.04184363503543" lon="9.656303487210067"><ele>503.0</ele><time>2026-04-04T13:14:53.999Z</time></trkpt><trkpt lat="40.0417093173138" lon="9.656335129819123"><ele>498.3333333333333</ele><time>2026-04-04T13:14:54.999Z</time></trkpt><trkpt lat="40.041572706968196" lon="9.656390374468296"><ele>493.66666666666663</ele><time>2026-04-04T13:14:55.999Z</time></trkpt><trkpt lat="40.04143478208062" lon="9.656481556103738"><ele>489.0</ele><time>2026-04-04T13:14:56.999Z</time></trkpt><trkpt lat="40.04128728242053" lon="9.656594272915939"><ele>489.0</ele><time>2026-04-04T13:14:57.999Z</time></trkpt><trkpt lat="40.041124542512776" lon="9.656716178366043"><ele>489.0</ele><time>2026-04-04T13:14:58.999Z</time></trkpt><trkpt lat="40.040946177544015" lon="9.656847445309461"><ele>489.0</ele><time>2026-04-04T13:14:59.999Z</time></trkpt><trkpt lat="40.04075459539078" lon="9.656987617307742"><ele>492.0</ele><time>2026-04-04T13:15:00.999Z</time></trkpt><trkpt lat="40.04057352113314" lon="9.657129498648388"><ele>495.0</ele><time>2026-04-04T13:15:01.999Z</time></trkpt><trkpt lat="40.04041059595561" lon="9.657252340484021"><ele>498.0</ele><time>2026-04-04T13:15:02.999Z</time></trkpt><trkpt lat="40.040250360051495" lon="9.657378623636903"><ele>498.0</ele><time>2026-04-04T13:15:03.999Z</time></trkpt><trkpt lat="40.04010047957246" lon="9.657488974530143"><ele>498.0</ele><time>2026-04-04T13:15:04.999Z</time></trkpt><trkpt lat="40.03994112607394" lon="9.657580761953596"><ele>498.0</ele><time>2026-04-04T13:15:05.999Z</time></trkpt><trkpt lat="40.03976034842033" lon="9.657640122476643"><ele>492.33333333333337</ele><time>2026-04-04T13:15:06.999Z</time></trkpt><trkpt lat="40.0395698439478" lon="9.657701829937574"><ele>486.6666666666667</ele><time>2026-04-04T13:15:07.999Z</time></trkpt><trkpt lat="40.039373635997194" lon="9.657771761952688"><ele>481.0</ele><time>2026-04-04T13:15:08.999Z</time></trkpt><trkpt lat="40.039192841352936" lon="9.657845067214776"><ele>491.33333333333337</ele><time>2026-04-04T13:15:09.999Z</time></trkpt><trkpt lat="40.039032226408146" lon="9.65792128089991"><ele>501.66666666666663</ele><time>2026-04-04T13:15:10.999Z</time></trkpt><trkpt lat="40.03887418305234" lon="9.657987893969032"><ele>512.0</ele><time>2026-04-04T13:15:11.999Z</time></trkpt><trkpt lat="40.038722780941946" lon="9.658034943997388"><ele>512.0</ele><time>2026-04-04T13:15:12.999Z</time></trkpt><trkpt lat="40.03857395265399" lon="9.658039125005114"><ele>512.0</ele><time>2026-04-04T13:15:13.999Z</time></trkpt><trkpt lat="40.03842591324087" lon="9.65805319657339"><ele>512.0</ele><time>2026-04-04T13:15:14.999Z</time></trkpt><trkpt lat="40.03827798146871" lon="9.658060911509722"><ele>512.0</ele><time>2026-04-04T13:15:15.999Z</time></trkpt><trkpt lat="40.038131865611085" lon="9.658085061225464"><ele>508.5</ele><time>2026-04-04T13:15:16.999Z</time></trkpt><trkpt lat="40.03800113648757" lon="9.658113625734583"><ele>505.0</ele><time>2026-04-04T13:15:17.999Z</time></trkpt><trkpt lat="40.03786840799182" lon="9.658139871993713"><ele>501.5</ele><time>2026-04-04T13:15:18.999Z</time></trkpt><trkpt lat="40.03774564078088" lon="9.658143721930548"><ele>498.0</ele><time>2026-04-04T13:15:19.999Z</time></trkpt><trkpt lat="40.037622996365045" lon="9.658125431060483"><ele>498.0</ele><time>2026-04-04T13:15:20.999Z</time></trkpt><trkpt lat="40.03750934345265" lon="9.658116911046605"><ele>497.99999999999994</ele><time>2026-04-04T13:15:21.999Z</time></trkpt><trkpt lat="40.037401660721734" lon="9.658124110216605"><ele>497.99999999999994</ele><time>2026-04-04T13:15:22.999Z</time></trkpt><trkpt lat="40.03730079458285" lon="9.65815055914743"><ele>498.0</ele><time>2026-04-04T13:15:23.999Z</time></trkpt><trkpt lat="40.037200185603254" lon="9.65817901356523"><ele>498.0</ele><time>2026-04-04T13:15:24.999Z</time></trkpt><trkpt lat="40.03709702125886" lon="9.65819325430558"><ele>497.5</ele><time>2026-04-04T13:15:25.999Z</time></trkpt><trkpt lat="40.036982592682044" lon="9.658189317346666"><ele>497.0</ele><time>2026-04-04T13:15:26.999Z</time></trkpt><trkpt lat="40.03685885787093" lon="9.65813834511711"><ele>496.5</ele><time>2026-04-04T13:15:27.999Z</time></trkpt><trkpt lat="40.03672192345775" lon="9.658115554184505"><ele>496.0</ele><time>2026-04-04T13:15:28.999Z</time></trkpt><trkpt lat="40.036594764114305" lon="9.658079410391993"><ele>493.0</ele><time>2026-04-04T13:15:29.999Z</time></trkpt><trkpt lat="40.03648097602701" lon="9.658086179238639"><ele>490.0</ele><time>2026-04-04T13:15:30.999Z</time></trkpt><trkpt lat="40.03636720189601" lon="9.658120812638941"><ele>487.0</ele><time>2026-04-04T13:15:31.999Z</time></trkpt><trkpt lat="40.03626063309003" lon="9.658188159575284"><ele>484.0</ele><time>2026-04-04T13:15:32.999Z</time></trkpt><trkpt lat="40.036148072442955" lon="9.65826492634912"><ele>484.0</ele><time>2026-04-04T13:15:33.999Z</time></trkpt><trkpt lat="40.03603511306894" lon="9.658341087933243"><ele>484.0</ele><time>2026-04-04T13:15:34.999Z</time></trkpt><trkpt lat="40.035932268134545" lon="9.658412445523137"><ele>484.0</ele><time>2026-04-04T13:15:35.999Z</time></trkpt><trkpt lat="40.03584627151137" lon="9.658494654190548"><ele>484.0</ele><time>2026-04-04T13:15:36.999Z</time></trkpt><trkpt lat="40.03577968198424" lon="9.658606083841182"><ele>478.75</ele><time>2026-04-04T13:15:37.999Z</time></trkpt><trkpt lat="40.03573778319417" lon="9.658764582526242"><ele>473.5</ele><time>2026-04-04T13:15:38.999Z</time></trkpt><trkpt lat="40.03569155397359" lon="9.658939462742609"><ele>468.25</ele><time>2026-04-04T13:15:39.999Z</time></trkpt><trkpt lat="40.035631460862014" lon="9.65912732394523"><ele>463.0</ele><time>2026-04-04T13:15:40.999Z</time></trkpt><trkpt lat="40.03557756002621" lon="9.659290381415804"><ele>463.0</ele><time>2026-04-04T13:15:41.999Z</time></trkpt><trkpt lat="40.03552163430341" lon="9.659439069085499"><ele>463.0</ele><time>2026-04-04T13:15:42.999Z</time></trkpt><trkpt lat="40.03546323277907" lon="9.659577542522772"><ele>463.0</ele><time>2026-04-04T13:15:43.999Z</time></trkpt><trkpt lat="40.03539680454114" lon="9.659714102486625"><ele>463.0</ele><time>2026-04-04T13:15:44.999Z</time></trkpt><trkpt lat="40.0353061851147" lon="9.659848117900516"><ele>467.5</ele><time>2026-04-04T13:15:45.999Z</time></trkpt><trkpt lat="40.035199094240134" lon="9.659972869120413"><ele>472.0</ele><time>2026-04-04T13:15:46.999Z</time></trkpt><trkpt lat="40.035094562590814" lon="9.660093009643713"><ele>476.5</ele><time>2026-04-04T13:15:47.999Z</time></trkpt><trkpt lat="40.03499265640717" lon="9.660215626471487"><ele>481.0</ele><time>2026-04-04T13:15:48.999Z</time></trkpt><trkpt lat="40.03489236510159" lon="9.660334019961741"><ele>481.25</ele><time>2026-04-04T13:15:49.999Z</time></trkpt><trkpt lat="40.03479225869091" lon="9.660446652091217"><ele>481.5</ele><time>2026-04-04T13:15:50.999Z</time></trkpt><trkpt lat="40.03469409561801" lon="9.660557471697347"><ele>481.75</ele><time>2026-04-04T13:15:51.999Z</time></trkpt><trkpt lat="40.034587121438335" lon="9.660663266089394"><ele>482.0</ele><time>2026-04-04T13:15:52.999Z</time></trkpt><trkpt lat="40.03446342260577" lon="9.660751750739776"><ele>482.0</ele><time>2026-04-04T13:15:53.999Z</time></trkpt><trkpt lat="40.03432338381492" lon="9.660811096433685"><ele>482.0</ele><time>2026-04-04T13:15:54.999Z</time></trkpt><trkpt lat="40.03417975041459" lon="9.660861944149794"><ele>482.0</ele><time>2026-04-04T13:15:55.999Z</time></trkpt><trkpt lat="40.03401549338187" lon="9.66088208026525"><ele>484.0</ele><time>2026-04-04T13:15:56.999Z</time></trkpt><trkpt lat="40.033850724295334" lon="9.660956282566517"><ele>486.0</ele><time>2026-04-04T13:15:57.999Z</time></trkpt><trkpt lat="40.033702656610515" lon="9.661037466079545"><ele>488.0</ele><time>2026-04-04T13:15:58.999Z</time></trkpt><trkpt lat="40.03357618844448" lon="9.661131041150226"><ele>488.0</ele><time>2026-04-04T13:15:59.999Z</time></trkpt><trkpt lat="40.03346084901117" lon="9.66122275760071"><ele>488.0</ele><time>2026-04-04T13:16:00.999Z</time></trkpt><trkpt lat="40.033351439404704" lon="9.661318116137096"><ele>488.0</ele><time>2026-04-04T13:16:01.999Z</time></trkpt><trkpt lat="40.03324307098634" lon="9.661408272400651"><ele>488.0</ele><time>2026-04-04T13:16:02.999Z</time></trkpt><trkpt lat="40.033129024950156" lon="9.661494244854248"><ele>481.75</ele><time>2026-04-04T13:16:03.999Z</time></trkpt><trkpt lat="40.033016532165625" lon="9.661583697599184"><ele>475.5</ele><time>2026-04-04T13:16:04.999Z</time></trkpt><trkpt lat="40.0329157469426" lon="9.661675542861893"><ele>469.25</ele><time>2026-04-04T13:16:05.999Z</time></trkpt><trkpt lat="40.032837814025505" lon="9.661784507411234"><ele>463.0</ele><time>2026-04-04T13:16:06.999Z</time></trkpt><trkpt lat="40.03276354613734" lon="9.66190289381798"><ele>465.2</ele><time>2026-04-04T13:16:07.999Z</time></trkpt><trkpt lat="40.03270080866161" lon="9.662029040669886"><ele>467.4</ele><time>2026-04-04T13:16:08.999Z</time></trkpt><trkpt lat="40.032634936423854" lon="9.66215300815091"><ele>469.59999999999997</ele><time>2026-04-04T13:16:09.999Z</time></trkpt><trkpt lat="40.032572836416165" lon="9.662267708534632"><ele>471.79999999999995</ele><time>2026-04-04T13:16:10.999Z</time></trkpt><trkpt lat="40.03251529695022" lon="9.662367283769566"><ele>474.0</ele><time>2026-04-04T13:16:11.999Z</time></trkpt><trkpt lat="40.03244839172672" lon="9.662469595752384"><ele>474.0</ele><time>2026-04-04T13:16:12.999Z</time></trkpt><trkpt lat="40.03237447772941" lon="9.662564820912417"><ele>474.0</ele><time>2026-04-04T13:16:13.999Z</time></trkpt><trkpt lat="40.03229792857279" lon="9.662647159374057"><ele>474.0</ele><time>2026-04-04T13:16:14.999Z</time></trkpt><trkpt lat="40.032227045748584" lon="9.662726720722278"><ele>474.0</ele><time>2026-04-04T13:16:15.999Z</time></trkpt><trkpt lat="40.032161053877886" lon="9.662820793104975"><ele>474.0</ele><time>2026-04-04T13:16:16.999Z</time></trkpt><trkpt lat="40.032086329775055" lon="9.66290573974207"><ele>475.3333333333333</ele><time>2026-04-04T13:16:17.999Z</time></trkpt><trkpt lat="40.032022865680176" lon="9.662980765096068"><ele>476.66666666666663</ele><time>2026-04-04T13:16:18.999Z</time></trkpt><trkpt lat="40.03196381023228" lon="9.663041093254998"><ele>478.0</ele><time>2026-04-04T13:16:19.999Z</time></trkpt><trkpt lat="40.03190504080495" lon="9.66310090388786"><ele>479.3333333333333</ele><time>2026-04-04T13:16:20.999Z</time></trkpt><trkpt lat="40.03182924213391" lon="9.663148415944963"><ele>480.66666666666663</ele><time>2026-04-04T13:16:21.999Z</time></trkpt><trkpt lat="40.03175259156673" lon="9.663199445914874"><ele>482.0</ele><time>2026-04-04T13:16:22.999Z</time></trkpt><trkpt lat="40.03167812972671" lon="9.663260586957785"><ele>481.8333333333333</ele><time>2026-04-04T13:16:23.999Z</time></trkpt><trkpt lat="40.03160181739557" lon="9.663308064075181"><ele>481.66666666666663</ele><time>2026-04-04T13:16:24.999Z</time></trkpt><trkpt lat="40.0315359572449" lon="9.663380975256056"><ele>481.5</ele><time>2026-04-04T13:16:25.999Z</time></trkpt><trkpt lat="40.031492699236075" lon="9.663480176379904"><ele>481.33333333333337</ele><time>2026-04-04T13:16:26.999Z</time></trkpt><trkpt lat="40.03143674297924" lon="9.663556182836754"><ele>481.1666666666667</ele><time>2026-04-04T13:16:27.999Z</time></trkpt><trkpt lat="40.03138011264944" lon="9.663645863413757"><ele>481.0</ele><time>2026-04-04T13:16:28.999Z</time></trkpt><trkpt lat="40.03132138061588" lon="9.663744138398283"><ele>480.99999999999994</ele><time>2026-04-04T13:16:29.999Z</time></trkpt><trkpt lat="40.03126944483461" lon="9.663824879877351"><ele>481.0</ele><time>2026-04-04T13:16:30.999Z</time></trkpt><trkpt lat="40.03123010472055" lon="9.663911907274668"><ele>480.99999999999994</ele><time>2026-04-04T13:16:31.999Z</time></trkpt><trkpt lat="40.03118789413293" lon="9.66397981208426"><ele>480.99999999999994</ele><time>2026-04-04T13:16:32.999Z</time></trkpt><trkpt lat="40.03113984408433" lon="9.664043031852342"><ele>481.0</ele><time>2026-04-04T13:16:33.999Z</time></trkpt><trkpt lat="40.031095928951" lon="9.664113091497"><ele>480.99999999999994</ele><time>2026-04-04T13:16:34.999Z</time></trkpt><trkpt lat="40.03103217430745" lon="9.664151028723646"><ele>480.99999999999994</ele><time>2026-04-04T13:16:35.999Z</time></trkpt><trkpt lat="40.03096638365971" lon="9.66419888781409"><ele>481.0</ele><time>2026-04-04T13:16:36.999Z</time></trkpt><trkpt lat="40.03088760579555" lon="9.664263384941334"><ele>481.0</ele><time>2026-04-04T13:16:37.999Z</time></trkpt><trkpt lat="40.03079110489336" lon="9.664300239600703"><ele>481.0</ele><time>2026-04-04T13:16:38.999Z</time></trkpt><trkpt lat="40.03069595513698" lon="9.664334011326076"><ele>481.0</ele><time>2026-04-04T13:16:39.999Z</time></trkpt><trkpt lat="40.03061255978894" lon="9.664373180416646"><ele>481.0</ele><time>2026-04-04T13:16:40.999Z</time></trkpt><trkpt lat="40.03052717662615" lon="9.664415064604952"><ele>481.1666666666667</ele><time>2026-04-04T13:16:41.999Z</time></trkpt><trkpt lat="40.030445895719595" lon="9.664469558257062"><ele>481.33333333333337</ele><time>2026-04-04T13:16:42.999Z</time></trkpt><trkpt lat="40.03036854366137" lon="9.664530488305164"><ele>481.5</ele><time>2026-04-04T13:16:43.999Z</time></trkpt><trkpt lat="40.03029573371401" lon="9.664577415542935"><ele>481.66666666666663</ele><time>2026-04-04T13:16:44.999Z</time></trkpt><trkpt lat="40.03023217436671" lon="9.664621523148686"><ele>481.8333333333333</ele><time>2026-04-04T13:16:45.999Z</time></trkpt><trkpt lat="40.03016561427244" lon="9.664674602638248"><ele>482.0</ele><time>2026-04-04T13:16:46.999Z</time></trkpt><trkpt lat="40.03008582180562" lon="9.664718166429966"><ele>481.99999999999994</ele><time>2026-04-04T13:16:47.999Z</time></trkpt><trkpt lat="40.03001555287984" lon="9.66476622973315"><ele>482.0</ele><time>2026-04-04T13:16:48.999Z</time></trkpt><trkpt lat="40.02995637338674" lon="9.664818015911127"><ele>482.0</ele><time>2026-04-04T13:16:49.999Z</time></trkpt><trkpt lat="40.0299026833106" lon="9.664892228840708"><ele>482.0</ele><time>2026-04-04T13:16:50.999Z</time></trkpt><trkpt lat="40.029841805183665" lon="9.664961510261016"><ele>481.99999999999994</ele><time>2026-04-04T13:16:51.999Z</time></trkpt><trkpt lat="40.02978206534281" lon="9.665064867502377"><ele>482.0</ele><time>2026-04-04T13:16:52.999Z</time></trkpt><trkpt lat="40.029740439750064" lon="9.665175008993318"><ele>480.49999999999994</ele><time>2026-04-04T13:16:53.999Z</time></trkpt><trkpt lat="40.029694913949335" lon="9.665267771820448"><ele>479.0</ele><time>2026-04-04T13:16:54.999Z</time></trkpt><trkpt lat="40.0296469478015" lon="9.665359729816043"><ele>477.5</ele><time>2026-04-04T13:16:55.999Z</time></trkpt><trkpt lat="40.029591120058754" lon="9.665459404995579"><ele>476.0</ele><time>2026-04-04T13:16:56.999Z</time></trkpt><trkpt lat="40.02953801334841" lon="9.665562406035585"><ele>474.49999999999994</ele><time>2026-04-04T13:16:57.999Z</time></trkpt><trkpt lat="40.02948784048215" lon="9.66566005966039"><ele>473.0</ele><time>2026-04-04T13:16:58.999Z</time></trkpt><trkpt lat="40.02943394109977" lon="9.665748652237783"><ele>472.99999999999994</ele><time>2026-04-04T13:16:59.999Z</time></trkpt><trkpt lat="40.02938058905217" lon="9.665827686673678"><ele>473.0</ele><time>2026-04-04T13:17:00.999Z</time></trkpt><trkpt lat="40.02932363241716" lon="9.665896201745804"><ele>473.0</ele><time>2026-04-04T13:17:01.999Z</time></trkpt><trkpt lat="40.029261764497704" lon="9.665961744075698"><ele>473.0</ele><time>2026-04-04T13:17:02.999Z</time></trkpt><trkpt lat="40.02918846808573" lon="9.66599640349248"><ele>472.99999999999994</ele><time>2026-04-04T13:17:03.999Z</time></trkpt><trkpt lat="40.029119093801256" lon="9.666043436622939"><ele>473.0</ele><time>2026-04-04T13:17:04.999Z</time></trkpt><trkpt lat="40.029050784129375" lon="9.66610846392197"><ele>472.28571428571433</ele><time>2026-04-04T13:17:05.999Z</time></trkpt><trkpt lat="40.02897142112609" lon="9.66615656858224"><ele>471.57142857142856</ele><time>2026-04-04T13:17:06.999Z</time></trkpt><trkpt lat="40.028906886924595" lon="9.666212484096391"><ele>470.8571428571429</ele><time>2026-04-04T13:17:07.999Z</time></trkpt><trkpt lat="40.028849173479" lon="9.666264556030617"><ele>470.14285714285717</ele><time>2026-04-04T13:17:08.999Z</time></trkpt><trkpt lat="40.028798123051224" lon="9.666338096306035"><ele>469.42857142857144</ele><time>2026-04-04T13:17:09.999Z</time></trkpt><trkpt lat="40.028749405620026" lon="9.666401282683498"><ele>468.7142857142857</ele><time>2026-04-04T13:17:10.999Z</time></trkpt><trkpt lat="40.02870354831232" lon="9.666462284086306"><ele>468.0</ele><time>2026-04-04T13:17:11.999Z</time></trkpt><trkpt lat="40.02864717630919" lon="9.666507582675374"><ele>468.0</ele><time>2026-04-04T13:17:12.999Z</time></trkpt><trkpt lat="40.028584548253335" lon="9.666547211605888"><ele>468.00000000000006</ele><time>2026-04-04T13:17:13.999Z</time></trkpt><trkpt lat="40.02852976364966" lon="9.666598292242925"><ele>468.0</ele><time>2026-04-04T13:17:14.999Z</time></trkpt><trkpt lat="40.02846316062083" lon="9.66664230215879"><ele>468.0</ele><time>2026-04-04T13:17:15.999Z</time></trkpt><trkpt lat="40.02838336344418" lon="9.66668062708051"><ele>468.00000000000006</ele><time>2026-04-04T13:17:16.999Z</time></trkpt><trkpt lat="40.02830728139198" lon="9.66671080457115"><ele>468.0</ele><time>2026-04-04T13:17:17.999Z</time></trkpt><trkpt lat="40.028237098903844" lon="9.66673231048548"><ele>468.0</ele><time>2026-04-04T13:17:18.999Z</time></trkpt><trkpt lat="40.0281576290579" lon="9.666756010382146"><ele>464.5714285714286</ele><time>2026-04-04T13:17:19.999Z</time></trkpt><trkpt lat="40.02808257318284" lon="9.666786436179363"><ele>461.1428571428572</ele><time>2026-04-04T13:17:20.999Z</time></trkpt><trkpt lat="40.02801372551281" lon="9.666800634622561"><ele>457.7142857142857</ele><time>2026-04-04T13:17:21.999Z</time></trkpt><trkpt lat="40.027939675439924" lon="9.66683176589329"><ele>454.28571428571433</ele><time>2026-04-04T13:17:22.999Z</time></trkpt><trkpt lat="40.02787301276373" lon="9.666840103692682"><ele>450.8571428571429</ele><time>2026-04-04T13:17:23.999Z</time></trkpt><trkpt lat="40.027800719335325" lon="9.6668537560404"><ele>447.42857142857144</ele><time>2026-04-04T13:17:24.999Z</time></trkpt><trkpt lat="40.02773226277678" lon="9.666871983976641"><ele>444.0</ele><time>2026-04-04T13:17:25.999Z</time></trkpt><trkpt lat="40.027665129378896" lon="9.666880392584572"><ele>444.0</ele><time>2026-04-04T13:17:26.999Z</time></trkpt><trkpt lat="40.02759778614804" lon="9.666909130683756"><ele>444.0</ele><time>2026-04-04T13:17:27.999Z</time></trkpt><trkpt lat="40.027529429459435" lon="9.66696186106202"><ele>444.0</ele><time>2026-04-04T13:17:28.999Z</time></trkpt><trkpt lat="40.027455695945044" lon="9.667058613327779"><ele>444.0</ele><time>2026-04-04T13:17:29.999Z</time></trkpt><trkpt lat="40.02737891155128" lon="9.667175073245978"><ele>444.0</ele><time>2026-04-04T13:17:30.999Z</time></trkpt><trkpt lat="40.027305572837236" lon="9.667276460440144"><ele>443.2</ele><time>2026-04-04T13:17:31.999Z</time></trkpt><trkpt lat="40.02723124755381" lon="9.667359617104765"><ele>442.4</ele><time>2026-04-04T13:17:32.999Z</time></trkpt><trkpt lat="40.02715891581673" lon="9.667437046856211"><ele>441.6</ele><time>2026-04-04T13:17:33.999Z</time></trkpt><trkpt lat="40.02707937441281" lon="9.667533833561622"><ele>440.8</ele><time>2026-04-04T13:17:34.999Z</time></trkpt><trkpt lat="40.02698671546528" lon="9.667650286910954"><ele>440.0</ele><time>2026-04-04T13:17:35.999Z</time></trkpt><trkpt lat="40.026892549214026" lon="9.667775807877838"><ele>438.5</ele><time>2026-04-04T13:17:36.999Z</time></trkpt><trkpt lat="40.026806813699764" lon="9.667899211558966"><ele>437.0</ele><time>2026-04-04T13:17:37.999Z</time></trkpt><trkpt lat="40.02672749369281" lon="9.66801468036347"><ele>435.5</ele><time>2026-04-04T13:17:38.999Z</time></trkpt><trkpt lat="40.02665210312291" lon="9.668123168457207"><ele>434.0</ele><time>2026-04-04T13:17:39.999Z</time></trkpt><trkpt lat="40.02657352365699" lon="9.668226039056677"><ele>434.0</ele><time>2026-04-04T13:17:40.999Z</time></trkpt><trkpt lat="40.026498314349375" lon="9.668324639696168"><ele>434.0</ele><time>2026-04-04T13:17:41.999Z</time></trkpt><trkpt lat="40.02642467290292" lon="9.668436284808593"><ele>434.0</ele><time>2026-04-04T13:17:42.999Z</time></trkpt><trkpt lat="40.02636350488122" lon="9.668554543633826"><ele>434.0</ele><time>2026-04-04T13:17:43.999Z</time></trkpt><trkpt lat="40.026308580453694" lon="9.668666991250353"><ele>434.0</ele><time>2026-04-04T13:17:44.999Z</time></trkpt><trkpt lat="40.02625868825047" lon="9.668775031347408"><ele>436.6</ele><time>2026-04-04T13:17:45.999Z</time></trkpt><trkpt lat="40.02620738979824" lon="9.668877497806871"><ele>439.2</ele><time>2026-04-04T13:17:46.999Z</time></trkpt><trkpt lat="40.02615418944543" lon="9.668980635120825"><ele>441.80000000000007</ele><time>2026-04-04T13:17:47.999Z</time></trkpt><trkpt lat="40.026092017357186" lon="9.669091252377452"><ele>444.40000000000003</ele><time>2026-04-04T13:17:48.999Z</time></trkpt><trkpt lat="40.02602746264491" lon="9.669200820393854"><ele>447.0</ele><time>2026-04-04T13:17:49.999Z</time></trkpt><trkpt lat="40.02595917800836" lon="9.669302969305292"><ele>447.0</ele><time>2026-04-04T13:17:50.999Z</time></trkpt><trkpt lat="40.025878296141165" lon="9.669390187897763"><ele>447.00000000000006</ele><time>2026-04-04T13:17:51.999Z</time></trkpt><trkpt lat="40.02578886352393" lon="9.66945936731021"><ele>447.00000000000006</ele><time>2026-04-04T13:17:52.999Z</time></trkpt><trkpt lat="40.025699153130965" lon="9.669496850739542"><ele>447.0</ele><time>2026-04-04T13:17:53.999Z</time></trkpt><trkpt lat="40.02561394693201" lon="9.669521752114619"><ele>447.0</ele><time>2026-04-04T13:17:54.999Z</time></trkpt><trkpt lat="40.02553666623894" lon="9.669541803188979"><ele>445.40000000000003</ele><time>2026-04-04T13:17:55.999Z</time></trkpt><trkpt lat="40.02546292987913" lon="9.66957233456405"><ele>443.80000000000007</ele><time>2026-04-04T13:17:56.999Z</time></trkpt><trkpt lat="40.025388643750226" lon="9.669628307670749"><ele>442.2</ele><time>2026-04-04T13:17:57.999Z</time></trkpt><trkpt lat="40.02529611423701" lon="9.669702882562285"><ele>440.6</ele><time>2026-04-04T13:17:58.999Z</time></trkpt><trkpt lat="40.025197101587246" lon="9.669794188059525"><ele>439.0</ele><time>2026-04-04T13:17:59.999Z</time></trkpt><trkpt lat="40.02510657247099" lon="9.66991176407337"><ele>439.0</ele><time>2026-04-04T13:18:00.999Z</time></trkpt><trkpt lat="40.02503284391162" lon="9.670048524966617"><ele>439.0</ele><time>2026-04-04T13:18:01.999Z</time></trkpt><trkpt lat="40.02497058566456" lon="9.670202072328804"><ele>439.0</ele><time>2026-04-04T13:18:02.999Z</time></trkpt><trkpt lat="40.02491433036678" lon="9.670336830806928"><ele>439.0</ele><time>2026-04-04T13:18:03.999Z</time></trkpt><trkpt lat="40.02485762048576" lon="9.670455193691408"><ele>438.4</ele><time>2026-04-04T13:18:04.999Z</time></trkpt><trkpt lat="40.024799368415444" lon="9.670553541692792"><ele>437.79999999999995</ele><time>2026-04-04T13:18:05.999Z</time></trkpt><trkpt lat="40.02473249919358" lon="9.670647035850688"><ele>437.20000000000005</ele><time>2026-04-04T13:18:06.999Z</time></trkpt><trkpt lat="40.0246370211102" lon="9.670717576204146"><ele>436.6</ele><time>2026-04-04T13:18:07.999Z</time></trkpt><trkpt lat="40.02453104892799" lon="9.670768124309586"><ele>436.0</ele><time>2026-04-04T13:18:08.999Z</time></trkpt><trkpt lat="40.02441860383405" lon="9.670803372777018"><ele>436.0</ele><time>2026-04-04T13:18:09.999Z</time></trkpt><trkpt lat="40.024288791932086" lon="9.670821659535543"><ele>436.0</ele><time>2026-04-04T13:18:10.999Z</time></trkpt><trkpt lat="40.02415724025881" lon="9.67081290287032"><ele>436.0</ele><time>2026-04-04T13:18:11.999Z</time></trkpt><trkpt lat="40.02403528129212" lon="9.670808664311789"><ele>436.0</ele><time>2026-04-04T13:18:12.999Z</time></trkpt><trkpt lat="40.02392079169213" lon="9.670830130185399"><ele>437.0</ele><time>2026-04-04T13:18:13.999Z</time></trkpt><trkpt lat="40.02380265722809" lon="9.670881844251047"><ele>438.0</ele><time>2026-04-04T13:18:14.999Z</time></trkpt><trkpt lat="40.02368912222768" lon="9.67096251276477"><ele>439.0</ele><time>2026-04-04T13:18:15.999Z</time></trkpt><trkpt lat="40.02357565262147" lon="9.671058017433738"><ele>440.0</ele><time>2026-04-04T13:18:16.999Z</time></trkpt><trkpt lat="40.023469518174124" lon="9.671172723964785"><ele>440.0</ele><time>2026-04-04T13:18:17.999Z</time></trkpt><trkpt lat="40.023375005173385" lon="9.67128758752327"><ele>440.0</ele><time>2026-04-04T13:18:18.999Z</time></trkpt><trkpt lat="40.02327239576221" lon="9.671406449924392"><ele>440.0</ele><time>2026-04-04T13:18:19.999Z</time></trkpt><trkpt lat="40.02315767839444" lon="9.671555825248918"><ele>440.0</ele><time>2026-04-04T13:18:20.999Z</time></trkpt><trkpt lat="40.023038273284605" lon="9.671768509654822"><ele>435.3333333333333</ele><time>2026-04-04T13:18:21.999Z</time></trkpt><trkpt lat="40.02292012716618" lon="9.672009060832893"><ele>430.66666666666663</ele><time>2026-04-04T13:18:22.999Z</time></trkpt><trkpt lat="40.022791126456475" lon="9.672238440212146"><ele>426.0</ele><time>2026-04-04T13:18:23.999Z</time></trkpt><trkpt lat="40.02262626361317" lon="9.672437776423488"><ele>419.66666666666663</ele><time>2026-04-04T13:18:24.999Z</time></trkpt><trkpt lat="40.02244640970983" lon="9.672603800954674"><ele>413.3333333333333</ele><time>2026-04-04T13:18:25.999Z</time></trkpt><trkpt lat="40.022273133048245" lon="9.672770698239704"><ele>407.0</ele><time>2026-04-04T13:18:26.999Z</time></trkpt><trkpt lat="40.02212202879245" lon="9.672943979223808"><ele>407.0</ele><time>2026-04-04T13:18:27.999Z</time></trkpt><trkpt lat="40.02197773395523" lon="9.673154489641506"><ele>407.0</ele><time>2026-04-04T13:18:28.999Z</time></trkpt><trkpt lat="40.02185451585301" lon="9.673380787684216"><ele>407.0</ele><time>2026-04-04T13:18:29.999Z</time></trkpt><trkpt lat="40.02173186244955" lon="9.673595038451333"><ele>405.3333333333333</ele><time>2026-04-04T13:18:30.999Z</time></trkpt><trkpt lat="40.021583395725926" lon="9.67378831764097"><ele>403.66666666666663</ele><time>2026-04-04T13:18:31.999Z</time></trkpt><trkpt lat="40.0214204737262" lon="9.673974761825571"><ele>402.0</ele><time>2026-04-04T13:18:32.999Z</time></trkpt><trkpt lat="40.021272179988124" lon="9.674156661214692"><ele>402.0</ele><time>2026-04-04T13:18:33.999Z</time></trkpt><trkpt lat="40.02113780169065" lon="9.674332604861995"><ele>402.0</ele><time>2026-04-04T13:18:34.999Z</time></trkpt><trkpt lat="40.02101269236478" lon="9.674516247213898"><ele>402.0</ele><time>2026-04-04T13:18:35.999Z</time></trkpt><trkpt lat="40.02089931733948" lon="9.674715561229307"><ele>394.0</ele><time>2026-04-04T13:18:36.999Z</time></trkpt><trkpt lat="40.02079750580548" lon="9.674937176914783"><ele>386.0</ele><time>2026-04-04T13:18:37.999Z</time></trkpt><trkpt lat="40.02071358135372" lon="9.675174527930311"><ele>378.0</ele><time>2026-04-04T13:18:38.999Z</time></trkpt><trkpt lat="40.02065244153103" lon="9.675427417950742"><ele>378.0</ele><time>2026-04-04T13:18:39.999Z</time></trkpt><trkpt lat="40.02060258283204" lon="9.675708379341403"><ele>378.0</ele><time>2026-04-04T13:18:40.999Z</time></trkpt><trkpt lat="40.020559788928445" lon="9.675982573256679"><ele>378.0</ele><time>2026-04-04T13:18:41.999Z</time></trkpt><trkpt lat="40.02051382244603" lon="9.676239704325507"><ele>379.3333333333333</ele><time>2026-04-04T13:18:42.999Z</time></trkpt><trkpt lat="40.020465037594796" lon="9.676458456496906"><ele>380.66666666666663</ele><time>2026-04-04T13:18:43.999Z</time></trkpt><trkpt lat="40.02041336675136" lon="9.676636976675201"><ele>382.0</ele><time>2026-04-04T13:18:44.999Z</time></trkpt><trkpt lat="40.020346625496806" lon="9.676793496695941"><ele>385.75</ele><time>2026-04-04T13:18:45.999Z</time></trkpt><trkpt lat="40.02029982838055" lon="9.676937986998992"><ele>389.5</ele><time>2026-04-04T13:18:46.999Z</time></trkpt><trkpt lat="40.02029675873847" lon="9.67711398852719"><ele>393.25</ele><time>2026-04-04T13:18:47.999Z</time></trkpt><trkpt lat="40.02030134633458" lon="9.677304728662497"><ele>397.0</ele><time>2026-04-04T13:18:48.999Z</time></trkpt><trkpt lat="40.020267508397616" lon="9.677462265677605"><ele>397.0</ele><time>2026-04-04T13:18:49.999Z</time></trkpt><trkpt lat="40.02020773936946" lon="9.677597696418507"><ele>397.0</ele><time>2026-04-04T13:18:50.999Z</time></trkpt><trkpt lat="40.02011732568045" lon="9.677716480888074"><ele>397.0</ele><time>2026-04-04T13:18:51.999Z</time></trkpt><trkpt lat="40.019991901067485" lon="9.677804484919909"><ele>397.0</ele><time>2026-04-04T13:18:52.999Z</time></trkpt><trkpt lat="40.0198743362746" lon="9.677923863384494"><ele>399.5</ele><time>2026-04-04T13:18:53.999Z</time></trkpt><trkpt lat="40.01977769471456" lon="9.678095636736838"><ele>402.0</ele><time>2026-04-04T13:18:54.999Z</time></trkpt><trkpt lat="40.01971230496446" lon="9.67825123775799"><ele>404.5</ele><time>2026-04-04T13:18:55.999Z</time></trkpt><trkpt lat="40.01964409270661" lon="9.678362495571134"><ele>407.0</ele><time>2026-04-04T13:18:56.999Z</time></trkpt><trkpt lat="40.01955760405332" lon="9.678426070379052"><ele>407.0</ele><time>2026-04-04T13:18:57.999Z</time></trkpt><trkpt lat="40.019453343970255" lon="9.678429462155236"><ele>407.0</ele><time>2026-04-04T13:18:58.999Z</time></trkpt><trkpt lat="40.019331696505176" lon="9.678378816843045"><ele>407.0</ele><time>2026-04-04T13:18:59.999Z</time></trkpt><trkpt lat="40.01918381039692" lon="9.678311407161674"><ele>407.0</ele><time>2026-04-04T13:19:00.999Z</time></trkpt><trkpt lat="40.019016333025235" lon="9.678267233573468"><ele>405.66666666666663</ele><time>2026-04-04T13:19:01.999Z</time></trkpt><trkpt lat="40.01882689309357" lon="9.678230628790939"><ele>404.33333333333337</ele><time>2026-04-04T13:19:02.999Z</time></trkpt><trkpt lat="40.018631399294605" lon="9.678197965579534"><ele>403.0</ele><time>2026-04-04T13:19:03.999Z</time></trkpt><trkpt lat="40.01844228296683" lon="9.67818100127307"><ele>402.0</ele><time>2026-04-04T13:19:04.999Z</time></trkpt><trkpt lat="40.01824856791133" lon="9.678188101864452"><ele>401.0</ele><time>2026-04-04T13:19:05.999Z</time></trkpt><trkpt lat="40.01804858097625" lon="9.678215201268006"><ele>400.0</ele><time>2026-04-04T13:19:06.999Z</time></trkpt><trkpt lat="40.017882387878004" lon="9.678238745693607"><ele>400.0</ele><time>2026-04-04T13:19:07.999Z</time></trkpt><trkpt lat="40.017747797225994" lon="9.678250418716978"><ele>400.0</ele><time>2026-04-04T13:19:08.999Z</time></trkpt><trkpt lat="40.01763791328538" lon="9.678231776641775"><ele>400.0</ele><time>2026-04-04T13:19:09.999Z</time></trkpt><trkpt lat="40.01754919896257" lon="9.678120942285654"><ele>400.0</ele><time>2026-04-04T13:19:10.999Z</time></trkpt><trkpt lat="40.01743695448394" lon="9.678034107367655"><ele>395.25</ele><time>2026-04-04T13:19:11.999Z</time></trkpt><trkpt lat="40.017338528361826" lon="9.677967182810422"><ele>390.5</ele><time>2026-04-04T13:19:12.999Z</time></trkpt><trkpt lat="40.01723189994719" lon="9.677960826905135"><ele>385.75</ele><time>2026-04-04T13:19:13.999Z</time></trkpt><trkpt lat="40.01711354973808" lon="9.678016906459556"><ele>381.0</ele><time>2026-04-04T13:19:14.999Z</time></trkpt><trkpt lat="40.01699433063614" lon="9.678138417125421"><ele>381.0</ele><time>2026-04-04T13:19:15.999Z</time></trkpt><trkpt lat="40.01687392913091" lon="9.67829014891549"><ele>381.0</ele><time>2026-04-04T13:19:16.999Z</time></trkpt><trkpt lat="40.01675289180155" lon="9.678460053055176"><ele>381.0</ele><time>2026-04-04T13:19:17.999Z</time></trkpt><trkpt lat="40.01663675139684" lon="9.678578149489175"><ele>394.0</ele><time>2026-04-04T13:19:18.999Z</time></trkpt><trkpt lat="40.016499064230246" lon="9.678626302360188"><ele>407.0</ele><time>2026-04-04T13:19:19.999Z</time></trkpt><trkpt lat="40.016343065231894" lon="9.67863589825429"><ele>420.0</ele><time>2026-04-04T13:19:20.999Z</time></trkpt><trkpt lat="40.01615055059166" lon="9.678653457084895"><ele>420.0</ele><time>2026-04-04T13:19:21.999Z</time></trkpt><trkpt lat="40.01595818584636" lon="9.678629814692027"><ele>420.0</ele><time>2026-04-04T13:19:22.999Z</time></trkpt><trkpt lat="40.01579366773041" lon="9.67856607248706"><ele>420.0</ele><time>2026-04-04T13:19:23.999Z</time></trkpt><trkpt lat="40.01564974308073" lon="9.678538978465207"><ele>415.75</ele><time>2026-04-04T13:19:24.999Z</time></trkpt><trkpt lat="40.01550934520289" lon="9.6785436716606"><ele>411.5</ele><time>2026-04-04T13:19:25.999Z</time></trkpt><trkpt lat="40.01537036606959" lon="9.678600221385285"><ele>407.25</ele><time>2026-04-04T13:19:26.999Z</time></trkpt><trkpt lat="40.01523562675518" lon="9.678621130754989"><ele>403.0</ele><time>2026-04-04T13:19:27.999Z</time></trkpt><trkpt lat="40.01510839374418" lon="9.678576358153544"><ele>390.33333333333337</ele><time>2026-04-04T13:19:28.999Z</time></trkpt><trkpt lat="40.01497571876283" lon="9.678470552545026"><ele>377.6666666666667</ele><time>2026-04-04T13:19:29.999Z</time></trkpt><trkpt lat="40.01483978662122" lon="9.678391173438847"><ele>365.0</ele><time>2026-04-04T13:19:30.999Z</time></trkpt><trkpt lat="40.01468787820818" lon="9.678374911146303"><ele>365.0</ele><time>2026-04-04T13:19:31.999Z</time></trkpt><trkpt lat="40.01453105820995" lon="9.678410760374264"><ele>365.0</ele><time>2026-04-04T13:19:32.999Z</time></trkpt><trkpt lat="40.01438573983125" lon="9.67846990364495"><ele>365.0</ele><time>2026-04-04T13:19:33.999Z</time></trkpt><trkpt lat="40.01427726523951" lon="9.678543135748434"><ele>365.0</ele><time>2026-04-04T13:19:34.999Z</time></trkpt><trkpt lat="40.01418370155268" lon="9.678590940885776"><ele>371.6</ele><time>2026-04-04T13:19:35.999Z</time></trkpt><trkpt lat="40.01409387794255" lon="9.678572514901843"><ele>378.2</ele><time>2026-04-04T13:19:36.999Z</time></trkpt><trkpt lat="40.014018506711025" lon="9.678488294424644"><ele>384.79999999999995</ele><time>2026-04-04T13:19:37.999Z</time></trkpt><trkpt lat="40.01395179224759" lon="9.678355633432684"><ele>391.4</ele><time>2026-04-04T13:19:38.999Z</time></trkpt><trkpt lat="40.013962503783574" lon="9.67818445805015"><ele>398.0</ele><time>2026-04-04T13:19:39.999Z</time></trkpt><trkpt lat="40.01394516506629" lon="9.677986471090822"><ele>398.0</ele><time>2026-04-04T13:19:40.999Z</time></trkpt><trkpt lat="40.013887711303994" lon="9.67779829855048"><ele>398.0</ele><time>2026-04-04T13:19:41.999Z</time></trkpt><trkpt lat="40.01381450014598" lon="9.677624817169875"><ele>398.0</ele><time>2026-04-04T13:19:42.999Z</time></trkpt><trkpt lat="40.013708043968" lon="9.677481302355647"><ele>391.75</ele><time>2026-04-04T13:19:43.999Z</time></trkpt><trkpt lat="40.013587286344844" lon="9.677359909324288"><ele>385.5</ele><time>2026-04-04T13:19:44.999Z</time></trkpt><trkpt lat="40.013472077741206" lon="9.677268091285308"><ele>379.25</ele><time>2026-04-04T13:19:45.999Z</time></trkpt><trkpt lat="40.01339331082375" lon="9.677176184234208"><ele>373.0</ele><time>2026-04-04T13:19:46.999Z</time></trkpt><trkpt lat="40.01334113380129" lon="9.677046175885353"><ele>371.5</ele><time>2026-04-04T13:19:47.999Z</time></trkpt><trkpt lat="40.013333028028846" lon="9.676909769992786"><ele>370.0</ele><time>2026-04-04T13:19:48.999Z</time></trkpt><trkpt lat="40.01339026063891" lon="9.67677989984069"><ele>368.5</ele><time>2026-04-04T13:19:49.999Z</time></trkpt><trkpt lat="40.01348381226017" lon="9.67666594806891"><ele>367.0</ele><time>2026-04-04T13:19:50.999Z</time></trkpt><trkpt lat="40.01359321297961" lon="9.676515489727697"><ele>367.0</ele><time>2026-04-04T13:19:51.999Z</time></trkpt><trkpt lat="40.01368209634667" lon="9.676345229625458"><ele>367.0</ele><time>2026-04-04T13:19:52.999Z</time></trkpt><trkpt lat="40.013770291642906" lon="9.67616731717689"><ele>367.0</ele><time>2026-04-04T13:19:53.999Z</time></trkpt><trkpt lat="40.01382718649372" lon="9.675960073336991"><ele>366.25</ele><time>2026-04-04T13:19:54.999Z</time></trkpt><trkpt lat="40.01384638515386" lon="9.675771309376415"><ele>365.5</ele><time>2026-04-04T13:19:55.999Z</time></trkpt><trkpt lat="40.013839605096884" lon="9.675606953415585"><ele>364.75</ele><time>2026-04-04T13:19:56.999Z</time></trkpt><trkpt lat="40.01380601607695" lon="9.675445203085756"><ele>364.0</ele><time>2026-04-04T13:19:57.999Z</time></trkpt><trkpt lat="40.01372696736569" lon="9.675300622473415"><ele>362.0</ele><time>2026-04-04T13:19:58.999Z</time></trkpt><trkpt lat="40.01362683083783" lon="9.675184683300978"><ele>360.0</ele><time>2026-04-04T13:19:59.999Z</time></trkpt><trkpt lat="40.01354329587655" lon="9.675097828433017"><ele>358.0</ele><time>2026-04-04T13:20:00.999Z</time></trkpt><trkpt lat="40.01350235705523" lon="9.674996502991062"><ele>356.0</ele><time>2026-04-04T13:20:01.999Z</time></trkpt><trkpt lat="40.01353951608145" lon="9.674870085458371"><ele>354.0</ele><time>2026-04-04T13:20:02.999Z</time></trkpt><trkpt lat="40.01358825295907" lon="9.674723966179586"><ele>354.0</ele><time>2026-04-04T13:20:03.999Z</time></trkpt><trkpt lat="40.01362357124131" lon="9.674545456147861"><ele>354.0</ele><time>2026-04-04T13:20:04.999Z</time></trkpt><trkpt lat="40.0136473783256" lon="9.674389747323088"><ele>354.0</ele><time>2026-04-04T13:20:05.999Z</time></trkpt><trkpt lat="40.01362273229818" lon="9.674252161740556"><ele>354.0</ele><time>2026-04-04T13:20:06.999Z</time></trkpt><trkpt lat="40.01356169662065" lon="9.674126880230775"><ele>351.25</ele><time>2026-04-04T13:20:07.999Z</time></trkpt><trkpt lat="40.01346994804237" lon="9.674022225552745"><ele>348.5</ele><time>2026-04-04T13:20:08.999Z</time></trkpt><trkpt lat="40.01336439562827" lon="9.673906712286442"><ele>345.75</ele><time>2026-04-04T13:20:09.999Z</time></trkpt><trkpt lat="40.013306333594386" lon="9.673744917617222"><ele>343.0</ele><time>2026-04-04T13:20:10.999Z</time></trkpt><trkpt lat="40.01327275726705" lon="9.673571483886759"><ele>342.75</ele><time>2026-04-04T13:20:11.999Z</time></trkpt><trkpt lat="40.013216385576605" lon="9.673415887297924"><ele>342.5</ele><time>2026-04-04T13:20:12.999Z</time></trkpt><trkpt lat="40.01313216840835" lon="9.673261395683825"><ele>342.25</ele><time>2026-04-04T13:20:13.999Z</time></trkpt><trkpt lat="40.01301600998371" lon="9.673120029073644"><ele>342.0</ele><time>2026-04-04T13:20:14.999Z</time></trkpt><trkpt lat="40.012910773015584" lon="9.673004289935335"><ele>342.0</ele><time>2026-04-04T13:20:15.999Z</time></trkpt><trkpt lat="40.012830092518826" lon="9.672896577048215"><ele>342.0</ele><time>2026-04-04T13:20:16.999Z</time></trkpt><trkpt lat="40.01275957629732" lon="9.6728026161653"><ele>342.0</ele><time>2026-04-04T13:20:17.999Z</time></trkpt><trkpt lat="40.01268369775491" lon="9.672727989936643"><ele>342.0</ele><time>2026-04-04T13:20:18.999Z</time></trkpt><trkpt lat="40.01259718532249" lon="9.672678137686145"><ele>342.0</ele><time>2026-04-04T13:20:19.999Z</time></trkpt><trkpt lat="40.012504724715484" lon="9.672662445860663"><ele>341.40000000000003</ele><time>2026-04-04T13:20:20.999Z</time></trkpt><trkpt lat="40.012409780687655" lon="9.67267543269292"><ele>340.8</ele><time>2026-04-04T13:20:21.999Z</time></trkpt><trkpt lat="40.012308423718395" lon="9.67272094635196"><ele>340.2</ele><time>2026-04-04T13:20:22.999Z</time></trkpt><trkpt lat="40.01221145000915" lon="9.672823822786105"><ele>339.6</ele><time>2026-04-04T13:20:23.999Z</time></trkpt><trkpt lat="40.0121328248037" lon="9.672923177228942"><ele>339.0</ele><time>2026-04-04T13:20:24.999Z</time></trkpt><trkpt lat="40.01206872065815" lon="9.673007172735982"><ele>339.0</ele><time>2026-04-04T13:20:25.999Z</time></trkpt><trkpt lat="40.01198857686221" lon="9.673041864137458"><ele>339.0</ele><time>2026-04-04T13:20:26.999Z</time></trkpt><trkpt lat="40.0119040430556" lon="9.673020066168815"><ele>339.0</ele><time>2026-04-04T13:20:27.999Z</time></trkpt><trkpt lat="40.01181738025702" lon="9.67295407817733"><ele>339.0</ele><time>2026-04-04T13:20:28.999Z</time></trkpt><trkpt lat="40.011710440043075" lon="9.672854295832678"><ele>339.0</ele><time>2026-04-04T13:20:29.999Z</time></trkpt><trkpt lat="40.01158579325977" lon="9.67274729777196"><ele>337.75</ele><time>2026-04-04T13:20:30.999Z</time></trkpt><trkpt lat="40.0114731091039" lon="9.672646114156867"><ele>336.5</ele><time>2026-04-04T13:20:31.999Z</time></trkpt><trkpt lat="40.011368069453525" lon="9.672559479929395"><ele>335.25</ele><time>2026-04-04T13:20:32.999Z</time></trkpt><trkpt lat="40.01127498882166" lon="9.672478339712614"><ele>334.0</ele><time>2026-04-04T13:20:33.999Z</time></trkpt><trkpt lat="40.01117658952874" lon="9.67239408918765"><ele>334.0</ele><time>2026-04-04T13:20:34.999Z</time></trkpt><trkpt lat="40.01111436482335" lon="9.672282102522377"><ele>334.0</ele><time>2026-04-04T13:20:35.999Z</time></trkpt><trkpt lat="40.01107016556455" lon="9.67216338805948"><ele>334.0</ele><time>2026-04-04T13:20:36.999Z</time></trkpt><trkpt lat="40.01101738855293" lon="9.67202843425546"><ele>334.0</ele><time>2026-04-04T13:20:37.999Z</time></trkpt><trkpt lat="40.01096954955627" lon="9.671902879154658"><ele>334.0</ele><time>2026-04-04T13:20:38.999Z</time></trkpt><trkpt lat="40.01093068036658" lon="9.671775677493425"><ele>330.25</ele><time>2026-04-04T13:20:39.999Z</time></trkpt><trkpt lat="40.010923375726485" lon="9.671640442273947"><ele>326.5</ele><time>2026-04-04T13:20:40.999Z</time></trkpt><trkpt lat="40.010934513014504" lon="9.67148260928552"><ele>322.75</ele><time>2026-04-04T13:20:41.999Z</time></trkpt><trkpt lat="40.010961661059994" lon="9.671322008421308"><ele>319.0</ele><time>2026-04-04T13:20:42.999Z</time></trkpt><trkpt lat="40.01099798793437" lon="9.671170792134944"><ele>319.0</ele><time>2026-04-04T13:20:43.999Z</time></trkpt><trkpt lat="40.01103889528245" lon="9.67103438852693"><ele>319.0</ele><time>2026-04-04T13:20:44.999Z</time></trkpt><trkpt lat="40.01108099345698" lon="9.67090151396203"><ele>319.0</ele><time>2026-04-04T13:20:45.999Z</time></trkpt><trkpt lat="40.011122176758875" lon="9.670749563946119"><ele>319.0</ele><time>2026-04-04T13:20:46.999Z</time></trkpt><trkpt lat="40.01117597089491" lon="9.670609612840739"><ele>319.0</ele><time>2026-04-04T13:20:47.999Z</time></trkpt><trkpt lat="40.011234679873326" lon="9.67047295649041"><ele>319.0</ele><time>2026-04-04T13:20:48.999Z</time></trkpt><trkpt lat="40.01128567862641" lon="9.670346445758298"><ele>319.0</ele><time>2026-04-04T13:20:49.999Z</time></trkpt><trkpt lat="40.01132510294447" lon="9.670219388925414"><ele>319.0</ele><time>2026-04-04T13:20:50.999Z</time></trkpt><trkpt lat="40.01134937682113" lon="9.670081093014527"><ele>319.0</ele><time>2026-04-04T13:20:51.999Z</time></trkpt><trkpt lat="40.0113550112479" lon="9.66994123177536"><ele>317.0</ele><time>2026-04-04T13:20:52.999Z</time></trkpt><trkpt lat="40.0113234536994" lon="9.66980058864351"><ele>315.0</ele><time>2026-04-04T13:20:53.999Z</time></trkpt><trkpt lat="40.011246579694564" lon="9.669654612426042"><ele>313.0</ele><time>2026-04-04T13:20:54.999Z</time></trkpt><trkpt lat="40.011132433477776" lon="9.669543067880028"><ele>311.0</ele><time>2026-04-04T13:20:55.999Z</time></trkpt><trkpt lat="40.01102044826631" lon="9.669459026502363"><ele>306.0</ele><time>2026-04-04T13:20:56.999Z</time></trkpt><trkpt lat="40.01092527249868" lon="9.669365131025389"><ele>301.0</ele><time>2026-04-04T13:20:57.999Z</time></trkpt><trkpt lat="40.01086485815513" lon="9.669208259629743"><ele>296.0</ele><time>2026-04-04T13:20:58.999Z</time></trkpt><trkpt lat="40.010795557202854" lon="9.669047401199334"><ele>291.0</ele><time>2026-04-04T13:20:59.999Z</time></trkpt><trkpt lat="40.01074672599831" lon="9.66888589435614"><ele>289.8</ele><time>2026-04-04T13:21:00.999Z</time></trkpt><trkpt lat="40.01069337036819" lon="9.66874626464843"><ele>288.6</ele><time>2026-04-04T13:21:01.999Z</time></trkpt><trkpt lat="40.01064396174694" lon="9.6686183722865"><ele>287.4</ele><time>2026-04-04T13:21:02.999Z</time></trkpt><trkpt lat="40.010593694424166" lon="9.668492465981535"><ele>286.2</ele><time>2026-04-04T13:21:03.999Z</time></trkpt><trkpt lat="40.010526282992544" lon="9.668383605538063"><ele>285.0</ele><time>2026-04-04T13:21:04.999Z</time></trkpt><trkpt lat="40.010435470140564" lon="9.668306237591652"><ele>282.8</ele><time>2026-04-04T13:21:05.999Z</time></trkpt><trkpt lat="40.01033169829449" lon="9.668243509162995"><ele>280.6</ele><time>2026-04-04T13:21:06.999Z</time></trkpt><trkpt lat="40.01023059020843" lon="9.66819723129396"><ele>278.4</ele><time>2026-04-04T13:21:07.999Z</time></trkpt><trkpt lat="40.01014201088528" lon="9.668168481403873"><ele>276.2</ele><time>2026-04-04T13:21:08.999Z</time></trkpt><trkpt lat="40.01005506782914" lon="9.668181095338348"><ele>274.0</ele><time>2026-04-04T13:21:09.999Z</time></trkpt><trkpt lat="40.00998386093328" lon="9.668252002839344"><ele>266.59999999999997</ele><time>2026-04-04T13:21:10.999Z</time></trkpt><trkpt lat="40.009930740871575" lon="9.668353655847579"><ele>259.2</ele><time>2026-04-04T13:21:11.999Z</time></trkpt><trkpt lat="40.00991051386835" lon="9.668495090434774"><ele>251.79999999999998</ele><time>2026-04-04T13:21:12.999Z</time></trkpt><trkpt lat="40.009929883208564" lon="9.668654439681182"><ele>244.39999999999998</ele><time>2026-04-04T13:21:13.999Z</time></trkpt><trkpt lat="40.009960775474916" lon="9.668806243076524"><ele>237.0</ele><time>2026-04-04T13:21:14.999Z</time></trkpt><trkpt lat="40.009963529310554" lon="9.668940760549077"><ele>237.0</ele><time>2026-04-04T13:21:15.999Z</time></trkpt><trkpt lat="40.00993022912571" lon="9.669068878559102"><ele>237.0</ele><time>2026-04-04T13:21:16.999Z</time></trkpt><trkpt lat="40.00986792604167" lon="9.669176528814758"><ele>237.0</ele><time>2026-04-04T13:21:17.999Z</time></trkpt><trkpt lat="40.00977997268425" lon="9.66928997372432"><ele>237.0</ele><time>2026-04-04T13:21:18.999Z</time></trkpt><trkpt lat="40.00970516862327" lon="9.669406114117763"><ele>237.0</ele><time>2026-04-04T13:21:19.999Z</time></trkpt><trkpt lat="40.00964306365091" lon="9.669590315517029"><ele>244.0</ele><time>2026-04-04T13:21:20.999Z</time></trkpt><trkpt lat="40.00960060288676" lon="9.669842760815627"><ele>251.0</ele><time>2026-04-04T13:21:21.999Z</time></trkpt><trkpt lat="40.009536559639976" lon="9.670086432837296"><ele>258.0</ele><time>2026-04-04T13:21:22.999Z</time></trkpt><trkpt lat="40.0094832695644" lon="9.670269706150922"><ele>260.75</ele><time>2026-04-04T13:21:23.999Z</time></trkpt><trkpt lat="40.00943648747459" lon="9.670417662775892"><ele>263.5</ele><time>2026-04-04T13:21:24.999Z</time></trkpt><trkpt lat="40.00937953788761" lon="9.670535232795938"><ele>266.25</ele><time>2026-04-04T13:21:25.999Z</time></trkpt><trkpt lat="40.00928670976833" lon="9.670592561998772"><ele>269.0</ele><time>2026-04-04T13:21:26.999Z</time></trkpt><trkpt lat="40.00915760405107" lon="9.670615111587018"><ele>269.0</ele><time>2026-04-04T13:21:27.999Z</time></trkpt><trkpt lat="40.009010670686926" lon="9.670670070473937"><ele>269.0</ele><time>2026-04-04T13:21:28.999Z</time></trkpt><trkpt lat="40.00884343547209" lon="9.670741701739502"><ele>269.0</ele><time>2026-04-04T13:21:29.999Z</time></trkpt><trkpt lat="40.00868189291685" lon="9.670796858792638"><ele>269.0</ele><time>2026-04-04T13:21:30.999Z</time></trkpt><trkpt lat="40.00852760305364" lon="9.670851593079233"><ele>269.0</ele><time>2026-04-04T13:21:31.999Z</time></trkpt><trkpt lat="40.00837038304439" lon="9.67086833387859"><ele>269.0</ele><time>2026-04-04T13:21:32.999Z</time></trkpt><trkpt lat="40.00820745758327" lon="9.670815147971716"><ele>272.75</ele><time>2026-04-04T13:21:33.999Z</time></trkpt><trkpt lat="40.00805589876134" lon="9.670836859836212"><ele>276.5</ele><time>2026-04-04T13:21:34.999Z</time></trkpt><trkpt lat="40.0079443629675" lon="9.670836124614201"><ele>280.25</ele><time>2026-04-04T13:21:35.999Z</time></trkpt><trkpt lat="40.007843139367104" lon="9.670784767354673"><ele>284.0</ele><time>2026-04-04T13:21:36.999Z</time></trkpt><trkpt lat="40.00776665631185" lon="9.670635836730948"><ele>284.0</ele><time>2026-04-04T13:21:37.999Z</time></trkpt><trkpt lat="40.00764841824285" lon="9.670477449053337"><ele>284.0</ele><time>2026-04-04T13:21:38.999Z</time></trkpt><trkpt lat="40.00753211810795" lon="9.670263508115005"><ele>284.0</ele><time>2026-04-04T13:21:39.999Z</time></trkpt><trkpt lat="40.007397382229534" lon="9.670063997586947"><ele>281.0</ele><time>2026-04-04T13:21:40.999Z</time></trkpt><trkpt lat="40.007228488627256" lon="9.669875825164416"><ele>278.0</ele><time>2026-04-04T13:21:41.999Z</time></trkpt><trkpt lat="40.00704306022949" lon="9.669661608897986"><ele>278.0</ele><time>2026-04-04T13:21:42.999Z</time></trkpt><trkpt lat="40.006853378828225" lon="9.669442292596406"><ele>278.0</ele><time>2026-04-04T13:21:43.999Z</time></trkpt><trkpt lat="40.00667639618032" lon="9.669194740157456"><ele>267.0</ele><time>2026-04-04T13:21:44.999Z</time></trkpt><trkpt lat="40.00650701978045" lon="9.668964933520288"><ele>256.0</ele><time>2026-04-04T13:21:45.999Z</time></trkpt><trkpt lat="40.00635178090358" lon="9.668762982002232"><ele>249.33333333333331</ele><time>2026-04-04T13:21:46.999Z</time></trkpt><trkpt lat="40.0062067329503" lon="9.668590243866433"><ele>242.66666666666669</ele><time>2026-04-04T13:21:47.999Z</time></trkpt><trkpt lat="40.00607983491478" lon="9.668453470173327"><ele>236.0</ele><time>2026-04-04T13:21:48.999Z</time></trkpt><trkpt lat="40.00595730771637" lon="9.668344337587568"><ele>236.0</ele><time>2026-04-04T13:21:49.999Z</time></trkpt><trkpt lat="40.0058528843743" lon="9.66821045812402"><ele>236.0</ele><time>2026-04-04T13:21:50.999Z</time></trkpt><trkpt lat="40.005795267741775" lon="9.668041106048198"><ele>236.0</ele><time>2026-04-04T13:21:51.999Z</time></trkpt><trkpt lat="40.00574390352535" lon="9.667849579341379"><ele>236.0</ele><time>2026-04-04T13:21:52.999Z</time></trkpt><trkpt lat="40.005722504582906" lon="9.667626755989652"><ele>231.75</ele><time>2026-04-04T13:21:53.999Z</time></trkpt><trkpt lat="40.00569212411883" lon="9.66741873506186"><ele>227.5</ele><time>2026-04-04T13:21:54.999Z</time></trkpt><trkpt lat="40.00567804662944" lon="9.667244166428532"><ele>223.25</ele><time>2026-04-04T13:21:55.999Z</time></trkpt><trkpt lat="40.005620441629695" lon="9.667105620625723"><ele>219.0</ele><time>2026-04-04T13:21:56.999Z</time></trkpt><trkpt lat="40.00552595023778" lon="9.666988414494433"><ele>219.0</ele><time>2026-04-04T13:21:57.999Z</time></trkpt><trkpt lat="40.005401776277516" lon="9.666933865029547"><ele>219.0</ele><time>2026-04-04T13:21:58.999Z</time></trkpt><trkpt lat="40.00526188909498" lon="9.666917968095772"><ele>219.0</ele><time>2026-04-04T13:21:59.999Z</time></trkpt><trkpt lat="40.00512713213629" lon="9.666939127848842"><ele>219.0</ele><time>2026-04-04T13:22:00.999Z</time></trkpt><trkpt lat="40.00502219164006" lon="9.667012210792038"><ele>219.0</ele><time>2026-04-04T13:22:01.999Z</time></trkpt><trkpt lat="40.00495618945373" lon="9.66711535549609"><ele>218.99999999999997</ele><time>2026-04-04T13:22:02.999Z</time></trkpt><trkpt lat="40.004958586194626" lon="9.667243839245197"><ele>218.99999999999997</ele><time>2026-04-04T13:22:03.999Z</time></trkpt><trkpt lat="40.00500188326427" lon="9.667381109181749"><ele>219.0</ele><time>2026-04-04T13:22:04.999Z</time></trkpt><trkpt lat="40.00508059713011" lon="9.667516075149775"><ele>219.0</ele><time>2026-04-04T13:22:05.999Z</time></trkpt><trkpt lat="40.00518671055017" lon="9.667646274403475"><ele>219.33333333333331</ele><time>2026-04-04T13:22:06.999Z</time></trkpt><trkpt lat="40.00529848342255" lon="9.667779305329233"><ele>219.66666666666666</ele><time>2026-04-04T13:22:07.999Z</time></trkpt><trkpt lat="40.005375378703086" lon="9.667944533782595"><ele>220.0</ele><time>2026-04-04T13:22:09Z</time></trkpt><trkpt lat="40.005396514543" lon="9.668150820577084"><ele>220.0</ele><time>2026-04-04T13:22:10Z</time></trkpt><trkpt lat="40.005434181829266" lon="9.668327983646023"><ele>220.0</ele><time>2026-04-04T13:22:11Z</time></trkpt><trkpt lat="40.005434182223276" lon="9.668469958117033"><ele>220.0</ele><time>2026-04-04T13:22:12Z</time></trkpt><trkpt lat="40.005402604446026" lon="9.668578026919402"><ele>220.0</ele><time>2026-04-04T13:22:13Z</time></trkpt><trkpt lat="40.00531866821484" lon="9.668640690766454"><ele>220.0</ele><time>2026-04-04T13:22:14Z</time></trkpt><trkpt lat="40.005214541960704" lon="9.668615221600824"><ele>220.0</ele><time>2026-04-04T13:22:15Z</time></trkpt><trkpt lat="40.00508516019937" lon="9.668607496569026"><ele>220.0</ele><time>2026-04-04T13:22:16Z</time></trkpt><trkpt lat="40.004920710719794" lon="9.668577548415602"><ele>220.0</ele><time>2026-04-04T13:22:17Z</time></trkpt><trkpt lat="40.00473081336444" lon="9.668564318873896"><ele>213.0</ele><time>2026-04-04T13:22:18Z</time></trkpt><trkpt lat="40.00453873890585" lon="9.66854084617508"><ele>206.0</ele><time>2026-04-04T13:22:19Z</time></trkpt><trkpt lat="40.00437188380324" lon="9.668522335043166"><ele>199.0</ele><time>2026-04-04T13:22:20Z</time></trkpt><trkpt lat="40.00423118928577" lon="9.668521540474208"><ele>194.33333333333331</ele><time>2026-04-04T13:22:21Z</time></trkpt><trkpt lat="40.00410325989115" lon="9.668573406009997"><ele>189.66666666666666</ele><time>2026-04-04T13:22:22Z</time></trkpt><trkpt lat="40.00396509647156" lon="9.668683825075462"><ele>185.0</ele><time>2026-04-04T13:22:23Z</time></trkpt><trkpt lat="40.00381300406383" lon="9.668837926524699"><ele>195.66666666666666</ele><time>2026-04-04T13:22:24Z</time></trkpt><trkpt lat="40.00365483925711" lon="9.668968668369956"><ele>206.33333333333331</ele><time>2026-04-04T13:22:25Z</time></trkpt><trkpt lat="40.00350947190653" lon="9.66905339320691"><ele>217.0</ele><time>2026-04-04T13:22:26Z</time></trkpt><trkpt lat="40.00336435372782" lon="9.669064627376004"><ele>215.66666666666666</ele><time>2026-04-04T13:22:27Z</time></trkpt><trkpt lat="40.003235262020794" lon="9.668980641954406"><ele>214.33333333333331</ele><time>2026-04-04T13:22:28Z</time></trkpt><trkpt lat="40.003083213526864" lon="9.66891173502647"><ele>213.0</ele><time>2026-04-04T13:22:29Z</time></trkpt><trkpt lat="40.0029289946375" lon="9.668811243214378"><ele>213.0</ele><time>2026-04-04T13:22:30Z</time></trkpt><trkpt lat="40.00278602055074" lon="9.668734203118028"><ele>213.0</ele><time>2026-04-04T13:22:31Z</time></trkpt><trkpt lat="40.00265899971587" lon="9.66868762065845"><ele>213.0</ele><time>2026-04-04T13:22:32Z</time></trkpt><trkpt lat="40.002530232835134" lon="9.668704838396438"><ele>213.0</ele><time>2026-04-04T13:22:33Z</time></trkpt><trkpt lat="40.00239279975669" lon="9.668782749785372"><ele>210.66666666666669</ele><time>2026-04-04T13:22:34Z</time></trkpt><trkpt lat="40.002251904223286" lon="9.668923041062339"><ele>208.33333333333334</ele><time>2026-04-04T13:22:35Z</time></trkpt><trkpt lat="40.00211643463499" lon="9.669040870653728"><ele>206.0</ele><time>2026-04-04T13:22:36Z</time></trkpt><trkpt lat="40.001995460126565" lon="9.669102487382908"><ele>206.0</ele><time>2026-04-04T13:22:37Z</time></trkpt><trkpt lat="40.001869779820886" lon="9.669065269056185"><ele>206.0</ele><time>2026-04-04T13:22:38Z</time></trkpt><trkpt lat="40.00173414580982" lon="9.668993743460593"><ele>206.0</ele><time>2026-04-04T13:22:39Z</time></trkpt><trkpt lat="40.00156353132762" lon="9.66892304117914"><ele>208.66666666666669</ele><time>2026-04-04T13:22:40Z</time></trkpt><trkpt lat="40.00139818551033" lon="9.668820791480396"><ele>211.33333333333331</ele><time>2026-04-04T13:22:41Z</time></trkpt><trkpt lat="40.00125839146364" lon="9.668715997089153"><ele>214.0</ele><time>2026-04-04T13:22:42Z</time></trkpt><trkpt lat="40.00113568821325" lon="9.668582871523688"><ele>206.66666666666666</ele><time>2026-04-04T13:22:43Z</time></trkpt><trkpt lat="40.00102926196146" lon="9.668436056171698"><ele>199.33333333333331</ele><time>2026-04-04T13:22:44Z</time></trkpt><trkpt lat="40.00096867145202" lon="9.668236903054598"><ele>192.0</ele><time>2026-04-04T13:22:45Z</time></trkpt><trkpt lat="40.000883303918144" lon="9.668065318867427"><ele>191.25</ele><time>2026-04-04T13:22:46Z</time></trkpt><trkpt lat="40.000821930616205" lon="9.667906007427822"><ele>190.5</ele><time>2026-04-04T13:22:47Z</time></trkpt><trkpt lat="40.00073072292292" lon="9.667777731672325"><ele>189.75</ele><time>2026-04-04T13:22:48Z</time></trkpt><trkpt lat="40.0006005417574" lon="9.667683637876825"><ele>189.0</ele><time>2026-04-04T13:22:49Z</time></trkpt><trkpt lat="40.00045055690269" lon="9.667620178442235"><ele>186.75</ele><time>2026-04-04T13:22:50Z</time></trkpt><trkpt lat="40.0003247664661" lon="9.667558236254964"><ele>184.5</ele><time>2026-04-04T13:22:51Z</time></trkpt><trkpt lat="40.00025330604057" lon="9.667425829859388"><ele>182.25</ele><time>2026-04-04T13:22:52Z</time></trkpt><trkpt lat="40.00020348159125" lon="9.667257601294612"><ele>180.0</ele><time>2026-04-04T13:22:53Z</time></trkpt><trkpt lat="40.000115813860106" lon="9.667106752015595"><ele>180.0</ele><time>2026-04-04T13:22:54Z</time></trkpt><trkpt lat="39.99999279056859" lon="9.66697656562876"><ele>180.0</ele><time>2026-04-04T13:22:55Z</time></trkpt><trkpt lat="39.99983696525936" lon="9.666893586957666"><ele>180.0</ele><time>2026-04-04T13:22:56Z</time></trkpt><trkpt lat="39.999664404261445" lon="9.666845202429416"><ele>176.33333333333334</ele><time>2026-04-04T13:22:57Z</time></trkpt><trkpt lat="39.99948228953228" lon="9.66679112894986"><ele>172.66666666666669</ele><time>2026-04-04T13:22:58Z</time></trkpt><trkpt lat="39.999293721730766" lon="9.666718869357176"><ele>169.0</ele><time>2026-04-04T13:22:59Z</time></trkpt><trkpt lat="39.999118400102184" lon="9.666647082486453"><ele>169.0</ele><time>2026-04-04T13:23:00Z</time></trkpt><trkpt lat="39.99895363541132" lon="9.666587330154021"><ele>169.0</ele><time>2026-04-04T13:23:01Z</time></trkpt><trkpt lat="39.99879297975474" lon="9.666553124593461"><ele>169.0</ele><time>2026-04-04T13:23:02Z</time></trkpt><trkpt lat="39.998642399510196" lon="9.666547816115274"><ele>169.0</ele><time>2026-04-04T13:23:03Z</time></trkpt><trkpt lat="39.99851743458643" lon="9.666552910123071"><ele>169.0</ele><time>2026-04-04T13:23:04Z</time></trkpt><trkpt lat="39.998420368760506" lon="9.666546107707177"><ele>169.0</ele><time>2026-04-04T13:23:05Z</time></trkpt><trkpt lat="39.99833975736133" lon="9.666522488633184"><ele>169.0</ele><time>2026-04-04T13:23:06Z</time></trkpt><trkpt lat="39.998272394595986" lon="9.666500002282966"><ele>169.0</ele><time>2026-04-04T13:23:07Z</time></trkpt><trkpt lat="39.99820564910085" lon="9.666484724072916"><ele>169.0</ele><time>2026-04-04T13:23:08Z</time></trkpt><trkpt lat="39.99812012758869" lon="9.666478895278415"><ele>168.5</ele><time>2026-04-04T13:23:09Z</time></trkpt><trkpt lat="39.997990749274166" lon="9.666477158346785"><ele>168.0</ele><time>2026-04-04T13:23:10Z</time></trkpt><trkpt lat="39.99784711220142" lon="9.666474898357873"><ele>167.5</ele><time>2026-04-04T13:23:11Z</time></trkpt><trkpt lat="39.99773179130096" lon="9.66647433773927"><ele>167.0</ele><time>2026-04-04T13:23:12Z</time></trkpt><trkpt lat="39.997648567572575" lon="9.666484636283194"><ele>167.0</ele><time>2026-04-04T13:23:13Z</time></trkpt><trkpt lat="39.997582099424115" lon="9.666492185826224"><ele>167.0</ele><time>2026-04-04T13:23:14Z</time></trkpt><trkpt lat="39.99751689176415" lon="9.666500204072829"><ele>167.0</ele><time>2026-04-04T13:23:15Z</time></trkpt><trkpt lat="39.99744970676471" lon="9.666504541355538"><ele>167.0</ele><time>2026-04-04T13:23:16Z</time></trkpt><trkpt lat="39.99738553881275" lon="9.666508626806564"><ele>167.0</ele><time>2026-04-04T13:23:17Z</time></trkpt><trkpt lat="39.99732156180696" lon="9.666515233158586"><ele>167.0</ele><time>2026-04-04T13:23:18Z</time></trkpt><trkpt lat="39.99725570576288" lon="9.66652623716799"><ele>167.0</ele><time>2026-04-04T13:23:19Z</time></trkpt><trkpt lat="39.99719292377289" lon="9.666545791718683"><ele>166.0</ele><time>2026-04-04T13:23:20Z</time></trkpt><trkpt lat="39.99712087086171" lon="9.666594813466988"><ele>165.0</ele><time>2026-04-04T13:23:21Z</time></trkpt><trkpt lat="39.99701003836386" lon="9.666664858487994"><ele>164.0</ele><time>2026-04-04T13:23:22Z</time></trkpt><trkpt lat="39.996932474513116" lon="9.666764939596069"><ele>163.0</ele><time>2026-04-04T13:23:23Z</time></trkpt><trkpt lat="39.99685558922409" lon="9.666837133932038"><ele>162.0</ele><time>2026-04-04T13:23:24Z</time></trkpt><trkpt lat="39.996792426188556" lon="9.666901089944666"><ele>159.33333333333334</ele><time>2026-04-04T13:23:25Z</time></trkpt><trkpt lat="39.99673616405598" lon="9.66696166309108"><ele>156.66666666666666</ele><time>2026-04-04T13:23:26Z</time></trkpt><trkpt lat="39.99668477815669" lon="9.667019383183806"><ele>154.0</ele><time>2026-04-04T13:23:27Z</time></trkpt><trkpt lat="39.996635633823914" lon="9.66707320097687"><ele>151.33333333333331</ele><time>2026-04-04T13:23:28Z</time></trkpt><trkpt lat="39.9965381017728" lon="9.667175467578494"><ele>148.66666666666666</ele><time>2026-04-04T13:23:30Z</time></trkpt><trkpt lat="39.9964830446493" lon="9.667227282620647"><ele>146.0</ele><time>2026-04-04T13:23:31Z</time></trkpt><trkpt lat="39.99642019641362" lon="9.667270991916025"><ele>146.0</ele><time>2026-04-04T13:23:32Z</time></trkpt><trkpt lat="39.99634702544747" lon="9.667298839873782"><ele>146.0</ele><time>2026-04-04T13:23:33Z</time></trkpt><trkpt lat="39.996260900476045" lon="9.667307858087172"><ele>146.0</ele><time>2026-04-04T13:23:34Z</time></trkpt><trkpt lat="39.996173196545605" lon="9.667281795232144"><ele>146.0</ele><time>2026-04-04T13:23:35Z</time></trkpt><trkpt lat="39.99609777498677" lon="9.66721048692829"><ele>146.0</ele><time>2026-04-04T13:23:36Z</time></trkpt><trkpt lat="39.99601604602306" lon="9.667065270778927"><ele>146.0</ele><time>2026-04-04T13:23:38Z</time></trkpt><trkpt lat="39.9959566279446" lon="9.666993130945247"><ele>146.0</ele><time>2026-04-04T13:23:39Z</time></trkpt><trkpt lat="39.99591792867412" lon="9.666887011820073"><ele>146.0</ele><time>2026-04-04T13:23:40Z</time></trkpt><trkpt lat="39.99586325198209" lon="9.666783457135724"><ele>146.0</ele><time>2026-04-04T13:23:41Z</time></trkpt><trkpt lat="39.99582143931217" lon="9.666689830981083"><ele>146.0</ele><time>2026-04-04T13:23:42Z</time></trkpt><trkpt lat="39.99580450901111" lon="9.66659250475573"><ele>146.0</ele><time>2026-04-04T13:23:43Z</time></trkpt><trkpt lat="39.99580766727319" lon="9.666491554504903"><ele>146.83333333333331</ele><time>2026-04-04T13:23:44Z</time></trkpt><trkpt lat="39.99581625243719" lon="9.666377914520696"><ele>147.66666666666666</ele><time>2026-04-04T13:23:45Z</time></trkpt><trkpt lat="39.99582764385497" lon="9.666261731183814"><ele>148.5</ele><time>2026-04-04T13:23:46Z</time></trkpt><trkpt lat="39.99583627091024" lon="9.666171053635003"><ele>149.33333333333334</ele><time>2026-04-04T13:23:47Z</time></trkpt><trkpt lat="39.99584317416399" lon="9.666089375314266"><ele>150.16666666666669</ele><time>2026-04-04T13:23:48Z</time></trkpt><trkpt lat="39.995855545837756" lon="9.665942995446704"><ele>151.0</ele><time>2026-04-04T13:23:50Z</time></trkpt><trkpt lat="39.99586859269389" lon="9.665788626920456"><ele>151.4</ele><time>2026-04-04T13:23:52Z</time></trkpt><trkpt lat="39.99587629156683" lon="9.6656975343789"><ele>151.8</ele><time>2026-04-04T13:23:53Z</time></trkpt><trkpt lat="39.99586904918575" lon="9.66559222691769"><ele>152.20000000000002</ele><time>2026-04-04T13:23:54Z</time></trkpt><trkpt lat="39.99593603071035" lon="9.665497522175862"><ele>152.6</ele><time>2026-04-04T13:23:55Z</time></trkpt><trkpt lat="39.995992461132246" lon="9.66538734190146"><ele>153.0</ele><time>2026-04-04T13:23:56Z</time></trkpt><trkpt lat="39.99604661080235" lon="9.665265454727209"><ele>153.0</ele><time>2026-04-04T13:23:57Z</time></trkpt><trkpt lat="39.996090778742314" lon="9.665143377117188"><ele>153.0</ele><time>2026-04-04T13:23:58Z</time></trkpt><trkpt lat="39.996122386366885" lon="9.66503834753405"><ele>153.0</ele><time>2026-04-04T13:23:59Z</time></trkpt><trkpt lat="39.99615048798554" lon="9.664935596840085"><ele>153.0</ele><time>2026-04-04T13:24:00Z</time></trkpt><trkpt lat="39.99617629285556" lon="9.664845026550042"><ele>153.0</ele><time>2026-04-04T13:24:01Z</time></trkpt><trkpt lat="39.99618673067648" lon="9.66475534710688"><ele>153.0</ele><time>2026-04-04T13:24:02Z</time></trkpt><trkpt lat="39.99621661279229" lon="9.664668603073208"><ele>153.0</ele><time>2026-04-04T13:24:03Z</time></trkpt><trkpt lat="39.99626926173784" lon="9.664584248676626"><ele>153.0</ele><time>2026-04-04T13:24:04Z</time></trkpt><trkpt lat="39.996327644421015" lon="9.66448996668975"><ele>153.0</ele><time>2026-04-04T13:24:05Z</time></trkpt><trkpt lat="39.99639691005119" lon="9.664433432682072"><ele>153.0</ele><time>2026-04-04T13:24:06Z</time></trkpt><trkpt lat="39.99646827693922" lon="9.664414086825502"><ele>153.0</ele><time>2026-04-04T13:24:07Z</time></trkpt><trkpt lat="39.99653749580996" lon="9.664414645893162"><ele>153.0</ele><time>2026-04-04T13:24:08Z</time></trkpt><trkpt lat="39.99660656233473" lon="9.664405567043142"><ele>151.20000000000002</ele><time>2026-04-04T13:24:09Z</time></trkpt><trkpt lat="39.99667398808258" lon="9.6643740972346"><ele>149.4</ele><time>2026-04-04T13:24:10Z</time></trkpt><trkpt lat="39.996746623984116" lon="9.664370157624862"><ele>147.60000000000002</ele><time>2026-04-04T13:24:11Z</time></trkpt><trkpt lat="39.996817464615205" lon="9.664329246121033"><ele>145.8</ele><time>2026-04-04T13:24:12Z</time></trkpt><trkpt lat="39.996920896473384" lon="9.664275521063619"><ele>144.0</ele><time>2026-04-04T13:24:14Z</time></trkpt><trkpt lat="39.996923682544654" lon="9.664087007262633"><ele>144.0</ele><time>2026-04-04T13:24:15Z</time></trkpt><trkpt lat="39.996952250668706" lon="9.663993232634986"><ele>144.0</ele><time>2026-04-04T13:24:16Z</time></trkpt><trkpt lat="39.99695917033888" lon="9.663878780951434"><ele>144.0</ele><time>2026-04-04T13:24:17Z</time></trkpt><trkpt lat="39.99694548396746" lon="9.663747196114238"><ele>144.0</ele><time>2026-04-04T13:24:18Z</time></trkpt><trkpt lat="39.99691428846276" lon="9.663628402617562"><ele>144.0</ele><time>2026-04-04T13:24:19Z</time></trkpt><trkpt lat="39.99686611188804" lon="9.6635174825215"><ele>141.6</ele><time>2026-04-04T13:24:20Z</time></trkpt><trkpt lat="39.9967983044365" lon="9.663411015121689"><ele>139.2</ele><time>2026-04-04T13:24:21Z</time></trkpt><trkpt lat="39.99672672092271" lon="9.663313021792483"><ele>136.79999999999998</ele><time>2026-04-04T13:24:22Z</time></trkpt><trkpt lat="39.99665018335235" lon="9.66323469030276"><ele>134.4</ele><time>2026-04-04T13:24:23Z</time></trkpt><trkpt lat="39.99659539057205" lon="9.6631659379948"><ele>132.0</ele><time>2026-04-04T13:24:24Z</time></trkpt><trkpt lat="39.996545511000434" lon="9.663099332891843"><ele>132.0</ele><time>2026-04-04T13:24:25Z</time></trkpt><trkpt lat="39.996495847111554" lon="9.663037899431513"><ele>132.0</ele><time>2026-04-04T13:24:26Z</time></trkpt><trkpt lat="39.996444034339596" lon="9.662969911872427"><ele>132.0</ele><time>2026-04-04T13:24:27Z</time></trkpt><trkpt lat="39.996390090074456" lon="9.662898431516235"><ele>132.0</ele><time>2026-04-04T13:24:28Z</time></trkpt><trkpt lat="39.99633192101827" lon="9.662816800508038"><ele>132.0</ele><time>2026-04-04T13:24:29Z</time></trkpt><trkpt lat="39.996262406742794" lon="9.662748278880994"><ele>132.0</ele><time>2026-04-04T13:24:30Z</time></trkpt><trkpt lat="39.996189148035505" lon="9.662672395182607"><ele>132.66666666666666</ele><time>2026-04-04T13:24:31Z</time></trkpt><trkpt lat="39.99605727028218" lon="9.662665425391271"><ele>133.33333333333331</ele><time>2026-04-04T13:24:32Z</time></trkpt><trkpt lat="39.995862159418124" lon="9.66262749472435"><ele>134.0</ele><time>2026-04-04T13:24:33Z</time></trkpt><trkpt lat="39.9956509122362" lon="9.662572663459168"><ele>132.66666666666666</ele><time>2026-04-04T13:24:34Z</time></trkpt><trkpt lat="39.99541884541846" lon="9.662498437911005"><ele>131.33333333333334</ele><time>2026-04-04T13:24:35Z</time></trkpt><trkpt lat="39.9952400118277" lon="9.662443814955857"><ele>130.0</ele><time>2026-04-04T13:24:36Z</time></trkpt><trkpt lat="39.99513012703439" lon="9.66236822100541"><ele>130.0</ele><time>2026-04-04T13:24:37Z</time></trkpt><trkpt lat="39.99502076735852" lon="9.662251624980069"><ele>130.0</ele><time>2026-04-04T13:24:38Z</time></trkpt><trkpt lat="39.99486696643948" lon="9.662087756715751"><ele>130.0</ele><time>2026-04-04T13:24:39Z</time></trkpt><trkpt lat="39.994729915150124" lon="9.661941734396743"><ele>128.25</ele><time>2026-04-04T13:24:40Z</time></trkpt><trkpt lat="39.994628247194605" lon="9.661847487902206"><ele>126.5</ele><time>2026-04-04T13:24:41Z</time></trkpt><trkpt lat="39.99458924040958" lon="9.661712944069839"><ele>124.75</ele><time>2026-04-04T13:24:42Z</time></trkpt><trkpt lat="39.99455006279485" lon="9.661571101285588"><ele>123.0</ele><time>2026-04-04T13:24:43Z</time></trkpt><trkpt lat="39.99458357633278" lon="9.661397772040628"><ele>123.0</ele><time>2026-04-04T13:24:44Z</time></trkpt><trkpt lat="39.99455941266181" lon="9.661266729089732"><ele>123.00000000000001</ele><time>2026-04-04T13:24:45Z</time></trkpt><trkpt lat="39.994492563163625" lon="9.66116139049262"><ele>123.00000000000001</ele><time>2026-04-04T13:24:46Z</time></trkpt><trkpt lat="39.994416619962706" lon="9.66105360348473"><ele>123.0</ele><time>2026-04-04T13:24:47Z</time></trkpt><trkpt lat="39.99434422479893" lon="9.66098197723192"><ele>123.0</ele><time>2026-04-04T13:24:48Z</time></trkpt><trkpt lat="39.99402885769342" lon="9.660865433515877"><ele>118.33333333333334</ele><time>2026-04-04T13:24:49Z</time></trkpt><trkpt lat="39.99386547921832" lon="9.660685832620254"><ele>113.66666666666667</ele><time>2026-04-04T13:24:50Z</time></trkpt><trkpt lat="39.99371517326446" lon="9.66049108842917"><ele>109.0</ele><time>2026-04-04T13:24:51Z</time></trkpt><trkpt lat="39.99353707926106" lon="9.660256142879451"><ele>108.66666666666667</ele><time>2026-04-04T13:24:52Z</time></trkpt><trkpt lat="39.993371423783906" lon="9.660051312114847"><ele>108.33333333333334</ele><time>2026-04-04T13:24:53Z</time></trkpt><trkpt lat="39.993206675250875" lon="9.659897046175674"><ele>108.0</ele><time>2026-04-04T13:24:54Z</time></trkpt><trkpt lat="39.99300492272565" lon="9.659776521952926"><ele>105.0</ele><time>2026-04-04T13:24:55Z</time></trkpt><trkpt lat="39.99279231648932" lon="9.65966406213062"><ele>102.0</ele><time>2026-04-04T13:24:56Z</time></trkpt><trkpt lat="39.992572101220745" lon="9.659560644523213"><ele>101.5</ele><time>2026-04-04T13:24:57Z</time></trkpt><trkpt lat="39.99235326528972" lon="9.65944932401348"><ele>101.0</ele><time>2026-04-04T13:24:58Z</time></trkpt><trkpt lat="39.99214694419499" lon="9.659313771402276"><ele>101.0</ele><time>2026-04-04T13:24:59Z</time></trkpt><trkpt lat="39.99195330429593" lon="9.659175811211313"><ele>101.0</ele><time>2026-04-04T13:25:00Z</time></trkpt><trkpt lat="39.9917844296886" lon="9.65905164167709"><ele>101.0</ele><time>2026-04-04T13:25:01Z</time></trkpt><trkpt lat="39.9916342798715" lon="9.658935864794381"><ele>99.0</ele><time>2026-04-04T13:25:02Z</time></trkpt><trkpt lat="39.99149365081758" lon="9.658826630050363"><ele>97.0</ele><time>2026-04-04T13:25:03Z</time></trkpt><trkpt lat="39.991370144834285" lon="9.658736879059127"><ele>95.0</ele><time>2026-04-04T13:25:04Z</time></trkpt><trkpt lat="39.99126606425888" lon="9.65865655773818"><ele>93.0</ele><time>2026-04-04T13:25:05Z</time></trkpt><trkpt lat="39.99118964682087" lon="9.65854694852755"><ele>93.0</ele><time>2026-04-04T13:25:06Z</time></trkpt><trkpt lat="39.99115273959124" lon="9.658407547584993"><ele>93.0</ele><time>2026-04-04T13:25:07Z</time></trkpt><trkpt lat="39.99115352536411" lon="9.658237607553422"><ele>93.0</ele><time>2026-04-04T13:25:08Z</time></trkpt><trkpt lat="39.991183314225296" lon="9.658044336707581"><ele>93.0</ele><time>2026-04-04T13:25:09Z</time></trkpt><trkpt lat="39.99122194666011" lon="9.657832011262638"><ele>89.25</ele><time>2026-04-04T13:25:10Z</time></trkpt><trkpt lat="39.99124427400702" lon="9.657651996864887"><ele>85.5</ele><time>2026-04-04T13:25:11Z</time></trkpt><trkpt lat="39.991258207672345" lon="9.657495764488539"><ele>81.75</ele><time>2026-04-04T13:25:12Z</time></trkpt><trkpt lat="39.991268568515274" lon="9.657363652005783"><ele>78.0</ele><time>2026-04-04T13:25:13Z</time></trkpt><trkpt lat="39.991254090182025" lon="9.657234569867365"><ele>78.0</ele><time>2026-04-04T13:25:14Z</time></trkpt><trkpt lat="39.99120374719682" lon="9.657121507775422"><ele>78.0</ele><time>2026-04-04T13:25:15Z</time></trkpt><trkpt lat="39.99111804646819" lon="9.657047921486319"><ele>78.0</ele><time>2026-04-04T13:25:16Z</time></trkpt><trkpt lat="39.991009970426354" lon="9.657021539328973"><ele>78.0</ele><time>2026-04-04T13:25:17Z</time></trkpt><trkpt lat="39.990889742981665" lon="9.657031846795851"><ele>78.0</ele><time>2026-04-04T13:25:18Z</time></trkpt><trkpt lat="39.99075611102401" lon="9.657085439019683"><ele>81.66666666666667</ele><time>2026-04-04T13:25:19Z</time></trkpt><trkpt lat="39.99061322538005" lon="9.657140987862292"><ele>85.33333333333334</ele><time>2026-04-04T13:25:20Z</time></trkpt><trkpt lat="39.99045108606725" lon="9.657141968454003"><ele>89.0</ele><time>2026-04-04T13:25:21Z</time></trkpt><trkpt lat="39.99027948512595" lon="9.657100267551941"><ele>89.0</ele><time>2026-04-04T13:25:22Z</time></trkpt><trkpt lat="39.99009279576827" lon="9.657029488862225"><ele>89.0</ele><time>2026-04-04T13:25:23Z</time></trkpt><trkpt lat="39.98990635878988" lon="9.656959762116319"><ele>89.0</ele><time>2026-04-04T13:25:24Z</time></trkpt><trkpt lat="39.989733505964324" lon="9.656902476620306"><ele>85.33333333333334</ele><time>2026-04-04T13:25:25Z</time></trkpt><trkpt lat="39.98955165790353" lon="9.656860476335028"><ele>81.66666666666667</ele><time>2026-04-04T13:25:26Z</time></trkpt><trkpt lat="39.989376713616025" lon="9.656858411868843"><ele>78.0</ele><time>2026-04-04T13:25:27Z</time></trkpt><trkpt lat="39.9892030655838" lon="9.656899999265638"><ele>79.33333333333333</ele><time>2026-04-04T13:25:28Z</time></trkpt><trkpt lat="39.989016036179216" lon="9.656938527559328"><ele>80.66666666666666</ele><time>2026-04-04T13:25:29Z</time></trkpt><trkpt lat="39.98882345025918" lon="9.656934146906126"><ele>82.0</ele><time>2026-04-04T13:25:30Z</time></trkpt><trkpt lat="39.98863946513445" lon="9.656913014215972"><ele>82.0</ele><time>2026-04-04T13:25:31Z</time></trkpt><trkpt lat="39.98846695345856" lon="9.656922925585919"><ele>82.0</ele><time>2026-04-04T13:25:32Z</time></trkpt><trkpt lat="39.98829962626369" lon="9.656989055244"><ele>82.0</ele><time>2026-04-04T13:25:33Z</time></trkpt><trkpt lat="39.9881340898728" lon="9.657106179898143"><ele>77.66666666666666</ele><time>2026-04-04T13:25:34Z</time></trkpt><trkpt lat="39.98795149382975" lon="9.657241933978492"><ele>73.33333333333333</ele><time>2026-04-04T13:25:35Z</time></trkpt><trkpt lat="39.987755788682975" lon="9.657381244642183"><ele>69.0</ele><time>2026-04-04T13:25:36Z</time></trkpt><trkpt lat="39.98756774379836" lon="9.657509533734723"><ele>70.66666666666667</ele><time>2026-04-04T13:25:37Z</time></trkpt><trkpt lat="39.98739415406526" lon="9.657627344061531"><ele>72.33333333333334</ele><time>2026-04-04T13:25:38Z</time></trkpt><trkpt lat="39.98722632260981" lon="9.65773131288178"><ele>74.0</ele><time>2026-04-04T13:25:39Z</time></trkpt><trkpt lat="39.98705833709729" lon="9.657815920759697"><ele>71.33333333333334</ele><time>2026-04-04T13:25:40Z</time></trkpt><trkpt lat="39.986878598751304" lon="9.6578780720937"><ele>68.66666666666667</ele><time>2026-04-04T13:25:41Z</time></trkpt><trkpt lat="39.98669820502716" lon="9.657926817320067"><ele>66.0</ele><time>2026-04-04T13:25:42Z</time></trkpt><trkpt lat="39.98653507902873" lon="9.657987884846523"><ele>66.0</ele><time>2026-04-04T13:25:43Z</time></trkpt><trkpt lat="39.98639392236662" lon="9.658084731370138"><ele>66.0</ele><time>2026-04-04T13:25:44Z</time></trkpt><trkpt lat="39.986261881640345" lon="9.658235370343894"><ele>66.0</ele><time>2026-04-04T13:25:45Z</time></trkpt><trkpt lat="39.98613590608649" lon="9.658434984328283"><ele>65.66666666666667</ele><time>2026-04-04T13:25:46Z</time></trkpt><trkpt lat="39.98600191943515" lon="9.658663811764153"><ele>65.33333333333334</ele><time>2026-04-04T13:25:47Z</time></trkpt><trkpt lat="39.98586231828492" lon="9.65889714385199"><ele>65.0</ele><time>2026-04-04T13:25:48Z</time></trkpt><trkpt lat="39.98572614942029" lon="9.659112737688279"><ele>65.0</ele><time>2026-04-04T13:25:49Z</time></trkpt><trkpt lat="39.985604920888846" lon="9.659305506437379"><ele>65.0</ele><time>2026-04-04T13:25:50Z</time></trkpt><trkpt lat="39.9854945810722" lon="9.659476885494527"><ele>65.0</ele><time>2026-04-04T13:25:51Z</time></trkpt><trkpt lat="39.98538522617756" lon="9.65961999815355"><ele>64.0</ele><time>2026-04-04T13:25:52Z</time></trkpt><trkpt lat="39.98524442392227" lon="9.659700810044988"><ele>63.0</ele><time>2026-04-04T13:25:53Z</time></trkpt><trkpt lat="39.98509097037188" lon="9.659794399953938"><ele>62.0</ele><time>2026-04-04T13:25:54Z</time></trkpt><trkpt lat="39.98491744454809" lon="9.659880331233502"><ele>62.0</ele><time>2026-04-04T13:25:55Z</time></trkpt><trkpt lat="39.98474633073827" lon="9.659987555290195"><ele>62.0</ele><time>2026-04-04T13:25:56Z</time></trkpt><trkpt lat="39.98459324750932" lon="9.660109225466888"><ele>62.0</ele><time>2026-04-04T13:25:57Z</time></trkpt><trkpt lat="39.98445353749951" lon="9.660268449718204"><ele>62.66666666666667</ele><time>2026-04-04T13:25:58Z</time></trkpt><trkpt lat="39.984327414019376" lon="9.66045954802351"><ele>63.33333333333333</ele><time>2026-04-04T13:25:59Z</time></trkpt><trkpt lat="39.98421439144302" lon="9.660654241061723"><ele>64.0</ele><time>2026-04-04T13:26:00Z</time></trkpt><trkpt lat="39.984131253986064" lon="9.660831801881614"><ele>64.0</ele><time>2026-04-04T13:26:01Z</time></trkpt><trkpt lat="39.98406367797514" lon="9.660999219417574"><ele>64.0</ele><time>2026-04-04T13:26:02Z</time></trkpt><trkpt lat="39.98398314129823" lon="9.661133538663792"><ele>64.0</ele><time>2026-04-04T13:26:03Z</time></trkpt><trkpt lat="39.98385426376719" lon="9.66119713476277"><ele>64.0</ele><time>2026-04-04T13:26:04Z</time></trkpt><trkpt lat="39.98370777104521" lon="9.661284327644697"><ele>63.33333333333333</ele><time>2026-04-04T13:26:05Z</time></trkpt><trkpt lat="39.983525840644084" lon="9.661346762890632"><ele>62.66666666666667</ele><time>2026-04-04T13:26:06Z</time></trkpt><trkpt lat="39.983333166982945" lon="9.661424332639161"><ele>62.0</ele><time>2026-04-04T13:26:07Z</time></trkpt><trkpt lat="39.98312229474827" lon="9.661516635402148"><ele>59.5</ele><time>2026-04-04T13:26:08Z</time></trkpt><trkpt lat="39.98290107352644" lon="9.661617874602202"><ele>57.0</ele><time>2026-04-04T13:26:09Z</time></trkpt><trkpt lat="39.98269171989961" lon="9.661715674898122"><ele>56.0</ele><time>2026-04-04T13:26:10Z</time></trkpt><trkpt lat="39.982475665386765" lon="9.661811073613125"><ele>55.0</ele><time>2026-04-04T13:26:11Z</time></trkpt><trkpt lat="39.98227236880616" lon="9.661899879367672"><ele>54.0</ele><time>2026-04-04T13:26:12Z</time></trkpt><trkpt lat="39.982081920686696" lon="9.661982162163156"><ele>53.0</ele><time>2026-04-04T13:26:13Z</time></trkpt><trkpt lat="39.981915560703044" lon="9.662062332197282"><ele>52.0</ele><time>2026-04-04T13:26:14Z</time></trkpt><trkpt lat="39.981776687498" lon="9.662146418803465"><ele>51.0</ele><time>2026-04-04T13:26:15Z</time></trkpt><trkpt lat="39.9816478720757" lon="9.662226678504227"><ele>51.0</ele><time>2026-04-04T13:26:16Z</time></trkpt><trkpt lat="39.98151303651721" lon="9.662258758995073"><ele>51.0</ele><time>2026-04-04T13:26:17Z</time></trkpt><trkpt lat="39.98136539536979" lon="9.662240801710514"><ele>51.0</ele><time>2026-04-04T13:26:18Z</time></trkpt><trkpt lat="39.98121455529152" lon="9.662188077915669"><ele>51.0</ele><time>2026-04-04T13:26:19Z</time></trkpt><trkpt lat="39.98107057239601" lon="9.662129518038263"><ele>51.0</ele><time>2026-04-04T13:26:20Z</time></trkpt><trkpt lat="39.98094686585491" lon="9.662122455058373"><ele>51.0</ele><time>2026-04-04T13:26:21Z</time></trkpt><trkpt lat="39.98082871568398" lon="9.662181396833049"><ele>51.0</ele><time>2026-04-04T13:26:22Z</time></trkpt><trkpt lat="39.98071169634315" lon="9.662296944507004"><ele>51.0</ele><time>2026-04-04T13:26:23Z</time></trkpt><trkpt lat="39.980586544050276" lon="9.662461497980805"><ele>49.0</ele><time>2026-04-04T13:26:24Z</time></trkpt><trkpt lat="39.980452004517126" lon="9.662635832845712"><ele>47.0</ele><time>2026-04-04T13:26:25Z</time></trkpt><trkpt lat="39.98028361435269" lon="9.662781864488355"><ele>45.0</ele><time>2026-04-04T13:26:26Z</time></trkpt><trkpt lat="39.980136995246106" lon="9.662941849720976"><ele>40.333333333333336</ele><time>2026-04-04T13:26:27Z</time></trkpt><trkpt lat="39.979967268024936" lon="9.663074870258324"><ele>35.66666666666667</ele><time>2026-04-04T13:26:28Z</time></trkpt><trkpt lat="39.979778460129964" lon="9.663177086086979"><ele>31.0</ele><time>2026-04-04T13:26:29Z</time></trkpt><trkpt lat="39.97961435844444" lon="9.663299816133364"><ele>31.0</ele><time>2026-04-04T13:26:30Z</time></trkpt><trkpt lat="39.97945283051636" lon="9.663385899251594"><ele>31.0</ele><time>2026-04-04T13:26:31Z</time></trkpt><trkpt lat="39.97928397001579" lon="9.663410491643377"><ele>31.0</ele><time>2026-04-04T13:26:32Z</time></trkpt><trkpt lat="39.97910057327548" lon="9.66346224845293"><ele>36.333333333333336</ele><time>2026-04-04T13:26:33Z</time></trkpt><trkpt lat="39.97890671310469" lon="9.663487469505352"><ele>41.666666666666664</ele><time>2026-04-04T13:26:34Z</time></trkpt><trkpt lat="39.97871741961284" lon="9.663539195107122"><ele>47.0</ele><time>2026-04-04T13:26:35Z</time></trkpt><trkpt lat="39.978541414894316" lon="9.663597968030366"><ele>37.666666666666664</ele><time>2026-04-04T13:26:36Z</time></trkpt><trkpt lat="39.97837334790081" lon="9.663624125044066"><ele>28.333333333333332</ele><time>2026-04-04T13:26:37Z</time></trkpt><trkpt lat="39.97821239170262" lon="9.663624438939621"><ele>19.0</ele><time>2026-04-04T13:26:38Z</time></trkpt><trkpt lat="39.978073347010756" lon="9.663641668211872"><ele>18.75</ele><time>2026-04-04T13:26:39Z</time></trkpt><trkpt lat="39.97794964700574" lon="9.663714189525052"><ele>18.5</ele><time>2026-04-04T13:26:40Z</time></trkpt><trkpt lat="39.977838179422115" lon="9.663829291032155"><ele>18.25</ele><time>2026-04-04T13:26:41Z</time></trkpt><trkpt lat="39.97774232922354" lon="9.663983749065363"><ele>18.0</ele><time>2026-04-04T13:26:42Z</time></trkpt><trkpt lat="39.977660900654925" lon="9.664175234956433"><ele>18.0</ele><time>2026-04-04T13:26:43Z</time></trkpt><trkpt lat="39.977583221756895" lon="9.66438803551418"><ele>18.0</ele><time>2026-04-04T13:26:44Z</time></trkpt><trkpt lat="39.97749485551388" lon="9.664597019744404"><ele>18.0</ele><time>2026-04-04T13:26:45Z</time></trkpt><trkpt lat="39.977400955091554" lon="9.664784963209563"><ele>17.5</ele><time>2026-04-04T13:26:46Z</time></trkpt><trkpt lat="39.977303138967216" lon="9.664939857713671"><ele>17.0</ele><time>2026-04-04T13:26:47Z</time></trkpt><trkpt lat="39.97721226281454" lon="9.665056859267766"><ele>16.5</ele><time>2026-04-04T13:26:48Z</time></trkpt><trkpt lat="39.97712254178661" lon="9.665140082699953"><ele>16.0</ele><time>2026-04-04T13:26:49Z</time></trkpt><trkpt lat="39.97702271319213" lon="9.66519190428123"><ele>16.0</ele><time>2026-04-04T13:26:50Z</time></trkpt><trkpt lat="39.97690539377113" lon="9.665195948550528"><ele>16.0</ele><time>2026-04-04T13:26:51Z</time></trkpt><trkpt lat="39.97676359292635" lon="9.665132559188155"><ele>16.0</ele><time>2026-04-04T13:26:52Z</time></trkpt><trkpt lat="39.97660571328821" lon="9.665103316711134"><ele>16.0</ele><time>2026-04-04T13:26:53Z</time></trkpt><trkpt lat="39.97647211902937" lon="9.665054240821336"><ele>16.75</ele><time>2026-04-04T13:26:54Z</time></trkpt><trkpt lat="39.97634979027071" lon="9.665017083356387"><ele>17.5</ele><time>2026-04-04T13:26:55Z</time></trkpt><trkpt lat="39.976212015445064" lon="9.664976979841857"><ele>18.25</ele><time>2026-04-04T13:26:56Z</time></trkpt><trkpt lat="39.976066311530175" lon="9.664914305453333"><ele>19.0</ele><time>2026-04-04T13:26:57Z</time></trkpt><trkpt lat="39.975920796279006" lon="9.66482293640198"><ele>15.666666666666666</ele><time>2026-04-04T13:26:58Z</time></trkpt><trkpt lat="39.97578930618391" lon="9.664710208983992"><ele>12.333333333333332</ele><time>2026-04-04T13:26:59Z</time></trkpt><trkpt lat="39.97564992272092" lon="9.664588363394486"><ele>9.0</ele><time>2026-04-04T13:27:00Z</time></trkpt><trkpt lat="39.97550893728826" lon="9.664457372737182"><ele>8.666666666666666</ele><time>2026-04-04T13:27:01Z</time></trkpt><trkpt lat="39.97536695512951" lon="9.664327041553772"><ele>8.333333333333332</ele><time>2026-04-04T13:27:02Z</time></trkpt><trkpt lat="39.97521930101974" lon="9.664197218002858"><ele>8.0</ele><time>2026-04-04T13:27:03Z</time></trkpt><trkpt lat="39.975070365886516" lon="9.664068982504888"><ele>7.666666666666666</ele><time>2026-04-04T13:27:04Z</time></trkpt><trkpt lat="39.97491800702218" lon="9.6639406470646"><ele>7.333333333333334</ele><time>2026-04-04T13:27:05Z</time></trkpt><trkpt lat="39.974758850884676" lon="9.6638218786485"><ele>7.0</ele><time>2026-04-04T13:27:06Z</time></trkpt><trkpt lat="39.97459817946482" lon="9.663717738905305"><ele>7.0</ele><time>2026-04-04T13:27:07Z</time></trkpt><trkpt lat="39.974428823588006" lon="9.663630820852989"><ele>7.0</ele><time>2026-04-04T13:27:08Z</time></trkpt><trkpt lat="39.97425873362249" lon="9.663561841374325"><ele>7.0</ele><time>2026-04-04T13:27:09Z</time></trkpt><trkpt lat="39.9740825109249" lon="9.663515497929088"><ele>7.333333333333334</ele><time>2026-04-04T13:27:10Z</time></trkpt><trkpt lat="39.97390318340474" lon="9.663483575682836"><ele>7.666666666666666</ele><time>2026-04-04T13:27:11Z</time></trkpt><trkpt lat="39.97372227271682" lon="9.663469863938237"><ele>8.0</ele><time>2026-04-04T13:27:12Z</time></trkpt><trkpt lat="39.97354171457669" lon="9.663470588985628"><ele>8.0</ele><time>2026-04-04T13:27:13Z</time></trkpt><trkpt lat="39.97337583205232" lon="9.663491592344515"><ele>8.0</ele><time>2026-04-04T13:27:14Z</time></trkpt><trkpt lat="39.97321652453655" lon="9.663526845140288"><ele>8.0</ele><time>2026-04-04T13:27:15Z</time></trkpt><trkpt lat="39.97305864316723" lon="9.663577539253076"><ele>7.666666666666666</ele><time>2026-04-04T13:27:16Z</time></trkpt><trkpt lat="39.9728978089187" lon="9.66363411207778"><ele>7.333333333333334</ele><time>2026-04-04T13:27:17Z</time></trkpt><trkpt lat="39.97273712978899" lon="9.663695791010033"><ele>7.0</ele><time>2026-04-04T13:27:18Z</time></trkpt><trkpt lat="39.97257455070531" lon="9.663756590159993"><ele>6.666666666666667</ele><time>2026-04-04T13:27:19Z</time></trkpt><trkpt lat="39.97241634256283" lon="9.663815261153598"><ele>6.333333333333334</ele><time>2026-04-04T13:27:20Z</time></trkpt><trkpt lat="39.9722602111445" lon="9.663877469495983"><ele>6.0</ele><time>2026-04-04T13:27:21Z</time></trkpt><trkpt lat="39.97210820842477" lon="9.663938236549733"><ele>6.0</ele><time>2026-04-04T13:27:22Z</time></trkpt><trkpt lat="39.9719694442745" lon="9.663990101629576"><ele>6.0</ele><time>2026-04-04T13:27:23Z</time></trkpt><trkpt lat="39.97184015873603" lon="9.664038026204224"><ele>6.0</ele><time>2026-04-04T13:27:24Z</time></trkpt><trkpt lat="39.9717188786507" lon="9.66407636114957"><ele>6.0</ele><time>2026-04-04T13:27:25Z</time></trkpt><trkpt lat="39.971603583025946" lon="9.664093866521323"><ele>7.75</ele><time>2026-04-04T13:27:26Z</time></trkpt><trkpt lat="39.97148111800788" lon="9.664067963452933"><ele>9.5</ele><time>2026-04-04T13:27:27Z</time></trkpt><trkpt lat="39.97135435511734" lon="9.66400025633253"><ele>11.25</ele><time>2026-04-04T13:27:28Z</time></trkpt><trkpt lat="39.971246456697955" lon="9.663911320991229"><ele>13.0</ele><time>2026-04-04T13:27:29Z</time></trkpt><trkpt lat="39.97116824414325" lon="9.66381702817586"><ele>13.0</ele><time>2026-04-04T13:27:30Z</time></trkpt><trkpt lat="39.97109438859435" lon="9.663724469544702"><ele>13.0</ele><time>2026-04-04T13:27:31Z</time></trkpt><trkpt lat="39.97101647803222" lon="9.663629805839607"><ele>13.0</ele><time>2026-04-04T13:27:32Z</time></trkpt><trkpt lat="39.97092338125088" lon="9.663517908435788"><ele>13.0</ele><time>2026-04-04T13:27:33Z</time></trkpt><trkpt lat="39.9708323342557" lon="9.663405752128151"><ele>13.8</ele><time>2026-04-04T13:27:34Z</time></trkpt><trkpt lat="39.97074721823337" lon="9.663306897863187"><ele>14.600000000000001</ele><time>2026-04-04T13:27:35Z</time></trkpt><trkpt lat="39.97067027238512" lon="9.663212910581604"><ele>15.399999999999999</ele><time>2026-04-04T13:27:36Z</time></trkpt><trkpt lat="39.97059332815512" lon="9.66311809327547"><ele>16.2</ele><time>2026-04-04T13:27:37Z</time></trkpt><trkpt lat="39.970516380792105" lon="9.663018713995536"><ele>17.0</ele><time>2026-04-04T13:27:38Z</time></trkpt><trkpt lat="39.97044175720947" lon="9.662917219371428"><ele>17.0</ele><time>2026-04-04T13:27:39Z</time></trkpt><trkpt lat="39.97037537017079" lon="9.662792407835292"><ele>17.0</ele><time>2026-04-04T13:27:40Z</time></trkpt><trkpt lat="39.97032213382998" lon="9.662647654510657"><ele>17.0</ele><time>2026-04-04T13:27:41Z</time></trkpt><trkpt lat="39.97028663007498" lon="9.662480614787626"><ele>17.0</ele><time>2026-04-04T13:27:42Z</time></trkpt><trkpt lat="39.97026661399487" lon="9.662303942669258"><ele>17.0</ele><time>2026-04-04T13:27:43Z</time></trkpt><trkpt lat="39.97025670515633" lon="9.662135818793232"><ele>17.0</ele><time>2026-04-04T13:27:44Z</time></trkpt><trkpt lat="39.97025552634029" lon="9.66198471857768"><ele>17.0</ele><time>2026-04-04T13:27:45Z</time></trkpt><trkpt lat="39.97024611544591" lon="9.661840431648995"><ele>17.0</ele><time>2026-04-04T13:27:46Z</time></trkpt><trkpt lat="39.970226648506575" lon="9.661723762415786"><ele>17.0</ele><time>2026-04-04T13:27:47Z</time></trkpt><trkpt lat="39.97019197266441" lon="9.661613657361942"><ele>17.2</ele><time>2026-04-04T13:27:48Z</time></trkpt><trkpt lat="39.97012741350448" lon="9.661536118410899"><ele>17.4</ele><time>2026-04-04T13:27:49Z</time></trkpt><trkpt lat="39.97004336411673" lon="9.66147027725504"><ele>17.6</ele><time>2026-04-04T13:27:50Z</time></trkpt><trkpt lat="39.96994366726585" lon="9.661412273704451"><ele>17.8</ele><time>2026-04-04T13:27:51Z</time></trkpt><trkpt lat="39.96984607194477" lon="9.661348059320249"><ele>18.0</ele><time>2026-04-04T13:27:52Z</time></trkpt><trkpt lat="39.969760759778964" lon="9.661291497311517"><ele>17.0</ele><time>2026-04-04T13:27:53Z</time></trkpt><trkpt lat="39.969683915507595" lon="9.661229561489002"><ele>16.0</ele><time>2026-04-04T13:27:54Z</time></trkpt><trkpt lat="39.96959884596865" lon="9.661163578198673"><ele>15.0</ele><time>2026-04-04T13:27:55Z</time></trkpt><trkpt lat="39.96950775789785" lon="9.66108992469387"><ele>14.0</ele><time>2026-04-04T13:27:56Z</time></trkpt><trkpt lat="39.96940131702106" lon="9.661012524957428"><ele>13.0</ele><time>2026-04-04T13:27:57Z</time></trkpt><trkpt lat="39.96930112964923" lon="9.66094242724197"><ele>13.0</ele><time>2026-04-04T13:27:58Z</time></trkpt><trkpt lat="39.96921282194518" lon="9.660883114711172"><ele>13.0</ele><time>2026-04-04T13:27:59Z</time></trkpt><trkpt lat="39.96912502101034" lon="9.66082178975588"><ele>13.0</ele><time>2026-04-04T13:28:00Z</time></trkpt><trkpt lat="39.969029714198825" lon="9.66075539623145"><ele>13.0</ele><time>2026-04-04T13:28:01Z</time></trkpt><trkpt lat="39.96891968469212" lon="9.660681959676438"><ele>13.0</ele><time>2026-04-04T13:28:02Z</time></trkpt><trkpt lat="39.96879479589747" lon="9.660596758599663"><ele>11.75</ele><time>2026-04-04T13:28:03Z</time></trkpt><trkpt lat="39.96866625417009" lon="9.660509058052359"><ele>10.5</ele><time>2026-04-04T13:28:04Z</time></trkpt><trkpt lat="39.96854871599043" lon="9.660423513441998"><ele>9.25</ele><time>2026-04-04T13:28:05Z</time></trkpt><trkpt lat="39.968428518199616" lon="9.660337237008422"><ele>8.0</ele><time>2026-04-04T13:28:06Z</time></trkpt><trkpt lat="39.96830249718209" lon="9.66024845591291"><ele>8.0</ele><time>2026-04-04T13:28:07Z</time></trkpt><trkpt lat="39.96816896845689" lon="9.660153576040646"><ele>8.0</ele><time>2026-04-04T13:28:08Z</time></trkpt><trkpt lat="39.968027159048006" lon="9.66005263230161"><ele>8.0</ele><time>2026-04-04T13:28:09Z</time></trkpt><trkpt lat="39.96788089863602" lon="9.659949632743718"><ele>8.0</ele><time>2026-04-04T13:28:10Z</time></trkpt><trkpt lat="39.96773218393037" lon="9.65984577748843"><ele>8.0</ele><time>2026-04-04T13:28:11Z</time></trkpt><trkpt lat="39.96757660948067" lon="9.659737293851357"><ele>8.0</ele><time>2026-04-04T13:28:12Z</time></trkpt><trkpt lat="39.96742722996286" lon="9.659635056435688"><ele>8.333333333333332</ele><time>2026-04-04T13:28:13Z</time></trkpt><trkpt lat="39.967274428717374" lon="9.659529445058865"><ele>8.666666666666666</ele><time>2026-04-04T13:28:14Z</time></trkpt><trkpt lat="39.967118581520374" lon="9.659420616542542"><ele>9.0</ele><time>2026-04-04T13:28:15Z</time></trkpt><trkpt lat="39.96696246924429" lon="9.65930763702531"><ele>8.333333333333334</ele><time>2026-04-04T13:28:16Z</time></trkpt><trkpt lat="39.96680656420532" lon="9.659199575455505"><ele>7.666666666666667</ele><time>2026-04-04T13:28:17Z</time></trkpt><trkpt lat="39.96665884369275" lon="9.659097211905447"><ele>7.0</ele><time>2026-04-04T13:28:18Z</time></trkpt><trkpt lat="39.96651534692785" lon="9.659000583300609"><ele>6.333333333333334</ele><time>2026-04-04T13:28:19Z</time></trkpt><trkpt lat="39.96638373181691" lon="9.658911203151568"><ele>5.666666666666667</ele><time>2026-04-04T13:28:20Z</time></trkpt><trkpt lat="39.96623982296646" lon="9.65881066761594"><ele>5.0</ele><time>2026-04-04T13:28:21Z</time></trkpt><trkpt lat="39.966094771022824" lon="9.658708130637157"><ele>5.333333333333334</ele><time>2026-04-04T13:28:22Z</time></trkpt><trkpt lat="39.96594527547256" lon="9.658600668683361"><ele>5.666666666666667</ele><time>2026-04-04T13:28:23Z</time></trkpt><trkpt lat="39.96579360373905" lon="9.658495855432777"><ele>6.0</ele><time>2026-04-04T13:28:24Z</time></trkpt><trkpt lat="39.96564773746943" lon="9.658396805557258"><ele>6.0</ele><time>2026-04-04T13:28:25Z</time></trkpt><trkpt lat="39.96550371217569" lon="9.658298020142585"><ele>6.0</ele><time>2026-04-04T13:28:26Z</time></trkpt><trkpt lat="39.96535253022263" lon="9.658195109297921"><ele>6.0</ele><time>2026-04-04T13:28:27Z</time></trkpt><trkpt lat="39.96520388392458" lon="9.658093612308086"><ele>6.0</ele><time>2026-04-04T13:28:28Z</time></trkpt><trkpt lat="39.965056666527666" lon="9.6579902289123"><ele>6.0</ele><time>2026-04-04T13:28:29Z</time></trkpt><trkpt lat="39.96491636206866" lon="9.657889892861732"><ele>6.0</ele><time>2026-04-04T13:28:30Z</time></trkpt><trkpt lat="39.96478876045756" lon="9.657798608819348"><ele>8.333333333333332</ele><time>2026-04-04T13:28:31Z</time></trkpt><trkpt lat="39.964653741275576" lon="9.657709343777473"><ele>10.666666666666666</ele><time>2026-04-04T13:28:32Z</time></trkpt><trkpt lat="39.96451522563968" lon="9.65761246727434"><ele>13.0</ele><time>2026-04-04T13:28:33Z</time></trkpt><trkpt lat="39.96437222104336" lon="9.657532076817908"><ele>13.0</ele><time>2026-04-04T13:28:34Z</time></trkpt><trkpt lat="39.96419926674867" lon="9.657462553676769"><ele>13.0</ele><time>2026-04-04T13:28:35Z</time></trkpt><trkpt lat="39.96402923038626" lon="9.65741630653428"><ele>13.0</ele><time>2026-04-04T13:28:36Z</time></trkpt><trkpt lat="39.96384046638842" lon="9.657406220039432"><ele>13.666666666666666</ele><time>2026-04-04T13:28:37Z</time></trkpt><trkpt lat="39.96366362416638" lon="9.657382211739131"><ele>14.333333333333332</ele><time>2026-04-04T13:28:38Z</time></trkpt><trkpt lat="39.96345136518808" lon="9.657400900257693"><ele>15.0</ele><time>2026-04-04T13:28:39Z</time></trkpt><trkpt lat="39.963236232181536" lon="9.657420090720445"><ele>12.0</ele><time>2026-04-04T13:28:40Z</time></trkpt><trkpt lat="39.96300565588228" lon="9.657434662377332"><ele>9.0</ele><time>2026-04-04T13:28:41Z</time></trkpt><trkpt lat="39.96278017853963" lon="9.657444460483713"><ele>9.0</ele><time>2026-04-04T13:28:42Z</time></trkpt><trkpt lat="39.96255196769426" lon="9.65743965647365"><ele>9.0</ele><time>2026-04-04T13:28:43Z</time></trkpt><trkpt lat="39.962320684201906" lon="9.657409906895476"><ele>9.5</ele><time>2026-04-04T13:28:44Z</time></trkpt><trkpt lat="39.962098617841555" lon="9.657364650889798"><ele>10.0</ele><time>2026-04-04T13:28:45Z</time></trkpt><trkpt lat="39.96187466052458" lon="9.657311101634324"><ele>9.0</ele><time>2026-04-04T13:28:46Z</time></trkpt><trkpt lat="39.96165537703772" lon="9.657239619462846"><ele>8.0</ele><time>2026-04-04T13:28:47Z</time></trkpt><trkpt lat="39.961439496493696" lon="9.657149931747318"><ele>8.0</ele><time>2026-04-04T13:28:48Z</time></trkpt><trkpt lat="39.961229135240906" lon="9.657039701269639"><ele>8.0</ele><time>2026-04-04T13:28:49Z</time></trkpt><trkpt lat="39.961028637187546" lon="9.656918878310616"><ele>8.0</ele><time>2026-04-04T13:28:50Z</time></trkpt><trkpt lat="39.96083166199064" lon="9.656789345353067"><ele>8.333333333333332</ele><time>2026-04-04T13:28:51Z</time></trkpt><trkpt lat="39.96064145674149" lon="9.656643418810129"><ele>8.666666666666666</ele><time>2026-04-04T13:28:52Z</time></trkpt><trkpt lat="39.960458008717204" lon="9.656511667197696"><ele>9.0</ele><time>2026-04-04T13:28:53Z</time></trkpt><trkpt lat="39.9602721660269" lon="9.656381145102308"><ele>9.0</ele><time>2026-04-04T13:28:54Z</time></trkpt><trkpt lat="39.96008005124513" lon="9.656251857427167"><ele>9.0</ele><time>2026-04-04T13:28:55Z</time></trkpt><trkpt lat="39.95988878798118" lon="9.6561223086139"><ele>9.0</ele><time>2026-04-04T13:28:56Z</time></trkpt><trkpt lat="39.95969752398433" lon="9.655989691913152"><ele>9.0</ele><time>2026-04-04T13:28:57Z</time></trkpt><trkpt lat="39.95949950967839" lon="9.655856016152423"><ele>9.0</ele><time>2026-04-04T13:28:58Z</time></trkpt><trkpt lat="39.959301306170104" lon="9.65572552211604"><ele>9.0</ele><time>2026-04-04T13:28:59Z</time></trkpt><trkpt lat="39.95910145387574" lon="9.655585692180058"><ele>8.0</ele><time>2026-04-04T13:29:00Z</time></trkpt><trkpt lat="39.958901415633036" lon="9.65544009780257"><ele>7.0</ele><time>2026-04-04T13:29:01Z</time></trkpt><trkpt lat="39.95869467159843" lon="9.655302093879817"><ele>6.5</ele><time>2026-04-04T13:29:02Z</time></trkpt><trkpt lat="39.958486730127355" lon="9.655156395043411"><ele>6.0</ele><time>2026-04-04T13:29:03Z</time></trkpt><trkpt lat="39.958274963732734" lon="9.655010727738038"><ele>7.0</ele><time>2026-04-04T13:29:04Z</time></trkpt><trkpt lat="39.95806387187926" lon="9.654861345561335"><ele>8.0</ele><time>2026-04-04T13:29:05Z</time></trkpt><trkpt lat="39.95785066358087" lon="9.654713979698387"><ele>8.0</ele><time>2026-04-04T13:29:06Z</time></trkpt><trkpt lat="39.95764191446132" lon="9.6545753409088"><ele>8.0</ele><time>2026-04-04T13:29:07Z</time></trkpt><trkpt lat="39.95744177247376" lon="9.654432585426884"><ele>8.0</ele><time>2026-04-04T13:29:08Z</time></trkpt><trkpt lat="39.957249766434" lon="9.654305204441453"><ele>8.0</ele><time>2026-04-04T13:29:09Z</time></trkpt><trkpt lat="39.9570736294671" lon="9.654184697255912"><ele>8.0</ele><time>2026-04-04T13:29:10Z</time></trkpt><trkpt lat="39.956906015196374" lon="9.654067015224111"><ele>8.0</ele><time>2026-04-04T13:29:11Z</time></trkpt><trkpt lat="39.95673551145772" lon="9.653949660664551"><ele>8.0</ele><time>2026-04-04T13:29:12Z</time></trkpt><trkpt lat="39.95656491571004" lon="9.65382991165612"><ele>8.0</ele><time>2026-04-04T13:29:13Z</time></trkpt><trkpt lat="39.95639294781869" lon="9.65371274580035"><ele>7.666666666666666</ele><time>2026-04-04T13:29:14Z</time></trkpt><trkpt lat="39.95621426554953" lon="9.653593093453992"><ele>7.333333333333334</ele><time>2026-04-04T13:29:15Z</time></trkpt><trkpt lat="39.95603409656814" lon="9.653472955036612"><ele>7.0</ele><time>2026-04-04T13:29:16Z</time></trkpt><trkpt lat="39.95584961171228" lon="9.653345043067223"><ele>7.0</ele><time>2026-04-04T13:29:17Z</time></trkpt><trkpt lat="39.95566399375583" lon="9.653219971292337"><ele>7.0</ele><time>2026-04-04T13:29:18Z</time></trkpt><trkpt lat="39.95547317625672" lon="9.65308773378659"><ele>7.0</ele><time>2026-04-04T13:29:19Z</time></trkpt><trkpt lat="39.9552853694934" lon="9.65295193514656"><ele>7.0</ele><time>2026-04-04T13:29:20Z</time></trkpt><trkpt lat="39.95510021741428" lon="9.652820124079414"><ele>7.0</ele><time>2026-04-04T13:29:21Z</time></trkpt><trkpt lat="39.954909535996066" lon="9.65268764174883"><ele>7.0</ele><time>2026-04-04T13:29:22Z</time></trkpt><trkpt lat="39.954721988693954" lon="9.652563734310208"><ele>7.666666666666667</ele><time>2026-04-04T13:29:23Z</time></trkpt><trkpt lat="39.9545489847104" lon="9.652449192380443"><ele>8.333333333333334</ele><time>2026-04-04T13:29:24Z</time></trkpt><trkpt lat="39.95439049322977" lon="9.652341887870897"><ele>9.0</ele><time>2026-04-04T13:29:25Z</time></trkpt><trkpt lat="39.95423596857102" lon="9.652235575207316"><ele>9.0</ele><time>2026-04-04T13:29:26Z</time></trkpt><trkpt lat="39.95407438715691" lon="9.652121917334796"><ele>9.0</ele><time>2026-04-04T13:29:27Z</time></trkpt><trkpt lat="39.95391429379881" lon="9.65201059326959"><ele>9.0</ele><time>2026-04-04T13:29:28Z</time></trkpt><trkpt lat="39.95376473578366" lon="9.651909866571454"><ele>9.0</ele><time>2026-04-04T13:29:29Z</time></trkpt><trkpt lat="39.95361667752034" lon="9.651808768702189"><ele>9.0</ele><time>2026-04-04T13:29:30Z</time></trkpt><trkpt lat="39.95346546266319" lon="9.651704822008849"><ele>9.0</ele><time>2026-04-04T13:29:31Z</time></trkpt><trkpt lat="39.9533064773168" lon="9.65159367280205"><ele>11.0</ele><time>2026-04-04T13:29:32Z</time></trkpt><trkpt lat="39.95315150020897" lon="9.651485345399744"><ele>13.0</ele><time>2026-04-04T13:29:33Z</time></trkpt><trkpt lat="39.95299425653194" lon="9.651375759818533"><ele>15.0</ele><time>2026-04-04T13:29:34Z</time></trkpt><trkpt lat="39.9528306655163" lon="9.651264183269255"><ele>15.0</ele><time>2026-04-04T13:29:35Z</time></trkpt><trkpt lat="39.95266982805484" lon="9.651153012825366"><ele>15.0</ele><time>2026-04-04T13:29:36Z</time></trkpt><trkpt lat="39.952502999717055" lon="9.65103797034837"><ele>15.0</ele><time>2026-04-04T13:29:37Z</time></trkpt><trkpt lat="39.95233902987492" lon="9.650926853340609"><ele>15.0</ele><time>2026-04-04T13:29:38Z</time></trkpt><trkpt lat="39.952174676913096" lon="9.650814512375817"><ele>15.0</ele><time>2026-04-04T13:29:39Z</time></trkpt><trkpt lat="39.95201365329768" lon="9.650704861396829"><ele>15.0</ele><time>2026-04-04T13:29:40Z</time></trkpt><trkpt lat="39.95185226180694" lon="9.650594743577722"><ele>16.0</ele><time>2026-04-04T13:29:41Z</time></trkpt><trkpt lat="39.95168828635472" lon="9.650480541147354"><ele>17.0</ele><time>2026-04-04T13:29:42Z</time></trkpt><trkpt lat="39.95152475490728" lon="9.650369490569451"><ele>18.0</ele><time>2026-04-04T13:29:43Z</time></trkpt><trkpt lat="39.951369998356725" lon="9.650262544915266"><ele>18.0</ele><time>2026-04-04T13:29:44Z</time></trkpt><trkpt lat="39.95122088629785" lon="9.650159794582327"><ele>18.0</ele><time>2026-04-04T13:29:45Z</time></trkpt><trkpt lat="39.9510676837707" lon="9.65005292598278"><ele>18.0</ele><time>2026-04-04T13:29:46Z</time></trkpt><trkpt lat="39.95090637235269" lon="9.649942000175976"><ele>18.333333333333332</ele><time>2026-04-04T13:29:47Z</time></trkpt><trkpt lat="39.95074296268989" lon="9.649829424075836"><ele>18.666666666666664</ele><time>2026-04-04T13:29:48Z</time></trkpt><trkpt lat="39.950570595261055" lon="9.64971278466441"><ele>19.0</ele><time>2026-04-04T13:29:49Z</time></trkpt><trkpt lat="39.95039835551883" lon="9.649594125297387"><ele>19.0</ele><time>2026-04-04T13:29:50Z</time></trkpt><trkpt lat="39.95022216485907" lon="9.649476191521886"><ele>19.0</ele><time>2026-04-04T13:29:51Z</time></trkpt><trkpt lat="39.950041306760525" lon="9.649359615690784"><ele>19.0</ele><time>2026-04-04T13:29:52Z</time></trkpt><trkpt lat="39.94985477444335" lon="9.649247425836323"><ele>19.666666666666664</ele><time>2026-04-04T13:29:53Z</time></trkpt><trkpt lat="39.949660474681814" lon="9.649143356196113"><ele>20.333333333333332</ele><time>2026-04-04T13:29:54Z</time></trkpt><trkpt lat="39.949458246697965" lon="9.649051793318453"><ele>21.0</ele><time>2026-04-04T13:29:55Z</time></trkpt><trkpt lat="39.9492405394413" lon="9.648967547587453"><ele>20.0</ele><time>2026-04-04T13:29:56Z</time></trkpt><trkpt lat="39.94901670971444" lon="9.648891914472294"><ele>19.0</ele><time>2026-04-04T13:29:57Z</time></trkpt><trkpt lat="39.948785199286455" lon="9.648823287723928"><ele>19.0</ele><time>2026-04-04T13:29:58Z</time></trkpt><trkpt lat="39.94854363119481" lon="9.648769217775808"><ele>19.0</ele><time>2026-04-04T13:29:59Z</time></trkpt><trkpt lat="39.948297353466494" lon="9.648724015853817"><ele>20.0</ele><time>2026-04-04T13:30:00Z</time></trkpt><trkpt lat="39.948042768711765" lon="9.64868626174151"><ele>21.0</ele><time>2026-04-04T13:30:01Z</time></trkpt><trkpt lat="39.947786215522925" lon="9.648652825278084"><ele>22.5</ele><time>2026-04-04T13:30:02Z</time></trkpt><trkpt lat="39.947523209552905" lon="9.648618818337763"><ele>24.0</ele><time>2026-04-04T13:30:03Z</time></trkpt><trkpt lat="39.94726331073554" lon="9.64858329651256"><ele>24.0</ele><time>2026-04-04T13:30:04Z</time></trkpt><trkpt lat="39.947007495723646" lon="9.648549213132082"><ele>24.0</ele><time>2026-04-04T13:30:05Z</time></trkpt><trkpt lat="39.94675644516702" lon="9.648511354327987"><ele>22.0</ele><time>2026-04-04T13:30:06Z</time></trkpt><trkpt lat="39.946508828491396" lon="9.648476255242272"><ele>20.0</ele><time>2026-04-04T13:30:07Z</time></trkpt><trkpt lat="39.94626381806194" lon="9.648445143473102"><ele>20.0</ele><time>2026-04-04T13:30:08Z</time></trkpt><trkpt lat="39.94603064909717" lon="9.64841327865078"><ele>20.0</ele><time>2026-04-04T13:30:09Z</time></trkpt><trkpt lat="39.945814744805546" lon="9.64838058463457"><ele>19.333333333333336</ele><time>2026-04-04T13:30:10Z</time></trkpt><trkpt lat="39.94559624096131" lon="9.648346236413904"><ele>18.666666666666668</ele><time>2026-04-04T13:30:11Z</time></trkpt><trkpt lat="39.94537854049465" lon="9.648315293740392"><ele>18.0</ele><time>2026-04-04T13:30:12Z</time></trkpt><trkpt lat="39.94515553157902" lon="9.64828348622637"><ele>18.666666666666668</ele><time>2026-04-04T13:30:13Z</time></trkpt><trkpt lat="39.94493801431808" lon="9.648253894475873"><ele>19.333333333333336</ele><time>2026-04-04T13:30:14Z</time></trkpt><trkpt lat="39.94472520521734" lon="9.64822508310376"><ele>20.0</ele><time>2026-04-04T13:30:15Z</time></trkpt><trkpt lat="39.944512767964945" lon="9.648192969496867"><ele>20.0</ele><time>2026-04-04T13:30:16Z</time></trkpt><trkpt lat="39.94429654711211" lon="9.648161904091703"><ele>20.0</ele><time>2026-04-04T13:30:17Z</time></trkpt><trkpt lat="39.944078996335854" lon="9.648132038571683"><ele>20.0</ele><time>2026-04-04T13:30:18Z</time></trkpt><trkpt lat="39.943856269144035" lon="9.648101260376919"><ele>20.5</ele><time>2026-04-04T13:30:19Z</time></trkpt><trkpt lat="39.943626409406306" lon="9.648069504439327"><ele>21.0</ele><time>2026-04-04T13:30:20Z</time></trkpt><trkpt lat="39.9433886161405" lon="9.648036753433871"><ele>22.5</ele><time>2026-04-04T13:30:21Z</time></trkpt><trkpt lat="39.94315171809245" lon="9.648004486019138"><ele>24.0</ele><time>2026-04-04T13:30:22Z</time></trkpt><trkpt lat="39.942919935186495" lon="9.647974033647047"><ele>24.0</ele><time>2026-04-04T13:30:23Z</time></trkpt><trkpt lat="39.94268373342237" lon="9.647942646981686"><ele>24.0</ele><time>2026-04-04T13:30:24Z</time></trkpt><trkpt lat="39.94245172482195" lon="9.647913776021854"><ele>24.0</ele><time>2026-04-04T13:30:25Z</time></trkpt><trkpt lat="39.94222097302675" lon="9.647880727147546"><ele>24.0</ele><time>2026-04-04T13:30:26Z</time></trkpt><trkpt lat="39.94199194238741" lon="9.647847260026326"><ele>24.0</ele><time>2026-04-04T13:30:27Z</time></trkpt><trkpt lat="39.94176214326816" lon="9.64781267589677"><ele>24.0</ele><time>2026-04-04T13:30:28Z</time></trkpt><trkpt lat="39.94153662220932" lon="9.647780795768075"><ele>24.5</ele><time>2026-04-04T13:30:29Z</time></trkpt><trkpt lat="39.941307616772754" lon="9.647747991959985"><ele>25.0</ele><time>2026-04-04T13:30:30Z</time></trkpt><trkpt lat="39.94108261022208" lon="9.6477162870358"><ele>25.5</ele><time>2026-04-04T13:30:31Z</time></trkpt><trkpt lat="39.94085570811985" lon="9.647681123868255"><ele>26.0</ele><time>2026-04-04T13:30:32Z</time></trkpt><trkpt lat="39.94062722346178" lon="9.647643398282513"><ele>26.0</ele><time>2026-04-04T13:30:33Z</time></trkpt><trkpt lat="39.94039763982537" lon="9.647612001126614"><ele>26.0</ele><time>2026-04-04T13:30:34Z</time></trkpt><trkpt lat="39.94017150247873" lon="9.647582599603393"><ele>27.0</ele><time>2026-04-04T13:30:35Z</time></trkpt><trkpt lat="39.93994312792769" lon="9.64754787954069"><ele>28.0</ele><time>2026-04-04T13:30:36Z</time></trkpt><trkpt lat="39.93971276644687" lon="9.64751244852899"><ele>28.0</ele><time>2026-04-04T13:30:37Z</time></trkpt><trkpt lat="39.93948372875867" lon="9.647478629706889"><ele>28.0</ele><time>2026-04-04T13:30:38Z</time></trkpt><trkpt lat="39.93925010343225" lon="9.647447476815065"><ele>27.0</ele><time>2026-04-04T13:30:39Z</time></trkpt><trkpt lat="39.93902002179328" lon="9.647417356125187"><ele>26.0</ele><time>2026-04-04T13:30:40Z</time></trkpt><trkpt lat="39.93879116281018" lon="9.64738785934319"><ele>26.0</ele><time>2026-04-04T13:30:41Z</time></trkpt><trkpt lat="39.93856766455193" lon="9.647357162024152"><ele>26.0</ele><time>2026-04-04T13:30:42Z</time></trkpt><trkpt lat="39.938346197836466" lon="9.647325407698547"><ele>26.0</ele><time>2026-04-04T13:30:43Z</time></trkpt><trkpt lat="39.9381261033757" lon="9.647295318956427"><ele>26.0</ele><time>2026-04-04T13:30:44Z</time></trkpt><trkpt lat="39.937909749887794" lon="9.64726645625588"><ele>26.0</ele><time>2026-04-04T13:30:45Z</time></trkpt><trkpt lat="39.937697017161426" lon="9.647235248407732"><ele>26.0</ele><time>2026-04-04T13:30:46Z</time></trkpt><trkpt lat="39.93748310699532" lon="9.64720429809194"><ele>25.666666666666664</ele><time>2026-04-04T13:30:47Z</time></trkpt><trkpt lat="39.93726803630546" lon="9.647173513169975"><ele>25.333333333333336</ele><time>2026-04-04T13:30:48Z</time></trkpt><trkpt lat="39.937046600893055" lon="9.647142088188595"><ele>25.0</ele><time>2026-04-04T13:30:49Z</time></trkpt><trkpt lat="39.9368210580801" lon="9.64710801327301"><ele>24.5</ele><time>2026-04-04T13:30:50Z</time></trkpt><trkpt lat="39.93659209187087" lon="9.647074120407668"><ele>24.0</ele><time>2026-04-04T13:30:51Z</time></trkpt><trkpt lat="39.93636344333766" lon="9.647042874065143"><ele>24.0</ele><time>2026-04-04T13:30:52Z</time></trkpt><trkpt lat="39.93613591549138" lon="9.647013042321554"><ele>24.0</ele><time>2026-04-04T13:30:53Z</time></trkpt><trkpt lat="39.93591322296966" lon="9.646982066773761"><ele>26.0</ele><time>2026-04-04T13:30:54Z</time></trkpt><trkpt lat="39.935687216946064" lon="9.646950787056078"><ele>28.0</ele><time>2026-04-04T13:30:55Z</time></trkpt><trkpt lat="39.935467711898184" lon="9.646919977037452"><ele>30.0</ele><time>2026-04-04T13:30:56Z</time></trkpt><trkpt lat="39.93525495940223" lon="9.646888608232622"><ele>29.666666666666664</ele><time>2026-04-04T13:30:57Z</time></trkpt><trkpt lat="39.935046058386234" lon="9.646859187064857"><ele>29.333333333333332</ele><time>2026-04-04T13:30:58Z</time></trkpt><trkpt lat="39.93483529980395" lon="9.646829865514144"><ele>29.0</ele><time>2026-04-04T13:30:59Z</time></trkpt><trkpt lat="39.934616890232085" lon="9.646799945151477"><ele>29.0</ele><time>2026-04-04T13:31:00Z</time></trkpt><trkpt lat="39.9343911750979" lon="9.646770604466786"><ele>29.0</ele><time>2026-04-04T13:31:01Z</time></trkpt><trkpt lat="39.934161324071475" lon="9.646739491786363"><ele>28.5</ele><time>2026-04-04T13:31:02Z</time></trkpt><trkpt lat="39.93393755188982" lon="9.646703858795416"><ele>28.0</ele><time>2026-04-04T13:31:03Z</time></trkpt><trkpt lat="39.93370992820308" lon="9.646668873313448"><ele>28.0</ele><time>2026-04-04T13:31:04Z</time></trkpt><trkpt lat="39.93347598143181" lon="9.646635596089098"><ele>28.0</ele><time>2026-04-04T13:31:05Z</time></trkpt><trkpt lat="39.93325323775961" lon="9.64660708915725"><ele>27.666666666666668</ele><time>2026-04-04T13:31:06Z</time></trkpt><trkpt lat="39.93304006645485" lon="9.646578619831972"><ele>27.333333333333336</ele><time>2026-04-04T13:31:07Z</time></trkpt><trkpt lat="39.93283901936575" lon="9.646550013279379"><ele>27.0</ele><time>2026-04-04T13:31:08Z</time></trkpt><trkpt lat="39.93263688492111" lon="9.646520702214188"><ele>27.0</ele><time>2026-04-04T13:31:09Z</time></trkpt><trkpt lat="39.93242926170063" lon="9.646491437728907"><ele>27.0</ele><time>2026-04-04T13:31:10Z</time></trkpt><trkpt lat="39.932218533953375" lon="9.646463899547388"><ele>27.0</ele><time>2026-04-04T13:31:11Z</time></trkpt><trkpt lat="39.93199846523119" lon="9.646435047216336"><ele>27.0</ele><time>2026-04-04T13:31:12Z</time></trkpt><trkpt lat="39.93177638338218" lon="9.646404512071369"><ele>27.0</ele><time>2026-04-04T13:31:13Z</time></trkpt><trkpt lat="39.93155466162067" lon="9.64637247165775"><ele>27.0</ele><time>2026-04-04T13:31:14Z</time></trkpt><trkpt lat="39.93132797783519" lon="9.64634018888899"><ele>28.5</ele><time>2026-04-04T13:31:15Z</time></trkpt><trkpt lat="39.93109830621656" lon="9.646307486481252"><ele>30.0</ele><time>2026-04-04T13:31:16Z</time></trkpt><trkpt lat="39.93086904844563" lon="9.646276256121695"><ele>30.0</ele><time>2026-04-04T13:31:17Z</time></trkpt><trkpt lat="39.930638511212784" lon="9.64624384091452"><ele>30.0</ele><time>2026-04-04T13:31:18Z</time></trkpt><trkpt lat="39.930422251932285" lon="9.646212006622754"><ele>30.0</ele><time>2026-04-04T13:31:19Z</time></trkpt><trkpt lat="39.93021094115314" lon="9.646180343370819"><ele>30.666666666666664</ele><time>2026-04-04T13:31:20Z</time></trkpt><trkpt lat="39.92999198498186" lon="9.646154993249336"><ele>31.333333333333332</ele><time>2026-04-04T13:31:21Z</time></trkpt><trkpt lat="39.929772228949034" lon="9.64613808191843"><ele>32.0</ele><time>2026-04-04T13:31:22Z</time></trkpt><trkpt lat="39.92954634122882" lon="9.646131682635765"><ele>32.0</ele><time>2026-04-04T13:31:23Z</time></trkpt><trkpt lat="39.92932092144423" lon="9.646140153686222"><ele>32.0</ele><time>2026-04-04T13:31:24Z</time></trkpt><trkpt lat="39.92909403684123" lon="9.646164159990192"><ele>30.5</ele><time>2026-04-04T13:31:25Z</time></trkpt><trkpt lat="39.928863245756666" lon="9.646197176980372"><ele>29.0</ele><time>2026-04-04T13:31:26Z</time></trkpt><trkpt lat="39.928631928045874" lon="9.646244000174654"><ele>29.0</ele><time>2026-04-04T13:31:27Z</time></trkpt><trkpt lat="39.928399328573256" lon="9.646309139685117"><ele>29.0</ele><time>2026-04-04T13:31:28Z</time></trkpt><trkpt lat="39.92817211992955" lon="9.646379360079056"><ele>28.5</ele><time>2026-04-04T13:31:29Z</time></trkpt><trkpt lat="39.92794445656186" lon="9.646456517816256"><ele>28.0</ele><time>2026-04-04T13:31:30Z</time></trkpt><trkpt lat="39.92772018631005" lon="9.646533370658126"><ele>28.0</ele><time>2026-04-04T13:31:31Z</time></trkpt><trkpt lat="39.927491907472785" lon="9.646604715625486"><ele>28.0</ele><time>2026-04-04T13:31:32Z</time></trkpt><trkpt lat="39.927267363336085" lon="9.646673197270882"><ele>28.0</ele><time>2026-04-04T13:31:33Z</time></trkpt><trkpt lat="39.9270425245918" lon="9.646742494794394"><ele>28.0</ele><time>2026-04-04T13:31:34Z</time></trkpt><trkpt lat="39.926815463243074" lon="9.64681506857032"><ele>27.5</ele><time>2026-04-04T13:31:35Z</time></trkpt><trkpt lat="39.92658325892871" lon="9.646891118524467"><ele>27.0</ele><time>2026-04-04T13:31:36Z</time></trkpt><trkpt lat="39.926355039925866" lon="9.64696325932816"><ele>25.5</ele><time>2026-04-04T13:31:37Z</time></trkpt><trkpt lat="39.926120734389436" lon="9.64703686681695"><ele>24.0</ele><time>2026-04-04T13:31:38Z</time></trkpt><trkpt lat="39.92588835187463" lon="9.647106697059332"><ele>24.0</ele><time>2026-04-04T13:31:39Z</time></trkpt><trkpt lat="39.925651926892066" lon="9.647179173145638"><ele>24.0</ele><time>2026-04-04T13:31:40Z</time></trkpt><trkpt lat="39.925412217438236" lon="9.647255234070238"><ele>24.0</ele><time>2026-04-04T13:31:41Z</time></trkpt><trkpt lat="39.92517613471615" lon="9.647332314048503"><ele>24.0</ele><time>2026-04-04T13:31:42Z</time></trkpt><trkpt lat="39.924938831402805" lon="9.647409576686982"><ele>24.0</ele><time>2026-04-04T13:31:43Z</time></trkpt><trkpt lat="39.92469216455766" lon="9.647487505147401"><ele>24.0</ele><time>2026-04-04T13:31:44Z</time></trkpt><trkpt lat="39.92444174682386" lon="9.647567304730726"><ele>22.5</ele><time>2026-04-04T13:31:45Z</time></trkpt><trkpt lat="39.92418850126822" lon="9.647651753244382"><ele>21.0</ele><time>2026-04-04T13:31:46Z</time></trkpt><trkpt lat="39.92393001067989" lon="9.647736025032629"><ele>20.5</ele><time>2026-04-04T13:31:47Z</time></trkpt><trkpt lat="39.923666927639935" lon="9.647821199120207"><ele>20.0</ele><time>2026-04-04T13:31:48Z</time></trkpt><trkpt lat="39.92340549127901" lon="9.647900042135813"><ele>19.5</ele><time>2026-04-04T13:31:49Z</time></trkpt><trkpt lat="39.92313936908853" lon="9.647980680650877"><ele>19.0</ele><time>2026-04-04T13:31:50Z</time></trkpt><trkpt lat="39.922876478624154" lon="9.648060296229222"><ele>19.0</ele><time>2026-04-04T13:31:51Z</time></trkpt><trkpt lat="39.92261564599623" lon="9.64814423356705"><ele>19.0</ele><time>2026-04-04T13:31:52Z</time></trkpt><trkpt lat="39.92235049374787" lon="9.648231061494787"><ele>18.5</ele><time>2026-04-04T13:31:53Z</time></trkpt><trkpt lat="39.92209587025189" lon="9.64831198100125"><ele>18.0</ele><time>2026-04-04T13:31:54Z</time></trkpt><trkpt lat="39.92183202094371" lon="9.648391630167797"><ele>18.5</ele><time>2026-04-04T13:31:55Z</time></trkpt><trkpt lat="39.92157334211746" lon="9.648471802685918"><ele>19.0</ele><time>2026-04-04T13:31:56Z</time></trkpt><trkpt lat="39.92130946326087" lon="9.648553458691513"><ele>19.0</ele><time>2026-04-04T13:31:57Z</time></trkpt><trkpt lat="39.92104873345245" lon="9.648640536512962"><ele>19.0</ele><time>2026-04-04T13:31:58Z</time></trkpt><trkpt lat="39.92078483096517" lon="9.648729949213232"><ele>19.0</ele><time>2026-04-04T13:31:59Z</time></trkpt><trkpt lat="39.92052265945883" lon="9.648816404918225"><ele>19.0</ele><time>2026-04-04T13:32:00Z</time></trkpt><trkpt lat="39.92027181014954" lon="9.64889644414161"><ele>18.5</ele><time>2026-04-04T13:32:01Z</time></trkpt><trkpt lat="39.92003709745884" lon="9.648966829737978"><ele>18.0</ele><time>2026-04-04T13:32:02Z</time></trkpt><trkpt lat="39.9198088787649" lon="9.649042025999067"><ele>18.0</ele><time>2026-04-04T13:32:03Z</time></trkpt><trkpt lat="39.919579019805795" lon="9.649115210035603"><ele>18.0</ele><time>2026-04-04T13:32:04Z</time></trkpt><trkpt lat="39.91936001277844" lon="9.649183611962505"><ele>19.333333333333332</ele><time>2026-04-04T13:32:05Z</time></trkpt><trkpt lat="39.91915861187206" lon="9.649244911409891"><ele>20.666666666666664</ele><time>2026-04-04T13:32:06Z</time></trkpt><trkpt lat="39.91895468064498" lon="9.649308602547814"><ele>22.0</ele><time>2026-04-04T13:32:07Z</time></trkpt><trkpt lat="39.91874557683749" lon="9.649372023521039"><ele>22.0</ele><time>2026-04-04T13:32:08Z</time></trkpt><trkpt lat="39.918532097270514" lon="9.649443454136545"><ele>22.0</ele><time>2026-04-04T13:32:09Z</time></trkpt><trkpt lat="39.91831599007054" lon="9.649516853017614"><ele>22.0</ele><time>2026-04-04T13:32:10Z</time></trkpt><trkpt lat="39.91809429254676" lon="9.649595958086039"><ele>21.333333333333332</ele><time>2026-04-04T13:32:11Z</time></trkpt><trkpt lat="39.917881760438384" lon="9.649674280947272"><ele>20.666666666666668</ele><time>2026-04-04T13:32:12Z</time></trkpt><trkpt lat="39.91768903400669" lon="9.64974776714252"><ele>20.0</ele><time>2026-04-04T13:32:13Z</time></trkpt><trkpt lat="39.91751040140227" lon="9.649820660490882"><ele>19.333333333333336</ele><time>2026-04-04T13:32:14Z</time></trkpt><trkpt lat="39.91734705582812" lon="9.649893060511749"><ele>18.666666666666668</ele><time>2026-04-04T13:32:15Z</time></trkpt><trkpt lat="39.917203008850514" lon="9.649957243501841"><ele>18.0</ele><time>2026-04-04T13:32:16Z</time></trkpt><trkpt lat="39.917080852018344" lon="9.650014995046323"><ele>18.0</ele><time>2026-04-04T13:32:17Z</time></trkpt><trkpt lat="39.916987955922814" lon="9.650059858727122"><ele>18.0</ele><time>2026-04-04T13:32:18Z</time></trkpt><trkpt lat="39.916909308099555" lon="9.65008965939784"><ele>18.0</ele><time>2026-04-04T13:32:19Z</time></trkpt><trkpt lat="39.916814255128" lon="9.650107815086331"><ele>18.0</ele><time>2026-04-04T13:32:21Z</time></trkpt><trkpt lat="39.91674490118676" lon="9.650087990005513"><ele>18.0</ele><time>2026-04-04T13:32:23Z</time></trkpt><trkpt lat="39.9166521472983" lon="9.650031778478724"><ele>18.4</ele><time>2026-04-04T13:32:25Z</time></trkpt><trkpt lat="39.91658529625163" lon="9.650020631932643"><ele>18.8</ele><time>2026-04-04T13:32:26Z</time></trkpt><trkpt lat="39.916461245300916" lon="9.650088325559297"><ele>19.2</ele><time>2026-04-04T13:32:28Z</time></trkpt><trkpt lat="39.91637841760007" lon="9.65016011996894"><ele>19.6</ele><time>2026-04-04T13:32:29Z</time></trkpt><trkpt lat="39.91625770681842" lon="9.650215329836119"><ele>20.0</ele><time>2026-04-04T13:32:30Z</time></trkpt><trkpt lat="39.916136396677466" lon="9.650235049696397"><ele>20.0</ele><time>2026-04-04T13:32:31Z</time></trkpt><trkpt lat="39.91599489415582" lon="9.650227472848746"><ele>20.0</ele><time>2026-04-04T13:32:32Z</time></trkpt><trkpt lat="39.915825707685244" lon="9.650212345953681"><ele>20.0</ele><time>2026-04-04T13:32:33Z</time></trkpt><trkpt lat="39.915635445159324" lon="9.650203230714093"><ele>20.333333333333336</ele><time>2026-04-04T13:32:34Z</time></trkpt><trkpt lat="39.91543062880768" lon="9.650194534129797"><ele>20.666666666666668</ele><time>2026-04-04T13:32:35Z</time></trkpt><trkpt lat="39.915229418320614" lon="9.650188633829524"><ele>21.0</ele><time>2026-04-04T13:32:36Z</time></trkpt><trkpt lat="39.915001958880644" lon="9.650181669530818"><ele>23.0</ele><time>2026-04-04T13:32:37Z</time></trkpt><trkpt lat="39.91475907824453" lon="9.65017400343039"><ele>25.0</ele><time>2026-04-04T13:32:38Z</time></trkpt><trkpt lat="39.914517543023344" lon="9.650156268377089"><ele>25.0</ele><time>2026-04-04T13:32:39Z</time></trkpt><trkpt lat="39.91424996659971" lon="9.650144878447048"><ele>25.0</ele><time>2026-04-04T13:32:40Z</time></trkpt><trkpt lat="39.91398355364032" lon="9.65012975261493"><ele>25.0</ele><time>2026-04-04T13:32:41Z</time></trkpt><trkpt lat="39.913697001350116" lon="9.650110793524588"><ele>25.0</ele><time>2026-04-04T13:32:42Z</time></trkpt><trkpt lat="39.91340203251856" lon="9.650090421009669"><ele>24.0</ele><time>2026-04-04T13:32:43Z</time></trkpt><trkpt lat="39.9131010440413" lon="9.650063275398093"><ele>23.0</ele><time>2026-04-04T13:32:44Z</time></trkpt><trkpt lat="39.912807370016445" lon="9.650034886080658"><ele>22.5</ele><time>2026-04-04T13:32:45Z</time></trkpt><trkpt lat="39.91250469953012" lon="9.64999271563425"><ele>22.0</ele><time>2026-04-04T13:32:46Z</time></trkpt><trkpt lat="39.91219122170103" lon="9.649941877910058"><ele>22.0</ele><time>2026-04-04T13:32:47Z</time></trkpt><trkpt lat="39.91187955118717" lon="9.649882834683927"><ele>22.0</ele><time>2026-04-04T13:32:48Z</time></trkpt><trkpt lat="39.91156519574082" lon="9.649820246130982"><ele>21.5</ele><time>2026-04-04T13:32:49Z</time></trkpt><trkpt lat="39.911264714239174" lon="9.649755304098266"><ele>21.0</ele><time>2026-04-04T13:32:50Z</time></trkpt><trkpt lat="39.91099914710201" lon="9.64969605948156"><ele>21.5</ele><time>2026-04-04T13:32:51Z</time></trkpt><trkpt lat="39.91075756740361" lon="9.64964276737806"><ele>22.0</ele><time>2026-04-04T13:32:52Z</time></trkpt><trkpt lat="39.9105275766248" lon="9.649599450424006"><ele>22.0</ele><time>2026-04-04T13:32:53Z</time></trkpt><trkpt lat="39.91029818293917" lon="9.649555173759014"><ele>22.0</ele><time>2026-04-04T13:32:54Z</time></trkpt><trkpt lat="39.910072106157415" lon="9.649517904777994"><ele>22.0</ele><time>2026-04-04T13:32:55Z</time></trkpt><trkpt lat="39.90984275157296" lon="9.649489473940797"><ele>22.0</ele><time>2026-04-04T13:32:56Z</time></trkpt><trkpt lat="39.90960932397189" lon="9.649460932189278"><ele>24.5</ele><time>2026-04-04T13:32:57Z</time></trkpt><trkpt lat="39.909373832444196" lon="9.649440812910319"><ele>27.0</ele><time>2026-04-04T13:32:58Z</time></trkpt><trkpt lat="39.90913779221361" lon="9.649412834296006"><ele>27.0</ele><time>2026-04-04T13:32:59Z</time></trkpt><trkpt lat="39.90890359331781" lon="9.649396911828703"><ele>27.0</ele><time>2026-04-04T13:33:00Z</time></trkpt><trkpt lat="39.908665207367065" lon="9.649384223959487"><ele>27.0</ele><time>2026-04-04T13:33:01Z</time></trkpt><trkpt lat="39.908422076235226" lon="9.649371924461446"><ele>27.0</ele><time>2026-04-04T13:33:02Z</time></trkpt><trkpt lat="39.90817164460966" lon="9.649367633060256"><ele>29.0</ele><time>2026-04-04T13:33:03Z</time></trkpt><trkpt lat="39.90792172787224" lon="9.649362007536961"><ele>31.0</ele><time>2026-04-04T13:33:04Z</time></trkpt><trkpt lat="39.90767004288378" lon="9.64935048259223"><ele>31.5</ele><time>2026-04-04T13:33:05Z</time></trkpt><trkpt lat="39.90741811692138" lon="9.649339650730566"><ele>32.0</ele><time>2026-04-04T13:33:06Z</time></trkpt><trkpt lat="39.9071689847273" lon="9.649332610062853"><ele>32.0</ele><time>2026-04-04T13:33:07Z</time></trkpt><trkpt lat="39.906929233206434" lon="9.649324458531801"><ele>32.0</ele><time>2026-04-04T13:33:08Z</time></trkpt><trkpt lat="39.906723336344776" lon="9.649316944965012"><ele>32.0</ele><time>2026-04-04T13:33:09Z</time></trkpt><trkpt lat="39.90650516738884" lon="9.649308483305632"><ele>32.33333333333333</ele><time>2026-04-04T13:33:10Z</time></trkpt><trkpt lat="39.906288716085754" lon="9.649299353762958"><ele>32.666666666666664</ele><time>2026-04-04T13:33:11Z</time></trkpt><trkpt lat="39.90607496425182" lon="9.649290205397067"><ele>33.0</ele><time>2026-04-04T13:33:12Z</time></trkpt><trkpt lat="39.90584956476694" lon="9.649283922750355"><ele>33.0</ele><time>2026-04-04T13:33:13Z</time></trkpt><trkpt lat="39.905618392103705" lon="9.649279998191487"><ele>33.0</ele><time>2026-04-04T13:33:14Z</time></trkpt><trkpt lat="39.905385633262036" lon="9.649274919234074"><ele>33.0</ele><time>2026-04-04T13:33:15Z</time></trkpt><trkpt lat="39.90515287445033" lon="9.649262751451408"><ele>33.0</ele><time>2026-04-04T13:33:16Z</time></trkpt><trkpt lat="39.90492279738369" lon="9.649247320183846"><ele>32.5</ele><time>2026-04-04T13:33:17Z</time></trkpt><trkpt lat="39.90468726259921" lon="9.649226832267018"><ele>32.0</ele><time>2026-04-04T13:33:18Z</time></trkpt><trkpt lat="39.90445291853287" lon="9.649207777708472"><ele>32.0</ele><time>2026-04-04T13:33:19Z</time></trkpt><trkpt lat="39.90421911367188" lon="9.649187849719914"><ele>32.0</ele><time>2026-04-04T13:33:20Z</time></trkpt><trkpt lat="39.90398579048588" lon="9.649166720951861"><ele>32.0</ele><time>2026-04-04T13:33:21Z</time></trkpt><trkpt lat="39.90375154533921" lon="9.649145176789691"><ele>32.0</ele><time>2026-04-04T13:33:22Z</time></trkpt><trkpt lat="39.90351787631169" lon="9.649121701635112"><ele>32.5</ele><time>2026-04-04T13:33:23Z</time></trkpt><trkpt lat="39.903279599894816" lon="9.649097536010165"><ele>33.0</ele><time>2026-04-04T13:33:24Z</time></trkpt><trkpt lat="39.903043278004674" lon="9.649072954650988"><ele>33.0</ele><time>2026-04-04T13:33:25Z</time></trkpt><trkpt lat="39.902801141547194" lon="9.649048152881836"><ele>33.0</ele><time>2026-04-04T13:33:26Z</time></trkpt><trkpt lat="39.902556605993254" lon="9.649024505162105"><ele>34.0</ele><time>2026-04-04T13:33:27Z</time></trkpt><trkpt lat="39.90231184778691" lon="9.649003047338242"><ele>35.0</ele><time>2026-04-04T13:33:28Z</time></trkpt><trkpt lat="39.90206465006082" lon="9.64898046878438"><ele>35.0</ele><time>2026-04-04T13:33:29Z</time></trkpt><trkpt lat="39.90181553134534" lon="9.648956360622124"><ele>35.0</ele><time>2026-04-04T13:33:30Z</time></trkpt><trkpt lat="39.90156749923568" lon="9.648931528331653"><ele>36.5</ele><time>2026-04-04T13:33:31Z</time></trkpt><trkpt lat="39.901313558721384" lon="9.648903370311526"><ele>38.0</ele><time>2026-04-04T13:33:32Z</time></trkpt><trkpt lat="39.90106820527028" lon="9.648881771112812"><ele>38.5</ele><time>2026-04-04T13:33:33Z</time></trkpt><trkpt lat="39.90082926631884" lon="9.648856895742064"><ele>39.0</ele><time>2026-04-04T13:33:34Z</time></trkpt><trkpt lat="39.90059219499161" lon="9.648832037192491"><ele>39.0</ele><time>2026-04-04T13:33:35Z</time></trkpt><trkpt lat="39.90035691216283" lon="9.648809562579281"><ele>39.0</ele><time>2026-04-04T13:33:36Z</time></trkpt><trkpt lat="39.90012827864909" lon="9.648787834934355"><ele>39.0</ele><time>2026-04-04T13:33:37Z</time></trkpt><trkpt lat="39.899903892490315" lon="9.648765288995083"><ele>39.0</ele><time>2026-04-04T13:33:38Z</time></trkpt><trkpt lat="39.89967981121941" lon="9.64874366369457"><ele>39.0</ele><time>2026-04-04T13:33:39Z</time></trkpt><trkpt lat="39.89945671234831" lon="9.648722560672992"><ele>39.0</ele><time>2026-04-04T13:33:40Z</time></trkpt><trkpt lat="39.89923087258612" lon="9.648699390578797"><ele>40.5</ele><time>2026-04-04T13:33:41Z</time></trkpt><trkpt lat="39.89900227436241" lon="9.64867385809944"><ele>42.0</ele><time>2026-04-04T13:33:42Z</time></trkpt><trkpt lat="39.89876788307846" lon="9.648650701395967"><ele>42.0</ele><time>2026-04-04T13:33:43Z</time></trkpt><trkpt lat="39.89853432025414" lon="9.648627393234937"><ele>42.0</ele><time>2026-04-04T13:33:43.999Z</time></trkpt><trkpt lat="39.89829630596475" lon="9.64860099213799"><ele>44.5</ele><time>2026-04-04T13:33:44.999Z</time></trkpt><trkpt lat="39.898054831294886" lon="9.648577285293683"><ele>47.0</ele><time>2026-04-04T13:33:45.999Z</time></trkpt><trkpt lat="39.897818688376965" lon="9.648555358630926"><ele>47.0</ele><time>2026-04-04T13:33:46.999Z</time></trkpt><trkpt lat="39.897588833300105" lon="9.648534800579169"><ele>47.0</ele><time>2026-04-04T13:33:47.999Z</time></trkpt><trkpt lat="39.897363302009126" lon="9.64852044904268"><ele>47.666666666666664</ele><time>2026-04-04T13:33:48.999Z</time></trkpt><trkpt lat="39.89713833983051" lon="9.64851083887369"><ele>48.33333333333333</ele><time>2026-04-04T13:33:49.999Z</time></trkpt><trkpt lat="39.896914172727485" lon="9.648509506287994"><ele>49.0</ele><time>2026-04-04T13:33:50.999Z</time></trkpt><trkpt lat="39.8966869450313" lon="9.648519152353435"><ele>51.0</ele><time>2026-04-04T13:33:51.999Z</time></trkpt><trkpt lat="39.89645618037409" lon="9.648540008903145"><ele>53.0</ele><time>2026-04-04T13:33:52.999Z</time></trkpt><trkpt lat="39.89622425522256" lon="9.648569839362887"><ele>53.0</ele><time>2026-04-04T13:33:53.999Z</time></trkpt><trkpt lat="39.89599271971652" lon="9.648612337495033"><ele>53.0</ele><time>2026-04-04T13:33:54.999Z</time></trkpt><trkpt lat="39.895758284521484" lon="9.648665869498497"><ele>52.0</ele><time>2026-04-04T13:33:55.999Z</time></trkpt><trkpt lat="39.89553666876834" lon="9.648729934959396"><ele>51.0</ele><time>2026-04-04T13:33:56.999Z</time></trkpt><trkpt lat="39.895325990161645" lon="9.648797981897433"><ele>50.0</ele><time>2026-04-04T13:33:57.999Z</time></trkpt><trkpt lat="39.89511699866649" lon="9.648870732400846"><ele>49.5</ele><time>2026-04-04T13:33:58.999Z</time></trkpt><trkpt lat="39.89490324738867" lon="9.648947405032445"><ele>49.0</ele><time>2026-04-04T13:33:59.999Z</time></trkpt><trkpt lat="39.89468167629929" lon="9.649028932867424"><ele>49.0</ele><time>2026-04-04T13:34:00.999Z</time></trkpt><trkpt lat="39.8944560404757" lon="9.649115674516555"><ele>49.0</ele><time>2026-04-04T13:34:01.999Z</time></trkpt><trkpt lat="39.894230074979" lon="9.64920591308278"><ele>50.5</ele><time>2026-04-04T13:34:02.999Z</time></trkpt><trkpt lat="39.894009206682156" lon="9.649296890461551"><ele>52.0</ele><time>2026-04-04T13:34:03.999Z</time></trkpt><trkpt lat="39.893798375941074" lon="9.649381498979754"><ele>49.666666666666664</ele><time>2026-04-04T13:34:04.999Z</time></trkpt><trkpt lat="39.89358820508201" lon="9.649464653216127"><ele>47.33333333333333</ele><time>2026-04-04T13:34:05.999Z</time></trkpt><trkpt lat="39.893371805111244" lon="9.649550498168031"><ele>45.0</ele><time>2026-04-04T13:34:06.999Z</time></trkpt><trkpt lat="39.893158961159514" lon="9.649632659040916"><ele>44.5</ele><time>2026-04-04T13:34:07.999Z</time></trkpt><trkpt lat="39.892939970412975" lon="9.64971619384789"><ele>44.0</ele><time>2026-04-04T13:34:08.999Z</time></trkpt><trkpt lat="39.89272046478017" lon="9.649803328812645"><ele>44.0</ele><time>2026-04-04T13:34:09.999Z</time></trkpt><trkpt lat="39.89249874423829" lon="9.649889111215268"><ele>44.0</ele><time>2026-04-04T13:34:10.999Z</time></trkpt><trkpt lat="39.89227128959721" lon="9.649978530225226"><ele>44.0</ele><time>2026-04-04T13:34:11.999Z</time></trkpt><trkpt lat="39.89204400850158" lon="9.65006388002332"><ele>44.0</ele><time>2026-04-04T13:34:12.999Z</time></trkpt><trkpt lat="39.891815574432876" lon="9.650145104341496"><ele>42.5</ele><time>2026-04-04T13:34:13.999Z</time></trkpt><trkpt lat="39.891583206094715" lon="9.650223170665507"><ele>41.0</ele><time>2026-04-04T13:34:14.999Z</time></trkpt><trkpt lat="39.89135137528937" lon="9.650292021968271"><ele>41.0</ele><time>2026-04-04T13:34:15.999Z</time></trkpt><trkpt lat="39.89112256711607" lon="9.650348294430291"><ele>41.0</ele><time>2026-04-04T13:34:16.999Z</time></trkpt><trkpt lat="39.89089888204245" lon="9.650396257463013"><ele>40.5</ele><time>2026-04-04T13:34:17.999Z</time></trkpt><trkpt lat="39.89067746957164" lon="9.65043620418085"><ele>40.0</ele><time>2026-04-04T13:34:18.999Z</time></trkpt><trkpt lat="39.89045296208168" lon="9.650472872159574"><ele>40.0</ele><time>2026-04-04T13:34:19.999Z</time></trkpt><trkpt lat="39.89022442464452" lon="9.650509292900278"><ele>40.0</ele><time>2026-04-04T13:34:20.999Z</time></trkpt><trkpt lat="39.89000221804636" lon="9.650544661394644"><ele>38.5</ele><time>2026-04-04T13:34:21.999Z</time></trkpt><trkpt lat="39.88977278952701" lon="9.65057990681849"><ele>37.0</ele><time>2026-04-04T13:34:22.999Z</time></trkpt><trkpt lat="39.88954576624696" lon="9.650616010494632"><ele>37.0</ele><time>2026-04-04T13:34:23.999Z</time></trkpt><trkpt lat="39.88931785373491" lon="9.650649452267423"><ele>37.0</ele><time>2026-04-04T13:34:24.999Z</time></trkpt><trkpt lat="39.889090576353475" lon="9.650682267144658"><ele>37.0</ele><time>2026-04-04T13:34:25.999Z</time></trkpt><trkpt lat="39.8888652985486" lon="9.650714661136707"><ele>37.0</ele><time>2026-04-04T13:34:26.999Z</time></trkpt><trkpt lat="39.88863322596515" lon="9.650747934329598"><ele>36.5</ele><time>2026-04-04T13:34:27.999Z</time></trkpt><trkpt lat="39.88840084051728" lon="9.650780708968114"><ele>36.0</ele><time>2026-04-04T13:34:28.999Z</time></trkpt><trkpt lat="39.88816839119747" lon="9.650811894699297"><ele>36.0</ele><time>2026-04-04T13:34:29.999Z</time></trkpt><trkpt lat="39.88793186996936" lon="9.650844449899232"><ele>36.0</ele><time>2026-04-04T13:34:30.999Z</time></trkpt><trkpt lat="39.88769444823771" lon="9.650877796273345"><ele>36.0</ele><time>2026-04-04T13:34:31.999Z</time></trkpt><trkpt lat="39.88745110369812" lon="9.650913838817377"><ele>36.0</ele><time>2026-04-04T13:34:32.999Z</time></trkpt><trkpt lat="39.88721410388751" lon="9.650952586296494"><ele>36.0</ele><time>2026-04-04T13:34:33.999Z</time></trkpt><trkpt lat="39.886977130872346" lon="9.650990096183587"><ele>36.0</ele><time>2026-04-04T13:34:34.999Z</time></trkpt><trkpt lat="39.886731872017904" lon="9.6510249407413"><ele>37.5</ele><time>2026-04-04T13:34:35.999Z</time></trkpt><trkpt lat="39.88649946002956" lon="9.651057151835003"><ele>39.0</ele><time>2026-04-04T13:34:36.999Z</time></trkpt><trkpt lat="39.88628040130341" lon="9.651083402264604"><ele>39.0</ele><time>2026-04-04T13:34:37.999Z</time></trkpt><trkpt lat="39.88606661668386" lon="9.651099322632737"><ele>39.0</ele><time>2026-04-04T13:34:38.999Z</time></trkpt><trkpt lat="39.88584687581379" lon="9.651106606413489"><ele>39.0</ele><time>2026-04-04T13:34:39.999Z</time></trkpt><trkpt lat="39.88562817845639" lon="9.651099122067759"><ele>39.666666666666664</ele><time>2026-04-04T13:34:40.999Z</time></trkpt><trkpt lat="39.88541370202643" lon="9.651086102094727"><ele>40.33333333333333</ele><time>2026-04-04T13:34:41.999Z</time></trkpt><trkpt lat="39.88519925048868" lon="9.651068000401745"><ele>41.0</ele><time>2026-04-04T13:34:42.999Z</time></trkpt><trkpt lat="39.88498704014052" lon="9.651043632494279"><ele>37.33333333333333</ele><time>2026-04-04T13:34:43.999Z</time></trkpt><trkpt lat="39.88477960376636" lon="9.651013147013904"><ele>33.666666666666664</ele><time>2026-04-04T13:34:44.999Z</time></trkpt><trkpt lat="39.884571501258016" lon="9.650983042237904"><ele>30.0</ele><time>2026-04-04T13:34:45.999Z</time></trkpt><trkpt lat="39.88436803294924" lon="9.650951332240277"><ele>29.333333333333336</ele><time>2026-04-04T13:34:46.999Z</time></trkpt><trkpt lat="39.88416926287876" lon="9.65092413922469"><ele>28.666666666666668</ele><time>2026-04-04T13:34:47.999Z</time></trkpt><trkpt lat="39.88396455622989" lon="9.650896810868712"><ele>28.0</ele><time>2026-04-04T13:34:48.999Z</time></trkpt><trkpt lat="39.88376739599869" lon="9.650867661691352"><ele>28.0</ele><time>2026-04-04T13:34:49.999Z</time></trkpt><trkpt lat="39.88357339808648" lon="9.650837230230948"><ele>28.0</ele><time>2026-04-04T13:34:50.999Z</time></trkpt><trkpt lat="39.88337603772718" lon="9.650806993369436"><ele>28.0</ele><time>2026-04-04T13:34:51.999Z</time></trkpt><trkpt lat="39.88317903201582" lon="9.65077611382475"><ele>28.666666666666668</ele><time>2026-04-04T13:34:52.999Z</time></trkpt><trkpt lat="39.88298633999175" lon="9.650746568035824"><ele>29.333333333333336</ele><time>2026-04-04T13:34:53.999Z</time></trkpt><trkpt lat="39.88279066812192" lon="9.650717039248649"><ele>30.0</ele><time>2026-04-04T13:34:54.999Z</time></trkpt><trkpt lat="39.88259127302501" lon="9.650686498311364"><ele>30.333333333333336</ele><time>2026-04-04T13:34:55.999Z</time></trkpt><trkpt lat="39.882387545034575" lon="9.650655828244327"><ele>30.666666666666668</ele><time>2026-04-04T13:34:56.999Z</time></trkpt><trkpt lat="39.88218435821096" lon="9.65062008924277"><ele>31.0</ele><time>2026-04-04T13:34:57.999Z</time></trkpt><trkpt lat="39.88197859243118" lon="9.650582609856642"><ele>31.0</ele><time>2026-04-04T13:34:58.999Z</time></trkpt><trkpt lat="39.88177071535499" lon="9.650546520688502"><ele>31.0</ele><time>2026-04-04T13:34:59.999Z</time></trkpt><trkpt lat="39.88156467678338" lon="9.650514221290713"><ele>31.0</ele><time>2026-04-04T13:35:00.999Z</time></trkpt><trkpt lat="39.88135574574825" lon="9.650484111111606"><ele>31.666666666666668</ele><time>2026-04-04T13:35:01.999Z</time></trkpt><trkpt lat="39.881149725580734" lon="9.650452295860022"><ele>32.333333333333336</ele><time>2026-04-04T13:35:02.999Z</time></trkpt><trkpt lat="39.88093781241823" lon="9.650419611753625"><ele>33.0</ele><time>2026-04-04T13:35:03.999Z</time></trkpt><trkpt lat="39.88071582995664" lon="9.650385408249171"><ele>33.0</ele><time>2026-04-04T13:35:04.999Z</time></trkpt><trkpt lat="39.88047835141364" lon="9.650349307263852"><ele>33.0</ele><time>2026-04-04T13:35:05.999Z</time></trkpt><trkpt lat="39.88022701428453" lon="9.650308424121903"><ele>39.5</ele><time>2026-04-04T13:35:06.999Z</time></trkpt><trkpt lat="39.87996940595696" lon="9.65025913444092"><ele>46.0</ele><time>2026-04-04T13:35:07.999Z</time></trkpt><trkpt lat="39.8797050293365" lon="9.650199503451875"><ele>46.0</ele><time>2026-04-04T13:35:08.999Z</time></trkpt><trkpt lat="39.87943515736591" lon="9.650126628479802"><ele>46.0</ele><time>2026-04-04T13:35:09.999Z</time></trkpt><trkpt lat="39.879163695703184" lon="9.65004121675265"><ele>45.0</ele><time>2026-04-04T13:35:10.999Z</time></trkpt><trkpt lat="39.87888702171966" lon="9.649940528614525"><ele>44.0</ele><time>2026-04-04T13:35:11.999Z</time></trkpt><trkpt lat="39.878614624284644" lon="9.64982761116582"><ele>42.0</ele><time>2026-04-04T13:35:13Z</time></trkpt><trkpt lat="39.87833729872624" lon="9.649712363161909"><ele>40.0</ele><time>2026-04-04T13:35:14Z</time></trkpt><trkpt lat="39.87805859773769" lon="9.649594879973858"><ele>40.0</ele><time>2026-04-04T13:35:15Z</time></trkpt><trkpt lat="39.877779115791746" lon="9.649478524974134"><ele>40.0</ele><time>2026-04-04T13:35:16Z</time></trkpt><trkpt lat="39.877510945244424" lon="9.649368163444374"><ele>43.0</ele><time>2026-04-04T13:35:17Z</time></trkpt><trkpt lat="39.87725997207151" lon="9.649264430031272"><ele>46.0</ele><time>2026-04-04T13:35:18Z</time></trkpt><trkpt lat="39.87701128045133" lon="9.649159668144215"><ele>45.0</ele><time>2026-04-04T13:35:19Z</time></trkpt><trkpt lat="39.87676815985116" lon="9.64905651728816"><ele>44.0</ele><time>2026-04-04T13:35:20Z</time></trkpt><trkpt lat="39.87652880354232" lon="9.648954971653957"><ele>44.0</ele><time>2026-04-04T13:35:21Z</time></trkpt><trkpt lat="39.876288732422786" lon="9.648852889632911"><ele>44.0</ele><time>2026-04-04T13:35:22Z</time></trkpt><trkpt lat="39.87606005661484" lon="9.648733813591045"><ele>42.5</ele><time>2026-04-04T13:35:23Z</time></trkpt><trkpt lat="39.87581501289715" lon="9.64865609168298"><ele>41.0</ele><time>2026-04-04T13:35:24Z</time></trkpt><trkpt lat="39.87557881396923" lon="9.648559040953291"><ele>42.0</ele><time>2026-04-04T13:35:25Z</time></trkpt><trkpt lat="39.875338916456826" lon="9.648465186042543"><ele>43.0</ele><time>2026-04-04T13:35:26Z</time></trkpt><trkpt lat="39.875097905980354" lon="9.648376526857351"><ele>43.0</ele><time>2026-04-04T13:35:27Z</time></trkpt><trkpt lat="39.87484848965171" lon="9.648302066332699"><ele>43.0</ele><time>2026-04-04T13:35:28Z</time></trkpt><trkpt lat="39.87459898492828" lon="9.648242739983946"><ele>43.0</ele><time>2026-04-04T13:35:29Z</time></trkpt><trkpt lat="39.87434421077757" lon="9.648202668564535"><ele>43.0</ele><time>2026-04-04T13:35:30Z</time></trkpt><trkpt lat="39.874086633830125" lon="9.648180667097218"><ele>42.0</ele><time>2026-04-04T13:35:31Z</time></trkpt><trkpt lat="39.87382793717754" lon="9.648178170036093"><ele>41.0</ele><time>2026-04-04T13:35:32Z</time></trkpt><trkpt lat="39.873569962181655" lon="9.648198297742361"><ele>42.5</ele><time>2026-04-04T13:35:33Z</time></trkpt><trkpt lat="39.87331375949793" lon="9.64823245251641"><ele>44.0</ele><time>2026-04-04T13:35:34Z</time></trkpt><trkpt lat="39.873060015823164" lon="9.648282434090405"><ele>44.0</ele><time>2026-04-04T13:35:35Z</time></trkpt><trkpt lat="39.87281045134469" lon="9.648355260189836"><ele>44.0</ele><time>2026-04-04T13:35:36Z</time></trkpt><trkpt lat="39.87256715257999" lon="9.648439887468069"><ele>47.0</ele><time>2026-04-04T13:35:37Z</time></trkpt><trkpt lat="39.87232252368149" lon="9.648527939033912"><ele>50.0</ele><time>2026-04-04T13:35:38Z</time></trkpt><trkpt lat="39.87208301770585" lon="9.64861122007541"><ele>50.0</ele><time>2026-04-04T13:35:39Z</time></trkpt><trkpt lat="39.871845756681786" lon="9.64869325200286"><ele>50.0</ele><time>2026-04-04T13:35:40Z</time></trkpt><trkpt lat="39.87161195771335" lon="9.648777087480967"><ele>54.0</ele><time>2026-04-04T13:35:41Z</time></trkpt><trkpt lat="39.8713776375824" lon="9.648860551502567"><ele>58.0</ele><time>2026-04-04T13:35:42Z</time></trkpt><trkpt lat="39.8711447624896" lon="9.648936990914867"><ele>63.0</ele><time>2026-04-04T13:35:43Z</time></trkpt><trkpt lat="39.87091296594769" lon="9.649001341626652"><ele>68.0</ele><time>2026-04-04T13:35:44Z</time></trkpt><trkpt lat="39.870680076258274" lon="9.649052709817493"><ele>68.0</ele><time>2026-04-04T13:35:45Z</time></trkpt><trkpt lat="39.87044714887765" lon="9.6490909179859"><ele>68.0</ele><time>2026-04-04T13:35:46Z</time></trkpt><trkpt lat="39.870213376882546" lon="9.649108674258851"><ele>67.0</ele><time>2026-04-04T13:35:47Z</time></trkpt><trkpt lat="39.86997682945142" lon="9.649106406903385"><ele>66.0</ele><time>2026-04-04T13:35:48Z</time></trkpt><trkpt lat="39.86973746593674" lon="9.649090128742067"><ele>66.0</ele><time>2026-04-04T13:35:49Z</time></trkpt><trkpt lat="39.86950078484558" lon="9.64906133618843"><ele>66.0</ele><time>2026-04-04T13:35:50Z</time></trkpt><trkpt lat="39.86926229520491" lon="9.649017634017964"><ele>65.0</ele><time>2026-04-04T13:35:51Z</time></trkpt><trkpt lat="39.86902370418828" lon="9.648956456267628"><ele>64.0</ele><time>2026-04-04T13:35:52Z</time></trkpt><trkpt lat="39.868789767161495" lon="9.648885229678394"><ele>64.0</ele><time>2026-04-04T13:35:53Z</time></trkpt><trkpt lat="39.86855502809962" lon="9.64879409154915"><ele>64.0</ele><time>2026-04-04T13:35:54Z</time></trkpt><trkpt lat="39.868324917789046" lon="9.648673779079921"><ele>68.0</ele><time>2026-04-04T13:35:55Z</time></trkpt><trkpt lat="39.868100218046486" lon="9.648547354816237"><ele>72.0</ele><time>2026-04-04T13:35:56Z</time></trkpt><trkpt lat="39.86787431848738" lon="9.64840627824258"><ele>72.0</ele><time>2026-04-04T13:35:57Z</time></trkpt><trkpt lat="39.86765505903801" lon="9.648260401161632"><ele>72.0</ele><time>2026-04-04T13:35:58Z</time></trkpt><trkpt lat="39.86743283101844" lon="9.648103263653171"><ele>69.5</ele><time>2026-04-04T13:35:59Z</time></trkpt><trkpt lat="39.86720811154076" lon="9.647941338379596"><ele>67.0</ele><time>2026-04-04T13:36:00Z</time></trkpt><trkpt lat="39.86698454655044" lon="9.647778670897424"><ele>66.5</ele><time>2026-04-04T13:36:01Z</time></trkpt><trkpt lat="39.86675738945897" lon="9.647614044211187"><ele>66.0</ele><time>2026-04-04T13:36:02Z</time></trkpt><trkpt lat="39.86652911156813" lon="9.647450851288257"><ele>66.0</ele><time>2026-04-04T13:36:03Z</time></trkpt><trkpt lat="39.866304907045496" lon="9.647289332316179"><ele>66.0</ele><time>2026-04-04T13:36:04Z</time></trkpt><trkpt lat="39.866086752929775" lon="9.647128984736195"><ele>69.5</ele><time>2026-04-04T13:36:05Z</time></trkpt><trkpt lat="39.86587612296869" lon="9.646975457851706"><ele>73.0</ele><time>2026-04-04T13:36:06Z</time></trkpt><trkpt lat="39.865668695633694" lon="9.646830367015552"><ele>73.0</ele><time>2026-04-04T13:36:07Z</time></trkpt><trkpt lat="39.86545331750578" lon="9.646700051229157"><ele>73.0</ele><time>2026-04-04T13:36:08Z</time></trkpt><trkpt lat="39.86523204684432" lon="9.646585982172107"><ele>75.0</ele><time>2026-04-04T13:36:09Z</time></trkpt><trkpt lat="39.86500415081024" lon="9.64648850726033"><ele>77.0</ele><time>2026-04-04T13:36:10Z</time></trkpt><trkpt lat="39.86476965008111" lon="9.646412026450212"><ele>77.0</ele><time>2026-04-04T13:36:11Z</time></trkpt><trkpt lat="39.86452781063828" lon="9.64634558588407"><ele>77.0</ele><time>2026-04-04T13:36:12Z</time></trkpt><trkpt lat="39.86428286810727" lon="9.646294481089646"><ele>81.0</ele><time>2026-04-04T13:36:13Z</time></trkpt><trkpt lat="39.864035677864194" lon="9.646258545786933"><ele>85.0</ele><time>2026-04-04T13:36:14Z</time></trkpt><trkpt lat="39.86378962422014" lon="9.646239389970455"><ele>85.0</ele><time>2026-04-04T13:36:15Z</time></trkpt><trkpt lat="39.863544508057984" lon="9.64623516776567"><ele>85.0</ele><time>2026-04-04T13:36:16Z</time></trkpt><trkpt lat="39.86330605182922" lon="9.64624709476973"><ele>87.0</ele><time>2026-04-04T13:36:17Z</time></trkpt><trkpt lat="39.8630676485561" lon="9.646270329698599"><ele>89.0</ele><time>2026-04-04T13:36:18Z</time></trkpt><trkpt lat="39.86282945364184" lon="9.646301455009432"><ele>90.5</ele><time>2026-04-04T13:36:19Z</time></trkpt><trkpt lat="39.86259536624521" lon="9.646333850303233"><ele>92.0</ele><time>2026-04-04T13:36:20Z</time></trkpt><trkpt lat="39.862353828304244" lon="9.646363948860595"><ele>92.0</ele><time>2026-04-04T13:36:21Z</time></trkpt><trkpt lat="39.86211439963031" lon="9.646388614564318"><ele>92.0</ele><time>2026-04-04T13:36:22Z</time></trkpt><trkpt lat="39.861873883818014" lon="9.646405081577933"><ele>91.0</ele><time>2026-04-04T13:36:23Z</time></trkpt><trkpt lat="39.861633715867576" lon="9.646409763200843"><ele>90.0</ele><time>2026-04-04T13:36:24Z</time></trkpt><trkpt lat="39.8613917495767" lon="9.646398784542"><ele>90.0</ele><time>2026-04-04T13:36:25Z</time></trkpt><trkpt lat="39.86115811578179" lon="9.646377748905028"><ele>90.0</ele><time>2026-04-04T13:36:26Z</time></trkpt><trkpt lat="39.860937035553526" lon="9.64634443298439"><ele>85.5</ele><time>2026-04-04T13:36:27Z</time></trkpt><trkpt lat="39.86070161661849" lon="9.646294974759694"><ele>81.0</ele><time>2026-04-04T13:36:28Z</time></trkpt><trkpt lat="39.86046939224836" lon="9.646226816525015"><ele>81.0</ele><time>2026-04-04T13:36:29Z</time></trkpt><trkpt lat="39.8602341857875" lon="9.646135499473836"><ele>81.0</ele><time>2026-04-04T13:36:30Z</time></trkpt><trkpt lat="39.86000383803125" lon="9.646026641585237"><ele>75.0</ele><time>2026-04-04T13:36:31Z</time></trkpt><trkpt lat="39.85977412052243" lon="9.645901554828962"><ele>69.0</ele><time>2026-04-04T13:36:32Z</time></trkpt><trkpt lat="39.8595503042694" lon="9.645763380137717"><ele>69.0</ele><time>2026-04-04T13:36:33Z</time></trkpt><trkpt lat="39.85933148067914" lon="9.645612906719352"><ele>69.0</ele><time>2026-04-04T13:36:34Z</time></trkpt><trkpt lat="39.859129206824186" lon="9.645456920281545"><ele>66.0</ele><time>2026-04-04T13:36:35Z</time></trkpt><trkpt lat="39.85894129229725" lon="9.645293594829118"><ele>63.0</ele><time>2026-04-04T13:36:36Z</time></trkpt><trkpt lat="39.85875957328801" lon="9.645112778542117"><ele>63.0</ele><time>2026-04-04T13:36:37Z</time></trkpt><trkpt lat="39.85858103149923" lon="9.644911671138132"><ele>63.0</ele><time>2026-04-04T13:36:38Z</time></trkpt><trkpt lat="39.85841041530851" lon="9.64470040651829"><ele>62.5</ele><time>2026-04-04T13:36:39Z</time></trkpt><trkpt lat="39.85823983876485" lon="9.644476067943954"><ele>62.0</ele><time>2026-04-04T13:36:40Z</time></trkpt><trkpt lat="39.858071709779026" lon="9.644246303595887"><ele>62.0</ele><time>2026-04-04T13:36:41Z</time></trkpt><trkpt lat="39.85791473208248" lon="9.644026862387884"><ele>62.0</ele><time>2026-04-04T13:36:42Z</time></trkpt><trkpt lat="39.85775948912829" lon="9.643808318807023"><ele>62.5</ele><time>2026-04-04T13:36:43Z</time></trkpt><trkpt lat="39.85760506617808" lon="9.643586765511188"><ele>63.0</ele><time>2026-04-04T13:36:44Z</time></trkpt><trkpt lat="39.85744762587676" lon="9.643362820659904"><ele>63.0</ele><time>2026-04-04T13:36:45Z</time></trkpt><trkpt lat="39.85728403110853" lon="9.6431317477169"><ele>63.0</ele><time>2026-04-04T13:36:46Z</time></trkpt><trkpt lat="39.857119119170356" lon="9.642897485742852"><ele>60.5</ele><time>2026-04-04T13:36:47Z</time></trkpt><trkpt lat="39.85695303869545" lon="9.642657314305067"><ele>58.0</ele><time>2026-04-04T13:36:48Z</time></trkpt><trkpt lat="39.856786692700894" lon="9.642406671444888"><ele>59.0</ele><time>2026-04-04T13:36:49Z</time></trkpt><trkpt lat="39.856620330086955" lon="9.642151878474921"><ele>60.0</ele><time>2026-04-04T13:36:50Z</time></trkpt><trkpt lat="39.85645624924892" lon="9.641901180273335"><ele>56.5</ele><time>2026-04-04T13:36:51Z</time></trkpt><trkpt lat="39.85629781076103" lon="9.64166676041087"><ele>53.0</ele><time>2026-04-04T13:36:52Z</time></trkpt><trkpt lat="39.85613338913558" lon="9.641442185837267"><ele>53.0</ele><time>2026-04-04T13:36:53Z</time></trkpt><trkpt lat="39.85596071154686" lon="9.641228974693869"><ele>53.0</ele><time>2026-04-04T13:36:54Z</time></trkpt><trkpt lat="39.85578176170103" lon="9.641023872497454"><ele>48.5</ele><time>2026-04-04T13:36:55Z</time></trkpt><trkpt lat="39.85559588243644" lon="9.640825350529065"><ele>44.0</ele><time>2026-04-04T13:36:56Z</time></trkpt><trkpt lat="39.85540714692823" lon="9.640634018404965"><ele>44.0</ele><time>2026-04-04T13:36:57Z</time></trkpt><trkpt lat="39.855214611488954" lon="9.640446200495056"><ele>44.0</ele><time>2026-04-04T13:36:58Z</time></trkpt><trkpt lat="39.85502562847291" lon="9.640256463713328"><ele>40.0</ele><time>2026-04-04T13:36:59Z</time></trkpt><trkpt lat="39.854831853304155" lon="9.640066522087734"><ele>36.0</ele><time>2026-04-04T13:37:00Z</time></trkpt><trkpt lat="39.85463899244909" lon="9.639877053992134"><ele>36.0</ele><time>2026-04-04T13:37:01Z</time></trkpt><trkpt lat="39.854443564609184" lon="9.639685236895666"><ele>36.0</ele><time>2026-04-04T13:37:02Z</time></trkpt><trkpt lat="39.85424738871398" lon="9.639489609541519"><ele>34.5</ele><time>2026-04-04T13:37:03Z</time></trkpt><trkpt lat="39.8540484689477" lon="9.639293487742062"><ele>33.0</ele><time>2026-04-04T13:37:04Z</time></trkpt><trkpt lat="39.8538579057511" lon="9.639105776037285"><ele>33.0</ele><time>2026-04-04T13:37:05Z</time></trkpt><trkpt lat="39.85367312756022" lon="9.63892252742705"><ele>33.0</ele><time>2026-04-04T13:37:06Z</time></trkpt><trkpt lat="39.85348552827443" lon="9.638736181225681"><ele>31.5</ele><time>2026-04-04T13:37:07Z</time></trkpt><trkpt lat="39.85329515285845" lon="9.638545818752657"><ele>30.0</ele><time>2026-04-04T13:37:08Z</time></trkpt><trkpt lat="39.85310053422338" lon="9.638351395568103"><ele>30.0</ele><time>2026-04-04T13:37:09Z</time></trkpt><trkpt lat="39.852904873650395" lon="9.63815854668778"><ele>30.0</ele><time>2026-04-04T13:37:10Z</time></trkpt><trkpt lat="39.85270577978659" lon="9.637963100996577"><ele>32.5</ele><time>2026-04-04T13:37:11Z</time></trkpt><trkpt lat="39.85251734589764" lon="9.637779377833597"><ele>35.0</ele><time>2026-04-04T13:37:12Z</time></trkpt><trkpt lat="39.85233925727056" lon="9.63760566888945"><ele>35.0</ele><time>2026-04-04T13:37:13Z</time></trkpt><trkpt lat="39.85216124171972" lon="9.63742943508607"><ele>35.0</ele><time>2026-04-04T13:37:14Z</time></trkpt><trkpt lat="39.8519838666502" lon="9.637252332928586"><ele>35.0</ele><time>2026-04-04T13:37:15Z</time></trkpt><trkpt lat="39.85180434773201" lon="9.637075582720826"><ele>39.5</ele><time>2026-04-04T13:37:16Z</time></trkpt><trkpt lat="39.85162340805111" lon="9.636901791463798"><ele>44.0</ele><time>2026-04-04T13:37:17Z</time></trkpt><trkpt lat="39.85143959559683" lon="9.636727040819697"><ele>44.0</ele><time>2026-04-04T13:37:18Z</time></trkpt><trkpt lat="39.851254441203736" lon="9.636546443538265"><ele>44.0</ele><time>2026-04-04T13:37:19Z</time></trkpt><trkpt lat="39.851065414353656" lon="9.636360916439626"><ele>44.0</ele><time>2026-04-04T13:37:20Z</time></trkpt><trkpt lat="39.850870506824116" lon="9.636169200076177"><ele>44.0</ele><time>2026-04-04T13:37:21Z</time></trkpt><trkpt lat="39.85066337453932" lon="9.635972775750412"><ele>45.5</ele><time>2026-04-04T13:37:22Z</time></trkpt><trkpt lat="39.85045111444708" lon="9.635781712507397"><ele>47.0</ele><time>2026-04-04T13:37:23Z</time></trkpt><trkpt lat="39.8502385673677" lon="9.635601116796026"><ele>42.0</ele><time>2026-04-04T13:37:24Z</time></trkpt><trkpt lat="39.85002667087631" lon="9.635436258999988"><ele>37.0</ele><time>2026-04-04T13:37:25Z</time></trkpt><trkpt lat="39.849825062892684" lon="9.635290048675941"><ele>36.333333333333336</ele><time>2026-04-04T13:37:26Z</time></trkpt><trkpt lat="39.849629112052874" lon="9.63516203379085"><ele>35.666666666666664</ele><time>2026-04-04T13:37:27Z</time></trkpt><trkpt lat="39.84942367439904" lon="9.635040424647517"><ele>35.0</ele><time>2026-04-04T13:37:28Z</time></trkpt><trkpt lat="39.84921487558691" lon="9.634935498668975"><ele>35.0</ele><time>2026-04-04T13:37:29Z</time></trkpt><trkpt lat="39.848999265208356" lon="9.634840210903773"><ele>35.0</ele><time>2026-04-04T13:37:30Z</time></trkpt><trkpt lat="39.848781606634134" lon="9.634757331825258"><ele>35.0</ele><time>2026-04-04T13:37:31Z</time></trkpt><trkpt lat="39.84856334236162" lon="9.634685540225338"><ele>35.0</ele><time>2026-04-04T13:37:32Z</time></trkpt><trkpt lat="39.84833833301758" lon="9.634626219706657"><ele>39.0</ele><time>2026-04-04T13:37:33Z</time></trkpt><trkpt lat="39.84811698382283" lon="9.634576159078867"><ele>43.0</ele><time>2026-04-04T13:37:34Z</time></trkpt><trkpt lat="39.84789132967943" lon="9.634539318429368"><ele>43.0</ele><time>2026-04-04T13:37:35Z</time></trkpt><trkpt lat="39.84766993508864" lon="9.634518171716632"><ele>43.0</ele><time>2026-04-04T13:37:36Z</time></trkpt><trkpt lat="39.84744659828671" lon="9.634508681760089"><ele>43.0</ele><time>2026-04-04T13:37:37Z</time></trkpt><trkpt lat="39.84721896404665" lon="9.634505684768508"><ele>48.0</ele><time>2026-04-04T13:37:38Z</time></trkpt><trkpt lat="39.84698679530378" lon="9.634512966081585"><ele>53.0</ele><time>2026-04-04T13:37:39Z</time></trkpt><trkpt lat="39.84674670425283" lon="9.63453418276891"><ele>60.0</ele><time>2026-04-04T13:37:40Z</time></trkpt><trkpt lat="39.84650915971223" lon="9.634562192149456"><ele>67.0</ele><time>2026-04-04T13:37:41Z</time></trkpt><trkpt lat="39.84627034093038" lon="9.63460232825237"><ele>67.0</ele><time>2026-04-04T13:37:42Z</time></trkpt><trkpt lat="39.84602946428718" lon="9.634647186606646"><ele>67.0</ele><time>2026-04-04T13:37:43Z</time></trkpt><trkpt lat="39.84578850493246" lon="9.634694051866372"><ele>69.0</ele><time>2026-04-04T13:37:44Z</time></trkpt><trkpt lat="39.84554305925134" lon="9.63474228039546"><ele>71.0</ele><time>2026-04-04T13:37:45Z</time></trkpt><trkpt lat="39.84529486913227" lon="9.634791955160603"><ele>73.0</ele><time>2026-04-04T13:37:46Z</time></trkpt><trkpt lat="39.845041622103075" lon="9.634845274219858"><ele>75.0</ele><time>2026-04-04T13:37:47Z</time></trkpt><trkpt lat="39.84480328601888" lon="9.63489280481859"><ele>75.0</ele><time>2026-04-04T13:37:48Z</time></trkpt><trkpt lat="39.844582353488306" lon="9.634935351899431"><ele>75.0</ele><time>2026-04-04T13:37:49Z</time></trkpt><trkpt lat="39.8443468616034" lon="9.634981155789687"><ele>78.0</ele><time>2026-04-04T13:37:50Z</time></trkpt><trkpt lat="39.84411808160873" lon="9.635032682233259"><ele>81.0</ele><time>2026-04-04T13:37:51Z</time></trkpt><trkpt lat="39.843888280270875" lon="9.635108115511061"><ele>81.0</ele><time>2026-04-04T13:37:52Z</time></trkpt><trkpt lat="39.843664307220834" lon="9.635203317060679"><ele>81.0</ele><time>2026-04-04T13:37:53Z</time></trkpt><trkpt lat="39.84343300843312" lon="9.635308393613462"><ele>77.5</ele><time>2026-04-04T13:37:54Z</time></trkpt><trkpt lat="39.84320781699307" lon="9.63543014651892"><ele>74.0</ele><time>2026-04-04T13:37:55Z</time></trkpt><trkpt lat="39.84299078977164" lon="9.63557258745503"><ele>74.0</ele><time>2026-04-04T13:37:56Z</time></trkpt><trkpt lat="39.84277696072985" lon="9.635730919936604"><ele>74.0</ele><time>2026-04-04T13:37:57Z</time></trkpt><trkpt lat="39.84256603685415" lon="9.635908645370767"><ele>74.5</ele><time>2026-04-04T13:37:58Z</time></trkpt><trkpt lat="39.84235760610727" lon="9.636094177975364"><ele>75.0</ele><time>2026-04-04T13:37:59Z</time></trkpt><trkpt lat="39.84216235560688" lon="9.636292857729226"><ele>75.0</ele><time>2026-04-04T13:38:00Z</time></trkpt><trkpt lat="39.841970243252696" lon="9.636500768556843"><ele>75.0</ele><time>2026-04-04T13:38:01Z</time></trkpt><trkpt lat="39.84179016196333" lon="9.636717944920417"><ele>77.0</ele><time>2026-04-04T13:38:02Z</time></trkpt><trkpt lat="39.841615155744265" lon="9.636940658335096"><ele>79.0</ele><time>2026-04-04T13:38:03Z</time></trkpt><trkpt lat="39.84144327822066" lon="9.637161961652565"><ele>79.0</ele><time>2026-04-04T13:38:04Z</time></trkpt><trkpt lat="39.841266117390205" lon="9.637382172971899"><ele>79.0</ele><time>2026-04-04T13:38:05Z</time></trkpt><trkpt lat="39.841091765278044" lon="9.637597662033407"><ele>85.5</ele><time>2026-04-04T13:38:06Z</time></trkpt><trkpt lat="39.84091882951656" lon="9.637814824717994"><ele>92.0</ele><time>2026-04-04T13:38:07Z</time></trkpt><trkpt lat="39.8407464310808" lon="9.638033238386981"><ele>92.0</ele><time>2026-04-04T13:38:08Z</time></trkpt><trkpt lat="39.840574721573304" lon="9.638252846678979"><ele>92.0</ele><time>2026-04-04T13:38:09Z</time></trkpt><trkpt lat="39.840406876634674" lon="9.63847211616147"><ele>94.5</ele><time>2026-04-04T13:38:10Z</time></trkpt><trkpt lat="39.840236980299245" lon="9.63868726001177"><ele>97.0</ele><time>2026-04-04T13:38:11Z</time></trkpt><trkpt lat="39.84007173905626" lon="9.638894849248473"><ele>97.0</ele><time>2026-04-04T13:38:12Z</time></trkpt><trkpt lat="39.839894472553844" lon="9.639092537174788"><ele>97.0</ele><time>2026-04-04T13:38:13Z</time></trkpt><trkpt lat="39.839733382123505" lon="9.639301532015807"><ele>89.5</ele><time>2026-04-04T13:38:14Z</time></trkpt><trkpt lat="39.839568217137725" lon="9.639508512143149"><ele>82.0</ele><time>2026-04-04T13:38:15Z</time></trkpt><trkpt lat="39.83940338999667" lon="9.639729516779918"><ele>81.0</ele><time>2026-04-04T13:38:16Z</time></trkpt><trkpt lat="39.83923783301429" lon="9.639938475375253"><ele>80.0</ele><time>2026-04-04T13:38:17Z</time></trkpt><trkpt lat="39.839062343406596" lon="9.640161531185234"><ele>75.0</ele><time>2026-04-04T13:38:18Z</time></trkpt><trkpt lat="39.83888901206343" lon="9.640381165134484"><ele>70.0</ele><time>2026-04-04T13:38:19Z</time></trkpt><trkpt lat="39.83870744234286" lon="9.640603179626085"><ele>70.0</ele><time>2026-04-04T13:38:20Z</time></trkpt><trkpt lat="39.838525382098965" lon="9.64082600189905"><ele>70.0</ele><time>2026-04-04T13:38:21Z</time></trkpt><trkpt lat="39.838342697561224" lon="9.641050487427512"><ele>73.5</ele><time>2026-04-04T13:38:22Z</time></trkpt><trkpt lat="39.838171162532184" lon="9.64126350779181"><ele>77.0</ele><time>2026-04-04T13:38:23Z</time></trkpt><trkpt lat="39.83800206713959" lon="9.641477688684025"><ele>77.0</ele><time>2026-04-04T13:38:24Z</time></trkpt><trkpt lat="39.83782853079546" lon="9.641692274459652"><ele>77.0</ele><time>2026-04-04T13:38:25Z</time></trkpt><trkpt lat="39.83765775089799" lon="9.641904662631504"><ele>82.0</ele><time>2026-04-04T13:38:26Z</time></trkpt><trkpt lat="39.83748789598045" lon="9.642114323381644"><ele>87.0</ele><time>2026-04-04T13:38:27Z</time></trkpt><trkpt lat="39.83731555742886" lon="9.642328333264674"><ele>87.0</ele><time>2026-04-04T13:38:28Z</time></trkpt><trkpt lat="39.837150677585804" lon="9.642534783189003"><ele>87.0</ele><time>2026-04-04T13:38:29Z</time></trkpt><trkpt lat="39.836980736546586" lon="9.642741958617899"><ele>88.33333333333333</ele><time>2026-04-04T13:38:30Z</time></trkpt><trkpt lat="39.836814308918804" lon="9.642941230273069"><ele>89.66666666666666</ele><time>2026-04-04T13:38:31Z</time></trkpt><trkpt lat="39.83663707828967" lon="9.643113104840488"><ele>91.0</ele><time>2026-04-04T13:38:32Z</time></trkpt><trkpt lat="39.83646037103424" lon="9.643282928792301"><ele>92.5</ele><time>2026-04-04T13:38:33Z</time></trkpt><trkpt lat="39.83626752888498" lon="9.643451938212115"><ele>94.0</ele><time>2026-04-04T13:38:34Z</time></trkpt><trkpt lat="39.836074432616066" lon="9.643604778146017"><ele>86.0</ele><time>2026-04-04T13:38:35Z</time></trkpt><trkpt lat="39.835804799529846" lon="9.643807925855262"><ele>78.0</ele><time>2026-04-04T13:38:36Z</time></trkpt><trkpt lat="39.83558794381294" lon="9.643933607449792"><ele>78.0</ele><time>2026-04-04T13:38:37Z</time></trkpt><trkpt lat="39.83536899199797" lon="9.644058352069028"><ele>78.0</ele><time>2026-04-04T13:38:38Z</time></trkpt><trkpt lat="39.83514149524973" lon="9.644171854510788"><ele>79.5</ele><time>2026-04-04T13:38:39Z</time></trkpt><trkpt lat="39.83491712865102" lon="9.644271136634854"><ele>81.0</ele><time>2026-04-04T13:38:40Z</time></trkpt><trkpt lat="39.83470066636817" lon="9.644358677688881"><ele>81.0</ele><time>2026-04-04T13:38:41Z</time></trkpt><trkpt lat="39.83448887817353" lon="9.644443048881238"><ele>81.0</ele><time>2026-04-04T13:38:42Z</time></trkpt><trkpt lat="39.834275785315455" lon="9.644526484384885"><ele>81.0</ele><time>2026-04-04T13:38:43Z</time></trkpt><trkpt lat="39.83405385477196" lon="9.644614411303179"><ele>72.0</ele><time>2026-04-04T13:38:44Z</time></trkpt><trkpt lat="39.83383241787725" lon="9.644703141285644"><ele>63.0</ele><time>2026-04-04T13:38:45Z</time></trkpt><trkpt lat="39.83360530449535" lon="9.644785874835877"><ele>67.5</ele><time>2026-04-04T13:38:46Z</time></trkpt><trkpt lat="39.833375140014" lon="9.644857614595411"><ele>72.0</ele><time>2026-04-04T13:38:47Z</time></trkpt><trkpt lat="39.833149719204044" lon="9.644912509674885"><ele>72.0</ele><time>2026-04-04T13:38:48Z</time></trkpt><trkpt lat="39.83292833593074" lon="9.644949283834453"><ele>72.0</ele><time>2026-04-04T13:38:49Z</time></trkpt><trkpt lat="39.83271207904303" lon="9.644971143307004"><ele>72.0</ele><time>2026-04-04T13:38:50Z</time></trkpt><trkpt lat="39.83249964305663" lon="9.644980037883292"><ele>74.33333333333333</ele><time>2026-04-04T13:38:51Z</time></trkpt><trkpt lat="39.832281820430005" lon="9.644977588019968"><ele>76.66666666666666</ele><time>2026-04-04T13:38:52Z</time></trkpt><trkpt lat="39.83206370263714" lon="9.644966461036011"><ele>79.0</ele><time>2026-04-04T13:38:53Z</time></trkpt><trkpt lat="39.831850549002674" lon="9.644943189638449"><ele>78.33333333333333</ele><time>2026-04-04T13:38:54Z</time></trkpt><trkpt lat="39.83163861760063" lon="9.644913094136731"><ele>77.66666666666667</ele><time>2026-04-04T13:38:55Z</time></trkpt><trkpt lat="39.83143530144176" lon="9.64483970385361"><ele>77.0</ele><time>2026-04-04T13:38:56Z</time></trkpt><trkpt lat="39.83122476627198" lon="9.644771979902515"><ele>70.0</ele><time>2026-04-04T13:38:57Z</time></trkpt><trkpt lat="39.8309418084401" lon="9.644665862468468"><ele>63.0</ele><time>2026-04-04T13:38:58Z</time></trkpt><trkpt lat="39.83072565563328" lon="9.644537739242436"><ele>64.5</ele><time>2026-04-04T13:38:59Z</time></trkpt><trkpt lat="39.83051516806758" lon="9.644428778464723"><ele>66.0</ele><time>2026-04-04T13:39:00Z</time></trkpt><trkpt lat="39.83029845779616" lon="9.644307090999993"><ele>58.0</ele><time>2026-04-04T13:39:01Z</time></trkpt><trkpt lat="39.8300792625605" lon="9.644183547739722"><ele>50.0</ele><time>2026-04-04T13:39:02Z</time></trkpt><trkpt lat="39.82985862029568" lon="9.644058832361694"><ele>50.0</ele><time>2026-04-04T13:39:03Z</time></trkpt><trkpt lat="39.82963102337769" lon="9.643928786049779"><ele>50.0</ele><time>2026-04-04T13:39:04Z</time></trkpt><trkpt lat="39.82940817832814" lon="9.643808210570395"><ele>48.0</ele><time>2026-04-04T13:39:05Z</time></trkpt><trkpt lat="39.82917966492638" lon="9.643682611492405"><ele>46.0</ele><time>2026-04-04T13:39:06Z</time></trkpt><trkpt lat="39.828949910530724" lon="9.643556541940898"><ele>46.0</ele><time>2026-04-04T13:39:07Z</time></trkpt><trkpt lat="39.82872023120471" lon="9.643428423908423"><ele>46.0</ele><time>2026-04-04T13:39:08Z</time></trkpt><trkpt lat="39.828489983881795" lon="9.643295730320846"><ele>45.0</ele><time>2026-04-04T13:39:09Z</time></trkpt><trkpt lat="39.828259193638885" lon="9.643162729765447"><ele>44.0</ele><time>2026-04-04T13:39:10Z</time></trkpt><trkpt lat="39.82803036526854" lon="9.643031247848949"><ele>44.0</ele><time>2026-04-04T13:39:11Z</time></trkpt><trkpt lat="39.827809240823115" lon="9.642898894460073"><ele>44.0</ele><time>2026-04-04T13:39:12Z</time></trkpt><trkpt lat="39.82759802499743" lon="9.642775765822046"><ele>42.33333333333333</ele><time>2026-04-04T13:39:13Z</time></trkpt><trkpt lat="39.82739486495268" lon="9.642653736059982"><ele>40.666666666666664</ele><time>2026-04-04T13:39:14Z</time></trkpt><trkpt lat="39.827193258506895" lon="9.642530909481245"><ele>39.0</ele><time>2026-04-04T13:39:15Z</time></trkpt><trkpt lat="39.82699188468026" lon="9.642412210782314"><ele>36.0</ele><time>2026-04-04T13:39:16Z</time></trkpt><trkpt lat="39.82678516092599" lon="9.642292339472123"><ele>33.0</ele><time>2026-04-04T13:39:17Z</time></trkpt><trkpt lat="39.82657907473842" lon="9.642175659998282"><ele>33.0</ele><time>2026-04-04T13:39:18Z</time></trkpt><trkpt lat="39.82636932355589" lon="9.64205897190793"><ele>33.0</ele><time>2026-04-04T13:39:19Z</time></trkpt><trkpt lat="39.82616330472627" lon="9.641942853385094"><ele>33.0</ele><time>2026-04-04T13:39:20Z</time></trkpt><trkpt lat="39.82595881717906" lon="9.641828569365575"><ele>33.0</ele><time>2026-04-04T13:39:21Z</time></trkpt><trkpt lat="39.825756861280965" lon="9.641711215114695"><ele>33.0</ele><time>2026-04-04T13:39:22Z</time></trkpt><trkpt lat="39.825550218082356" lon="9.641590246313989"><ele>33.0</ele><time>2026-04-04T13:39:23Z</time></trkpt><trkpt lat="39.825339001036795" lon="9.641466447096066"><ele>33.0</ele><time>2026-04-04T13:39:24Z</time></trkpt><trkpt lat="39.825126703217286" lon="9.641343726692943"><ele>33.5</ele><time>2026-04-04T13:39:25Z</time></trkpt><trkpt lat="39.82490922008422" lon="9.641218368681733"><ele>34.0</ele><time>2026-04-04T13:39:26Z</time></trkpt><trkpt lat="39.824691279048295" lon="9.641094455801795"><ele>35.333333333333336</ele><time>2026-04-04T13:39:27Z</time></trkpt><trkpt lat="39.82448168379534" lon="9.64097546180736"><ele>36.666666666666664</ele><time>2026-04-04T13:39:28Z</time></trkpt><trkpt lat="39.82428809280214" lon="9.640856895471446"><ele>38.0</ele><time>2026-04-04T13:39:29Z</time></trkpt><trkpt lat="39.82411191163097" lon="9.640738033547793"><ele>39.33333333333333</ele><time>2026-04-04T13:39:30Z</time></trkpt><trkpt lat="39.82393006236043" lon="9.640604665284592"><ele>40.666666666666664</ele><time>2026-04-04T13:39:31Z</time></trkpt><trkpt lat="39.82373827536381" lon="9.640455992996483"><ele>42.0</ele><time>2026-04-04T13:39:32Z</time></trkpt><trkpt lat="39.82354504944375" lon="9.640293320895212"><ele>45.0</ele><time>2026-04-04T13:39:33Z</time></trkpt><trkpt lat="39.82334901361775" lon="9.640112406092912"><ele>48.0</ele><time>2026-04-04T13:39:34Z</time></trkpt><trkpt lat="39.82315794037268" lon="9.639915542499757"><ele>48.0</ele><time>2026-04-04T13:39:35Z</time></trkpt><trkpt lat="39.82295934376544" lon="9.639707975478261"><ele>48.0</ele><time>2026-04-04T13:39:36Z</time></trkpt><trkpt lat="39.82275885990827" lon="9.639495453640507"><ele>45.5</ele><time>2026-04-04T13:39:37Z</time></trkpt><trkpt lat="39.82255360367748" lon="9.639282578981396"><ele>43.0</ele><time>2026-04-04T13:39:38Z</time></trkpt><trkpt lat="39.822344182251285" lon="9.639070480196974"><ele>43.0</ele><time>2026-04-04T13:39:39Z</time></trkpt><trkpt lat="39.82213014851814" lon="9.63885210426019"><ele>43.0</ele><time>2026-04-04T13:39:40Z</time></trkpt><trkpt lat="39.82191474881198" lon="9.638634057201848"><ele>46.5</ele><time>2026-04-04T13:39:41Z</time></trkpt><trkpt lat="39.82170189491505" lon="9.638412846691942"><ele>50.0</ele><time>2026-04-04T13:39:42Z</time></trkpt><trkpt lat="39.821497684253856" lon="9.638195333655256"><ele>50.0</ele><time>2026-04-04T13:39:43Z</time></trkpt><trkpt lat="39.82130708186633" lon="9.637994744355213"><ele>50.0</ele><time>2026-04-04T13:39:44Z</time></trkpt><trkpt lat="39.821124591171156" lon="9.637806959455842"><ele>51.5</ele><time>2026-04-04T13:39:45Z</time></trkpt><trkpt lat="39.820937167312835" lon="9.637616278660225"><ele>53.0</ele><time>2026-04-04T13:39:46Z</time></trkpt><trkpt lat="39.820748102147924" lon="9.637420126791769"><ele>53.0</ele><time>2026-04-04T13:39:47Z</time></trkpt><trkpt lat="39.820562308014516" lon="9.63722493663545"><ele>53.0</ele><time>2026-04-04T13:39:48Z</time></trkpt><trkpt lat="39.820371217383595" lon="9.63702755072618"><ele>52.0</ele><time>2026-04-04T13:39:49Z</time></trkpt><trkpt lat="39.82018032791389" lon="9.636831614232687"><ele>51.0</ele><time>2026-04-04T13:39:50Z</time></trkpt><trkpt lat="39.81998765417212" lon="9.636637770882464"><ele>49.5</ele><time>2026-04-04T13:39:51Z</time></trkpt><trkpt lat="39.81980216556902" lon="9.636450608960873"><ele>48.0</ele><time>2026-04-04T13:39:52Z</time></trkpt><trkpt lat="39.819623668462576" lon="9.63627073409062"><ele>48.33333333333333</ele><time>2026-04-04T13:39:53Z</time></trkpt><trkpt lat="39.819449582830536" lon="9.636094187024637"><ele>48.666666666666664</ele><time>2026-04-04T13:39:54Z</time></trkpt><trkpt lat="39.81927267888441" lon="9.63591348691869"><ele>49.0</ele><time>2026-04-04T13:39:55Z</time></trkpt><trkpt lat="39.81909174057431" lon="9.635726617344085"><ele>48.0</ele><time>2026-04-04T13:39:56Z</time></trkpt><trkpt lat="39.81890344680793" lon="9.63553540006768"><ele>47.0</ele><time>2026-04-04T13:39:57Z</time></trkpt><trkpt lat="39.81871223147218" lon="9.635337248021422"><ele>48.0</ele><time>2026-04-04T13:39:58Z</time></trkpt><trkpt lat="39.8185170455122" lon="9.635135637697248"><ele>49.0</ele><time>2026-04-04T13:39:59Z</time></trkpt><trkpt lat="39.81831830519696" lon="9.634929949617863"><ele>47.0</ele><time>2026-04-04T13:40:00Z</time></trkpt><trkpt lat="39.8181181972155" lon="9.63472306745382"><ele>45.0</ele><time>2026-04-04T13:40:01Z</time></trkpt><trkpt lat="39.81791680048458" lon="9.634515395370695"><ele>46.0</ele><time>2026-04-04T13:40:02Z</time></trkpt><trkpt lat="39.817717594311674" lon="9.63430873720209"><ele>47.0</ele><time>2026-04-04T13:40:03Z</time></trkpt><trkpt lat="39.817522287636365" lon="9.63410654894149"><ele>47.5</ele><time>2026-04-04T13:40:04Z</time></trkpt><trkpt lat="39.817326492977514" lon="9.633904943668949"><ele>48.0</ele><time>2026-04-04T13:40:05Z</time></trkpt><trkpt lat="39.817135303053576" lon="9.633712705369556"><ele>48.66666666666667</ele><time>2026-04-04T13:40:06Z</time></trkpt><trkpt lat="39.81695425067081" lon="9.633531653604129"><ele>49.333333333333336</ele><time>2026-04-04T13:40:07Z</time></trkpt><trkpt lat="39.81677785182641" lon="9.633365533286263"><ele>50.0</ele><time>2026-04-04T13:40:08Z</time></trkpt><trkpt lat="39.81659656443162" lon="9.633206938228847"><ele>48.0</ele><time>2026-04-04T13:40:09Z</time></trkpt><trkpt lat="39.81640531581019" lon="9.633050642322788"><ele>46.0</ele><time>2026-04-04T13:40:10Z</time></trkpt><trkpt lat="39.81620702885121" lon="9.632899303591568"><ele>46.5</ele><time>2026-04-04T13:40:11Z</time></trkpt><trkpt lat="39.81600302524214" lon="9.632757412153845"><ele>47.0</ele><time>2026-04-04T13:40:12Z</time></trkpt><trkpt lat="39.815790544337624" lon="9.632620725816153"><ele>48.0</ele><time>2026-04-04T13:40:13Z</time></trkpt><trkpt lat="39.81557665850178" lon="9.63248897400903"><ele>49.0</ele><time>2026-04-04T13:40:14Z</time></trkpt><trkpt lat="39.81536656173377" lon="9.632365741889704"><ele>49.0</ele><time>2026-04-04T13:40:15Z</time></trkpt><trkpt lat="39.81515860218174" lon="9.632239378456473"><ele>49.0</ele><time>2026-04-04T13:40:16Z</time></trkpt><trkpt lat="39.81494564361185" lon="9.632106912312283"><ele>51.0</ele><time>2026-04-04T13:40:17Z</time></trkpt><trkpt lat="39.81473374764745" lon="9.631974515146007"><ele>53.0</ele><time>2026-04-04T13:40:18Z</time></trkpt><trkpt lat="39.81452187526334" lon="9.631841665603273"><ele>58.5</ele><time>2026-04-04T13:40:19Z</time></trkpt><trkpt lat="39.814314498378835" lon="9.63170990868011"><ele>64.0</ele><time>2026-04-04T13:40:20Z</time></trkpt><trkpt lat="39.814107336679506" lon="9.631575596267348"><ele>64.0</ele><time>2026-04-04T13:40:21Z</time></trkpt><trkpt lat="39.81390440285935" lon="9.631434709353696"><ele>64.0</ele><time>2026-04-04T13:40:22Z</time></trkpt><trkpt lat="39.81370098627543" lon="9.63128159025155"><ele>64.5</ele><time>2026-04-04T13:40:23Z</time></trkpt><trkpt lat="39.81350177416491" lon="9.631118646417473"><ele>65.0</ele><time>2026-04-04T13:40:24Z</time></trkpt><trkpt lat="39.81331097655062" lon="9.630944340942193"><ele>65.0</ele><time>2026-04-04T13:40:25Z</time></trkpt><trkpt lat="39.81312786382336" lon="9.630765514315977"><ele>65.0</ele><time>2026-04-04T13:40:26Z</time></trkpt><trkpt lat="39.81295203808972" lon="9.630578073618906"><ele>65.0</ele><time>2026-04-04T13:40:27Z</time></trkpt><trkpt lat="39.81277400836762" lon="9.630377592789268"><ele>65.0</ele><time>2026-04-04T13:40:28Z</time></trkpt><trkpt lat="39.81260464148684" lon="9.630178432225078"><ele>65.0</ele><time>2026-04-04T13:40:29Z</time></trkpt><trkpt lat="39.81243393598765" lon="9.629968978843294"><ele>65.0</ele><time>2026-04-04T13:40:30Z</time></trkpt><trkpt lat="39.81226833623357" lon="9.629751673716875"><ele>65.0</ele><time>2026-04-04T13:40:31Z</time></trkpt><trkpt lat="39.81210127245011" lon="9.629533199504056"><ele>65.0</ele><time>2026-04-04T13:40:32Z</time></trkpt><trkpt lat="39.81193670588336" lon="9.629318087655282"><ele>68.0</ele><time>2026-04-04T13:40:33Z</time></trkpt><trkpt lat="39.81176943512793" lon="9.629102050516643"><ele>71.0</ele><time>2026-04-04T13:40:34Z</time></trkpt><trkpt lat="39.81160487114657" lon="9.628883738681141"><ele>71.0</ele><time>2026-04-04T13:40:35Z</time></trkpt><trkpt lat="39.81144515191478" lon="9.628665669613802"><ele>71.0</ele><time>2026-04-04T13:40:36Z</time></trkpt><trkpt lat="39.81128644266729" lon="9.628449138288852"><ele>80.5</ele><time>2026-04-04T13:40:37Z</time></trkpt><trkpt lat="39.811125505930946" lon="9.628231600101042"><ele>90.0</ele><time>2026-04-04T13:40:38Z</time></trkpt><trkpt lat="39.810970443117206" lon="9.628014783761655"><ele>98.5</ele><time>2026-04-04T13:40:39Z</time></trkpt><trkpt lat="39.81081377980701" lon="9.627800016229672"><ele>107.0</ele><time>2026-04-04T13:40:40Z</time></trkpt><trkpt lat="39.81065858932124" lon="9.627586119535072"><ele>107.0</ele><time>2026-04-04T13:40:41Z</time></trkpt><trkpt lat="39.81050132868209" lon="9.627373602067339"><ele>107.0</ele><time>2026-04-04T13:40:42Z</time></trkpt><trkpt lat="39.81033221380291" lon="9.627145804185126"><ele>115.0</ele><time>2026-04-04T13:40:43.071Z</time></trkpt><trkpt lat="39.81017315202935" lon="9.626929418091574"><ele>123.0</ele><time>2026-04-04T13:40:44.083Z</time></trkpt><trkpt lat="39.80874219410819" lon="9.625068897646223"><ele>66.0</ele><time>2026-04-04T13:40:47.519Z</time></trkpt><trkpt lat="39.800269754600144" lon="9.61507763262534"><ele>63.66666666666667</ele><time>2026-04-04T13:41:42.999Z</time></trkpt><trkpt lat="39.800143390436325" lon="9.615026522442507"><ele>61.333333333333336</ele><time>2026-04-04T13:41:43.999Z</time></trkpt><trkpt lat="39.7999120925597" lon="9.614884845540416"><ele>59.0</ele><time>2026-04-04T13:41:44.999Z</time></trkpt><trkpt lat="39.79967757540824" lon="9.614742161263123"><ele>59.0</ele><time>2026-04-04T13:41:45.999Z</time></trkpt><trkpt lat="39.799460016790626" lon="9.614603624728838"><ele>59.0</ele><time>2026-04-04T13:41:46.999Z</time></trkpt><trkpt lat="39.79924385088587" lon="9.614467864713955"><ele>57.5</ele><time>2026-04-04T13:41:47.999Z</time></trkpt><trkpt lat="39.79903583735799" lon="9.614335645191765"><ele>56.0</ele><time>2026-04-04T13:41:49Z</time></trkpt><trkpt lat="39.798823280287536" lon="9.614206055614623"><ele>56.0</ele><time>2026-04-04T13:41:50Z</time></trkpt><trkpt lat="39.798610399663175" lon="9.614071942121242"><ele>56.0</ele><time>2026-04-04T13:41:51Z</time></trkpt><trkpt lat="39.79839634760292" lon="9.613931866575145"><ele>56.0</ele><time>2026-04-04T13:41:52Z</time></trkpt><trkpt lat="39.79818565425626" lon="9.613782621161375"><ele>56.0</ele><time>2026-04-04T13:41:53Z</time></trkpt><trkpt lat="39.79797192695635" lon="9.61362869323478"><ele>56.0</ele><time>2026-04-04T13:41:54Z</time></trkpt><trkpt lat="39.79776196490859" lon="9.613466119965802"><ele>56.0</ele><time>2026-04-04T13:41:55Z</time></trkpt><trkpt lat="39.79755099652022" lon="9.613294376415933"><ele>52.0</ele><time>2026-04-04T13:41:56Z</time></trkpt><trkpt lat="39.797343010056295" lon="9.613108398291077"><ele>48.0</ele><time>2026-04-04T13:41:57Z</time></trkpt><trkpt lat="39.79713905587993" lon="9.612915668248855"><ele>44.5</ele><time>2026-04-04T13:41:58Z</time></trkpt><trkpt lat="39.79693586744195" lon="9.612709328931485"><ele>41.0</ele><time>2026-04-04T13:41:59Z</time></trkpt><trkpt lat="39.79673319370122" lon="9.612499235316363"><ele>41.0</ele><time>2026-04-04T13:42:00Z</time></trkpt><trkpt lat="39.796531079693004" lon="9.612292229820902"><ele>41.0</ele><time>2026-04-04T13:42:01Z</time></trkpt><trkpt lat="39.796323054135655" lon="9.612092742166613"><ele>39.0</ele><time>2026-04-04T13:42:02Z</time></trkpt><trkpt lat="39.796119009732905" lon="9.611900303089332"><ele>37.0</ele><time>2026-04-04T13:42:03Z</time></trkpt><trkpt lat="39.79591315008783" lon="9.611702777206734"><ele>34.5</ele><time>2026-04-04T13:42:04Z</time></trkpt><trkpt lat="39.795710904509434" lon="9.611499301439032"><ele>32.0</ele><time>2026-04-04T13:42:05Z</time></trkpt><trkpt lat="39.79552408395944" lon="9.611306538020244"><ele>32.0</ele><time>2026-04-04T13:42:06Z</time></trkpt><trkpt lat="39.7953375720704" lon="9.611113409213134"><ele>32.0</ele><time>2026-04-04T13:42:07Z</time></trkpt><trkpt lat="39.79514784032161" lon="9.610917882585264"><ele>31.0</ele><time>2026-04-04T13:42:08Z</time></trkpt><trkpt lat="39.794955180394716" lon="9.610721056827147"><ele>30.0</ele><time>2026-04-04T13:42:09Z</time></trkpt><trkpt lat="39.794763615062585" lon="9.61053325248112"><ele>30.0</ele><time>2026-04-04T13:42:10Z</time></trkpt><trkpt lat="39.79456225541264" lon="9.610339561982407"><ele>30.0</ele><time>2026-04-04T13:42:11Z</time></trkpt><trkpt lat="39.794359067734895" lon="9.610156660927107"><ele>31.0</ele><time>2026-04-04T13:42:12Z</time></trkpt><trkpt lat="39.794152394727185" lon="9.609989050788938"><ele>32.0</ele><time>2026-04-04T13:42:13Z</time></trkpt><trkpt lat="39.79392987582614" lon="9.609825137402058"><ele>32.0</ele><time>2026-04-04T13:42:14Z</time></trkpt><trkpt lat="39.793676867338476" lon="9.609661515124282"><ele>32.0</ele><time>2026-04-04T13:42:15Z</time></trkpt><trkpt lat="39.79341156551869" lon="9.609507748757594"><ele>33.5</ele><time>2026-04-04T13:42:16Z</time></trkpt><trkpt lat="39.793121784590824" lon="9.609368315304895"><ele>35.0</ele><time>2026-04-04T13:42:17Z</time></trkpt><trkpt lat="39.79282338423157" lon="9.609238696822258"><ele>36.5</ele><time>2026-04-04T13:42:18Z</time></trkpt><trkpt lat="39.792513769069274" lon="9.609129288079439"><ele>38.0</ele><time>2026-04-04T13:42:19Z</time></trkpt><trkpt lat="39.79221549993383" lon="9.609048618026161"><ele>38.0</ele><time>2026-04-04T13:42:20Z</time></trkpt><trkpt lat="39.791926441769206" lon="9.608994572306333"><ele>38.0</ele><time>2026-04-04T13:42:21Z</time></trkpt><trkpt lat="39.79164347690136" lon="9.608969422353944"><ele>41.0</ele><time>2026-04-04T13:42:22Z</time></trkpt><trkpt lat="39.791359567915364" lon="9.608949957560554"><ele>44.0</ele><time>2026-04-04T13:42:23Z</time></trkpt><trkpt lat="39.791084524185635" lon="9.60894069133422"><ele>44.0</ele><time>2026-04-04T13:42:24Z</time></trkpt><trkpt lat="39.79081254869955" lon="9.60892846020474"><ele>44.0</ele><time>2026-04-04T13:42:25Z</time></trkpt><trkpt lat="39.79054813568277" lon="9.608915634909328"><ele>44.0</ele><time>2026-04-04T13:42:26Z</time></trkpt><trkpt lat="39.790290328219164" lon="9.60890498899944"><ele>44.0</ele><time>2026-04-04T13:42:27Z</time></trkpt><trkpt lat="39.79003612971263" lon="9.608895155379061"><ele>43.5</ele><time>2026-04-04T13:42:28Z</time></trkpt><trkpt lat="39.789782004949934" lon="9.60888403252174"><ele>43.0</ele><time>2026-04-04T13:42:29Z</time></trkpt><trkpt lat="39.789534257615536" lon="9.608871838053583"><ele>46.0</ele><time>2026-04-04T13:42:30Z</time></trkpt><trkpt lat="39.78928520221149" lon="9.60886393724569"><ele>49.0</ele><time>2026-04-04T13:42:31Z</time></trkpt><trkpt lat="39.789045573268346" lon="9.608858776383288"><ele>49.0</ele><time>2026-04-04T13:42:32Z</time></trkpt><trkpt lat="39.78881503130054" lon="9.608858811916885"><ele>49.0</ele><time>2026-04-04T13:42:33Z</time></trkpt><trkpt lat="39.7885837299826" lon="9.608865496911193"><ele>51.0</ele><time>2026-04-04T13:42:34Z</time></trkpt><trkpt lat="39.78834783913233" lon="9.608882704304735"><ele>53.0</ele><time>2026-04-04T13:42:35Z</time></trkpt><trkpt lat="39.78811696987654" lon="9.608908669727251"><ele>53.0</ele><time>2026-04-04T13:42:36Z</time></trkpt><trkpt lat="39.78788314646899" lon="9.608946316866515"><ele>53.0</ele><time>2026-04-04T13:42:37Z</time></trkpt><trkpt lat="39.78765247542339" lon="9.608991527206936"><ele>55.0</ele><time>2026-04-04T13:42:38Z</time></trkpt><trkpt lat="39.787416503751544" lon="9.60905386481732"><ele>57.0</ele><time>2026-04-04T13:42:39Z</time></trkpt><trkpt lat="39.78718826101841" lon="9.609132162409404"><ele>57.0</ele><time>2026-04-04T13:42:40Z</time></trkpt><trkpt lat="39.786952741377235" lon="9.609232490429795"><ele>57.0</ele><time>2026-04-04T13:42:41Z</time></trkpt><trkpt lat="39.78671846104405" lon="9.609346557668639"><ele>57.0</ele><time>2026-04-04T13:42:42Z</time></trkpt><trkpt lat="39.78648474817849" lon="9.60947845350791"><ele>57.0</ele><time>2026-04-04T13:42:43Z</time></trkpt><trkpt lat="39.78625432317864" lon="9.60962321578918"><ele>60.0</ele><time>2026-04-04T13:42:44Z</time></trkpt><trkpt lat="39.78602613271627" lon="9.609777717364677"><ele>63.0</ele><time>2026-04-04T13:42:45Z</time></trkpt><trkpt lat="39.785805196488326" lon="9.609949078541774"><ele>63.0</ele><time>2026-04-04T13:42:46Z</time></trkpt><trkpt lat="39.78558944441524" lon="9.610137292818063"><ele>63.0</ele><time>2026-04-04T13:42:47Z</time></trkpt><trkpt lat="39.78538339049944" lon="9.610337424243847"><ele>70.0</ele><time>2026-04-04T13:42:48Z</time></trkpt><trkpt lat="39.78518428412857" lon="9.610539626414992"><ele>77.0</ele><time>2026-04-04T13:42:49Z</time></trkpt><trkpt lat="39.78500780274808" lon="9.610741755361568"><ele>77.0</ele><time>2026-04-04T13:42:50Z</time></trkpt><trkpt lat="39.784834098823204" lon="9.610949258749324"><ele>77.0</ele><time>2026-04-04T13:42:51Z</time></trkpt><trkpt lat="39.78466765058057" lon="9.61116103996963"><ele>74.5</ele><time>2026-04-04T13:42:52Z</time></trkpt><trkpt lat="39.78450695308947" lon="9.611370854229325"><ele>72.0</ele><time>2026-04-04T13:42:53Z</time></trkpt><trkpt lat="39.78434562564357" lon="9.611590053628536"><ele>72.0</ele><time>2026-04-04T13:42:54Z</time></trkpt><trkpt lat="39.78418427684891" lon="9.611810821399144"><ele>72.0</ele><time>2026-04-04T13:42:55Z</time></trkpt><trkpt lat="39.784018814023185" lon="9.612037035456465"><ele>77.5</ele><time>2026-04-04T13:42:56Z</time></trkpt><trkpt lat="39.78384646519199" lon="9.612256730229285"><ele>83.0</ele><time>2026-04-04T13:42:57Z</time></trkpt><trkpt lat="39.783677821931164" lon="9.612480173891546"><ele>78.0</ele><time>2026-04-04T13:42:58Z</time></trkpt><trkpt lat="39.783501561230224" lon="9.612698129895751"><ele>73.0</ele><time>2026-04-04T13:42:59Z</time></trkpt><trkpt lat="39.783322975471755" lon="9.61291128343835"><ele>73.0</ele><time>2026-04-04T13:43:00Z</time></trkpt><trkpt lat="39.78314419656426" lon="9.613111930949051"><ele>73.0</ele><time>2026-04-04T13:43:01Z</time></trkpt><trkpt lat="39.78296931045528" lon="9.613298734962353"><ele>73.0</ele><time>2026-04-04T13:43:02Z</time></trkpt><trkpt lat="39.78278532915103" lon="9.613480052808871"><ele>73.0</ele><time>2026-04-04T13:43:03Z</time></trkpt><trkpt lat="39.78259628372226" lon="9.613648645230986"><ele>65.5</ele><time>2026-04-04T13:43:04Z</time></trkpt><trkpt lat="39.78239808763371" lon="9.613804091971815"><ele>58.0</ele><time>2026-04-04T13:43:05Z</time></trkpt><trkpt lat="39.78219400208318" lon="9.613946713526827"><ele>58.0</ele><time>2026-04-04T13:43:06Z</time></trkpt><trkpt lat="39.78198967866556" lon="9.614078240050784"><ele>58.0</ele><time>2026-04-04T13:43:07Z</time></trkpt><trkpt lat="39.78177856794586" lon="9.614201892445971"><ele>55.0</ele><time>2026-04-04T13:43:08Z</time></trkpt><trkpt lat="39.781562630919545" lon="9.614310803393536"><ele>52.0</ele><time>2026-04-04T13:43:09Z</time></trkpt><trkpt lat="39.781345461140624" lon="9.614407886890433"><ele>52.5</ele><time>2026-04-04T13:43:10Z</time></trkpt><trkpt lat="39.78112015211913" lon="9.614498303150999"><ele>53.0</ele><time>2026-04-04T13:43:11Z</time></trkpt><trkpt lat="39.78089158956522" lon="9.614572894077913"><ele>49.5</ele><time>2026-04-04T13:43:11.999Z</time></trkpt><trkpt lat="39.78065682632358" lon="9.614635233724519"><ele>46.0</ele><time>2026-04-04T13:43:12.999Z</time></trkpt><trkpt lat="39.78041624209621" lon="9.6146859737074"><ele>48.0</ele><time>2026-04-04T13:43:13.999Z</time></trkpt><trkpt lat="39.780175572208464" lon="9.614722047976072"><ele>50.0</ele><time>2026-04-04T13:43:14.999Z</time></trkpt><trkpt lat="39.779931893963465" lon="9.614745661917388"><ele>50.0</ele><time>2026-04-04T13:43:15.999Z</time></trkpt><trkpt lat="39.779682284755076" lon="9.614761464516409"><ele>50.0</ele><time>2026-04-04T13:43:16.999Z</time></trkpt><trkpt lat="39.779433010901485" lon="9.614769258704191"><ele>50.0</ele><time>2026-04-04T13:43:17.999Z</time></trkpt><trkpt lat="39.77917941571902" lon="9.614773670044443"><ele>50.0</ele><time>2026-04-04T13:43:18.999Z</time></trkpt><trkpt lat="39.77892667593638" lon="9.614776615896304"><ele>50.0</ele><time>2026-04-04T13:43:19.999Z</time></trkpt><trkpt lat="39.77867361103359" lon="9.61478094720536"><ele>50.0</ele><time>2026-04-04T13:43:20.999Z</time></trkpt><trkpt lat="39.778419427568465" lon="9.614784500144927"><ele>47.5</ele><time>2026-04-04T13:43:21.999Z</time></trkpt><trkpt lat="39.77816381361026" lon="9.614785809556121"><ele>45.0</ele><time>2026-04-04T13:43:22.999Z</time></trkpt><trkpt lat="39.77790842761" lon="9.61478399395049"><ele>41.5</ele><time>2026-04-04T13:43:23.999Z</time></trkpt><trkpt lat="39.77765170183597" lon="9.614782143168407"><ele>38.0</ele><time>2026-04-04T13:43:24.999Z</time></trkpt><trkpt lat="39.77739438314392" lon="9.614780225492279"><ele>38.0</ele><time>2026-04-04T13:43:25.999Z</time></trkpt><trkpt lat="39.777137417167324" lon="9.614778950330733"><ele>38.0</ele><time>2026-04-04T13:43:26.999Z</time></trkpt><trkpt lat="39.776880107810086" lon="9.614773688632626"><ele>38.5</ele><time>2026-04-04T13:43:27.999Z</time></trkpt><trkpt lat="39.77662145871208" lon="9.614765524082362"><ele>39.0</ele><time>2026-04-04T13:43:28.999Z</time></trkpt><trkpt lat="39.77636357139497" lon="9.614746270794331"><ele>39.0</ele><time>2026-04-04T13:43:29.999Z</time></trkpt><trkpt lat="39.776105253423076" lon="9.61471254732869"><ele>39.0</ele><time>2026-04-04T13:43:30.999Z</time></trkpt><trkpt lat="39.775849111434965" lon="9.614662704691328"><ele>42.0</ele><time>2026-04-04T13:43:31.999Z</time></trkpt><trkpt lat="39.77559146856997" lon="9.614602016398036"><ele>45.0</ele><time>2026-04-04T13:43:32.999Z</time></trkpt><trkpt lat="39.775337267254436" lon="9.614530893685545"><ele>46.0</ele><time>2026-04-04T13:43:33.999Z</time></trkpt><trkpt lat="39.77508251328855" lon="9.61445721221087"><ele>47.0</ele><time>2026-04-04T13:43:34.999Z</time></trkpt><trkpt lat="39.77483884453477" lon="9.614380573077472"><ele>47.0</ele><time>2026-04-04T13:43:35.999Z</time></trkpt><trkpt lat="39.77460588087994" lon="9.614313146436174"><ele>47.0</ele><time>2026-04-04T13:43:36.999Z</time></trkpt><trkpt lat="39.77437554891685" lon="9.614245194089365"><ele>47.5</ele><time>2026-04-04T13:43:37.999Z</time></trkpt><trkpt lat="39.774142078923234" lon="9.614179045822603"><ele>48.0</ele><time>2026-04-04T13:43:38.999Z</time></trkpt><trkpt lat="39.773907007307315" lon="9.614112367605198"><ele>48.0</ele><time>2026-04-04T13:43:39.999Z</time></trkpt><trkpt lat="39.77367151645733" lon="9.614045890020316"><ele>48.0</ele><time>2026-04-04T13:43:40.999Z</time></trkpt><trkpt lat="39.77343477151989" lon="9.613977894594386"><ele>49.0</ele><time>2026-04-04T13:43:41.999Z</time></trkpt><trkpt lat="39.77320850040141" lon="9.613911633423305"><ele>50.0</ele><time>2026-04-04T13:43:42.999Z</time></trkpt><trkpt lat="39.77299733643942" lon="9.613848207793268"><ele>51.0</ele><time>2026-04-04T13:43:43.999Z</time></trkpt><trkpt lat="39.77279075822833" lon="9.613784445651955"><ele>51.5</ele><time>2026-04-04T13:43:44.999Z</time></trkpt><trkpt lat="39.77257143856186" lon="9.613715562883566"><ele>52.0</ele><time>2026-04-04T13:43:45.999Z</time></trkpt><trkpt lat="39.77234937030136" lon="9.61364617526327"><ele>52.0</ele><time>2026-04-04T13:43:46.999Z</time></trkpt><trkpt lat="39.772125781875005" lon="9.61358216686924"><ele>52.0</ele><time>2026-04-04T13:43:47.999Z</time></trkpt><trkpt lat="39.77190172673123" lon="9.613525084889408"><ele>54.0</ele><time>2026-04-04T13:43:48.999Z</time></trkpt><trkpt lat="39.77167044295514" lon="9.613477031858379"><ele>56.0</ele><time>2026-04-04T13:43:49.999Z</time></trkpt><trkpt lat="39.77143757293127" lon="9.613442552895552"><ele>56.0</ele><time>2026-04-04T13:43:50.999Z</time></trkpt><trkpt lat="39.77119667871884" lon="9.613421145314344"><ele>56.0</ele><time>2026-04-04T13:43:51.999Z</time></trkpt><trkpt lat="39.77095839980905" lon="9.613415424549627"><ele>57.0</ele><time>2026-04-04T13:43:52.999Z</time></trkpt><trkpt lat="39.77072010150807" lon="9.613422290169073"><ele>58.0</ele><time>2026-04-04T13:43:54Z</time></trkpt><trkpt lat="39.77049004466784" lon="9.61344707586495"><ele>58.0</ele><time>2026-04-04T13:43:55Z</time></trkpt><trkpt lat="39.77026454057176" lon="9.613478815761642"><ele>58.0</ele><time>2026-04-04T13:43:56Z</time></trkpt><trkpt lat="39.77004278374126" lon="9.613511408268202"><ele>58.33333333333333</ele><time>2026-04-04T13:43:57Z</time></trkpt><trkpt lat="39.76982602636357" lon="9.613542320395734"><ele>58.66666666666667</ele><time>2026-04-04T13:43:58Z</time></trkpt><trkpt lat="39.769607425024105" lon="9.613571670841836"><ele>59.0</ele><time>2026-04-04T13:43:59Z</time></trkpt><trkpt lat="39.76938917561128" lon="9.613600816056756"><ele>61.0</ele><time>2026-04-04T13:44:00Z</time></trkpt><trkpt lat="39.769157684446334" lon="9.613627809692264"><ele>63.0</ele><time>2026-04-04T13:44:01Z</time></trkpt><trkpt lat="39.768919932766394" lon="9.613654716330213"><ele>63.5</ele><time>2026-04-04T13:44:02Z</time></trkpt><trkpt lat="39.768678912396645" lon="9.61367859430432"><ele>64.0</ele><time>2026-04-04T13:44:03Z</time></trkpt><trkpt lat="39.76843505965871" lon="9.613696316075599"><ele>64.0</ele><time>2026-04-04T13:44:04Z</time></trkpt><trkpt lat="39.768196899908176" lon="9.613705522166946"><ele>64.0</ele><time>2026-04-04T13:44:05Z</time></trkpt><trkpt lat="39.76795800135753" lon="9.613705863385118"><ele>64.0</ele><time>2026-04-04T13:44:06Z</time></trkpt><trkpt lat="39.767722520511" lon="9.613693511910743"><ele>64.0</ele><time>2026-04-04T13:44:07Z</time></trkpt><trkpt lat="39.76749144748493" lon="9.613669226101559"><ele>65.5</ele><time>2026-04-04T13:44:08Z</time></trkpt><trkpt lat="39.76726738966327" lon="9.613634538735921"><ele>67.0</ele><time>2026-04-04T13:44:09Z</time></trkpt><trkpt lat="39.76703982929425" lon="9.613585391608426"><ele>67.5</ele><time>2026-04-04T13:44:10Z</time></trkpt><trkpt lat="39.76681735191442" lon="9.613521859769845"><ele>68.0</ele><time>2026-04-04T13:44:11Z</time></trkpt><trkpt lat="39.76659049495184" lon="9.613443961728096"><ele>68.0</ele><time>2026-04-04T13:44:12Z</time></trkpt><trkpt lat="39.766371129489016" lon="9.613355349566032"><ele>68.0</ele><time>2026-04-04T13:44:13Z</time></trkpt><trkpt lat="39.76614845313246" lon="9.613246807018884"><ele>71.5</ele><time>2026-04-04T13:44:14Z</time></trkpt><trkpt lat="39.76593049277401" lon="9.613121364947187"><ele>75.0</ele><time>2026-04-04T13:44:15Z</time></trkpt><trkpt lat="39.76571410007504" lon="9.612977753762722"><ele>74.0</ele><time>2026-04-04T13:44:16Z</time></trkpt><trkpt lat="39.76550238038474" lon="9.612820714757328"><ele>73.0</ele><time>2026-04-04T13:44:17Z</time></trkpt><trkpt lat="39.76529490643909" lon="9.612645747854216"><ele>75.5</ele><time>2026-04-04T13:44:18Z</time></trkpt><trkpt lat="39.76509540912399" lon="9.612446525042525"><ele>78.0</ele><time>2026-04-04T13:44:19Z</time></trkpt><trkpt lat="39.76491679868097" lon="9.612250179744297"><ele>78.0</ele><time>2026-04-04T13:44:20Z</time></trkpt><trkpt lat="39.76475596580925" lon="9.612058030909255"><ele>78.0</ele><time>2026-04-04T13:44:21Z</time></trkpt><trkpt lat="39.7645967465289" lon="9.611859747016485"><ele>78.0</ele><time>2026-04-04T13:44:22Z</time></trkpt><trkpt lat="39.76444502498248" lon="9.611647356619265"><ele>76.5</ele><time>2026-04-04T13:44:23Z</time></trkpt><trkpt lat="39.764301679176" lon="9.611423267038726"><ele>75.0</ele><time>2026-04-04T13:44:24Z</time></trkpt><trkpt lat="39.764167865353336" lon="9.6111838841266"><ele>75.5</ele><time>2026-04-04T13:44:25Z</time></trkpt><trkpt lat="39.764042991044356" lon="9.610929540138454"><ele>76.0</ele><time>2026-04-04T13:44:26Z</time></trkpt><trkpt lat="39.76392697602203" lon="9.610663935287514"><ele>76.0</ele><time>2026-04-04T13:44:27Z</time></trkpt><trkpt lat="39.76382107833991" lon="9.610388759775468"><ele>76.0</ele><time>2026-04-04T13:44:28Z</time></trkpt><trkpt lat="39.76373068846436" lon="9.610128192287926"><ele>77.33333333333333</ele><time>2026-04-04T13:44:29Z</time></trkpt><trkpt lat="39.763655261752824" lon="9.609866380211832"><ele>78.66666666666667</ele><time>2026-04-04T13:44:30Z</time></trkpt><trkpt lat="39.76358295431433" lon="9.60959239001663"><ele>80.0</ele><time>2026-04-04T13:44:31Z</time></trkpt><trkpt lat="39.76352246137806" lon="9.609316918064572"><ele>84.5</ele><time>2026-04-04T13:44:32Z</time></trkpt><trkpt lat="39.763470627747076" lon="9.609035534668076"><ele>89.0</ele><time>2026-04-04T13:44:33Z</time></trkpt><trkpt lat="39.763424650630995" lon="9.6087418682172"><ele>92.5</ele><time>2026-04-04T13:44:34Z</time></trkpt><trkpt lat="39.763383994123856" lon="9.608436810736624"><ele>96.0</ele><time>2026-04-04T13:44:35Z</time></trkpt><trkpt lat="39.76335091147531" lon="9.608112894989691"><ele>95.0</ele><time>2026-04-04T13:44:36Z</time></trkpt><trkpt lat="39.76332426678188" lon="9.607783829231733"><ele>94.0</ele><time>2026-04-04T13:44:37Z</time></trkpt><trkpt lat="39.763303022350705" lon="9.607446400551895"><ele>94.0</ele><time>2026-04-04T13:44:38Z</time></trkpt><trkpt lat="39.76328996828885" lon="9.607096575382709"><ele>94.0</ele><time>2026-04-04T13:44:39Z</time></trkpt><trkpt lat="39.763280942174624" lon="9.606749029386755"><ele>94.5</ele><time>2026-04-04T13:44:40Z</time></trkpt><trkpt lat="39.76327162483375" lon="9.60639095381"><ele>95.0</ele><time>2026-04-04T13:44:41Z</time></trkpt><trkpt lat="39.76326124690163" lon="9.606035545812563"><ele>95.5</ele><time>2026-04-04T13:44:42Z</time></trkpt><trkpt lat="39.76325111444612" lon="9.605675303480753"><ele>96.0</ele><time>2026-04-04T13:44:43Z</time></trkpt><trkpt lat="39.76324104797163" lon="9.605337822080967"><ele>97.0</ele><time>2026-04-04T13:44:44Z</time></trkpt><trkpt lat="39.76323157158023" lon="9.605026824202538"><ele>98.0</ele><time>2026-04-04T13:44:45Z</time></trkpt><trkpt lat="39.76322125275671" lon="9.604723185364774"><ele>98.0</ele><time>2026-04-04T13:44:46Z</time></trkpt><trkpt lat="39.76321158483759" lon="9.6044250438279"><ele>98.0</ele><time>2026-04-04T13:44:47Z</time></trkpt><trkpt lat="39.763202841248" lon="9.60413431640794"><ele>98.0</ele><time>2026-04-04T13:44:48Z</time></trkpt><trkpt lat="39.763189195776434" lon="9.603851656812258"><ele>98.0</ele><time>2026-04-04T13:44:49Z</time></trkpt><trkpt lat="39.76316535405195" lon="9.603571410963543"><ele>98.0</ele><time>2026-04-04T13:44:49.999Z</time></trkpt><trkpt lat="39.76316080302844" lon="9.603290431702815"><ele>99.33333333333333</ele><time>2026-04-04T13:44:50.999Z</time></trkpt><trkpt lat="39.763143925781606" lon="9.603012312178672"><ele>100.66666666666666</ele><time>2026-04-04T13:44:51.999Z</time></trkpt><trkpt lat="39.763041148474144" lon="9.602742601448346"><ele>102.0</ele><time>2026-04-04T13:44:52.999Z</time></trkpt><trkpt lat="39.76297978194147" lon="9.602457319014682"><ele>106.5</ele><time>2026-04-04T13:44:53.999Z</time></trkpt><trkpt lat="39.762910546769305" lon="9.602181152757598"><ele>111.0</ele><time>2026-04-04T13:44:54.999Z</time></trkpt><trkpt lat="39.762831364661615" lon="9.601900038275648"><ele>111.0</ele><time>2026-04-04T13:44:55.999Z</time></trkpt><trkpt lat="39.762744961869984" lon="9.601617386299091"><ele>111.0</ele><time>2026-04-04T13:44:56.999Z</time></trkpt><trkpt lat="39.76264786408214" lon="9.60135162620231"><ele>116.5</ele><time>2026-04-04T13:44:57.999Z</time></trkpt><trkpt lat="39.7625473832418" lon="9.601099988863544"><ele>122.0</ele><time>2026-04-04T13:44:58.999Z</time></trkpt><trkpt lat="39.7624417912696" lon="9.600798929076467"><ele>122.0</ele><time>2026-04-04T13:44:59.999Z</time></trkpt><trkpt lat="39.76233157491696" lon="9.600480000036645"><ele>122.0</ele><time>2026-04-04T13:45:00.999Z</time></trkpt><trkpt lat="39.76223269020925" lon="9.600187044162642"><ele>117.0</ele><time>2026-04-04T13:45:01.999Z</time></trkpt><trkpt lat="39.76212794477486" lon="9.599889147999711"><ele>112.0</ele><time>2026-04-04T13:45:02.999Z</time></trkpt><trkpt lat="39.76202609747338" lon="9.599590948546052"><ele>110.0</ele><time>2026-04-04T13:45:03.999Z</time></trkpt><trkpt lat="39.761921086798985" lon="9.599295206462523"><ele>108.0</ele><time>2026-04-04T13:45:04.999Z</time></trkpt><trkpt lat="39.761817608875404" lon="9.599011770555471"><ele>112.0</ele><time>2026-04-04T13:45:05.999Z</time></trkpt><trkpt lat="39.7617210104331" lon="9.598750081629442"><ele>116.0</ele><time>2026-04-04T13:45:06.999Z</time></trkpt><trkpt lat="39.76163011259655" lon="9.598496870202204"><ele>120.0</ele><time>2026-04-04T13:45:07.999Z</time></trkpt><trkpt lat="39.76153978967837" lon="9.598246389012319"><ele>120.66666666666666</ele><time>2026-04-04T13:45:08.999Z</time></trkpt><trkpt lat="39.761449495774194" lon="9.597994879451882"><ele>121.33333333333333</ele><time>2026-04-04T13:45:09.999Z</time></trkpt><trkpt lat="39.761356167574505" lon="9.597740358781772"><ele>122.0</ele><time>2026-04-04T13:45:10.999Z</time></trkpt><trkpt lat="39.761262005763854" lon="9.59748722453058"><ele>125.0</ele><time>2026-04-04T13:45:11.999Z</time></trkpt><trkpt lat="39.761166735080245" lon="9.597229870803844"><ele>128.0</ele><time>2026-04-04T13:45:12.999Z</time></trkpt><trkpt lat="39.761075277486555" lon="9.596970742997751"><ele>131.0</ele><time>2026-04-04T13:45:13.999Z</time></trkpt><trkpt lat="39.76099060236976" lon="9.59672384790152"><ele>135.0</ele><time>2026-04-04T13:45:14.999Z</time></trkpt><trkpt lat="39.76090684349825" lon="9.596482730655202"><ele>139.0</ele><time>2026-04-04T13:45:15.999Z</time></trkpt><trkpt lat="39.760819185365726" lon="9.596240987133399"><ele>143.0</ele><time>2026-04-04T13:45:16.999Z</time></trkpt><trkpt lat="39.76073163092782" lon="9.595998688460046"><ele>143.0</ele><time>2026-04-04T13:45:17.999Z</time></trkpt><trkpt lat="39.760643741476606" lon="9.595748792262935"><ele>143.0</ele><time>2026-04-04T13:45:18.999Z</time></trkpt><trkpt lat="39.76056094300267" lon="9.595493620426092"><ele>143.0</ele><time>2026-04-04T13:45:19.999Z</time></trkpt><trkpt lat="39.76048033540714" lon="9.595231256383071"><ele>142.66666666666666</ele><time>2026-04-04T13:45:20.999Z</time></trkpt><trkpt lat="39.76040339004393" lon="9.594968149645924"><ele>142.33333333333334</ele><time>2026-04-04T13:45:21.999Z</time></trkpt><trkpt lat="39.76032745418594" lon="9.5946936609721"><ele>142.0</ele><time>2026-04-04T13:45:22.999Z</time></trkpt><trkpt lat="39.760266599856095" lon="9.594415640473708"><ele>141.5</ele><time>2026-04-04T13:45:23.999Z</time></trkpt><trkpt lat="39.76021644292549" lon="9.594129263348616"><ele>141.0</ele><time>2026-04-04T13:45:24.999Z</time></trkpt><trkpt lat="39.76017233109952" lon="9.593843402811652"><ele>150.66666666666666</ele><time>2026-04-04T13:45:25.999Z</time></trkpt><trkpt lat="39.760142482962316" lon="9.593557224542016"><ele>160.33333333333331</ele><time>2026-04-04T13:45:26.999Z</time></trkpt><trkpt lat="39.760116466512265" lon="9.593274622733237"><ele>170.0</ele><time>2026-04-04T13:45:27.999Z</time></trkpt><trkpt lat="39.76009457836424" lon="9.592993875911734"><ele>169.66666666666666</ele><time>2026-04-04T13:45:28.999Z</time></trkpt><trkpt lat="39.760071240163064" lon="9.59271285959408"><ele>169.33333333333334</ele><time>2026-04-04T13:45:29.999Z</time></trkpt><trkpt lat="39.76005098744598" lon="9.592434951085298"><ele>169.0</ele><time>2026-04-04T13:45:30.999Z</time></trkpt><trkpt lat="39.760029303548414" lon="9.592146381355962"><ele>167.66666666666669</ele><time>2026-04-04T13:45:31.999Z</time></trkpt><trkpt lat="39.76000699580209" lon="9.591859305535953"><ele>166.33333333333334</ele><time>2026-04-04T13:45:32.999Z</time></trkpt><trkpt lat="39.75998480426879" lon="9.591569683185723"><ele>165.0</ele><time>2026-04-04T13:45:33.999Z</time></trkpt><trkpt lat="39.76001744482922" lon="9.59119937862696"><ele>166.0</ele><time>2026-04-04T13:45:34.999Z</time></trkpt><trkpt lat="39.760012361211594" lon="9.590861229720524"><ele>167.0</ele><time>2026-04-04T13:45:35.999Z</time></trkpt><trkpt lat="39.75998467990087" lon="9.590552739144773"><ele>178.0</ele><time>2026-04-04T13:45:36.999Z</time></trkpt><trkpt lat="39.75995476899262" lon="9.590241208848413"><ele>189.0</ele><time>2026-04-04T13:45:37.999Z</time></trkpt><trkpt lat="39.7599241741103" lon="9.589927710307732"><ele>189.0</ele><time>2026-04-04T13:45:38.999Z</time></trkpt><trkpt lat="39.75989613536891" lon="9.589616878487584"><ele>189.0</ele><time>2026-04-04T13:45:39.999Z</time></trkpt><trkpt lat="39.75987090037905" lon="9.589317208815745"><ele>207.0</ele><time>2026-04-04T13:45:40.999Z</time></trkpt><trkpt lat="39.75984321102678" lon="9.589015114989015"><ele>225.0</ele><time>2026-04-04T13:45:41.999Z</time></trkpt><trkpt lat="39.75982276873084" lon="9.588710754863126"><ele>243.5</ele><time>2026-04-04T13:45:42.999Z</time></trkpt><trkpt lat="39.75980439019531" lon="9.58840345388212"><ele>262.0</ele><time>2026-04-04T13:45:43.999Z</time></trkpt><trkpt lat="39.759773154662795" lon="9.588084168287905"><ele>275.0</ele><time>2026-04-04T13:45:44.999Z</time></trkpt><trkpt lat="39.75973608069337" lon="9.587759664925573"><ele>288.0</ele><time>2026-04-04T13:45:45.999Z</time></trkpt><trkpt lat="39.759694186505584" lon="9.587429910446609"><ele>288.0</ele><time>2026-04-04T13:45:46.999Z</time></trkpt><trkpt lat="39.75966261524937" lon="9.58711711677336"><ele>288.0</ele><time>2026-04-04T13:45:47.999Z</time></trkpt><trkpt lat="39.759467988245646" lon="9.58718336008523"><ele>288.0</ele><time>2026-04-04T13:45:48.999Z</time></trkpt><trkpt lat="39.759402191997815" lon="9.586958016005662"><ele>301.3333333333333</ele><time>2026-04-04T13:45:49.999Z</time></trkpt><trkpt lat="39.759336384645295" lon="9.586750178860147"><ele>314.66666666666663</ele><time>2026-04-04T13:45:50.999Z</time></trkpt><trkpt lat="39.75926133025993" lon="9.586536071882646"><ele>328.0</ele><time>2026-04-04T13:45:51.999Z</time></trkpt><trkpt lat="39.759190078463305" lon="9.586332438579037"><ele>336.3333333333333</ele><time>2026-04-04T13:45:52.999Z</time></trkpt><trkpt lat="39.759115460513776" lon="9.586130795784703"><ele>344.6666666666667</ele><time>2026-04-04T13:45:53.999Z</time></trkpt><trkpt lat="39.75903399856368" lon="9.585934999089929"><ele>353.0</ele><time>2026-04-04T13:45:54.999Z</time></trkpt><trkpt lat="39.75895414032911" lon="9.585742683853645"><ele>353.0</ele><time>2026-04-04T13:45:55.999Z</time></trkpt><trkpt lat="39.7588642932015" lon="9.585548263339541"><ele>353.0</ele><time>2026-04-04T13:45:56.999Z</time></trkpt><trkpt lat="39.758771787540105" lon="9.585351158904796"><ele>353.0</ele><time>2026-04-04T13:45:57.999Z</time></trkpt><trkpt lat="39.75867257778124" lon="9.585158264913373"><ele>364.33333333333337</ele><time>2026-04-04T13:45:58.999Z</time></trkpt><trkpt lat="39.758568362509976" lon="9.584966612219276"><ele>375.6666666666667</ele><time>2026-04-04T13:46:00Z</time></trkpt><trkpt lat="39.75845548977763" lon="9.584765172141758"><ele>387.0</ele><time>2026-04-04T13:46:01Z</time></trkpt><trkpt lat="39.758336478693714" lon="9.584576843869941"><ele>394.33333333333337</ele><time>2026-04-04T13:46:02Z</time></trkpt><trkpt lat="39.7582183947" lon="9.584394287951497"><ele>401.6666666666667</ele><time>2026-04-04T13:46:03Z</time></trkpt><trkpt lat="39.758097831560484" lon="9.58421727291049"><ele>409.0</ele><time>2026-04-04T13:46:04Z</time></trkpt><trkpt lat="39.757974124368545" lon="9.584044709140056"><ele>409.0</ele><time>2026-04-04T13:46:05Z</time></trkpt><trkpt lat="39.75783128292073" lon="9.583852526966645"><ele>409.0</ele><time>2026-04-04T13:46:06Z</time></trkpt><trkpt lat="39.75767510017236" lon="9.58366120547743"><ele>409.0</ele><time>2026-04-04T13:46:07Z</time></trkpt><trkpt lat="39.75751541478404" lon="9.583474084947559"><ele>393.33333333333337</ele><time>2026-04-04T13:46:08Z</time></trkpt><trkpt lat="39.75735417338986" lon="9.583326889217734"><ele>377.6666666666667</ele><time>2026-04-04T13:46:09Z</time></trkpt><trkpt lat="39.75720171611407" lon="9.583207119689806"><ele>362.0</ele><time>2026-04-04T13:46:10Z</time></trkpt><trkpt lat="39.7570227868605" lon="9.583034187714727"><ele>348.0</ele><time>2026-04-04T13:46:11Z</time></trkpt><trkpt lat="39.75684354178368" lon="9.582871197147684"><ele>334.0</ele><time>2026-04-04T13:46:12Z</time></trkpt><trkpt lat="39.75666817002054" lon="9.58272110057278"><ele>320.0</ele><time>2026-04-04T13:46:13Z</time></trkpt><trkpt lat="39.75648583449888" lon="9.58256748692449"><ele>313.6666666666667</ele><time>2026-04-04T13:46:14Z</time></trkpt><trkpt lat="39.75630425628301" lon="9.58242682880527"><ele>307.3333333333333</ele><time>2026-04-04T13:46:15Z</time></trkpt><trkpt lat="39.75614174868858" lon="9.582305004954549"><ele>301.0</ele><time>2026-04-04T13:46:16Z</time></trkpt><trkpt lat="39.755973821350935" lon="9.58218554587445"><ele>292.66666666666663</ele><time>2026-04-04T13:46:17Z</time></trkpt><trkpt lat="39.75582789920594" lon="9.582085714197614"><ele>284.3333333333333</ele><time>2026-04-04T13:46:18Z</time></trkpt><trkpt lat="39.755693881926355" lon="9.581995132163026"><ele>276.0</ele><time>2026-04-04T13:46:19Z</time></trkpt><trkpt lat="39.755565068116816" lon="9.581903100161234"><ele>269.0</ele><time>2026-04-04T13:46:20Z</time></trkpt><trkpt lat="39.755456540809064" lon="9.581826726967936"><ele>262.0</ele><time>2026-04-04T13:46:21.005Z</time></trkpt><trkpt lat="39.752531957098356" lon="9.578763727468528"><ele>232.0</ele><time>2026-04-04T13:46:32.999Z</time></trkpt><trkpt lat="39.75236614565608" lon="9.578625345760129"><ele>202.0</ele><time>2026-04-04T13:46:33.999Z</time></trkpt><trkpt lat="39.752151098915995" lon="9.578507029049453"><ele>172.0</ele><time>2026-04-04T13:46:34.999Z</time></trkpt><trkpt lat="39.751935214450405" lon="9.57836739267024"><ele>169.5</ele><time>2026-04-04T13:46:35.999Z</time></trkpt><trkpt lat="39.75171844611019" lon="9.578243148025663"><ele>167.0</ele><time>2026-04-04T13:46:36.999Z</time></trkpt><trkpt lat="39.751486907146564" lon="9.578124562865215"><ele>167.0</ele><time>2026-04-04T13:46:37.999Z</time></trkpt><trkpt lat="39.75123096539889" lon="9.578021496309734"><ele>167.0</ele><time>2026-04-04T13:46:38.999Z</time></trkpt><trkpt lat="39.75097067638234" lon="9.577939528248798"><ele>167.5</ele><time>2026-04-04T13:46:39.999Z</time></trkpt><trkpt lat="39.750706224798925" lon="9.577866554449452"><ele>168.0</ele><time>2026-04-04T13:46:40.999Z</time></trkpt><trkpt lat="39.750423940378845" lon="9.577827186372259"><ele>166.5</ele><time>2026-04-04T13:46:41.999Z</time></trkpt><trkpt lat="39.750134315221025" lon="9.577802185020841"><ele>165.0</ele><time>2026-04-04T13:46:42.999Z</time></trkpt><trkpt lat="39.74982720771366" lon="9.577799479688634"><ele>165.0</ele><time>2026-04-04T13:46:43.999Z</time></trkpt><trkpt lat="39.74952030262545" lon="9.577822651685894"><ele>165.0</ele><time>2026-04-04T13:46:44.999Z</time></trkpt><trkpt lat="39.749218080508015" lon="9.577869307733813"><ele>166.5</ele><time>2026-04-04T13:46:45.999Z</time></trkpt><trkpt lat="39.74890650892993" lon="9.577946127175048"><ele>168.0</ele><time>2026-04-04T13:46:46.999Z</time></trkpt><trkpt lat="39.74860118840825" lon="9.578056331276139"><ele>166.0</ele><time>2026-04-04T13:46:47.999Z</time></trkpt><trkpt lat="39.748294504240405" lon="9.57819358181301"><ele>164.0</ele><time>2026-04-04T13:46:48.999Z</time></trkpt><trkpt lat="39.747996695571715" lon="9.57833645861918"><ele>164.0</ele><time>2026-04-04T13:46:49.999Z</time></trkpt><trkpt lat="39.747716804561165" lon="9.578482510379967"><ele>164.0</ele><time>2026-04-04T13:46:50.999Z</time></trkpt><trkpt lat="39.74745031132008" lon="9.57862186549918"><ele>164.5</ele><time>2026-04-04T13:46:51.999Z</time></trkpt><trkpt lat="39.74720134678763" lon="9.578756673109769"><ele>165.0</ele><time>2026-04-04T13:46:52.999Z</time></trkpt><trkpt lat="39.74699696123418" lon="9.578870670180384"><ele>164.0</ele><time>2026-04-04T13:46:53.999Z</time></trkpt><trkpt lat="39.746773371988084" lon="9.57899645902888"><ele>163.0</ele><time>2026-04-04T13:46:54.999Z</time></trkpt><trkpt lat="39.746568675914425" lon="9.579104731511997"><ele>163.0</ele><time>2026-04-04T13:46:55.999Z</time></trkpt><trkpt lat="39.746367982176466" lon="9.579202493853996"><ele>163.0</ele><time>2026-04-04T13:46:56.999Z</time></trkpt><trkpt lat="39.74615806263649" lon="9.579294093698389"><ele>163.0</ele><time>2026-04-04T13:46:57.999Z</time></trkpt><trkpt lat="39.74593608048758" lon="9.57936837850402"><ele>161.0</ele><time>2026-04-04T13:46:58.999Z</time></trkpt><trkpt lat="39.74570344521586" lon="9.579431794283275"><ele>159.0</ele><time>2026-04-04T13:46:59.999Z</time></trkpt><trkpt lat="39.74547151761838" lon="9.579481084159069"><ele>159.0</ele><time>2026-04-04T13:47:00.999Z</time></trkpt><trkpt lat="39.745237340006106" lon="9.579516385425213"><ele>159.0</ele><time>2026-04-04T13:47:01.999Z</time></trkpt><trkpt lat="39.74499780902964" lon="9.579533371571008"><ele>158.5</ele><time>2026-04-04T13:47:02.999Z</time></trkpt><trkpt lat="39.74475365002253" lon="9.579533941061078"><ele>158.0</ele><time>2026-04-04T13:47:03.999Z</time></trkpt><trkpt lat="39.74450762514628" lon="9.579516684973324"><ele>156.5</ele><time>2026-04-04T13:47:04.999Z</time></trkpt><trkpt lat="39.74426297076495" lon="9.579481199758408"><ele>155.0</ele><time>2026-04-04T13:47:05.999Z</time></trkpt><trkpt lat="39.74402621672171" lon="9.579429948992997"><ele>155.0</ele><time>2026-04-04T13:47:06.999Z</time></trkpt><trkpt lat="39.743792126363154" lon="9.579370969424598"><ele>155.0</ele><time>2026-04-04T13:47:07.999Z</time></trkpt><trkpt lat="39.74356238791185" lon="9.579306715388658"><ele>154.0</ele><time>2026-04-04T13:47:08.999Z</time></trkpt><trkpt lat="39.74333397429306" lon="9.579238808770393"><ele>153.0</ele><time>2026-04-04T13:47:09.999Z</time></trkpt><trkpt lat="39.74310348094769" lon="9.579165879063304"><ele>153.0</ele><time>2026-04-04T13:47:10.999Z</time></trkpt><trkpt lat="39.742870166891436" lon="9.579094906851711"><ele>153.0</ele><time>2026-04-04T13:47:11.999Z</time></trkpt><trkpt lat="39.74263399566986" lon="9.579020789550379"><ele>152.33333333333334</ele><time>2026-04-04T13:47:12.999Z</time></trkpt><trkpt lat="39.74241132610487" lon="9.578963040266476"><ele>151.66666666666669</ele><time>2026-04-04T13:47:13.999Z</time></trkpt><trkpt lat="39.7422042685967" lon="9.578900469702933"><ele>151.0</ele><time>2026-04-04T13:47:14.999Z</time></trkpt><trkpt lat="39.74199836090817" lon="9.578837990113533"><ele>150.66666666666669</ele><time>2026-04-04T13:47:15.999Z</time></trkpt><trkpt lat="39.74178906507647" lon="9.578773092978253"><ele>150.33333333333334</ele><time>2026-04-04T13:47:16.999Z</time></trkpt><trkpt lat="39.74157222602401" lon="9.578706698370302"><ele>150.0</ele><time>2026-04-04T13:47:17.999Z</time></trkpt><trkpt lat="39.741353505898296" lon="9.578638945282185"><ele>150.0</ele><time>2026-04-04T13:47:18.999Z</time></trkpt><trkpt lat="39.7411299459588" lon="9.578571113601003"><ele>150.0</ele><time>2026-04-04T13:47:19.999Z</time></trkpt><trkpt lat="39.74090693139457" lon="9.578504516238631"><ele>149.0</ele><time>2026-04-04T13:47:20.999Z</time></trkpt><trkpt lat="39.74069021226596" lon="9.578440734806286"><ele>148.0</ele><time>2026-04-04T13:47:21.999Z</time></trkpt><trkpt lat="39.740469753369766" lon="9.5783749763393"><ele>147.0</ele><time>2026-04-04T13:47:22.999Z</time></trkpt><trkpt lat="39.74024921532973" lon="9.578308208583362"><ele>146.5</ele><time>2026-04-04T13:47:23.999Z</time></trkpt><trkpt lat="39.740026913290755" lon="9.578242705764566"><ele>146.0</ele><time>2026-04-04T13:47:24.999Z</time></trkpt><trkpt lat="39.73980203136627" lon="9.5781791382826"><ele>146.0</ele><time>2026-04-04T13:47:25.999Z</time></trkpt><trkpt lat="39.73957456987441" lon="9.578116818882654"><ele>146.0</ele><time>2026-04-04T13:47:26.999Z</time></trkpt><trkpt lat="39.73934479427765" lon="9.57806395458264"><ele>145.0</ele><time>2026-04-04T13:47:27.999Z</time></trkpt><trkpt lat="39.73911027799835" lon="9.57802116858045"><ele>144.0</ele><time>2026-04-04T13:47:28.999Z</time></trkpt><trkpt lat="39.73887066742644" lon="9.57798338741682"><ele>144.0</ele><time>2026-04-04T13:47:29.999Z</time></trkpt><trkpt lat="39.738625391914205" lon="9.577956447077337"><ele>144.0</ele><time>2026-04-04T13:47:30.999Z</time></trkpt><trkpt lat="39.73838453892172" lon="9.577934332692688"><ele>144.5</ele><time>2026-04-04T13:47:31.999Z</time></trkpt><trkpt lat="39.7381335806388" lon="9.577913287285309"><ele>145.0</ele><time>2026-04-04T13:47:32.999Z</time></trkpt><trkpt lat="39.73788357360446" lon="9.577897183930638"><ele>144.0</ele><time>2026-04-04T13:47:33.999Z</time></trkpt><trkpt lat="39.73763244301697" lon="9.577881259082902"><ele>143.0</ele><time>2026-04-04T13:47:34.999Z</time></trkpt><trkpt lat="39.737394901845796" lon="9.577863858268042"><ele>143.5</ele><time>2026-04-04T13:47:35.999Z</time></trkpt><trkpt lat="39.737161774296716" lon="9.577845052575356"><ele>144.0</ele><time>2026-04-04T13:47:36.999Z</time></trkpt><trkpt lat="39.736924260430925" lon="9.577829819834337"><ele>144.0</ele><time>2026-04-04T13:47:37.999Z</time></trkpt><trkpt lat="39.73668869878329" lon="9.577816103627248"><ele>144.0</ele><time>2026-04-04T13:47:38.999Z</time></trkpt><trkpt lat="39.736455782562864" lon="9.577805745648485"><ele>144.0</ele><time>2026-04-04T13:47:39.999Z</time></trkpt><trkpt lat="39.73622609559648" lon="9.577798953513192"><ele>144.0</ele><time>2026-04-04T13:47:40.999Z</time></trkpt><trkpt lat="39.73599491661079" lon="9.577793362369487"><ele>143.0</ele><time>2026-04-04T13:47:41.999Z</time></trkpt><trkpt lat="39.735768769301146" lon="9.577789812681166"><ele>142.0</ele><time>2026-04-04T13:47:42.999Z</time></trkpt><trkpt lat="39.735533122065135" lon="9.57778885749099"><ele>142.0</ele><time>2026-04-04T13:47:43.999Z</time></trkpt><trkpt lat="39.735301328224516" lon="9.577791935484717"><ele>142.0</ele><time>2026-04-04T13:47:44.999Z</time></trkpt><trkpt lat="39.73507145485349" lon="9.577801106585913"><ele>142.0</ele><time>2026-04-04T13:47:45.999Z</time></trkpt><trkpt lat="39.73483725670373" lon="9.57781260377043"><ele>142.0</ele><time>2026-04-04T13:47:46.999Z</time></trkpt><trkpt lat="39.734601670179046" lon="9.577826423971734"><ele>142.0</ele><time>2026-04-04T13:47:47.999Z</time></trkpt><trkpt lat="39.73435985026895" lon="9.577843647394962"><ele>142.0</ele><time>2026-04-04T13:47:48.999Z</time></trkpt><trkpt lat="39.73411645087211" lon="9.57786566035971"><ele>140.5</ele><time>2026-04-04T13:47:49.999Z</time></trkpt><trkpt lat="39.73386909767875" lon="9.577895564367255"><ele>139.0</ele><time>2026-04-04T13:47:50.999Z</time></trkpt><trkpt lat="39.733615408535265" lon="9.57793164058463"><ele>139.0</ele><time>2026-04-04T13:47:51.999Z</time></trkpt><trkpt lat="39.73336483093566" lon="9.577971440593949"><ele>139.0</ele><time>2026-04-04T13:47:52.999Z</time></trkpt><trkpt lat="39.73312087174479" lon="9.57801403822049"><ele>139.0</ele><time>2026-04-04T13:47:53.999Z</time></trkpt><trkpt lat="39.73287839074979" lon="9.578059777288228"><ele>139.0</ele><time>2026-04-04T13:47:54.999Z</time></trkpt><trkpt lat="39.73263705191347" lon="9.578111574881882"><ele>139.5</ele><time>2026-04-04T13:47:55.999Z</time></trkpt><trkpt lat="39.732391930710065" lon="9.57817043932711"><ele>140.0</ele><time>2026-04-04T13:47:56.999Z</time></trkpt><trkpt lat="39.73215006088464" lon="9.578233112078824"><ele>140.0</ele><time>2026-04-04T13:47:57.999Z</time></trkpt><trkpt lat="39.731905748896075" lon="9.578296916088497"><ele>140.0</ele><time>2026-04-04T13:47:59Z</time></trkpt><trkpt lat="39.7316608743104" lon="9.578341762132181"><ele>139.5</ele><time>2026-04-04T13:48:00Z</time></trkpt><trkpt lat="39.731439855039326" lon="9.578423698625773"><ele>139.0</ele><time>2026-04-04T13:48:01Z</time></trkpt><trkpt lat="39.73121854962778" lon="9.578484102559313"><ele>137.5</ele><time>2026-04-04T13:48:02Z</time></trkpt><trkpt lat="39.7309920871383" lon="9.578547794655451"><ele>136.0</ele><time>2026-04-04T13:48:03Z</time></trkpt><trkpt lat="39.73076834462432" lon="9.578610995511706"><ele>136.0</ele><time>2026-04-04T13:48:04Z</time></trkpt><trkpt lat="39.73054664757558" lon="9.578672672494811"><ele>136.0</ele><time>2026-04-04T13:48:05.001Z</time></trkpt><trkpt lat="39.73032757530273" lon="9.578734386063875"><ele>135.33333333333334</ele><time>2026-04-04T13:48:06.001Z</time></trkpt><trkpt lat="39.7301127837767" lon="9.578796274855197"><ele>134.66666666666666</ele><time>2026-04-04T13:48:07.001Z</time></trkpt><trkpt lat="39.72989596465611" lon="9.578858944579611"><ele>134.0</ele><time>2026-04-04T13:48:08.001Z</time></trkpt><trkpt lat="39.7296743706018" lon="9.578923727974562"><ele>134.0</ele><time>2026-04-04T13:48:09.001Z</time></trkpt><trkpt lat="39.72945527359871" lon="9.578987758389644"><ele>134.0</ele><time>2026-04-04T13:48:10.001Z</time></trkpt><trkpt lat="39.72924279051461" lon="9.579049766572743"><ele>134.0</ele><time>2026-04-04T13:48:11.001Z</time></trkpt><trkpt lat="39.729040034161336" lon="9.579109705936167"><ele>135.0</ele><time>2026-04-04T13:48:12.001Z</time></trkpt><trkpt lat="39.72883107050738" lon="9.579168408982962"><ele>136.0</ele><time>2026-04-04T13:48:13.001Z</time></trkpt><trkpt lat="39.72861384555697" lon="9.579227253513048"><ele>137.0</ele><time>2026-04-04T13:48:14.001Z</time></trkpt><trkpt lat="39.72839209988663" lon="9.579286587610055"><ele>138.5</ele><time>2026-04-04T13:48:15.001Z</time></trkpt><trkpt lat="39.728165517741125" lon="9.579346181149043"><ele>140.0</ele><time>2026-04-04T13:48:16.001Z</time></trkpt><trkpt lat="39.727930639280274" lon="9.579408575151186"><ele>139.5</ele><time>2026-04-04T13:48:17.001Z</time></trkpt><trkpt lat="39.72769881357717" lon="9.579474700302823"><ele>139.0</ele><time>2026-04-04T13:48:18.001Z</time></trkpt><trkpt lat="39.72747839591874" lon="9.579542047960114"><ele>137.0</ele><time>2026-04-04T13:48:19.001Z</time></trkpt><trkpt lat="39.72726202956082" lon="9.579613809495196"><ele>135.0</ele><time>2026-04-04T13:48:20.001Z</time></trkpt><trkpt lat="39.7270410064578" lon="9.5796910352439"><ele>135.0</ele><time>2026-04-04T13:48:21.001Z</time></trkpt><trkpt lat="39.72681264271359" lon="9.579771911152871"><ele>135.0</ele><time>2026-04-04T13:48:22.001Z</time></trkpt><trkpt lat="39.72658353561492" lon="9.579859812521363"><ele>135.0</ele><time>2026-04-04T13:48:23.001Z</time></trkpt><trkpt lat="39.72634450171861" lon="9.579952274705507"><ele>135.0</ele><time>2026-04-04T13:48:24.001Z</time></trkpt><trkpt lat="39.726106682668075" lon="9.580049567388375"><ele>135.5</ele><time>2026-04-04T13:48:25.001Z</time></trkpt><trkpt lat="39.725860464185295" lon="9.580152952542978"><ele>136.0</ele><time>2026-04-04T13:48:26.001Z</time></trkpt><trkpt lat="39.7256155668463" lon="9.580259345051527"><ele>135.0</ele><time>2026-04-04T13:48:27.001Z</time></trkpt><trkpt lat="39.72537309263093" lon="9.58036811109414"><ele>134.0</ele><time>2026-04-04T13:48:28.001Z</time></trkpt><trkpt lat="39.72512520167758" lon="9.580482107259973"><ele>133.0</ele><time>2026-04-04T13:48:29.001Z</time></trkpt><trkpt lat="39.724877355496815" lon="9.580598158191245"><ele>132.0</ele><time>2026-04-04T13:48:30.001Z</time></trkpt><trkpt lat="39.72462939730167" lon="9.580718799439913"><ele>131.0</ele><time>2026-04-04T13:48:31.001Z</time></trkpt><trkpt lat="39.7243800258835" lon="9.580837247007999"><ele>130.0</ele><time>2026-04-04T13:48:32.001Z</time></trkpt><trkpt lat="39.72413836804082" lon="9.580957195881757"><ele>130.0</ele><time>2026-04-04T13:48:33.001Z</time></trkpt><trkpt lat="39.723896012494215" lon="9.581072958351708"><ele>130.0</ele><time>2026-04-04T13:48:34.001Z</time></trkpt><trkpt lat="39.72365227243243" lon="9.581187656716219"><ele>129.0</ele><time>2026-04-04T13:48:35Z</time></trkpt><trkpt lat="39.72341307180434" lon="9.581292428498847"><ele>128.0</ele><time>2026-04-04T13:48:36Z</time></trkpt><trkpt lat="39.72318298607032" lon="9.5813775370532"><ele>128.0</ele><time>2026-04-04T13:48:37Z</time></trkpt><trkpt lat="39.722946447445906" lon="9.581446553292173"><ele>128.0</ele><time>2026-04-04T13:48:38Z</time></trkpt><trkpt lat="39.7227076748477" lon="9.581499635001947"><ele>128.0</ele><time>2026-04-04T13:48:39Z</time></trkpt><trkpt lat="39.722465838548025" lon="9.58153621493701"><ele>128.0</ele><time>2026-04-04T13:48:40Z</time></trkpt><trkpt lat="39.72222601011908" lon="9.581557715159555"><ele>128.0</ele><time>2026-04-04T13:48:41Z</time></trkpt><trkpt lat="39.721982874472545" lon="9.58157804091568"><ele>128.0</ele><time>2026-04-04T13:48:42Z</time></trkpt><trkpt lat="39.721742579668955" lon="9.58159851441405"><ele>128.0</ele><time>2026-04-04T13:48:43Z</time></trkpt><trkpt lat="39.72150082950013" lon="9.581620725660612"><ele>128.0</ele><time>2026-04-04T13:48:44Z</time></trkpt><trkpt lat="39.72126161953663" lon="9.58163930481709"><ele>127.0</ele><time>2026-04-04T13:48:45Z</time></trkpt><trkpt lat="39.72102047851659" lon="9.581659353969764"><ele>126.0</ele><time>2026-04-04T13:48:46Z</time></trkpt><trkpt lat="39.72079026573151" lon="9.5816855375867"><ele>126.0</ele><time>2026-04-04T13:48:47Z</time></trkpt><trkpt lat="39.720570612891585" lon="9.581720617972001"><ele>126.0</ele><time>2026-04-04T13:48:48Z</time></trkpt><trkpt lat="39.72034781011979" lon="9.581768088329161"><ele>126.0</ele><time>2026-04-04T13:48:49Z</time></trkpt><trkpt lat="39.72012155747493" lon="9.581836600828563"><ele>126.0</ele><time>2026-04-04T13:48:50Z</time></trkpt><trkpt lat="39.7198926237208" lon="9.581922972346446"><ele>126.0</ele><time>2026-04-04T13:48:51Z</time></trkpt><trkpt lat="39.719662940628304" lon="9.582030036772228"><ele>126.0</ele><time>2026-04-04T13:48:52Z</time></trkpt><trkpt lat="39.719430584935694" lon="9.582146577779765"><ele>126.0</ele><time>2026-04-04T13:48:53Z</time></trkpt><trkpt lat="39.719204590654634" lon="9.582277136843738"><ele>126.0</ele><time>2026-04-04T13:48:54Z</time></trkpt><trkpt lat="39.71898072013024" lon="9.582423401281035"><ele>126.0</ele><time>2026-04-04T13:48:55Z</time></trkpt><trkpt lat="39.71877361044471" lon="9.582584762027775"><ele>126.0</ele><time>2026-04-04T13:48:56Z</time></trkpt><trkpt lat="39.71858612286926" lon="9.582752173333006"><ele>126.0</ele><time>2026-04-04T13:48:57Z</time></trkpt><trkpt lat="39.71840413449058" lon="9.582929139999804"><ele>125.33333333333334</ele><time>2026-04-04T13:48:58Z</time></trkpt><trkpt lat="39.71823757170594" lon="9.583101257861628"><ele>124.66666666666667</ele><time>2026-04-04T13:48:59Z</time></trkpt><trkpt lat="39.71807788241589" lon="9.583261884359693"><ele>124.0</ele><time>2026-04-04T13:49:00Z</time></trkpt><trkpt lat="39.71792662109998" lon="9.583413113874503"><ele>124.0</ele><time>2026-04-04T13:49:01Z</time></trkpt><trkpt lat="39.7177800938508" lon="9.583557056143848"><ele>124.0</ele><time>2026-04-04T13:49:02Z</time></trkpt><trkpt lat="39.71762431067756" lon="9.58371034594905"><ele>124.0</ele><time>2026-04-04T13:49:03Z</time></trkpt><trkpt lat="39.7174586776377" lon="9.583878613966212"><ele>124.0</ele><time>2026-04-04T13:49:04Z</time></trkpt><trkpt lat="39.717285529718595" lon="9.584053374150173"><ele>124.0</ele><time>2026-04-04T13:49:05Z</time></trkpt><trkpt lat="39.71710181872756" lon="9.584235968013594"><ele>123.5</ele><time>2026-04-04T13:49:06Z</time></trkpt><trkpt lat="39.716898483389265" lon="9.584407967460308"><ele>123.0</ele><time>2026-04-04T13:49:07Z</time></trkpt><trkpt lat="39.716708111527616" lon="9.584618259998214"><ele>123.0</ele><time>2026-04-04T13:49:08Z</time></trkpt><trkpt lat="39.716504365194666" lon="9.584803394523059"><ele>123.0</ele><time>2026-04-04T13:49:09Z</time></trkpt><trkpt lat="39.71630302634457" lon="9.58498769935767"><ele>123.0</ele><time>2026-04-04T13:49:10Z</time></trkpt><trkpt lat="39.71610847896691" lon="9.585171936756701"><ele>123.0</ele><time>2026-04-04T13:49:11Z</time></trkpt><trkpt lat="39.71591939783609" lon="9.585350635177443"><ele>124.0</ele><time>2026-04-04T13:49:12Z</time></trkpt><trkpt lat="39.71572778736391" lon="9.585519111194424"><ele>125.0</ele><time>2026-04-04T13:49:13Z</time></trkpt><trkpt lat="39.71553849930098" lon="9.58566262749073"><ele>125.0</ele><time>2026-04-04T13:49:14Z</time></trkpt><trkpt lat="39.71534445803258" lon="9.585789611879495"><ele>125.0</ele><time>2026-04-04T13:49:15Z</time></trkpt><trkpt lat="39.715139706810305" lon="9.585907834127562"><ele>125.0</ele><time>2026-04-04T13:49:16Z</time></trkpt><trkpt lat="39.714933793215536" lon="9.586023034404752"><ele>124.5</ele><time>2026-04-04T13:49:17Z</time></trkpt><trkpt lat="39.714723861121186" lon="9.586136919462232"><ele>124.0</ele><time>2026-04-04T13:49:18Z</time></trkpt><trkpt lat="39.714505591986445" lon="9.586246479641076"><ele>125.0</ele><time>2026-04-04T13:49:19Z</time></trkpt><trkpt lat="39.71428178054493" lon="9.586344567779141"><ele>126.0</ele><time>2026-04-04T13:49:20Z</time></trkpt><trkpt lat="39.71405477621645" lon="9.586429903798196"><ele>126.0</ele><time>2026-04-04T13:49:21Z</time></trkpt><trkpt lat="39.713822420815426" lon="9.58650163552056"><ele>126.0</ele><time>2026-04-04T13:49:22Z</time></trkpt><trkpt lat="39.71358410702169" lon="9.586567425855584"><ele>125.5</ele><time>2026-04-04T13:49:23Z</time></trkpt><trkpt lat="39.71334139816952" lon="9.586622012341316"><ele>125.0</ele><time>2026-04-04T13:49:24Z</time></trkpt><trkpt lat="39.713096012034676" lon="9.586666727146886"><ele>125.0</ele><time>2026-04-04T13:49:25Z</time></trkpt><trkpt lat="39.71284753800877" lon="9.58669927167001"><ele>125.0</ele><time>2026-04-04T13:49:26Z</time></trkpt><trkpt lat="39.712601189411195" lon="9.586721434667144"><ele>125.0</ele><time>2026-04-04T13:49:27Z</time></trkpt><trkpt lat="39.7123516582512" lon="9.586729967647205"><ele>125.0</ele><time>2026-04-04T13:49:28Z</time></trkpt><trkpt lat="39.712104088887365" lon="9.586726993086472"><ele>125.5</ele><time>2026-04-04T13:49:29Z</time></trkpt><trkpt lat="39.711857832716305" lon="9.586724785216731"><ele>126.0</ele><time>2026-04-04T13:49:30Z</time></trkpt><trkpt lat="39.71160925501525" lon="9.586724755683"><ele>126.0</ele><time>2026-04-04T13:49:31Z</time></trkpt><trkpt lat="39.71135525059" lon="9.5867278261264"><ele>126.0</ele><time>2026-04-04T13:49:32Z</time></trkpt><trkpt lat="39.711096512603554" lon="9.586731846359745"><ele>125.0</ele><time>2026-04-04T13:49:33Z</time></trkpt><trkpt lat="39.710833287522945" lon="9.586735519591294"><ele>124.0</ele><time>2026-04-04T13:49:34Z</time></trkpt><trkpt lat="39.710562522515474" lon="9.58673750302137"><ele>124.0</ele><time>2026-04-04T13:49:35Z</time></trkpt><trkpt lat="39.710297340234455" lon="9.586742734772312"><ele>124.0</ele><time>2026-04-04T13:49:36Z</time></trkpt><trkpt lat="39.71004453629758" lon="9.58674287123877"><ele>123.0</ele><time>2026-04-04T13:49:37Z</time></trkpt><trkpt lat="39.70981295035983" lon="9.586745171953941"><ele>122.0</ele><time>2026-04-04T13:49:38Z</time></trkpt><trkpt lat="39.70957224065039" lon="9.58674926284803"><ele>120.0</ele><time>2026-04-04T13:49:39Z</time></trkpt><trkpt lat="39.70932742863822" lon="9.586751164662509"><ele>118.0</ele><time>2026-04-04T13:49:40Z</time></trkpt><trkpt lat="39.709087940732964" lon="9.586751199029884"><ele>118.0</ele><time>2026-04-04T13:49:41Z</time></trkpt><trkpt lat="39.70884436240838" lon="9.586752989728058"><ele>118.0</ele><time>2026-04-04T13:49:42Z</time></trkpt><trkpt lat="39.70860102579014" lon="9.586755389245305"><ele>117.5</ele><time>2026-04-04T13:49:43Z</time></trkpt><trkpt lat="39.7083556113656" lon="9.586757308623696"><ele>117.0</ele><time>2026-04-04T13:49:44Z</time></trkpt><trkpt lat="39.70811179693038" lon="9.586759502296227"><ele>117.0</ele><time>2026-04-04T13:49:45Z</time></trkpt><trkpt lat="39.707866624270736" lon="9.586760963662039"><ele>117.0</ele><time>2026-04-04T13:49:46Z</time></trkpt><trkpt lat="39.70761922155085" lon="9.586763445038399"><ele>117.5</ele><time>2026-04-04T13:49:47Z</time></trkpt><trkpt lat="39.707373008109776" lon="9.586767961309846"><ele>118.0</ele><time>2026-04-04T13:49:48Z</time></trkpt><trkpt lat="39.7071248731591" lon="9.58677403274294"><ele>118.5</ele><time>2026-04-04T13:49:49Z</time></trkpt><trkpt lat="39.70687403675491" lon="9.586778343619216"><ele>119.0</ele><time>2026-04-04T13:49:50Z</time></trkpt><trkpt lat="39.70661962349164" lon="9.586781594597085"><ele>119.0</ele><time>2026-04-04T13:49:51Z</time></trkpt><trkpt lat="39.706365113688335" lon="9.586782652383485"><ele>119.0</ele><time>2026-04-04T13:49:52Z</time></trkpt><trkpt lat="39.706109629429584" lon="9.586782957160102"><ele>121.0</ele><time>2026-04-04T13:49:53Z</time></trkpt><trkpt lat="39.705853121995865" lon="9.586785600692028"><ele>123.0</ele><time>2026-04-04T13:49:54Z</time></trkpt><trkpt lat="39.70559008697397" lon="9.586788849477516"><ele>123.0</ele><time>2026-04-04T13:49:55Z</time></trkpt><trkpt lat="39.7053276112787" lon="9.586795680839476"><ele>123.0</ele><time>2026-04-04T13:49:56Z</time></trkpt><trkpt lat="39.70506684417112" lon="9.586800457867152"><ele>121.5</ele><time>2026-04-04T13:49:57Z</time></trkpt><trkpt lat="39.70480306249993" lon="9.586806371574387"><ele>120.0</ele><time>2026-04-04T13:49:58Z</time></trkpt><trkpt lat="39.704539778239706" lon="9.586808938098095"><ele>119.0</ele><time>2026-04-04T13:49:59Z</time></trkpt><trkpt lat="39.70428521432709" lon="9.586807219478327"><ele>118.0</ele><time>2026-04-04T13:50:00Z</time></trkpt><trkpt lat="39.70402836852833" lon="9.586806979776048"><ele>118.0</ele><time>2026-04-04T13:50:01Z</time></trkpt><trkpt lat="39.70377030011768" lon="9.58681049822808"><ele>118.0</ele><time>2026-04-04T13:50:02Z</time></trkpt><trkpt lat="39.703511564387476" lon="9.58681783561611"><ele>117.5</ele><time>2026-04-04T13:50:03Z</time></trkpt><trkpt lat="39.70325286038331" lon="9.586826535297641"><ele>117.0</ele><time>2026-04-04T13:50:04Z</time></trkpt><trkpt lat="39.70299436717297" lon="9.586833719385263"><ele>116.0</ele><time>2026-04-04T13:50:05Z</time></trkpt><trkpt lat="39.7027371203658" lon="9.586834500519627"><ele>115.0</ele><time>2026-04-04T13:50:06Z</time></trkpt><trkpt lat="39.702478847451765" lon="9.58683452315224"><ele>115.0</ele><time>2026-04-04T13:50:07Z</time></trkpt><trkpt lat="39.70221942109319" lon="9.586832540651582"><ele>115.0</ele><time>2026-04-04T13:50:08Z</time></trkpt><trkpt lat="39.701959450678544" lon="9.58683106928407"><ele>113.0</ele><time>2026-04-04T13:50:09Z</time></trkpt><trkpt lat="39.70169753838097" lon="9.586835527211637"><ele>111.0</ele><time>2026-04-04T13:50:10Z</time></trkpt><trkpt lat="39.70143446733066" lon="9.58684258244053"><ele>111.0</ele><time>2026-04-04T13:50:11.001Z</time></trkpt><trkpt lat="39.701174169825315" lon="9.586851201747107"><ele>111.0</ele><time>2026-04-04T13:50:12.001Z</time></trkpt><trkpt lat="39.700905968045504" lon="9.586861511251321"><ele>114.0</ele><time>2026-04-04T13:50:13.001Z</time></trkpt><trkpt lat="39.70064248255047" lon="9.586864657577577"><ele>117.0</ele><time>2026-04-04T13:50:14.001Z</time></trkpt><trkpt lat="39.70038641962524" lon="9.58686717587465"><ele>118.5</ele><time>2026-04-04T13:50:15Z</time></trkpt><trkpt lat="39.70014250957532" lon="9.586867515372195"><ele>120.0</ele><time>2026-04-04T13:50:16Z</time></trkpt><trkpt lat="39.69989914429571" lon="9.586867407735076"><ele>120.0</ele><time>2026-04-04T13:50:17Z</time></trkpt><trkpt lat="39.69965322760485" lon="9.586867642493834"><ele>120.0</ele><time>2026-04-04T13:50:18Z</time></trkpt><trkpt lat="39.69940309684867" lon="9.586869744534594"><ele>119.5</ele><time>2026-04-04T13:50:19Z</time></trkpt><trkpt lat="39.69915071780955" lon="9.586876700280115"><ele>119.0</ele><time>2026-04-04T13:50:20Z</time></trkpt><trkpt lat="39.698910147101074" lon="9.5868784281058"><ele>119.0</ele><time>2026-04-04T13:50:21Z</time></trkpt><trkpt lat="39.698681401806404" lon="9.586882479160067"><ele>119.0</ele><time>2026-04-04T13:50:22Z</time></trkpt><trkpt lat="39.698451989109316" lon="9.586891308522265"><ele>119.0</ele><time>2026-04-04T13:50:23Z</time></trkpt><trkpt lat="39.69823649962069" lon="9.586892545410405"><ele>119.0</ele><time>2026-04-04T13:50:24Z</time></trkpt><trkpt lat="39.698026107867484" lon="9.586891715442881"><ele>119.0</ele><time>2026-04-04T13:50:25Z</time></trkpt><trkpt lat="39.697808101569485" lon="9.586890886339983"><ele>119.0</ele><time>2026-04-04T13:50:26Z</time></trkpt><trkpt lat="39.697574122273615" lon="9.58689104574079"><ele>119.0</ele><time>2026-04-04T13:50:27Z</time></trkpt><trkpt lat="39.69734143097666" lon="9.586889787505035"><ele>119.0</ele><time>2026-04-04T13:50:28Z</time></trkpt><trkpt lat="39.697103983539236" lon="9.586897097210464"><ele>119.0</ele><time>2026-04-04T13:50:29Z</time></trkpt><trkpt lat="39.69686062706482" lon="9.58691030801796"><ele>118.5</ele><time>2026-04-04T13:50:30Z</time></trkpt><trkpt lat="39.69661489635886" lon="9.58693103444233"><ele>118.0</ele><time>2026-04-04T13:50:31Z</time></trkpt><trkpt lat="39.69636773811033" lon="9.586960877112599"><ele>118.0</ele><time>2026-04-04T13:50:32Z</time></trkpt><trkpt lat="39.69612189049262" lon="9.586995417441072"><ele>118.0</ele><time>2026-04-04T13:50:33Z</time></trkpt><trkpt lat="39.69587451607244" lon="9.587037749055487"><ele>122.5</ele><time>2026-04-04T13:50:34Z</time></trkpt><trkpt lat="39.695627812149766" lon="9.587077509616071"><ele>127.0</ele><time>2026-04-04T13:50:35Z</time></trkpt><trkpt lat="39.6953762432054" lon="9.587110438492356"><ele>122.5</ele><time>2026-04-04T13:50:36Z</time></trkpt><trkpt lat="39.695127394808246" lon="9.587140371674744"><ele>118.0</ele><time>2026-04-04T13:50:37Z</time></trkpt><trkpt lat="39.69487896170295" lon="9.587168295065014"><ele>118.0</ele><time>2026-04-04T13:50:38Z</time></trkpt><trkpt lat="39.69463207998119" lon="9.587199711233467"><ele>118.0</ele><time>2026-04-04T13:50:39Z</time></trkpt><trkpt lat="39.69438940854829" lon="9.587231924398989"><ele>115.5</ele><time>2026-04-04T13:50:40Z</time></trkpt><trkpt lat="39.69414596408702" lon="9.58726617537111"><ele>113.0</ele><time>2026-04-04T13:50:41Z</time></trkpt><trkpt lat="39.69390744461246" lon="9.587301456891105"><ele>113.0</ele><time>2026-04-04T13:50:42Z</time></trkpt><trkpt lat="39.69367946275032" lon="9.587335178827933"><ele>113.0</ele><time>2026-04-04T13:50:43Z</time></trkpt><trkpt lat="39.693452960746114" lon="9.587370438851451"><ele>112.5</ele><time>2026-04-04T13:50:44Z</time></trkpt><trkpt lat="39.69322171210638" lon="9.58740350619983"><ele>112.0</ele><time>2026-04-04T13:50:45Z</time></trkpt><trkpt lat="39.69299292181968" lon="9.587433761653678"><ele>112.0</ele><time>2026-04-04T13:50:46Z</time></trkpt><trkpt lat="39.69275713737394" lon="9.587465111500391"><ele>112.0</ele><time>2026-04-04T13:50:47Z</time></trkpt><trkpt lat="39.69251824706315" lon="9.58750075011171"><ele>112.5</ele><time>2026-04-04T13:50:48Z</time></trkpt><trkpt lat="39.69227601043061" lon="9.587537330678458"><ele>113.0</ele><time>2026-04-04T13:50:49Z</time></trkpt><trkpt lat="39.69203622685426" lon="9.587573974341032"><ele>111.5</ele><time>2026-04-04T13:50:50Z</time></trkpt><trkpt lat="39.69179077007463" lon="9.587608159513172"><ele>110.0</ele><time>2026-04-04T13:50:51Z</time></trkpt><trkpt lat="39.69154934715879" lon="9.587641506836809"><ele>110.0</ele><time>2026-04-04T13:50:52Z</time></trkpt><trkpt lat="39.691298015729764" lon="9.587679639683062"><ele>110.0</ele><time>2026-04-04T13:50:53Z</time></trkpt><trkpt lat="39.691047088723714" lon="9.587716652214354"><ele>106.5</ele><time>2026-04-04T13:50:54Z</time></trkpt><trkpt lat="39.690797849285914" lon="9.587752328542281"><ele>103.0</ele><time>2026-04-04T13:50:55Z</time></trkpt><trkpt lat="39.69055268597024" lon="9.587786915363298"><ele>103.0</ele><time>2026-04-04T13:50:56Z</time></trkpt><trkpt lat="39.69030793018046" lon="9.587822495436004"><ele>103.0</ele><time>2026-04-04T13:50:57Z</time></trkpt><trkpt lat="39.690061938986574" lon="9.587858050765227"><ele>101.5</ele><time>2026-04-04T13:50:58Z</time></trkpt><trkpt lat="39.689817295012936" lon="9.587894220256475"><ele>100.0</ele><time>2026-04-04T13:50:59Z</time></trkpt><trkpt lat="39.689585216187496" lon="9.587929014996444"><ele>100.5</ele><time>2026-04-04T13:51:00Z</time></trkpt><trkpt lat="39.68936301200767" lon="9.587962436280247"><ele>101.0</ele><time>2026-04-04T13:51:01Z</time></trkpt><trkpt lat="39.68913271835014" lon="9.587994172535215"><ele>101.0</ele><time>2026-04-04T13:51:02Z</time></trkpt><trkpt lat="39.688910258382734" lon="9.588025679384147"><ele>101.0</ele><time>2026-04-04T13:51:03Z</time></trkpt><trkpt lat="39.68868254928308" lon="9.588055849500385"><ele>106.0</ele><time>2026-04-04T13:51:04Z</time></trkpt><trkpt lat="39.688454404613026" lon="9.588078797841705"><ele>111.0</ele><time>2026-04-04T13:51:05Z</time></trkpt><trkpt lat="39.68821888482458" lon="9.588080457391488"><ele>111.0</ele><time>2026-04-04T13:51:06Z</time></trkpt><trkpt lat="39.68798114349218" lon="9.588071161624699"><ele>111.0</ele><time>2026-04-04T13:51:07Z</time></trkpt><trkpt lat="39.68774068629793" lon="9.588055372183899"><ele>112.5</ele><time>2026-04-04T13:51:08Z</time></trkpt><trkpt lat="39.687496039246454" lon="9.588030682989094"><ele>114.0</ele><time>2026-04-04T13:51:09Z</time></trkpt><trkpt lat="39.6872532727576" lon="9.588003958349434"><ele>114.0</ele><time>2026-04-04T13:51:10Z</time></trkpt><trkpt lat="39.68700676474231" lon="9.587972019359984"><ele>114.0</ele><time>2026-04-04T13:51:11Z</time></trkpt><trkpt lat="39.686754413271416" lon="9.587932457273784"><ele>115.5</ele><time>2026-04-04T13:51:12Z</time></trkpt><trkpt lat="39.68650002347573" lon="9.58787857829485"><ele>117.0</ele><time>2026-04-04T13:51:13Z</time></trkpt><trkpt lat="39.68625299049929" lon="9.58781286654371"><ele>113.0</ele><time>2026-04-04T13:51:14Z</time></trkpt><trkpt lat="39.686005343601636" lon="9.587733627288632"><ele>109.0</ele><time>2026-04-04T13:51:15Z</time></trkpt><trkpt lat="39.685756775859986" lon="9.587645182342975"><ele>109.0</ele><time>2026-04-04T13:51:16Z</time></trkpt><trkpt lat="39.6855104310046" lon="9.58755304359096"><ele>109.0</ele><time>2026-04-04T13:51:17Z</time></trkpt><trkpt lat="39.68526310415374" lon="9.587448140961893"><ele>108.5</ele><time>2026-04-04T13:51:18Z</time></trkpt><trkpt lat="39.68501782078154" lon="9.587336524858713"><ele>108.0</ele><time>2026-04-04T13:51:19Z</time></trkpt><trkpt lat="39.684772696178214" lon="9.587217780093741"><ele>108.0</ele><time>2026-04-04T13:51:20Z</time></trkpt><trkpt lat="39.68453582786077" lon="9.587088598374983"><ele>108.0</ele><time>2026-04-04T13:51:21Z</time></trkpt><trkpt lat="39.68431276534842" lon="9.586957092528726"><ele>106.5</ele><time>2026-04-04T13:51:22Z</time></trkpt><trkpt lat="39.6840960858491" lon="9.586823715664533"><ele>105.0</ele><time>2026-04-04T13:51:23Z</time></trkpt><trkpt lat="39.68388217882265" lon="9.586681508004238"><ele>105.0</ele><time>2026-04-04T13:51:24Z</time></trkpt><trkpt lat="39.68366686421498" lon="9.58652315855946"><ele>105.0</ele><time>2026-04-04T13:51:25Z</time></trkpt><trkpt lat="39.68344986173927" lon="9.586351305236757"><ele>103.5</ele><time>2026-04-04T13:51:26Z</time></trkpt><trkpt lat="39.68323856248441" lon="9.586176323859513"><ele>102.0</ele><time>2026-04-04T13:51:27Z</time></trkpt><trkpt lat="39.683037153390764" lon="9.585999748549261"><ele>102.0</ele><time>2026-04-04T13:51:28Z</time></trkpt><trkpt lat="39.68283992211273" lon="9.585817030175596"><ele>102.0</ele><time>2026-04-04T13:51:29Z</time></trkpt><trkpt lat="39.682642021753345" lon="9.585627070752816"><ele>100.0</ele><time>2026-04-04T13:51:30Z</time></trkpt><trkpt lat="39.68245079637127" lon="9.585429805312604"><ele>98.0</ele><time>2026-04-04T13:51:31Z</time></trkpt><trkpt lat="39.68225876971562" lon="9.585224083171068"><ele>96.5</ele><time>2026-04-04T13:51:32Z</time></trkpt><trkpt lat="39.682069544314764" lon="9.585017636153525"><ele>95.0</ele><time>2026-04-04T13:51:33Z</time></trkpt><trkpt lat="39.681876317295014" lon="9.584808516417487"><ele>95.0</ele><time>2026-04-04T13:51:34Z</time></trkpt><trkpt lat="39.68168640561145" lon="9.584604357340979"><ele>95.0</ele><time>2026-04-04T13:51:35Z</time></trkpt><trkpt lat="39.68149572161924" lon="9.584398875382533"><ele>94.0</ele><time>2026-04-04T13:51:36Z</time></trkpt><trkpt lat="39.68130354404644" lon="9.584190962851258"><ele>93.0</ele><time>2026-04-04T13:51:37Z</time></trkpt><trkpt lat="39.681115754086946" lon="9.583986723964903"><ele>93.0</ele><time>2026-04-04T13:51:38Z</time></trkpt><trkpt lat="39.6809267072439" lon="9.583777910602846"><ele>93.0</ele><time>2026-04-04T13:51:39Z</time></trkpt><trkpt lat="39.68073727285599" lon="9.583569916969422"><ele>93.0</ele><time>2026-04-04T13:51:40Z</time></trkpt><trkpt lat="39.68055498292014" lon="9.583371949634946"><ele>93.0</ele><time>2026-04-04T13:51:41Z</time></trkpt><trkpt lat="39.680383904324216" lon="9.583180318955815"><ele>92.66666666666667</ele><time>2026-04-04T13:51:42Z</time></trkpt><trkpt lat="39.68021608260534" lon="9.582992427451337"><ele>92.33333333333334</ele><time>2026-04-04T13:51:43Z</time></trkpt><trkpt lat="39.68004194186116" lon="9.582804134004247"><ele>92.0</ele><time>2026-04-04T13:51:44Z</time></trkpt><trkpt lat="39.67986471292824" lon="9.582612043331013"><ele>92.0</ele><time>2026-04-04T13:51:45Z</time></trkpt><trkpt lat="39.679687785959125" lon="9.582418711936608"><ele>92.0</ele><time>2026-04-04T13:51:46Z</time></trkpt><trkpt lat="39.679508303195604" lon="9.582219126285924"><ele>92.5</ele><time>2026-04-04T13:51:47Z</time></trkpt><trkpt lat="39.679331668415436" lon="9.582020227620932"><ele>93.0</ele><time>2026-04-04T13:51:48Z</time></trkpt><trkpt lat="39.67914875328692" lon="9.581820808071008"><ele>93.0</ele><time>2026-04-04T13:51:49Z</time></trkpt><trkpt lat="39.67896464502028" lon="9.581620718035287"><ele>93.0</ele><time>2026-04-04T13:51:50Z</time></trkpt><trkpt lat="39.67877705673911" lon="9.581419910174967"><ele>93.0</ele><time>2026-04-04T13:51:51Z</time></trkpt><trkpt lat="39.67859041345571" lon="9.581218709295324"><ele>93.0</ele><time>2026-04-04T13:51:52Z</time></trkpt><trkpt lat="39.678405214289256" lon="9.581015374636541"><ele>93.0</ele><time>2026-04-04T13:51:53Z</time></trkpt><trkpt lat="39.67822245696685" lon="9.580809753935636"><ele>93.0</ele><time>2026-04-04T13:51:54Z</time></trkpt><trkpt lat="39.67804029613818" lon="9.58060602261252"><ele>93.0</ele><time>2026-04-04T13:51:55Z</time></trkpt><trkpt lat="39.67785803236096" lon="9.580401753687191"><ele>93.0</ele><time>2026-04-04T13:51:56Z</time></trkpt><trkpt lat="39.67767711759214" lon="9.580200083788018"><ele>93.0</ele><time>2026-04-04T13:51:57Z</time></trkpt><trkpt lat="39.67749202480641" lon="9.579997220824023"><ele>93.0</ele><time>2026-04-04T13:51:58Z</time></trkpt><trkpt lat="39.67731116917121" lon="9.57979763194912"><ele>93.0</ele><time>2026-04-04T13:51:59Z</time></trkpt><trkpt lat="39.677132713601644" lon="9.579598114154727"><ele>93.0</ele><time>2026-04-04T13:52:00Z</time></trkpt><trkpt lat="39.676950795302425" lon="9.579399382764596"><ele>95.0</ele><time>2026-04-04T13:52:01Z</time></trkpt><trkpt lat="39.67676900310983" lon="9.579200221211627"><ele>97.0</ele><time>2026-04-04T13:52:02Z</time></trkpt><trkpt lat="39.67658873585589" lon="9.579000289608985"><ele>97.0</ele><time>2026-04-04T13:52:03Z</time></trkpt><trkpt lat="39.676404915264165" lon="9.578787456787024"><ele>97.0</ele><time>2026-04-04T13:52:04Z</time></trkpt><trkpt lat="39.676218302413226" lon="9.578584679321139"><ele>97.5</ele><time>2026-04-04T13:52:05Z</time></trkpt><trkpt lat="39.67602526143811" lon="9.578369671424822"><ele>98.0</ele><time>2026-04-04T13:52:06Z</time></trkpt><trkpt lat="39.675829381455124" lon="9.57815680613178"><ele>98.0</ele><time>2026-04-04T13:52:07Z</time></trkpt><trkpt lat="39.675634404951644" lon="9.577942972976414"><ele>98.0</ele><time>2026-04-04T13:52:08Z</time></trkpt><trkpt lat="39.67543552635969" lon="9.577733516958672"><ele>97.5</ele><time>2026-04-04T13:52:09Z</time></trkpt><trkpt lat="39.67523611585974" lon="9.577519602812954"><ele>97.0</ele><time>2026-04-04T13:52:10Z</time></trkpt><trkpt lat="39.67503639868449" lon="9.57731189984964"><ele>97.0</ele><time>2026-04-04T13:52:11Z</time></trkpt><trkpt lat="39.67483463010699" lon="9.57710886840879"><ele>97.0</ele><time>2026-04-04T13:52:12Z</time></trkpt><trkpt lat="39.674630916592925" lon="9.576916253643192"><ele>98.0</ele><time>2026-04-04T13:52:13Z</time></trkpt><trkpt lat="39.67442174214411" lon="9.576734637855694"><ele>99.0</ele><time>2026-04-04T13:52:14Z</time></trkpt><trkpt lat="39.67420719738671" lon="9.576560373305766"><ele>99.0</ele><time>2026-04-04T13:52:15Z</time></trkpt><trkpt lat="39.67399695015719" lon="9.57639870151965"><ele>99.0</ele><time>2026-04-04T13:52:16Z</time></trkpt><trkpt lat="39.67379157975851" lon="9.576251387251299"><ele>104.0</ele><time>2026-04-04T13:52:17Z</time></trkpt><trkpt lat="39.673584215129225" lon="9.576115080060454"><ele>109.0</ele><time>2026-04-04T13:52:18Z</time></trkpt><trkpt lat="39.67337628276236" lon="9.575988031262483"><ele>109.0</ele><time>2026-04-04T13:52:19Z</time></trkpt><trkpt lat="39.67316746727271" lon="9.575874086969122"><ele>109.0</ele><time>2026-04-04T13:52:20Z</time></trkpt><trkpt lat="39.672952573973376" lon="9.57576943385021"><ele>108.5</ele><time>2026-04-04T13:52:21Z</time></trkpt><trkpt lat="39.67273714992802" lon="9.575674043280811"><ele>108.0</ele><time>2026-04-04T13:52:22Z</time></trkpt><trkpt lat="39.67251599898791" lon="9.575584798669045"><ele>108.0</ele><time>2026-04-04T13:52:23Z</time></trkpt><trkpt lat="39.67228683295776" lon="9.575503053305507"><ele>108.0</ele><time>2026-04-04T13:52:24Z</time></trkpt><trkpt lat="39.67205563581454" lon="9.575435431740146"><ele>108.0</ele><time>2026-04-04T13:52:25Z</time></trkpt><trkpt lat="39.671815549414305" lon="9.575385199206307"><ele>108.0</ele><time>2026-04-04T13:52:26Z</time></trkpt><trkpt lat="39.67157275204202" lon="9.575351852413208"><ele>111.0</ele><time>2026-04-04T13:52:27Z</time></trkpt><trkpt lat="39.6713226359774" lon="9.575330510159718"><ele>114.0</ele><time>2026-04-04T13:52:28Z</time></trkpt><trkpt lat="39.67106948360401" lon="9.575319968757274"><ele>114.0</ele><time>2026-04-04T13:52:29Z</time></trkpt><trkpt lat="39.67081317234965" lon="9.575329647220135"><ele>114.0</ele><time>2026-04-04T13:52:30Z</time></trkpt><trkpt lat="39.67055586166702" lon="9.575350518250202"><ele>112.5</ele><time>2026-04-04T13:52:31Z</time></trkpt><trkpt lat="39.670294475802656" lon="9.575387582457603"><ele>111.0</ele><time>2026-04-04T13:52:32Z</time></trkpt><trkpt lat="39.67002797645263" lon="9.575440867007872"><ele>111.0</ele><time>2026-04-04T13:52:33Z</time></trkpt><trkpt lat="39.669765702727545" lon="9.575512296086105"><ele>111.0</ele><time>2026-04-04T13:52:34Z</time></trkpt><trkpt lat="39.669503751571426" lon="9.575595269212535"><ele>111.0</ele><time>2026-04-04T13:52:35Z</time></trkpt><trkpt lat="39.66923455011686" lon="9.575684419434133"><ele>111.0</ele><time>2026-04-04T13:52:36Z</time></trkpt><trkpt lat="39.66896723693264" lon="9.57577524230447"><ele>111.0</ele><time>2026-04-04T13:52:37Z</time></trkpt><trkpt lat="39.66869963126592" lon="9.575865062969493"><ele>111.0</ele><time>2026-04-04T13:52:38Z</time></trkpt><trkpt lat="39.66842656892272" lon="9.575956666555085"><ele>108.0</ele><time>2026-04-04T13:52:39Z</time></trkpt><trkpt lat="39.66815077426378" lon="9.576048758124276"><ele>105.0</ele><time>2026-04-04T13:52:40Z</time></trkpt><trkpt lat="39.66787338836867" lon="9.57614249407548"><ele>101.0</ele><time>2026-04-04T13:52:41Z</time></trkpt><trkpt lat="39.66760423323658" lon="9.576235131069273"><ele>97.0</ele><time>2026-04-04T13:52:42Z</time></trkpt><trkpt lat="39.66735269409356" lon="9.576322307407645"><ele>97.0</ele><time>2026-04-04T13:52:43Z</time></trkpt><trkpt lat="39.66711029177715" lon="9.576404418226792"><ele>97.0</ele><time>2026-04-04T13:52:44Z</time></trkpt><trkpt lat="39.6668750805971" lon="9.57648271016207"><ele>99.5</ele><time>2026-04-04T13:52:45Z</time></trkpt><trkpt lat="39.666642385221145" lon="9.576561921125073"><ele>102.0</ele><time>2026-04-04T13:52:46Z</time></trkpt><trkpt lat="39.666423431150676" lon="9.576638786060885"><ele>102.0</ele><time>2026-04-04T13:52:47Z</time></trkpt><trkpt lat="39.6662101671928" lon="9.576714427373203"><ele>102.0</ele><time>2026-04-04T13:52:48Z</time></trkpt><trkpt lat="39.66599634106348" lon="9.576789487605843"><ele>102.0</ele><time>2026-04-04T13:52:49Z</time></trkpt><trkpt lat="39.66577371091505" lon="9.576866427516045"><ele>100.5</ele><time>2026-04-04T13:52:50Z</time></trkpt><trkpt lat="39.66554158125506" lon="9.57694683565842"><ele>99.0</ele><time>2026-04-04T13:52:51Z</time></trkpt><trkpt lat="39.6653252059915" lon="9.577020677511824"><ele>97.0</ele><time>2026-04-04T13:52:52Z</time></trkpt><trkpt lat="39.66511533963705" lon="9.57708638048992"><ele>95.0</ele><time>2026-04-04T13:52:53Z</time></trkpt><trkpt lat="39.66490326615882" lon="9.57714716898395"><ele>93.0</ele><time>2026-04-04T13:52:54Z</time></trkpt><trkpt lat="39.66468393343261" lon="9.577207440823912"><ele>93.0</ele><time>2026-04-04T13:52:55Z</time></trkpt><trkpt lat="39.66445756617266" lon="9.577262209352073"><ele>93.0</ele><time>2026-04-04T13:52:56Z</time></trkpt><trkpt lat="39.664227789538444" lon="9.577309646045537"><ele>92.5</ele><time>2026-04-04T13:52:57Z</time></trkpt><trkpt lat="39.66399450495837" lon="9.577352397482668"><ele>92.0</ele><time>2026-04-04T13:52:58Z</time></trkpt><trkpt lat="39.66375975107514" lon="9.577384497005493"><ele>90.0</ele><time>2026-04-04T13:52:59Z</time></trkpt><trkpt lat="39.66352366782055" lon="9.577408931535315"><ele>88.0</ele><time>2026-04-04T13:53:00Z</time></trkpt><trkpt lat="39.66328661133304" lon="9.577424492591502"><ele>88.0</ele><time>2026-04-04T13:53:01Z</time></trkpt><trkpt lat="39.6630461383312" lon="9.577433424739752"><ele>88.0</ele><time>2026-04-04T13:53:02Z</time></trkpt><trkpt lat="39.662805793134666" lon="9.577430243533048"><ele>87.5</ele><time>2026-04-04T13:53:03Z</time></trkpt><trkpt lat="39.66256544911517" lon="9.577421570989527"><ele>87.0</ele><time>2026-04-04T13:53:04Z</time></trkpt><trkpt lat="39.66232497396062" lon="9.577403562385364"><ele>87.0</ele><time>2026-04-04T13:53:05Z</time></trkpt><trkpt lat="39.662085645617076" lon="9.57736832446798"><ele>87.0</ele><time>2026-04-04T13:53:06Z</time></trkpt><trkpt lat="39.661846649723024" lon="9.577322506293912"><ele>87.0</ele><time>2026-04-04T13:53:07Z</time></trkpt><trkpt lat="39.66161084179924" lon="9.577269601839266"><ele>87.0</ele><time>2026-04-04T13:53:08Z</time></trkpt><trkpt lat="39.66137462663384" lon="9.577211221497333"><ele>87.0</ele><time>2026-04-04T13:53:09Z</time></trkpt><trkpt lat="39.66113943546254" lon="9.577160281795082"><ele>87.0</ele><time>2026-04-04T13:53:10Z</time></trkpt><trkpt lat="39.660903540318934" lon="9.577121237553056"><ele>87.5</ele><time>2026-04-04T13:53:11Z</time></trkpt><trkpt lat="39.660666146538134" lon="9.577096915950577"><ele>88.0</ele><time>2026-04-04T13:53:12Z</time></trkpt><trkpt lat="39.660430150328295" lon="9.577089277263886"><ele>89.0</ele><time>2026-04-04T13:53:13Z</time></trkpt><trkpt lat="39.66019078632698" lon="9.57709708118675"><ele>90.0</ele><time>2026-04-04T13:53:14Z</time></trkpt><trkpt lat="39.65995370507559" lon="9.577120330253537"><ele>90.0</ele><time>2026-04-04T13:53:15Z</time></trkpt><trkpt lat="39.659712023580404" lon="9.577168179202623"><ele>90.0</ele><time>2026-04-04T13:53:16Z</time></trkpt><trkpt lat="39.659461037437865" lon="9.577233736945463"><ele>87.5</ele><time>2026-04-04T13:53:17Z</time></trkpt><trkpt lat="39.65919700329439" lon="9.577322153437484"><ele>85.0</ele><time>2026-04-04T13:53:18Z</time></trkpt><trkpt lat="39.65893394246346" lon="9.57741528405334"><ele>85.0</ele><time>2026-04-04T13:53:19Z</time></trkpt><trkpt lat="39.65868692298438" lon="9.577506009166491"><ele>85.0</ele><time>2026-04-04T13:53:20Z</time></trkpt><trkpt lat="39.658448241905404" lon="9.5775953835476"><ele>92.5</ele><time>2026-04-04T13:53:21Z</time></trkpt><trkpt lat="39.65820835080887" lon="9.577690151671769"><ele>100.0</ele><time>2026-04-04T13:53:22Z</time></trkpt><trkpt lat="39.65795837059097" lon="9.577790925484697"><ele>93.5</ele><time>2026-04-04T13:53:23Z</time></trkpt><trkpt lat="39.657707967733764" lon="9.57786659716075"><ele>87.0</ele><time>2026-04-04T13:53:24Z</time></trkpt><trkpt lat="39.65747490900084" lon="9.577950070799359"><ele>87.0</ele><time>2026-04-04T13:53:25Z</time></trkpt><trkpt lat="39.65724757798116" lon="9.578053838322713"><ele>87.0</ele><time>2026-04-04T13:53:26Z</time></trkpt><trkpt lat="39.65701054665091" lon="9.578127835358833"><ele>84.5</ele><time>2026-04-04T13:53:27Z</time></trkpt><trkpt lat="39.656771051694804" lon="9.578193783996742"><ele>82.0</ele><time>2026-04-04T13:53:28Z</time></trkpt><trkpt lat="39.6565315162783" lon="9.578278301146097"><ele>82.0</ele><time>2026-04-04T13:53:29Z</time></trkpt><trkpt lat="39.65628058942308" lon="9.578311231880159"><ele>82.0</ele><time>2026-04-04T13:53:30Z</time></trkpt><trkpt lat="39.6560281537805" lon="9.578354360314751"><ele>85.5</ele><time>2026-04-04T13:53:31Z</time></trkpt><trkpt lat="39.65577704174859" lon="9.578389742624259"><ele>89.0</ele><time>2026-04-04T13:53:32Z</time></trkpt><trkpt lat="39.65552129424975" lon="9.578413210452805"><ele>86.5</ele><time>2026-04-04T13:53:33Z</time></trkpt><trkpt lat="39.65526333730815" lon="9.578426346881066"><ele>84.0</ele><time>2026-04-04T13:53:34Z</time></trkpt><trkpt lat="39.65500110327223" lon="9.578430916312287"><ele>84.0</ele><time>2026-04-04T13:53:35Z</time></trkpt><trkpt lat="39.65473718413436" lon="9.57842463338163"><ele>84.0</ele><time>2026-04-04T13:53:36Z</time></trkpt><trkpt lat="39.65447754645858" lon="9.578408624364876"><ele>86.5</ele><time>2026-04-04T13:53:37Z</time></trkpt><trkpt lat="39.65422599807577" lon="9.578385720986683"><ele>89.0</ele><time>2026-04-04T13:53:38Z</time></trkpt><trkpt lat="39.65398143688035" lon="9.578357143293555"><ele>89.0</ele><time>2026-04-04T13:53:39Z</time></trkpt><trkpt lat="39.65374483449037" lon="9.57832771930505"><ele>89.0</ele><time>2026-04-04T13:53:40Z</time></trkpt><trkpt lat="39.65351434924302" lon="9.578297823717655"><ele>88.0</ele><time>2026-04-04T13:53:41Z</time></trkpt><trkpt lat="39.65328309712811" lon="9.578267884911305"><ele>87.0</ele><time>2026-04-04T13:53:42Z</time></trkpt><trkpt lat="39.653053052122445" lon="9.578240341291416"><ele>87.0</ele><time>2026-04-04T13:53:43Z</time></trkpt><trkpt lat="39.65282808839645" lon="9.578213994179082"><ele>87.0</ele><time>2026-04-04T13:53:44Z</time></trkpt><trkpt lat="39.65260862042909" lon="9.578189148802542"><ele>87.0</ele><time>2026-04-04T13:53:45Z</time></trkpt><trkpt lat="39.65238481617642" lon="9.578168330753611"><ele>85.66666666666667</ele><time>2026-04-04T13:53:46Z</time></trkpt><trkpt lat="39.65216226665205" lon="9.578156836484787"><ele>84.33333333333334</ele><time>2026-04-04T13:53:47Z</time></trkpt><trkpt lat="39.651943940258185" lon="9.578148879446438"><ele>83.0</ele><time>2026-04-04T13:53:48Z</time></trkpt><trkpt lat="39.651729565634476" lon="9.578149695926923"><ele>81.0</ele><time>2026-04-04T13:53:49Z</time></trkpt><trkpt lat="39.65151089114612" lon="9.57815682210535"><ele>79.0</ele><time>2026-04-04T13:53:50Z</time></trkpt><trkpt lat="39.65128965360493" lon="9.578173549182212"><ele>77.0</ele><time>2026-04-04T13:53:51Z</time></trkpt><trkpt lat="39.65106281381876" lon="9.578196898850667"><ele>73.0</ele><time>2026-04-04T13:53:52Z</time></trkpt><trkpt lat="39.650833010540104" lon="9.578230583377897"><ele>69.0</ele><time>2026-04-04T13:53:53Z</time></trkpt><trkpt lat="39.650602416156374" lon="9.578269522974171"><ele>69.0</ele><time>2026-04-04T13:53:54Z</time></trkpt><trkpt lat="39.65036796982591" lon="9.578316590572006"><ele>69.0</ele><time>2026-04-04T13:53:55Z</time></trkpt><trkpt lat="39.650130129621694" lon="9.578372716043514"><ele>71.5</ele><time>2026-04-04T13:53:56Z</time></trkpt><trkpt lat="39.64988961400188" lon="9.578443610091014"><ele>74.0</ele><time>2026-04-04T13:53:57Z</time></trkpt><trkpt lat="39.64964637632353" lon="9.578525726411401"><ele>77.0</ele><time>2026-04-04T13:53:58Z</time></trkpt><trkpt lat="39.649404782675866" lon="9.578618111707462"><ele>80.0</ele><time>2026-04-04T13:53:59Z</time></trkpt><trkpt lat="39.64915908180384" lon="9.578717241986725"><ele>80.0</ele><time>2026-04-04T13:54:00Z</time></trkpt><trkpt lat="39.64891873115098" lon="9.57882230138884"><ele>80.0</ele><time>2026-04-04T13:54:01Z</time></trkpt><trkpt lat="39.64868628101792" lon="9.578931086587925"><ele>86.5</ele><time>2026-04-04T13:54:02Z</time></trkpt><trkpt lat="39.64845889397779" lon="9.579042151144824"><ele>93.0</ele><time>2026-04-04T13:54:03Z</time></trkpt><trkpt lat="39.64823387402816" lon="9.579154524590969"><ele>93.0</ele><time>2026-04-04T13:54:04Z</time></trkpt><trkpt lat="39.64801046910087" lon="9.579262813405913"><ele>93.0</ele><time>2026-04-04T13:54:05Z</time></trkpt><trkpt lat="39.64778585645051" lon="9.579365842602858"><ele>90.5</ele><time>2026-04-04T13:54:06Z</time></trkpt><trkpt lat="39.64756000568751" lon="9.579463352096225"><ele>88.0</ele><time>2026-04-04T13:54:07Z</time></trkpt><trkpt lat="39.64733089505678" lon="9.579561111091152"><ele>88.0</ele><time>2026-04-04T13:54:08Z</time></trkpt><trkpt lat="39.647103813763806" lon="9.579654829888694"><ele>88.0</ele><time>2026-04-04T13:54:09Z</time></trkpt><trkpt lat="39.646860829440584" lon="9.579762451719244"><ele>87.5</ele><time>2026-04-04T13:54:10.069Z</time></trkpt><trkpt lat="39.64661569533621" lon="9.579869061970948"><ele>87.0</ele><time>2026-04-04T13:54:11Z</time></trkpt><trkpt lat="39.646380232612515" lon="9.580065979092083"><ele>87.0</ele><time>2026-04-04T13:54:12Z</time></trkpt><trkpt lat="39.646153547106785" lon="9.580175708498217"><ele>87.0</ele><time>2026-04-04T13:54:13Z</time></trkpt><trkpt lat="39.64591549245077" lon="9.580262287662931"><ele>90.0</ele><time>2026-04-04T13:54:14Z</time></trkpt><trkpt lat="39.64566792471769" lon="9.58033484394664"><ele>93.0</ele><time>2026-04-04T13:54:15Z</time></trkpt><trkpt lat="39.64541965808225" lon="9.580385052994181"><ele>85.5</ele><time>2026-04-04T13:54:16Z</time></trkpt><trkpt lat="39.645165710169124" lon="9.580425149217797"><ele>78.0</ele><time>2026-04-04T13:54:17Z</time></trkpt><trkpt lat="39.644910236784895" lon="9.580456926976556"><ele>78.0</ele><time>2026-04-04T13:54:18Z</time></trkpt><trkpt lat="39.64465546520854" lon="9.580469856869655"><ele>78.0</ele><time>2026-04-04T13:54:19Z</time></trkpt><trkpt lat="39.6444020499316" lon="9.580470109486322"><ele>81.0</ele><time>2026-04-04T13:54:20Z</time></trkpt><trkpt lat="39.64415438632747" lon="9.580456468055585"><ele>84.0</ele><time>2026-04-04T13:54:21Z</time></trkpt><trkpt lat="39.643912774651064" lon="9.58042973270996"><ele>84.0</ele><time>2026-04-04T13:54:22Z</time></trkpt><trkpt lat="39.64367833223415" lon="9.580385841846255"><ele>84.0</ele><time>2026-04-04T13:54:23Z</time></trkpt><trkpt lat="39.64344319451504" lon="9.580328419906088"><ele>89.5</ele><time>2026-04-04T13:54:24Z</time></trkpt><trkpt lat="39.64321202844782" lon="9.5802539720959"><ele>95.0</ele><time>2026-04-04T13:54:25Z</time></trkpt><trkpt lat="39.64298564496086" lon="9.580162686188105"><ele>89.5</ele><time>2026-04-04T13:54:26Z</time></trkpt><trkpt lat="39.642758164137135" lon="9.580064144870923"><ele>84.0</ele><time>2026-04-04T13:54:27Z</time></trkpt><trkpt lat="39.64253079264318" lon="9.579963240702218"><ele>84.0</ele><time>2026-04-04T13:54:28Z</time></trkpt><trkpt lat="39.64230242206335" lon="9.579869396312695"><ele>84.0</ele><time>2026-04-04T13:54:29Z</time></trkpt><trkpt lat="39.642069132559335" lon="9.579787038685954"><ele>81.5</ele><time>2026-04-04T13:54:30Z</time></trkpt><trkpt lat="39.64183249809749" lon="9.579718781521839"><ele>79.0</ele><time>2026-04-04T13:54:31Z</time></trkpt><trkpt lat="39.64159462641018" lon="9.579667408273746"><ele>79.0</ele><time>2026-04-04T13:54:32Z</time></trkpt><trkpt lat="39.64135677841773" lon="9.579628155240341"><ele>79.0</ele><time>2026-04-04T13:54:33Z</time></trkpt><trkpt lat="39.64111578173021" lon="9.579600643705339"><ele>79.5</ele><time>2026-04-04T13:54:34Z</time></trkpt><trkpt lat="39.64087377583802" lon="9.579587516484535"><ele>80.0</ele><time>2026-04-04T13:54:35Z</time></trkpt><trkpt lat="39.64063030507649" lon="9.579593924467483"><ele>80.0</ele><time>2026-04-04T13:54:36Z</time></trkpt><trkpt lat="39.6403863321716" lon="9.579626478780368"><ele>80.0</ele><time>2026-04-04T13:54:37Z</time></trkpt><trkpt lat="39.640149630715044" lon="9.579680946924688"><ele>76.5</ele><time>2026-04-04T13:54:38Z</time></trkpt><trkpt lat="39.63991374485674" lon="9.57975230794052"><ele>73.0</ele><time>2026-04-04T13:54:39Z</time></trkpt><trkpt lat="39.63968340444513" lon="9.579836212634078"><ele>74.5</ele><time>2026-04-04T13:54:40Z</time></trkpt><trkpt lat="39.639461643128804" lon="9.579934411188784"><ele>76.0</ele><time>2026-04-04T13:54:41Z</time></trkpt><trkpt lat="39.639248168729154" lon="9.580047151822003"><ele>76.0</ele><time>2026-04-04T13:54:42Z</time></trkpt><trkpt lat="39.639040689097" lon="9.58017800311511"><ele>76.0</ele><time>2026-04-04T13:54:43Z</time></trkpt><trkpt lat="39.63883872070785" lon="9.580325613581406"><ele>78.5</ele><time>2026-04-04T13:54:44Z</time></trkpt><trkpt lat="39.638641961751475" lon="9.580488684361137"><ele>81.0</ele><time>2026-04-04T13:54:45Z</time></trkpt><trkpt lat="39.638450916191736" lon="9.580666555253012"><ele>81.0</ele><time>2026-04-04T13:54:46Z</time></trkpt><trkpt lat="39.63826312412232" lon="9.580857152501078"><ele>81.0</ele><time>2026-04-04T13:54:47Z</time></trkpt><trkpt lat="39.638087804486645" lon="9.581051945690046"><ele>74.5</ele><time>2026-04-04T13:54:48Z</time></trkpt><trkpt lat="39.6379203485924" lon="9.581249919493356"><ele>68.0</ele><time>2026-04-04T13:54:49Z</time></trkpt><trkpt lat="39.637753533883405" lon="9.58145103890126"><ele>68.0</ele><time>2026-04-04T13:54:50Z</time></trkpt><trkpt lat="39.63759759908521" lon="9.581639296215746"><ele>68.0</ele><time>2026-04-04T13:54:51Z</time></trkpt><trkpt lat="39.63743527819687" lon="9.581828240793412"><ele>68.0</ele><time>2026-04-04T13:54:52Z</time></trkpt><trkpt lat="39.63726857175137" lon="9.582014511585118"><ele>65.0</ele><time>2026-04-04T13:54:53Z</time></trkpt><trkpt lat="39.637094350535534" lon="9.582200889526899"><ele>62.0</ele><time>2026-04-04T13:54:54Z</time></trkpt><trkpt lat="39.63691061251571" lon="9.582389343470254"><ele>69.0</ele><time>2026-04-04T13:54:55Z</time></trkpt><trkpt lat="39.63672063491325" lon="9.582571317100681"><ele>76.0</ele><time>2026-04-04T13:54:56Z</time></trkpt><trkpt lat="39.636521070117304" lon="9.582747325691281"><ele>75.5</ele><time>2026-04-04T13:54:57Z</time></trkpt><trkpt lat="39.63631702229439" lon="9.582908974358318"><ele>75.0</ele><time>2026-04-04T13:54:58Z</time></trkpt><trkpt lat="39.63610303447819" lon="9.583063957324423"><ele>75.0</ele><time>2026-04-04T13:54:59Z</time></trkpt><trkpt lat="39.63588644752348" lon="9.583211844990574"><ele>75.0</ele><time>2026-04-04T13:55:00Z</time></trkpt><trkpt lat="39.635662481145076" lon="9.583351822349494"><ele>75.0</ele><time>2026-04-04T13:55:01Z</time></trkpt><trkpt lat="39.63543287512756" lon="9.583483991297392"><ele>75.0</ele><time>2026-04-04T13:55:02Z</time></trkpt><trkpt lat="39.63520088575335" lon="9.58360375191545"><ele>71.0</ele><time>2026-04-04T13:55:03Z</time></trkpt><trkpt lat="39.63496283525513" lon="9.583717703645922"><ele>67.0</ele><time>2026-04-04T13:55:04Z</time></trkpt><trkpt lat="39.63472311785749" lon="9.583828320845356"><ele>67.0</ele><time>2026-04-04T13:55:05Z</time></trkpt><trkpt lat="39.634485061353764" lon="9.58393954423758"><ele>67.0</ele><time>2026-04-04T13:55:06Z</time></trkpt><trkpt lat="39.63424593035605" lon="9.584054560235824"><ele>68.0</ele><time>2026-04-04T13:55:07Z</time></trkpt><trkpt lat="39.6340098469722" lon="9.584172771281118"><ele>69.0</ele><time>2026-04-04T13:55:08Z</time></trkpt><trkpt lat="39.63377229245744" lon="9.58429336977099"><ele>69.0</ele><time>2026-04-04T13:55:09Z</time></trkpt><trkpt lat="39.633534129412695" lon="9.584413823433108"><ele>69.0</ele><time>2026-04-04T13:55:10Z</time></trkpt><trkpt lat="39.633297123640006" lon="9.584528562324989"><ele>65.0</ele><time>2026-04-04T13:55:11Z</time></trkpt><trkpt lat="39.633058082011466" lon="9.584637149353632"><ele>61.0</ele><time>2026-04-04T13:55:12Z</time></trkpt><trkpt lat="39.632822439771374" lon="9.584737403432511"><ele>61.5</ele><time>2026-04-04T13:55:13Z</time></trkpt><trkpt lat="39.63259981268406" lon="9.5848287874878"><ele>62.0</ele><time>2026-04-04T13:55:14Z</time></trkpt><trkpt lat="39.6323887026704" lon="9.584912434354196"><ele>62.0</ele><time>2026-04-04T13:55:15Z</time></trkpt><trkpt lat="39.63218183605857" lon="9.58499420272367"><ele>62.0</ele><time>2026-04-04T13:55:16Z</time></trkpt><trkpt lat="39.631986592164594" lon="9.585058399757754"><ele>62.0</ele><time>2026-04-04T13:55:17Z</time></trkpt><trkpt lat="39.63180093777894" lon="9.585120972080631"><ele>63.333333333333336</ele><time>2026-04-04T13:55:18Z</time></trkpt><trkpt lat="39.6316144099252" lon="9.585181723193445"><ele>64.66666666666667</ele><time>2026-04-04T13:55:19Z</time></trkpt><trkpt lat="39.6314406329207" lon="9.58523509894604"><ele>66.0</ele><time>2026-04-04T13:55:20Z</time></trkpt><trkpt lat="39.63127444650897" lon="9.58528358364532"><ele>66.0</ele><time>2026-04-04T13:55:21Z</time></trkpt><trkpt lat="39.6311051643963" lon="9.585346049049095"><ele>66.0</ele><time>2026-04-04T13:55:22Z</time></trkpt><trkpt lat="39.63092567577955" lon="9.585426664847244"><ele>66.0</ele><time>2026-04-04T13:55:23Z</time></trkpt><trkpt lat="39.63075159424" lon="9.585524040431611"><ele>66.0</ele><time>2026-04-04T13:55:24Z</time></trkpt><trkpt lat="39.63059559231286" lon="9.585634064544108"><ele>66.0</ele><time>2026-04-04T13:55:25Z</time></trkpt><trkpt lat="39.63045544257787" lon="9.585762090892315"><ele>66.0</ele><time>2026-04-04T13:55:26Z</time></trkpt><trkpt lat="39.63033116988049" lon="9.585901308099203"><ele>66.0</ele><time>2026-04-04T13:55:27Z</time></trkpt><trkpt lat="39.63022831152405" lon="9.586046844209084"><ele>66.0</ele><time>2026-04-04T13:55:28Z</time></trkpt><trkpt lat="39.63014460091453" lon="9.586185085371582"><ele>66.0</ele><time>2026-04-04T13:55:29Z</time></trkpt><trkpt lat="39.6300724504963" lon="9.586299073163788"><ele>66.0</ele><time>2026-04-04T13:55:30Z</time></trkpt><trkpt lat="39.62999710057427" lon="9.586378963925494"><ele>64.6</ele><time>2026-04-04T13:55:31Z</time></trkpt><trkpt lat="39.629910447264805" lon="9.586400771152457"><ele>63.199999999999996</ele><time>2026-04-04T13:55:32Z</time></trkpt><trkpt lat="39.6298258245335" lon="9.586406812837389"><ele>61.800000000000004</ele><time>2026-04-04T13:55:33Z</time></trkpt><trkpt lat="39.629752362994644" lon="9.586465365119713"><ele>60.400000000000006</ele><time>2026-04-04T13:55:34Z</time></trkpt><trkpt lat="39.62970397742039" lon="9.586576202900504"><ele>59.0</ele><time>2026-04-04T13:55:35Z</time></trkpt><trkpt lat="39.629688375700745" lon="9.586694214239099"><ele>59.0</ele><time>2026-04-04T13:55:36Z</time></trkpt><trkpt lat="39.62967369621534" lon="9.586824588983221"><ele>59.0</ele><time>2026-04-04T13:55:37Z</time></trkpt><trkpt lat="39.62960969713092" lon="9.586945413774739"><ele>59.0</ele><time>2026-04-04T13:55:38Z</time></trkpt><trkpt lat="39.62950713653709" lon="9.587047092773906"><ele>59.0</ele><time>2026-04-04T13:55:39Z</time></trkpt><trkpt lat="39.6293644120903" lon="9.587129188404829"><ele>57.333333333333336</ele><time>2026-04-04T13:55:40Z</time></trkpt><trkpt lat="39.62920235038823" lon="9.587208192344198"><ele>55.66666666666667</ele><time>2026-04-04T13:55:41Z</time></trkpt><trkpt lat="39.6290115356112" lon="9.587285089015054"><ele>54.0</ele><time>2026-04-04T13:55:42Z</time></trkpt><trkpt lat="39.628808763783105" lon="9.587366886114317"><ele>54.0</ele><time>2026-04-04T13:55:43Z</time></trkpt><trkpt lat="39.62860535401721" lon="9.58745645516075"><ele>54.0</ele><time>2026-04-04T13:55:44Z</time></trkpt><trkpt lat="39.62839170463081" lon="9.587549873555304"><ele>54.0</ele><time>2026-04-04T13:55:45Z</time></trkpt><trkpt lat="39.628173004070746" lon="9.587643537442796"><ele>54.0</ele><time>2026-04-04T13:55:46Z</time></trkpt><trkpt lat="39.62795942007668" lon="9.587736376214293"><ele>54.0</ele><time>2026-04-04T13:55:47Z</time></trkpt><trkpt lat="39.62773897491815" lon="9.587834764380561"><ele>53.0</ele><time>2026-04-04T13:55:48Z</time></trkpt><trkpt lat="39.62751296847129" lon="9.587932911389759"><ele>52.0</ele><time>2026-04-04T13:55:49Z</time></trkpt><trkpt lat="39.62728609064018" lon="9.588030056420553"><ele>52.0</ele><time>2026-04-04T13:55:50Z</time></trkpt><trkpt lat="39.627052737830404" lon="9.588133428224213"><ele>52.0</ele><time>2026-04-04T13:55:51Z</time></trkpt><trkpt lat="39.62683138403693" lon="9.588231971877569"><ele>51.5</ele><time>2026-04-04T13:55:52Z</time></trkpt><trkpt lat="39.62660629442727" lon="9.588331088652597"><ele>51.0</ele><time>2026-04-04T13:55:53Z</time></trkpt><trkpt lat="39.62637701268047" lon="9.588429909366157"><ele>51.0</ele><time>2026-04-04T13:55:54Z</time></trkpt><trkpt lat="39.62614892780043" lon="9.588529493029812"><ele>51.0</ele><time>2026-04-04T13:55:55Z</time></trkpt><trkpt lat="39.62591798677847" lon="9.588630374072372"><ele>50.5</ele><time>2026-04-04T13:55:56Z</time></trkpt><trkpt lat="39.62569940795023" lon="9.588726748179466"><ele>50.0</ele><time>2026-04-04T13:55:57Z</time></trkpt><trkpt lat="39.625488121700265" lon="9.588817503322026"><ele>49.5</ele><time>2026-04-04T13:55:58Z</time></trkpt><trkpt lat="39.62527669956786" lon="9.588911478832586"><ele>49.0</ele><time>2026-04-04T13:55:59Z</time></trkpt><trkpt lat="39.62506067095498" lon="9.589005205534502"><ele>49.0</ele><time>2026-04-04T13:56:00Z</time></trkpt><trkpt lat="39.62484922325369" lon="9.589096207806149"><ele>49.0</ele><time>2026-04-04T13:56:01Z</time></trkpt><trkpt lat="39.62464434061866" lon="9.589183290864778"><ele>49.0</ele><time>2026-04-04T13:56:02Z</time></trkpt><trkpt lat="39.62444235414343" lon="9.589277381221878"><ele>49.33333333333333</ele><time>2026-04-04T13:56:03Z</time></trkpt><trkpt lat="39.62423900473164" lon="9.589398935973936"><ele>49.66666666666667</ele><time>2026-04-04T13:56:04Z</time></trkpt><trkpt lat="39.62404544446445" lon="9.589539631795338"><ele>50.0</ele><time>2026-04-04T13:56:05Z</time></trkpt><trkpt lat="39.62386264157874" lon="9.589692471395246"><ele>50.0</ele><time>2026-04-04T13:56:06Z</time></trkpt><trkpt lat="39.623692824323754" lon="9.589839894933803"><ele>50.0</ele><time>2026-04-04T13:56:07Z</time></trkpt><trkpt lat="39.62352546562881" lon="9.589980859043367"><ele>50.0</ele><time>2026-04-04T13:56:08Z</time></trkpt><trkpt lat="39.623365049099334" lon="9.5901073249093"><ele>49.66666666666667</ele><time>2026-04-04T13:56:09Z</time></trkpt><trkpt lat="39.6232060917712" lon="9.590214964072729"><ele>49.33333333333333</ele><time>2026-04-04T13:56:10Z</time></trkpt><trkpt lat="39.623029570121126" lon="9.590310957062526"><ele>49.0</ele><time>2026-04-04T13:56:11Z</time></trkpt><trkpt lat="39.62283254291424" lon="9.590385158068855"><ele>49.33333333333333</ele><time>2026-04-04T13:56:12Z</time></trkpt><trkpt lat="39.62265027663375" lon="9.590443517656805"><ele>49.66666666666667</ele><time>2026-04-04T13:56:13Z</time></trkpt><trkpt lat="39.62247802392245" lon="9.590501729750788"><ele>50.0</ele><time>2026-04-04T13:56:14Z</time></trkpt><trkpt lat="39.62232296786322" lon="9.590563200372383"><ele>50.0</ele><time>2026-04-04T13:56:15Z</time></trkpt><trkpt lat="39.622176720289346" lon="9.590614002567829"><ele>50.0</ele><time>2026-04-04T13:56:16Z</time></trkpt><trkpt lat="39.62202487811374" lon="9.59062935884722"><ele>50.0</ele><time>2026-04-04T13:56:17Z</time></trkpt><trkpt lat="39.621864009813784" lon="9.590589422194041"><ele>49.66666666666667</ele><time>2026-04-04T13:56:17.999Z</time></trkpt><trkpt lat="39.621693886117924" lon="9.590509850820931"><ele>49.33333333333333</ele><time>2026-04-04T13:56:18.999Z</time></trkpt><trkpt lat="39.62152082522041" lon="9.590391337309368"><ele>49.0</ele><time>2026-04-04T13:56:19.999Z</time></trkpt><trkpt lat="39.621334938544415" lon="9.59026545726733"><ele>49.33333333333333</ele><time>2026-04-04T13:56:20.999Z</time></trkpt><trkpt lat="39.62115042221646" lon="9.590147351175915"><ele>49.66666666666667</ele><time>2026-04-04T13:56:21.999Z</time></trkpt><trkpt lat="39.620974714611364" lon="9.590051111997301"><ele>50.0</ele><time>2026-04-04T13:56:22.999Z</time></trkpt><trkpt lat="39.620785899488375" lon="9.589989907518099"><ele>50.0</ele><time>2026-04-04T13:56:23.999Z</time></trkpt><trkpt lat="39.62059018984678" lon="9.589952391586177"><ele>50.0</ele><time>2026-04-04T13:56:24.999Z</time></trkpt><trkpt lat="39.62039046934245" lon="9.589940623775496"><ele>50.0</ele><time>2026-04-04T13:56:25.999Z</time></trkpt><trkpt lat="39.620183272540714" lon="9.589959138575564"><ele>51.66666666666667</ele><time>2026-04-04T13:56:26.999Z</time></trkpt><trkpt lat="39.619976655545805" lon="9.590015003204643"><ele>53.33333333333333</ele><time>2026-04-04T13:56:28Z</time></trkpt><trkpt lat="39.619768144522375" lon="9.59008409260291"><ele>55.0</ele><time>2026-04-04T13:56:29Z</time></trkpt><trkpt lat="39.61956060297186" lon="9.590146573517593"><ele>56.0</ele><time>2026-04-04T13:56:30Z</time></trkpt><trkpt lat="39.61936797642007" lon="9.590196505689574"><ele>57.0</ele><time>2026-04-04T13:56:31Z</time></trkpt><trkpt lat="39.619175964057625" lon="9.590226898909286"><ele>58.0</ele><time>2026-04-04T13:56:32Z</time></trkpt><trkpt lat="39.6189757541724" lon="9.590223839445141"><ele>58.0</ele><time>2026-04-04T13:56:33Z</time></trkpt><trkpt lat="39.6187731097462" lon="9.590192289337953"><ele>58.0</ele><time>2026-04-04T13:56:34Z</time></trkpt><trkpt lat="39.61856731865624" lon="9.590138632379329"><ele>58.0</ele><time>2026-04-04T13:56:35Z</time></trkpt><trkpt lat="39.61837393067995" lon="9.590070661486607"><ele>58.0</ele><time>2026-04-04T13:56:36Z</time></trkpt><trkpt lat="39.618185243935066" lon="9.590042614603298"><ele>58.0</ele><time>2026-04-04T13:56:37Z</time></trkpt><trkpt lat="39.617979315776914" lon="9.590060452521639"><ele>58.0</ele><time>2026-04-04T13:56:38Z</time></trkpt><trkpt lat="39.61775202849886" lon="9.59010421911102"><ele>58.0</ele><time>2026-04-04T13:56:39Z</time></trkpt><trkpt lat="39.61751270341085" lon="9.590150009811104"><ele>58.0</ele><time>2026-04-04T13:56:40Z</time></trkpt><trkpt lat="39.617279977751785" lon="9.590190690177828"><ele>58.0</ele><time>2026-04-04T13:56:41Z</time></trkpt><trkpt lat="39.6170559973607" lon="9.590228348332205"><ele>58.0</ele><time>2026-04-04T13:56:42Z</time></trkpt><trkpt lat="39.6168234806382" lon="9.590285632884564"><ele>51.0</ele><time>2026-04-04T13:56:43Z</time></trkpt><trkpt lat="39.616588606807056" lon="9.590369363360711"><ele>44.0</ele><time>2026-04-04T13:56:44Z</time></trkpt><trkpt lat="39.6163510373938" lon="9.59047089231619"><ele>44.5</ele><time>2026-04-04T13:56:45Z</time></trkpt><trkpt lat="39.61611959525037" lon="9.59056767899968"><ele>45.0</ele><time>2026-04-04T13:56:46Z</time></trkpt><trkpt lat="39.61590069413639" lon="9.590644837752963"><ele>45.0</ele><time>2026-04-04T13:56:47Z</time></trkpt><trkpt lat="39.61569423114233" lon="9.590688662482307"><ele>45.0</ele><time>2026-04-04T13:56:48Z</time></trkpt><trkpt lat="39.61549794735888" lon="9.590697082280645"><ele>45.0</ele><time>2026-04-04T13:56:49Z</time></trkpt><trkpt lat="39.61531287639502" lon="9.59068134395052"><ele>44.666666666666664</ele><time>2026-04-04T13:56:50Z</time></trkpt><trkpt lat="39.61512327542904" lon="9.5906303324066"><ele>44.33333333333333</ele><time>2026-04-04T13:56:51Z</time></trkpt><trkpt lat="39.61491899707518" lon="9.590542717859394"><ele>44.0</ele><time>2026-04-04T13:56:52Z</time></trkpt><trkpt lat="39.614705596784376" lon="9.590450813985345"><ele>43.5</ele><time>2026-04-04T13:56:53Z</time></trkpt><trkpt lat="39.614478179263834" lon="9.590367085406843"><ele>43.0</ele><time>2026-04-04T13:56:54Z</time></trkpt><trkpt lat="39.614239588268106" lon="9.590287717093545"><ele>48.5</ele><time>2026-04-04T13:56:55Z</time></trkpt><trkpt lat="39.61399252509692" lon="9.590211549427737"><ele>54.0</ele><time>2026-04-04T13:56:56Z</time></trkpt><trkpt lat="39.61374236742838" lon="9.590138147844577"><ele>51.0</ele><time>2026-04-04T13:56:57Z</time></trkpt><trkpt lat="39.613483341097684" lon="9.590067484649484"><ele>48.0</ele><time>2026-04-04T13:56:58Z</time></trkpt><trkpt lat="39.61322852590693" lon="9.58999648763596"><ele>48.0</ele><time>2026-04-04T13:56:59Z</time></trkpt><trkpt lat="39.612968439313626" lon="9.589922295431945"><ele>48.0</ele><time>2026-04-04T13:57:00Z</time></trkpt><trkpt lat="39.61271535656168" lon="9.589846947335559"><ele>46.0</ele><time>2026-04-04T13:57:01Z</time></trkpt><trkpt lat="39.612470532994" lon="9.58977348304213"><ele>44.0</ele><time>2026-04-04T13:57:02Z</time></trkpt><trkpt lat="39.612244222777456" lon="9.58970491263975"><ele>44.0</ele><time>2026-04-04T13:57:03Z</time></trkpt><trkpt lat="39.61202906022245" lon="9.589641214484411"><ele>44.0</ele><time>2026-04-04T13:57:04Z</time></trkpt><trkpt lat="39.61182441243133" lon="9.58958493465719"><ele>44.0</ele><time>2026-04-04T13:57:05Z</time></trkpt><trkpt lat="39.6116216858722" lon="9.589556380946892"><ele>44.0</ele><time>2026-04-04T13:57:06Z</time></trkpt><trkpt lat="39.61141488861152" lon="9.58956946229388"><ele>44.0</ele><time>2026-04-04T13:57:07Z</time></trkpt><trkpt lat="39.611200609103044" lon="9.589617359236977"><ele>44.0</ele><time>2026-04-04T13:57:08Z</time></trkpt><trkpt lat="39.6109755919006" lon="9.589687694978831"><ele>44.0</ele><time>2026-04-04T13:57:09Z</time></trkpt><trkpt lat="39.61074525196122" lon="9.589766864828947"><ele>44.0</ele><time>2026-04-04T13:57:10Z</time></trkpt><trkpt lat="39.610508169807616" lon="9.589834206001541"><ele>44.0</ele><time>2026-04-04T13:57:11Z</time></trkpt><trkpt lat="39.61027423612074" lon="9.58987741076962"><ele>44.0</ele><time>2026-04-04T13:57:12Z</time></trkpt><trkpt lat="39.61004316537322" lon="9.589895488606288"><ele>44.0</ele><time>2026-04-04T13:57:13Z</time></trkpt><trkpt lat="39.609811966100246" lon="9.589889504428903"><ele>44.0</ele><time>2026-04-04T13:57:14Z</time></trkpt><trkpt lat="39.609592245738135" lon="9.589876028035722"><ele>43.0</ele><time>2026-04-04T13:57:15Z</time></trkpt><trkpt lat="39.60937617085764" lon="9.589869200333144"><ele>42.0</ele><time>2026-04-04T13:57:16Z</time></trkpt><trkpt lat="39.60915216692385" lon="9.58988391796966"><ele>41.0</ele><time>2026-04-04T13:57:17Z</time></trkpt><trkpt lat="39.60891916462818" lon="9.589925230528678"><ele>41.0</ele><time>2026-04-04T13:57:18Z</time></trkpt><trkpt lat="39.608685553530414" lon="9.589992982757275"><ele>41.0</ele><time>2026-04-04T13:57:19Z</time></trkpt><trkpt lat="39.608446685827346" lon="9.59006569324927"><ele>41.5</ele><time>2026-04-04T13:57:20Z</time></trkpt><trkpt lat="39.60820078139575" lon="9.590135794196124"><ele>42.0</ele><time>2026-04-04T13:57:21Z</time></trkpt><trkpt lat="39.6079584113052" lon="9.590201984457867"><ele>43.333333333333336</ele><time>2026-04-04T13:57:22Z</time></trkpt><trkpt lat="39.607739206920805" lon="9.590261024797876"><ele>44.66666666666667</ele><time>2026-04-04T13:57:23Z</time></trkpt><trkpt lat="39.607536412576565" lon="9.590317984593842"><ele>46.0</ele><time>2026-04-04T13:57:24Z</time></trkpt><trkpt lat="39.60734630484675" lon="9.59036509121593"><ele>43.333333333333336</ele><time>2026-04-04T13:57:25Z</time></trkpt><trkpt lat="39.6071677743954" lon="9.5903948285713"><ele>40.666666666666664</ele><time>2026-04-04T13:57:26Z</time></trkpt><trkpt lat="39.607002236483915" lon="9.590393820064103"><ele>38.0</ele><time>2026-04-04T13:57:27Z</time></trkpt><trkpt lat="39.60683349288911" lon="9.590359463534432"><ele>42.0</ele><time>2026-04-04T13:57:28Z</time></trkpt><trkpt lat="39.60665859951255" lon="9.59030158205535"><ele>46.0</ele><time>2026-04-04T13:57:29Z</time></trkpt><trkpt lat="39.60647544422056" lon="9.590226525354222"><ele>50.0</ele><time>2026-04-04T13:57:30Z</time></trkpt><trkpt lat="39.606277057653266" lon="9.590133415073193"><ele>46.5</ele><time>2026-04-04T13:57:31Z</time></trkpt><trkpt lat="39.606069795252026" lon="9.59002169914045"><ele>43.0</ele><time>2026-04-04T13:57:32Z</time></trkpt><trkpt lat="39.60585021368093" lon="9.589891929577146"><ele>43.0</ele><time>2026-04-04T13:57:33Z</time></trkpt><trkpt lat="39.60561654706792" lon="9.589753440092517"><ele>43.0</ele><time>2026-04-04T13:57:34Z</time></trkpt><trkpt lat="39.60536928624848" lon="9.589609150391508"><ele>44.5</ele><time>2026-04-04T13:57:35Z</time></trkpt><trkpt lat="39.605120286046485" lon="9.589460344886321"><ele>46.0</ele><time>2026-04-04T13:57:36Z</time></trkpt><trkpt lat="39.60488113591564" lon="9.589318768497623"><ele>46.0</ele><time>2026-04-04T13:57:37Z</time></trkpt><trkpt lat="39.604647619864075" lon="9.589178487558433"><ele>46.0</ele><time>2026-04-04T13:57:38Z</time></trkpt><trkpt lat="39.60441799440824" lon="9.589043957002419"><ele>41.5</ele><time>2026-04-04T13:57:39Z</time></trkpt><trkpt lat="39.60420399287918" lon="9.58891473995356"><ele>37.0</ele><time>2026-04-04T13:57:40Z</time></trkpt><trkpt lat="39.604004530117535" lon="9.588789895949287"><ele>38.0</ele><time>2026-04-04T13:57:41Z</time></trkpt><trkpt lat="39.60381595994356" lon="9.5886712215975"><ele>39.0</ele><time>2026-04-04T13:57:42Z</time></trkpt><trkpt lat="39.603631051002004" lon="9.588564641255646"><ele>40.0</ele><time>2026-04-04T13:57:43Z</time></trkpt><trkpt lat="39.6034378490072" lon="9.588476041100375"><ele>40.0</ele><time>2026-04-04T13:57:44Z</time></trkpt><trkpt lat="39.603237381494566" lon="9.588435286147487"><ele>40.0</ele><time>2026-04-04T13:57:45Z</time></trkpt><trkpt lat="39.60302207291561" lon="9.588439256966957"><ele>40.0</ele><time>2026-04-04T13:57:46Z</time></trkpt><trkpt lat="39.60278673260431" lon="9.58847099777954"><ele>39.0</ele><time>2026-04-04T13:57:47Z</time></trkpt><trkpt lat="39.60254273135359" lon="9.588502090269943"><ele>38.0</ele><time>2026-04-04T13:57:48Z</time></trkpt><trkpt lat="39.60228619781805" lon="9.588527582978166"><ele>38.0</ele><time>2026-04-04T13:57:49Z</time></trkpt><trkpt lat="39.60202847963604" lon="9.58855169194356"><ele>38.0</ele><time>2026-04-04T13:57:50Z</time></trkpt><trkpt lat="39.60177482584003" lon="9.588576318910278"><ele>38.5</ele><time>2026-04-04T13:57:51Z</time></trkpt><trkpt lat="39.60151745962692" lon="9.58859910859012"><ele>39.0</ele><time>2026-04-04T13:57:52Z</time></trkpt><trkpt lat="39.60126009934817" lon="9.588623348356688"><ele>38.5</ele><time>2026-04-04T13:57:53Z</time></trkpt><trkpt lat="39.601004481388664" lon="9.588649169955595"><ele>38.0</ele><time>2026-04-04T13:57:54Z</time></trkpt><trkpt lat="39.60075003650973" lon="9.588672001090867"><ele>37.5</ele><time>2026-04-04T13:57:55Z</time></trkpt><trkpt lat="39.600495254270555" lon="9.588691366584357"><ele>37.0</ele><time>2026-04-04T13:57:56Z</time></trkpt><trkpt lat="39.60024124352851" lon="9.588711042881274"><ele>37.0</ele><time>2026-04-04T13:57:57Z</time></trkpt><trkpt lat="39.599989640764505" lon="9.588731856331423"><ele>37.0</ele><time>2026-04-04T13:57:58Z</time></trkpt><trkpt lat="39.59973706174677" lon="9.588756005180667"><ele>36.5</ele><time>2026-04-04T13:57:59Z</time></trkpt><trkpt lat="39.59948512832354" lon="9.588782697350508"><ele>36.0</ele><time>2026-04-04T13:58:00Z</time></trkpt><trkpt lat="39.59923852845736" lon="9.588807952929042"><ele>36.0</ele><time>2026-04-04T13:58:01Z</time></trkpt><trkpt lat="39.59898348191511" lon="9.588833514527785"><ele>36.0</ele><time>2026-04-04T13:58:01.999Z</time></trkpt><trkpt lat="39.598730736076156" lon="9.588854701516798"><ele>36.0</ele><time>2026-04-04T13:58:02.999Z</time></trkpt><trkpt lat="39.598498147498965" lon="9.588873109589215"><ele>36.0</ele><time>2026-04-04T13:58:03.999Z</time></trkpt><trkpt lat="39.59828914426454" lon="9.588890297321571"><ele>36.0</ele><time>2026-04-04T13:58:04.999Z</time></trkpt><trkpt lat="39.598110180028" lon="9.588904636774846"><ele>36.0</ele><time>2026-04-04T13:58:05.999Z</time></trkpt><trkpt lat="39.59795239917046" lon="9.588934755445369"><ele>36.0</ele><time>2026-04-04T13:58:06.999Z</time></trkpt><trkpt lat="39.59780549355145" lon="9.589003343646711"><ele>36.0</ele><time>2026-04-04T13:58:07.999Z</time></trkpt><trkpt lat="39.59766128199425" lon="9.589122291031995"><ele>36.0</ele><time>2026-04-04T13:58:08.999Z</time></trkpt><trkpt lat="39.59752121886507" lon="9.589297026318814"><ele>36.0</ele><time>2026-04-04T13:58:09.999Z</time></trkpt><trkpt lat="39.59738365755175" lon="9.589491284445272"><ele>36.0</ele><time>2026-04-04T13:58:10.999Z</time></trkpt><trkpt lat="39.59724688215982" lon="9.589698341259934"><ele>36.0</ele><time>2026-04-04T13:58:11.999Z</time></trkpt><trkpt lat="39.597136365378226" lon="9.589908412580819"><ele>36.0</ele><time>2026-04-04T13:58:12.999Z</time></trkpt><trkpt lat="39.597068723739746" lon="9.590135429495964"><ele>36.0</ele><time>2026-04-04T13:58:13.999Z</time></trkpt><trkpt lat="39.5970256575924" lon="9.590352888154802"><ele>36.25</ele><time>2026-04-04T13:58:14.999Z</time></trkpt><trkpt lat="39.596984344382754" lon="9.590553729488748"><ele>36.5</ele><time>2026-04-04T13:58:15.999Z</time></trkpt><trkpt lat="39.59693756841594" lon="9.590724718096183"><ele>36.75</ele><time>2026-04-04T13:58:16.999Z</time></trkpt><trkpt lat="39.59687020048603" lon="9.590869987126268"><ele>37.0</ele><time>2026-04-04T13:58:17.999Z</time></trkpt><trkpt lat="39.5967681262114" lon="9.590993094725741"><ele>37.0</ele><time>2026-04-04T13:58:18.999Z</time></trkpt><trkpt lat="39.59662763466576" lon="9.591081710445213"><ele>37.0</ele><time>2026-04-04T13:58:19.999Z</time></trkpt><trkpt lat="39.596471732200364" lon="9.591166610663315"><ele>37.0</ele><time>2026-04-04T13:58:20.999Z</time></trkpt><trkpt lat="39.59631331801611" lon="9.59125514240734"><ele>37.25</ele><time>2026-04-04T13:58:21.999Z</time></trkpt><trkpt lat="39.59617665677104" lon="9.591331549887766"><ele>37.5</ele><time>2026-04-04T13:58:22.999Z</time></trkpt><trkpt lat="39.59605797942215" lon="9.591358055407607"><ele>37.75</ele><time>2026-04-04T13:58:23.999Z</time></trkpt><trkpt lat="39.59592752612865" lon="9.591334557031397"><ele>38.0</ele><time>2026-04-04T13:58:24.999Z</time></trkpt><trkpt lat="39.5957779516974" lon="9.591246860708294"><ele>38.0</ele><time>2026-04-04T13:58:25.999Z</time></trkpt><trkpt lat="39.595611829128046" lon="9.591143256644042"><ele>38.0</ele><time>2026-04-04T13:58:26.999Z</time></trkpt><trkpt lat="39.595421644401114" lon="9.59102610124513"><ele>38.0</ele><time>2026-04-04T13:58:27.999Z</time></trkpt><trkpt lat="39.59520267518161" lon="9.590897499795906"><ele>38.0</ele><time>2026-04-04T13:58:28.999Z</time></trkpt><trkpt lat="39.59497142022631" lon="9.590766057760385"><ele>38.0</ele><time>2026-04-04T13:58:29.999Z</time></trkpt><trkpt lat="39.59474213281827" lon="9.59063913441857"><ele>38.0</ele><time>2026-04-04T13:58:30.999Z</time></trkpt><trkpt lat="39.594504955907205" lon="9.590505937611363"><ele>38.0</ele><time>2026-04-04T13:58:31.999Z</time></trkpt><trkpt lat="39.59425951820506" lon="9.59036032084874"><ele>39.0</ele><time>2026-04-04T13:58:32.999Z</time></trkpt><trkpt lat="39.59399665712238" lon="9.590203253148513"><ele>40.0</ele><time>2026-04-04T13:58:34Z</time></trkpt><trkpt lat="39.593721130935236" lon="9.590040764621028"><ele>37.5</ele><time>2026-04-04T13:58:35Z</time></trkpt><trkpt lat="39.5934471111725" lon="9.589879210166485"><ele>35.0</ele><time>2026-04-04T13:58:36Z</time></trkpt><trkpt lat="39.593180231035916" lon="9.589724909828435"><ele>35.0</ele><time>2026-04-04T13:58:37Z</time></trkpt><trkpt lat="39.592910117425106" lon="9.589570942024945"><ele>35.0</ele><time>2026-04-04T13:58:38Z</time></trkpt><trkpt lat="39.59263221626176" lon="9.589414012822305"><ele>35.5</ele><time>2026-04-04T13:58:39Z</time></trkpt><trkpt lat="39.592353821963286" lon="9.589255744747984"><ele>36.0</ele><time>2026-04-04T13:58:40Z</time></trkpt><trkpt lat="39.59208476425601" lon="9.589098701412171"><ele>34.0</ele><time>2026-04-04T13:58:41Z</time></trkpt><trkpt lat="39.59182941236333" lon="9.588947440651273"><ele>32.0</ele><time>2026-04-04T13:58:42Z</time></trkpt><trkpt lat="39.591575964928246" lon="9.588796180033116"><ele>32.5</ele><time>2026-04-04T13:58:43Z</time></trkpt><trkpt lat="39.59133345577327" lon="9.58865336795191"><ele>33.0</ele><time>2026-04-04T13:58:44Z</time></trkpt><trkpt lat="39.59110459689488" lon="9.588519678187685"><ele>33.0</ele><time>2026-04-04T13:58:45Z</time></trkpt><trkpt lat="39.59086872462851" lon="9.58838322177224"><ele>33.0</ele><time>2026-04-04T13:58:46Z</time></trkpt><trkpt lat="39.590636156397764" lon="9.588250994667192"><ele>33.0</ele><time>2026-04-04T13:58:47Z</time></trkpt><trkpt lat="39.59040369024008" lon="9.588116369432381"><ele>33.0</ele><time>2026-04-04T13:58:48Z</time></trkpt><trkpt lat="39.590171716423974" lon="9.587980174698192"><ele>33.5</ele><time>2026-04-04T13:58:49Z</time></trkpt><trkpt lat="39.5899535189178" lon="9.587850161825768"><ele>34.0</ele><time>2026-04-04T13:58:50Z</time></trkpt><trkpt lat="39.589743239002736" lon="9.587726062985608"><ele>34.0</ele><time>2026-04-04T13:58:51Z</time></trkpt><trkpt lat="39.589532820778096" lon="9.587601022861275"><ele>34.0</ele><time>2026-04-04T13:58:52Z</time></trkpt><trkpt lat="39.589325276963244" lon="9.587479253143771"><ele>32.66666666666667</ele><time>2026-04-04T13:58:53Z</time></trkpt><trkpt lat="39.58913004324548" lon="9.587375483932984"><ele>31.333333333333336</ele><time>2026-04-04T13:58:54Z</time></trkpt><trkpt lat="39.58892965346287" lon="9.587291757525751"><ele>30.0</ele><time>2026-04-04T13:58:55Z</time></trkpt><trkpt lat="39.58871621308048" lon="9.587238612803196"><ele>30.0</ele><time>2026-04-04T13:58:56Z</time></trkpt><trkpt lat="39.588488690812056" lon="9.587213975878027"><ele>30.0</ele><time>2026-04-04T13:58:57Z</time></trkpt><trkpt lat="39.58824671022856" lon="9.587208496741175"><ele>30.0</ele><time>2026-04-04T13:58:58Z</time></trkpt><trkpt lat="39.588012691471754" lon="9.587213799549492"><ele>30.0</ele><time>2026-04-04T13:58:59Z</time></trkpt><trkpt lat="39.587794051014484" lon="9.587234436727801"><ele>32.0</ele><time>2026-04-04T13:59:00Z</time></trkpt><trkpt lat="39.58758152803637" lon="9.587284224831913"><ele>34.0</ele><time>2026-04-04T13:59:01Z</time></trkpt><trkpt lat="39.58736675858868" lon="9.587361131735129"><ele>36.0</ele><time>2026-04-04T13:59:02Z</time></trkpt><trkpt lat="39.58715636146781" lon="9.587463528841718"><ele>40.5</ele><time>2026-04-04T13:59:03Z</time></trkpt><trkpt lat="39.58695460804244" lon="9.587597643932813"><ele>45.0</ele><time>2026-04-04T13:59:04Z</time></trkpt><trkpt lat="39.58675396966017" lon="9.587767958869692"><ele>37.5</ele><time>2026-04-04T13:59:05Z</time></trkpt><trkpt lat="39.58655805070988" lon="9.58797073906989"><ele>30.0</ele><time>2026-04-04T13:59:06Z</time></trkpt><trkpt lat="39.586364700173654" lon="9.588202077215717"><ele>30.5</ele><time>2026-04-04T13:59:07Z</time></trkpt><trkpt lat="39.586171234148075" lon="9.588451662656837"><ele>31.0</ele><time>2026-04-04T13:59:08Z</time></trkpt><trkpt lat="39.585958921487595" lon="9.588691538046344"><ele>31.0</ele><time>2026-04-04T13:59:09Z</time></trkpt><trkpt lat="39.585782071192" lon="9.588940991575285"><ele>31.0</ele><time>2026-04-04T13:59:10Z</time></trkpt><trkpt lat="39.58560389186553" lon="9.589155167887991"><ele>31.0</ele><time>2026-04-04T13:59:10.999Z</time></trkpt><trkpt lat="39.58543188264557" lon="9.589356813979123"><ele>31.0</ele><time>2026-04-04T13:59:11.999Z</time></trkpt><trkpt lat="39.585267093169776" lon="9.589548354700742"><ele>31.333333333333336</ele><time>2026-04-04T13:59:12.999Z</time></trkpt><trkpt lat="39.58510863424094" lon="9.589727307765449"><ele>31.666666666666664</ele><time>2026-04-04T13:59:13.999Z</time></trkpt><trkpt lat="39.58495392643147" lon="9.589900128004501"><ele>32.0</ele><time>2026-04-04T13:59:14.999Z</time></trkpt><trkpt lat="39.584793959805275" lon="9.590067389282776"><ele>32.0</ele><time>2026-04-04T13:59:15.999Z</time></trkpt><trkpt lat="39.58461299871355" lon="9.590203408767305"><ele>32.0</ele><time>2026-04-04T13:59:16.999Z</time></trkpt><trkpt lat="39.58442891752737" lon="9.590334722940296"><ele>32.0</ele><time>2026-04-04T13:59:17.999Z</time></trkpt><trkpt lat="39.58423514680911" lon="9.590446808124973"><ele>30.333333333333332</ele><time>2026-04-04T13:59:18.999Z</time></trkpt><trkpt lat="39.58404091576165" lon="9.590553838479577"><ele>28.666666666666664</ele><time>2026-04-04T13:59:19.999Z</time></trkpt><trkpt lat="39.58382591918637" lon="9.590623822311136"><ele>27.0</ele><time>2026-04-04T13:59:20.999Z</time></trkpt><trkpt lat="39.58360737560683" lon="9.590674507183264"><ele>27.0</ele><time>2026-04-04T13:59:21.999Z</time></trkpt><trkpt lat="39.583392182354" lon="9.590698516739046"><ele>27.0</ele><time>2026-04-04T13:59:22.999Z</time></trkpt><trkpt lat="39.58317013575894" lon="9.59071341165119"><ele>27.0</ele><time>2026-04-04T13:59:23.999Z</time></trkpt><trkpt lat="39.58295119523037" lon="9.590728338346489"><ele>26.666666666666664</ele><time>2026-04-04T13:59:24.999Z</time></trkpt><trkpt lat="39.582731081112954" lon="9.590748130701808"><ele>26.333333333333332</ele><time>2026-04-04T13:59:25.999Z</time></trkpt><trkpt lat="39.58250769961661" lon="9.590774056917754"><ele>26.0</ele><time>2026-04-04T13:59:26.999Z</time></trkpt><trkpt lat="39.58227768403764" lon="9.59080215687146"><ele>26.0</ele><time>2026-04-04T13:59:27.999Z</time></trkpt><trkpt lat="39.58203829407567" lon="9.590826255270485"><ele>26.0</ele><time>2026-04-04T13:59:28.999Z</time></trkpt><trkpt lat="39.581792485150665" lon="9.590840281812168"><ele>26.5</ele><time>2026-04-04T13:59:29.999Z</time></trkpt><trkpt lat="39.5815417158062" lon="9.590839211774366"><ele>27.0</ele><time>2026-04-04T13:59:30.999Z</time></trkpt><trkpt lat="39.581280001068194" lon="9.59079917152972"><ele>27.0</ele><time>2026-04-04T13:59:31.999Z</time></trkpt><trkpt lat="39.580995927656005" lon="9.590783557780385"><ele>27.0</ele><time>2026-04-04T13:59:32.999Z</time></trkpt><trkpt lat="39.580702748507704" lon="9.590741595709007"><ele>27.0</ele><time>2026-04-04T13:59:33.999Z</time></trkpt><trkpt lat="39.58039549866257" lon="9.590703385298328"><ele>27.0</ele><time>2026-04-04T13:59:34.999Z</time></trkpt><trkpt lat="39.58007678463451" lon="9.590641477717334"><ele>27.0</ele><time>2026-04-04T13:59:35.999Z</time></trkpt><trkpt lat="39.579755890555866" lon="9.590598678320456"><ele>27.0</ele><time>2026-04-04T13:59:36.999Z</time></trkpt><trkpt lat="39.57942530381881" lon="9.590556485825145"><ele>25.5</ele><time>2026-04-04T13:59:37.999Z</time></trkpt><trkpt lat="39.57909569040546" lon="9.590543926283331"><ele>24.0</ele><time>2026-04-04T13:59:38.999Z</time></trkpt><trkpt lat="39.57879694963641" lon="9.590493094121786"><ele>24.0</ele><time>2026-04-04T13:59:39.999Z</time></trkpt><trkpt lat="39.57851881608842" lon="9.590452398830221"><ele>24.0</ele><time>2026-04-04T13:59:40.999Z</time></trkpt><trkpt lat="39.578270700963856" lon="9.590421388716676"><ele>24.0</ele><time>2026-04-04T13:59:41.999Z</time></trkpt><trkpt lat="39.578027416684535" lon="9.590392171777319"><ele>24.0</ele><time>2026-04-04T13:59:42.999Z</time></trkpt><trkpt lat="39.57779573512914" lon="9.590362301798004"><ele>24.333333333333336</ele><time>2026-04-04T13:59:43.999Z</time></trkpt><trkpt lat="39.57757461001602" lon="9.59033366298405"><ele>24.666666666666668</ele><time>2026-04-04T13:59:44.999Z</time></trkpt><trkpt lat="39.57736252591417" lon="9.590306030582829"><ele>25.0</ele><time>2026-04-04T13:59:45.999Z</time></trkpt><trkpt lat="39.577156858178505" lon="9.590281777127878"><ele>25.0</ele><time>2026-04-04T13:59:46.999Z</time></trkpt><trkpt lat="39.57696511713361" lon="9.590256428432856"><ele>25.0</ele><time>2026-04-04T13:59:47.999Z</time></trkpt><trkpt lat="39.57678139046077" lon="9.590221069101283"><ele>25.0</ele><time>2026-04-04T13:59:48.999Z</time></trkpt><trkpt lat="39.57660294400465" lon="9.590165475525918"><ele>25.0</ele><time>2026-04-04T13:59:49.999Z</time></trkpt><trkpt lat="39.576430983487086" lon="9.590076395635455"><ele>25.0</ele><time>2026-04-04T13:59:50.999Z</time></trkpt><trkpt lat="39.576268811112776" lon="9.589947044964218"><ele>25.0</ele><time>2026-04-04T13:59:51.999Z</time></trkpt><trkpt lat="39.576114574642105" lon="9.589797140877401"><ele>24.666666666666668</ele><time>2026-04-04T13:59:52.999Z</time></trkpt><trkpt lat="39.5759629961486" lon="9.589613790425604"><ele>24.333333333333336</ele><time>2026-04-04T13:59:53.999Z</time></trkpt><trkpt lat="39.57580920292644" lon="9.589422254602841"><ele>24.0</ele><time>2026-04-04T13:59:54.999Z</time></trkpt><trkpt lat="39.57565330461067" lon="9.589243385517927"><ele>23.666666666666668</ele><time>2026-04-04T13:59:55.999Z</time></trkpt><trkpt lat="39.57550946931167" lon="9.589081777694686"><ele>23.333333333333336</ele><time>2026-04-04T13:59:56.999Z</time></trkpt><trkpt lat="39.57536940770714" lon="9.5889244502989"><ele>23.0</ele><time>2026-04-04T13:59:57.999Z</time></trkpt><trkpt lat="39.57523801936019" lon="9.588781626171734"><ele>23.666666666666668</ele><time>2026-04-04T13:59:58.999Z</time></trkpt><trkpt lat="39.57511957943683" lon="9.588644122401204"><ele>24.333333333333336</ele><time>2026-04-04T13:59:59.999Z</time></trkpt><trkpt lat="39.57500227369839" lon="9.588509251896404"><ele>25.0</ele><time>2026-04-04T14:00:00.999Z</time></trkpt><trkpt lat="39.574890770066375" lon="9.588389665553336"><ele>25.0</ele><time>2026-04-04T14:00:01.999Z</time></trkpt><trkpt lat="39.57478379368928" lon="9.588302125965702"><ele>25.0</ele><time>2026-04-04T14:00:02.999Z</time></trkpt><trkpt lat="39.57467148260975" lon="9.588256710705709"><ele>25.0</ele><time>2026-04-04T14:00:03.999Z</time></trkpt><trkpt lat="39.5745509725086" lon="9.58826208274895"><ele>25.0</ele><time>2026-04-04T14:00:04.999Z</time></trkpt><trkpt lat="39.574418840367244" lon="9.588286591586751"><ele>26.666666666666668</ele><time>2026-04-04T14:00:05.999Z</time></trkpt><trkpt lat="39.574279496721985" lon="9.588355676130188"><ele>28.333333333333336</ele><time>2026-04-04T14:00:06.999Z</time></trkpt><trkpt lat="39.57415097529082" lon="9.588466729420691"><ele>30.0</ele><time>2026-04-04T14:00:07.999Z</time></trkpt><trkpt lat="39.57402727932172" lon="9.58861555025067"><ele>29.333333333333336</ele><time>2026-04-04T14:00:08.999Z</time></trkpt><trkpt lat="39.573886775919945" lon="9.588775527811496"><ele>28.666666666666668</ele><time>2026-04-04T14:00:09.999Z</time></trkpt><trkpt lat="39.5737339605783" lon="9.588936497723871"><ele>28.0</ele><time>2026-04-04T14:00:10.999Z</time></trkpt><trkpt lat="39.573583215408775" lon="9.589087925195164"><ele>28.0</ele><time>2026-04-04T14:00:11.999Z</time></trkpt><trkpt lat="39.57343670559861" lon="9.589230107391053"><ele>28.0</ele><time>2026-04-04T14:00:12.999Z</time></trkpt><trkpt lat="39.5732842101889" lon="9.589376693631857"><ele>28.0</ele><time>2026-04-04T14:00:13.999Z</time></trkpt><trkpt lat="39.57313692270218" lon="9.58953295991141"><ele>27.5</ele><time>2026-04-04T14:00:14.999Z</time></trkpt><trkpt lat="39.57301734783421" lon="9.589672363968608"><ele>27.0</ele><time>2026-04-04T14:00:15.999Z</time></trkpt><trkpt lat="39.572919977633646" lon="9.589787239558408"><ele>26.5</ele><time>2026-04-04T14:00:16.999Z</time></trkpt><trkpt lat="39.57281974687933" lon="9.58987827503075"><ele>26.0</ele><time>2026-04-04T14:00:17.999Z</time></trkpt><trkpt lat="39.57270016860596" lon="9.589932195456965"><ele>26.0</ele><time>2026-04-04T14:00:18.999Z</time></trkpt><trkpt lat="39.5725578368289" lon="9.589958218252686"><ele>26.0</ele><time>2026-04-04T14:00:19.999Z</time></trkpt><trkpt lat="39.57238689048746" lon="9.589936056595826"><ele>26.0</ele><time>2026-04-04T14:00:20.999Z</time></trkpt><trkpt lat="39.572205128527884" lon="9.589894719009058"><ele>25.333333333333332</ele><time>2026-04-04T14:00:21.999Z</time></trkpt><trkpt lat="39.572014432344275" lon="9.58987509184029"><ele>24.666666666666664</ele><time>2026-04-04T14:00:22.999Z</time></trkpt><trkpt lat="39.57182495485098" lon="9.589915373398243"><ele>24.0</ele><time>2026-04-04T14:00:23.999Z</time></trkpt><trkpt lat="39.57165296642942" lon="9.590002437997141"><ele>24.0</ele><time>2026-04-04T14:00:24.999Z</time></trkpt><trkpt lat="39.571492701835254" lon="9.590080057457657"><ele>24.0</ele><time>2026-04-04T14:00:25.999Z</time></trkpt><trkpt lat="39.571329762303634" lon="9.590123919950775"><ele>24.0</ele><time>2026-04-04T14:00:26.999Z</time></trkpt><trkpt lat="39.5711508920267" lon="9.590133405856168"><ele>24.666666666666664</ele><time>2026-04-04T14:00:27.999Z</time></trkpt><trkpt lat="39.570954814263786" lon="9.590118792188811"><ele>25.333333333333332</ele><time>2026-04-04T14:00:28.999Z</time></trkpt><trkpt lat="39.57074532338393" lon="9.590089986935174"><ele>26.0</ele><time>2026-04-04T14:00:29.999Z</time></trkpt><trkpt lat="39.570532669801224" lon="9.590055591504443"><ele>25.0</ele><time>2026-04-04T14:00:30.999Z</time></trkpt><trkpt lat="39.57032265958261" lon="9.590022924884188"><ele>24.0</ele><time>2026-04-04T14:00:31.999Z</time></trkpt><trkpt lat="39.5701021136729" lon="9.589988358034345"><ele>23.0</ele><time>2026-04-04T14:00:32.999Z</time></trkpt><trkpt lat="39.56985825094265" lon="9.589953808437922"><ele>23.0</ele><time>2026-04-04T14:00:33.999Z</time></trkpt><trkpt lat="39.56960825972229" lon="9.589914025930742"><ele>23.0</ele><time>2026-04-04T14:00:34.999Z</time></trkpt><trkpt lat="39.56935559871204" lon="9.589874967377554"><ele>21.5</ele><time>2026-04-04T14:00:35.999Z</time></trkpt><trkpt lat="39.56911194664103" lon="9.589836644273918"><ele>20.0</ele><time>2026-04-04T14:00:36.999Z</time></trkpt><trkpt lat="39.56886796364053" lon="9.589798540236883"><ele>21.5</ele><time>2026-04-04T14:00:37.999Z</time></trkpt><trkpt lat="39.568625751257" lon="9.589759008957095"><ele>23.0</ele><time>2026-04-04T14:00:38.999Z</time></trkpt><trkpt lat="39.56840008657724" lon="9.589720232657035"><ele>23.0</ele><time>2026-04-04T14:00:40Z</time></trkpt><trkpt lat="39.56818578765184" lon="9.589683125236064"><ele>23.0</ele><time>2026-04-04T14:00:41Z</time></trkpt><trkpt lat="39.567984355358575" lon="9.589653320312172"><ele>23.0</ele><time>2026-04-04T14:00:42Z</time></trkpt><trkpt lat="39.56778141010606" lon="9.589622815261535"><ele>23.333333333333336</ele><time>2026-04-04T14:00:43Z</time></trkpt><trkpt lat="39.567582853864" lon="9.589593508533522"><ele>23.666666666666668</ele><time>2026-04-04T14:00:44Z</time></trkpt><trkpt lat="39.56738767515078" lon="9.589565346112384"><ele>24.0</ele><time>2026-04-04T14:00:45Z</time></trkpt><trkpt lat="39.56719575427676" lon="9.589537274777165"><ele>23.666666666666668</ele><time>2026-04-04T14:00:46Z</time></trkpt><trkpt lat="39.567006368977786" lon="9.589505993029427"><ele>23.333333333333336</ele><time>2026-04-04T14:00:47Z</time></trkpt><trkpt lat="39.56682168690222" lon="9.589469508712728"><ele>23.0</ele><time>2026-04-04T14:00:48Z</time></trkpt><trkpt lat="39.566632457662564" lon="9.589408420602718"><ele>23.0</ele><time>2026-04-04T14:00:49Z</time></trkpt><trkpt lat="39.56643982934479" lon="9.589311708962327"><ele>23.0</ele><time>2026-04-04T14:00:50Z</time></trkpt><trkpt lat="39.56624584572327" lon="9.58916803711776"><ele>23.0</ele><time>2026-04-04T14:00:51Z</time></trkpt><trkpt lat="39.5660432823723" lon="9.588993469112022"><ele>22.5</ele><time>2026-04-04T14:00:52Z</time></trkpt><trkpt lat="39.56582814430421" lon="9.58882161024162"><ele>22.0</ele><time>2026-04-04T14:00:53Z</time></trkpt><trkpt lat="39.565598767188874" lon="9.58864802048168"><ele>22.0</ele><time>2026-04-04T14:00:54Z</time></trkpt><trkpt lat="39.565366562209604" lon="9.588474473638176"><ele>22.0</ele><time>2026-04-04T14:00:55Z</time></trkpt><trkpt lat="39.56514762152346" lon="9.588310565301287"><ele>21.0</ele><time>2026-04-04T14:00:56Z</time></trkpt><trkpt lat="39.564938301956296" lon="9.588151633087968"><ele>20.0</ele><time>2026-04-04T14:00:57Z</time></trkpt><trkpt lat="39.564726649962935" lon="9.587988191226168"><ele>20.0</ele><time>2026-04-04T14:00:58Z</time></trkpt><trkpt lat="39.56451595665682" lon="9.58782505017474"><ele>20.0</ele><time>2026-04-04T14:00:59Z</time></trkpt><trkpt lat="39.56431236661327" lon="9.587664902757332"><ele>20.0</ele><time>2026-04-04T14:01:00Z</time></trkpt><trkpt lat="39.56411725707044" lon="9.587515536781874"><ele>20.0</ele><time>2026-04-04T14:01:01Z</time></trkpt><trkpt lat="39.56393564983252" lon="9.587377532035111"><ele>20.0</ele><time>2026-04-04T14:01:02Z</time></trkpt><trkpt lat="39.563774416794395" lon="9.587254609486205"><ele>19.333333333333336</ele><time>2026-04-04T14:01:03Z</time></trkpt><trkpt lat="39.56363274470403" lon="9.587161023419569"><ele>18.666666666666668</ele><time>2026-04-04T14:01:04Z</time></trkpt><trkpt lat="39.56349311409959" lon="9.587102204390355"><ele>18.0</ele><time>2026-04-04T14:01:05Z</time></trkpt><trkpt lat="39.563348674051596" lon="9.587092690244468"><ele>18.0</ele><time>2026-04-04T14:01:06Z</time></trkpt><trkpt lat="39.56319227274749" lon="9.587120144035252"><ele>18.0</ele><time>2026-04-04T14:01:07Z</time></trkpt><trkpt lat="39.56303226489969" lon="9.587171190836745"><ele>18.0</ele><time>2026-04-04T14:01:08Z</time></trkpt><trkpt lat="39.56286281593838" lon="9.587220170206608"><ele>18.25</ele><time>2026-04-04T14:01:09Z</time></trkpt><trkpt lat="39.56269900368784" lon="9.587243273407191"><ele>18.5</ele><time>2026-04-04T14:01:10Z</time></trkpt><trkpt lat="39.562551784079524" lon="9.587235045098332"><ele>18.75</ele><time>2026-04-04T14:01:11Z</time></trkpt><trkpt lat="39.56241902658823" lon="9.58722264632494"><ele>19.0</ele><time>2026-04-04T14:01:12Z</time></trkpt><trkpt lat="39.56229303317884" lon="9.587224609045052"><ele>19.0</ele><time>2026-04-04T14:01:13Z</time></trkpt><trkpt lat="39.56218592531497" lon="9.587212252356322"><ele>19.0</ele><time>2026-04-04T14:01:14Z</time></trkpt><trkpt lat="39.562100182944526" lon="9.587154956060187"><ele>19.0</ele><time>2026-04-04T14:01:15Z</time></trkpt><trkpt lat="39.56203720574893" lon="9.587059655328385"><ele>19.0</ele><time>2026-04-04T14:01:16Z</time></trkpt><trkpt lat="39.56198958918272" lon="9.58693448726643"><ele>19.0</ele><time>2026-04-04T14:01:17Z</time></trkpt><trkpt lat="39.561963792779736" lon="9.586786922005057"><ele>19.5</ele><time>2026-04-04T14:01:18Z</time></trkpt><trkpt lat="39.56195510859743" lon="9.586626443266994"><ele>20.0</ele><time>2026-04-04T14:01:19Z</time></trkpt><trkpt lat="39.5619331889152" lon="9.586444917926107"><ele>20.5</ele><time>2026-04-04T14:01:20Z</time></trkpt><trkpt lat="39.56191366680405" lon="9.586274574917505"><ele>21.0</ele><time>2026-04-04T14:01:21Z</time></trkpt><trkpt lat="39.56189890643006" lon="9.586093705992859"><ele>23.0</ele><time>2026-04-04T14:01:22Z</time></trkpt><trkpt lat="39.56189236830369" lon="9.585911477173614"><ele>25.0</ele><time>2026-04-04T14:01:23Z</time></trkpt><trkpt lat="39.561893243416186" lon="9.585715520490378"><ele>27.0</ele><time>2026-04-04T14:01:24Z</time></trkpt><trkpt lat="39.561905800251" lon="9.585504389458823"><ele>26.75</ele><time>2026-04-04T14:01:25Z</time></trkpt><trkpt lat="39.561919065176376" lon="9.585290114531277"><ele>26.5</ele><time>2026-04-04T14:01:26Z</time></trkpt><trkpt lat="39.56194940070528" lon="9.585128964969426"><ele>26.25</ele><time>2026-04-04T14:01:27Z</time></trkpt><trkpt lat="39.56199180896646" lon="9.584970089484305"><ele>26.0</ele><time>2026-04-04T14:01:28Z</time></trkpt><trkpt lat="39.56205692521759" lon="9.58481670158094"><ele>26.0</ele><time>2026-04-04T14:01:29Z</time></trkpt><trkpt lat="39.562149469188256" lon="9.584692313387128"><ele>26.0</ele><time>2026-04-04T14:01:30Z</time></trkpt><trkpt lat="39.562259753451144" lon="9.584613836283737"><ele>26.0</ele><time>2026-04-04T14:01:31Z</time></trkpt><trkpt lat="39.562388342084894" lon="9.584572336148652"><ele>26.0</ele><time>2026-04-04T14:01:32Z</time></trkpt><trkpt lat="39.562524825252844" lon="9.584577770303863"><ele>26.0</ele><time>2026-04-04T14:01:33Z</time></trkpt><trkpt lat="39.56264510043891" lon="9.584633812917156"><ele>26.0</ele><time>2026-04-04T14:01:34Z</time></trkpt><trkpt lat="39.56274932380762" lon="9.58472881357165"><ele>26.0</ele><time>2026-04-04T14:01:35Z</time></trkpt><trkpt lat="39.56282773427023" lon="9.584853172131405"><ele>26.0</ele><time>2026-04-04T14:01:36Z</time></trkpt><trkpt lat="39.56287191494425" lon="9.584983674344308"><ele>25.0</ele><time>2026-04-04T14:01:37Z</time></trkpt><trkpt lat="39.5628863762128" lon="9.58512669408137"><ele>24.0</ele><time>2026-04-04T14:01:38Z</time></trkpt><trkpt lat="39.56287351956698" lon="9.585277547933746"><ele>23.0</ele><time>2026-04-04T14:01:39Z</time></trkpt><trkpt lat="39.56283131507802" lon="9.585426669140109"><ele>22.0</ele><time>2026-04-04T14:01:40Z</time></trkpt><trkpt lat="39.562761912402756" lon="9.585562286722883"><ele>22.0</ele><time>2026-04-04T14:01:41Z</time></trkpt><trkpt lat="39.56266773520171" lon="9.585667558095581"><ele>22.0</ele><time>2026-04-04T14:01:42Z</time></trkpt><trkpt lat="39.56255428869152" lon="9.585741676915001"><ele>22.0</ele><time>2026-04-04T14:01:43Z</time></trkpt><trkpt lat="39.56242794551758" lon="9.585787756315378"><ele>22.0</ele><time>2026-04-04T14:01:44Z</time></trkpt><trkpt lat="39.5622973902175" lon="9.585798333960003"><ele>22.0</ele><time>2026-04-04T14:01:45Z</time></trkpt><trkpt lat="39.56216462078895" lon="9.585774779194507"><ele>22.0</ele><time>2026-04-04T14:01:46Z</time></trkpt><trkpt lat="39.562019115316694" lon="9.585742509616244"><ele>22.0</ele><time>2026-04-04T14:01:47Z</time></trkpt><trkpt lat="39.561836838355205" lon="9.585724294651488"><ele>23.666666666666664</ele><time>2026-04-04T14:01:48Z</time></trkpt><trkpt lat="39.56163650772928" lon="9.58572067763118"><ele>25.333333333333332</ele><time>2026-04-04T14:01:49Z</time></trkpt><trkpt lat="39.56142510582446" lon="9.585724301631542"><ele>27.0</ele><time>2026-04-04T14:01:50Z</time></trkpt><trkpt lat="39.561204928743294" lon="9.585725057049338"><ele>31.5</ele><time>2026-04-04T14:01:51Z</time></trkpt><trkpt lat="39.56097836690735" lon="9.585733671629812"><ele>36.0</ele><time>2026-04-04T14:01:52Z</time></trkpt><trkpt lat="39.5607335696583" lon="9.585748837162837"><ele>36.0</ele><time>2026-04-04T14:01:53Z</time></trkpt><trkpt lat="39.560488517337184" lon="9.585773851591403"><ele>36.0</ele><time>2026-04-04T14:01:54Z</time></trkpt><trkpt lat="39.56024826056669" lon="9.585808571299788"><ele>35.5</ele><time>2026-04-04T14:01:55Z</time></trkpt><trkpt lat="39.559995877074755" lon="9.585859967629936"><ele>35.0</ele><time>2026-04-04T14:01:56Z</time></trkpt><trkpt lat="39.55974149937986" lon="9.585925397091568"><ele>33.0</ele><time>2026-04-04T14:01:57Z</time></trkpt><trkpt lat="39.559486396326584" lon="9.586004826702657"><ele>31.0</ele><time>2026-04-04T14:01:58Z</time></trkpt><trkpt lat="39.55923559621262" lon="9.586094939592096"><ele>32.0</ele><time>2026-04-04T14:01:59Z</time></trkpt><trkpt lat="39.55898112329305" lon="9.586194730044232"><ele>33.0</ele><time>2026-04-04T14:02:00Z</time></trkpt><trkpt lat="39.55873068422163" lon="9.586298793684914"><ele>29.0</ele><time>2026-04-04T14:02:01Z</time></trkpt><trkpt lat="39.55847714965652" lon="9.586407450272501"><ele>25.0</ele><time>2026-04-04T14:02:02Z</time></trkpt><trkpt lat="39.55822348280777" lon="9.586516323700675"><ele>25.0</ele><time>2026-04-04T14:02:03Z</time></trkpt><trkpt lat="39.55797124807551" lon="9.586624675459475"><ele>25.0</ele><time>2026-04-04T14:02:04Z</time></trkpt><trkpt lat="39.557718653234886" lon="9.586734210049483"><ele>23.5</ele><time>2026-04-04T14:02:05Z</time></trkpt><trkpt lat="39.557469340455825" lon="9.58684520023897"><ele>22.0</ele><time>2026-04-04T14:02:06Z</time></trkpt><trkpt lat="39.55721890534174" lon="9.586960194968928"><ele>23.0</ele><time>2026-04-04T14:02:07Z</time></trkpt><trkpt lat="39.55698214104864" lon="9.587069940493906"><ele>24.0</ele><time>2026-04-04T14:02:08Z</time></trkpt><trkpt lat="39.55676071760334" lon="9.58716551024472"><ele>24.0</ele><time>2026-04-04T14:02:09Z</time></trkpt><trkpt lat="39.55654072391991" lon="9.587260979233909"><ele>24.0</ele><time>2026-04-04T14:02:10Z</time></trkpt><trkpt lat="39.55631776533229" lon="9.5873576360804"><ele>26.0</ele><time>2026-04-04T14:02:11Z</time></trkpt><trkpt lat="39.55609077329967" lon="9.587459431712459"><ele>28.0</ele><time>2026-04-04T14:02:12Z</time></trkpt><trkpt lat="39.555860935811246" lon="9.587561088717806"><ele>28.0</ele><time>2026-04-04T14:02:13Z</time></trkpt><trkpt lat="39.55562747888827" lon="9.587664826052052"><ele>28.0</ele><time>2026-04-04T14:02:14Z</time></trkpt><trkpt lat="39.555395327638436" lon="9.587767853768362"><ele>31.0</ele><time>2026-04-04T14:02:14.999Z</time></trkpt><trkpt lat="39.555159123673604" lon="9.587874175448817"><ele>34.0</ele><time>2026-04-04T14:02:15.999Z</time></trkpt><trkpt lat="39.554925640890296" lon="9.587976328462045"><ele>34.0</ele><time>2026-04-04T14:02:16.999Z</time></trkpt><trkpt lat="39.5546902397685" lon="9.588078338687165"><ele>34.0</ele><time>2026-04-04T14:02:17.999Z</time></trkpt><trkpt lat="39.55445154041141" lon="9.588180816018175"><ele>40.0</ele><time>2026-04-04T14:02:18.999Z</time></trkpt><trkpt lat="39.55421421534992" lon="9.58828130896586"><ele>46.0</ele><time>2026-04-04T14:02:19.999Z</time></trkpt><trkpt lat="39.553979462070195" lon="9.588383929052574"><ele>46.0</ele><time>2026-04-04T14:02:20.999Z</time></trkpt><trkpt lat="39.553752161442105" lon="9.588485816289019"><ele>46.0</ele><time>2026-04-04T14:02:21.999Z</time></trkpt><trkpt lat="39.5535261346556" lon="9.58858738072819"><ele>42.5</ele><time>2026-04-04T14:02:22.999Z</time></trkpt><trkpt lat="39.55329743195369" lon="9.588686866018087"><ele>39.0</ele><time>2026-04-04T14:02:23.999Z</time></trkpt><trkpt lat="39.553066731894745" lon="9.58878764476013"><ele>34.5</ele><time>2026-04-04T14:02:24.999Z</time></trkpt><trkpt lat="39.55284041715713" lon="9.588887195629667"><ele>30.0</ele><time>2026-04-04T14:02:25.999Z</time></trkpt><trkpt lat="39.55260846717636" lon="9.58898916513533"><ele>30.0</ele><time>2026-04-04T14:02:26.999Z</time></trkpt><trkpt lat="39.552376007120735" lon="9.589091894451135"><ele>30.0</ele><time>2026-04-04T14:02:27.999Z</time></trkpt><trkpt lat="39.55213918115872" lon="9.589194912780963"><ele>29.0</ele><time>2026-04-04T14:02:28.999Z</time></trkpt><trkpt lat="39.551901696777264" lon="9.589301241160557"><ele>28.0</ele><time>2026-04-04T14:02:29.999Z</time></trkpt><trkpt lat="39.551662865310206" lon="9.589408036758169"><ele>26.5</ele><time>2026-04-04T14:02:30.999Z</time></trkpt><trkpt lat="39.5514319042984" lon="9.589511456879315"><ele>25.0</ele><time>2026-04-04T14:02:31.999Z</time></trkpt><trkpt lat="39.551205770227654" lon="9.589610637473555"><ele>24.5</ele><time>2026-04-04T14:02:32.999Z</time></trkpt><trkpt lat="39.55097802582904" lon="9.589708857257383"><ele>24.0</ele><time>2026-04-04T14:02:33.999Z</time></trkpt><trkpt lat="39.55075148669667" lon="9.58980690939731"><ele>24.0</ele><time>2026-04-04T14:02:34.999Z</time></trkpt><trkpt lat="39.55052334184837" lon="9.58990655031953"><ele>24.0</ele><time>2026-04-04T14:02:35.999Z</time></trkpt><trkpt lat="39.55029717337492" lon="9.590004047115011"><ele>27.5</ele><time>2026-04-04T14:02:36.999Z</time></trkpt><trkpt lat="39.55006452716364" lon="9.590105015527257"><ele>31.0</ele><time>2026-04-04T14:02:37.999Z</time></trkpt><trkpt lat="39.549827991366335" lon="9.59020931519474"><ele>31.0</ele><time>2026-04-04T14:02:38.999Z</time></trkpt><trkpt lat="39.54958835058543" lon="9.59031477787704"><ele>31.0</ele><time>2026-04-04T14:02:39.999Z</time></trkpt><trkpt lat="39.54934535417983" lon="9.59042214424367"><ele>30.5</ele><time>2026-04-04T14:02:40.999Z</time></trkpt><trkpt lat="39.54909791526138" lon="9.590530943843246"><ele>30.0</ele><time>2026-04-04T14:02:41.999Z</time></trkpt><trkpt lat="39.54884702445206" lon="9.590640041136744"><ele>31.0</ele><time>2026-04-04T14:02:42.999Z</time></trkpt><trkpt lat="39.548598810441895" lon="9.590748302617843"><ele>32.0</ele><time>2026-04-04T14:02:43.999Z</time></trkpt><trkpt lat="39.54834776187417" lon="9.590856155373599"><ele>32.0</ele><time>2026-04-04T14:02:44.999Z</time></trkpt><trkpt lat="39.54809276822128" lon="9.590960324739306"><ele>32.0</ele><time>2026-04-04T14:02:46Z</time></trkpt><trkpt lat="39.54784194886593" lon="9.591058748639202"><ele>31.0</ele><time>2026-04-04T14:02:47Z</time></trkpt><trkpt lat="39.547597314524445" lon="9.591156110349544"><ele>30.0</ele><time>2026-04-04T14:02:48Z</time></trkpt><trkpt lat="39.5473374792689" lon="9.591251151235511"><ele>27.0</ele><time>2026-04-04T14:02:49Z</time></trkpt><trkpt lat="39.54708311544961" lon="9.59134203730339"><ele>24.0</ele><time>2026-04-04T14:02:50Z</time></trkpt><trkpt lat="39.54683009861979" lon="9.591430100808699"><ele>24.0</ele><time>2026-04-04T14:02:51Z</time></trkpt><trkpt lat="39.54658136929443" lon="9.59151299887094"><ele>24.0</ele><time>2026-04-04T14:02:52Z</time></trkpt><trkpt lat="39.546331096465494" lon="9.591590475389904"><ele>27.5</ele><time>2026-04-04T14:02:53Z</time></trkpt><trkpt lat="39.546081232914325" lon="9.591659404118431"><ele>31.0</ele><time>2026-04-04T14:02:54Z</time></trkpt><trkpt lat="39.54583493518017" lon="9.59172284310826"><ele>31.0</ele><time>2026-04-04T14:02:55Z</time></trkpt><trkpt lat="39.545596419225504" lon="9.591780361116967"><ele>31.0</ele><time>2026-04-04T14:02:56Z</time></trkpt><trkpt lat="39.54535572567728" lon="9.591830723745353"><ele>33.5</ele><time>2026-04-04T14:02:57Z</time></trkpt><trkpt lat="39.54511036277161" lon="9.591877789228736"><ele>36.0</ele><time>2026-04-04T14:02:58Z</time></trkpt><trkpt lat="39.54485722715874" lon="9.591921373328969"><ele>36.0</ele><time>2026-04-04T14:02:59Z</time></trkpt><trkpt lat="39.54460695110841" lon="9.591961062574558"><ele>36.0</ele><time>2026-04-04T14:03:00Z</time></trkpt><trkpt lat="39.54435341622146" lon="9.591998672356787"><ele>28.5</ele><time>2026-04-04T14:03:01Z</time></trkpt><trkpt lat="39.54410179767779" lon="9.592033790242636"><ele>21.0</ele><time>2026-04-04T14:03:02Z</time></trkpt><trkpt lat="39.54384945633294" lon="9.59206393068716"><ele>21.5</ele><time>2026-04-04T14:03:03Z</time></trkpt><trkpt lat="39.543595879044126" lon="9.592086105709557"><ele>22.0</ele><time>2026-04-04T14:03:04Z</time></trkpt><trkpt lat="39.54333973451847" lon="9.592101691503956"><ele>22.0</ele><time>2026-04-04T14:03:05Z</time></trkpt><trkpt lat="39.54308496680216" lon="9.592114345928522"><ele>22.0</ele><time>2026-04-04T14:03:06Z</time></trkpt><trkpt lat="39.542830470851406" lon="9.592119710192511"><ele>19.5</ele><time>2026-04-04T14:03:07Z</time></trkpt><trkpt lat="39.542574677931" lon="9.592119235288585"><ele>17.0</ele><time>2026-04-04T14:03:08Z</time></trkpt><trkpt lat="39.54232023754448" lon="9.592118576376064"><ele>17.0</ele><time>2026-04-04T14:03:09Z</time></trkpt><trkpt lat="39.54206940153118" lon="9.592113999254247"><ele>17.0</ele><time>2026-04-04T14:03:10Z</time></trkpt><trkpt lat="39.5418243442969" lon="9.59210580588245"><ele>21.0</ele><time>2026-04-04T14:03:11Z</time></trkpt><trkpt lat="39.541582186043875" lon="9.592094406382234"><ele>25.0</ele><time>2026-04-04T14:03:12Z</time></trkpt><trkpt lat="39.541336777834886" lon="9.592079413578007"><ele>27.0</ele><time>2026-04-04T14:03:13Z</time></trkpt><trkpt lat="39.541086788717834" lon="9.592062295751296"><ele>29.0</ele><time>2026-04-04T14:03:14Z</time></trkpt><trkpt lat="39.54083392360844" lon="9.592044262898611"><ele>29.0</ele><time>2026-04-04T14:03:15Z</time></trkpt><trkpt lat="39.54057895985714" lon="9.592019584992688"><ele>29.0</ele><time>2026-04-04T14:03:16Z</time></trkpt><trkpt lat="39.540324491994085" lon="9.59199296170914"><ele>37.5</ele><time>2026-04-04T14:03:17Z</time></trkpt><trkpt lat="39.540081294093255" lon="9.591965572557667"><ele>46.0</ele><time>2026-04-04T14:03:18Z</time></trkpt><trkpt lat="39.53983986861262" lon="9.591936731707568"><ele>46.0</ele><time>2026-04-04T14:03:19Z</time></trkpt><trkpt lat="39.539596611726274" lon="9.591907190427678"><ele>46.0</ele><time>2026-04-04T14:03:20Z</time></trkpt><trkpt lat="39.53934590414633" lon="9.591876101114861"><ele>38.0</ele><time>2026-04-04T14:03:21Z</time></trkpt><trkpt lat="39.53909513534035" lon="9.591844405509141"><ele>30.0</ele><time>2026-04-04T14:03:22Z</time></trkpt><trkpt lat="39.53884489259567" lon="9.591819053540316"><ele>29.5</ele><time>2026-04-04T14:03:23Z</time></trkpt><trkpt lat="39.53858810350308" lon="9.591790082679026"><ele>29.0</ele><time>2026-04-04T14:03:24Z</time></trkpt><trkpt lat="39.53833260577243" lon="9.591755616224726"><ele>29.0</ele><time>2026-04-04T14:03:25Z</time></trkpt><trkpt lat="39.53807329942803" lon="9.591720231589507"><ele>29.0</ele><time>2026-04-04T14:03:26Z</time></trkpt><trkpt lat="39.53782142288382" lon="9.591687375946684"><ele>29.5</ele><time>2026-04-04T14:03:27Z</time></trkpt><trkpt lat="39.53756720711407" lon="9.591655964239257"><ele>30.0</ele><time>2026-04-04T14:03:28Z</time></trkpt><trkpt lat="39.53731449999137" lon="9.591626135207672"><ele>30.0</ele><time>2026-04-04T14:03:29Z</time></trkpt><trkpt lat="39.53706221856978" lon="9.591594405078451"><ele>30.0</ele><time>2026-04-04T14:03:30Z</time></trkpt><trkpt lat="39.53680924469896" lon="9.591562327105851"><ele>25.5</ele><time>2026-04-04T14:03:31Z</time></trkpt><trkpt lat="39.53655774290612" lon="9.5915274969586"><ele>21.0</ele><time>2026-04-04T14:03:32Z</time></trkpt><trkpt lat="39.53630700938691" lon="9.591488809531727"><ele>18.0</ele><time>2026-04-04T14:03:33Z</time></trkpt><trkpt lat="39.53605904826496" lon="9.591444885807496"><ele>15.0</ele><time>2026-04-04T14:03:34Z</time></trkpt><trkpt lat="39.535811955935856" lon="9.591395306747799"><ele>15.0</ele><time>2026-04-04T14:03:35Z</time></trkpt><trkpt lat="39.535569526436426" lon="9.591340240199248"><ele>15.0</ele><time>2026-04-04T14:03:36Z</time></trkpt><trkpt lat="39.53532462362988" lon="9.591281449475003"><ele>18.0</ele><time>2026-04-04T14:03:37Z</time></trkpt><trkpt lat="39.53508168664605" lon="9.59121883943128"><ele>21.0</ele><time>2026-04-04T14:03:38Z</time></trkpt><trkpt lat="39.534836363881766" lon="9.591152239937088"><ele>26.0</ele><time>2026-04-04T14:03:39Z</time></trkpt><trkpt lat="39.53459967435779" lon="9.591084519241592"><ele>31.0</ele><time>2026-04-04T14:03:40Z</time></trkpt><trkpt lat="39.53435689810358" lon="9.591012689537376"><ele>31.0</ele><time>2026-04-04T14:03:41Z</time></trkpt><trkpt lat="39.534116592213174" lon="9.590936337740688"><ele>31.0</ele><time>2026-04-04T14:03:42Z</time></trkpt><trkpt lat="39.53387532421779" lon="9.59085304983413"><ele>25.5</ele><time>2026-04-04T14:03:43Z</time></trkpt><trkpt lat="39.53363332289068" lon="9.590764899829946"><ele>20.0</ele><time>2026-04-04T14:03:44Z</time></trkpt><trkpt lat="39.53338883464624" lon="9.590670018502776"><ele>20.0</ele><time>2026-04-04T14:03:45Z</time></trkpt><trkpt lat="39.53315082630381" lon="9.590573896802093"><ele>20.0</ele><time>2026-04-04T14:03:46Z</time></trkpt><trkpt lat="39.532910083504106" lon="9.590474664856279"><ele>20.5</ele><time>2026-04-04T14:03:47Z</time></trkpt><trkpt lat="39.53267203217176" lon="9.5903727970752"><ele>21.0</ele><time>2026-04-04T14:03:48Z</time></trkpt><trkpt lat="39.53243369797644" lon="9.590268182910732"><ele>24.0</ele><time>2026-04-04T14:03:49Z</time></trkpt><trkpt lat="39.532196440663064" lon="9.590160147361388"><ele>27.0</ele><time>2026-04-04T14:03:50Z</time></trkpt><trkpt lat="39.53195871469448" lon="9.590049081392353"><ele>27.0</ele><time>2026-04-04T14:03:51Z</time></trkpt><trkpt lat="39.53172215707682" lon="9.589939963763511"><ele>27.0</ele><time>2026-04-04T14:03:52Z</time></trkpt><trkpt lat="39.53148334206867" lon="9.589828932415996"><ele>27.0</ele><time>2026-04-04T14:03:53Z</time></trkpt><trkpt lat="39.53124576358787" lon="9.589719942024203"><ele>27.0</ele><time>2026-04-04T14:03:54Z</time></trkpt><trkpt lat="39.53101419298624" lon="9.58961245488548"><ele>35.0</ele><time>2026-04-04T14:03:55Z</time></trkpt><trkpt lat="39.53078128415198" lon="9.589502705642564"><ele>43.0</ele><time>2026-04-04T14:03:56Z</time></trkpt><trkpt lat="39.53054612827234" lon="9.589393760981286"><ele>46.5</ele><time>2026-04-04T14:03:57Z</time></trkpt><trkpt lat="39.5303226177677" lon="9.589293990040499"><ele>50.0</ele><time>2026-04-04T14:03:58Z</time></trkpt><trkpt lat="39.530098333700636" lon="9.58919737328751"><ele>50.0</ele><time>2026-04-04T14:03:59Z</time></trkpt><trkpt lat="39.52987026903724" lon="9.589108190118148"><ele>50.0</ele><time>2026-04-04T14:04:00Z</time></trkpt><trkpt lat="39.52964877753466" lon="9.588982720802905"><ele>46.5</ele><time>2026-04-04T14:04:01Z</time></trkpt><trkpt lat="39.529423199816236" lon="9.588876487871913"><ele>43.0</ele><time>2026-04-04T14:04:02Z</time></trkpt><trkpt lat="39.52918625640595" lon="9.588764819584018"><ele>37.0</ele><time>2026-04-04T14:04:03.077Z</time></trkpt><trkpt lat="39.52896222592099" lon="9.588659466984831"><ele>31.0</ele><time>2026-04-04T14:04:04.075Z</time></trkpt><trkpt lat="39.528738078463235" lon="9.588554359490496"><ele>19.0</ele><time>2026-04-04T14:04:05.073Z</time></trkpt><trkpt lat="39.5282020698927" lon="9.588301172446668"><ele>19.0</ele><time>2026-04-04T14:04:06.999Z</time></trkpt><trkpt lat="39.52796214831988" lon="9.58819454156823"><ele>19.0</ele><time>2026-04-04T14:04:07.999Z</time></trkpt><trkpt lat="39.52772553650239" lon="9.588085406553391"><ele>16.5</ele><time>2026-04-04T14:04:08.999Z</time></trkpt><trkpt lat="39.527500944575394" lon="9.587988687646552"><ele>14.0</ele><time>2026-04-04T14:04:09.999Z</time></trkpt><trkpt lat="39.527271937561935" lon="9.587885888389714"><ele>11.5</ele><time>2026-04-04T14:04:10.999Z</time></trkpt><trkpt lat="39.52704494330334" lon="9.587790820975977"><ele>9.0</ele><time>2026-04-04T14:04:11.999Z</time></trkpt><trkpt lat="39.52681971805153" lon="9.587697040573582"><ele>9.0</ele><time>2026-04-04T14:04:12.999Z</time></trkpt><trkpt lat="39.52659263644209" lon="9.587610507980143"><ele>9.0</ele><time>2026-04-04T14:04:13.999Z</time></trkpt><trkpt lat="39.526365200928836" lon="9.587527512401067"><ele>10.0</ele><time>2026-04-04T14:04:14.999Z</time></trkpt><trkpt lat="39.526131579692816" lon="9.587450372991649"><ele>11.0</ele><time>2026-04-04T14:04:15.999Z</time></trkpt><trkpt lat="39.52589913001533" lon="9.587377465674647"><ele>11.0</ele><time>2026-04-04T14:04:16.999Z</time></trkpt><trkpt lat="39.525658621968965" lon="9.587308312055049"><ele>11.0</ele><time>2026-04-04T14:04:17.999Z</time></trkpt><trkpt lat="39.52541923224681" lon="9.58724615592941"><ele>12.0</ele><time>2026-04-04T14:04:18.999Z</time></trkpt><trkpt lat="39.525178033234916" lon="9.587191501400271"><ele>13.0</ele><time>2026-04-04T14:04:19.999Z</time></trkpt><trkpt lat="39.52493755964958" lon="9.587143621054096"><ele>13.0</ele><time>2026-04-04T14:04:20.999Z</time></trkpt><trkpt lat="39.52470274644895" lon="9.587110905679816"><ele>13.0</ele><time>2026-04-04T14:04:21.999Z</time></trkpt><trkpt lat="39.52446404462304" lon="9.587083111746441"><ele>13.0</ele><time>2026-04-04T14:04:22.999Z</time></trkpt><trkpt lat="39.52422199821893" lon="9.587064916652126"><ele>13.0</ele><time>2026-04-04T14:04:23.999Z</time></trkpt><trkpt lat="39.52397944113279" lon="9.587053726831824"><ele>13.0</ele><time>2026-04-04T14:04:24.999Z</time></trkpt><trkpt lat="39.52373375976726" lon="9.587051228387052"><ele>13.0</ele><time>2026-04-04T14:04:25.999Z</time></trkpt><trkpt lat="39.52348356960019" lon="9.587056497254494"><ele>19.0</ele><time>2026-04-04T14:04:26.999Z</time></trkpt><trkpt lat="39.52323507786264" lon="9.587066426859288"><ele>25.0</ele><time>2026-04-04T14:04:27.999Z</time></trkpt><trkpt lat="39.52298806939008" lon="9.587084688130576"><ele>34.5</ele><time>2026-04-04T14:04:28.999Z</time></trkpt><trkpt lat="39.52273959972614" lon="9.587111134481525"><ele>44.0</ele><time>2026-04-04T14:04:29.999Z</time></trkpt><trkpt lat="39.522491073554754" lon="9.587145745815896"><ele>44.0</ele><time>2026-04-04T14:04:30.999Z</time></trkpt><trkpt lat="39.52224564212643" lon="9.587184297442777"><ele>44.0</ele><time>2026-04-04T14:04:31.999Z</time></trkpt><trkpt lat="39.52199665484016" lon="9.587224372643677"><ele>50.0</ele><time>2026-04-04T14:04:32.999Z</time></trkpt><trkpt lat="39.521744848479614" lon="9.587260325595121"><ele>56.0</ele><time>2026-04-04T14:04:33.999Z</time></trkpt><trkpt lat="39.521476082215834" lon="9.587301225805012"><ele>48.5</ele><time>2026-04-04T14:04:35.073Z</time></trkpt><trkpt lat="39.52122582148232" lon="9.58734023486392"><ele>41.0</ele><time>2026-04-04T14:04:36.073Z</time></trkpt><trkpt lat="39.52068427156366" lon="9.587344776592854"><ele>41.0</ele><time>2026-04-04T14:04:37.999Z</time></trkpt><trkpt lat="39.52041246216975" lon="9.587402333010427"><ele>41.0</ele><time>2026-04-04T14:04:38.999Z</time></trkpt><trkpt lat="39.520111771084515" lon="9.587533113201296"><ele>34.0</ele><time>2026-04-04T14:04:39.999Z</time></trkpt><trkpt lat="39.51981777917934" lon="9.587617368859755"><ele>27.0</ele><time>2026-04-04T14:04:40.999Z</time></trkpt><trkpt lat="39.51950842100924" lon="9.587693561389656"><ele>23.0</ele><time>2026-04-04T14:04:41.999Z</time></trkpt><trkpt lat="39.519218697803076" lon="9.587760897710327"><ele>19.0</ele><time>2026-04-04T14:04:42.999Z</time></trkpt><trkpt lat="39.5189886743847" lon="9.587841348271455"><ele>20.5</ele><time>2026-04-04T14:04:43.999Z</time></trkpt><trkpt lat="39.518711419893044" lon="9.587916964851328"><ele>22.0</ele><time>2026-04-04T14:04:44.999Z</time></trkpt><trkpt lat="39.51843909183998" lon="9.587998196781703"><ele>22.0</ele><time>2026-04-04T14:04:45.999Z</time></trkpt><trkpt lat="39.51817237311158" lon="9.588086088022008"><ele>22.0</ele><time>2026-04-04T14:04:46.999Z</time></trkpt><trkpt lat="39.51790701877931" lon="9.588176944912956"><ele>30.0</ele><time>2026-04-04T14:04:47.999Z</time></trkpt><trkpt lat="39.517641777186725" lon="9.588273355686491"><ele>38.0</ele><time>2026-04-04T14:04:48.999Z</time></trkpt><trkpt lat="39.517379293496774" lon="9.58837378909862"><ele>38.0</ele><time>2026-04-04T14:04:49.999Z</time></trkpt><trkpt lat="39.51713655377462" lon="9.58847267773499"><ele>38.0</ele><time>2026-04-04T14:04:50.999Z</time></trkpt><trkpt lat="39.51689887119889" lon="9.588578679194075"><ele>48.5</ele><time>2026-04-04T14:04:52Z</time></trkpt><trkpt lat="39.5166675263734" lon="9.588695027003629"><ele>59.0</ele><time>2026-04-04T14:04:53Z</time></trkpt><trkpt lat="39.51643687358082" lon="9.58881793194798"><ele>62.5</ele><time>2026-04-04T14:04:54Z</time></trkpt><trkpt lat="39.51621031273788" lon="9.588928793265943"><ele>66.0</ele><time>2026-04-04T14:04:55Z</time></trkpt><trkpt lat="39.51598469974797" lon="9.589044715824487"><ele>66.0</ele><time>2026-04-04T14:04:56Z</time></trkpt><trkpt lat="39.515751111564704" lon="9.589164803886561"><ele>66.0</ele><time>2026-04-04T14:04:57Z</time></trkpt><trkpt lat="39.51551846578898" lon="9.58928538195574"><ele>62.5</ele><time>2026-04-04T14:04:58Z</time></trkpt><trkpt lat="39.51528685040422" lon="9.589405669259156"><ele>59.0</ele><time>2026-04-04T14:04:59Z</time></trkpt><trkpt lat="39.51505297712895" lon="9.58952855658063"><ele>55.0</ele><time>2026-04-04T14:05:00Z</time></trkpt><trkpt lat="39.51484041529276" lon="9.589691500831433"><ele>51.0</ele><time>2026-04-04T14:05:01Z</time></trkpt><trkpt lat="39.514607374795226" lon="9.589871025492705"><ele>50.0</ele><time>2026-04-04T14:05:02Z</time></trkpt><trkpt lat="39.514336535461055" lon="9.590094636849447"><ele>49.0</ele><time>2026-04-04T14:05:03Z</time></trkpt><trkpt lat="39.51412017445709" lon="9.590281684415068"><ele>50.5</ele><time>2026-04-04T14:05:04Z</time></trkpt><trkpt lat="39.51387035384081" lon="9.590512527122122"><ele>52.0</ele><time>2026-04-04T14:05:05Z</time></trkpt><trkpt lat="39.51370628221792" lon="9.590746698852403"><ele>52.0</ele><time>2026-04-04T14:05:06Z</time></trkpt><trkpt lat="39.51350612571122" lon="9.590949620589306"><ele>52.0</ele><time>2026-04-04T14:05:07Z</time></trkpt><trkpt lat="39.51330918343079" lon="9.591153322448966"><ele>49.5</ele><time>2026-04-04T14:05:08Z</time></trkpt><trkpt lat="39.51310565501208" lon="9.591355659488018"><ele>47.0</ele><time>2026-04-04T14:05:09Z</time></trkpt><trkpt lat="39.512896874238365" lon="9.59156988992545"><ele>47.0</ele><time>2026-04-04T14:05:10Z</time></trkpt><trkpt lat="39.51269057912724" lon="9.591778320523403"><ele>47.0</ele><time>2026-04-04T14:05:11Z</time></trkpt><trkpt lat="39.51248274000376" lon="9.591982518895023"><ele>42.0</ele><time>2026-04-04T14:05:12Z</time></trkpt><trkpt lat="39.51228128727662" lon="9.59219656917908"><ele>37.0</ele><time>2026-04-04T14:05:13Z</time></trkpt><trkpt lat="39.51208043164178" lon="9.592404350793666"><ele>36.5</ele><time>2026-04-04T14:05:14Z</time></trkpt><trkpt lat="39.5118786919671" lon="9.592608458541694"><ele>36.0</ele><time>2026-04-04T14:05:15Z</time></trkpt><trkpt lat="39.51167654984983" lon="9.592809195235311"><ele>36.0</ele><time>2026-04-04T14:05:16Z</time></trkpt><trkpt lat="39.51147133187658" lon="9.593009700004723"><ele>36.0</ele><time>2026-04-04T14:05:17Z</time></trkpt><trkpt lat="39.51127103280532" lon="9.593212006463142"><ele>44.5</ele><time>2026-04-04T14:05:18Z</time></trkpt><trkpt lat="39.51106628763364" lon="9.593412187582405"><ele>53.0</ele><time>2026-04-04T14:05:19Z</time></trkpt><trkpt lat="39.510867814534876" lon="9.59360559919182"><ele>45.0</ele><time>2026-04-04T14:05:20Z</time></trkpt><trkpt lat="39.51067961518267" lon="9.593770983506701"><ele>37.0</ele><time>2026-04-04T14:05:21Z</time></trkpt><trkpt lat="39.51047616688736" lon="9.593951849434129"><ele>39.5</ele><time>2026-04-04T14:05:22Z</time></trkpt><trkpt lat="39.5102683988092" lon="9.59412942947134"><ele>42.0</ele><time>2026-04-04T14:05:23Z</time></trkpt><trkpt lat="39.51010009322895" lon="9.594336887827563"><ele>42.0</ele><time>2026-04-04T14:05:24Z</time></trkpt><trkpt lat="39.50988645381765" lon="9.594504273693405"><ele>42.0</ele><time>2026-04-04T14:05:25Z</time></trkpt><trkpt lat="39.50966697004094" lon="9.594655636113236"><ele>33.0</ele><time>2026-04-04T14:05:26Z</time></trkpt><trkpt lat="39.50943622419619" lon="9.594790322361236"><ele>24.0</ele><time>2026-04-04T14:05:27Z</time></trkpt><trkpt lat="39.50921430992644" lon="9.59493740063627"><ele>24.0</ele><time>2026-04-04T14:05:28Z</time></trkpt><trkpt lat="39.50898266800683" lon="9.595082928360759"><ele>24.0</ele><time>2026-04-04T14:05:29Z</time></trkpt><trkpt lat="39.50874844618875" lon="9.595221734745603"><ele>23.5</ele><time>2026-04-04T14:05:30Z</time></trkpt><trkpt lat="39.508510114343956" lon="9.595349878304278"><ele>23.0</ele><time>2026-04-04T14:05:31Z</time></trkpt><trkpt lat="39.508264863049945" lon="9.595465918377649"><ele>23.0</ele><time>2026-04-04T14:05:32Z</time></trkpt><trkpt lat="39.50801544951188" lon="9.595566727074125"><ele>23.0</ele><time>2026-04-04T14:05:33Z</time></trkpt><trkpt lat="39.50776509201226" lon="9.595655189231007"><ele>27.0</ele><time>2026-04-04T14:05:34Z</time></trkpt><trkpt lat="39.50750385994035" lon="9.595727353436216"><ele>31.0</ele><time>2026-04-04T14:05:35Z</time></trkpt><trkpt lat="39.507243491953616" lon="9.595788218278576"><ele>41.0</ele><time>2026-04-04T14:05:36Z</time></trkpt><trkpt lat="39.50698102679138" lon="9.595834162869904"><ele>51.0</ele><time>2026-04-04T14:05:37Z</time></trkpt><trkpt lat="39.50672868598103" lon="9.595869951014084"><ele>51.0</ele><time>2026-04-04T14:05:38Z</time></trkpt><trkpt lat="39.50647675802601" lon="9.595891293325586"><ele>51.0</ele><time>2026-04-04T14:05:39Z</time></trkpt><trkpt lat="39.50623192644748" lon="9.595883075387587"><ele>61.5</ele><time>2026-04-04T14:05:40Z</time></trkpt><trkpt lat="39.50600074070887" lon="9.595858543896854"><ele>72.0</ele><time>2026-04-04T14:05:41Z</time></trkpt><trkpt lat="39.50577964942907" lon="9.595829080374832"><ele>72.0</ele><time>2026-04-04T14:05:42Z</time></trkpt><trkpt lat="39.50555060680674" lon="9.595788943958814"><ele>72.0</ele><time>2026-04-04T14:05:43Z</time></trkpt><trkpt lat="39.50531372114099" lon="9.595752701851552"><ele>68.5</ele><time>2026-04-04T14:05:44Z</time></trkpt><trkpt lat="39.50506989637158" lon="9.59571623862893"><ele>65.0</ele><time>2026-04-04T14:05:45.076Z</time></trkpt><trkpt lat="39.50485056596203" lon="9.595730174546532"><ele>58.5</ele><time>2026-04-04T14:05:46.071Z</time></trkpt><trkpt lat="39.50444818505902" lon="9.59576666317945"><ele>52.0</ele><time>2026-04-04T14:05:47Z</time></trkpt><trkpt lat="39.50415088546777" lon="9.595591225626663"><ele>52.0</ele><time>2026-04-04T14:05:48Z</time></trkpt><trkpt lat="39.50386588444573" lon="9.595523167926371"><ele>52.0</ele><time>2026-04-04T14:05:49Z</time></trkpt><trkpt lat="39.503631388279814" lon="9.595319651744013"><ele>46.0</ele><time>2026-04-04T14:05:50Z</time></trkpt><trkpt lat="39.50338755907957" lon="9.595231853191832"><ele>40.0</ele><time>2026-04-04T14:05:51Z</time></trkpt><trkpt lat="39.503145740852204" lon="9.59515849874341"><ele>38.0</ele><time>2026-04-04T14:05:52Z</time></trkpt><trkpt lat="39.5029030972037" lon="9.595089114385004"><ele>36.0</ele><time>2026-04-04T14:05:53Z</time></trkpt><trkpt lat="39.50265996814496" lon="9.595027784154816"><ele>36.0</ele><time>2026-04-04T14:05:54Z</time></trkpt><trkpt lat="39.50240958010895" lon="9.594969400582238"><ele>36.0</ele><time>2026-04-04T14:05:55Z</time></trkpt><trkpt lat="39.502158562874676" lon="9.594919448095398"><ele>36.0</ele><time>2026-04-04T14:05:56Z</time></trkpt><trkpt lat="39.501902585955094" lon="9.594876993787057"><ele>36.0</ele><time>2026-04-04T14:05:57Z</time></trkpt><trkpt lat="39.501642328594755" lon="9.594846903974833"><ele>36.0</ele><time>2026-04-04T14:05:58Z</time></trkpt><trkpt lat="39.50137799581918" lon="9.59482950197573"><ele>36.0</ele><time>2026-04-04T14:05:59Z</time></trkpt><trkpt lat="39.501121499116714" lon="9.594827033850974"><ele>37.0</ele><time>2026-04-04T14:06:00Z</time></trkpt><trkpt lat="39.500860352723215" lon="9.59483726310805"><ele>38.0</ele><time>2026-04-04T14:06:01Z</time></trkpt><trkpt lat="39.50061280375461" lon="9.594874169058317"><ele>33.5</ele><time>2026-04-04T14:06:02Z</time></trkpt><trkpt lat="39.5003644807698" lon="9.59491953726018"><ele>29.0</ele><time>2026-04-04T14:06:02.999Z</time></trkpt><trkpt lat="39.500119282757325" lon="9.594981490476725"><ele>29.0</ele><time>2026-04-04T14:06:03.999Z</time></trkpt><trkpt lat="39.49988089935931" lon="9.595061206880567"><ele>29.0</ele><time>2026-04-04T14:06:04.999Z</time></trkpt><trkpt lat="39.49964380008887" lon="9.595155280029807"><ele>28.0</ele><time>2026-04-04T14:06:05.999Z</time></trkpt><trkpt lat="39.499411644971666" lon="9.595263318287767"><ele>27.0</ele><time>2026-04-04T14:06:06.999Z</time></trkpt><trkpt lat="39.49918876817259" lon="9.595381200709582"><ele>27.0</ele><time>2026-04-04T14:06:07.999Z</time></trkpt><trkpt lat="39.49896840302947" lon="9.595516596620527"><ele>27.0</ele><time>2026-04-04T14:06:08.999Z</time></trkpt><trkpt lat="39.498745215253464" lon="9.595673121857478"><ele>35.0</ele><time>2026-04-04T14:06:09.999Z</time></trkpt><trkpt lat="39.498523318642384" lon="9.595842847647276"><ele>43.0</ele><time>2026-04-04T14:06:10.999Z</time></trkpt><trkpt lat="39.49830590103071" lon="9.59602669821042"><ele>42.5</ele><time>2026-04-04T14:06:11.999Z</time></trkpt><trkpt lat="39.49809651104349" lon="9.596225871433601"><ele>42.0</ele><time>2026-04-04T14:06:12.999Z</time></trkpt><trkpt lat="39.49788933420347" lon="9.596442077886318"><ele>52.5</ele><time>2026-04-04T14:06:13.999Z</time></trkpt><trkpt lat="39.497670904219895" lon="9.596646075266928"><ele>63.0</ele><time>2026-04-04T14:06:14.999Z</time></trkpt><trkpt lat="39.497478680094346" lon="9.59687251682556"><ele>59.0</ele><time>2026-04-04T14:06:15.999Z</time></trkpt><trkpt lat="39.49729025665045" lon="9.597100600740134"><ele>55.0</ele><time>2026-04-04T14:06:16.999Z</time></trkpt><trkpt lat="39.49710801106206" lon="9.597330988737118"><ele>68.0</ele><time>2026-04-04T14:06:17.999Z</time></trkpt><trkpt lat="39.49693787763195" lon="9.597552451776906"><ele>81.0</ele><time>2026-04-04T14:06:18.999Z</time></trkpt><trkpt lat="39.49677931127387" lon="9.597764886106184"><ele>79.0</ele><time>2026-04-04T14:06:19.999Z</time></trkpt><trkpt lat="39.496618362121104" lon="9.597982013402028"><ele>77.0</ele><time>2026-04-04T14:06:20.999Z</time></trkpt><trkpt lat="39.49645996464153" lon="9.598197735489794"><ele>77.0</ele><time>2026-04-04T14:06:21.999Z</time></trkpt><trkpt lat="39.49629511495606" lon="9.598422244849854"><ele>77.0</ele><time>2026-04-04T14:06:22.999Z</time></trkpt><trkpt lat="39.496130619090536" lon="9.598646272401798"><ele>91.0</ele><time>2026-04-04T14:06:23.999Z</time></trkpt><trkpt lat="39.49596414885247" lon="9.598872988804786"><ele>105.0</ele><time>2026-04-04T14:06:24.999Z</time></trkpt><trkpt lat="39.49579658200167" lon="9.599101207394638"><ele>105.0</ele><time>2026-04-04T14:06:25.999Z</time></trkpt><trkpt lat="39.49562843143732" lon="9.599330250286124"><ele>105.0</ele><time>2026-04-04T14:06:26.999Z</time></trkpt><trkpt lat="39.49545225854947" lon="9.599569029861021"><ele>93.0</ele><time>2026-04-04T14:06:27.999Z</time></trkpt><trkpt lat="39.495279495704416" lon="9.599802278798604"><ele>81.0</ele><time>2026-04-04T14:06:28.999Z</time></trkpt><trkpt lat="39.49509077887253" lon="9.600057067412793"><ele>58.0</ele><time>2026-04-04T14:06:30.073Z</time></trkpt><trkpt lat="39.494792529008976" lon="9.600502581717361"><ele>58.0</ele><time>2026-04-04T14:06:31.999Z</time></trkpt><trkpt lat="39.49462277408945" lon="9.600732351443167"><ele>58.0</ele><time>2026-04-04T14:06:32.999Z</time></trkpt><trkpt lat="39.49443347684933" lon="9.600947001290033"><ele>61.5</ele><time>2026-04-04T14:06:33.999Z</time></trkpt><trkpt lat="39.494261832315075" lon="9.601179947474598"><ele>65.0</ele><time>2026-04-04T14:06:34.999Z</time></trkpt><trkpt lat="39.49408598178251" lon="9.601416965884573"><ele>65.0</ele><time>2026-04-04T14:06:35.999Z</time></trkpt><trkpt lat="39.49391074263778" lon="9.601653742160796"><ele>65.0</ele><time>2026-04-04T14:06:36.999Z</time></trkpt><trkpt lat="39.49373193806483" lon="9.601897383645124"><ele>60.0</ele><time>2026-04-04T14:06:37.999Z</time></trkpt><trkpt lat="39.49355574958347" lon="9.602137536013776"><ele>55.0</ele><time>2026-04-04T14:06:38.999Z</time></trkpt><trkpt lat="39.493375335002554" lon="9.602383555744916"><ele>55.0</ele><time>2026-04-04T14:06:39.999Z</time></trkpt><trkpt lat="39.49319524560227" lon="9.60262913095494"><ele>55.0</ele><time>2026-04-04T14:06:40.999Z</time></trkpt><trkpt lat="39.49301291626211" lon="9.60287776064358"><ele>54.5</ele><time>2026-04-04T14:06:41.999Z</time></trkpt><trkpt lat="39.492830802229335" lon="9.603126096701091"><ele>54.0</ele><time>2026-04-04T14:06:42.999Z</time></trkpt><trkpt lat="39.49265406298705" lon="9.603367103546432"><ele>54.0</ele><time>2026-04-04T14:06:43.999Z</time></trkpt><trkpt lat="39.492473436223534" lon="9.603613411533392"><ele>54.0</ele><time>2026-04-04T14:06:44.999Z</time></trkpt><trkpt lat="39.49228913418309" lon="9.60386478622578"><ele>51.5</ele><time>2026-04-04T14:06:45.999Z</time></trkpt><trkpt lat="39.49210689678075" lon="9.6041139984371"><ele>49.0</ele><time>2026-04-04T14:06:46.999Z</time></trkpt><trkpt lat="39.49192946869791" lon="9.604356044426394"><ele>60.5</ele><time>2026-04-04T14:06:47.999Z</time></trkpt><trkpt lat="39.49176268568344" lon="9.604579176582435"><ele>72.0</ele><time>2026-04-04T14:06:48.999Z</time></trkpt><trkpt lat="39.49159509619909" lon="9.60479854117032"><ele>72.0</ele><time>2026-04-04T14:06:49.999Z</time></trkpt><trkpt lat="39.49142785655625" lon="9.605015964805322"><ele>72.0</ele><time>2026-04-04T14:06:50.999Z</time></trkpt><trkpt lat="39.49127001375036" lon="9.605239457144423"><ele>75.0</ele><time>2026-04-04T14:06:51.999Z</time></trkpt><trkpt lat="39.49110184211138" lon="9.605445453163938"><ele>78.0</ele><time>2026-04-04T14:06:52.999Z</time></trkpt><trkpt lat="39.49089074286123" lon="9.605684845948264"><ele>78.0</ele><time>2026-04-04T14:06:53.999Z</time></trkpt><trkpt lat="39.49068456296535" lon="9.605874266191725"><ele>78.0</ele><time>2026-04-04T14:06:54.999Z</time></trkpt><trkpt lat="39.490491757623296" lon="9.606066488942819"><ele>65.0</ele><time>2026-04-04T14:06:55.999Z</time></trkpt><trkpt lat="39.49030684474929" lon="9.606240612737551"><ele>52.0</ele><time>2026-04-04T14:06:56.999Z</time></trkpt><trkpt lat="39.490091999358114" lon="9.606415068651685"><ele>52.0</ele><time>2026-04-04T14:06:58Z</time></trkpt><trkpt lat="39.48986560998637" lon="9.606566702602777"><ele>52.0</ele><time>2026-04-04T14:06:59Z</time></trkpt><trkpt lat="39.489641735195804" lon="9.606702335465327"><ele>55.5</ele><time>2026-04-04T14:07:00Z</time></trkpt><trkpt lat="39.48938789789374" lon="9.606841578349131"><ele>59.0</ele><time>2026-04-04T14:07:01Z</time></trkpt><trkpt lat="39.489147419658714" lon="9.60696966738598"><ele>56.5</ele><time>2026-04-04T14:07:02Z</time></trkpt><trkpt lat="39.48889888867308" lon="9.607058186785512"><ele>54.0</ele><time>2026-04-04T14:07:03Z</time></trkpt><trkpt lat="39.48863895841227" lon="9.607107466361207"><ele>54.0</ele><time>2026-04-04T14:07:04Z</time></trkpt><trkpt lat="39.4883780742676" lon="9.607177487478838"><ele>54.0</ele><time>2026-04-04T14:07:05Z</time></trkpt><trkpt lat="39.48811117344154" lon="9.607207720659027"><ele>59.5</ele><time>2026-04-04T14:07:06Z</time></trkpt><trkpt lat="39.48784218015096" lon="9.607214629815926"><ele>65.0</ele><time>2026-04-04T14:07:07Z</time></trkpt><trkpt lat="39.48757893345424" lon="9.607206079331595"><ele>65.0</ele><time>2026-04-04T14:07:08Z</time></trkpt><trkpt lat="39.48732079177689" lon="9.607176568056678"><ele>65.0</ele><time>2026-04-04T14:07:09Z</time></trkpt><trkpt lat="39.48707099084298" lon="9.607131876012149"><ele>64.0</ele><time>2026-04-04T14:07:10Z</time></trkpt><trkpt lat="39.48682720914619" lon="9.607072129845163"><ele>63.0</ele><time>2026-04-04T14:07:11Z</time></trkpt><trkpt lat="39.48658473924912" lon="9.60698243001888"><ele>64.0</ele><time>2026-04-04T14:07:12Z</time></trkpt><trkpt lat="39.48635116538763" lon="9.606882149189333"><ele>65.0</ele><time>2026-04-04T14:07:13Z</time></trkpt><trkpt lat="39.486091180962134" lon="9.6067593654117"><ele>65.0</ele><time>2026-04-04T14:07:14Z</time></trkpt><trkpt lat="39.48583929248839" lon="9.606578765409557"><ele>65.0</ele><time>2026-04-04T14:07:15Z</time></trkpt><trkpt lat="39.48560242202507" lon="9.606433385014501"><ele>61.5</ele><time>2026-04-04T14:07:16Z</time></trkpt><trkpt lat="39.485332204840496" lon="9.606254611027687"><ele>58.0</ele><time>2026-04-04T14:07:17Z</time></trkpt><trkpt lat="39.48509966288849" lon="9.60608109413812"><ele>58.0</ele><time>2026-04-04T14:07:18Z</time></trkpt><trkpt lat="39.48487963858609" lon="9.605903584464972"><ele>58.0</ele><time>2026-04-04T14:07:19Z</time></trkpt><trkpt lat="39.48467578876715" lon="9.60573242181727"><ele>55.0</ele><time>2026-04-04T14:07:20Z</time></trkpt><trkpt lat="39.48447493947401" lon="9.605557925850503"><ele>52.0</ele><time>2026-04-04T14:07:21Z</time></trkpt><trkpt lat="39.48427301170472" lon="9.605381505609783"><ele>53.5</ele><time>2026-04-04T14:07:22Z</time></trkpt><trkpt lat="39.48407241958743" lon="9.605206535968989"><ele>55.0</ele><time>2026-04-04T14:07:23Z</time></trkpt><trkpt lat="39.48387199363312" lon="9.605031633261191"><ele>53.5</ele><time>2026-04-04T14:07:24Z</time></trkpt><trkpt lat="39.483667801325744" lon="9.604850609886036"><ele>52.0</ele><time>2026-04-04T14:07:25Z</time></trkpt><trkpt lat="39.4834617743537" lon="9.604669170906854"><ele>60.0</ele><time>2026-04-04T14:07:26Z</time></trkpt><trkpt lat="39.48325142170807" lon="9.604483630000498"><ele>68.0</ele><time>2026-04-04T14:07:27Z</time></trkpt><trkpt lat="39.48304016693708" lon="9.604300670144283"><ele>65.0</ele><time>2026-04-04T14:07:28Z</time></trkpt><trkpt lat="39.48283360560786" lon="9.604113755570165"><ele>62.0</ele><time>2026-04-04T14:07:29Z</time></trkpt><trkpt lat="39.48263856623619" lon="9.60393496988051"><ele>62.0</ele><time>2026-04-04T14:07:30Z</time></trkpt><trkpt lat="39.48244614822558" lon="9.603758860087352"><ele>62.0</ele><time>2026-04-04T14:07:31Z</time></trkpt><trkpt lat="39.48225343743624" lon="9.603583701722751"><ele>63.5</ele><time>2026-04-04T14:07:32Z</time></trkpt><trkpt lat="39.48205168318151" lon="9.603410411690163"><ele>65.0</ele><time>2026-04-04T14:07:33Z</time></trkpt><trkpt lat="39.48185035449029" lon="9.603234091213329"><ele>65.0</ele><time>2026-04-04T14:07:34Z</time></trkpt><trkpt lat="39.481649592320984" lon="9.603054899559146"><ele>65.0</ele><time>2026-04-04T14:07:35Z</time></trkpt><trkpt lat="39.48145030691026" lon="9.602880219201525"><ele>69.5</ele><time>2026-04-04T14:07:36Z</time></trkpt><trkpt lat="39.4812480940621" lon="9.602699286776803"><ele>74.0</ele><time>2026-04-04T14:07:37Z</time></trkpt><trkpt lat="39.481049765231965" lon="9.60252466547459"><ele>74.0</ele><time>2026-04-04T14:07:38Z</time></trkpt><trkpt lat="39.48084614670498" lon="9.602347321911909"><ele>74.0</ele><time>2026-04-04T14:07:39Z</time></trkpt><trkpt lat="39.480646210596774" lon="9.602178972302216"><ele>74.0</ele><time>2026-04-04T14:07:40Z</time></trkpt><trkpt lat="39.48047128872667" lon="9.602018097041782"><ele>74.0</ele><time>2026-04-04T14:07:41Z</time></trkpt><trkpt lat="39.480287240176864" lon="9.601855103943857"><ele>74.0</ele><time>2026-04-04T14:07:42Z</time></trkpt><trkpt lat="39.48011126906747" lon="9.601696086678963"><ele>77.66666666666667</ele><time>2026-04-04T14:07:43Z</time></trkpt><trkpt lat="39.47993514059163" lon="9.601537283491783"><ele>81.33333333333333</ele><time>2026-04-04T14:07:44Z</time></trkpt><trkpt lat="39.47975739877713" lon="9.601376257676302"><ele>85.0</ele><time>2026-04-04T14:07:45Z</time></trkpt><trkpt lat="39.47958036027601" lon="9.601213727285922"><ele>92.0</ele><time>2026-04-04T14:07:46Z</time></trkpt><trkpt lat="39.47940235763532" lon="9.601055700672564"><ele>99.0</ele><time>2026-04-04T14:07:47Z</time></trkpt><trkpt lat="39.47922469589256" lon="9.60090028252853"><ele>106.0</ele><time>2026-04-04T14:07:48Z</time></trkpt><trkpt lat="39.47905293979877" lon="9.600741766635192"><ele>106.0</ele><time>2026-04-04T14:07:49Z</time></trkpt><trkpt lat="39.47882133649383" lon="9.60055937745776"><ele>106.0</ele><time>2026-04-04T14:07:50.072Z</time></trkpt><trkpt lat="39.47866018391435" lon="9.600394110766237"><ele>109.66666666666667</ele><time>2026-04-04T14:07:51.067Z</time></trkpt><trkpt lat="39.478484160673176" lon="9.600228098194615"><ele>113.33333333333334</ele><time>2026-04-04T14:07:52.066Z</time></trkpt><trkpt lat="39.478308830197214" lon="9.600085423618406"><ele>117.0</ele><time>2026-04-04T14:07:53.065Z</time></trkpt><trkpt lat="39.47813287534291" lon="9.599943016125554"><ele>117.0</ele><time>2026-04-04T14:07:54.041Z</time></trkpt><trkpt lat="39.47795754258832" lon="9.599799046304094"><ele>117.0</ele><time>2026-04-04T14:07:55.032Z</time></trkpt><trkpt lat="39.475957925035175" lon="9.599366092394785"><ele>102.66666666666667</ele><time>2026-04-04T14:08:04Z</time></trkpt><trkpt lat="39.47588687779444" lon="9.599461534981911"><ele>88.33333333333334</ele><time>2026-04-04T14:08:05Z</time></trkpt><trkpt lat="39.47570674222131" lon="9.599388707740017"><ele>74.0</ele><time>2026-04-04T14:08:06Z</time></trkpt><trkpt lat="39.47548129000904" lon="9.59933691389585"><ele>74.0</ele><time>2026-04-04T14:08:07Z</time></trkpt><trkpt lat="39.47525291237611" lon="9.599315467337087"><ele>74.0</ele><time>2026-04-04T14:08:07.999Z</time></trkpt><trkpt lat="39.47505201354012" lon="9.599296379710964"><ele>74.0</ele><time>2026-04-04T14:08:08.999Z</time></trkpt><trkpt lat="39.47485554637385" lon="9.59928371490354"><ele>74.0</ele><time>2026-04-04T14:08:09.999Z</time></trkpt><trkpt lat="39.47466206754068" lon="9.599269909485919"><ele>74.0</ele><time>2026-04-04T14:08:10.999Z</time></trkpt><trkpt lat="39.47447014901538" lon="9.599257860119247"><ele>74.0</ele><time>2026-04-04T14:08:11.999Z</time></trkpt><trkpt lat="39.474290298021984" lon="9.5992434367158"><ele>74.66666666666667</ele><time>2026-04-04T14:08:12.999Z</time></trkpt><trkpt lat="39.474100549486394" lon="9.59922536277525"><ele>75.33333333333333</ele><time>2026-04-04T14:08:13.999Z</time></trkpt><trkpt lat="39.473890105631256" lon="9.59920217843178"><ele>76.0</ele><time>2026-04-04T14:08:14.999Z</time></trkpt><trkpt lat="39.47366153624933" lon="9.599169590651739"><ele>76.0</ele><time>2026-04-04T14:08:15.999Z</time></trkpt><trkpt lat="39.47342470277639" lon="9.599124416244367"><ele>76.0</ele><time>2026-04-04T14:08:16.999Z</time></trkpt><trkpt lat="39.47318091336158" lon="9.599069089392916"><ele>67.5</ele><time>2026-04-04T14:08:17.999Z</time></trkpt><trkpt lat="39.47293470020352" lon="9.59900377328101"><ele>59.0</ele><time>2026-04-04T14:08:18.999Z</time></trkpt><trkpt lat="39.472703586139026" lon="9.59893715144637"><ele>59.0</ele><time>2026-04-04T14:08:19.999Z</time></trkpt><trkpt lat="39.472480832581155" lon="9.598863392750523"><ele>59.0</ele><time>2026-04-04T14:08:20.999Z</time></trkpt><trkpt lat="39.47225925479867" lon="9.598776860816338"><ele>60.5</ele><time>2026-04-04T14:08:21.999Z</time></trkpt><trkpt lat="39.47204041122631" lon="9.598684125451163"><ele>62.0</ele><time>2026-04-04T14:08:22.999Z</time></trkpt><trkpt lat="39.471820111886544" lon="9.59858195204718"><ele>62.0</ele><time>2026-04-04T14:08:23.999Z</time></trkpt><trkpt lat="39.471592912315266" lon="9.598467944070933"><ele>62.0</ele><time>2026-04-04T14:08:24.999Z</time></trkpt><trkpt lat="39.471375347482386" lon="9.598346904950294"><ele>67.0</ele><time>2026-04-04T14:08:25.999Z</time></trkpt><trkpt lat="39.471150088646276" lon="9.598213777648992"><ele>72.0</ele><time>2026-04-04T14:08:26.999Z</time></trkpt><trkpt lat="39.47091968884902" lon="9.59806781790604"><ele>72.0</ele><time>2026-04-04T14:08:27.999Z</time></trkpt><trkpt lat="39.47067789140356" lon="9.597904040072635"><ele>72.0</ele><time>2026-04-04T14:08:28.999Z</time></trkpt><trkpt lat="39.47044271182859" lon="9.597727097429113"><ele>79.0</ele><time>2026-04-04T14:08:29.999Z</time></trkpt><trkpt lat="39.470233299853675" lon="9.597555507686865"><ele>86.0</ele><time>2026-04-04T14:08:30.999Z</time></trkpt><trkpt lat="39.47002805746265" lon="9.597378790369854"><ele>86.0</ele><time>2026-04-04T14:08:31.999Z</time></trkpt><trkpt lat="39.46981369462425" lon="9.597184666262613"><ele>86.0</ele><time>2026-04-04T14:08:32.999Z</time></trkpt><trkpt lat="39.46959399271199" lon="9.596970930619102"><ele>87.5</ele><time>2026-04-04T14:08:33.999Z</time></trkpt><trkpt lat="39.46937279776999" lon="9.596746301749592"><ele>89.0</ele><time>2026-04-04T14:08:34.999Z</time></trkpt><trkpt lat="39.469152089975104" lon="9.596511903619044"><ele>89.0</ele><time>2026-04-04T14:08:35.999Z</time></trkpt><trkpt lat="39.46893002886468" lon="9.59626583397368"><ele>89.0</ele><time>2026-04-04T14:08:36.999Z</time></trkpt><trkpt lat="39.468705207769226" lon="9.5960077229836"><ele>88.5</ele><time>2026-04-04T14:08:37.999Z</time></trkpt><trkpt lat="39.46847995257338" lon="9.595736820758795"><ele>88.0</ele><time>2026-04-04T14:08:38.999Z</time></trkpt><trkpt lat="39.46825455691068" lon="9.595459612210977"><ele>93.0</ele><time>2026-04-04T14:08:39.999Z</time></trkpt><trkpt lat="39.468032899600644" lon="9.595186679407472"><ele>98.0</ele><time>2026-04-04T14:08:40.999Z</time></trkpt><trkpt lat="39.46782152368238" lon="9.594930557412196"><ele>98.0</ele><time>2026-04-04T14:08:41.999Z</time></trkpt><trkpt lat="39.467614726894226" lon="9.594688321562462"><ele>98.0</ele><time>2026-04-04T14:08:42.999Z</time></trkpt><trkpt lat="39.46741320025592" lon="9.594457796050932"><ele>101.0</ele><time>2026-04-04T14:08:43.999Z</time></trkpt><trkpt lat="39.467218949281836" lon="9.594239707095412"><ele>104.0</ele><time>2026-04-04T14:08:44.999Z</time></trkpt><trkpt lat="39.467034082323316" lon="9.594026815303806"><ele>104.0</ele><time>2026-04-04T14:08:45.999Z</time></trkpt><trkpt lat="39.466845152229034" lon="9.593808506536678"><ele>104.0</ele><time>2026-04-04T14:08:46.999Z</time></trkpt><trkpt lat="39.466656691523674" lon="9.593588588315239"><ele>106.5</ele><time>2026-04-04T14:08:47.999Z</time></trkpt><trkpt lat="39.46646605266637" lon="9.593368947551415"><ele>109.0</ele><time>2026-04-04T14:08:48.999Z</time></trkpt><trkpt lat="39.46627217259684" lon="9.593146900251053"><ele>104.5</ele><time>2026-04-04T14:08:49.999Z</time></trkpt><trkpt lat="39.466075435267804" lon="9.592920759103862"><ele>100.0</ele><time>2026-04-04T14:08:50.999Z</time></trkpt><trkpt lat="39.465875914658184" lon="9.592689269211247"><ele>100.0</ele><time>2026-04-04T14:08:51.999Z</time></trkpt><trkpt lat="39.465676974987865" lon="9.592456320839378"><ele>100.0</ele><time>2026-04-04T14:08:52.999Z</time></trkpt><trkpt lat="39.46547194038445" lon="9.59222311601958"><ele>97.5</ele><time>2026-04-04T14:08:53.999Z</time></trkpt><trkpt lat="39.4652601737417" lon="9.591993481494795"><ele>95.0</ele><time>2026-04-04T14:08:54.999Z</time></trkpt><trkpt lat="39.46504222007241" lon="9.591775767233768"><ele>95.0</ele><time>2026-04-04T14:08:55.999Z</time></trkpt><trkpt lat="39.464813829968314" lon="9.591561096062811"><ele>95.0</ele><time>2026-04-04T14:08:56.999Z</time></trkpt><trkpt lat="39.46458323471427" lon="9.591356256817022"><ele>87.5</ele><time>2026-04-04T14:08:57.999Z</time></trkpt><trkpt lat="39.46434562212584" lon="9.591156533304243"><ele>80.0</ele><time>2026-04-04T14:08:58.999Z</time></trkpt><trkpt lat="39.464101816647805" lon="9.59096559139741"><ele>80.0</ele><time>2026-04-04T14:08:59.999Z</time></trkpt><trkpt lat="39.463862650551604" lon="9.590788490537278"><ele>80.0</ele><time>2026-04-04T14:09:00.999Z</time></trkpt><trkpt lat="39.463618610265144" lon="9.590616520814448"><ele>78.5</ele><time>2026-04-04T14:09:01.999Z</time></trkpt><trkpt lat="39.46337324459417" lon="9.590451362482403"><ele>77.0</ele><time>2026-04-04T14:09:02.999Z</time></trkpt><trkpt lat="39.46313505597257" lon="9.590299130923864"><ele>73.5</ele><time>2026-04-04T14:09:04Z</time></trkpt><trkpt lat="39.462899229878104" lon="9.590154054641523"><ele>70.0</ele><time>2026-04-04T14:09:05Z</time></trkpt><trkpt lat="39.462673454976674" lon="9.590017575414343"><ele>70.0</ele><time>2026-04-04T14:09:06Z</time></trkpt><trkpt lat="39.46244351507257" lon="9.589880279126813"><ele>70.0</ele><time>2026-04-04T14:09:07Z</time></trkpt><trkpt lat="39.462210412952125" lon="9.589739375221722"><ele>68.0</ele><time>2026-04-04T14:09:08Z</time></trkpt><trkpt lat="39.46198602866016" lon="9.589597756504086"><ele>66.0</ele><time>2026-04-04T14:09:09Z</time></trkpt><trkpt lat="39.46176311665441" lon="9.589452622450374"><ele>65.5</ele><time>2026-04-04T14:09:10Z</time></trkpt><trkpt lat="39.46154595485571" lon="9.589299971822099"><ele>65.0</ele><time>2026-04-04T14:09:10.999Z</time></trkpt><trkpt lat="39.46132912864772" lon="9.58913767408855"><ele>64.0</ele><time>2026-04-04T14:09:11.999Z</time></trkpt><trkpt lat="39.46111991724225" lon="9.58896816808916"><ele>63.0</ele><time>2026-04-04T14:09:12.999Z</time></trkpt><trkpt lat="39.46091242136205" lon="9.588786074077337"><ele>70.0</ele><time>2026-04-04T14:09:13.999Z</time></trkpt><trkpt lat="39.46072469828258" lon="9.588578665162313"><ele>77.0</ele><time>2026-04-04T14:09:14.999Z</time></trkpt><trkpt lat="39.46053779610587" lon="9.588376660563847"><ele>78.0</ele><time>2026-04-04T14:09:15.999Z</time></trkpt><trkpt lat="39.460352404551905" lon="9.588164968359346"><ele>79.0</ele><time>2026-04-04T14:09:16.999Z</time></trkpt><trkpt lat="39.460167139207876" lon="9.587949400711267"><ele>83.5</ele><time>2026-04-04T14:09:17.999Z</time></trkpt><trkpt lat="39.459998976250226" lon="9.587707630548445"><ele>88.0</ele><time>2026-04-04T14:09:18.999Z</time></trkpt><trkpt lat="39.45983590229273" lon="9.587460409478712"><ele>88.0</ele><time>2026-04-04T14:09:19.999Z</time></trkpt><trkpt lat="39.459680686644866" lon="9.587205903436812"><ele>88.0</ele><time>2026-04-04T14:09:21Z</time></trkpt><trkpt lat="39.45955430651043" lon="9.586927198714244"><ele>80.5</ele><time>2026-04-04T14:09:22Z</time></trkpt><trkpt lat="39.45941239474765" lon="9.586669118992601"><ele>73.0</ele><time>2026-04-04T14:09:23Z</time></trkpt><trkpt lat="39.45929769948216" lon="9.586391390864522"><ele>75.5</ele><time>2026-04-04T14:09:24Z</time></trkpt><trkpt lat="39.459184572112406" lon="9.5861071183923"><ele>78.0</ele><time>2026-04-04T14:09:25Z</time></trkpt><trkpt lat="39.459096174812466" lon="9.585810284806799"><ele>78.0</ele><time>2026-04-04T14:09:26Z</time></trkpt><trkpt lat="39.45900840365451" lon="9.585514686421888"><ele>78.0</ele><time>2026-04-04T14:09:27Z</time></trkpt><trkpt lat="39.45892784881254" lon="9.585217994576519"><ele>80.5</ele><time>2026-04-04T14:09:28Z</time></trkpt><trkpt lat="39.45885434511259" lon="9.584915615145803"><ele>83.0</ele><time>2026-04-04T14:09:29Z</time></trkpt><trkpt lat="39.45878527609565" lon="9.584609177264278"><ele>79.5</ele><time>2026-04-04T14:09:30Z</time></trkpt><trkpt lat="39.45870881733066" lon="9.584311511609409"><ele>76.0</ele><time>2026-04-04T14:09:31Z</time></trkpt><trkpt lat="39.45865038134972" lon="9.584013682482778"><ele>76.0</ele><time>2026-04-04T14:09:32Z</time></trkpt><trkpt lat="39.458609663106024" lon="9.583719063065677"><ele>76.0</ele><time>2026-04-04T14:09:33Z</time></trkpt><trkpt lat="39.45855568258462" lon="9.583429877377476"><ele>81.0</ele><time>2026-04-04T14:09:34Z</time></trkpt><trkpt lat="39.45850163614745" lon="9.583140338305698"><ele>86.0</ele><time>2026-04-04T14:09:35Z</time></trkpt><trkpt lat="39.458446591211356" lon="9.582845231385974"><ele>92.5</ele><time>2026-04-04T14:09:36Z</time></trkpt><trkpt lat="39.458392397551535" lon="9.582550939221962"><ele>99.0</ele><time>2026-04-04T14:09:37Z</time></trkpt><trkpt lat="39.45833973824242" lon="9.582264951553762"><ele>108.5</ele><time>2026-04-04T14:09:38Z</time></trkpt><trkpt lat="39.45828729525142" lon="9.581980138557523"><ele>118.0</ele><time>2026-04-04T14:09:39Z</time></trkpt><trkpt lat="39.458234434507844" lon="9.58169305700443"><ele>118.0</ele><time>2026-04-04T14:09:40Z</time></trkpt><trkpt lat="39.45818246091238" lon="9.581410792890043"><ele>118.0</ele><time>2026-04-04T14:09:41Z</time></trkpt><trkpt lat="39.458129243467816" lon="9.581121354582097"><ele>131.5</ele><time>2026-04-04T14:09:42Z</time></trkpt><trkpt lat="39.45807641160028" lon="9.58083326705442"><ele>145.0</ele><time>2026-04-04T14:09:43Z</time></trkpt><trkpt lat="39.45800335245475" lon="9.580527005566466"><ele>154.33333333333334</ele><time>2026-04-04T14:09:44.07Z</time></trkpt><trkpt lat="39.45795086945331" lon="9.580238403900337"><ele>163.66666666666666</ele><time>2026-04-04T14:09:45.068Z</time></trkpt><trkpt lat="39.4579208" lon="9.5800781"><ele>173.0</ele><time>2026-04-04T14:09:48.508Z</time></trkpt><trkpt lat="39.45699251782475" lon="9.57564388109205"><ele>121.0</ele><time>2026-04-04T14:09:59Z</time></trkpt><trkpt lat="39.45690771401034" lon="9.575339273560912"><ele>69.0</ele><time>2026-04-04T14:10:00Z</time></trkpt><trkpt lat="39.45679223725403" lon="9.575029838031668"><ele>69.0</ele><time>2026-04-04T14:10:01Z</time></trkpt><trkpt lat="39.45667177894951" lon="9.574706808796309"><ele>69.0</ele><time>2026-04-04T14:10:01.999Z</time></trkpt><trkpt lat="39.45655725018051" lon="9.574396415770785"><ele>71.0</ele><time>2026-04-04T14:10:02.999Z</time></trkpt><trkpt lat="39.45643580306845" lon="9.574089018544758"><ele>73.0</ele><time>2026-04-04T14:10:03.999Z</time></trkpt><trkpt lat="39.456312249834276" lon="9.573780099547289"><ele>70.5</ele><time>2026-04-04T14:10:04.999Z</time></trkpt><trkpt lat="39.45617627791637" lon="9.57347918730695"><ele>68.0</ele><time>2026-04-04T14:10:05.999Z</time></trkpt><trkpt lat="39.456032320835135" lon="9.573182051742435"><ele>68.0</ele><time>2026-04-04T14:10:06.999Z</time></trkpt><trkpt lat="39.45588347360563" lon="9.572882083254488"><ele>68.0</ele><time>2026-04-04T14:10:07.999Z</time></trkpt><trkpt lat="39.45572516487525" lon="9.572585942387294"><ele>67.5</ele><time>2026-04-04T14:10:08.999Z</time></trkpt><trkpt lat="39.4556004563563" lon="9.57230051165024"><ele>67.0</ele><time>2026-04-04T14:10:09.999Z</time></trkpt><trkpt lat="39.45543016969769" lon="9.572010042228946"><ele>67.0</ele><time>2026-04-04T14:10:10.999Z</time></trkpt><trkpt lat="39.45525468298456" lon="9.571723452510252"><ele>67.0</ele><time>2026-04-04T14:10:11.999Z</time></trkpt><trkpt lat="39.45507493752445" lon="9.571442992239536"><ele>72.0</ele><time>2026-04-04T14:10:12.999Z</time></trkpt><trkpt lat="39.45489020449908" lon="9.571172502255283"><ele>77.0</ele><time>2026-04-04T14:10:13.999Z</time></trkpt><trkpt lat="39.454705890975816" lon="9.570918528578954"><ele>67.5</ele><time>2026-04-04T14:10:14.999Z</time></trkpt><trkpt lat="39.454521629029315" lon="9.57068364741257"><ele>58.0</ele><time>2026-04-04T14:10:15.999Z</time></trkpt><trkpt lat="39.454336235432244" lon="9.570450296024106"><ele>61.0</ele><time>2026-04-04T14:10:16.999Z</time></trkpt><trkpt lat="39.45414235571416" lon="9.570217889416671"><ele>64.0</ele><time>2026-04-04T14:10:17.999Z</time></trkpt><trkpt lat="39.45394226802108" lon="9.569994583613296"><ele>58.0</ele><time>2026-04-04T14:10:18.999Z</time></trkpt><trkpt lat="39.45373927551501" lon="9.569771780856883"><ele>52.0</ele><time>2026-04-04T14:10:19.999Z</time></trkpt><trkpt lat="39.453535991503905" lon="9.569566138791656"><ele>54.0</ele><time>2026-04-04T14:10:20.999Z</time></trkpt><trkpt lat="39.453322629710875" lon="9.569358382456697"><ele>56.0</ele><time>2026-04-04T14:10:21.999Z</time></trkpt><trkpt lat="39.45311079748153" lon="9.569161444038537"><ele>50.5</ele><time>2026-04-04T14:10:22.999Z</time></trkpt><trkpt lat="39.452892369884204" lon="9.568966588664788"><ele>45.0</ele><time>2026-04-04T14:10:23.999Z</time></trkpt><trkpt lat="39.45268335678082" lon="9.568783449343812"><ele>48.5</ele><time>2026-04-04T14:10:24.999Z</time></trkpt><trkpt lat="39.45248224070167" lon="9.568613129973132"><ele>52.0</ele><time>2026-04-04T14:10:25.999Z</time></trkpt><trkpt lat="39.45227474486184" lon="9.568440719919833"><ele>47.5</ele><time>2026-04-04T14:10:26.999Z</time></trkpt><trkpt lat="39.45206753372864" lon="9.568274746022368"><ele>43.0</ele><time>2026-04-04T14:10:27.999Z</time></trkpt><trkpt lat="39.451860339943856" lon="9.568111971031591"><ele>43.0</ele><time>2026-04-04T14:10:28.999Z</time></trkpt><trkpt lat="39.451652193547176" lon="9.567959973136537"><ele>43.0</ele><time>2026-04-04T14:10:29.999Z</time></trkpt><trkpt lat="39.45144206540315" lon="9.567810704624755"><ele>42.0</ele><time>2026-04-04T14:10:30.999Z</time></trkpt><trkpt lat="39.45122737597353" lon="9.56765982344408"><ele>41.0</ele><time>2026-04-04T14:10:31.999Z</time></trkpt><trkpt lat="39.451006559489585" lon="9.567502496335491"><ele>41.0</ele><time>2026-04-04T14:10:32.999Z</time></trkpt><trkpt lat="39.45078873533486" lon="9.567348275619535"><ele>41.0</ele><time>2026-04-04T14:10:33.999Z</time></trkpt><trkpt lat="39.45056368316276" lon="9.56718791130059"><ele>41.5</ele><time>2026-04-04T14:10:34.999Z</time></trkpt><trkpt lat="39.45034055534645" lon="9.567027901135333"><ele>42.0</ele><time>2026-04-04T14:10:35.999Z</time></trkpt><trkpt lat="39.450109318970014" lon="9.566863194726277"><ele>42.0</ele><time>2026-04-04T14:10:36.999Z</time></trkpt><trkpt lat="39.44988362505067" lon="9.566703815093678"><ele>42.0</ele><time>2026-04-04T14:10:37.999Z</time></trkpt><trkpt lat="39.449666647365326" lon="9.566551978955621"><ele>39.5</ele><time>2026-04-04T14:10:38.999Z</time></trkpt><trkpt lat="39.449451988763954" lon="9.566400281982386"><ele>37.0</ele><time>2026-04-04T14:10:39.999Z</time></trkpt><trkpt lat="39.44923235621156" lon="9.566244988295061"><ele>36.5</ele><time>2026-04-04T14:10:40.999Z</time></trkpt><trkpt lat="39.449012396740315" lon="9.56608831674078"><ele>36.0</ele><time>2026-04-04T14:10:41.999Z</time></trkpt><trkpt lat="39.448789163101075" lon="9.565929246497934"><ele>36.0</ele><time>2026-04-04T14:10:42.999Z</time></trkpt><trkpt lat="39.44856931703183" lon="9.565770751538725"><ele>36.0</ele><time>2026-04-04T14:10:43.999Z</time></trkpt><trkpt lat="39.448345913393396" lon="9.565601476461044"><ele>36.0</ele><time>2026-04-04T14:10:44.999Z</time></trkpt><trkpt lat="39.44812478667936" lon="9.565429664042982"><ele>36.0</ele><time>2026-04-04T14:10:45.999Z</time></trkpt><trkpt lat="39.44790224673381" lon="9.565248273495037"><ele>34.5</ele><time>2026-04-04T14:10:46.999Z</time></trkpt><trkpt lat="39.44768616323254" lon="9.565059042150594"><ele>33.0</ele><time>2026-04-04T14:10:47.999Z</time></trkpt><trkpt lat="39.4474640863197" lon="9.564854722915957"><ele>33.0</ele><time>2026-04-04T14:10:48.999Z</time></trkpt><trkpt lat="39.44724752214506" lon="9.564644313769849"><ele>33.0</ele><time>2026-04-04T14:10:49.999Z</time></trkpt><trkpt lat="39.44703381107211" lon="9.564428199853163"><ele>32.5</ele><time>2026-04-04T14:10:50.999Z</time></trkpt><trkpt lat="39.44682176513848" lon="9.564206889879282"><ele>32.0</ele><time>2026-04-04T14:10:51.999Z</time></trkpt><trkpt lat="39.44661239867777" lon="9.563980527959755"><ele>32.0</ele><time>2026-04-04T14:10:52.999Z</time></trkpt><trkpt lat="39.44641156488088" lon="9.563750830649571"><ele>32.0</ele><time>2026-04-04T14:10:53.999Z</time></trkpt><trkpt lat="39.44622104295905" lon="9.563525742579477"><ele>27.0</ele><time>2026-04-04T14:10:54.999Z</time></trkpt><trkpt lat="39.446030822452535" lon="9.563300540552524"><ele>22.0</ele><time>2026-04-04T14:10:55.999Z</time></trkpt><trkpt lat="39.44583810195316" lon="9.563078464860533"><ele>23.5</ele><time>2026-04-04T14:10:56.999Z</time></trkpt><trkpt lat="39.44564310822946" lon="9.562861844987031"><ele>25.0</ele><time>2026-04-04T14:10:57.999Z</time></trkpt><trkpt lat="39.44545799378177" lon="9.562655031085614"><ele>22.0</ele><time>2026-04-04T14:10:58.999Z</time></trkpt><trkpt lat="39.44528192177651" lon="9.562450871381383"><ele>19.0</ele><time>2026-04-04T14:10:59.999Z</time></trkpt><trkpt lat="39.44511003359397" lon="9.562246337292974"><ele>19.0</ele><time>2026-04-04T14:11:00.999Z</time></trkpt><trkpt lat="39.44494037995597" lon="9.562045748047971"><ele>19.0</ele><time>2026-04-04T14:11:01.999Z</time></trkpt><trkpt lat="39.44476782819753" lon="9.561845990789617"><ele>19.0</ele><time>2026-04-04T14:11:02.999Z</time></trkpt><trkpt lat="39.44459276516787" lon="9.561644957698144"><ele>19.0</ele><time>2026-04-04T14:11:03.999Z</time></trkpt><trkpt lat="39.444417906719686" lon="9.561445105785332"><ele>19.0</ele><time>2026-04-04T14:11:04.999Z</time></trkpt><trkpt lat="39.44423964410402" lon="9.561241030782659"><ele>19.0</ele><time>2026-04-04T14:11:05.999Z</time></trkpt><trkpt lat="39.444063038123886" lon="9.561039553009012"><ele>18.0</ele><time>2026-04-04T14:11:06.999Z</time></trkpt><trkpt lat="39.443881198918305" lon="9.560839044468986"><ele>17.0</ele><time>2026-04-04T14:11:07.999Z</time></trkpt><trkpt lat="39.44369977942756" lon="9.560645201693823"><ele>17.0</ele><time>2026-04-04T14:11:08.999Z</time></trkpt><trkpt lat="39.44351166207463" lon="9.560452540611973"><ele>17.0</ele><time>2026-04-04T14:11:10Z</time></trkpt><trkpt lat="39.443314197718614" lon="9.560261410548605"><ele>15.0</ele><time>2026-04-04T14:11:11Z</time></trkpt><trkpt lat="39.44310814542295" lon="9.560072554252743"><ele>13.0</ele><time>2026-04-04T14:11:12Z</time></trkpt><trkpt lat="39.44289951979012" lon="9.559889349797421"><ele>13.0</ele><time>2026-04-04T14:11:13Z</time></trkpt><trkpt lat="39.44269498490453" lon="9.559714786472572"><ele>13.0</ele><time>2026-04-04T14:11:14Z</time></trkpt><trkpt lat="39.44248706665543" lon="9.559550059637335"><ele>12.0</ele><time>2026-04-04T14:11:15Z</time></trkpt><trkpt lat="39.442278617243915" lon="9.55939568274313"><ele>11.0</ele><time>2026-04-04T14:11:16Z</time></trkpt><trkpt lat="39.44205312885068" lon="9.55924835867136"><ele>11.0</ele><time>2026-04-04T14:11:17Z</time></trkpt><trkpt lat="39.441813521260684" lon="9.559107460984036"><ele>11.0</ele><time>2026-04-04T14:11:18Z</time></trkpt><trkpt lat="39.44157108469984" lon="9.558978360635567"><ele>11.0</ele><time>2026-04-04T14:11:19Z</time></trkpt><trkpt lat="39.441333721182225" lon="9.558863397305117"><ele>11.0</ele><time>2026-04-04T14:11:20Z</time></trkpt><trkpt lat="39.44109424562673" lon="9.558758805951957"><ele>9.5</ele><time>2026-04-04T14:11:21Z</time></trkpt><trkpt lat="39.440846982899124" lon="9.558669279513516"><ele>8.0</ele><time>2026-04-04T14:11:22Z</time></trkpt><trkpt lat="39.44059227407307" lon="9.558585029530624"><ele>7.0</ele><time>2026-04-04T14:11:23Z</time></trkpt><trkpt lat="39.44033682117605" lon="9.558510755874057"><ele>6.0</ele><time>2026-04-04T14:11:24Z</time></trkpt><trkpt lat="39.44007275852476" lon="9.55844376295823"><ele>6.0</ele><time>2026-04-04T14:11:25Z</time></trkpt><trkpt lat="39.439821574966636" lon="9.55839170705444"><ele>6.0</ele><time>2026-04-04T14:11:26Z</time></trkpt><trkpt lat="39.43957768949886" lon="9.558358099290881"><ele>7.0</ele><time>2026-04-04T14:11:27Z</time></trkpt><trkpt lat="39.439330222071945" lon="9.558337184830117"><ele>8.0</ele><time>2026-04-04T14:11:28Z</time></trkpt><trkpt lat="39.439080855957" lon="9.558326563633045"><ele>8.0</ele><time>2026-04-04T14:11:29Z</time></trkpt><trkpt lat="39.43882933099472" lon="9.558323634790403"><ele>8.0</ele><time>2026-04-04T14:11:30Z</time></trkpt><trkpt lat="39.43858074933973" lon="9.558329255553298"><ele>8.5</ele><time>2026-04-04T14:11:31Z</time></trkpt><trkpt lat="39.438331168740106" lon="9.558341326180818"><ele>9.0</ele><time>2026-04-04T14:11:32Z</time></trkpt><trkpt lat="39.43808075686566" lon="9.558359015826085"><ele>9.0</ele><time>2026-04-04T14:11:33Z</time></trkpt><trkpt lat="39.43783122239087" lon="9.55837905053045"><ele>9.0</ele><time>2026-04-04T14:11:34Z</time></trkpt><trkpt lat="39.437577438157476" lon="9.55840219779553"><ele>9.0</ele><time>2026-04-04T14:11:35Z</time></trkpt><trkpt lat="39.43732563309633" lon="9.558426081556737"><ele>9.0</ele><time>2026-04-04T14:11:36Z</time></trkpt><trkpt lat="39.437075149598016" lon="9.558451564662944"><ele>8.5</ele><time>2026-04-04T14:11:37Z</time></trkpt><trkpt lat="39.43681740828676" lon="9.55848026451279"><ele>8.0</ele><time>2026-04-04T14:11:38Z</time></trkpt><trkpt lat="39.43655458504607" lon="9.558507795804315"><ele>8.0</ele><time>2026-04-04T14:11:39Z</time></trkpt><trkpt lat="39.43629349321675" lon="9.558530512707831"><ele>8.0</ele><time>2026-04-04T14:11:40Z</time></trkpt><trkpt lat="39.43603291977006" lon="9.558553746969014"><ele>8.0</ele><time>2026-04-04T14:11:41Z</time></trkpt><trkpt lat="39.43577817941625" lon="9.558577498447612"><ele>8.0</ele><time>2026-04-04T14:11:42Z</time></trkpt><trkpt lat="39.435523981282174" lon="9.558603599323245"><ele>8.0</ele><time>2026-04-04T14:11:43Z</time></trkpt><trkpt lat="39.43526901021196" lon="9.558634110602133"><ele>8.0</ele><time>2026-04-04T14:11:44Z</time></trkpt><trkpt lat="39.435011989837434" lon="9.558664344211804"><ele>8.0</ele><time>2026-04-04T14:11:45Z</time></trkpt><trkpt lat="39.43475810319748" lon="9.558695166204005"><ele>8.0</ele><time>2026-04-04T14:11:46Z</time></trkpt><trkpt lat="39.4344997564276" lon="9.558724803783681"><ele>8.0</ele><time>2026-04-04T14:11:47Z</time></trkpt><trkpt lat="39.43424613379938" lon="9.558754132757493"><ele>8.0</ele><time>2026-04-04T14:11:48Z</time></trkpt><trkpt lat="39.4339904959076" lon="9.55878349119104"><ele>7.5</ele><time>2026-04-04T14:11:49Z</time></trkpt><trkpt lat="39.433737370720095" lon="9.55881272798868"><ele>7.0</ele><time>2026-04-04T14:11:50Z</time></trkpt><trkpt lat="39.43348415663178" lon="9.558840445889329"><ele>7.0</ele><time>2026-04-04T14:11:51Z</time></trkpt><trkpt lat="39.433232466160305" lon="9.558866148887848"><ele>7.0</ele><time>2026-04-04T14:11:52Z</time></trkpt><trkpt lat="39.43298245336919" lon="9.558891946764177"><ele>7.0</ele><time>2026-04-04T14:11:53Z</time></trkpt><trkpt lat="39.43272729195837" lon="9.558921409626231"><ele>7.0</ele><time>2026-04-04T14:11:54Z</time></trkpt><trkpt lat="39.43247356796386" lon="9.55895016017304"><ele>7.0</ele><time>2026-04-04T14:11:55Z</time></trkpt><trkpt lat="39.43221075364714" lon="9.558977960612086"><ele>7.0</ele><time>2026-04-04T14:11:55.999Z</time></trkpt><trkpt lat="39.43194846956719" lon="9.55900622114234"><ele>7.0</ele><time>2026-04-04T14:11:56.999Z</time></trkpt><trkpt lat="39.43168421974823" lon="9.559033884300785"><ele>7.0</ele><time>2026-04-04T14:11:57.999Z</time></trkpt><trkpt lat="39.43142983011665" lon="9.559060476152887"><ele>7.5</ele><time>2026-04-04T14:11:58.999Z</time></trkpt><trkpt lat="39.431189347285084" lon="9.559084915145073"><ele>8.0</ele><time>2026-04-04T14:11:59.999Z</time></trkpt><trkpt lat="39.43096102460937" lon="9.559108848665334"><ele>8.0</ele><time>2026-04-04T14:12:00.999Z</time></trkpt><trkpt lat="39.43072532854034" lon="9.559132979282502"><ele>8.0</ele><time>2026-04-04T14:12:01.999Z</time></trkpt><trkpt lat="39.430490449486626" lon="9.559158061672871"><ele>8.0</ele><time>2026-04-04T14:12:02.999Z</time></trkpt><trkpt lat="39.43025639217866" lon="9.559182181677004"><ele>8.0</ele><time>2026-04-04T14:12:03.999Z</time></trkpt><trkpt lat="39.430022905768546" lon="9.559205083435673"><ele>8.0</ele><time>2026-04-04T14:12:04.999Z</time></trkpt><trkpt lat="39.4297853750294" lon="9.55922864171108"><ele>8.0</ele><time>2026-04-04T14:12:05.999Z</time></trkpt><trkpt lat="39.429545761805045" lon="9.55925323429341"><ele>7.5</ele><time>2026-04-04T14:12:06.999Z</time></trkpt><trkpt lat="39.42930131769968" lon="9.559279233168425"><ele>7.0</ele><time>2026-04-04T14:12:07.999Z</time></trkpt><trkpt lat="39.4290552361949" lon="9.5593052658483"><ele>7.0</ele><time>2026-04-04T14:12:08.999Z</time></trkpt><trkpt lat="39.42881072000142" lon="9.559332585628864"><ele>7.0</ele><time>2026-04-04T14:12:09.999Z</time></trkpt><trkpt lat="39.428564977257636" lon="9.559360958108078"><ele>7.5</ele><time>2026-04-04T14:12:10.999Z</time></trkpt><trkpt lat="39.428323477327936" lon="9.559390062411781"><ele>8.0</ele><time>2026-04-04T14:12:11.999Z</time></trkpt><trkpt lat="39.42808598419834" lon="9.559415463484745"><ele>8.0</ele><time>2026-04-04T14:12:12.999Z</time></trkpt><trkpt lat="39.42785051221485" lon="9.559438833581758"><ele>8.0</ele><time>2026-04-04T14:12:13.999Z</time></trkpt><trkpt lat="39.427613568041004" lon="9.55945608544929"><ele>8.0</ele><time>2026-04-04T14:12:14.999Z</time></trkpt><trkpt lat="39.42737503177991" lon="9.559467540569655"><ele>8.0</ele><time>2026-04-04T14:12:15.999Z</time></trkpt><trkpt lat="39.42713574473118" lon="9.559475119827187"><ele>8.5</ele><time>2026-04-04T14:12:16.999Z</time></trkpt><trkpt lat="39.42689582206943" lon="9.559478394275374"><ele>9.0</ele><time>2026-04-04T14:12:17.999Z</time></trkpt><trkpt lat="39.42665757720146" lon="9.559478923385736"><ele>9.0</ele><time>2026-04-04T14:12:18.999Z</time></trkpt><trkpt lat="39.426420652618255" lon="9.559474103653121"><ele>9.0</ele><time>2026-04-04T14:12:19.999Z</time></trkpt><trkpt lat="39.42618088028355" lon="9.559466851890951"><ele>15.0</ele><time>2026-04-04T14:12:20.999Z</time></trkpt><trkpt lat="39.42593397088081" lon="9.559450102513452"><ele>21.0</ele><time>2026-04-04T14:12:21.999Z</time></trkpt><trkpt lat="39.4256913947734" lon="9.559425075559536"><ele>25.0</ele><time>2026-04-04T14:12:22.999Z</time></trkpt><trkpt lat="39.42544619795369" lon="9.559388476981198"><ele>29.0</ele><time>2026-04-04T14:12:23.999Z</time></trkpt><trkpt lat="39.42519844458739" lon="9.559343529888716"><ele>29.0</ele><time>2026-04-04T14:12:24.999Z</time></trkpt><trkpt lat="39.424941793447715" lon="9.559293941637018"><ele>29.0</ele><time>2026-04-04T14:12:25.999Z</time></trkpt><trkpt lat="39.42468804911884" lon="9.559238352792853"><ele>28.0</ele><time>2026-04-04T14:12:26.999Z</time></trkpt><trkpt lat="39.42443647213557" lon="9.559176204095081"><ele>27.0</ele><time>2026-04-04T14:12:27.999Z</time></trkpt><trkpt lat="39.42419465276566" lon="9.559106340784188"><ele>27.0</ele><time>2026-04-04T14:12:28.999Z</time></trkpt><trkpt lat="39.423957951321384" lon="9.559028667288691"><ele>27.0</ele><time>2026-04-04T14:12:29.999Z</time></trkpt><trkpt lat="39.42372402258453" lon="9.558940465500909"><ele>25.5</ele><time>2026-04-04T14:12:30.999Z</time></trkpt><trkpt lat="39.42349481967013" lon="9.55884699118832"><ele>24.0</ele><time>2026-04-04T14:12:31.999Z</time></trkpt><trkpt lat="39.42324910674935" lon="9.558758880176878"><ele>26.5</ele><time>2026-04-04T14:12:32.999Z</time></trkpt><trkpt lat="39.423004549819055" lon="9.558663434575891"><ele>29.0</ele><time>2026-04-04T14:12:33.999Z</time></trkpt><trkpt lat="39.422759161543155" lon="9.558568327646297"><ele>29.0</ele><time>2026-04-04T14:12:34.999Z</time></trkpt><trkpt lat="39.422515711304406" lon="9.558465428621112"><ele>29.0</ele><time>2026-04-04T14:12:35.999Z</time></trkpt><trkpt lat="39.42227542967961" lon="9.558360055149365"><ele>27.5</ele><time>2026-04-04T14:12:36.999Z</time></trkpt><trkpt lat="39.422044073185056" lon="9.558256492849065"><ele>26.0</ele><time>2026-04-04T14:12:37.999Z</time></trkpt><trkpt lat="39.42182813929754" lon="9.558154917236722"><ele>26.0</ele><time>2026-04-04T14:12:38.999Z</time></trkpt><trkpt lat="39.421614615414015" lon="9.558059809259836"><ele>26.0</ele><time>2026-04-04T14:12:39.999Z</time></trkpt><trkpt lat="39.42139381357578" lon="9.557962967646812"><ele>30.0</ele><time>2026-04-04T14:12:40.999Z</time></trkpt><trkpt lat="39.42117168414015" lon="9.557868222633097"><ele>34.0</ele><time>2026-04-04T14:12:41.999Z</time></trkpt><trkpt lat="39.42094052924685" lon="9.557770544608447"><ele>34.0</ele><time>2026-04-04T14:12:42.999Z</time></trkpt><trkpt lat="39.42070876605973" lon="9.55767240875503"><ele>34.0</ele><time>2026-04-04T14:12:43.999Z</time></trkpt><trkpt lat="39.420471810331435" lon="9.557570418547852"><ele>32.5</ele><time>2026-04-04T14:12:44.999Z</time></trkpt><trkpt lat="39.42022962305034" lon="9.557465446085379"><ele>31.0</ele><time>2026-04-04T14:12:45.999Z</time></trkpt><trkpt lat="39.419986055729666" lon="9.557361620654975"><ele>31.0</ele><time>2026-04-04T14:12:46.999Z</time></trkpt><trkpt lat="39.41974954781029" lon="9.557267134635426"><ele>31.0</ele><time>2026-04-04T14:12:47.999Z</time></trkpt><trkpt lat="39.41951864003705" lon="9.557182774221204"><ele>31.5</ele><time>2026-04-04T14:12:48.999Z</time></trkpt><trkpt lat="39.41928983695375" lon="9.557108873099104"><ele>32.0</ele><time>2026-04-04T14:12:49.999Z</time></trkpt><trkpt lat="39.419062942420005" lon="9.557044503608125"><ele>35.5</ele><time>2026-04-04T14:12:50.999Z</time></trkpt><trkpt lat="39.41883460642179" lon="9.556989616812604"><ele>39.0</ele><time>2026-04-04T14:12:51.999Z</time></trkpt><trkpt lat="39.418606709874" lon="9.556944996200595"><ele>39.0</ele><time>2026-04-04T14:12:52.999Z</time></trkpt><trkpt lat="39.418379414141356" lon="9.556911650421238"><ele>39.0</ele><time>2026-04-04T14:12:53.999Z</time></trkpt><trkpt lat="39.41814761617822" lon="9.55689021968079"><ele>40.5</ele><time>2026-04-04T14:12:54.999Z</time></trkpt><trkpt lat="39.41791347946479" lon="9.556876648241541"><ele>42.0</ele><time>2026-04-04T14:12:55.999Z</time></trkpt><trkpt lat="39.41767244433509" lon="9.556873263003759"><ele>42.0</ele><time>2026-04-04T14:12:56.999Z</time></trkpt><trkpt lat="39.417426823840344" lon="9.556882401927963"><ele>42.0</ele><time>2026-04-04T14:12:57.999Z</time></trkpt><trkpt lat="39.41718066553176" lon="9.556905407703589"><ele>42.0</ele><time>2026-04-04T14:12:58.999Z</time></trkpt><trkpt lat="39.41693554198562" lon="9.556941071738093"><ele>42.0</ele><time>2026-04-04T14:12:59.999Z</time></trkpt><trkpt lat="39.41668747738705" lon="9.55698921915735"><ele>41.0</ele><time>2026-04-04T14:13:00.999Z</time></trkpt><trkpt lat="39.41644177601179" lon="9.557052740006236"><ele>40.0</ele><time>2026-04-04T14:13:01.999Z</time></trkpt><trkpt lat="39.41619878953469" lon="9.55712826276657"><ele>43.5</ele><time>2026-04-04T14:13:02.999Z</time></trkpt><trkpt lat="39.415959820964986" lon="9.557216272484846"><ele>47.0</ele><time>2026-04-04T14:13:03.999Z</time></trkpt><trkpt lat="39.41571958751093" lon="9.557310567146923"><ele>50.0</ele><time>2026-04-04T14:13:04.999Z</time></trkpt><trkpt lat="39.41547838065693" lon="9.557412192594324"><ele>53.0</ele><time>2026-04-04T14:13:05.999Z</time></trkpt><trkpt lat="39.415240978555154" lon="9.557516096030248"><ele>53.0</ele><time>2026-04-04T14:13:06.999Z</time></trkpt><trkpt lat="39.41500409399659" lon="9.557623820278739"><ele>53.0</ele><time>2026-04-04T14:13:07.999Z</time></trkpt><trkpt lat="39.41476846062306" lon="9.55773497077629"><ele>52.0</ele><time>2026-04-04T14:13:08.999Z</time></trkpt><trkpt lat="39.414533144052946" lon="9.557846475070649"><ele>51.0</ele><time>2026-04-04T14:13:09.999Z</time></trkpt><trkpt lat="39.41429822267062" lon="9.557959255034154"><ele>51.0</ele><time>2026-04-04T14:13:10.999Z</time></trkpt><trkpt lat="39.414062872541265" lon="9.558073852135745"><ele>51.0</ele><time>2026-04-04T14:13:11.999Z</time></trkpt><trkpt lat="39.41382733494248" lon="9.558187236307468"><ele>51.0</ele><time>2026-04-04T14:13:12.999Z</time></trkpt><trkpt lat="39.413589282696364" lon="9.558298450110918"><ele>51.0</ele><time>2026-04-04T14:13:13.999Z</time></trkpt><trkpt lat="39.4133505272022" lon="9.55840264253052"><ele>51.0</ele><time>2026-04-04T14:13:14.999Z</time></trkpt><trkpt lat="39.41310875752949" lon="9.55850177034503"><ele>51.0</ele><time>2026-04-04T14:13:16Z</time></trkpt><trkpt lat="39.41286692272423" lon="9.558594595591337"><ele>53.0</ele><time>2026-04-04T14:13:17Z</time></trkpt><trkpt lat="39.41262247175605" lon="9.558684268238759"><ele>55.0</ele><time>2026-04-04T14:13:18Z</time></trkpt><trkpt lat="39.4123758784625" lon="9.558769472447937"><ele>54.0</ele><time>2026-04-04T14:13:19Z</time></trkpt><trkpt lat="39.412130491552574" lon="9.558846281781316"><ele>53.0</ele><time>2026-04-04T14:13:20Z</time></trkpt><trkpt lat="39.41188224656817" lon="9.558914065828986"><ele>53.0</ele><time>2026-04-04T14:13:21Z</time></trkpt><trkpt lat="39.41163710487241" lon="9.558966775337103"><ele>53.0</ele><time>2026-04-04T14:13:22Z</time></trkpt><trkpt lat="39.411389491999316" lon="9.559006604430968"><ele>55.5</ele><time>2026-04-04T14:13:23Z</time></trkpt><trkpt lat="39.41113945861523" lon="9.559035606472536"><ele>58.0</ele><time>2026-04-04T14:13:24Z</time></trkpt><trkpt lat="39.410885399477785" lon="9.559054381489482"><ele>58.0</ele><time>2026-04-04T14:13:25Z</time></trkpt><trkpt lat="39.41063060131301" lon="9.559063209145185"><ele>58.0</ele><time>2026-04-04T14:13:26Z</time></trkpt><trkpt lat="39.410372774604916" lon="9.559062416011214"><ele>60.0</ele><time>2026-04-04T14:13:27Z</time></trkpt><trkpt lat="39.41011674892519" lon="9.559048325073714"><ele>62.0</ele><time>2026-04-04T14:13:28Z</time></trkpt><trkpt lat="39.40985853823868" lon="9.55901950584212"><ele>61.5</ele><time>2026-04-04T14:13:29Z</time></trkpt><trkpt lat="39.40960336998442" lon="9.558980073417532"><ele>61.0</ele><time>2026-04-04T14:13:30Z</time></trkpt><trkpt lat="39.40934655944381" lon="9.55892806202382"><ele>61.0</ele><time>2026-04-04T14:13:31Z</time></trkpt><trkpt lat="39.40909199696895" lon="9.558860499301431"><ele>61.0</ele><time>2026-04-04T14:13:32Z</time></trkpt><trkpt lat="39.40884273259069" lon="9.558782596426118"><ele>64.5</ele><time>2026-04-04T14:13:33Z</time></trkpt><trkpt lat="39.40859659288387" lon="9.558691091821183"><ele>68.0</ele><time>2026-04-04T14:13:34Z</time></trkpt><trkpt lat="39.40835404747919" lon="9.558588025421804"><ele>68.0</ele><time>2026-04-04T14:13:35Z</time></trkpt><trkpt lat="39.4081091521695" lon="9.55847397478406"><ele>68.0</ele><time>2026-04-04T14:13:36Z</time></trkpt><trkpt lat="39.40786900858785" lon="9.55835147624797"><ele>64.5</ele><time>2026-04-04T14:13:37Z</time></trkpt><trkpt lat="39.40763588544469" lon="9.558218438839743"><ele>61.0</ele><time>2026-04-04T14:13:38Z</time></trkpt><trkpt lat="39.407412334676465" lon="9.55807543087832"><ele>61.0</ele><time>2026-04-04T14:13:39Z</time></trkpt><trkpt lat="39.407191359165395" lon="9.557920786097876"><ele>61.0</ele><time>2026-04-04T14:13:40Z</time></trkpt><trkpt lat="39.40696861919044" lon="9.557756392574149"><ele>65.5</ele><time>2026-04-04T14:13:40.999Z</time></trkpt><trkpt lat="39.4067552653927" lon="9.557594863708504"><ele>70.0</ele><time>2026-04-04T14:13:41.999Z</time></trkpt><trkpt lat="39.406555006588" lon="9.557432961914936"><ele>70.0</ele><time>2026-04-04T14:13:42.999Z</time></trkpt><trkpt lat="39.406357635423426" lon="9.557267195338492"><ele>70.0</ele><time>2026-04-04T14:13:43.999Z</time></trkpt><trkpt lat="39.40615681333956" lon="9.557084426952391"><ele>72.5</ele><time>2026-04-04T14:13:44.999Z</time></trkpt><trkpt lat="39.40595530306067" lon="9.556899769672343"><ele>75.0</ele><time>2026-04-04T14:13:45.999Z</time></trkpt><trkpt lat="39.405748838713066" lon="9.556705417378511"><ele>75.0</ele><time>2026-04-04T14:13:46.999Z</time></trkpt><trkpt lat="39.40553970937588" lon="9.5565081698825"><ele>75.0</ele><time>2026-04-04T14:13:47.999Z</time></trkpt><trkpt lat="39.40533055935673" lon="9.556311564051848"><ele>79.0</ele><time>2026-04-04T14:13:48.999Z</time></trkpt><trkpt lat="39.405118966083535" lon="9.556115434714817"><ele>83.0</ele><time>2026-04-04T14:13:49.999Z</time></trkpt><trkpt lat="39.404911072906245" lon="9.555921582842721"><ele>83.0</ele><time>2026-04-04T14:13:50.999Z</time></trkpt><trkpt lat="39.40471068112908" lon="9.555731880947095"><ele>83.0</ele><time>2026-04-04T14:13:51.999Z</time></trkpt><trkpt lat="39.404511320181804" lon="9.55554105892477"><ele>85.5</ele><time>2026-04-04T14:13:52.999Z</time></trkpt><trkpt lat="39.40431950470533" lon="9.555360093562717"><ele>88.0</ele><time>2026-04-04T14:13:53.999Z</time></trkpt><trkpt lat="39.40412838114485" lon="9.555181053065125"><ele>88.0</ele><time>2026-04-04T14:13:54.999Z</time></trkpt><trkpt lat="39.40394197087617" lon="9.555006625076208"><ele>88.0</ele><time>2026-04-04T14:13:55.999Z</time></trkpt><trkpt lat="39.40375818015103" lon="9.554835512747703"><ele>92.5</ele><time>2026-04-04T14:13:56.999Z</time></trkpt><trkpt lat="39.403571078426104" lon="9.554660847575203"><ele>97.0</ele><time>2026-04-04T14:13:57.999Z</time></trkpt><trkpt lat="39.40338695269613" lon="9.55448600964638"><ele>97.0</ele><time>2026-04-04T14:13:58.999Z</time></trkpt><trkpt lat="39.40319645899749" lon="9.554283332414752"><ele>97.0</ele><time>2026-04-04T14:14:00.072Z</time></trkpt><trkpt lat="39.403007774557175" lon="9.554102247270212"><ele>110.5</ele><time>2026-04-04T14:14:01.069Z</time></trkpt><trkpt lat="39.40281955355496" lon="9.55392160690984"><ele>124.0</ele><time>2026-04-04T14:14:02.065Z</time></trkpt><trkpt lat="39.40263245064141" lon="9.553742039576687"><ele>122.0</ele><time>2026-04-04T14:14:03.065Z</time></trkpt><trkpt lat="39.402446778442425" lon="9.553563845348728"><ele>120.0</ele><time>2026-04-04T14:14:04.062Z</time></trkpt><trkpt lat="39.40226760116886" lon="9.553391884473621"><ele>120.0</ele><time>2026-04-04T14:14:05.04Z</time></trkpt><trkpt lat="39.40208520295448" lon="9.553216831527932"><ele>120.0</ele><time>2026-04-04T14:14:06.023Z</time></trkpt><trkpt lat="39.4022443" lon="9.5533963"><ele>120.0</ele><time>2026-04-04T14:14:09.508Z</time></trkpt><trkpt lat="39.390313776777916" lon="9.541933421678005"><ele>117.66666666666666</ele><time>2026-04-04T14:15:11.999Z</time></trkpt><trkpt lat="39.3901417909765" lon="9.54176461945363"><ele>115.33333333333333</ele><time>2026-04-04T14:15:13Z</time></trkpt><trkpt lat="39.38998887824922" lon="9.541623946483757"><ele>113.0</ele><time>2026-04-04T14:15:14Z</time></trkpt><trkpt lat="39.38981545276182" lon="9.54145420844219"><ele>109.66666666666666</ele><time>2026-04-04T14:15:15Z</time></trkpt><trkpt lat="39.38963265625797" lon="9.54127933994844"><ele>106.33333333333334</ele><time>2026-04-04T14:15:16Z</time></trkpt><trkpt lat="39.389454639336755" lon="9.54110837931644"><ele>103.0</ele><time>2026-04-04T14:15:17Z</time></trkpt><trkpt lat="39.3892764908393" lon="9.540939538042847"><ele>101.0</ele><time>2026-04-04T14:15:18Z</time></trkpt><trkpt lat="39.38909810123051" lon="9.54078251009662"><ele>99.0</ele><time>2026-04-04T14:15:19Z</time></trkpt><trkpt lat="39.388914477645514" lon="9.540611597809093"><ele>97.0</ele><time>2026-04-04T14:15:20Z</time></trkpt><trkpt lat="39.388735749345486" lon="9.540436151131326"><ele>94.66666666666667</ele><time>2026-04-04T14:15:21Z</time></trkpt><trkpt lat="39.38855608460832" lon="9.540264971327817"><ele>92.33333333333334</ele><time>2026-04-04T14:15:22.001Z</time></trkpt><trkpt lat="39.38839699265193" lon="9.54010197499379"><ele>90.0</ele><time>2026-04-04T14:15:23.001Z</time></trkpt><trkpt lat="39.38822893502732" lon="9.539939030074118"><ele>90.0</ele><time>2026-04-04T14:15:24Z</time></trkpt><trkpt lat="39.38806491146163" lon="9.539782005486389"><ele>90.0</ele><time>2026-04-04T14:15:25Z</time></trkpt><trkpt lat="39.387908212281154" lon="9.539633748584718"><ele>90.0</ele><time>2026-04-04T14:15:26Z</time></trkpt><trkpt lat="39.387751681247636" lon="9.539487179721588"><ele>89.66666666666667</ele><time>2026-04-04T14:15:27Z</time></trkpt><trkpt lat="39.387590245387464" lon="9.539337798495222"><ele>89.33333333333334</ele><time>2026-04-04T14:15:28Z</time></trkpt><trkpt lat="39.38742489831998" lon="9.539187900642972"><ele>89.0</ele><time>2026-04-04T14:15:29.001Z</time></trkpt><trkpt lat="39.38725313573911" lon="9.539033841950518"><ele>86.66666666666667</ele><time>2026-04-04T14:15:30.001Z</time></trkpt><trkpt lat="39.387078859837" lon="9.538876863581843"><ele>84.33333333333333</ele><time>2026-04-04T14:15:31.001Z</time></trkpt><trkpt lat="39.38689864226303" lon="9.53871213800715"><ele>82.0</ele><time>2026-04-04T14:15:32.001Z</time></trkpt><trkpt lat="39.386713398696656" lon="9.538547155261805"><ele>82.0</ele><time>2026-04-04T14:15:33.001Z</time></trkpt><trkpt lat="39.38652045595073" lon="9.538383280533818"><ele>82.0</ele><time>2026-04-04T14:15:34.001Z</time></trkpt><trkpt lat="39.38632179176868" lon="9.538219299996882"><ele>79.0</ele><time>2026-04-04T14:15:35.001Z</time></trkpt><trkpt lat="39.38612122233845" lon="9.538058235295576"><ele>76.0</ele><time>2026-04-04T14:15:36.001Z</time></trkpt><trkpt lat="39.38592247590222" lon="9.537906204477784"><ele>82.0</ele><time>2026-04-04T14:15:37Z</time></trkpt><trkpt lat="39.38572336661004" lon="9.537763449186592"><ele>88.0</ele><time>2026-04-04T14:15:38Z</time></trkpt><trkpt lat="39.38551930279343" lon="9.537624599143466"><ele>85.5</ele><time>2026-04-04T14:15:39Z</time></trkpt><trkpt lat="39.38530725983839" lon="9.53748576530168"><ele>83.0</ele><time>2026-04-04T14:15:40Z</time></trkpt><trkpt lat="39.38509018679923" lon="9.537348621350992"><ele>83.0</ele><time>2026-04-04T14:15:41Z</time></trkpt><trkpt lat="39.38486612428924" lon="9.537213091433435"><ele>83.0</ele><time>2026-04-04T14:15:42Z</time></trkpt><trkpt lat="39.38462951963001" lon="9.53707576723601"><ele>82.5</ele><time>2026-04-04T14:15:43Z</time></trkpt><trkpt lat="39.38438172509049" lon="9.53694105823279"><ele>82.0</ele><time>2026-04-04T14:15:44Z</time></trkpt><trkpt lat="39.38412168785228" lon="9.536814147099145"><ele>82.0</ele><time>2026-04-04T14:15:45Z</time></trkpt><trkpt lat="39.38384934617267" lon="9.536695963543714"><ele>82.0</ele><time>2026-04-04T14:15:46Z</time></trkpt><trkpt lat="39.383564500542725" lon="9.536585324502425"><ele>79.0</ele><time>2026-04-04T14:15:47Z</time></trkpt><trkpt lat="39.38327431540316" lon="9.536481576325913"><ele>76.0</ele><time>2026-04-04T14:15:48Z</time></trkpt><trkpt lat="39.38297731109278" lon="9.536384532696601"><ele>74.5</ele><time>2026-04-04T14:15:49Z</time></trkpt><trkpt lat="39.38267858238011" lon="9.53629700855752"><ele>73.0</ele><time>2026-04-04T14:15:50Z</time></trkpt><trkpt lat="39.38237310678839" lon="9.536219217414622"><ele>72.5</ele><time>2026-04-04T14:15:51Z</time></trkpt><trkpt lat="39.38205881682943" lon="9.53615337329073"><ele>72.0</ele><time>2026-04-04T14:15:52Z</time></trkpt><trkpt lat="39.38174499034656" lon="9.536098893298142"><ele>72.0</ele><time>2026-04-04T14:15:53Z</time></trkpt><trkpt lat="39.38144222512363" lon="9.536058932070416"><ele>72.0</ele><time>2026-04-04T14:15:54Z</time></trkpt><trkpt lat="39.3811452241153" lon="9.536029553486895"><ele>69.5</ele><time>2026-04-04T14:15:55Z</time></trkpt><trkpt lat="39.38085001147429" lon="9.536011727732937"><ele>67.0</ele><time>2026-04-04T14:15:56Z</time></trkpt><trkpt lat="39.38056298119063" lon="9.53600509391429"><ele>63.5</ele><time>2026-04-04T14:15:57Z</time></trkpt><trkpt lat="39.38028172783746" lon="9.536009395115796"><ele>60.0</ele><time>2026-04-04T14:15:58Z</time></trkpt><trkpt lat="39.37999936600248" lon="9.536026018464536"><ele>60.0</ele><time>2026-04-04T14:15:59Z</time></trkpt><trkpt lat="39.37971588576671" lon="9.5360481275132"><ele>60.0</ele><time>2026-04-04T14:16:00Z</time></trkpt><trkpt lat="39.379426507341286" lon="9.536073768394461"><ele>58.5</ele><time>2026-04-04T14:16:01Z</time></trkpt><trkpt lat="39.37913753942413" lon="9.536101081886718"><ele>57.0</ele><time>2026-04-04T14:16:02Z</time></trkpt><trkpt lat="39.37884581030713" lon="9.53613522381977"><ele>55.5</ele><time>2026-04-04T14:16:03Z</time></trkpt><trkpt lat="39.37855247705513" lon="9.536173337972587"><ele>54.0</ele><time>2026-04-04T14:16:04Z</time></trkpt><trkpt lat="39.378257544549406" lon="9.53621507853948"><ele>52.0</ele><time>2026-04-04T14:16:05Z</time></trkpt><trkpt lat="39.37796548945862" lon="9.536263568535182"><ele>50.0</ele><time>2026-04-04T14:16:06Z</time></trkpt><trkpt lat="39.377672243790244" lon="9.536315118128359"><ele>50.0</ele><time>2026-04-04T14:16:07Z</time></trkpt><trkpt lat="39.37738145096702" lon="9.536371994804183"><ele>50.0</ele><time>2026-04-04T14:16:08Z</time></trkpt><trkpt lat="39.37708804863452" lon="9.536431240684921"><ele>50.0</ele><time>2026-04-04T14:16:09Z</time></trkpt><trkpt lat="39.376797294393995" lon="9.536488258447218"><ele>50.0</ele><time>2026-04-04T14:16:10Z</time></trkpt><trkpt lat="39.37650737991178" lon="9.536542443712063"><ele>49.0</ele><time>2026-04-04T14:16:11Z</time></trkpt><trkpt lat="39.37623522170346" lon="9.536590566293702"><ele>48.0</ele><time>2026-04-04T14:16:12Z</time></trkpt><trkpt lat="39.37596502932358" lon="9.536638301466594"><ele>48.0</ele><time>2026-04-04T14:16:13Z</time></trkpt><trkpt lat="39.37570158286257" lon="9.536687779115137"><ele>48.0</ele><time>2026-04-04T14:16:14Z</time></trkpt><trkpt lat="39.37545394885167" lon="9.536735483796287"><ele>46.5</ele><time>2026-04-04T14:16:15Z</time></trkpt><trkpt lat="39.375221864925464" lon="9.536778847762754"><ele>45.0</ele><time>2026-04-04T14:16:16Z</time></trkpt><trkpt lat="39.374991874932554" lon="9.536821304861213"><ele>45.0</ele><time>2026-04-04T14:16:17Z</time></trkpt><trkpt lat="39.374759898532254" lon="9.53686362978378"><ele>45.0</ele><time>2026-04-04T14:16:18Z</time></trkpt><trkpt lat="39.374522885048115" lon="9.53690708817347"><ele>44.0</ele><time>2026-04-04T14:16:19Z</time></trkpt><trkpt lat="39.37428691069306" lon="9.536949177221885"><ele>43.0</ele><time>2026-04-04T14:16:20Z</time></trkpt><trkpt lat="39.374049591796854" lon="9.53699066612588"><ele>42.0</ele><time>2026-04-04T14:16:21Z</time></trkpt><trkpt lat="39.373812030570754" lon="9.537033580927202"><ele>41.0</ele><time>2026-04-04T14:16:22Z</time></trkpt><trkpt lat="39.37357484022503" lon="9.537079795443843"><ele>41.0</ele><time>2026-04-04T14:16:23Z</time></trkpt><trkpt lat="39.3733423184705" lon="9.537126939023944"><ele>41.0</ele><time>2026-04-04T14:16:24Z</time></trkpt><trkpt lat="39.37310326379662" lon="9.53717331457798"><ele>41.0</ele><time>2026-04-04T14:16:25Z</time></trkpt><trkpt lat="39.37286714263382" lon="9.537217168124464"><ele>41.0</ele><time>2026-04-04T14:16:26Z</time></trkpt><trkpt lat="39.372626085884626" lon="9.537260927032547"><ele>41.0</ele><time>2026-04-04T14:16:27Z</time></trkpt><trkpt lat="39.3723916509553" lon="9.5373061180957"><ele>41.0</ele><time>2026-04-04T14:16:28Z</time></trkpt><trkpt lat="39.372153419490054" lon="9.537353684597353"><ele>39.5</ele><time>2026-04-04T14:16:29Z</time></trkpt><trkpt lat="39.37192265369065" lon="9.537397091267627"><ele>38.0</ele><time>2026-04-04T14:16:30Z</time></trkpt><trkpt lat="39.37170693362995" lon="9.537435111030323"><ele>38.0</ele><time>2026-04-04T14:16:31Z</time></trkpt><trkpt lat="39.37148810615005" lon="9.537471872074079"><ele>38.0</ele><time>2026-04-04T14:16:32Z</time></trkpt><trkpt lat="39.37125907384603" lon="9.537510577661038"><ele>37.0</ele><time>2026-04-04T14:16:33Z</time></trkpt><trkpt lat="39.37103108934131" lon="9.537549970259647"><ele>36.0</ele><time>2026-04-04T14:16:34Z</time></trkpt><trkpt lat="39.37080379555818" lon="9.5375913262403"><ele>36.0</ele><time>2026-04-04T14:16:35Z</time></trkpt><trkpt lat="39.37057390875667" lon="9.537635931705319"><ele>36.0</ele><time>2026-04-04T14:16:36Z</time></trkpt><trkpt lat="39.37034574024452" lon="9.537683407898745"><ele>35.5</ele><time>2026-04-04T14:16:37Z</time></trkpt><trkpt lat="39.370123062222774" lon="9.537729553069692"><ele>35.0</ele><time>2026-04-04T14:16:38Z</time></trkpt><trkpt lat="39.3698947890496" lon="9.537771873657434"><ele>33.0</ele><time>2026-04-04T14:16:39Z</time></trkpt><trkpt lat="39.36966721993837" lon="9.537813519776348"><ele>31.0</ele><time>2026-04-04T14:16:40Z</time></trkpt><trkpt lat="39.36943962420634" lon="9.537853877618861"><ele>31.0</ele><time>2026-04-04T14:16:41Z</time></trkpt><trkpt lat="39.36921069291827" lon="9.537894882525498"><ele>31.0</ele><time>2026-04-04T14:16:42Z</time></trkpt><trkpt lat="39.36897995582392" lon="9.537935576767104"><ele>30.0</ele><time>2026-04-04T14:16:43Z</time></trkpt><trkpt lat="39.36874504677302" lon="9.537980710220566"><ele>29.0</ele><time>2026-04-04T14:16:44Z</time></trkpt><trkpt lat="39.36851115064676" lon="9.538027144924488"><ele>29.0</ele><time>2026-04-04T14:16:45Z</time></trkpt><trkpt lat="39.368272973677456" lon="9.538076143182534"><ele>29.0</ele><time>2026-04-04T14:16:46Z</time></trkpt><trkpt lat="39.36803363147732" lon="9.538125576493105"><ele>27.0</ele><time>2026-04-04T14:16:47Z</time></trkpt><trkpt lat="39.3677960090573" lon="9.538174550230579"><ele>25.0</ele><time>2026-04-04T14:16:48Z</time></trkpt><trkpt lat="39.367556193073355" lon="9.53822126718592"><ele>25.0</ele><time>2026-04-04T14:16:49Z</time></trkpt><trkpt lat="39.36731650327096" lon="9.538267348050933"><ele>25.0</ele><time>2026-04-04T14:16:50Z</time></trkpt><trkpt lat="39.36707641641263" lon="9.538312736125"><ele>22.0</ele><time>2026-04-04T14:16:51Z</time></trkpt><trkpt lat="39.36683357662859" lon="9.538357573369316"><ele>19.0</ele><time>2026-04-04T14:16:52Z</time></trkpt><trkpt lat="39.36659112663215" lon="9.538402813417129"><ele>17.5</ele><time>2026-04-04T14:16:53Z</time></trkpt><trkpt lat="39.36634661225554" lon="9.538449496274206"><ele>16.0</ele><time>2026-04-04T14:16:54Z</time></trkpt><trkpt lat="39.36610242496727" lon="9.538499129867041"><ele>16.0</ele><time>2026-04-04T14:16:55Z</time></trkpt><trkpt lat="39.36585727115439" lon="9.53855122750416"><ele>16.0</ele><time>2026-04-04T14:16:56Z</time></trkpt><trkpt lat="39.365605878386184" lon="9.538600807449921"><ele>13.5</ele><time>2026-04-04T14:16:57Z</time></trkpt><trkpt lat="39.36535554332533" lon="9.538648682275216"><ele>11.0</ele><time>2026-04-04T14:16:58Z</time></trkpt><trkpt lat="39.36510773145705" lon="9.538696017408025"><ele>10.5</ele><time>2026-04-04T14:16:59Z</time></trkpt><trkpt lat="39.364859437313584" lon="9.538740922558896"><ele>10.0</ele><time>2026-04-04T14:17:00Z</time></trkpt><trkpt lat="39.364613402213706" lon="9.538786963731845"><ele>9.0</ele><time>2026-04-04T14:17:01Z</time></trkpt><trkpt lat="39.364367444886334" lon="9.538834886986765"><ele>8.0</ele><time>2026-04-04T14:17:02Z</time></trkpt><trkpt lat="39.36412277583337" lon="9.538884840516424"><ele>8.0</ele><time>2026-04-04T14:17:03Z</time></trkpt><trkpt lat="39.3638790648253" lon="9.538936796105592"><ele>8.0</ele><time>2026-04-04T14:17:04Z</time></trkpt><trkpt lat="39.36363481379026" lon="9.538988942386585"><ele>9.5</ele><time>2026-04-04T14:17:05Z</time></trkpt><trkpt lat="39.36338840630597" lon="9.539040963767155"><ele>11.0</ele><time>2026-04-04T14:17:06Z</time></trkpt><trkpt lat="39.36313781196871" lon="9.539092454807157"><ele>12.5</ele><time>2026-04-04T14:17:07Z</time></trkpt><trkpt lat="39.36288927319271" lon="9.539149303578865"><ele>14.0</ele><time>2026-04-04T14:17:08Z</time></trkpt><trkpt lat="39.36264180665993" lon="9.539212355785047"><ele>14.0</ele><time>2026-04-04T14:17:09Z</time></trkpt><trkpt lat="39.36239493274815" lon="9.539283920524042"><ele>14.0</ele><time>2026-04-04T14:17:10Z</time></trkpt><trkpt lat="39.36214314718639" lon="9.539364035051278"><ele>13.0</ele><time>2026-04-04T14:17:11Z</time></trkpt><trkpt lat="39.3618954195436" lon="9.539450876953753"><ele>12.0</ele><time>2026-04-04T14:17:12Z</time></trkpt><trkpt lat="39.36164198644899" lon="9.539544048977646"><ele>12.0</ele><time>2026-04-04T14:17:13Z</time></trkpt><trkpt lat="39.36139317411269" lon="9.539643158687737"><ele>12.0</ele><time>2026-04-04T14:17:14Z</time></trkpt><trkpt lat="39.361144273591414" lon="9.539745836366492"><ele>12.0</ele><time>2026-04-04T14:17:15Z</time></trkpt><trkpt lat="39.36089623524072" lon="9.539854372394283"><ele>12.0</ele><time>2026-04-04T14:17:16Z</time></trkpt><trkpt lat="39.360650946163744" lon="9.539971101864314"><ele>11.0</ele><time>2026-04-04T14:17:17Z</time></trkpt><trkpt lat="39.36040795543355" lon="9.540094882644599"><ele>10.0</ele><time>2026-04-04T14:17:18Z</time></trkpt><trkpt lat="39.36017039594495" lon="9.54022342517162"><ele>10.0</ele><time>2026-04-04T14:17:19Z</time></trkpt><trkpt lat="39.359933837094445" lon="9.540358129127725"><ele>10.0</ele><time>2026-04-04T14:17:20Z</time></trkpt><trkpt lat="39.35970299417177" lon="9.540496971053539"><ele>10.0</ele><time>2026-04-04T14:17:21Z</time></trkpt><trkpt lat="39.35947434804088" lon="9.540641027497438"><ele>10.0</ele><time>2026-04-04T14:17:22Z</time></trkpt><trkpt lat="39.359248627944794" lon="9.540787226463863"><ele>10.0</ele><time>2026-04-04T14:17:22.999Z</time></trkpt><trkpt lat="39.359026660941616" lon="9.540937954981155"><ele>10.0</ele><time>2026-04-04T14:17:23.999Z</time></trkpt><trkpt lat="39.3588067095171" lon="9.541095037662386"><ele>11.0</ele><time>2026-04-04T14:17:24.999Z</time></trkpt><trkpt lat="39.358590398211774" lon="9.541257754550188"><ele>12.0</ele><time>2026-04-04T14:17:25.999Z</time></trkpt><trkpt lat="39.358376965123725" lon="9.541426120252755"><ele>12.0</ele><time>2026-04-04T14:17:26.999Z</time></trkpt><trkpt lat="39.358160171650006" lon="9.541602021348519"><ele>12.0</ele><time>2026-04-04T14:17:28Z</time></trkpt><trkpt lat="39.357945128276576" lon="9.541788280171575"><ele>12.0</ele><time>2026-04-04T14:17:29Z</time></trkpt><trkpt lat="39.357732736970654" lon="9.541980173782214"><ele>12.0</ele><time>2026-04-04T14:17:30Z</time></trkpt><trkpt lat="39.35752102628264" lon="9.54217819567252"><ele>12.0</ele><time>2026-04-04T14:17:31Z</time></trkpt><trkpt lat="39.35731126967203" lon="9.54237929137227"><ele>12.0</ele><time>2026-04-04T14:17:32Z</time></trkpt><trkpt lat="39.357099261399576" lon="9.542587324808155"><ele>12.5</ele><time>2026-04-04T14:17:33Z</time></trkpt><trkpt lat="39.356889421611605" lon="9.542794133429947"><ele>13.0</ele><time>2026-04-04T14:17:34Z</time></trkpt><trkpt lat="39.35667611853041" lon="9.543004665735719"><ele>14.5</ele><time>2026-04-04T14:17:35Z</time></trkpt><trkpt lat="39.35647013998991" lon="9.543211627472157"><ele>16.0</ele><time>2026-04-04T14:17:36Z</time></trkpt><trkpt lat="39.356266284473655" lon="9.543415305840274"><ele>16.0</ele><time>2026-04-04T14:17:37Z</time></trkpt><trkpt lat="39.356066923358185" lon="9.54361421552661"><ele>16.0</ele><time>2026-04-04T14:17:38Z</time></trkpt><trkpt lat="39.355866012914746" lon="9.543812055077355"><ele>14.5</ele><time>2026-04-04T14:17:39Z</time></trkpt><trkpt lat="39.355667499101116" lon="9.544007479912485"><ele>13.0</ele><time>2026-04-04T14:17:40Z</time></trkpt><trkpt lat="39.35546540295382" lon="9.544202242341141"><ele>12.5</ele><time>2026-04-04T14:17:41Z</time></trkpt><trkpt lat="39.35526436342009" lon="9.544396189354636"><ele>12.0</ele><time>2026-04-04T14:17:42Z</time></trkpt><trkpt lat="39.355063157418506" lon="9.544591829832132"><ele>12.0</ele><time>2026-04-04T14:17:43Z</time></trkpt><trkpt lat="39.35486088277898" lon="9.544789765893192"><ele>12.0</ele><time>2026-04-04T14:17:44Z</time></trkpt><trkpt lat="39.35465753401557" lon="9.544993013269567"><ele>13.5</ele><time>2026-04-04T14:17:45Z</time></trkpt><trkpt lat="39.35445030605644" lon="9.545202289133226"><ele>15.0</ele><time>2026-04-04T14:17:46Z</time></trkpt><trkpt lat="39.35424546221731" lon="9.545411645525215"><ele>15.0</ele><time>2026-04-04T14:17:47Z</time></trkpt><trkpt lat="39.354044047065656" lon="9.545614745837371"><ele>15.0</ele><time>2026-04-04T14:17:48Z</time></trkpt><trkpt lat="39.353845472159286" lon="9.545809123166901"><ele>18.5</ele><time>2026-04-04T14:17:49Z</time></trkpt><trkpt lat="39.35364179861077" lon="9.545996116981398"><ele>22.0</ele><time>2026-04-04T14:17:50Z</time></trkpt><trkpt lat="39.353438412436184" lon="9.546175002390882"><ele>19.0</ele><time>2026-04-04T14:17:51Z</time></trkpt><trkpt lat="39.353225828858264" lon="9.546351327833348"><ele>16.0</ele><time>2026-04-04T14:17:52Z</time></trkpt><trkpt lat="39.353006478380266" lon="9.546523926538956"><ele>16.0</ele><time>2026-04-04T14:17:53Z</time></trkpt><trkpt lat="39.35278833308155" lon="9.546688553334949"><ele>16.0</ele><time>2026-04-04T14:17:54Z</time></trkpt><trkpt lat="39.35256912553808" lon="9.546847387512793"><ele>16.0</ele><time>2026-04-04T14:17:55Z</time></trkpt><trkpt lat="39.35234831168687" lon="9.547001053848529"><ele>16.0</ele><time>2026-04-04T14:17:56Z</time></trkpt><trkpt lat="39.35212365715294" lon="9.547153193583199"><ele>17.5</ele><time>2026-04-04T14:17:57Z</time></trkpt><trkpt lat="39.351897088282655" lon="9.547300144298552"><ele>19.0</ele><time>2026-04-04T14:17:58Z</time></trkpt><trkpt lat="39.35166412684544" lon="9.547444995036976"><ele>19.0</ele><time>2026-04-04T14:17:59Z</time></trkpt><trkpt lat="39.351431273277306" lon="9.547584369387385"><ele>19.0</ele><time>2026-04-04T14:18:00Z</time></trkpt><trkpt lat="39.351196266073735" lon="9.547717574616378"><ele>19.5</ele><time>2026-04-04T14:18:01Z</time></trkpt><trkpt lat="39.35096758200956" lon="9.547836467988587"><ele>20.0</ele><time>2026-04-04T14:18:02Z</time></trkpt><trkpt lat="39.35074032998744" lon="9.547946640216072"><ele>22.0</ele><time>2026-04-04T14:18:03Z</time></trkpt><trkpt lat="39.3505068989854" lon="9.548052591699639"><ele>24.0</ele><time>2026-04-04T14:18:04Z</time></trkpt><trkpt lat="39.35026638909915" lon="9.548160539639737"><ele>24.0</ele><time>2026-04-04T14:18:05Z</time></trkpt><trkpt lat="39.35002106778724" lon="9.548265307518399"><ele>24.0</ele><time>2026-04-04T14:18:06Z</time></trkpt><trkpt lat="39.34976681369687" lon="9.5483654362103"><ele>23.0</ele><time>2026-04-04T14:18:07Z</time></trkpt><trkpt lat="39.34950785056044" lon="9.548459160011841"><ele>22.0</ele><time>2026-04-04T14:18:08Z</time></trkpt><trkpt lat="39.34924150057907" lon="9.54854673419188"><ele>22.0</ele><time>2026-04-04T14:18:09Z</time></trkpt><trkpt lat="39.348971908314574" lon="9.548632041175455"><ele>22.0</ele><time>2026-04-04T14:18:10Z</time></trkpt><trkpt lat="39.34870812361097" lon="9.548715127164254"><ele>16.0</ele><time>2026-04-04T14:18:11Z</time></trkpt><trkpt lat="39.34844827085187" lon="9.54880000102244"><ele>10.0</ele><time>2026-04-04T14:18:12Z</time></trkpt><trkpt lat="39.34818666462042" lon="9.548888776660576"><ele>9.0</ele><time>2026-04-04T14:18:13Z</time></trkpt><trkpt lat="39.347928623931146" lon="9.548977091913198"><ele>8.0</ele><time>2026-04-04T14:18:14Z</time></trkpt><trkpt lat="39.34767543473217" lon="9.549062280876498"><ele>8.0</ele><time>2026-04-04T14:18:15Z</time></trkpt><trkpt lat="39.34741936209946" lon="9.54914983330317"><ele>8.0</ele><time>2026-04-04T14:18:16Z</time></trkpt><trkpt lat="39.34716863499698" lon="9.549229785469615"><ele>8.5</ele><time>2026-04-04T14:18:17Z</time></trkpt><trkpt lat="39.34690367776255" lon="9.549314516328215"><ele>9.0</ele><time>2026-04-04T14:18:18Z</time></trkpt><trkpt lat="39.34664569118203" lon="9.549397652579902"><ele>9.0</ele><time>2026-04-04T14:18:19Z</time></trkpt><trkpt lat="39.34638672492551" lon="9.549481618150175"><ele>9.0</ele><time>2026-04-04T14:18:20Z</time></trkpt><trkpt lat="39.34612890844468" lon="9.549567168213233"><ele>8.0</ele><time>2026-04-04T14:18:21Z</time></trkpt><trkpt lat="39.345869458351814" lon="9.549654284305092"><ele>7.0</ele><time>2026-04-04T14:18:22Z</time></trkpt><trkpt lat="39.34560853480717" lon="9.549743703449117"><ele>6.5</ele><time>2026-04-04T14:18:23Z</time></trkpt><trkpt lat="39.345344673927286" lon="9.549831124623632"><ele>6.0</ele><time>2026-04-04T14:18:24Z</time></trkpt><trkpt lat="39.345073009566306" lon="9.549918830691114"><ele>6.0</ele><time>2026-04-04T14:18:25Z</time></trkpt><trkpt lat="39.344791271977634" lon="9.550011371491044"><ele>6.0</ele><time>2026-04-04T14:18:26Z</time></trkpt><trkpt lat="39.344500510556166" lon="9.550106542520174"><ele>6.0</ele><time>2026-04-04T14:18:27Z</time></trkpt><trkpt lat="39.34420488628413" lon="9.550202844047805"><ele>6.0</ele><time>2026-04-04T14:18:28Z</time></trkpt><trkpt lat="39.34392728748661" lon="9.550295589507448"><ele>5.5</ele><time>2026-04-04T14:18:29Z</time></trkpt><trkpt lat="39.343658225845054" lon="9.550385929156498"><ele>5.0</ele><time>2026-04-04T14:18:30Z</time></trkpt><trkpt lat="39.34339949114888" lon="9.550475864083243"><ele>5.0</ele><time>2026-04-04T14:18:31Z</time></trkpt><trkpt lat="39.34315867709759" lon="9.550557597668098"><ele>5.0</ele><time>2026-04-04T14:18:32Z</time></trkpt><trkpt lat="39.34292435829039" lon="9.550636271975092"><ele>5.5</ele><time>2026-04-04T14:18:33Z</time></trkpt><trkpt lat="39.34268545196616" lon="9.550715621417583"><ele>6.0</ele><time>2026-04-04T14:18:34Z</time></trkpt><trkpt lat="39.34244296669389" lon="9.550796310568598"><ele>4.5</ele><time>2026-04-04T14:18:35Z</time></trkpt><trkpt lat="39.34219607159838" lon="9.550878589780265"><ele>3.0</ele><time>2026-04-04T14:18:36Z</time></trkpt><trkpt lat="39.34194534229068" lon="9.550961103094972"><ele>3.0</ele><time>2026-04-04T14:18:37Z</time></trkpt><trkpt lat="39.3416899998135" lon="9.551045672187717"><ele>3.0</ele><time>2026-04-04T14:18:38Z</time></trkpt><trkpt lat="39.34143699630842" lon="9.551128948458404"><ele>3.0</ele><time>2026-04-04T14:18:39Z</time></trkpt><trkpt lat="39.34117891862885" lon="9.551213623236514"><ele>3.0</ele><time>2026-04-04T14:18:40Z</time></trkpt><trkpt lat="39.34091697554003" lon="9.551297013194219"><ele>3.0</ele><time>2026-04-04T14:18:41Z</time></trkpt><trkpt lat="39.34066941237208" lon="9.551374409482094"><ele>3.0</ele><time>2026-04-04T14:18:42Z</time></trkpt><trkpt lat="39.34044716124745" lon="9.55144377913669"><ele>3.5</ele><time>2026-04-04T14:18:43Z</time></trkpt><trkpt lat="39.34022250056124" lon="9.551510990980205"><ele>4.0</ele><time>2026-04-04T14:18:44Z</time></trkpt><trkpt lat="39.33999589413915" lon="9.551577815759877"><ele>4.0</ele><time>2026-04-04T14:18:45Z</time></trkpt><trkpt lat="39.339765248875715" lon="9.551638805727261"><ele>4.0</ele><time>2026-04-04T14:18:46Z</time></trkpt><trkpt lat="39.339530242675096" lon="9.551692900692478"><ele>5.0</ele><time>2026-04-04T14:18:47Z</time></trkpt><trkpt lat="39.33927965887021" lon="9.551746869718462"><ele>6.0</ele><time>2026-04-04T14:18:48Z</time></trkpt><trkpt lat="39.33903929686509" lon="9.551789350028729"><ele>6.5</ele><time>2026-04-04T14:18:49Z</time></trkpt><trkpt lat="39.33878557843411" lon="9.551827253244275"><ele>7.0</ele><time>2026-04-04T14:18:50Z</time></trkpt><trkpt lat="39.33852735003608" lon="9.551857737091241"><ele>7.0</ele><time>2026-04-04T14:18:51Z</time></trkpt><trkpt lat="39.33827358266358" lon="9.551881801875217"><ele>7.0</ele><time>2026-04-04T14:18:52Z</time></trkpt><trkpt lat="39.3380146625011" lon="9.551902718717509"><ele>8.5</ele><time>2026-04-04T14:18:53Z</time></trkpt><trkpt lat="39.33775637040435" lon="9.551919069620329"><ele>10.0</ele><time>2026-04-04T14:18:54Z</time></trkpt><trkpt lat="39.33750542583997" lon="9.55192647216234"><ele>10.0</ele><time>2026-04-04T14:18:55Z</time></trkpt><trkpt lat="39.33725217342208" lon="9.551928868871203"><ele>10.0</ele><time>2026-04-04T14:18:56Z</time></trkpt><trkpt lat="39.337001722855646" lon="9.551925480097145"><ele>13.0</ele><time>2026-04-04T14:18:57Z</time></trkpt><trkpt lat="39.33675128980666" lon="9.551915507594561"><ele>16.0</ele><time>2026-04-04T14:18:58Z</time></trkpt><trkpt lat="39.33650085028534" lon="9.551895895184556"><ele>14.5</ele><time>2026-04-04T14:18:59Z</time></trkpt><trkpt lat="39.33624461166846" lon="9.551872038195496"><ele>13.0</ele><time>2026-04-04T14:19:00Z</time></trkpt><trkpt lat="39.33598833763436" lon="9.551844076265418"><ele>13.0</ele><time>2026-04-04T14:19:01Z</time></trkpt><trkpt lat="39.33572448975986" lon="9.551806211257798"><ele>13.0</ele><time>2026-04-04T14:19:02Z</time></trkpt><trkpt lat="39.335459183842175" lon="9.551760511670548"><ele>13.5</ele><time>2026-04-04T14:19:03Z</time></trkpt><trkpt lat="39.33518573195346" lon="9.551705788145744"><ele>14.0</ele><time>2026-04-04T14:19:04Z</time></trkpt><trkpt lat="39.334914199422165" lon="9.551644575049583"><ele>15.5</ele><time>2026-04-04T14:19:05Z</time></trkpt><trkpt lat="39.3346454979308" lon="9.55157660379343"><ele>17.0</ele><time>2026-04-04T14:19:06Z</time></trkpt><trkpt lat="39.33439190173317" lon="9.551506015151759"><ele>17.0</ele><time>2026-04-04T14:19:07Z</time></trkpt><trkpt lat="39.33415275621968" lon="9.551434468867031"><ele>17.0</ele><time>2026-04-04T14:19:08Z</time></trkpt><trkpt lat="39.33392630805273" lon="9.551362278563172"><ele>18.0</ele><time>2026-04-04T14:19:09Z</time></trkpt><trkpt lat="39.33370511198558" lon="9.551284327398168"><ele>19.0</ele><time>2026-04-04T14:19:10Z</time></trkpt><trkpt lat="39.33349944599467" lon="9.551205339910085"><ele>20.0</ele><time>2026-04-04T14:19:11Z</time></trkpt><trkpt lat="39.333289236829906" lon="9.551121232899522"><ele>22.5</ele><time>2026-04-04T14:19:12Z</time></trkpt><trkpt lat="39.33307604391903" lon="9.551033267624119"><ele>25.0</ele><time>2026-04-04T14:19:13Z</time></trkpt><trkpt lat="39.332860407688564" lon="9.55093986125009"><ele>26.0</ele><time>2026-04-04T14:19:14Z</time></trkpt><trkpt lat="39.33264653761511" lon="9.550843086929032"><ele>27.0</ele><time>2026-04-04T14:19:15Z</time></trkpt><trkpt lat="39.3324271356192" lon="9.5507424777881"><ele>28.5</ele><time>2026-04-04T14:19:16Z</time></trkpt><trkpt lat="39.332210415899425" lon="9.550639339817062"><ele>30.0</ele><time>2026-04-04T14:19:17Z</time></trkpt><trkpt lat="39.331995941142054" lon="9.550529678567726"><ele>30.0</ele><time>2026-04-04T14:19:18Z</time></trkpt><trkpt lat="39.33178003742733" lon="9.550410600089384"><ele>30.0</ele><time>2026-04-04T14:19:19Z</time></trkpt><trkpt lat="39.331560978527676" lon="9.550289708041662"><ele>30.5</ele><time>2026-04-04T14:19:20Z</time></trkpt><trkpt lat="39.331335646230926" lon="9.550166384386168"><ele>31.0</ele><time>2026-04-04T14:19:21Z</time></trkpt><trkpt lat="39.331104141686" lon="9.550044282622688"><ele>31.0</ele><time>2026-04-04T14:19:22Z</time></trkpt><trkpt lat="39.330871499719656" lon="9.549926415235426"><ele>31.0</ele><time>2026-04-04T14:19:23Z</time></trkpt><trkpt lat="39.3306410458961" lon="9.54980855054988"><ele>31.5</ele><time>2026-04-04T14:19:24Z</time></trkpt><trkpt lat="39.33041107942427" lon="9.549690105855545"><ele>32.0</ele><time>2026-04-04T14:19:25Z</time></trkpt><trkpt lat="39.33017497784077" lon="9.549568493743067"><ele>31.0</ele><time>2026-04-04T14:19:26Z</time></trkpt><trkpt lat="39.32994307147726" lon="9.549442235244094"><ele>30.0</ele><time>2026-04-04T14:19:27Z</time></trkpt><trkpt lat="39.32971151065912" lon="9.5493130597425"><ele>29.5</ele><time>2026-04-04T14:19:28Z</time></trkpt><trkpt lat="39.32947888640769" lon="9.549187020749361"><ele>29.0</ele><time>2026-04-04T14:19:29Z</time></trkpt><trkpt lat="39.32924301600153" lon="9.549061688532612"><ele>29.0</ele><time>2026-04-04T14:19:30Z</time></trkpt><trkpt lat="39.329006617298894" lon="9.548937784024451"><ele>29.0</ele><time>2026-04-04T14:19:31Z</time></trkpt><trkpt lat="39.3287709214399" lon="9.548812742994926"><ele>30.0</ele><time>2026-04-04T14:19:32Z</time></trkpt><trkpt lat="39.328537987080956" lon="9.548690523686243"><ele>31.0</ele><time>2026-04-04T14:19:33Z</time></trkpt><trkpt lat="39.328305333419976" lon="9.54856744895608"><ele>31.0</ele><time>2026-04-04T14:19:34Z</time></trkpt><trkpt lat="39.32807381301476" lon="9.548446944232248"><ele>31.0</ele><time>2026-04-04T14:19:35Z</time></trkpt><trkpt lat="39.32784126482147" lon="9.548327916096532"><ele>33.0</ele><time>2026-04-04T14:19:36Z</time></trkpt><trkpt lat="39.32760914766423" lon="9.54820958368245"><ele>35.0</ele><time>2026-04-04T14:19:37Z</time></trkpt><trkpt lat="39.327375193885544" lon="9.548088820154751"><ele>35.5</ele><time>2026-04-04T14:19:38Z</time></trkpt><trkpt lat="39.32714371373855" lon="9.54796733376799"><ele>36.0</ele><time>2026-04-04T14:19:39Z</time></trkpt><trkpt lat="39.32691545393657" lon="9.547844898450434"><ele>35.0</ele><time>2026-04-04T14:19:40Z</time></trkpt><trkpt lat="39.326681853419785" lon="9.54771849021493"><ele>34.0</ele><time>2026-04-04T14:19:41Z</time></trkpt><trkpt lat="39.32645212437892" lon="9.547597779511156"><ele>34.5</ele><time>2026-04-04T14:19:42Z</time></trkpt><trkpt lat="39.32621697602645" lon="9.5474737172849"><ele>35.0</ele><time>2026-04-04T14:19:43Z</time></trkpt><trkpt lat="39.32598397628813" lon="9.547349692652007"><ele>35.0</ele><time>2026-04-04T14:19:44Z</time></trkpt><trkpt lat="39.32575279604998" lon="9.54722649946086"><ele>35.0</ele><time>2026-04-04T14:19:45Z</time></trkpt><trkpt lat="39.325521521497784" lon="9.547104251302283"><ele>34.5</ele><time>2026-04-04T14:19:46Z</time></trkpt><trkpt lat="39.32529345424584" lon="9.546984207651777"><ele>34.0</ele><time>2026-04-04T14:19:47Z</time></trkpt><trkpt lat="39.32506716953844" lon="9.546866685454603"><ele>34.0</ele><time>2026-04-04T14:19:48Z</time></trkpt><trkpt lat="39.3248333872216" lon="9.546744974343014"><ele>34.0</ele><time>2026-04-04T14:19:49Z</time></trkpt><trkpt lat="39.32458684953732" lon="9.546616676735018"><ele>33.5</ele><time>2026-04-04T14:19:50Z</time></trkpt><trkpt lat="39.32433750077275" lon="9.546485202178404"><ele>33.0</ele><time>2026-04-04T14:19:51Z</time></trkpt><trkpt lat="39.32410801524213" lon="9.546367902307747"><ele>33.5</ele><time>2026-04-04T14:19:52Z</time></trkpt><trkpt lat="39.32389445899382" lon="9.546260387857528"><ele>34.0</ele><time>2026-04-04T14:19:53Z</time></trkpt><trkpt lat="39.32368848319194" lon="9.546155352938795"><ele>34.0</ele><time>2026-04-04T14:19:54Z</time></trkpt><trkpt lat="39.32347169294671" lon="9.546039840744463"><ele>34.0</ele><time>2026-04-04T14:19:55Z</time></trkpt><trkpt lat="39.323241501880695" lon="9.545913341394233"><ele>35.0</ele><time>2026-04-04T14:19:56Z</time></trkpt><trkpt lat="39.323006863964956" lon="9.545788469123762"><ele>36.0</ele><time>2026-04-04T14:19:57Z</time></trkpt><trkpt lat="39.32276455676887" lon="9.54566346306003"><ele>36.0</ele><time>2026-04-04T14:19:58Z</time></trkpt><trkpt lat="39.32251508389641" lon="9.545536764229245"><ele>36.0</ele><time>2026-04-04T14:19:59Z</time></trkpt><trkpt lat="39.322256306790834" lon="9.545412184780607"><ele>34.5</ele><time>2026-04-04T14:20:00Z</time></trkpt><trkpt lat="39.32199052397092" lon="9.545293580325877"><ele>33.0</ele><time>2026-04-04T14:20:01Z</time></trkpt><trkpt lat="39.32171690888009" lon="9.545181520963975"><ele>33.0</ele><time>2026-04-04T14:20:02Z</time></trkpt><trkpt lat="39.321441887611506" lon="9.54507648358753"><ele>33.0</ele><time>2026-04-04T14:20:03Z</time></trkpt><trkpt lat="39.32116600190702" lon="9.544980639332556"><ele>34.0</ele><time>2026-04-04T14:20:04Z</time></trkpt><trkpt lat="39.32089734861959" lon="9.544898198901032"><ele>35.0</ele><time>2026-04-04T14:20:05Z</time></trkpt><trkpt lat="39.320629807199246" lon="9.544821294662658"><ele>36.0</ele><time>2026-04-04T14:20:06Z</time></trkpt><trkpt lat="39.320361168369125" lon="9.544751002023455"><ele>37.0</ele><time>2026-04-04T14:20:07Z</time></trkpt><trkpt lat="39.32009220917982" lon="9.544687188387986"><ele>37.0</ele><time>2026-04-04T14:20:08Z</time></trkpt><trkpt lat="39.31982239368032" lon="9.544629256259924"><ele>37.0</ele><time>2026-04-04T14:20:09Z</time></trkpt><trkpt lat="39.319555579249155" lon="9.544580980686886"><ele>35.0</ele><time>2026-04-04T14:20:10Z</time></trkpt><trkpt lat="39.31929852745881" lon="9.544541543867114"><ele>33.0</ele><time>2026-04-04T14:20:11Z</time></trkpt><trkpt lat="39.31904313090068" lon="9.544507957661144"><ele>33.0</ele><time>2026-04-04T14:20:12Z</time></trkpt><trkpt lat="39.318784567061066" lon="9.54447746273822"><ele>33.0</ele><time>2026-04-04T14:20:13Z</time></trkpt><trkpt lat="39.31851755080757" lon="9.54445018607409"><ele>33.0</ele><time>2026-04-04T14:20:14Z</time></trkpt><trkpt lat="39.318264011525144" lon="9.544425005104609"><ele>33.0</ele><time>2026-04-04T14:20:15Z</time></trkpt><trkpt lat="39.318021687725185" lon="9.54440288900863"><ele>34.0</ele><time>2026-04-04T14:20:16Z</time></trkpt><trkpt lat="39.31777758755948" lon="9.544381067355573"><ele>35.0</ele><time>2026-04-04T14:20:17Z</time></trkpt><trkpt lat="39.317532328245036" lon="9.544360750589034"><ele>35.0</ele><time>2026-04-04T14:20:18Z</time></trkpt><trkpt lat="39.31728269030509" lon="9.544340308302449"><ele>35.0</ele><time>2026-04-04T14:20:19Z</time></trkpt><trkpt lat="39.317033895253594" lon="9.544318357615824"><ele>37.0</ele><time>2026-04-04T14:20:20Z</time></trkpt><trkpt lat="39.316784464532844" lon="9.544293684643582"><ele>39.0</ele><time>2026-04-04T14:20:21Z</time></trkpt><trkpt lat="39.31652953270663" lon="9.544268039665733"><ele>40.5</ele><time>2026-04-04T14:20:22Z</time></trkpt><trkpt lat="39.316273237126445" lon="9.544242627678992"><ele>42.0</ele><time>2026-04-04T14:20:23Z</time></trkpt><trkpt lat="39.31601484646212" lon="9.54421479300652"><ele>42.0</ele><time>2026-04-04T14:20:24Z</time></trkpt><trkpt lat="39.31576702601797" lon="9.544187389125986"><ele>42.0</ele><time>2026-04-04T14:20:25Z</time></trkpt><trkpt lat="39.31553115018297" lon="9.544160386853848"><ele>41.5</ele><time>2026-04-04T14:20:26Z</time></trkpt><trkpt lat="39.31528653078692" lon="9.544130164467834"><ele>41.0</ele><time>2026-04-04T14:20:27Z</time></trkpt><trkpt lat="39.315038994061155" lon="9.544091346740927"><ele>41.0</ele><time>2026-04-04T14:20:28Z</time></trkpt><trkpt lat="39.31478192882133" lon="9.544042858009542"><ele>41.0</ele><time>2026-04-04T14:20:29Z</time></trkpt><trkpt lat="39.31452766159003" lon="9.543988008399813"><ele>41.0</ele><time>2026-04-04T14:20:30Z</time></trkpt><trkpt lat="39.314267721544354" lon="9.543926102184923"><ele>41.0</ele><time>2026-04-04T14:20:31Z</time></trkpt><trkpt lat="39.31400922769055" lon="9.54386032240414"><ele>40.0</ele><time>2026-04-04T14:20:32Z</time></trkpt><trkpt lat="39.31374215517199" lon="9.543788455597143"><ele>39.0</ele><time>2026-04-04T14:20:33Z</time></trkpt><trkpt lat="39.31347949019273" lon="9.543708326402585"><ele>38.5</ele><time>2026-04-04T14:20:34Z</time></trkpt><trkpt lat="39.31321999678612" lon="9.543619568671023"><ele>38.0</ele><time>2026-04-04T14:20:35Z</time></trkpt><trkpt lat="39.31297722188381" lon="9.543526199148959"><ele>38.0</ele><time>2026-04-04T14:20:36Z</time></trkpt><trkpt lat="39.31274295889548" lon="9.543430134852986"><ele>38.0</ele><time>2026-04-04T14:20:37Z</time></trkpt><trkpt lat="39.312506492279546" lon="9.543329290247547"><ele>38.0</ele><time>2026-04-04T14:20:38Z</time></trkpt><trkpt lat="39.3122693054292" lon="9.543221464527102"><ele>38.0</ele><time>2026-04-04T14:20:39Z</time></trkpt><trkpt lat="39.31203264259027" lon="9.543111785195377"><ele>38.0</ele><time>2026-04-04T14:20:40Z</time></trkpt><trkpt lat="39.311791711098095" lon="9.542993039760473"><ele>38.0</ele><time>2026-04-04T14:20:41Z</time></trkpt><trkpt lat="39.31155254614025" lon="9.542868138410459"><ele>38.5</ele><time>2026-04-04T14:20:42Z</time></trkpt><trkpt lat="39.31131413414665" lon="9.54273603670346"><ele>39.0</ele><time>2026-04-04T14:20:43Z</time></trkpt><trkpt lat="39.31107904299439" lon="9.542594480805876"><ele>39.0</ele><time>2026-04-04T14:20:44Z</time></trkpt><trkpt lat="39.31084440758122" lon="9.542441167678781"><ele>39.0</ele><time>2026-04-04T14:20:45Z</time></trkpt><trkpt lat="39.31060675436242" lon="9.542283872009738"><ele>39.5</ele><time>2026-04-04T14:20:46Z</time></trkpt><trkpt lat="39.310364530274384" lon="9.542125132082388"><ele>40.0</ele><time>2026-04-04T14:20:47Z</time></trkpt><trkpt lat="39.310121126476844" lon="9.541965224392941"><ele>40.0</ele><time>2026-04-04T14:20:48Z</time></trkpt><trkpt lat="39.309875943852234" lon="9.541806071723139"><ele>40.0</ele><time>2026-04-04T14:20:49Z</time></trkpt><trkpt lat="39.309638821490985" lon="9.541657270187512"><ele>40.5</ele><time>2026-04-04T14:20:50Z</time></trkpt><trkpt lat="39.309400177477436" lon="9.54150642199655"><ele>41.0</ele><time>2026-04-04T14:20:51Z</time></trkpt><trkpt lat="39.3091614994563" lon="9.541354339581238"><ele>41.0</ele><time>2026-04-04T14:20:52Z</time></trkpt><trkpt lat="39.30892492275489" lon="9.541200141420225"><ele>41.0</ele><time>2026-04-04T14:20:53Z</time></trkpt><trkpt lat="39.30869443500903" lon="9.541046808349689"><ele>41.0</ele><time>2026-04-04T14:20:54Z</time></trkpt><trkpt lat="39.30846478322603" lon="9.540889029912714"><ele>41.0</ele><time>2026-04-04T14:20:55Z</time></trkpt><trkpt lat="39.30823382879062" lon="9.540735148795724"><ele>41.5</ele><time>2026-04-04T14:20:56Z</time></trkpt><trkpt lat="39.30800370719254" lon="9.540583987522904"><ele>42.0</ele><time>2026-04-04T14:20:57Z</time></trkpt><trkpt lat="39.30777679217285" lon="9.540437823492054"><ele>42.0</ele><time>2026-04-04T14:20:58Z</time></trkpt><trkpt lat="39.30755908964464" lon="9.54029669968159"><ele>42.0</ele><time>2026-04-04T14:20:59Z</time></trkpt><trkpt lat="39.30734415079202" lon="9.540157280136588"><ele>42.5</ele><time>2026-04-04T14:21:00Z</time></trkpt><trkpt lat="39.30712772045576" lon="9.540017003272315"><ele>43.0</ele><time>2026-04-04T14:21:01Z</time></trkpt><trkpt lat="39.30691019310542" lon="9.5398747938376"><ele>43.0</ele><time>2026-04-04T14:21:02Z</time></trkpt><trkpt lat="39.30669367546885" lon="9.539731251473972"><ele>43.0</ele><time>2026-04-04T14:21:03Z</time></trkpt><trkpt lat="39.30647311867459" lon="9.539586471576529"><ele>46.0</ele><time>2026-04-04T14:21:04Z</time></trkpt><trkpt lat="39.30625238517566" lon="9.539444855862154"><ele>49.0</ele><time>2026-04-04T14:21:05Z</time></trkpt><trkpt lat="39.30602988831635" lon="9.539301913915091"><ele>49.0</ele><time>2026-04-04T14:21:06Z</time></trkpt><trkpt lat="39.305806339408434" lon="9.539158803003176"><ele>49.0</ele><time>2026-04-04T14:21:07Z</time></trkpt><trkpt lat="39.305581138156015" lon="9.539013076592012"><ele>55.0</ele><time>2026-04-04T14:21:08Z</time></trkpt><trkpt lat="39.30535578586738" lon="9.5388677546289"><ele>61.0</ele><time>2026-04-04T14:21:09Z</time></trkpt><trkpt lat="39.30513167616197" lon="9.538721009558179"><ele>62.0</ele><time>2026-04-04T14:21:10Z</time></trkpt><trkpt lat="39.30490878712551" lon="9.53857281380209"><ele>63.0</ele><time>2026-04-04T14:21:11Z</time></trkpt><trkpt lat="39.30469256989465" lon="9.538430132448179"><ele>63.0</ele><time>2026-04-04T14:21:12Z</time></trkpt><trkpt lat="39.3044876651375" lon="9.538296213671835"><ele>63.0</ele><time>2026-04-04T14:21:13Z</time></trkpt><trkpt lat="39.304282518695935" lon="9.53816354491487"><ele>63.0</ele><time>2026-04-04T14:21:14Z</time></trkpt><trkpt lat="39.3040751571624" lon="9.538028112119429"><ele>63.0</ele><time>2026-04-04T14:21:15Z</time></trkpt><trkpt lat="39.30386580440488" lon="9.537889979769155"><ele>62.5</ele><time>2026-04-04T14:21:16Z</time></trkpt><trkpt lat="39.3036506546459" lon="9.537751402376394"><ele>62.0</ele><time>2026-04-04T14:21:17Z</time></trkpt><trkpt lat="39.30343855053248" lon="9.537615309271589"><ele>62.0</ele><time>2026-04-04T14:21:18Z</time></trkpt><trkpt lat="39.30322558417441" lon="9.537475761389999"><ele>62.0</ele><time>2026-04-04T14:21:19Z</time></trkpt><trkpt lat="39.30301228776623" lon="9.537337487850865"><ele>67.0</ele><time>2026-04-04T14:21:20Z</time></trkpt><trkpt lat="39.302800679643134" lon="9.537199392613806"><ele>72.0</ele><time>2026-04-04T14:21:21Z</time></trkpt><trkpt lat="39.30258319919425" lon="9.53705924751143"><ele>68.5</ele><time>2026-04-04T14:21:22Z</time></trkpt><trkpt lat="39.30236861183234" lon="9.53691758202835"><ele>65.0</ele><time>2026-04-04T14:21:23Z</time></trkpt><trkpt lat="39.30215539979553" lon="9.536776965039822"><ele>65.0</ele><time>2026-04-04T14:21:24Z</time></trkpt><trkpt lat="39.30193708050834" lon="9.53663144507693"><ele>65.0</ele><time>2026-04-04T14:21:25Z</time></trkpt><trkpt lat="39.30171482691326" lon="9.536484019163387"><ele>65.0</ele><time>2026-04-04T14:21:26Z</time></trkpt><trkpt lat="39.30149313138725" lon="9.536338765754218"><ele>65.0</ele><time>2026-04-04T14:21:27Z</time></trkpt><trkpt lat="39.30126669996814" lon="9.536192878366178"><ele>65.5</ele><time>2026-04-04T14:21:28Z</time></trkpt><trkpt lat="39.3010402793881" lon="9.536045949673419"><ele>66.0</ele><time>2026-04-04T14:21:29Z</time></trkpt><trkpt lat="39.30080896526725" lon="9.535897509925693"><ele>66.0</ele><time>2026-04-04T14:21:30Z</time></trkpt><trkpt lat="39.300583166144925" lon="9.535751662475768"><ele>66.0</ele><time>2026-04-04T14:21:31Z</time></trkpt><trkpt lat="39.300372115402254" lon="9.535613690544084"><ele>64.5</ele><time>2026-04-04T14:21:32Z</time></trkpt><trkpt lat="39.300163887926395" lon="9.53547749798168"><ele>63.0</ele><time>2026-04-04T14:21:33Z</time></trkpt><trkpt lat="39.299949966192365" lon="9.535337785426641"><ele>64.0</ele><time>2026-04-04T14:21:34Z</time></trkpt><trkpt lat="39.29973852786934" lon="9.535198475994722"><ele>65.0</ele><time>2026-04-04T14:21:35Z</time></trkpt><trkpt lat="39.29952075882214" lon="9.5350573506198"><ele>65.0</ele><time>2026-04-04T14:21:36Z</time></trkpt><trkpt lat="39.29929823345024" lon="9.534914064308966"><ele>65.0</ele><time>2026-04-04T14:21:37Z</time></trkpt><trkpt lat="39.29907392626601" lon="9.534770698260003"><ele>67.0</ele><time>2026-04-04T14:21:38Z</time></trkpt><trkpt lat="39.29884848680866" lon="9.534627653547016"><ele>69.0</ele><time>2026-04-04T14:21:39Z</time></trkpt><trkpt lat="39.29861862218656" lon="9.534481407712825"><ele>64.0</ele><time>2026-04-04T14:21:40Z</time></trkpt><trkpt lat="39.298385166198315" lon="9.534331429304709"><ele>59.0</ele><time>2026-04-04T14:21:41Z</time></trkpt><trkpt lat="39.298157856692015" lon="9.534182606159682"><ele>58.5</ele><time>2026-04-04T14:21:42Z</time></trkpt><trkpt lat="39.29792598049696" lon="9.53402782289012"><ele>58.0</ele><time>2026-04-04T14:21:43Z</time></trkpt><trkpt lat="39.297697750833684" lon="9.533875105452042"><ele>58.0</ele><time>2026-04-04T14:21:44Z</time></trkpt><trkpt lat="39.297476201190804" lon="9.533729678247868"><ele>58.0</ele><time>2026-04-04T14:21:45Z</time></trkpt><trkpt lat="39.29726278854518" lon="9.533590735921369"><ele>58.5</ele><time>2026-04-04T14:21:46Z</time></trkpt><trkpt lat="39.29705272069066" lon="9.533456602568437"><ele>59.0</ele><time>2026-04-04T14:21:47Z</time></trkpt><trkpt lat="39.29684071922225" lon="9.53332442204312"><ele>59.0</ele><time>2026-04-04T14:21:48Z</time></trkpt><trkpt lat="39.296632596167164" lon="9.533202425827767"><ele>59.0</ele><time>2026-04-04T14:21:49Z</time></trkpt><trkpt lat="39.2964286132136" lon="9.533086717214031"><ele>58.0</ele><time>2026-04-04T14:21:50Z</time></trkpt><trkpt lat="39.29622276666209" lon="9.532973217995327"><ele>57.0</ele><time>2026-04-04T14:21:51Z</time></trkpt><trkpt lat="39.29600932751133" lon="9.532857518384922"><ele>57.0</ele><time>2026-04-04T14:21:52Z</time></trkpt><trkpt lat="39.29579471334811" lon="9.532745063594145"><ele>57.0</ele><time>2026-04-04T14:21:53Z</time></trkpt><trkpt lat="39.295571178764376" lon="9.532633423085043"><ele>59.5</ele><time>2026-04-04T14:21:54Z</time></trkpt><trkpt lat="39.2953369870698" lon="9.532526486909827"><ele>62.0</ele><time>2026-04-04T14:21:55Z</time></trkpt><trkpt lat="39.29509411388788" lon="9.532421793794772"><ele>62.0</ele><time>2026-04-04T14:21:56Z</time></trkpt><trkpt lat="39.2948480643503" lon="9.532319880538457"><ele>62.0</ele><time>2026-04-04T14:21:57Z</time></trkpt><trkpt lat="39.29458783492387" lon="9.532221510992809"><ele>63.5</ele><time>2026-04-04T14:21:58Z</time></trkpt><trkpt lat="39.294325051971725" lon="9.532128589290096"><ele>65.0</ele><time>2026-04-04T14:21:59Z</time></trkpt><trkpt lat="39.29407674838008" lon="9.532048292394482"><ele>62.0</ele><time>2026-04-04T14:22:00Z</time></trkpt><trkpt lat="39.293841319745816" lon="9.531981330927591"><ele>59.0</ele><time>2026-04-04T14:22:01Z</time></trkpt><trkpt lat="39.29360737772179" lon="9.53191365862965"><ele>59.0</ele><time>2026-04-04T14:22:02Z</time></trkpt><trkpt lat="39.29337047756158" lon="9.531852008324002"><ele>59.0</ele><time>2026-04-04T14:22:03Z</time></trkpt><trkpt lat="39.29312650747739" lon="9.53179561892193"><ele>61.0</ele><time>2026-04-04T14:22:04Z</time></trkpt><trkpt lat="39.2928843584299" lon="9.53174633432607"><ele>63.0</ele><time>2026-04-04T14:22:05Z</time></trkpt><trkpt lat="39.29263933354972" lon="9.531699832808211"><ele>63.0</ele><time>2026-04-04T14:22:06Z</time></trkpt><trkpt lat="39.292387228067895" lon="9.531659219816131"><ele>63.0</ele><time>2026-04-04T14:22:07Z</time></trkpt><trkpt lat="39.29213653300354" lon="9.531623787570833"><ele>65.0</ele><time>2026-04-04T14:22:08Z</time></trkpt><trkpt lat="39.291879363547466" lon="9.531597882153848"><ele>67.0</ele><time>2026-04-04T14:22:09Z</time></trkpt><trkpt lat="39.29162043901323" lon="9.531579515874862"><ele>66.5</ele><time>2026-04-04T14:22:10Z</time></trkpt><trkpt lat="39.29136021438549" lon="9.531565846195765"><ele>66.0</ele><time>2026-04-04T14:22:11Z</time></trkpt><trkpt lat="39.2910989809834" lon="9.531557841499183"><ele>66.0</ele><time>2026-04-04T14:22:12Z</time></trkpt><trkpt lat="39.290834027563974" lon="9.531554168168062"><ele>66.0</ele><time>2026-04-04T14:22:13Z</time></trkpt><trkpt lat="39.290566342779925" lon="9.531559968910305"><ele>64.5</ele><time>2026-04-04T14:22:14Z</time></trkpt><trkpt lat="39.290299397507106" lon="9.531572053672116"><ele>63.0</ele><time>2026-04-04T14:22:15Z</time></trkpt><trkpt lat="39.29003791919161" lon="9.531594131696117"><ele>63.0</ele><time>2026-04-04T14:22:16Z</time></trkpt><trkpt lat="39.28978574233429" lon="9.531616126687736"><ele>63.0</ele><time>2026-04-04T14:22:17Z</time></trkpt><trkpt lat="39.289540641907585" lon="9.531645198914735"><ele>62.0</ele><time>2026-04-04T14:22:18Z</time></trkpt><trkpt lat="39.289300692788956" lon="9.53167732636417"><ele>61.0</ele><time>2026-04-04T14:22:19Z</time></trkpt><trkpt lat="39.28905673291313" lon="9.531717735518475"><ele>59.0</ele><time>2026-04-04T14:22:20Z</time></trkpt><trkpt lat="39.28881807462546" lon="9.531762517604449"><ele>57.0</ele><time>2026-04-04T14:22:21Z</time></trkpt><trkpt lat="39.28857141432191" lon="9.531816466982443"><ele>57.0</ele><time>2026-04-04T14:22:22Z</time></trkpt><trkpt lat="39.28832546600205" lon="9.531878221764313"><ele>57.0</ele><time>2026-04-04T14:22:23Z</time></trkpt><trkpt lat="39.28807994320766" lon="9.53194350807014"><ele>56.0</ele><time>2026-04-04T14:22:24Z</time></trkpt><trkpt lat="39.28783221102198" lon="9.532010690984047"><ele>55.0</ele><time>2026-04-04T14:22:25Z</time></trkpt><trkpt lat="39.2875853541566" lon="9.53208328357301"><ele>53.5</ele><time>2026-04-04T14:22:26Z</time></trkpt><trkpt lat="39.28733468322978" lon="9.532164676800353"><ele>52.0</ele><time>2026-04-04T14:22:27Z</time></trkpt><trkpt lat="39.28708288877524" lon="9.532254824327799"><ele>52.0</ele><time>2026-04-04T14:22:28Z</time></trkpt><trkpt lat="39.286847621156966" lon="9.532346255082237"><ele>52.0</ele><time>2026-04-04T14:22:29Z</time></trkpt><trkpt lat="39.28662533870789" lon="9.532439688386818"><ele>51.0</ele><time>2026-04-04T14:22:30Z</time></trkpt><trkpt lat="39.28639856358031" lon="9.532535797723265"><ele>50.0</ele><time>2026-04-04T14:22:31Z</time></trkpt><trkpt lat="39.28616920701117" lon="9.532642013396135"><ele>50.0</ele><time>2026-04-04T14:22:32Z</time></trkpt><trkpt lat="39.28594084980361" lon="9.532756480051455"><ele>50.0</ele><time>2026-04-04T14:22:33Z</time></trkpt><trkpt lat="39.28570935062009" lon="9.53287762455466"><ele>49.5</ele><time>2026-04-04T14:22:34Z</time></trkpt><trkpt lat="39.28547981584679" lon="9.53300613559613"><ele>49.0</ele><time>2026-04-04T14:22:35Z</time></trkpt><trkpt lat="39.285262339664605" lon="9.533130749298556"><ele>49.0</ele><time>2026-04-04T14:22:36Z</time></trkpt><trkpt lat="39.28505351480882" lon="9.53325166706767"><ele>49.0</ele><time>2026-04-04T14:22:37Z</time></trkpt><trkpt lat="39.28485286460926" lon="9.533359822629103"><ele>49.0</ele><time>2026-04-04T14:22:38Z</time></trkpt><trkpt lat="39.28465585279046" lon="9.533462634497623"><ele>49.0</ele><time>2026-04-04T14:22:39Z</time></trkpt><trkpt lat="39.28445529322972" lon="9.533576922735042"><ele>49.0</ele><time>2026-04-04T14:22:40Z</time></trkpt><trkpt lat="39.284254883280006" lon="9.533699675606305"><ele>49.0</ele><time>2026-04-04T14:22:41Z</time></trkpt><trkpt lat="39.28406368776129" lon="9.533821738341254"><ele>49.666666666666664</ele><time>2026-04-04T14:22:42Z</time></trkpt><trkpt lat="39.283891969984" lon="9.533930704502795"><ele>50.33333333333333</ele><time>2026-04-04T14:22:43Z</time></trkpt><trkpt lat="39.283747439057" lon="9.534022773799403"><ele>51.0</ele><time>2026-04-04T14:22:44Z</time></trkpt><trkpt lat="39.283619205559425" lon="9.534099248849252"><ele>51.0</ele><time>2026-04-04T14:22:45Z</time></trkpt><trkpt lat="39.283499596500334" lon="9.534152166977773"><ele>51.0</ele><time>2026-04-04T14:22:46Z</time></trkpt><trkpt lat="39.283380630768114" lon="9.534168057441285"><ele>51.0</ele><time>2026-04-04T14:22:47Z</time></trkpt><trkpt lat="39.28326658910114" lon="9.53414631520543"><ele>51.0</ele><time>2026-04-04T14:22:48Z</time></trkpt><trkpt lat="39.283148547377735" lon="9.534081103090307"><ele>50.25</ele><time>2026-04-04T14:22:49Z</time></trkpt><trkpt lat="39.28301919376021" lon="9.533993313518277"><ele>49.5</ele><time>2026-04-04T14:22:50Z</time></trkpt><trkpt lat="39.28287944506882" lon="9.533885435494664"><ele>48.75</ele><time>2026-04-04T14:22:51Z</time></trkpt><trkpt lat="39.28275830324695" lon="9.533794200100147"><ele>48.0</ele><time>2026-04-04T14:22:52Z</time></trkpt><trkpt lat="39.28265444562825" lon="9.533722045544488"><ele>48.0</ele><time>2026-04-04T14:22:53Z</time></trkpt><trkpt lat="39.282573407486666" lon="9.533673874042282"><ele>48.0</ele><time>2026-04-04T14:22:54Z</time></trkpt><trkpt lat="39.282504989903714" lon="9.533633312020548"><ele>48.0</ele><time>2026-04-04T14:22:55Z</time></trkpt><trkpt lat="39.28244662299718" lon="9.533595969631985"><ele>48.0</ele><time>2026-04-04T14:22:56Z</time></trkpt><trkpt lat="39.28238034262319" lon="9.533524502651519"><ele>48.0</ele><time>2026-04-04T14:22:58Z</time></trkpt><trkpt lat="39.28232829910673" lon="9.5334778022133"><ele>48.0</ele><time>2026-04-04T14:22:59Z</time></trkpt><trkpt lat="39.282294692348415" lon="9.533342710147599"><ele>48.5</ele><time>2026-04-04T14:23:00Z</time></trkpt><trkpt lat="39.2822373073566" lon="9.533202308402654"><ele>49.0</ele><time>2026-04-04T14:23:01Z</time></trkpt><trkpt lat="39.28217917090107" lon="9.533055457828011"><ele>49.5</ele><time>2026-04-04T14:23:02Z</time></trkpt><trkpt lat="39.28212164808593" lon="9.532911446083446"><ele>50.0</ele><time>2026-04-04T14:23:03Z</time></trkpt><trkpt lat="39.282066770504336" lon="9.532772594357272"><ele>50.6</ele><time>2026-04-04T14:23:04Z</time></trkpt><trkpt lat="39.282016416428576" lon="9.532643026892329"><ele>51.2</ele><time>2026-04-04T14:23:05Z</time></trkpt><trkpt lat="39.28197316137027" lon="9.53251783460979"><ele>51.8</ele><time>2026-04-04T14:23:06Z</time></trkpt><trkpt lat="39.281937185913556" lon="9.532418258770281"><ele>52.4</ele><time>2026-04-04T14:23:07Z</time></trkpt><trkpt lat="39.28188085901967" lon="9.532315361676883"><ele>53.0</ele><time>2026-04-04T14:23:09Z</time></trkpt><trkpt lat="39.28183659511336" lon="9.532233534773384"><ele>53.0</ele><time>2026-04-04T14:23:23Z</time></trkpt><trkpt lat="39.28176785046194" lon="9.53215631746722"><ele>53.0</ele><time>2026-04-04T14:23:28Z</time></trkpt><trkpt lat="39.28165580107417" lon="9.532201003553157"><ele>53.0</ele><time>2026-04-04T14:23:29Z</time></trkpt><trkpt lat="39.281581442250136" lon="9.532272125347845"><ele>53.0</ele><time>2026-04-04T14:23:29.999Z</time></trkpt><trkpt lat="39.28150967466403" lon="9.532340768702408"><ele>53.0</ele><time>2026-04-04T14:23:30.999Z</time></trkpt><trkpt lat="39.28144505597025" lon="9.532428435372749"><ele>53.5</ele><time>2026-04-04T14:23:31.999Z</time></trkpt><trkpt lat="39.28135707507363" lon="9.532506836013647"><ele>54.0</ele><time>2026-04-04T14:23:32.999Z</time></trkpt><trkpt lat="39.28125711046465" lon="9.532595343914327"><ele>54.5</ele><time>2026-04-04T14:23:33.999Z</time></trkpt><trkpt lat="39.281152997799865" lon="9.532688795694153"><ele>55.0</ele><time>2026-04-04T14:23:34.999Z</time></trkpt><trkpt lat="39.28104420106424" lon="9.532793353408483"><ele>53.5</ele><time>2026-04-04T14:23:35.999Z</time></trkpt><trkpt lat="39.28078765925747" lon="9.533057414979174"><ele>52.0</ele><time>2026-04-04T14:23:37.999Z</time></trkpt><trkpt lat="39.28064288966624" lon="9.533202283118891"><ele>52.0</ele><time>2026-04-04T14:23:38.999Z</time></trkpt><trkpt lat="39.28049264965282" lon="9.533321187805168"><ele>52.0</ele><time>2026-04-04T14:23:39.999Z</time></trkpt><trkpt lat="39.28037330558601" lon="9.533461083628113"><ele>52.0</ele><time>2026-04-04T14:23:40.999Z</time></trkpt><trkpt lat="39.28023553624445" lon="9.533590855368674"><ele>52.33333333333333</ele><time>2026-04-04T14:23:41.999Z</time></trkpt><trkpt lat="39.28009051563101" lon="9.533729662162235"><ele>52.66666666666667</ele><time>2026-04-04T14:23:42.999Z</time></trkpt><trkpt lat="39.27993998328691" lon="9.533873094811721"><ele>53.0</ele><time>2026-04-04T14:23:43.999Z</time></trkpt><trkpt lat="39.279790514916684" lon="9.534006686482812"><ele>52.66666666666667</ele><time>2026-04-04T14:23:45Z</time></trkpt><trkpt lat="39.27963206037801" lon="9.534133131759237"><ele>52.33333333333333</ele><time>2026-04-04T14:23:46Z</time></trkpt><trkpt lat="39.2794783749262" lon="9.534234458782016"><ele>52.0</ele><time>2026-04-04T14:23:47Z</time></trkpt><trkpt lat="39.27933272054259" lon="9.534316827612999"><ele>52.0</ele><time>2026-04-04T14:23:48Z</time></trkpt><trkpt lat="39.27919146049961" lon="9.534384469525621"><ele>52.0</ele><time>2026-04-04T14:23:49Z</time></trkpt><trkpt lat="39.279045781043834" lon="9.53444525559353"><ele>52.0</ele><time>2026-04-04T14:23:50Z</time></trkpt><trkpt lat="39.27890229843174" lon="9.534500139551028"><ele>52.0</ele><time>2026-04-04T14:23:51Z</time></trkpt><trkpt lat="39.278768098636185" lon="9.53454898617822"><ele>52.0</ele><time>2026-04-04T14:23:52Z</time></trkpt><trkpt lat="39.27863832176189" lon="9.53459613885777"><ele>52.0</ele><time>2026-04-04T14:23:53Z</time></trkpt><trkpt lat="39.27851956155381" lon="9.534635727986707"><ele>52.0</ele><time>2026-04-04T14:23:54Z</time></trkpt><trkpt lat="39.27841037719713" lon="9.534671144854961"><ele>52.400000000000006</ele><time>2026-04-04T14:23:55Z</time></trkpt><trkpt lat="39.278312458671635" lon="9.534697512751691"><ele>52.800000000000004</ele><time>2026-04-04T14:23:56Z</time></trkpt><trkpt lat="39.27821897171609" lon="9.534719574837245"><ele>53.2</ele><time>2026-04-04T14:23:57Z</time></trkpt><trkpt lat="39.278140485624235" lon="9.534748113748211"><ele>53.6</ele><time>2026-04-04T14:23:58Z</time></trkpt><trkpt lat="39.2780699760546" lon="9.534745581401625"><ele>54.0</ele><time>2026-04-04T14:23:59Z</time></trkpt><trkpt lat="39.27798810625726" lon="9.534902289162693"><ele>54.2</ele><time>2026-04-04T14:24:01Z</time></trkpt><trkpt lat="39.277966549116144" lon="9.534999226924583"><ele>54.400000000000006</ele><time>2026-04-04T14:24:02Z</time></trkpt><trkpt lat="39.2779504178468" lon="9.53511831188002"><ele>54.6</ele><time>2026-04-04T14:24:03Z</time></trkpt><trkpt lat="39.277916498119865" lon="9.535268158372123"><ele>54.8</ele><time>2026-04-04T14:24:04Z</time></trkpt><trkpt lat="39.277870533002634" lon="9.535427435371766"><ele>55.0</ele><time>2026-04-04T14:24:05Z</time></trkpt><trkpt lat="39.27781835138706" lon="9.535604977465274"><ele>55.0</ele><time>2026-04-04T14:24:06Z</time></trkpt><trkpt lat="39.27776599894271" lon="9.535800316679076"><ele>55.0</ele><time>2026-04-04T14:24:07Z</time></trkpt><trkpt lat="39.27771508417394" lon="9.535998153739778"><ele>55.0</ele><time>2026-04-04T14:24:08Z</time></trkpt><trkpt lat="39.277665141650665" lon="9.536190318081392"><ele>54.5</ele><time>2026-04-04T14:24:09Z</time></trkpt><trkpt lat="39.27761387595569" lon="9.536376778943556"><ele>54.0</ele><time>2026-04-04T14:24:10Z</time></trkpt><trkpt lat="39.27757148875862" lon="9.536533420378458"><ele>53.5</ele><time>2026-04-04T14:24:11Z</time></trkpt><trkpt lat="39.27753877333501" lon="9.536696918906246"><ele>53.0</ele><time>2026-04-04T14:24:12Z</time></trkpt><trkpt lat="39.27752941495296" lon="9.536847188064662"><ele>53.0</ele><time>2026-04-04T14:24:13Z</time></trkpt><trkpt lat="39.27753265819984" lon="9.536996705189136"><ele>53.0</ele><time>2026-04-04T14:24:14Z</time></trkpt><trkpt lat="39.27756664484908" lon="9.53715330922426"><ele>53.0</ele><time>2026-04-04T14:24:15Z</time></trkpt><trkpt lat="39.2776075108939" lon="9.537312825741289"><ele>53.0</ele><time>2026-04-04T14:24:16Z</time></trkpt><trkpt lat="39.27765199982683" lon="9.537483905321201"><ele>53.66666666666667</ele><time>2026-04-04T14:24:17Z</time></trkpt><trkpt lat="39.27770236352518" lon="9.537680268006984"><ele>54.33333333333333</ele><time>2026-04-04T14:24:18Z</time></trkpt><trkpt lat="39.277751783961996" lon="9.537872895608258"><ele>55.0</ele><time>2026-04-04T14:24:19Z</time></trkpt><trkpt lat="39.27779998044193" lon="9.538058391113976"><ele>55.0</ele><time>2026-04-04T14:24:20Z</time></trkpt><trkpt lat="39.2778517379007" lon="9.538257591883632"><ele>55.0</ele><time>2026-04-04T14:24:21Z</time></trkpt><trkpt lat="39.27790615200104" lon="9.538467017355758"><ele>55.0</ele><time>2026-04-04T14:24:22Z</time></trkpt><trkpt lat="39.27796196449684" lon="9.538683722121544"><ele>54.666666666666664</ele><time>2026-04-04T14:24:23Z</time></trkpt><trkpt lat="39.2780188648073" lon="9.538907533775348"><ele>54.33333333333333</ele><time>2026-04-04T14:24:24Z</time></trkpt><trkpt lat="39.27807729763674" lon="9.539137325797302"><ele>54.0</ele><time>2026-04-04T14:24:25Z</time></trkpt><trkpt lat="39.2781350162357" lon="9.53936430905254"><ele>53.66666666666667</ele><time>2026-04-04T14:24:26Z</time></trkpt><trkpt lat="39.27818987740727" lon="9.539579808100271"><ele>53.333333333333336</ele><time>2026-04-04T14:24:27Z</time></trkpt><trkpt lat="39.278244243256545" lon="9.539793267211525"><ele>53.0</ele><time>2026-04-04T14:24:28Z</time></trkpt><trkpt lat="39.27829646659678" lon="9.539999333100498"><ele>53.0</ele><time>2026-04-04T14:24:29Z</time></trkpt><trkpt lat="39.278345096572245" lon="9.540191500623237"><ele>53.0</ele><time>2026-04-04T14:24:30Z</time></trkpt><trkpt lat="39.278389635169056" lon="9.54036750055424"><ele>53.0</ele><time>2026-04-04T14:24:31Z</time></trkpt><trkpt lat="39.27843154151234" lon="9.540533098789822"><ele>53.0</ele><time>2026-04-04T14:24:32Z</time></trkpt><trkpt lat="39.27846983636268" lon="9.540684425750525"><ele>53.5</ele><time>2026-04-04T14:24:33Z</time></trkpt><trkpt lat="39.27850645791817" lon="9.540815017804624"><ele>54.0</ele><time>2026-04-04T14:24:34Z</time></trkpt><trkpt lat="39.27850163350905" lon="9.540945804487965"><ele>54.5</ele><time>2026-04-04T14:24:35Z</time></trkpt><trkpt lat="39.27851459533035" lon="9.541039148422508"><ele>55.0</ele><time>2026-04-04T14:24:36Z</time></trkpt><trkpt lat="39.27827787935054" lon="9.541261601973979"><ele>56.33333333333333</ele><time>2026-04-04T14:24:38Z</time></trkpt><trkpt lat="39.27815111038909" lon="9.541328838748951"><ele>57.66666666666667</ele><time>2026-04-04T14:24:39Z</time></trkpt><trkpt lat="39.2779994787039" lon="9.541353180730859"><ele>59.0</ele><time>2026-04-04T14:24:40Z</time></trkpt><trkpt lat="39.27784155872158" lon="9.541408616395575"><ele>59.0</ele><time>2026-04-04T14:24:41Z</time></trkpt><trkpt lat="39.27766308521286" lon="9.541448237645774"><ele>59.0</ele><time>2026-04-04T14:24:42Z</time></trkpt><trkpt lat="39.277490189245235" lon="9.541494804390709"><ele>59.0</ele><time>2026-04-04T14:24:43Z</time></trkpt><trkpt lat="39.27731948937631" lon="9.541544695246792"><ele>59.333333333333336</ele><time>2026-04-04T14:24:44Z</time></trkpt><trkpt lat="39.27714291336655" lon="9.541591552819348"><ele>59.66666666666667</ele><time>2026-04-04T14:24:45Z</time></trkpt><trkpt lat="39.27695089000405" lon="9.541640459114905"><ele>60.0</ele><time>2026-04-04T14:24:46Z</time></trkpt><trkpt lat="39.276751563672086" lon="9.541693139883595"><ele>60.0</ele><time>2026-04-04T14:24:47Z</time></trkpt><trkpt lat="39.27654161167858" lon="9.54175241085473"><ele>60.0</ele><time>2026-04-04T14:24:48Z</time></trkpt><trkpt lat="39.27634142044933" lon="9.541806110757433"><ele>60.0</ele><time>2026-04-04T14:24:49Z</time></trkpt><trkpt lat="39.27615507051457" lon="9.54185568660492"><ele>59.33333333333333</ele><time>2026-04-04T14:24:50Z</time></trkpt><trkpt lat="39.275960815819026" lon="9.541910143845467"><ele>58.666666666666664</ele><time>2026-04-04T14:24:51Z</time></trkpt><trkpt lat="39.27575281035053" lon="9.541960585685722"><ele>58.0</ele><time>2026-04-04T14:24:52Z</time></trkpt><trkpt lat="39.27553547292026" lon="9.542007568909058"><ele>58.5</ele><time>2026-04-04T14:24:53Z</time></trkpt><trkpt lat="39.27530468195435" lon="9.54205571373541"><ele>59.0</ele><time>2026-04-04T14:24:54Z</time></trkpt><trkpt lat="39.27508182989508" lon="9.542099635770777"><ele>59.0</ele><time>2026-04-04T14:24:55Z</time></trkpt><trkpt lat="39.27486584384143" lon="9.542143809279255"><ele>59.0</ele><time>2026-04-04T14:24:56Z</time></trkpt><trkpt lat="39.27464411598136" lon="9.542190865265798"><ele>59.0</ele><time>2026-04-04T14:24:57Z</time></trkpt><trkpt lat="39.27441631232799" lon="9.542242302634335"><ele>59.0</ele><time>2026-04-04T14:24:58Z</time></trkpt><trkpt lat="39.274183716009134" lon="9.542291835972664"><ele>59.0</ele><time>2026-04-04T14:24:59Z</time></trkpt><trkpt lat="39.273949619127414" lon="9.542344994595151"><ele>59.5</ele><time>2026-04-04T14:25:00Z</time></trkpt><trkpt lat="39.273712791991365" lon="9.542397610882764"><ele>60.0</ele><time>2026-04-04T14:25:01Z</time></trkpt><trkpt lat="39.27347431347767" lon="9.54245386311138"><ele>60.0</ele><time>2026-04-04T14:25:02Z</time></trkpt><trkpt lat="39.273235506766454" lon="9.542500906335562"><ele>60.0</ele><time>2026-04-04T14:25:03Z</time></trkpt><trkpt lat="39.272996418471735" lon="9.542547709873855"><ele>60.5</ele><time>2026-04-04T14:25:04Z</time></trkpt><trkpt lat="39.27275614950433" lon="9.542597085926575"><ele>61.0</ele><time>2026-04-04T14:25:05Z</time></trkpt><trkpt lat="39.27252052934911" lon="9.54264551288631"><ele>61.0</ele><time>2026-04-04T14:25:06Z</time></trkpt><trkpt lat="39.27227410762076" lon="9.542694867657913"><ele>61.0</ele><time>2026-04-04T14:25:07Z</time></trkpt><trkpt lat="39.27202924304394" lon="9.542749290801684"><ele>61.5</ele><time>2026-04-04T14:25:08Z</time></trkpt><trkpt lat="39.271784896584556" lon="9.542805073508058"><ele>62.0</ele><time>2026-04-04T14:25:09Z</time></trkpt><trkpt lat="39.271542282270524" lon="9.542857307767557"><ele>62.0</ele><time>2026-04-04T14:25:10Z</time></trkpt><trkpt lat="39.27131440668705" lon="9.542902019268158"><ele>62.0</ele><time>2026-04-04T14:25:11Z</time></trkpt><trkpt lat="39.27109172529859" lon="9.542945754159948"><ele>62.0</ele><time>2026-04-04T14:25:12Z</time></trkpt><trkpt lat="39.27086360393885" lon="9.542993837185774"><ele>62.0</ele><time>2026-04-04T14:25:13Z</time></trkpt><trkpt lat="39.27063628131785" lon="9.543043439680485"><ele>62.5</ele><time>2026-04-04T14:25:14Z</time></trkpt><trkpt lat="39.27040921568102" lon="9.543094297793028"><ele>63.0</ele><time>2026-04-04T14:25:15Z</time></trkpt><trkpt lat="39.270179537729746" lon="9.543145307845348"><ele>63.0</ele><time>2026-04-04T14:25:16Z</time></trkpt><trkpt lat="39.26994623148368" lon="9.543196187594775"><ele>63.0</ele><time>2026-04-04T14:25:17Z</time></trkpt><trkpt lat="39.26971255462181" lon="9.543243801233881"><ele>62.5</ele><time>2026-04-04T14:25:18Z</time></trkpt><trkpt lat="39.269479307894386" lon="9.54328621103594"><ele>62.0</ele><time>2026-04-04T14:25:19Z</time></trkpt><trkpt lat="39.26924066930736" lon="9.543324291326332"><ele>62.0</ele><time>2026-04-04T14:25:20Z</time></trkpt><trkpt lat="39.269003439464676" lon="9.543349442889127"><ele>62.0</ele><time>2026-04-04T14:25:21Z</time></trkpt><trkpt lat="39.26876509082697" lon="9.543365230873091"><ele>63.0</ele><time>2026-04-04T14:25:22Z</time></trkpt><trkpt lat="39.268534301552755" lon="9.54337370073728"><ele>64.0</ele><time>2026-04-04T14:25:23Z</time></trkpt><trkpt lat="39.26830513810754" lon="9.543389540141549"><ele>63.5</ele><time>2026-04-04T14:25:24Z</time></trkpt><trkpt lat="39.268071296347614" lon="9.543419117574276"><ele>63.0</ele><time>2026-04-04T14:25:24.999Z</time></trkpt><trkpt lat="39.26783900560652" lon="9.543463670762335"><ele>63.0</ele><time>2026-04-04T14:25:25.999Z</time></trkpt><trkpt lat="39.26760564848219" lon="9.543520331033104"><ele>63.0</ele><time>2026-04-04T14:25:26.999Z</time></trkpt><trkpt lat="39.26736780962244" lon="9.54357804018585"><ele>63.5</ele><time>2026-04-04T14:25:27.999Z</time></trkpt><trkpt lat="39.26712842107387" lon="9.543634911093392"><ele>64.0</ele><time>2026-04-04T14:25:28.999Z</time></trkpt><trkpt lat="39.26688473860912" lon="9.543690812720138"><ele>64.5</ele><time>2026-04-04T14:25:29.999Z</time></trkpt><trkpt lat="39.26664049042179" lon="9.543747229762586"><ele>65.0</ele><time>2026-04-04T14:25:30.999Z</time></trkpt><trkpt lat="39.26639478623493" lon="9.543805485816126"><ele>66.5</ele><time>2026-04-04T14:25:31.999Z</time></trkpt><trkpt lat="39.266149168753735" lon="9.543861369731554"><ele>68.0</ele><time>2026-04-04T14:25:32.999Z</time></trkpt><trkpt lat="39.265904961284285" lon="9.543916638788165"><ele>68.0</ele><time>2026-04-04T14:25:33.999Z</time></trkpt><trkpt lat="39.265660964035106" lon="9.543970592856912"><ele>68.0</ele><time>2026-04-04T14:25:34.999Z</time></trkpt><trkpt lat="39.265417910732715" lon="9.54402538887006"><ele>67.5</ele><time>2026-04-04T14:25:35.999Z</time></trkpt><trkpt lat="39.265172069279025" lon="9.544079644335964"><ele>67.0</ele><time>2026-04-04T14:25:36.999Z</time></trkpt><trkpt lat="39.264926266038174" lon="9.544134863989909"><ele>67.0</ele><time>2026-04-04T14:25:37.999Z</time></trkpt><trkpt lat="39.26468021526736" lon="9.544190621744642"><ele>67.0</ele><time>2026-04-04T14:25:38.999Z</time></trkpt><trkpt lat="39.264429891792645" lon="9.544247674692452"><ele>67.0</ele><time>2026-04-04T14:25:39.999Z</time></trkpt><trkpt lat="39.264182083710246" lon="9.544303179738593"><ele>67.0</ele><time>2026-04-04T14:25:40.999Z</time></trkpt><trkpt lat="39.26393169219918" lon="9.544360547979917"><ele>66.0</ele><time>2026-04-04T14:25:41.999Z</time></trkpt><trkpt lat="39.26367815596033" lon="9.544418136596791"><ele>65.0</ele><time>2026-04-04T14:25:42.999Z</time></trkpt><trkpt lat="39.2634243935964" lon="9.544475968976062"><ele>65.0</ele><time>2026-04-04T14:25:43.999Z</time></trkpt><trkpt lat="39.263167441898425" lon="9.544532334434516"><ele>65.0</ele><time>2026-04-04T14:25:44.999Z</time></trkpt><trkpt lat="39.262919830611224" lon="9.544585921128537"><ele>66.5</ele><time>2026-04-04T14:25:45.999Z</time></trkpt><trkpt lat="39.26267299566781" lon="9.544641086055337"><ele>68.0</ele><time>2026-04-04T14:25:46.999Z</time></trkpt><trkpt lat="39.26243080398221" lon="9.544696953205507"><ele>68.0</ele><time>2026-04-04T14:25:47.999Z</time></trkpt><trkpt lat="39.262185682161686" lon="9.544752960360894"><ele>68.0</ele><time>2026-04-04T14:25:48.999Z</time></trkpt><trkpt lat="39.261946203111016" lon="9.54481018151268"><ele>68.0</ele><time>2026-04-04T14:25:49.999Z</time></trkpt><trkpt lat="39.261722786484825" lon="9.544859674154857"><ele>68.0</ele><time>2026-04-04T14:25:51Z</time></trkpt><trkpt lat="39.26150148537189" lon="9.544911334714604"><ele>68.33333333333334</ele><time>2026-04-04T14:25:52Z</time></trkpt><trkpt lat="39.261283173090156" lon="9.544962556633838"><ele>68.66666666666667</ele><time>2026-04-04T14:25:53Z</time></trkpt><trkpt lat="39.261062100977036" lon="9.545014205893574"><ele>69.0</ele><time>2026-04-04T14:25:54Z</time></trkpt><trkpt lat="39.260840236363926" lon="9.545062093633316"><ele>69.5</ele><time>2026-04-04T14:25:55Z</time></trkpt><trkpt lat="39.26061574763506" lon="9.54510924060146"><ele>70.0</ele><time>2026-04-04T14:25:56Z</time></trkpt><trkpt lat="39.2603886369425" lon="9.545158676916992"><ele>70.0</ele><time>2026-04-04T14:25:57Z</time></trkpt><trkpt lat="39.26016316756958" lon="9.545211354672775"><ele>70.0</ele><time>2026-04-04T14:25:58Z</time></trkpt><trkpt lat="39.259933003817224" lon="9.54526594193369"><ele>70.0</ele><time>2026-04-04T14:25:59Z</time></trkpt><trkpt lat="39.259701724702595" lon="9.545318795160076"><ele>70.0</ele><time>2026-04-04T14:26:00Z</time></trkpt><trkpt lat="39.2594696894466" lon="9.545365227927572"><ele>70.33333333333333</ele><time>2026-04-04T14:26:01Z</time></trkpt><trkpt lat="39.259248053003844" lon="9.545411904057497"><ele>70.66666666666667</ele><time>2026-04-04T14:26:02Z</time></trkpt><trkpt lat="39.25903923156065" lon="9.545463220440617"><ele>71.0</ele><time>2026-04-04T14:26:03Z</time></trkpt><trkpt lat="39.25882588332812" lon="9.545521090019353"><ele>71.0</ele><time>2026-04-04T14:26:04Z</time></trkpt><trkpt lat="39.25860928513313" lon="9.545576912194962"><ele>71.0</ele><time>2026-04-04T14:26:05Z</time></trkpt><trkpt lat="39.25838325864959" lon="9.545640179839943"><ele>71.0</ele><time>2026-04-04T14:26:06Z</time></trkpt><trkpt lat="39.25815338460416" lon="9.54571589015395"><ele>71.0</ele><time>2026-04-04T14:26:07Z</time></trkpt><trkpt lat="39.25792219172541" lon="9.545806241948396"><ele>71.0</ele><time>2026-04-04T14:26:08Z</time></trkpt><trkpt lat="39.257690209424425" lon="9.545904688204718"><ele>71.0</ele><time>2026-04-04T14:26:08.999Z</time></trkpt><trkpt lat="39.25747929111921" lon="9.546003002450801"><ele>71.0</ele><time>2026-04-04T14:26:09.999Z</time></trkpt><trkpt lat="39.25728682216813" lon="9.54610043337037"><ele>71.0</ele><time>2026-04-04T14:26:10.999Z</time></trkpt><trkpt lat="39.257102521068" lon="9.546202146524575"><ele>71.0</ele><time>2026-04-04T14:26:11.999Z</time></trkpt><trkpt lat="39.25691814834122" lon="9.546306973850548"><ele>71.66666666666667</ele><time>2026-04-04T14:26:12.999Z</time></trkpt><trkpt lat="39.25672518904977" lon="9.546414440962396"><ele>72.33333333333333</ele><time>2026-04-04T14:26:13.999Z</time></trkpt><trkpt lat="39.25652623016876" lon="9.546522505568802"><ele>73.0</ele><time>2026-04-04T14:26:14.999Z</time></trkpt><trkpt lat="39.256330964046484" lon="9.546632729915506"><ele>73.0</ele><time>2026-04-04T14:26:15.999Z</time></trkpt><trkpt lat="39.25614911580061" lon="9.546736473378566"><ele>73.0</ele><time>2026-04-04T14:26:16.999Z</time></trkpt><trkpt lat="39.25597890817274" lon="9.546830369908925"><ele>73.0</ele><time>2026-04-04T14:26:17.999Z</time></trkpt><trkpt lat="39.255813826563916" lon="9.54691893748613"><ele>73.0</ele><time>2026-04-04T14:26:18.999Z</time></trkpt><trkpt lat="39.25563647260082" lon="9.547015710942397"><ele>73.0</ele><time>2026-04-04T14:26:19.999Z</time></trkpt><trkpt lat="39.25544917673471" lon="9.547124883193696"><ele>73.0</ele><time>2026-04-04T14:26:20.998Z</time></trkpt><trkpt lat="39.25525175556987" lon="9.547239528984958"><ele>75.0</ele><time>2026-04-04T14:26:21.998Z</time></trkpt><trkpt lat="39.2550475379211" lon="9.547354974244431"><ele>77.0</ele><time>2026-04-04T14:26:22.998Z</time></trkpt><trkpt lat="39.25483851878558" lon="9.547472524577978"><ele>75.5</ele><time>2026-04-04T14:26:23.998Z</time></trkpt><trkpt lat="39.25462192565361" lon="9.547593239115079"><ele>74.0</ele><time>2026-04-04T14:26:24.998Z</time></trkpt><trkpt lat="39.254402598607484" lon="9.547715567548241"><ele>74.0</ele><time>2026-04-04T14:26:25.998Z</time></trkpt><trkpt lat="39.254175874432725" lon="9.547836412720365"><ele>74.0</ele><time>2026-04-04T14:26:26.998Z</time></trkpt><trkpt lat="39.25394994491896" lon="9.547963571109923"><ele>75.0</ele><time>2026-04-04T14:26:27.998Z</time></trkpt><trkpt lat="39.25371737248649" lon="9.548096437397687"><ele>76.0</ele><time>2026-04-04T14:26:28.998Z</time></trkpt><trkpt lat="39.253486943310214" lon="9.548230036822899"><ele>76.0</ele><time>2026-04-04T14:26:29.998Z</time></trkpt><trkpt lat="39.2532544237094" lon="9.54837206472034"><ele>76.0</ele><time>2026-04-04T14:26:30.998Z</time></trkpt><trkpt lat="39.25302834879802" lon="9.548528603280497"><ele>76.0</ele><time>2026-04-04T14:26:31.998Z</time></trkpt><trkpt lat="39.25280751298921" lon="9.548707539462253"><ele>76.0</ele><time>2026-04-04T14:26:32.998Z</time></trkpt><trkpt lat="39.2525921293887" lon="9.548898173226927"><ele>76.0</ele><time>2026-04-04T14:26:33.998Z</time></trkpt><trkpt lat="39.25238441993195" lon="9.549105764129882"><ele>76.0</ele><time>2026-04-04T14:26:34.998Z</time></trkpt><trkpt lat="39.25219024842269" lon="9.549332276818124"><ele>76.0</ele><time>2026-04-04T14:26:35.998Z</time></trkpt><trkpt lat="39.25200031884411" lon="9.549577323339813"><ele>76.0</ele><time>2026-04-04T14:26:36.998Z</time></trkpt><trkpt lat="39.251825677486195" lon="9.54983747896338"><ele>76.0</ele><time>2026-04-04T14:26:37.998Z</time></trkpt><trkpt lat="39.25166221061635" lon="9.550108289889222"><ele>76.0</ele><time>2026-04-04T14:26:38.998Z</time></trkpt><trkpt lat="39.251497487181844" lon="9.550387292293392"><ele>76.0</ele><time>2026-04-04T14:26:39.998Z</time></trkpt><trkpt lat="39.25132907714713" lon="9.550662224441405"><ele>76.0</ele><time>2026-04-04T14:26:40.998Z</time></trkpt><trkpt lat="39.25115795631856" lon="9.550938642356412"><ele>77.5</ele><time>2026-04-04T14:26:41.998Z</time></trkpt><trkpt lat="39.25098704035927" lon="9.551215400513025"><ele>79.0</ele><time>2026-04-04T14:26:42.998Z</time></trkpt><trkpt lat="39.25082693707712" lon="9.551472736365946"><ele>79.0</ele><time>2026-04-04T14:26:43.998Z</time></trkpt><trkpt lat="39.25067977769123" lon="9.551708903868157"><ele>79.0</ele><time>2026-04-04T14:26:44.998Z</time></trkpt><trkpt lat="39.250542282594374" lon="9.551931779330886"><ele>78.33333333333333</ele><time>2026-04-04T14:26:45.998Z</time></trkpt><trkpt lat="39.250409020802515" lon="9.552145937838967"><ele>77.66666666666667</ele><time>2026-04-04T14:26:46.998Z</time></trkpt><trkpt lat="39.250283155220615" lon="9.552349724595636"><ele>77.0</ele><time>2026-04-04T14:26:47.998Z</time></trkpt><trkpt lat="39.25015744003808" lon="9.552557284173792"><ele>77.0</ele><time>2026-04-04T14:26:48.998Z</time></trkpt><trkpt lat="39.25001467607844" lon="9.552753924725375"><ele>77.0</ele><time>2026-04-04T14:26:49.998Z</time></trkpt><trkpt lat="39.24989564474541" lon="9.55297905597999"><ele>77.0</ele><time>2026-04-04T14:26:50.998Z</time></trkpt><trkpt lat="39.24975790789734" lon="9.553196447489452"><ele>76.66666666666667</ele><time>2026-04-04T14:26:51.998Z</time></trkpt><trkpt lat="39.24962263829689" lon="9.55341463032882"><ele>76.33333333333333</ele><time>2026-04-04T14:26:52.998Z</time></trkpt><trkpt lat="39.24947699225124" lon="9.553618625306664"><ele>76.0</ele><time>2026-04-04T14:26:53.998Z</time></trkpt><trkpt lat="39.249347052563245" lon="9.553827156961036"><ele>76.66666666666666</ele><time>2026-04-04T14:26:54.998Z</time></trkpt><trkpt lat="39.24922162648126" lon="9.554029495378238"><ele>77.33333333333333</ele><time>2026-04-04T14:26:55.998Z</time></trkpt><trkpt lat="39.2490963866313" lon="9.554230018931726"><ele>78.0</ele><time>2026-04-04T14:26:56.998Z</time></trkpt><trkpt lat="39.24896833005797" lon="9.554435052557361"><ele>79.33333333333333</ele><time>2026-04-04T14:26:57.998Z</time></trkpt><trkpt lat="39.248833810058144" lon="9.554650434808943"><ele>80.66666666666666</ele><time>2026-04-04T14:26:58.998Z</time></trkpt><trkpt lat="39.24869407039099" lon="9.554874174193628"><ele>82.0</ele><time>2026-04-04T14:26:59.997Z</time></trkpt><trkpt lat="39.2485496818296" lon="9.55510469493641"><ele>82.0</ele><time>2026-04-04T14:27:00.997Z</time></trkpt><trkpt lat="39.248413163111415" lon="9.555320104345775"><ele>82.0</ele><time>2026-04-04T14:27:01.997Z</time></trkpt><trkpt lat="39.24828292782665" lon="9.555524376076495"><ele>82.0</ele><time>2026-04-04T14:27:02.997Z</time></trkpt><trkpt lat="39.24815065853788" lon="9.55571886493961"><ele>82.33333333333333</ele><time>2026-04-04T14:27:03.997Z</time></trkpt><trkpt lat="39.24800593989526" lon="9.55591136683889"><ele>82.66666666666667</ele><time>2026-04-04T14:27:04.997Z</time></trkpt><trkpt lat="39.247851912267535" lon="9.556097142726742"><ele>83.0</ele><time>2026-04-04T14:27:05.997Z</time></trkpt><trkpt lat="39.24768553466082" lon="9.556283429552819"><ele>82.0</ele><time>2026-04-04T14:27:06.997Z</time></trkpt><trkpt lat="39.24751930954805" lon="9.556480001193348"><ele>81.0</ele><time>2026-04-04T14:27:07.997Z</time></trkpt><trkpt lat="39.2473288826292" lon="9.556625050844099"><ele>80.0</ele><time>2026-04-04T14:27:08.997Z</time></trkpt><trkpt lat="39.24714300158349" lon="9.55677371847056"><ele>79.66666666666667</ele><time>2026-04-04T14:27:09.997Z</time></trkpt><trkpt lat="39.246950131105336" lon="9.556908937483845"><ele>79.33333333333333</ele><time>2026-04-04T14:27:10.997Z</time></trkpt><trkpt lat="39.246750675839316" lon="9.557022867327165"><ele>79.0</ele><time>2026-04-04T14:27:11.997Z</time></trkpt><trkpt lat="39.24653763073384" lon="9.55712426352569"><ele>73.5</ele><time>2026-04-04T14:27:12.997Z</time></trkpt><trkpt lat="39.24630968959673" lon="9.55722777106254"><ele>68.0</ele><time>2026-04-04T14:27:13.997Z</time></trkpt><trkpt lat="39.24607609175056" lon="9.55733277523133"><ele>68.0</ele><time>2026-04-04T14:27:14.997Z</time></trkpt><trkpt lat="39.24585577028104" lon="9.557449709308974"><ele>68.0</ele><time>2026-04-04T14:27:15.997Z</time></trkpt><trkpt lat="39.245639142501034" lon="9.557541963544516"><ele>64.0</ele><time>2026-04-04T14:27:16.997Z</time></trkpt><trkpt lat="39.24541642119007" lon="9.557636422576845"><ele>60.0</ele><time>2026-04-04T14:27:17.997Z</time></trkpt><trkpt lat="39.24518949958021" lon="9.557729586712691"><ele>60.0</ele><time>2026-04-04T14:27:18.997Z</time></trkpt><trkpt lat="39.24496047727742" lon="9.557821076146311"><ele>60.0</ele><time>2026-04-04T14:27:19.997Z</time></trkpt><trkpt lat="39.24473382893792" lon="9.55791417445925"><ele>56.0</ele><time>2026-04-04T14:27:20.997Z</time></trkpt><trkpt lat="39.244502711215006" lon="9.5580097317447"><ele>52.0</ele><time>2026-04-04T14:27:21.997Z</time></trkpt><trkpt lat="39.24427075761462" lon="9.558106589271858"><ele>52.0</ele><time>2026-04-04T14:27:22.997Z</time></trkpt><trkpt lat="39.244038883323" lon="9.558202700125374"><ele>52.0</ele><time>2026-04-04T14:27:23.997Z</time></trkpt><trkpt lat="39.24381239368976" lon="9.558298176969252"><ele>43.5</ele><time>2026-04-04T14:27:24.997Z</time></trkpt><trkpt lat="39.24358211484" lon="9.558397849343525"><ele>35.0</ele><time>2026-04-04T14:27:25.997Z</time></trkpt><trkpt lat="39.24335161587548" lon="9.558501493978746"><ele>33.5</ele><time>2026-04-04T14:27:26.997Z</time></trkpt><trkpt lat="39.243115718458206" lon="9.558605029018658"><ele>32.0</ele><time>2026-04-04T14:27:27.997Z</time></trkpt><trkpt lat="39.242876410778784" lon="9.55870440802771"><ele>32.0</ele><time>2026-04-04T14:27:28.997Z</time></trkpt><trkpt lat="39.242633627504404" lon="9.55880461007098"><ele>32.0</ele><time>2026-04-04T14:27:29.997Z</time></trkpt><trkpt lat="39.24239162158941" lon="9.558905500531635"><ele>25.5</ele><time>2026-04-04T14:27:30.997Z</time></trkpt><trkpt lat="39.24214652678941" lon="9.559008749902949"><ele>19.0</ele><time>2026-04-04T14:27:31.997Z</time></trkpt><trkpt lat="39.24190280481335" lon="9.559114433944865"><ele>19.0</ele><time>2026-04-04T14:27:32.997Z</time></trkpt><trkpt lat="39.24166464306089" lon="9.559220952635767"><ele>19.0</ele><time>2026-04-04T14:27:33.997Z</time></trkpt><trkpt lat="39.24143734371546" lon="9.559318922590654"><ele>16.5</ele><time>2026-04-04T14:27:34.997Z</time></trkpt><trkpt lat="39.24121877716944" lon="9.559413625133592"><ele>14.0</ele><time>2026-04-04T14:27:35.997Z</time></trkpt><trkpt lat="39.2410066290849" lon="9.559506310070379"><ele>14.0</ele><time>2026-04-04T14:27:36.997Z</time></trkpt><trkpt lat="39.24079955098915" lon="9.559597210150322"><ele>14.0</ele><time>2026-04-04T14:27:37.997Z</time></trkpt><trkpt lat="39.2406013190846" lon="9.559682627885426"><ele>14.0</ele><time>2026-04-04T14:27:38.997Z</time></trkpt><trkpt lat="39.240403714808416" lon="9.559766297080476"><ele>13.666666666666668</ele><time>2026-04-04T14:27:39.997Z</time></trkpt><trkpt lat="39.24020829838977" lon="9.559849647845168"><ele>13.333333333333332</ele><time>2026-04-04T14:27:40.997Z</time></trkpt><trkpt lat="39.24000700978463" lon="9.559933672895689"><ele>13.0</ele><time>2026-04-04T14:27:41.997Z</time></trkpt><trkpt lat="39.23980572576621" lon="9.560018573120194"><ele>12.0</ele><time>2026-04-04T14:27:42.997Z</time></trkpt><trkpt lat="39.23960676952184" lon="9.560103186618063"><ele>11.0</ele><time>2026-04-04T14:27:43.997Z</time></trkpt><trkpt lat="39.23941504848024" lon="9.560183500814507"><ele>10.0</ele><time>2026-04-04T14:27:44.997Z</time></trkpt><trkpt lat="39.23921028102358" lon="9.560269846380827"><ele>10.0</ele><time>2026-04-04T14:27:45.997Z</time></trkpt><trkpt lat="39.23900051698843" lon="9.560361686891365"><ele>10.0</ele><time>2026-04-04T14:27:46.997Z</time></trkpt><trkpt lat="39.23879498019802" lon="9.560453111725224"><ele>10.0</ele><time>2026-04-04T14:27:47.997Z</time></trkpt><trkpt lat="39.238586601978604" lon="9.560548344487033"><ele>10.5</ele><time>2026-04-04T14:27:48.997Z</time></trkpt><trkpt lat="39.23837271556588" lon="9.560642968285693"><ele>11.0</ele><time>2026-04-04T14:27:49.997Z</time></trkpt><trkpt lat="39.23815371302984" lon="9.560732102501296"><ele>12.0</ele><time>2026-04-04T14:27:50.997Z</time></trkpt><trkpt lat="39.23793425770239" lon="9.560812907356501"><ele>13.0</ele><time>2026-04-04T14:27:51.997Z</time></trkpt><trkpt lat="39.237711044045874" lon="9.560883227137428"><ele>13.0</ele><time>2026-04-04T14:27:52.997Z</time></trkpt><trkpt lat="39.237491209375186" lon="9.56093733264075"><ele>13.0</ele><time>2026-04-04T14:27:53.997Z</time></trkpt><trkpt lat="39.2372676037279" lon="9.560978357766883"><ele>14.666666666666666</ele><time>2026-04-04T14:27:54.997Z</time></trkpt><trkpt lat="39.23704641495238" lon="9.561004742946253"><ele>16.333333333333332</ele><time>2026-04-04T14:27:55.997Z</time></trkpt><trkpt lat="39.236827457196135" lon="9.561014556698364"><ele>18.0</ele><time>2026-04-04T14:27:56.998Z</time></trkpt><trkpt lat="39.23662578596326" lon="9.561013771021546"><ele>20.333333333333336</ele><time>2026-04-04T14:27:57.998Z</time></trkpt><trkpt lat="39.236435925116105" lon="9.561006016441691"><ele>22.666666666666668</ele><time>2026-04-04T14:27:58.998Z</time></trkpt><trkpt lat="39.23625597296016" lon="9.560992662181048"><ele>25.0</ele><time>2026-04-04T14:27:59.998Z</time></trkpt><trkpt lat="39.23607053405544" lon="9.560959330136205"><ele>25.0</ele><time>2026-04-04T14:28:00.998Z</time></trkpt><trkpt lat="39.23587344422296" lon="9.560908568983438"><ele>25.0</ele><time>2026-04-04T14:28:01.998Z</time></trkpt><trkpt lat="39.2356793738331" lon="9.560845268070098"><ele>25.0</ele><time>2026-04-04T14:28:02.998Z</time></trkpt><trkpt lat="39.23548992468465" lon="9.560776607100356"><ele>27.333333333333336</ele><time>2026-04-04T14:28:03.998Z</time></trkpt><trkpt lat="39.23530594843043" lon="9.560705637635035"><ele>29.666666666666664</ele><time>2026-04-04T14:28:04.998Z</time></trkpt><trkpt lat="39.23512442862849" lon="9.56063427153282"><ele>32.0</ele><time>2026-04-04T14:28:05.999Z</time></trkpt><trkpt lat="39.23493365600369" lon="9.560554418433545"><ele>34.33333333333333</ele><time>2026-04-04T14:28:06.999Z</time></trkpt><trkpt lat="39.234738607206" lon="9.560472042406154"><ele>36.666666666666664</ele><time>2026-04-04T14:28:07.999Z</time></trkpt><trkpt lat="39.23453675994917" lon="9.56038246588337"><ele>39.0</ele><time>2026-04-04T14:28:08.999Z</time></trkpt><trkpt lat="39.234331094590445" lon="9.560293104990997"><ele>43.0</ele><time>2026-04-04T14:28:09.999Z</time></trkpt><trkpt lat="39.234117269430534" lon="9.560198241652078"><ele>47.0</ele><time>2026-04-04T14:28:10.999Z</time></trkpt><trkpt lat="39.23389627804637" lon="9.560101470335491"><ele>47.0</ele><time>2026-04-04T14:28:11.999Z</time></trkpt><trkpt lat="39.233686508773275" lon="9.56001189084275"><ele>47.0</ele><time>2026-04-04T14:28:12.999Z</time></trkpt><trkpt lat="39.233495090321526" lon="9.559928150263488"><ele>47.0</ele><time>2026-04-04T14:28:13.999Z</time></trkpt><trkpt lat="39.23330937535771" lon="9.559846356906457"><ele>47.33333333333333</ele><time>2026-04-04T14:28:14.999Z</time></trkpt><trkpt lat="39.23311870203694" lon="9.559763575246226"><ele>47.666666666666664</ele><time>2026-04-04T14:28:15.999Z</time></trkpt><trkpt lat="39.2329173334167" lon="9.559681901731544"><ele>48.0</ele><time>2026-04-04T14:28:16.999Z</time></trkpt><trkpt lat="39.232705260400735" lon="9.559597895411423"><ele>51.5</ele><time>2026-04-04T14:28:17.999Z</time></trkpt><trkpt lat="39.23249269075766" lon="9.559515333081812"><ele>55.0</ele><time>2026-04-04T14:28:18.999Z</time></trkpt><trkpt lat="39.23227128297768" lon="9.559429416564058"><ele>55.33333333333333</ele><time>2026-04-04T14:28:19.999Z</time></trkpt><trkpt lat="39.23205202348003" lon="9.559346844045894"><ele>55.66666666666667</ele><time>2026-04-04T14:28:20.999Z</time></trkpt><trkpt lat="39.2318435253372" lon="9.559265915802825"><ele>56.0</ele><time>2026-04-04T14:28:21.999Z</time></trkpt><trkpt lat="39.23165190474607" lon="9.559191566368396"><ele>55.0</ele><time>2026-04-04T14:28:22.999Z</time></trkpt><trkpt lat="39.23146208980794" lon="9.559117226152066"><ele>54.0</ele><time>2026-04-04T14:28:23.999Z</time></trkpt><trkpt lat="39.23127127479163" lon="9.55904220356213"><ele>53.0</ele><time>2026-04-04T14:28:24.999Z</time></trkpt><trkpt lat="39.23107841256674" lon="9.558967354394037"><ele>53.0</ele><time>2026-04-04T14:28:25.999Z</time></trkpt><trkpt lat="39.23088757390161" lon="9.558894522675674"><ele>53.0</ele><time>2026-04-04T14:28:26.999Z</time></trkpt><trkpt lat="39.230695773398836" lon="9.558823508621918"><ele>53.0</ele><time>2026-04-04T14:28:27.999Z</time></trkpt><trkpt lat="39.23050005829228" lon="9.558745944680878"><ele>56.333333333333336</ele><time>2026-04-04T14:28:29Z</time></trkpt><trkpt lat="39.230305731445995" lon="9.558664091054654"><ele>59.66666666666667</ele><time>2026-04-04T14:28:30Z</time></trkpt><trkpt lat="39.23011897065904" lon="9.55858076404206"><ele>63.0</ele><time>2026-04-04T14:28:31Z</time></trkpt><trkpt lat="39.22994821559692" lon="9.558501834541538"><ele>64.66666666666667</ele><time>2026-04-04T14:28:32Z</time></trkpt><trkpt lat="39.22976837307115" lon="9.558438576748848"><ele>66.33333333333334</ele><time>2026-04-04T14:28:33Z</time></trkpt><trkpt lat="39.22956972125705" lon="9.558391688311673"><ele>68.0</ele><time>2026-04-04T14:28:34Z</time></trkpt><trkpt lat="39.22935609053339" lon="9.55837514838243"><ele>68.0</ele><time>2026-04-04T14:28:35Z</time></trkpt><trkpt lat="39.229139478477975" lon="9.558384683645151"><ele>68.0</ele><time>2026-04-04T14:28:36Z</time></trkpt><trkpt lat="39.22891856234823" lon="9.558420643758046"><ele>68.0</ele><time>2026-04-04T14:28:37Z</time></trkpt><trkpt lat="39.228702622117524" lon="9.558474673971311"><ele>69.0</ele><time>2026-04-04T14:28:38Z</time></trkpt><trkpt lat="39.22848766394935" lon="9.55854842052228"><ele>70.0</ele><time>2026-04-04T14:28:39Z</time></trkpt><trkpt lat="39.22827160672481" lon="9.558641846772275"><ele>65.0</ele><time>2026-04-04T14:28:40Z</time></trkpt><trkpt lat="39.22805951870366" lon="9.558757016127423"><ele>60.0</ele><time>2026-04-04T14:28:41Z</time></trkpt><trkpt lat="39.22784813118311" lon="9.558880056653386"><ele>60.0</ele><time>2026-04-04T14:28:42Z</time></trkpt><trkpt lat="39.227649148113855" lon="9.558985862211935"><ele>60.0</ele><time>2026-04-04T14:28:43Z</time></trkpt><trkpt lat="39.2274471742881" lon="9.55908015707583"><ele>60.0</ele><time>2026-04-04T14:28:44Z</time></trkpt><trkpt lat="39.22724063815408" lon="9.559159732194978"><ele>62.33333333333333</ele><time>2026-04-04T14:28:45Z</time></trkpt><trkpt lat="39.22704570687948" lon="9.559223273230888"><ele>64.66666666666666</ele><time>2026-04-04T14:28:46Z</time></trkpt><trkpt lat="39.226860517490955" lon="9.559284688848392"><ele>67.0</ele><time>2026-04-04T14:28:47Z</time></trkpt><trkpt lat="39.22668160841545" lon="9.559338082999755"><ele>67.0</ele><time>2026-04-04T14:28:48Z</time></trkpt><trkpt lat="39.22649092551121" lon="9.559345868197248"><ele>67.0</ele><time>2026-04-04T14:28:49Z</time></trkpt><trkpt lat="39.22628740175565" lon="9.559345000459173"><ele>67.0</ele><time>2026-04-04T14:28:50Z</time></trkpt><trkpt lat="39.22607654145379" lon="9.559320633454522"><ele>65.0</ele><time>2026-04-04T14:28:51Z</time></trkpt><trkpt lat="39.225852498390054" lon="9.559293793174689"><ele>63.0</ele><time>2026-04-04T14:28:52Z</time></trkpt><trkpt lat="39.22564064831765" lon="9.55928418612162"><ele>61.0</ele><time>2026-04-04T14:28:53Z</time></trkpt><trkpt lat="39.225444579047135" lon="9.559257536769294"><ele>58.0</ele><time>2026-04-04T14:28:54Z</time></trkpt><trkpt lat="39.22525618699079" lon="9.559205188982782"><ele>55.0</ele><time>2026-04-04T14:28:55Z</time></trkpt><trkpt lat="39.22507782176838" lon="9.559154286027143"><ele>52.0</ele><time>2026-04-04T14:28:56Z</time></trkpt><trkpt lat="39.22488847551882" lon="9.559102113725642"><ele>51.33333333333333</ele><time>2026-04-04T14:28:57Z</time></trkpt><trkpt lat="39.224706469425044" lon="9.55901188869974"><ele>50.66666666666667</ele><time>2026-04-04T14:28:58Z</time></trkpt><trkpt lat="39.22452768662595" lon="9.5589255929136"><ele>50.0</ele><time>2026-04-04T14:28:59Z</time></trkpt><trkpt lat="39.22434571868162" lon="9.55885342470873"><ele>50.0</ele><time>2026-04-04T14:29:00Z</time></trkpt><trkpt lat="39.22416233737981" lon="9.558801537137345"><ele>50.0</ele><time>2026-04-04T14:29:01Z</time></trkpt><trkpt lat="39.22397624423984" lon="9.558781181750888"><ele>50.0</ele><time>2026-04-04T14:29:02Z</time></trkpt><trkpt lat="39.223783440336234" lon="9.55878365323555"><ele>48.66666666666667</ele><time>2026-04-04T14:29:03Z</time></trkpt><trkpt lat="39.22358814527644" lon="9.55880520664606"><ele>47.333333333333336</ele><time>2026-04-04T14:29:04Z</time></trkpt><trkpt lat="39.22339936479357" lon="9.55884272113251"><ele>46.0</ele><time>2026-04-04T14:29:05Z</time></trkpt><trkpt lat="39.22320938016746" lon="9.558897832676445"><ele>45.0</ele><time>2026-04-04T14:29:06Z</time></trkpt><trkpt lat="39.22302539443405" lon="9.558976649523098"><ele>44.0</ele><time>2026-04-04T14:29:07Z</time></trkpt><trkpt lat="39.22284388169609" lon="9.55908367202948"><ele>43.0</ele><time>2026-04-04T14:29:07.999Z</time></trkpt><trkpt lat="39.222648176002856" lon="9.559211515030626"><ele>43.0</ele><time>2026-04-04T14:29:08.999Z</time></trkpt><trkpt lat="39.2224364438905" lon="9.559349407283689"><ele>43.0</ele><time>2026-04-04T14:29:09.999Z</time></trkpt><trkpt lat="39.222226155463986" lon="9.559481269385365"><ele>40.0</ele><time>2026-04-04T14:29:10.999Z</time></trkpt><trkpt lat="39.22202435570438" lon="9.559608103091477"><ele>37.0</ele><time>2026-04-04T14:29:11.999Z</time></trkpt><trkpt lat="39.22183085882601" lon="9.559732834939593"><ele>34.0</ele><time>2026-04-04T14:29:12.999Z</time></trkpt><trkpt lat="39.221636737606914" lon="9.559858595127132"><ele>33.0</ele><time>2026-04-04T14:29:13.999Z</time></trkpt><trkpt lat="39.22144368152033" lon="9.559981304458356"><ele>32.0</ele><time>2026-04-04T14:29:14.999Z</time></trkpt><trkpt lat="39.22124997719811" lon="9.560102426443976"><ele>31.0</ele><time>2026-04-04T14:29:15.999Z</time></trkpt><trkpt lat="39.22105919135957" lon="9.56022183564885"><ele>31.0</ele><time>2026-04-04T14:29:16.999Z</time></trkpt><trkpt lat="39.22086792084855" lon="9.56034085451628"><ele>31.0</ele><time>2026-04-04T14:29:17.999Z</time></trkpt><trkpt lat="39.22067459261578" lon="9.560464708223998"><ele>31.0</ele><time>2026-04-04T14:29:18.999Z</time></trkpt><trkpt lat="39.220484980780846" lon="9.560586176970942"><ele>30.666666666666668</ele><time>2026-04-04T14:29:19.999Z</time></trkpt><trkpt lat="39.22028965908926" lon="9.560709537744932"><ele>30.333333333333336</ele><time>2026-04-04T14:29:20.999Z</time></trkpt><trkpt lat="39.22008970285673" lon="9.560836087381594"><ele>30.0</ele><time>2026-04-04T14:29:21.999Z</time></trkpt><trkpt lat="39.21988663229221" lon="9.560965202201807"><ele>29.0</ele><time>2026-04-04T14:29:22.999Z</time></trkpt><trkpt lat="39.21967842296103" lon="9.561098623293695"><ele>28.0</ele><time>2026-04-04T14:29:23.999Z</time></trkpt><trkpt lat="39.219456044383755" lon="9.561216949700116"><ele>27.5</ele><time>2026-04-04T14:29:24.999Z</time></trkpt><trkpt lat="39.21924484247426" lon="9.561349818920727"><ele>27.0</ele><time>2026-04-04T14:29:25.999Z</time></trkpt><trkpt lat="39.21903381953179" lon="9.561482575651134"><ele>25.666666666666668</ele><time>2026-04-04T14:29:26.999Z</time></trkpt><trkpt lat="39.218845342683814" lon="9.561622275939751"><ele>24.333333333333336</ele><time>2026-04-04T14:29:27.999Z</time></trkpt><trkpt lat="39.21865475321412" lon="9.561738909152233"><ele>23.0</ele><time>2026-04-04T14:29:28.999Z</time></trkpt><trkpt lat="39.218461373509015" lon="9.561859497748133"><ele>23.0</ele><time>2026-04-04T14:29:29.999Z</time></trkpt><trkpt lat="39.218264918564316" lon="9.561987079234504"><ele>23.0</ele><time>2026-04-04T14:29:30.999Z</time></trkpt><trkpt lat="39.21806556782251" lon="9.562113751841286"><ele>23.0</ele><time>2026-04-04T14:29:31.999Z</time></trkpt><trkpt lat="39.217859977087116" lon="9.562242580058747"><ele>23.0</ele><time>2026-04-04T14:29:32.999Z</time></trkpt><trkpt lat="39.21766228312492" lon="9.562367369770106"><ele>23.0</ele><time>2026-04-04T14:29:33.999Z</time></trkpt><trkpt lat="39.217455633950166" lon="9.562475226390088"><ele>23.0</ele><time>2026-04-04T14:29:34.999Z</time></trkpt><trkpt lat="39.21725522023916" lon="9.562602082345332"><ele>23.0</ele><time>2026-04-04T14:29:35.999Z</time></trkpt><trkpt lat="39.21705760892483" lon="9.562727756817463"><ele>23.0</ele><time>2026-04-04T14:29:36.999Z</time></trkpt><trkpt lat="39.216885587969905" lon="9.562859713690923"><ele>23.0</ele><time>2026-04-04T14:29:37.999Z</time></trkpt><trkpt lat="39.21670762785393" lon="9.562969563801913"><ele>23.0</ele><time>2026-04-04T14:29:38.999Z</time></trkpt><trkpt lat="39.21653109594381" lon="9.563069026574672"><ele>23.0</ele><time>2026-04-04T14:29:39.999Z</time></trkpt><trkpt lat="39.216350526932054" lon="9.563132361066913"><ele>23.0</ele><time>2026-04-04T14:29:40.999Z</time></trkpt><trkpt lat="39.21616867999118" lon="9.563186358527023"><ele>23.333333333333336</ele><time>2026-04-04T14:29:41.999Z</time></trkpt><trkpt lat="39.21599491155236" lon="9.563217090824457"><ele>23.666666666666668</ele><time>2026-04-04T14:29:42.999Z</time></trkpt><trkpt lat="39.21581708952629" lon="9.563242745617881"><ele>24.0</ele><time>2026-04-04T14:29:43.999Z</time></trkpt><trkpt lat="39.21562381590878" lon="9.5632359953784"><ele>25.0</ele><time>2026-04-04T14:29:44.999Z</time></trkpt><trkpt lat="39.215417481130835" lon="9.56321905653782"><ele>26.0</ele><time>2026-04-04T14:29:45.999Z</time></trkpt><trkpt lat="39.21522136984382" lon="9.563204834902972"><ele>27.0</ele><time>2026-04-04T14:29:46.999Z</time></trkpt><trkpt lat="39.215044082693915" lon="9.56319357456433"><ele>27.0</ele><time>2026-04-04T14:29:47.999Z</time></trkpt><trkpt lat="39.21487941858657" lon="9.563185783491525"><ele>27.0</ele><time>2026-04-04T14:29:48.999Z</time></trkpt><trkpt lat="39.21471803046964" lon="9.56317598437279"><ele>27.0</ele><time>2026-04-04T14:29:49.999Z</time></trkpt><trkpt lat="39.21454301447378" lon="9.563157997235066"><ele>26.666666666666664</ele><time>2026-04-04T14:29:50.999Z</time></trkpt><trkpt lat="39.214358533248436" lon="9.563122192393495"><ele>26.333333333333332</ele><time>2026-04-04T14:29:51.999Z</time></trkpt><trkpt lat="39.214172987604215" lon="9.563065224658393"><ele>26.0</ele><time>2026-04-04T14:29:52.999Z</time></trkpt><trkpt lat="39.21398934219146" lon="9.562987871135029"><ele>25.0</ele><time>2026-04-04T14:29:53.999Z</time></trkpt><trkpt lat="39.213810095106446" lon="9.562894926629152"><ele>24.0</ele><time>2026-04-04T14:29:54.999Z</time></trkpt><trkpt lat="39.21363000231019" lon="9.56277874692906"><ele>23.0</ele><time>2026-04-04T14:29:55.999Z</time></trkpt><trkpt lat="39.213446862799636" lon="9.562638220796545"><ele>23.0</ele><time>2026-04-04T14:29:56.999Z</time></trkpt><trkpt lat="39.21325895288863" lon="9.562476070404541"><ele>23.0</ele><time>2026-04-04T14:29:57.999Z</time></trkpt><trkpt lat="39.21307389265502" lon="9.562310684157444"><ele>23.0</ele><time>2026-04-04T14:29:58.999Z</time></trkpt><trkpt lat="39.212896077963904" lon="9.562152828282661"><ele>23.0</ele><time>2026-04-04T14:29:59.999Z</time></trkpt><trkpt lat="39.21271921358539" lon="9.562000567216723"><ele>23.0</ele><time>2026-04-04T14:30:00.999Z</time></trkpt><trkpt lat="39.21253832307904" lon="9.561851755708613"><ele>22.666666666666668</ele><time>2026-04-04T14:30:01.999Z</time></trkpt><trkpt lat="39.21236037212607" lon="9.561704700780213"><ele>22.333333333333332</ele><time>2026-04-04T14:30:03Z</time></trkpt><trkpt lat="39.21218558032326" lon="9.561555699026924"><ele>22.0</ele><time>2026-04-04T14:30:04Z</time></trkpt><trkpt lat="39.21201303217185" lon="9.561422278638021"><ele>22.0</ele><time>2026-04-04T14:30:05Z</time></trkpt><trkpt lat="39.211832956546736" lon="9.561300713050853"><ele>22.0</ele><time>2026-04-04T14:30:06Z</time></trkpt><trkpt lat="39.21165319697047" lon="9.561186661343715"><ele>22.0</ele><time>2026-04-04T14:30:07Z</time></trkpt><trkpt lat="39.21148030097963" lon="9.56107931429751"><ele>22.333333333333332</ele><time>2026-04-04T14:30:08Z</time></trkpt><trkpt lat="39.21130748951863" lon="9.560969443424208"><ele>22.666666666666668</ele><time>2026-04-04T14:30:09Z</time></trkpt><trkpt lat="39.2111443505775" lon="9.56085518015378"><ele>23.0</ele><time>2026-04-04T14:30:10Z</time></trkpt><trkpt lat="39.21097813030679" lon="9.560724638115222"><ele>23.0</ele><time>2026-04-04T14:30:11Z</time></trkpt><trkpt lat="39.21081298226966" lon="9.56058838639417"><ele>23.0</ele><time>2026-04-04T14:30:12Z</time></trkpt><trkpt lat="39.21066150426696" lon="9.560459078259894"><ele>23.0</ele><time>2026-04-04T14:30:13Z</time></trkpt><trkpt lat="39.21051743167564" lon="9.560328857731069"><ele>23.0</ele><time>2026-04-04T14:30:14Z</time></trkpt><trkpt lat="39.21036413744408" lon="9.560194550338736"><ele>23.0</ele><time>2026-04-04T14:30:15Z</time></trkpt><trkpt lat="39.21020790579235" lon="9.560057312634228"><ele>23.0</ele><time>2026-04-04T14:30:16Z</time></trkpt><trkpt lat="39.21005095896159" lon="9.559918676664088"><ele>23.0</ele><time>2026-04-04T14:30:17Z</time></trkpt><trkpt lat="39.20988541550615" lon="9.559765717902158"><ele>23.0</ele><time>2026-04-04T14:30:18Z</time></trkpt><trkpt lat="39.20971756801434" lon="9.559609265436954"><ele>23.0</ele><time>2026-04-04T14:30:19Z</time></trkpt><trkpt lat="39.209543937666766" lon="9.559449012236993"><ele>22.5</ele><time>2026-04-04T14:30:20Z</time></trkpt><trkpt lat="39.20936094081046" lon="9.559285999948429"><ele>22.0</ele><time>2026-04-04T14:30:21Z</time></trkpt><trkpt lat="39.20917171673968" lon="9.559122819373792"><ele>19.5</ele><time>2026-04-04T14:30:22Z</time></trkpt><trkpt lat="39.20897870620439" lon="9.558957871560372"><ele>17.0</ele><time>2026-04-04T14:30:23Z</time></trkpt><trkpt lat="39.20878152103401" lon="9.558787018986562"><ele>20.0</ele><time>2026-04-04T14:30:24Z</time></trkpt><trkpt lat="39.20858121077139" lon="9.558610741659159"><ele>23.0</ele><time>2026-04-04T14:30:25Z</time></trkpt><trkpt lat="39.20839001025608" lon="9.55843539026202"><ele>23.0</ele><time>2026-04-04T14:30:26Z</time></trkpt><trkpt lat="39.20821417236613" lon="9.558274714064362"><ele>23.0</ele><time>2026-04-04T14:30:27Z</time></trkpt><trkpt lat="39.208046322758975" lon="9.558121261522745"><ele>23.0</ele><time>2026-04-04T14:30:28Z</time></trkpt><trkpt lat="39.2078860629624" lon="9.557979631367877"><ele>21.666666666666668</ele><time>2026-04-04T14:30:29Z</time></trkpt><trkpt lat="39.20772909312506" lon="9.557842497594184"><ele>20.333333333333332</ele><time>2026-04-04T14:30:30Z</time></trkpt><trkpt lat="39.20757640703737" lon="9.557706351743306"><ele>19.0</ele><time>2026-04-04T14:30:31Z</time></trkpt><trkpt lat="39.20741150875358" lon="9.557563722677724"><ele>17.333333333333332</ele><time>2026-04-04T14:30:32Z</time></trkpt><trkpt lat="39.20723387129938" lon="9.557424840470643"><ele>15.666666666666668</ele><time>2026-04-04T14:30:33Z</time></trkpt><trkpt lat="39.20704349805099" lon="9.557294177669354"><ele>14.0</ele><time>2026-04-04T14:30:34Z</time></trkpt><trkpt lat="39.20683692380623" lon="9.557174323088978"><ele>14.0</ele><time>2026-04-04T14:30:35Z</time></trkpt><trkpt lat="39.20661996211002" lon="9.55706711097884"><ele>14.0</ele><time>2026-04-04T14:30:36Z</time></trkpt><trkpt lat="39.20640010003077" lon="9.556970185570094"><ele>13.5</ele><time>2026-04-04T14:30:37Z</time></trkpt><trkpt lat="39.20617896304395" lon="9.556880334285713"><ele>13.0</ele><time>2026-04-04T14:30:38Z</time></trkpt><trkpt lat="39.20596738124979" lon="9.556794552307466"><ele>13.0</ele><time>2026-04-04T14:30:39Z</time></trkpt><trkpt lat="39.20576850728791" lon="9.556710824801844"><ele>13.0</ele><time>2026-04-04T14:30:40Z</time></trkpt><trkpt lat="39.205577041188995" lon="9.556628422732881"><ele>13.0</ele><time>2026-04-04T14:30:41Z</time></trkpt><trkpt lat="39.20539565537834" lon="9.556549689413805"><ele>13.0</ele><time>2026-04-04T14:30:42Z</time></trkpt><trkpt lat="39.20521842614008" lon="9.556475583469082"><ele>13.0</ele><time>2026-04-04T14:30:43Z</time></trkpt><trkpt lat="39.205037256291355" lon="9.556400793232987"><ele>13.0</ele><time>2026-04-04T14:30:44Z</time></trkpt><trkpt lat="39.20485488593802" lon="9.556327584940728"><ele>13.333333333333332</ele><time>2026-04-04T14:30:45Z</time></trkpt><trkpt lat="39.2046668569234" lon="9.556252159715514"><ele>13.666666666666668</ele><time>2026-04-04T14:30:46Z</time></trkpt><trkpt lat="39.20447659157862" lon="9.556169520248282"><ele>14.0</ele><time>2026-04-04T14:30:47Z</time></trkpt><trkpt lat="39.20429678939002" lon="9.55609073189096"><ele>14.0</ele><time>2026-04-04T14:30:48Z</time></trkpt><trkpt lat="39.204127270539466" lon="9.55602378652441"><ele>14.0</ele><time>2026-04-04T14:30:49Z</time></trkpt><trkpt lat="39.20397084693543" lon="9.555957557230693"><ele>14.0</ele><time>2026-04-04T14:30:50Z</time></trkpt><trkpt lat="39.2038181025724" lon="9.555892440019665"><ele>13.666666666666668</ele><time>2026-04-04T14:30:51Z</time></trkpt><trkpt lat="39.20365954555848" lon="9.555827461953305"><ele>13.333333333333332</ele><time>2026-04-04T14:30:52Z</time></trkpt><trkpt lat="39.203496268439" lon="9.555763981278222"><ele>13.0</ele><time>2026-04-04T14:30:53Z</time></trkpt><trkpt lat="39.20333783178048" lon="9.555715831399915"><ele>13.0</ele><time>2026-04-04T14:30:54Z</time></trkpt><trkpt lat="39.20317005535361" lon="9.555693768516093"><ele>13.0</ele><time>2026-04-04T14:30:55Z</time></trkpt><trkpt lat="39.20299451429144" lon="9.555679531189256"><ele>13.0</ele><time>2026-04-04T14:30:56Z</time></trkpt><trkpt lat="39.202808767717556" lon="9.555678570053857"><ele>13.0</ele><time>2026-04-04T14:30:57Z</time></trkpt><trkpt lat="39.202618907211296" lon="9.555679303436083"><ele>13.0</ele><time>2026-04-04T14:30:58Z</time></trkpt><trkpt lat="39.20244629891951" lon="9.555676552928391"><ele>13.0</ele><time>2026-04-04T14:30:59Z</time></trkpt><trkpt lat="39.20225457336182" lon="9.555670881883321"><ele>13.0</ele><time>2026-04-04T14:31:00Z</time></trkpt><trkpt lat="39.20205904847532" lon="9.555645188437301"><ele>13.0</ele><time>2026-04-04T14:31:01Z</time></trkpt><trkpt lat="39.201864201368345" lon="9.555585758794482"><ele>13.0</ele><time>2026-04-04T14:31:02Z</time></trkpt><trkpt lat="39.20166470705174" lon="9.555515300365643"><ele>12.5</ele><time>2026-04-04T14:31:03Z</time></trkpt><trkpt lat="39.20145011953842" lon="9.5554273104604"><ele>12.0</ele><time>2026-04-04T14:31:04Z</time></trkpt><trkpt lat="39.2012266909684" lon="9.55531828597614"><ele>11.5</ele><time>2026-04-04T14:31:05Z</time></trkpt><trkpt lat="39.2009977340027" lon="9.555207998067504"><ele>11.0</ele><time>2026-04-04T14:31:06Z</time></trkpt><trkpt lat="39.20076470048102" lon="9.55510080459188"><ele>11.333333333333332</ele><time>2026-04-04T14:31:07Z</time></trkpt><trkpt lat="39.20054582335377" lon="9.555007281942796"><ele>11.666666666666666</ele><time>2026-04-04T14:31:08Z</time></trkpt><trkpt lat="39.20034260372824" lon="9.554920672142652"><ele>12.0</ele><time>2026-04-04T14:31:09Z</time></trkpt><trkpt lat="39.200142544705" lon="9.554833853681279"><ele>12.0</ele><time>2026-04-04T14:31:10Z</time></trkpt><trkpt lat="39.19995823503323" lon="9.554755678093876"><ele>12.0</ele><time>2026-04-04T14:31:10.999Z</time></trkpt><trkpt lat="39.199770866027364" lon="9.554673102916087"><ele>12.0</ele><time>2026-04-04T14:31:11.999Z</time></trkpt><trkpt lat="39.199583648562985" lon="9.554584137903259"><ele>11.666666666666666</ele><time>2026-04-04T14:31:12.999Z</time></trkpt><trkpt lat="39.19939697309894" lon="9.554490421560208"><ele>11.333333333333332</ele><time>2026-04-04T14:31:13.999Z</time></trkpt><trkpt lat="39.199205004456154" lon="9.554402378991007"><ele>11.0</ele><time>2026-04-04T14:31:14.999Z</time></trkpt><trkpt lat="39.199013187469845" lon="9.554315626458267"><ele>11.666666666666666</ele><time>2026-04-04T14:31:15.999Z</time></trkpt><trkpt lat="39.198824865710186" lon="9.55423066376747"><ele>12.333333333333332</ele><time>2026-04-04T14:31:16.999Z</time></trkpt><trkpt lat="39.198646757794656" lon="9.55414736822346"><ele>13.0</ele><time>2026-04-04T14:31:17.999Z</time></trkpt><trkpt lat="39.19848509364754" lon="9.554071307263266"><ele>13.0</ele><time>2026-04-04T14:31:18.999Z</time></trkpt><trkpt lat="39.19832882287139" lon="9.553993704046595"><ele>13.0</ele><time>2026-04-04T14:31:19.999Z</time></trkpt><trkpt lat="39.19817970582108" lon="9.553920602424958"><ele>13.0</ele><time>2026-04-04T14:31:20.999Z</time></trkpt><trkpt lat="39.19803521429364" lon="9.55385126690093"><ele>13.0</ele><time>2026-04-04T14:31:21.999Z</time></trkpt><trkpt lat="39.19790481054825" lon="9.553782940568098"><ele>13.0</ele><time>2026-04-04T14:31:22.999Z</time></trkpt><trkpt lat="39.197776287331855" lon="9.553728468132519"><ele>13.0</ele><time>2026-04-04T14:31:23.999Z</time></trkpt><trkpt lat="39.19765687029143" lon="9.55367061290165"><ele>13.0</ele><time>2026-04-04T14:31:24.999Z</time></trkpt><trkpt lat="39.197541250055735" lon="9.553612819850093"><ele>13.0</ele><time>2026-04-04T14:31:25.999Z</time></trkpt><trkpt lat="39.19741799426205" lon="9.553559139501479"><ele>13.0</ele><time>2026-04-04T14:31:26.999Z</time></trkpt><trkpt lat="39.19730359940532" lon="9.553510385678594"><ele>13.0</ele><time>2026-04-04T14:31:27.999Z</time></trkpt><trkpt lat="39.19719361422963" lon="9.553500412188647"><ele>13.0</ele><time>2026-04-04T14:31:28.999Z</time></trkpt><trkpt lat="39.197080379510616" lon="9.553527810701665"><ele>13.333333333333332</ele><time>2026-04-04T14:31:29.999Z</time></trkpt><trkpt lat="39.19694275334913" lon="9.55360905787272"><ele>13.666666666666668</ele><time>2026-04-04T14:31:30.999Z</time></trkpt><trkpt lat="39.19680027352082" lon="9.553688012642695"><ele>14.0</ele><time>2026-04-04T14:31:31.999Z</time></trkpt><trkpt lat="39.196656264477696" lon="9.553777552370976"><ele>13.666666666666668</ele><time>2026-04-04T14:31:32.999Z</time></trkpt><trkpt lat="39.19649382568862" lon="9.553855985173925"><ele>13.333333333333332</ele><time>2026-04-04T14:31:33.999Z</time></trkpt><trkpt lat="39.196332547106884" lon="9.553966547434824"><ele>13.0</ele><time>2026-04-04T14:31:34.999Z</time></trkpt><trkpt lat="39.196180308877985" lon="9.554101213705549"><ele>13.0</ele><time>2026-04-04T14:31:35.999Z</time></trkpt><trkpt lat="39.196019344583874" lon="9.554225711744342"><ele>13.0</ele><time>2026-04-04T14:31:36.999Z</time></trkpt><trkpt lat="39.19585752187536" lon="9.55435625761234"><ele>13.0</ele><time>2026-04-04T14:31:37.999Z</time></trkpt><trkpt lat="39.19569501785819" lon="9.55448968474524"><ele>15.0</ele><time>2026-04-04T14:31:38.999Z</time></trkpt><trkpt lat="39.195530752833804" lon="9.554622608507152"><ele>17.0</ele><time>2026-04-04T14:31:39.999Z</time></trkpt><trkpt lat="39.195353391813875" lon="9.554762237601576"><ele>19.0</ele><time>2026-04-04T14:31:40.999Z</time></trkpt><trkpt lat="39.1951640601239" lon="9.55491651648253"><ele>19.0</ele><time>2026-04-04T14:31:41.999Z</time></trkpt><trkpt lat="39.19497787720965" lon="9.555063174451016"><ele>19.0</ele><time>2026-04-04T14:31:42.999Z</time></trkpt><trkpt lat="39.19481139322134" lon="9.555200427188808"><ele>19.0</ele><time>2026-04-04T14:31:43.999Z</time></trkpt><trkpt lat="39.1946408677219" lon="9.55533796756489"><ele>20.0</ele><time>2026-04-04T14:31:44.999Z</time></trkpt><trkpt lat="39.19446822194168" lon="9.555474208635706"><ele>21.0</ele><time>2026-04-04T14:31:45.999Z</time></trkpt><trkpt lat="39.194302002237556" lon="9.555610304100435"><ele>22.0</ele><time>2026-04-04T14:31:46.999Z</time></trkpt><trkpt lat="39.19414006711553" lon="9.555744626618875"><ele>27.666666666666664</ele><time>2026-04-04T14:31:47.999Z</time></trkpt><trkpt lat="39.19397195638249" lon="9.555855360546875"><ele>33.333333333333336</ele><time>2026-04-04T14:31:48.999Z</time></trkpt><trkpt lat="39.19381830875807" lon="9.556002074049779"><ele>39.0</ele><time>2026-04-04T14:31:49.999Z</time></trkpt><trkpt lat="39.19364379426042" lon="9.556139948865912"><ele>37.0</ele><time>2026-04-04T14:31:50.999Z</time></trkpt><trkpt lat="39.19345559022675" lon="9.556291598668752"><ele>35.0</ele><time>2026-04-04T14:31:51.999Z</time></trkpt><trkpt lat="39.19325631829449" lon="9.55645173276269"><ele>32.0</ele><time>2026-04-04T14:31:52.999Z</time></trkpt><trkpt lat="39.193046912291294" lon="9.556618027311647"><ele>29.0</ele><time>2026-04-04T14:31:53.999Z</time></trkpt><trkpt lat="39.1928541348923" lon="9.55677233977923"><ele>29.0</ele><time>2026-04-04T14:31:54.999Z</time></trkpt><trkpt lat="39.19267057068326" lon="9.556918053644257"><ele>29.0</ele><time>2026-04-04T14:31:55.999Z</time></trkpt><trkpt lat="39.19248304598003" lon="9.557065301466595"><ele>29.0</ele><time>2026-04-04T14:31:56.999Z</time></trkpt><trkpt lat="39.192293579271016" lon="9.557210916610662"><ele>27.0</ele><time>2026-04-04T14:31:57.999Z</time></trkpt><trkpt lat="39.192103237433955" lon="9.557353663006593"><ele>25.0</ele><time>2026-04-04T14:31:58.999Z</time></trkpt><trkpt lat="39.19190267684056" lon="9.55748675037765"><ele>23.0</ele><time>2026-04-04T14:31:59.999Z</time></trkpt><trkpt lat="39.19169393005442" lon="9.557610833558511"><ele>24.5</ele><time>2026-04-04T14:32:00.999Z</time></trkpt><trkpt lat="39.191478043354955" lon="9.557714852252627"><ele>26.0</ele><time>2026-04-04T14:32:01.999Z</time></trkpt><trkpt lat="39.19125921111957" lon="9.557802567006108"><ele>22.0</ele><time>2026-04-04T14:32:02.999Z</time></trkpt><trkpt lat="39.1910360525799" lon="9.557872069617003"><ele>18.0</ele><time>2026-04-04T14:32:03.999Z</time></trkpt><trkpt lat="39.190808490999856" lon="9.557933890265346"><ele>18.0</ele><time>2026-04-04T14:32:04.999Z</time></trkpt><trkpt lat="39.19058126984889" lon="9.557983416173803"><ele>18.0</ele><time>2026-04-04T14:32:05.999Z</time></trkpt><trkpt lat="39.1903500447653" lon="9.558023116774526"><ele>18.0</ele><time>2026-04-04T14:32:06.999Z</time></trkpt><trkpt lat="39.190129053569805" lon="9.558062618432677"><ele>18.0</ele><time>2026-04-04T14:32:07.999Z</time></trkpt><trkpt lat="39.18991211693991" lon="9.558106090394208"><ele>18.0</ele><time>2026-04-04T14:32:09Z</time></trkpt><trkpt lat="39.18969445976076" lon="9.558154384301895"><ele>19.0</ele><time>2026-04-04T14:32:10Z</time></trkpt><trkpt lat="39.18947773860248" lon="9.558197611679184"><ele>20.0</ele><time>2026-04-04T14:32:11Z</time></trkpt><trkpt lat="39.189262983349224" lon="9.558234118613818"><ele>21.0</ele><time>2026-04-04T14:32:12Z</time></trkpt><trkpt lat="39.1890448403529" lon="9.558273707028814"><ele>21.333333333333332</ele><time>2026-04-04T14:32:13Z</time></trkpt><trkpt lat="39.188842201981025" lon="9.55830947634783"><ele>21.666666666666664</ele><time>2026-04-04T14:32:14Z</time></trkpt><trkpt lat="39.18864849300675" lon="9.558343340312826"><ele>22.0</ele><time>2026-04-04T14:32:15Z</time></trkpt><trkpt lat="39.188453101458755" lon="9.558385958903747"><ele>22.0</ele><time>2026-04-04T14:32:16Z</time></trkpt><trkpt lat="39.18826039081244" lon="9.558452938996009"><ele>22.0</ele><time>2026-04-04T14:32:17Z</time></trkpt><trkpt lat="39.18807616763708" lon="9.558549062550819"><ele>22.0</ele><time>2026-04-04T14:32:18Z</time></trkpt><trkpt lat="39.187905368863305" lon="9.558671719301744"><ele>21.333333333333332</ele><time>2026-04-04T14:32:19Z</time></trkpt><trkpt lat="39.187734006784254" lon="9.55882428590021"><ele>20.666666666666668</ele><time>2026-04-04T14:32:20Z</time></trkpt><trkpt lat="39.18756454893547" lon="9.559013306871949"><ele>20.0</ele><time>2026-04-04T14:32:21Z</time></trkpt><trkpt lat="39.187403536847235" lon="9.559217472048543"><ele>20.0</ele><time>2026-04-04T14:32:22Z</time></trkpt><trkpt lat="39.18723438053916" lon="9.559387185824773"><ele>20.0</ele><time>2026-04-04T14:32:23Z</time></trkpt><trkpt lat="39.187069567388185" lon="9.559547713411721"><ele>20.0</ele><time>2026-04-04T14:32:24Z</time></trkpt><trkpt lat="39.18689640331497" lon="9.559706266053128"><ele>18.666666666666668</ele><time>2026-04-04T14:32:25Z</time></trkpt><trkpt lat="39.18669360821415" lon="9.55980146013886"><ele>17.333333333333332</ele><time>2026-04-04T14:32:26Z</time></trkpt><trkpt lat="39.186485206746646" lon="9.559899699381527"><ele>16.0</ele><time>2026-04-04T14:32:27Z</time></trkpt><trkpt lat="39.18626792255377" lon="9.560014115625448"><ele>16.0</ele><time>2026-04-04T14:32:28Z</time></trkpt><trkpt lat="39.1860233076251" lon="9.560120395109351"><ele>16.0</ele><time>2026-04-04T14:32:29Z</time></trkpt><trkpt lat="39.185768002146524" lon="9.560238108313426"><ele>16.0</ele><time>2026-04-04T14:32:30Z</time></trkpt><trkpt lat="39.185517223346295" lon="9.560350736258231"><ele>16.0</ele><time>2026-04-04T14:32:31Z</time></trkpt><trkpt lat="39.185294411119045" lon="9.560448526699702"><ele>16.5</ele><time>2026-04-04T14:32:32Z</time></trkpt><trkpt lat="39.18507346042086" lon="9.560544643669978"><ele>17.0</ele><time>2026-04-04T14:32:33Z</time></trkpt><trkpt lat="39.184847043205814" lon="9.560630172907729"><ele>17.5</ele><time>2026-04-04T14:32:34Z</time></trkpt><trkpt lat="39.1846205816915" lon="9.560730890532954"><ele>18.0</ele><time>2026-04-04T14:32:35Z</time></trkpt><trkpt lat="39.184384955258395" lon="9.560835684202582"><ele>18.0</ele><time>2026-04-04T14:32:36Z</time></trkpt><trkpt lat="39.18413763564358" lon="9.560945436356018"><ele>18.0</ele><time>2026-04-04T14:32:37Z</time></trkpt><trkpt lat="39.18389322631185" lon="9.561055326658888"><ele>17.5</ele><time>2026-04-04T14:32:38Z</time></trkpt><trkpt lat="39.18367308369761" lon="9.561169784498203"><ele>17.0</ele><time>2026-04-04T14:32:39Z</time></trkpt><trkpt lat="39.18345439809385" lon="9.56125935365269"><ele>18.333333333333336</ele><time>2026-04-04T14:32:40Z</time></trkpt><trkpt lat="39.18323785905379" lon="9.561358254293857"><ele>19.666666666666668</ele><time>2026-04-04T14:32:41Z</time></trkpt><trkpt lat="39.183038446418564" lon="9.561452258666995"><ele>21.0</ele><time>2026-04-04T14:32:42Z</time></trkpt><trkpt lat="39.182856046190665" lon="9.561539785940418"><ele>21.666666666666668</ele><time>2026-04-04T14:32:43Z</time></trkpt><trkpt lat="39.182679422318024" lon="9.56161787149055"><ele>22.333333333333336</ele><time>2026-04-04T14:32:44Z</time></trkpt><trkpt lat="39.182504704745874" lon="9.561694771198653"><ele>23.0</ele><time>2026-04-04T14:32:45Z</time></trkpt><trkpt lat="39.18232055708419" lon="9.561779219812603"><ele>23.0</ele><time>2026-04-04T14:32:46Z</time></trkpt><trkpt lat="39.182126102699094" lon="9.561870407620187"><ele>23.0</ele><time>2026-04-04T14:32:47Z</time></trkpt><trkpt lat="39.181918141847554" lon="9.561944941768209"><ele>23.0</ele><time>2026-04-04T14:32:48Z</time></trkpt><trkpt lat="39.18171037571339" lon="9.562036654987443"><ele>23.666666666666668</ele><time>2026-04-04T14:32:49Z</time></trkpt><trkpt lat="39.18151192548003" lon="9.562117707618281"><ele>24.333333333333336</ele><time>2026-04-04T14:32:50Z</time></trkpt><trkpt lat="39.18133116592354" lon="9.562205686033018"><ele>25.0</ele><time>2026-04-04T14:32:51Z</time></trkpt><trkpt lat="39.18115214893922" lon="9.562264272589145"><ele>25.0</ele><time>2026-04-04T14:32:52Z</time></trkpt><trkpt lat="39.180975065532756" lon="9.562323864645785"><ele>25.0</ele><time>2026-04-04T14:32:53Z</time></trkpt><trkpt lat="39.18078938232155" lon="9.562391335439072"><ele>25.0</ele><time>2026-04-04T14:32:54Z</time></trkpt><trkpt lat="39.18059971985084" lon="9.5624662929293"><ele>23.5</ele><time>2026-04-04T14:32:55Z</time></trkpt><trkpt lat="39.18039406277461" lon="9.562560037321447"><ele>22.0</ele><time>2026-04-04T14:32:56Z</time></trkpt><trkpt lat="39.18017312778122" lon="9.56267684780663"><ele>22.0</ele><time>2026-04-04T14:32:57Z</time></trkpt><trkpt lat="39.179941784287024" lon="9.562806032140609"><ele>22.0</ele><time>2026-04-04T14:32:58Z</time></trkpt><trkpt lat="39.17970223637183" lon="9.562942908404242"><ele>21.0</ele><time>2026-04-04T14:32:59Z</time></trkpt><trkpt lat="39.179464233133686" lon="9.563072132234703"><ele>20.0</ele><time>2026-04-04T14:33:00Z</time></trkpt><trkpt lat="39.17924388127499" lon="9.563183910330944"><ele>20.0</ele><time>2026-04-04T14:33:00.999Z</time></trkpt><trkpt lat="39.17903089290099" lon="9.563295630169756"><ele>20.0</ele><time>2026-04-04T14:33:01.999Z</time></trkpt><trkpt lat="39.1788308243585" lon="9.563400751258644"><ele>20.0</ele><time>2026-04-04T14:33:02.999Z</time></trkpt><trkpt lat="39.178639043815146" lon="9.563483436551254"><ele>21.666666666666668</ele><time>2026-04-04T14:33:03.999Z</time></trkpt><trkpt lat="39.178444139995975" lon="9.563539096225396"><ele>23.333333333333336</ele><time>2026-04-04T14:33:04.999Z</time></trkpt><trkpt lat="39.17823235649583" lon="9.563572559353293"><ele>25.0</ele><time>2026-04-04T14:33:05.999Z</time></trkpt><trkpt lat="39.178005782148055" lon="9.563600041579488"><ele>25.0</ele><time>2026-04-04T14:33:06.999Z</time></trkpt><trkpt lat="39.17777932803851" lon="9.563623130556682"><ele>25.0</ele><time>2026-04-04T14:33:07.999Z</time></trkpt><trkpt lat="39.17754993453398" lon="9.563625476169868"><ele>25.0</ele><time>2026-04-04T14:33:08.999Z</time></trkpt><trkpt lat="39.1773356216432" lon="9.563607332408244"><ele>25.0</ele><time>2026-04-04T14:33:09.999Z</time></trkpt><trkpt lat="39.177126199358675" lon="9.563569968727158"><ele>25.0</ele><time>2026-04-04T14:33:10.999Z</time></trkpt><trkpt lat="39.17691104347513" lon="9.563524134006313"><ele>25.0</ele><time>2026-04-04T14:33:11.999Z</time></trkpt><trkpt lat="39.176691132413936" lon="9.563459324696174"><ele>25.0</ele><time>2026-04-04T14:33:12.999Z</time></trkpt><trkpt lat="39.17647751475081" lon="9.563377593417215"><ele>25.0</ele><time>2026-04-04T14:33:13.999Z</time></trkpt><trkpt lat="39.17626660160887" lon="9.563269778288262"><ele>21.5</ele><time>2026-04-04T14:33:14.999Z</time></trkpt><trkpt lat="39.176060408622" lon="9.563138801755814"><ele>18.0</ele><time>2026-04-04T14:33:15.999Z</time></trkpt><trkpt lat="39.17586212613439" lon="9.563002119387413"><ele>17.333333333333332</ele><time>2026-04-04T14:33:16.999Z</time></trkpt><trkpt lat="39.17567867171661" lon="9.562872410993947"><ele>16.666666666666664</ele><time>2026-04-04T14:33:17.999Z</time></trkpt><trkpt lat="39.17552129219288" lon="9.562730260465505"><ele>16.0</ele><time>2026-04-04T14:33:18.999Z</time></trkpt><trkpt lat="39.17536635880702" lon="9.562569718035613"><ele>17.666666666666664</ele><time>2026-04-04T14:33:19.999Z</time></trkpt><trkpt lat="39.17521751569495" lon="9.562388609442019"><ele>19.333333333333332</ele><time>2026-04-04T14:33:20.999Z</time></trkpt><trkpt lat="39.17506751151366" lon="9.562183232920951"><ele>21.0</ele><time>2026-04-04T14:33:21.999Z</time></trkpt><trkpt lat="39.17491778183256" lon="9.561956860597764"><ele>26.5</ele><time>2026-04-04T14:33:22.999Z</time></trkpt><trkpt lat="39.174767289030804" lon="9.561711278668865"><ele>32.0</ele><time>2026-04-04T14:33:23.999Z</time></trkpt><trkpt lat="39.17461503705209" lon="9.561453994448382"><ele>33.5</ele><time>2026-04-04T14:33:24.999Z</time></trkpt><trkpt lat="39.17445599011224" lon="9.561191130452244"><ele>35.0</ele><time>2026-04-04T14:33:25.999Z</time></trkpt><trkpt lat="39.17429619099924" lon="9.560931583758924"><ele>35.0</ele><time>2026-04-04T14:33:26.999Z</time></trkpt><trkpt lat="39.174134262434336" lon="9.560670682594301"><ele>35.0</ele><time>2026-04-04T14:33:27.999Z</time></trkpt><trkpt lat="39.173974482026196" lon="9.560410771919363"><ele>38.0</ele><time>2026-04-04T14:33:28.999Z</time></trkpt><trkpt lat="39.173815106994844" lon="9.560148285554538"><ele>41.0</ele><time>2026-04-04T14:33:29.999Z</time></trkpt><trkpt lat="39.17365982996467" lon="9.559897425726962"><ele>41.0</ele><time>2026-04-04T14:33:30.999Z</time></trkpt><trkpt lat="39.17352242462741" lon="9.559672422121436"><ele>41.0</ele><time>2026-04-04T14:33:31.999Z</time></trkpt><trkpt lat="39.17338877863912" lon="9.559451894826767"><ele>41.0</ele><time>2026-04-04T14:33:32.999Z</time></trkpt><trkpt lat="39.173254403730105" lon="9.559229322953135"><ele>45.5</ele><time>2026-04-04T14:33:33.999Z</time></trkpt><trkpt lat="39.17311192262519" lon="9.559005135894587"><ele>50.0</ele><time>2026-04-04T14:33:34.999Z</time></trkpt><trkpt lat="39.17295997819188" lon="9.55876965441327"><ele>50.5</ele><time>2026-04-04T14:33:35.999Z</time></trkpt><trkpt lat="39.17281046824362" lon="9.558524057570015"><ele>51.0</ele><time>2026-04-04T14:33:36.999Z</time></trkpt><trkpt lat="39.17265892200117" lon="9.558274849424754"><ele>51.0</ele><time>2026-04-04T14:33:37.999Z</time></trkpt><trkpt lat="39.17250302442637" lon="9.558021387762526"><ele>51.0</ele><time>2026-04-04T14:33:38.999Z</time></trkpt><trkpt lat="39.1723515231212" lon="9.557775949781892"><ele>54.66666666666667</ele><time>2026-04-04T14:33:39.999Z</time></trkpt><trkpt lat="39.1722160965367" lon="9.557568482574164"><ele>58.333333333333336</ele><time>2026-04-04T14:33:40.999Z</time></trkpt><trkpt lat="39.172087118758625" lon="9.557391628782216"><ele>62.0</ele><time>2026-04-04T14:33:41.999Z</time></trkpt><trkpt lat="39.17195634038029" lon="9.557255573805252"><ele>62.0</ele><time>2026-04-04T14:33:42.999Z</time></trkpt><trkpt lat="39.171817156120554" lon="9.557157641907594"><ele>62.0</ele><time>2026-04-04T14:33:43.999Z</time></trkpt><trkpt lat="39.171663905417056" lon="9.557091955959512"><ele>62.0</ele><time>2026-04-04T14:33:44.999Z</time></trkpt><trkpt lat="39.17151302438177" lon="9.557058300730949"><ele>63.66666666666667</ele><time>2026-04-04T14:33:45.999Z</time></trkpt><trkpt lat="39.17137077987977" lon="9.557055940728782"><ele>65.33333333333333</ele><time>2026-04-04T14:33:46.999Z</time></trkpt><trkpt lat="39.17121295007202" lon="9.55707535383219"><ele>67.0</ele><time>2026-04-04T14:33:47.999Z</time></trkpt><trkpt lat="39.17105486704421" lon="9.557134670635532"><ele>67.0</ele><time>2026-04-04T14:33:48.999Z</time></trkpt><trkpt lat="39.1709068218906" lon="9.557234283042442"><ele>67.0</ele><time>2026-04-04T14:33:49.999Z</time></trkpt><trkpt lat="39.17073196946771" lon="9.557367561379966"><ele>67.0</ele><time>2026-04-04T14:33:50.999Z</time></trkpt><trkpt lat="39.17056382504277" lon="9.557513563878146"><ele>67.0</ele><time>2026-04-04T14:33:51.999Z</time></trkpt><trkpt lat="39.170403880146004" lon="9.557645669437123"><ele>67.0</ele><time>2026-04-04T14:33:52.999Z</time></trkpt><trkpt lat="39.170252237092896" lon="9.557763015070856"><ele>67.0</ele><time>2026-04-04T14:33:53.999Z</time></trkpt><trkpt lat="39.17011424019702" lon="9.557870365640754"><ele>67.0</ele><time>2026-04-04T14:33:54.999Z</time></trkpt><trkpt lat="39.17000038739181" lon="9.557987656463496"><ele>67.0</ele><time>2026-04-04T14:33:55.999Z</time></trkpt><trkpt lat="39.16992314770172" lon="9.5581187633375"><ele>67.0</ele><time>2026-04-04T14:33:56.999Z</time></trkpt><trkpt lat="39.16989042408147" lon="9.55826447647968"><ele>67.0</ele><time>2026-04-04T14:33:57.999Z</time></trkpt><trkpt lat="39.16988052528231" lon="9.558432552330375"><ele>67.0</ele><time>2026-04-04T14:33:58.999Z</time></trkpt><trkpt lat="39.16990961125764" lon="9.55859975660118"><ele>67.0</ele><time>2026-04-04T14:33:59.999Z</time></trkpt><trkpt lat="39.169980913526054" lon="9.558741476880188"><ele>67.0</ele><time>2026-04-04T14:34:00.999Z</time></trkpt><trkpt lat="39.170084860626346" lon="9.558866840615076"><ele>67.0</ele><time>2026-04-04T14:34:01.999Z</time></trkpt><trkpt lat="39.17020764008576" lon="9.558988833967557"><ele>71.66666666666666</ele><time>2026-04-04T14:34:02.999Z</time></trkpt><trkpt lat="39.170325176843235" lon="9.559135174841046"><ele>76.33333333333333</ele><time>2026-04-04T14:34:03.999Z</time></trkpt><trkpt lat="39.17042716571226" lon="9.559320619978237"><ele>81.0</ele><time>2026-04-04T14:34:04.999Z</time></trkpt><trkpt lat="39.170500768383185" lon="9.559554287417187"><ele>78.33333333333333</ele><time>2026-04-04T14:34:05.999Z</time></trkpt><trkpt lat="39.17057951008284" lon="9.559762090946482"><ele>75.66666666666666</ele><time>2026-04-04T14:34:06.999Z</time></trkpt><trkpt lat="39.170647982402095" lon="9.559944801019157"><ele>73.0</ele><time>2026-04-04T14:34:07.999Z</time></trkpt><trkpt lat="39.17070587283236" lon="9.56010381488188"><ele>73.0</ele><time>2026-04-04T14:34:08.999Z</time></trkpt><trkpt lat="39.17071674065576" lon="9.560281121993652"><ele>73.0</ele><time>2026-04-04T14:34:09.999Z</time></trkpt><trkpt lat="39.17070807442882" lon="9.560470644933343"><ele>73.0</ele><time>2026-04-04T14:34:10.999Z</time></trkpt><trkpt lat="39.17066441359365" lon="9.560651301799936"><ele>73.0</ele><time>2026-04-04T14:34:11.999Z</time></trkpt><trkpt lat="39.17058159285645" lon="9.560801687871395"><ele>80.0</ele><time>2026-04-04T14:34:12.999Z</time></trkpt><trkpt lat="39.170471485416726" lon="9.560931245417446"><ele>87.0</ele><time>2026-04-04T14:34:14Z</time></trkpt><trkpt lat="39.170335798502094" lon="9.56104806127638"><ele>94.0</ele><time>2026-04-04T14:34:15Z</time></trkpt><trkpt lat="39.17017871559633" lon="9.56114762144882"><ele>93.66666666666666</ele><time>2026-04-04T14:34:16Z</time></trkpt><trkpt lat="39.17000074297717" lon="9.561231904641529"><ele>93.33333333333333</ele><time>2026-04-04T14:34:17Z</time></trkpt><trkpt lat="39.16980986547287" lon="9.56131507958784"><ele>93.0</ele><time>2026-04-04T14:34:18Z</time></trkpt><trkpt lat="39.169637557888514" lon="9.561378256197454"><ele>93.0</ele><time>2026-04-04T14:34:19Z</time></trkpt><trkpt lat="39.16947551650585" lon="9.56141002824423"><ele>93.0</ele><time>2026-04-04T14:34:20Z</time></trkpt><trkpt lat="39.16931029289229" lon="9.561405503946297"><ele>93.0</ele><time>2026-04-04T14:34:21Z</time></trkpt><trkpt lat="39.1691415697602" lon="9.561356456048618"><ele>95.33333333333334</ele><time>2026-04-04T14:34:22Z</time></trkpt><trkpt lat="39.16896780469919" lon="9.561267000391092"><ele>97.66666666666667</ele><time>2026-04-04T14:34:23Z</time></trkpt><trkpt lat="39.168787103806025" lon="9.561152159398949"><ele>100.0</ele><time>2026-04-04T14:34:24Z</time></trkpt><trkpt lat="39.16859957578083" lon="9.56103239116358"><ele>100.33333333333334</ele><time>2026-04-04T14:34:25Z</time></trkpt><trkpt lat="39.16842444901809" lon="9.560926718017733"><ele>100.66666666666666</ele><time>2026-04-04T14:34:26Z</time></trkpt><trkpt lat="39.16825048536384" lon="9.5608280635102"><ele>101.0</ele><time>2026-04-04T14:34:27Z</time></trkpt><trkpt lat="39.16808252620543" lon="9.56075469384485"><ele>102.66666666666666</ele><time>2026-04-04T14:34:28Z</time></trkpt><trkpt lat="39.16791578683229" lon="9.560727547830725"><ele>104.33333333333334</ele><time>2026-04-04T14:34:29Z</time></trkpt><trkpt lat="39.16773969768742" lon="9.560738691680308"><ele>106.0</ele><time>2026-04-04T14:34:30Z</time></trkpt><trkpt lat="39.167572257840696" lon="9.560786397494292"><ele>106.0</ele><time>2026-04-04T14:34:31Z</time></trkpt><trkpt lat="39.167419906220715" lon="9.560876352682326"><ele>106.0</ele><time>2026-04-04T14:34:31.999Z</time></trkpt><trkpt lat="39.167281634090976" lon="9.561010152029178"><ele>106.0</ele><time>2026-04-04T14:34:32.999Z</time></trkpt><trkpt lat="39.16714679287216" lon="9.56118354529535"><ele>110.0</ele><time>2026-04-04T14:34:33.999Z</time></trkpt><trkpt lat="39.16700892280391" lon="9.561377868746135"><ele>114.0</ele><time>2026-04-04T14:34:34.999Z</time></trkpt><trkpt lat="39.16685697894987" lon="9.561576709885303"><ele>118.0</ele><time>2026-04-04T14:34:35.999Z</time></trkpt><trkpt lat="39.16669997301852" lon="9.561767936546309"><ele>118.0</ele><time>2026-04-04T14:34:36.999Z</time></trkpt><trkpt lat="39.16655295342496" lon="9.561921288084607"><ele>118.0</ele><time>2026-04-04T14:34:37.999Z</time></trkpt><trkpt lat="39.16639729133829" lon="9.56204151600176"><ele>118.0</ele><time>2026-04-04T14:34:38.999Z</time></trkpt><trkpt lat="39.16622938268238" lon="9.562133918499368"><ele>120.0</ele><time>2026-04-04T14:34:39.999Z</time></trkpt><trkpt lat="39.166045027361996" lon="9.562199253994578"><ele>122.0</ele><time>2026-04-04T14:34:40.999Z</time></trkpt><trkpt lat="39.16584167561089" lon="9.562247484403573"><ele>124.0</ele><time>2026-04-04T14:34:41.999Z</time></trkpt><trkpt lat="39.165619981339646" lon="9.562291172872946"><ele>124.0</ele><time>2026-04-04T14:34:42.999Z</time></trkpt><trkpt lat="39.16538406881347" lon="9.56233661293542"><ele>124.0</ele><time>2026-04-04T14:34:43.999Z</time></trkpt><trkpt lat="39.16514147966467" lon="9.562382620213668"><ele>124.0</ele><time>2026-04-04T14:34:44.999Z</time></trkpt><trkpt lat="39.16489449938316" lon="9.562428284944438"><ele>124.0</ele><time>2026-04-04T14:34:45.999Z</time></trkpt><trkpt lat="39.16465058453385" lon="9.562471917184286"><ele>126.5</ele><time>2026-04-04T14:34:46.999Z</time></trkpt><trkpt lat="39.16437736522" lon="9.562533719494267"><ele>129.0</ele><time>2026-04-04T14:34:47.999Z</time></trkpt><trkpt lat="39.16414807375593" lon="9.562566945720434"><ele>134.5</ele><time>2026-04-04T14:34:48.999Z</time></trkpt><trkpt lat="39.16391389090246" lon="9.562609393801106"><ele>140.0</ele><time>2026-04-04T14:34:49.999Z</time></trkpt><trkpt lat="39.163679759009376" lon="9.56264672947403"><ele>140.0</ele><time>2026-04-04T14:34:50.999Z</time></trkpt><trkpt lat="39.163440286683326" lon="9.562687088633153"><ele>140.0</ele><time>2026-04-04T14:34:51.999Z</time></trkpt><trkpt lat="39.16319818580067" lon="9.562732293095825"><ele>145.0</ele><time>2026-04-04T14:34:52.999Z</time></trkpt><trkpt lat="39.16296333392935" lon="9.562771177566281"><ele>150.0</ele><time>2026-04-04T14:34:53.999Z</time></trkpt><trkpt lat="39.16272932624922" lon="9.562819283868333"><ele>146.33333333333334</ele><time>2026-04-04T14:34:54.999Z</time></trkpt><trkpt lat="39.16251429097451" lon="9.562869158006901"><ele>142.66666666666669</ele><time>2026-04-04T14:34:55.999Z</time></trkpt><trkpt lat="39.162319498142416" lon="9.562903980861456"><ele>139.0</ele><time>2026-04-04T14:34:56.999Z</time></trkpt><trkpt lat="39.162122839626676" lon="9.562932920260037"><ele>139.0</ele><time>2026-04-04T14:34:57.999Z</time></trkpt><trkpt lat="39.16192514752787" lon="9.562960773454748"><ele>139.0</ele><time>2026-04-04T14:34:58.999Z</time></trkpt><trkpt lat="39.16173174916796" lon="9.562991245178315"><ele>139.0</ele><time>2026-04-04T14:34:59.999Z</time></trkpt><trkpt lat="39.16155912598839" lon="9.563025495251434"><ele>139.25</ele><time>2026-04-04T14:35:00.999Z</time></trkpt><trkpt lat="39.16140091468045" lon="9.563056385885291"><ele>139.5</ele><time>2026-04-04T14:35:01.999Z</time></trkpt><trkpt lat="39.16126005788293" lon="9.563077490510087"><ele>139.75</ele><time>2026-04-04T14:35:02.999Z</time></trkpt><trkpt lat="39.16113861059309" lon="9.56309326157155"><ele>140.0</ele><time>2026-04-04T14:35:03.999Z</time></trkpt><trkpt lat="39.16101910468435" lon="9.563090992756042"><ele>140.0</ele><time>2026-04-04T14:35:04.999Z</time></trkpt><trkpt lat="39.16091307147606" lon="9.56302759686852"><ele>140.0</ele><time>2026-04-04T14:35:05.999Z</time></trkpt><trkpt lat="39.160806214789105" lon="9.562951285951492"><ele>140.0</ele><time>2026-04-04T14:35:06.999Z</time></trkpt><trkpt lat="39.160721453950984" lon="9.562841743182865"><ele>140.0</ele><time>2026-04-04T14:35:07.999Z</time></trkpt><trkpt lat="39.1606562197872" lon="9.562715894826495"><ele>139.66666666666666</ele><time>2026-04-04T14:35:08.999Z</time></trkpt><trkpt lat="39.16060462112347" lon="9.562556546709775"><ele>139.33333333333334</ele><time>2026-04-04T14:35:09.999Z</time></trkpt><trkpt lat="39.160530698704655" lon="9.562379829286082"><ele>139.0</ele><time>2026-04-04T14:35:10.999Z</time></trkpt><trkpt lat="39.16047254164505" lon="9.562164898833252"><ele>141.0</ele><time>2026-04-04T14:35:11.999Z</time></trkpt><trkpt lat="39.16040277551265" lon="9.561927180409787"><ele>143.0</ele><time>2026-04-04T14:35:12.999Z</time></trkpt><trkpt lat="39.1603174386054" lon="9.561668114841913"><ele>145.0</ele><time>2026-04-04T14:35:13.999Z</time></trkpt><trkpt lat="39.1602419913161" lon="9.56144052364687"><ele>145.0</ele><time>2026-04-04T14:35:14.999Z</time></trkpt><trkpt lat="39.160183992060965" lon="9.56126205566704"><ele>145.0</ele><time>2026-04-04T14:35:15.999Z</time></trkpt><trkpt lat="39.16011517094857" lon="9.56111786418027"><ele>145.0</ele><time>2026-04-04T14:35:16.999Z</time></trkpt><trkpt lat="39.160022092605445" lon="9.560999926927163"><ele>145.0</ele><time>2026-04-04T14:35:17.999Z</time></trkpt><trkpt lat="39.15989946998899" lon="9.560918266957481"><ele>150.66666666666669</ele><time>2026-04-04T14:35:18.999Z</time></trkpt><trkpt lat="39.159753715790124" lon="9.560864435523875"><ele>156.33333333333334</ele><time>2026-04-04T14:35:19.999Z</time></trkpt><trkpt lat="39.159594737540665" lon="9.560839967781863"><ele>162.0</ele><time>2026-04-04T14:35:20.999Z</time></trkpt><trkpt lat="39.15942781267285" lon="9.560867588485342"><ele>162.0</ele><time>2026-04-04T14:35:21.999Z</time></trkpt><trkpt lat="39.159258220730656" lon="9.56092636130151"><ele>162.0</ele><time>2026-04-04T14:35:22.999Z</time></trkpt><trkpt lat="39.159087792737935" lon="9.560982761212694"><ele>162.0</ele><time>2026-04-04T14:35:23.999Z</time></trkpt><trkpt lat="39.15891093597476" lon="9.56103368306105"><ele>166.33333333333334</ele><time>2026-04-04T14:35:24.999Z</time></trkpt><trkpt lat="39.15872978124869" lon="9.561077452403872"><ele>170.66666666666669</ele><time>2026-04-04T14:35:25.999Z</time></trkpt><trkpt lat="39.1585554629296" lon="9.561121342870287"><ele>175.0</ele><time>2026-04-04T14:35:26.999Z</time></trkpt><trkpt lat="39.15840601814847" lon="9.561162723257006"><ele>175.0</ele><time>2026-04-04T14:35:27.999Z</time></trkpt><trkpt lat="39.15827791605846" lon="9.561198588576884"><ele>175.0</ele><time>2026-04-04T14:35:28.999Z</time></trkpt><trkpt lat="39.15818462361191" lon="9.561222045226643"><ele>175.0</ele><time>2026-04-04T14:35:29.999Z</time></trkpt><trkpt lat="39.1581205699432" lon="9.561237762459925"><ele>175.0</ele><time>2026-04-04T14:35:30.999Z</time></trkpt><trkpt lat="39.15801294101212" lon="9.561253852477009"><ele>175.0</ele><time>2026-04-04T14:35:32.999Z</time></trkpt><trkpt lat="39.15791479354734" lon="9.561253496118065"><ele>175.6</ele><time>2026-04-04T14:35:34.999Z</time></trkpt><trkpt lat="39.15779046231646" lon="9.56122831606586"><ele>176.2</ele><time>2026-04-04T14:35:36.999Z</time></trkpt><trkpt lat="39.157681401975495" lon="9.561192432238617"><ele>176.8</ele><time>2026-04-04T14:35:38.999Z</time></trkpt><trkpt lat="39.157604704801756" lon="9.561156918825455"><ele>177.4</ele><time>2026-04-04T14:35:40.999Z</time></trkpt><trkpt lat="39.157540638812264" lon="9.561118254970268"><ele>178.0</ele><time>2026-04-04T14:35:43.999Z</time></trkpt><trkpt lat="39.157482336597695" lon="9.56107637537183"><ele>178.0</ele><time>2026-04-04T14:40:31.998Z</time></trkpt><trkpt lat="39.15742297638152" lon="9.561033301197241"><ele>178.0</ele><time>2026-04-04T14:40:57Z</time></trkpt><trkpt lat="39.15736713964365" lon="9.560992783768247"><ele>178.0</ele><time>2026-04-04T14:41:06Z</time></trkpt><trkpt lat="39.157299809679216" lon="9.561133876333866"><ele>178.0</ele><time>2026-04-04T14:41:07Z</time></trkpt><trkpt lat="39.15724121291628" lon="9.561098708779713"><ele>178.0</ele><time>2026-04-04T14:41:20Z</time></trkpt><trkpt lat="39.15718002584958" lon="9.561043816299351"><ele>178.0</ele><time>2026-04-04T14:41:29Z</time></trkpt><trkpt lat="39.15711920510246" lon="9.56101654189738"><ele>176.85714285714283</ele><time>2026-04-04T14:42:03Z</time></trkpt><trkpt lat="39.15708627283469" lon="9.560944603394875"><ele>175.71428571428572</ele><time>2026-04-04T14:42:18Z</time></trkpt><trkpt lat="39.157100099787506" lon="9.561041801583292"><ele>174.57142857142856</ele><time>2026-04-04T14:44:35Z</time></trkpt><trkpt lat="39.15703281116584" lon="9.561028306125191"><ele>173.42857142857142</ele><time>2026-04-04T14:51:31Z</time></trkpt><trkpt lat="39.156962315269865" lon="9.561027567298652"><ele>172.28571428571428</ele><time>2026-04-04T14:51:38Z</time></trkpt><trkpt lat="39.15704270291896" lon="9.561037797176652"><ele>171.14285714285714</ele><time>2026-04-04T14:53:04.999Z</time></trkpt><trkpt lat="39.15710633466101" lon="9.561042484409946"><ele>170.0</ele><time>2026-04-04T14:53:12Z</time></trkpt><trkpt lat="39.15717537771794" lon="9.56107061832783"><ele>170.0</ele><time>2026-04-04T14:53:19Z</time></trkpt><trkpt lat="39.15723130769226" lon="9.561120579614423"><ele>170.0</ele><time>2026-04-04T14:53:25Z</time></trkpt><trkpt lat="39.157296518882646" lon="9.561162857987593"><ele>170.0</ele><time>2026-04-04T14:53:32Z</time></trkpt><trkpt lat="39.1573570524573" lon="9.561207685012047"><ele>170.0</ele><time>2026-04-04T14:53:39Z</time></trkpt><trkpt lat="39.157410301394215" lon="9.561257826892536"><ele>170.0</ele><time>2026-04-04T14:53:47Z</time></trkpt><trkpt lat="39.15736566558973" lon="9.561187152626108"><ele>170.0</ele><time>2026-04-04T14:56:29.999Z</time></trkpt><trkpt lat="39.157306532971525" lon="9.561142384475497"><ele>170.0</ele><time>2026-04-04T14:56:35.999Z</time></trkpt><trkpt lat="39.157251693118994" lon="9.56109961191164"><ele>170.0</ele><time>2026-04-04T14:56:40.999Z</time></trkpt><trkpt lat="39.15719614862979" lon="9.561052523792895"><ele>170.0</ele><time>2026-04-04T14:56:46.999Z</time></trkpt><trkpt lat="39.157145563280366" lon="9.560988969842036"><ele>170.0</ele><time>2026-04-04T14:56:53.999Z</time></trkpt><trkpt lat="39.1571605030499" lon="9.561072673114262"><ele>170.0</ele><time>2026-04-04T14:58:03Z</time></trkpt><trkpt lat="39.15721884164951" lon="9.561110959680525"><ele>170.0</ele><time>2026-04-04T14:58:08Z</time></trkpt><trkpt lat="39.15728587668858" lon="9.561160713617825"><ele>170.0</ele><time>2026-04-04T14:58:14Z</time></trkpt><trkpt lat="39.15734192363078" lon="9.561199279249529"><ele>170.0</ele><time>2026-04-04T14:58:19Z</time></trkpt><trkpt lat="39.157404899778825" lon="9.56125031112969"><ele>170.0</ele><time>2026-04-04T14:58:25Z</time></trkpt><trkpt lat="39.15745634936212" lon="9.56117121528444"><ele>170.0</ele><time>2026-04-04T15:01:35Z</time></trkpt><trkpt lat="39.15739648864225" lon="9.561100880583457"><ele>170.0</ele><time>2026-04-04T15:01:37Z</time></trkpt><trkpt lat="39.157322419221444" lon="9.561062803659206"><ele>170.0</ele><time>2026-04-04T15:01:39Z</time></trkpt><trkpt lat="39.157244381246045" lon="9.561016295699112"><ele>170.0</ele><time>2026-04-04T15:01:41Z</time></trkpt><trkpt lat="39.15716958889331" lon="9.560961336858428"><ele>170.0</ele><time>2026-04-04T15:01:43Z</time></trkpt><trkpt lat="39.15709709546423" lon="9.5608388663793"><ele>170.0</ele><time>2026-04-04T15:01:45Z</time></trkpt><trkpt lat="39.15704556991374" lon="9.560776935531228"><ele>170.0</ele><time>2026-04-04T15:01:46Z</time></trkpt><trkpt lat="39.15698674711889" lon="9.5607260092045"><ele>170.0</ele><time>2026-04-04T15:01:47Z</time></trkpt><trkpt lat="39.15692353205765" lon="9.560672205081696"><ele>170.0</ele><time>2026-04-04T15:01:48Z</time></trkpt><trkpt lat="39.156861732953864" lon="9.560616751613136"><ele>170.0</ele><time>2026-04-04T15:01:49Z</time></trkpt><trkpt lat="39.15680817573152" lon="9.560562156688857"><ele>170.0</ele><time>2026-04-04T15:01:50Z</time></trkpt><trkpt lat="39.15675838836454" lon="9.560509050558442"><ele>170.0</ele><time>2026-04-04T15:01:51Z</time></trkpt><trkpt lat="39.156676750732025" lon="9.560396974863371"><ele>170.0</ele><time>2026-04-04T15:01:53Z</time></trkpt><trkpt lat="39.156632959115406" lon="9.56032451524927"><ele>170.0</ele><time>2026-04-04T15:01:54Z</time></trkpt><trkpt lat="39.1565873440848" lon="9.560233357465297"><ele>170.0</ele><time>2026-04-04T15:01:55Z</time></trkpt><trkpt lat="39.15655479503514" lon="9.560121365903713"><ele>170.0</ele><time>2026-04-04T15:01:56Z</time></trkpt><trkpt lat="39.156536527540176" lon="9.55998616222098"><ele>170.0</ele><time>2026-04-04T15:01:57Z</time></trkpt><trkpt lat="39.15653058123159" lon="9.559844808313036"><ele>170.0</ele><time>2026-04-04T15:01:58Z</time></trkpt><trkpt lat="39.156532178701454" lon="9.559693848480611"><ele>170.0</ele><time>2026-04-04T15:01:59Z</time></trkpt><trkpt lat="39.156540032894824" lon="9.5595437432487"><ele>170.0</ele><time>2026-04-04T15:02:00Z</time></trkpt><trkpt lat="39.15654104688928" lon="9.559383729007227"><ele>170.0</ele><time>2026-04-04T15:02:01Z</time></trkpt><trkpt lat="39.15653034801086" lon="9.55920233051948"><ele>167.75</ele><time>2026-04-04T15:02:02Z</time></trkpt><trkpt lat="39.15649637351989" lon="9.559031212896137"><ele>165.5</ele><time>2026-04-04T15:02:03Z</time></trkpt><trkpt lat="39.15643270536908" lon="9.558888314869181"><ele>163.25</ele><time>2026-04-04T15:02:04Z</time></trkpt><trkpt lat="39.15634516946591" lon="9.558773994509595"><ele>161.0</ele><time>2026-04-04T15:02:05Z</time></trkpt><trkpt lat="39.15623374938798" lon="9.558700005664463"><ele>161.0</ele><time>2026-04-04T15:02:06Z</time></trkpt><trkpt lat="39.15610296283926" lon="9.558660809333075"><ele>161.0</ele><time>2026-04-04T15:02:07Z</time></trkpt><trkpt lat="39.15596273131038" lon="9.558662037918848"><ele>161.0</ele><time>2026-04-04T15:02:08Z</time></trkpt><trkpt lat="39.155814062330954" lon="9.558696882071242"><ele>161.0</ele><time>2026-04-04T15:02:08.999Z</time></trkpt><trkpt lat="39.15565556196904" lon="9.558755193462645"><ele>159.33333333333331</ele><time>2026-04-04T15:02:09.999Z</time></trkpt><trkpt lat="39.155475128294654" lon="9.55881830350628"><ele>157.66666666666666</ele><time>2026-04-04T15:02:10.999Z</time></trkpt><trkpt lat="39.155281353188734" lon="9.55887446704815"><ele>156.0</ele><time>2026-04-04T15:02:11.999Z</time></trkpt><trkpt lat="39.15509955887744" lon="9.558923052576253"><ele>156.0</ele><time>2026-04-04T15:02:12.999Z</time></trkpt><trkpt lat="39.15491362211303" lon="9.558982913554136"><ele>156.0</ele><time>2026-04-04T15:02:13.999Z</time></trkpt><trkpt lat="39.154710910554186" lon="9.559070722460678"><ele>156.0</ele><time>2026-04-04T15:02:14.999Z</time></trkpt><trkpt lat="39.15450195140478" lon="9.559186833097014"><ele>160.5</ele><time>2026-04-04T15:02:15.999Z</time></trkpt><trkpt lat="39.15428782795375" lon="9.5593109893984"><ele>165.0</ele><time>2026-04-04T15:02:16.999Z</time></trkpt><trkpt lat="39.15408534539346" lon="9.559426782458061"><ele>159.66666666666666</ele><time>2026-04-04T15:02:17.999Z</time></trkpt><trkpt lat="39.15388196380416" lon="9.559539087313539"><ele>154.33333333333331</ele><time>2026-04-04T15:02:18.999Z</time></trkpt><trkpt lat="39.153675468226915" lon="9.55965046129942"><ele>149.0</ele><time>2026-04-04T15:02:19.999Z</time></trkpt><trkpt lat="39.153464252667824" lon="9.559763577958817"><ele>149.0</ele><time>2026-04-04T15:02:20.999Z</time></trkpt><trkpt lat="39.153268194858164" lon="9.55986784646292"><ele>149.0</ele><time>2026-04-04T15:02:21.999Z</time></trkpt><trkpt lat="39.15308565020327" lon="9.559967364304153"><ele>149.0</ele><time>2026-04-04T15:02:22.999Z</time></trkpt><trkpt lat="39.152932035893635" lon="9.560052582922797"><ele>149.25</ele><time>2026-04-04T15:02:23.999Z</time></trkpt><trkpt lat="39.1527985880466" lon="9.560123834977427"><ele>149.5</ele><time>2026-04-04T15:02:24.999Z</time></trkpt><trkpt lat="39.15266943486782" lon="9.560169602832248"><ele>149.75</ele><time>2026-04-04T15:02:25.999Z</time></trkpt><trkpt lat="39.15254090433123" lon="9.560172051115428"><ele>150.0</ele><time>2026-04-04T15:02:26.999Z</time></trkpt><trkpt lat="39.15243614084422" lon="9.560125551279697"><ele>145.25</ele><time>2026-04-04T15:02:27.999Z</time></trkpt><trkpt lat="39.15235196104258" lon="9.560028478711182"><ele>140.5</ele><time>2026-04-04T15:02:28.999Z</time></trkpt><trkpt lat="39.15228445268505" lon="9.559885084818827"><ele>135.75</ele><time>2026-04-04T15:02:29.999Z</time></trkpt><trkpt lat="39.15223054609144" lon="9.559698466242338"><ele>131.0</ele><time>2026-04-04T15:02:30.999Z</time></trkpt><trkpt lat="39.15217126190665" lon="9.559485970632672"><ele>131.0</ele><time>2026-04-04T15:02:31.999Z</time></trkpt><trkpt lat="39.15209334245341" lon="9.559258836647107"><ele>131.0</ele><time>2026-04-04T15:02:32.999Z</time></trkpt><trkpt lat="39.152000908180675" lon="9.559030113189577"><ele>131.0</ele><time>2026-04-04T15:02:33.999Z</time></trkpt><trkpt lat="39.15191169114832" lon="9.558816487398651"><ele>135.0</ele><time>2026-04-04T15:02:34.999Z</time></trkpt><trkpt lat="39.15181461128243" lon="9.558603951914769"><ele>139.0</ele><time>2026-04-04T15:02:35.999Z</time></trkpt><trkpt lat="39.151709308620354" lon="9.558389453975943"><ele>143.0</ele><time>2026-04-04T15:02:36.999Z</time></trkpt><trkpt lat="39.1515923169749" lon="9.558161286208566"><ele>141.66666666666666</ele><time>2026-04-04T15:02:37.999Z</time></trkpt><trkpt lat="39.15148555368769" lon="9.557951943861116"><ele>140.33333333333334</ele><time>2026-04-04T15:02:38.999Z</time></trkpt><trkpt lat="39.15139411108975" lon="9.557764215016764"><ele>139.0</ele><time>2026-04-04T15:02:39.999Z</time></trkpt><trkpt lat="39.151309406692576" lon="9.557591745157243"><ele>139.0</ele><time>2026-04-04T15:02:40.999Z</time></trkpt><trkpt lat="39.151233096208294" lon="9.557449391440517"><ele>139.0</ele><time>2026-04-04T15:02:41.999Z</time></trkpt><trkpt lat="39.15114399759064" lon="9.557342020178337"><ele>139.0</ele><time>2026-04-04T15:02:42.999Z</time></trkpt><trkpt lat="39.151032738506125" lon="9.557269941091548"><ele>139.0</ele><time>2026-04-04T15:02:43.999Z</time></trkpt><trkpt lat="39.150906945764014" lon="9.557237899745871"><ele>139.0</ele><time>2026-04-04T15:02:44.999Z</time></trkpt><trkpt lat="39.15076858890144" lon="9.557251136496323"><ele>139.0</ele><time>2026-04-04T15:02:45.999Z</time></trkpt><trkpt lat="39.1506274344229" lon="9.55731496238701"><ele>139.0</ele><time>2026-04-04T15:02:46.999Z</time></trkpt><trkpt lat="39.15049602489497" lon="9.557421836749182"><ele>139.0</ele><time>2026-04-04T15:02:47.999Z</time></trkpt><trkpt lat="39.15036730286923" lon="9.55755609884989"><ele>139.66666666666669</ele><time>2026-04-04T15:02:48.999Z</time></trkpt><trkpt lat="39.15022609706835" lon="9.55770468522255"><ele>140.33333333333334</ele><time>2026-04-04T15:02:49.999Z</time></trkpt><trkpt lat="39.150064663846884" lon="9.557852012050105"><ele>141.0</ele><time>2026-04-04T15:02:50.999Z</time></trkpt><trkpt lat="39.149895131434356" lon="9.558005276144803"><ele>138.0</ele><time>2026-04-04T15:02:51.999Z</time></trkpt><trkpt lat="39.14974206426023" lon="9.558145638313833"><ele>135.0</ele><time>2026-04-04T15:02:52.999Z</time></trkpt><trkpt lat="39.14960177059563" lon="9.558267016193945"><ele>132.0</ele><time>2026-04-04T15:02:53.999Z</time></trkpt><trkpt lat="39.14946415410322" lon="9.558392201973573"><ele>132.0</ele><time>2026-04-04T15:02:54.999Z</time></trkpt><trkpt lat="39.14934459313078" lon="9.558495751803159"><ele>132.0</ele><time>2026-04-04T15:02:55.999Z</time></trkpt><trkpt lat="39.14922173332912" lon="9.558572609050785"><ele>132.0</ele><time>2026-04-04T15:02:56.999Z</time></trkpt><trkpt lat="39.149085484280675" lon="9.558638271895534"><ele>132.0</ele><time>2026-04-04T15:02:57.999Z</time></trkpt><trkpt lat="39.14893577209609" lon="9.558685189076765"><ele>124.66666666666666</ele><time>2026-04-04T15:02:58.999Z</time></trkpt><trkpt lat="39.14878278267286" lon="9.558735913723465"><ele>117.33333333333333</ele><time>2026-04-04T15:02:59.999Z</time></trkpt><trkpt lat="39.14862739104927" lon="9.558782636338833"><ele>110.0</ele><time>2026-04-04T15:03:00.999Z</time></trkpt><trkpt lat="39.14847672489875" lon="9.558826118459628"><ele>110.0</ele><time>2026-04-04T15:03:01.999Z</time></trkpt><trkpt lat="39.14833779166393" lon="9.558872852211225"><ele>110.0</ele><time>2026-04-04T15:03:02.999Z</time></trkpt><trkpt lat="39.14820148953508" lon="9.55891953558727"><ele>110.0</ele><time>2026-04-04T15:03:03.999Z</time></trkpt><trkpt lat="39.148052643142194" lon="9.558959469477633"><ele>110.0</ele><time>2026-04-04T15:03:04.999Z</time></trkpt><trkpt lat="39.14788488790329" lon="9.558975593584366"><ele>109.66666666666666</ele><time>2026-04-04T15:03:05.999Z</time></trkpt><trkpt lat="39.14768920661719" lon="9.558960925407376"><ele>109.33333333333334</ele><time>2026-04-04T15:03:06.999Z</time></trkpt><trkpt lat="39.14748267799386" lon="9.558932696561127"><ele>109.0</ele><time>2026-04-04T15:03:07.999Z</time></trkpt><trkpt lat="39.14729219499428" lon="9.55890561441841"><ele>108.33333333333334</ele><time>2026-04-04T15:03:08.999Z</time></trkpt><trkpt lat="39.1470961567953" lon="9.558892267426396"><ele>107.66666666666666</ele><time>2026-04-04T15:03:09.999Z</time></trkpt><trkpt lat="39.14689506610928" lon="9.558877901369456"><ele>107.0</ele><time>2026-04-04T15:03:10.999Z</time></trkpt><trkpt lat="39.146698673677264" lon="9.558866291072382"><ele>113.5</ele><time>2026-04-04T15:03:11.999Z</time></trkpt><trkpt lat="39.1465097317524" lon="9.558863427164662"><ele>120.0</ele><time>2026-04-04T15:03:12.999Z</time></trkpt><trkpt lat="39.146313125233945" lon="9.559123309278016"><ele>120.0</ele><time>2026-04-04T15:03:13.999Z</time></trkpt><trkpt lat="39.14612930402608" lon="9.559257956606467"><ele>120.0</ele><time>2026-04-04T15:03:14.999Z</time></trkpt><trkpt lat="39.14595503559233" lon="9.559408682313025"><ele>120.0</ele><time>2026-04-04T15:03:15.999Z</time></trkpt><trkpt lat="39.14579712994428" lon="9.55955052560614"><ele>115.66666666666666</ele><time>2026-04-04T15:03:16.999Z</time></trkpt><trkpt lat="39.14565158920768" lon="9.559677297986992"><ele>111.33333333333333</ele><time>2026-04-04T15:03:17.999Z</time></trkpt><trkpt lat="39.14550934234222" lon="9.559793890470537"><ele>107.0</ele><time>2026-04-04T15:03:18.999Z</time></trkpt><trkpt lat="39.14537395121279" lon="9.559899028582443"><ele>107.0</ele><time>2026-04-04T15:03:19.999Z</time></trkpt><trkpt lat="39.145242850920546" lon="9.559986901549072"><ele>107.0</ele><time>2026-04-04T15:03:20.999Z</time></trkpt><trkpt lat="39.14511120578753" lon="9.560053893625227"><ele>107.0</ele><time>2026-04-04T15:03:21.999Z</time></trkpt><trkpt lat="39.14497008799752" lon="9.560103240765214"><ele>107.0</ele><time>2026-04-04T15:03:22.999Z</time></trkpt><trkpt lat="39.14481577994673" lon="9.56013505984559"><ele>109.0</ele><time>2026-04-04T15:03:23.999Z</time></trkpt><trkpt lat="39.14465174507838" lon="9.560150886024287"><ele>111.0</ele><time>2026-04-04T15:03:24.999Z</time></trkpt><trkpt lat="39.144479726856105" lon="9.560164819479922"><ele>113.0</ele><time>2026-04-04T15:03:25.999Z</time></trkpt><trkpt lat="39.14432681811468" lon="9.560207121704124"><ele>113.0</ele><time>2026-04-04T15:03:26.999Z</time></trkpt><trkpt lat="39.14417937025018" lon="9.560301090779673"><ele>113.0</ele><time>2026-04-04T15:03:27.999Z</time></trkpt><trkpt lat="39.144009775236555" lon="9.560444131156585"><ele>113.0</ele><time>2026-04-04T15:03:28.999Z</time></trkpt><trkpt lat="39.14382901963388" lon="9.560617130687413"><ele>105.5</ele><time>2026-04-04T15:03:29.999Z</time></trkpt><trkpt lat="39.1436162037386" lon="9.560797115366569"><ele>98.0</ele><time>2026-04-04T15:03:30.999Z</time></trkpt><trkpt lat="39.14339442795178" lon="9.56096466317543"><ele>93.66666666666666</ele><time>2026-04-04T15:03:31.999Z</time></trkpt><trkpt lat="39.14319242323462" lon="9.56110374901467"><ele>89.33333333333333</ele><time>2026-04-04T15:03:32.999Z</time></trkpt><trkpt lat="39.143004938974904" lon="9.561232733531947"><ele>85.0</ele><time>2026-04-04T15:03:33.999Z</time></trkpt><trkpt lat="39.14283139219924" lon="9.561364344593349"><ele>85.0</ele><time>2026-04-04T15:03:34.999Z</time></trkpt><trkpt lat="39.1426757368883" lon="9.561489599568437"><ele>85.0</ele><time>2026-04-04T15:03:35.999Z</time></trkpt><trkpt lat="39.14254335749293" lon="9.561600155221765"><ele>85.0</ele><time>2026-04-04T15:03:36.999Z</time></trkpt><trkpt lat="39.142423760304176" lon="9.561693566507065"><ele>81.75</ele><time>2026-04-04T15:03:37.999Z</time></trkpt><trkpt lat="39.14230557076966" lon="9.561745859589008"><ele>78.5</ele><time>2026-04-04T15:03:38.999Z</time></trkpt><trkpt lat="39.14218570250542" lon="9.561754530877582"><ele>75.25</ele><time>2026-04-04T15:03:39.999Z</time></trkpt><trkpt lat="39.14206531869014" lon="9.561729811039953"><ele>72.0</ele><time>2026-04-04T15:03:40.999Z</time></trkpt><trkpt lat="39.14195411649755" lon="9.561655841084487"><ele>72.0</ele><time>2026-04-04T15:03:41.999Z</time></trkpt><trkpt lat="39.14186800499889" lon="9.561561492941992"><ele>72.0</ele><time>2026-04-04T15:03:42.999Z</time></trkpt><trkpt lat="39.141801685359496" lon="9.561438224611134"><ele>72.0</ele><time>2026-04-04T15:03:43.999Z</time></trkpt><trkpt lat="39.14174316279789" lon="9.561292993260766"><ele>72.0</ele><time>2026-04-04T15:03:44.999Z</time></trkpt><trkpt lat="39.14166804124063" lon="9.561139634260996"><ele>73.75</ele><time>2026-04-04T15:03:45.999Z</time></trkpt><trkpt lat="39.141562221499186" lon="9.561026604346456"><ele>75.5</ele><time>2026-04-04T15:03:46.999Z</time></trkpt><trkpt lat="39.14144000578226" lon="9.560955793940034"><ele>77.25</ele><time>2026-04-04T15:03:47.999Z</time></trkpt><trkpt lat="39.14130221660636" lon="9.560920476708548"><ele>79.0</ele><time>2026-04-04T15:03:48.999Z</time></trkpt><trkpt lat="39.14115661885028" lon="9.56090951487713"><ele>79.0</ele><time>2026-04-04T15:03:49.999Z</time></trkpt><trkpt lat="39.141023405644404" lon="9.560905846593366"><ele>79.0</ele><time>2026-04-04T15:03:50.999Z</time></trkpt><trkpt lat="39.14089612491642" lon="9.560886587919535"><ele>79.0</ele><time>2026-04-04T15:03:51.999Z</time></trkpt><trkpt lat="39.140778413776445" lon="9.560837312112632"><ele>79.0</ele><time>2026-04-04T15:03:52.999Z</time></trkpt><trkpt lat="39.140666174334406" lon="9.560773132405762"><ele>72.5</ele><time>2026-04-04T15:03:53.999Z</time></trkpt><trkpt lat="39.14055241214729" lon="9.560702357545166"><ele>66.0</ele><time>2026-04-04T15:03:54.999Z</time></trkpt><trkpt lat="39.140436774057825" lon="9.560630966890221"><ele>59.5</ele><time>2026-04-04T15:03:55.999Z</time></trkpt><trkpt lat="39.14031635453531" lon="9.560557178994587"><ele>53.0</ele><time>2026-04-04T15:03:56.999Z</time></trkpt><trkpt lat="39.14019066938464" lon="9.560468939411287"><ele>53.0</ele><time>2026-04-04T15:03:57.999Z</time></trkpt><trkpt lat="39.14007685914676" lon="9.560377091833432"><ele>53.0</ele><time>2026-04-04T15:03:58.999Z</time></trkpt><trkpt lat="39.1399787889254" lon="9.56028207774029"><ele>53.0</ele><time>2026-04-04T15:03:59.999Z</time></trkpt><trkpt lat="39.13989759174589" lon="9.560176036797241"><ele>53.0</ele><time>2026-04-04T15:04:00.999Z</time></trkpt><trkpt lat="39.13983579673856" lon="9.56004034594574"><ele>53.25</ele><time>2026-04-04T15:04:01.999Z</time></trkpt><trkpt lat="39.13979844864751" lon="9.559858864948108"><ele>53.5</ele><time>2026-04-04T15:04:02.999Z</time></trkpt><trkpt lat="39.13979315295821" lon="9.559661779525257"><ele>53.75</ele><time>2026-04-04T15:04:03.999Z</time></trkpt><trkpt lat="39.139821025454786" lon="9.5594841839596"><ele>54.0</ele><time>2026-04-04T15:04:04.999Z</time></trkpt><trkpt lat="39.13987612671208" lon="9.559323697377764"><ele>59.66666666666667</ele><time>2026-04-04T15:04:05.999Z</time></trkpt><trkpt lat="39.13996192811647" lon="9.559176541274594"><ele>65.33333333333334</ele><time>2026-04-04T15:04:06.999Z</time></trkpt><trkpt lat="39.14008086577965" lon="9.559050669322826"><ele>71.0</ele><time>2026-04-04T15:04:07.999Z</time></trkpt><trkpt lat="39.14022838624402" lon="9.558941029750896"><ele>71.0</ele><time>2026-04-04T15:04:08.999Z</time></trkpt><trkpt lat="39.14039439017739" lon="9.558828986291465"><ele>71.0</ele><time>2026-04-04T15:04:09.999Z</time></trkpt><trkpt lat="39.14057201234993" lon="9.558700920054672"><ele>71.0</ele><time>2026-04-04T15:04:10.999Z</time></trkpt><trkpt lat="39.14075368205277" lon="9.5585632922951"><ele>70.0</ele><time>2026-04-04T15:04:11.999Z</time></trkpt><trkpt lat="39.140931021703835" lon="9.55842405348755"><ele>69.0</ele><time>2026-04-04T15:04:12.999Z</time></trkpt><trkpt lat="39.14111835574898" lon="9.558275085659862"><ele>68.0</ele><time>2026-04-04T15:04:13.999Z</time></trkpt><trkpt lat="39.14131848751801" lon="9.558118283461459"><ele>68.0</ele><time>2026-04-04T15:04:14.999Z</time></trkpt><trkpt lat="39.141518059141944" lon="9.557963302653826"><ele>68.0</ele><time>2026-04-04T15:04:15.999Z</time></trkpt><trkpt lat="39.14169236558739" lon="9.55782694152927"><ele>68.0</ele><time>2026-04-04T15:04:16.999Z</time></trkpt><trkpt lat="39.14183262312945" lon="9.55771309125833"><ele>68.5</ele><time>2026-04-04T15:04:17.999Z</time></trkpt><trkpt lat="39.14194212295369" lon="9.557608889181036"><ele>69.0</ele><time>2026-04-04T15:04:18.999Z</time></trkpt><trkpt lat="39.14202783912821" lon="9.557488735784787"><ele>69.5</ele><time>2026-04-04T15:04:19.999Z</time></trkpt><trkpt lat="39.142089255977716" lon="9.55733564703527"><ele>70.0</ele><time>2026-04-04T15:04:20.999Z</time></trkpt><trkpt lat="39.14211546055631" lon="9.557156092415873"><ele>67.33333333333333</ele><time>2026-04-04T15:04:21.999Z</time></trkpt><trkpt lat="39.14210221159937" lon="9.556962882867845"><ele>64.66666666666667</ele><time>2026-04-04T15:04:22.999Z</time></trkpt><trkpt lat="39.14205337792699" lon="9.556775927861969"><ele>62.0</ele><time>2026-04-04T15:04:23.999Z</time></trkpt><trkpt lat="39.14201717683395" lon="9.556588817368379"><ele>62.0</ele><time>2026-04-04T15:04:24.999Z</time></trkpt><trkpt lat="39.142032474609074" lon="9.55641223158004"><ele>62.0</ele><time>2026-04-04T15:04:25.999Z</time></trkpt><trkpt lat="39.14209101735288" lon="9.556249255356217"><ele>62.0</ele><time>2026-04-04T15:04:26.999Z</time></trkpt><trkpt lat="39.14218070381119" lon="9.55610107698527"><ele>62.0</ele><time>2026-04-04T15:04:27.999Z</time></trkpt><trkpt lat="39.14229672549435" lon="9.55597364867151"><ele>66.0</ele><time>2026-04-04T15:04:28.999Z</time></trkpt><trkpt lat="39.14242564112769" lon="9.555844333224238"><ele>70.0</ele><time>2026-04-04T15:04:29.999Z</time></trkpt><trkpt lat="39.14255666981134" lon="9.555710504599332"><ele>74.0</ele><time>2026-04-04T15:04:30.999Z</time></trkpt><trkpt lat="39.14269473215696" lon="9.555584230439102"><ele>74.0</ele><time>2026-04-04T15:04:31.999Z</time></trkpt><trkpt lat="39.1428451138569" lon="9.55548271485571"><ele>74.0</ele><time>2026-04-04T15:04:32.999Z</time></trkpt><trkpt lat="39.14301022591914" lon="9.555406730218305"><ele>74.0</ele><time>2026-04-04T15:04:33.999Z</time></trkpt><trkpt lat="39.1431922887262" lon="9.555342627175394"><ele>71.33333333333334</ele><time>2026-04-04T15:04:34.999Z</time></trkpt><trkpt lat="39.14336916482515" lon="9.555280340216664"><ele>68.66666666666667</ele><time>2026-04-04T15:04:35.999Z</time></trkpt><trkpt lat="39.143553603881145" lon="9.555209477698876"><ele>66.0</ele><time>2026-04-04T15:04:36.999Z</time></trkpt><trkpt lat="39.14374330262443" lon="9.555130787763053"><ele>66.0</ele><time>2026-04-04T15:04:37.999Z</time></trkpt><trkpt lat="39.143913899569725" lon="9.555055972293676"><ele>66.0</ele><time>2026-04-04T15:04:38.999Z</time></trkpt><trkpt lat="39.14406353307206" lon="9.55498566783621"><ele>66.0</ele><time>2026-04-04T15:04:39.999Z</time></trkpt><trkpt lat="39.14419515159602" lon="9.554922325567343"><ele>67.75</ele><time>2026-04-04T15:04:40.999Z</time></trkpt><trkpt lat="39.14430099409739" lon="9.554852192318833"><ele>69.5</ele><time>2026-04-04T15:04:41.999Z</time></trkpt><trkpt lat="39.144384283828025" lon="9.554759393168316"><ele>71.25</ele><time>2026-04-04T15:04:42.999Z</time></trkpt><trkpt lat="39.14444752084375" lon="9.55463811923192"><ele>73.0</ele><time>2026-04-04T15:04:43.999Z</time></trkpt><trkpt lat="39.14448084889458" lon="9.554493948205815"><ele>73.0</ele><time>2026-04-04T15:04:44.999Z</time></trkpt><trkpt lat="39.144488779381916" lon="9.554334278031401"><ele>73.0</ele><time>2026-04-04T15:04:45.999Z</time></trkpt><trkpt lat="39.14445917946621" lon="9.554185410297894"><ele>73.0</ele><time>2026-04-04T15:04:46.999Z</time></trkpt><trkpt lat="39.14440668493011" lon="9.554055062285848"><ele>73.0</ele><time>2026-04-04T15:04:47.999Z</time></trkpt><trkpt lat="39.144323754256995" lon="9.55394812619036"><ele>73.0</ele><time>2026-04-04T15:04:48.999Z</time></trkpt><trkpt lat="39.144219765256985" lon="9.553864659255492"><ele>73.0</ele><time>2026-04-04T15:04:49.999Z</time></trkpt><trkpt lat="39.144096574397686" lon="9.553823316957189"><ele>73.0</ele><time>2026-04-04T15:04:50.999Z</time></trkpt><trkpt lat="39.14396645433333" lon="9.553829976267634"><ele>73.0</ele><time>2026-04-04T15:04:51.999Z</time></trkpt><trkpt lat="39.1438336567455" lon="9.553879085242915"><ele>72.33333333333333</ele><time>2026-04-04T15:04:52.999Z</time></trkpt><trkpt lat="39.143700988677345" lon="9.553959842358866"><ele>71.66666666666667</ele><time>2026-04-04T15:04:53.999Z</time></trkpt><trkpt lat="39.14354790179922" lon="9.554036091166452"><ele>71.0</ele><time>2026-04-04T15:04:54.999Z</time></trkpt><trkpt lat="39.14337644055967" lon="9.554092670730194"><ele>72.0</ele><time>2026-04-04T15:04:55.999Z</time></trkpt><trkpt lat="39.14318101839852" lon="9.554127242795461"><ele>73.0</ele><time>2026-04-04T15:04:56.999Z</time></trkpt><trkpt lat="39.14296812060034" lon="9.554152472124926"><ele>74.0</ele><time>2026-04-04T15:04:57.999Z</time></trkpt><trkpt lat="39.14274905300788" lon="9.55416817206615"><ele>74.0</ele><time>2026-04-04T15:04:58.999Z</time></trkpt><trkpt lat="39.14253975766984" lon="9.554189803357545"><ele>74.0</ele><time>2026-04-04T15:04:59.999Z</time></trkpt><trkpt lat="39.142323411185025" lon="9.554233512643213"><ele>74.0</ele><time>2026-04-04T15:05:00.999Z</time></trkpt><trkpt lat="39.14210253376473" lon="9.554311111580855"><ele>82.0</ele><time>2026-04-04T15:05:01.999Z</time></trkpt><trkpt lat="39.14187928810352" lon="9.554408683600531"><ele>90.0</ele><time>2026-04-04T15:05:02.999Z</time></trkpt><trkpt lat="39.1416489009642" lon="9.554520934724843"><ele>77.5</ele><time>2026-04-04T15:05:03.999Z</time></trkpt><trkpt lat="39.1414099007162" lon="9.554644114356167"><ele>65.0</ele><time>2026-04-04T15:05:04.999Z</time></trkpt><trkpt lat="39.14116094013835" lon="9.5547699175778"><ele>65.0</ele><time>2026-04-04T15:05:05.999Z</time></trkpt><trkpt lat="39.14091981453114" lon="9.554886929414538"><ele>65.0</ele><time>2026-04-04T15:05:06.999Z</time></trkpt><trkpt lat="39.140740068320866" lon="9.554975381644566"><ele>74.5</ele><time>2026-04-04T15:05:07.999Z</time></trkpt><trkpt lat="39.140525742580415" lon="9.55508525471352"><ele>84.0</ele><time>2026-04-04T15:05:08.999Z</time></trkpt><trkpt lat="39.14030275765161" lon="9.555198306319333"><ele>84.0</ele><time>2026-04-04T15:05:09.999Z</time></trkpt><trkpt lat="39.14009837961511" lon="9.555302246730612"><ele>84.0</ele><time>2026-04-04T15:05:10.999Z</time></trkpt><trkpt lat="39.139918975663015" lon="9.55539044701383"><ele>84.0</ele><time>2026-04-04T15:05:11.999Z</time></trkpt><trkpt lat="39.139747465063024" lon="9.555468679555293"><ele>77.66666666666667</ele><time>2026-04-04T15:05:12.999Z</time></trkpt><trkpt lat="39.13957979296967" lon="9.555527870889719"><ele>71.33333333333334</ele><time>2026-04-04T15:05:13.999Z</time></trkpt><trkpt lat="39.1394039715961" lon="9.555570728507462"><ele>65.0</ele><time>2026-04-04T15:05:14.999Z</time></trkpt><trkpt lat="39.13921579124813" lon="9.555602005763062"><ele>62.66666666666667</ele><time>2026-04-04T15:05:15.999Z</time></trkpt><trkpt lat="39.13901688397635" lon="9.555622033612362"><ele>60.33333333333333</ele><time>2026-04-04T15:05:16.999Z</time></trkpt><trkpt lat="39.13881019827485" lon="9.555635886483946"><ele>58.0</ele><time>2026-04-04T15:05:17.999Z</time></trkpt><trkpt lat="39.13858728282604" lon="9.555647403926349"><ele>58.0</ele><time>2026-04-04T15:05:18.999Z</time></trkpt><trkpt lat="39.13836213372774" lon="9.555661988198327"><ele>58.0</ele><time>2026-04-04T15:05:19.999Z</time></trkpt><trkpt lat="39.13815567787337" lon="9.555673943142608"><ele>58.0</ele><time>2026-04-04T15:05:20.999Z</time></trkpt><trkpt lat="39.137975181882915" lon="9.555683908459034"><ele>58.25</ele><time>2026-04-04T15:05:21.999Z</time></trkpt><trkpt lat="39.13781589288406" lon="9.555690618482513"><ele>58.5</ele><time>2026-04-04T15:05:22.999Z</time></trkpt><trkpt lat="39.13768497649387" lon="9.555685874848159"><ele>58.75</ele><time>2026-04-04T15:05:23.999Z</time></trkpt><trkpt lat="39.137570685530875" lon="9.555643567761283"><ele>59.0</ele><time>2026-04-04T15:05:24.999Z</time></trkpt><trkpt lat="39.13746419659709" lon="9.555560931718318"><ele>59.75</ele><time>2026-04-04T15:05:25.999Z</time></trkpt><trkpt lat="39.13737165493636" lon="9.555442310755648"><ele>60.5</ele><time>2026-04-04T15:05:26.999Z</time></trkpt><trkpt lat="39.137313467724105" lon="9.555306196312133"><ele>61.25</ele><time>2026-04-04T15:05:27.999Z</time></trkpt><trkpt lat="39.13728979355181" lon="9.555154996110522"><ele>62.0</ele><time>2026-04-04T15:05:28.999Z</time></trkpt><trkpt lat="39.137312260896415" lon="9.554995427737255"><ele>62.0</ele><time>2026-04-04T15:05:29.999Z</time></trkpt><trkpt lat="39.13736841350625" lon="9.554841012796977"><ele>62.0</ele><time>2026-04-04T15:05:30.999Z</time></trkpt><trkpt lat="39.137459388651216" lon="9.554700766095406"><ele>62.0</ele><time>2026-04-04T15:05:31.999Z</time></trkpt><trkpt lat="39.137573842267955" lon="9.554589674174624"><ele>62.0</ele><time>2026-04-04T15:05:32.999Z</time></trkpt><trkpt lat="39.13771762792032" lon="9.554531520379916"><ele>62.0</ele><time>2026-04-04T15:05:33.999Z</time></trkpt><trkpt lat="39.137862757686655" lon="9.554425777580496"><ele>62.0</ele><time>2026-04-04T15:05:34.999Z</time></trkpt><trkpt lat="39.13803833026678" lon="9.55433946997526"><ele>62.0</ele><time>2026-04-04T15:05:35.999Z</time></trkpt><trkpt lat="39.13822127447179" lon="9.554235901345038"><ele>62.0</ele><time>2026-04-04T15:05:36.999Z</time></trkpt><trkpt lat="39.138418002683814" lon="9.554121624739054"><ele>62.0</ele><time>2026-04-04T15:05:37.999Z</time></trkpt><trkpt lat="39.13862677194527" lon="9.553998591215748"><ele>62.0</ele><time>2026-04-04T15:05:38.999Z</time></trkpt><trkpt lat="39.138829301036836" lon="9.553870743335109"><ele>62.0</ele><time>2026-04-04T15:05:39.999Z</time></trkpt><trkpt lat="39.13902233696625" lon="9.553738705750218"><ele>62.0</ele><time>2026-04-04T15:05:40.999Z</time></trkpt><trkpt lat="39.13921951436723" lon="9.553596745938117"><ele>62.0</ele><time>2026-04-04T15:05:41.999Z</time></trkpt><trkpt lat="39.13942423348118" lon="9.553443390741323"><ele>55.5</ele><time>2026-04-04T15:05:42.999Z</time></trkpt><trkpt lat="39.139633765660214" lon="9.553287292551387"><ele>49.0</ele><time>2026-04-04T15:05:43.999Z</time></trkpt><trkpt lat="39.13984552984395" lon="9.55312761245029"><ele>43.5</ele><time>2026-04-04T15:05:44.999Z</time></trkpt><trkpt lat="39.14006339496703" lon="9.5529564838514"><ele>38.0</ele><time>2026-04-04T15:05:45.999Z</time></trkpt><trkpt lat="39.14027888140453" lon="9.552784923264479"><ele>38.0</ele><time>2026-04-04T15:05:46.999Z</time></trkpt><trkpt lat="39.14049156318206" lon="9.552614585992673"><ele>38.0</ele><time>2026-04-04T15:05:47.999Z</time></trkpt><trkpt lat="39.140710547366275" lon="9.552440611499586"><ele>48.5</ele><time>2026-04-04T15:05:48.999Z</time></trkpt><trkpt lat="39.14094361397636" lon="9.552257844341623"><ele>59.0</ele><time>2026-04-04T15:05:49.999Z</time></trkpt><trkpt lat="39.14118243515153" lon="9.55207060361211"><ele>56.5</ele><time>2026-04-04T15:05:50.999Z</time></trkpt><trkpt lat="39.14143441290181" lon="9.551896599837653"><ele>54.0</ele><time>2026-04-04T15:05:51.999Z</time></trkpt><trkpt lat="39.14168117148324" lon="9.551705028448195"><ele>54.0</ele><time>2026-04-04T15:05:52.999Z</time></trkpt><trkpt lat="39.14192683138739" lon="9.55151403929183"><ele>54.0</ele><time>2026-04-04T15:05:53.999Z</time></trkpt><trkpt lat="39.14217270087605" lon="9.551322810440368"><ele>50.5</ele><time>2026-04-04T15:05:54.999Z</time></trkpt><trkpt lat="39.14242220262618" lon="9.551128756551266"><ele>47.0</ele><time>2026-04-04T15:05:55.999Z</time></trkpt><trkpt lat="39.142666964683215" lon="9.550938408802027"><ele>47.0</ele><time>2026-04-04T15:05:56.999Z</time></trkpt><trkpt lat="39.14290791082785" lon="9.55073273272505"><ele>47.0</ele><time>2026-04-04T15:05:57.999Z</time></trkpt><trkpt lat="39.143142192176704" lon="9.55056021922511"><ele>44.5</ele><time>2026-04-04T15:05:58.999Z</time></trkpt><trkpt lat="39.14335573041503" lon="9.550399451604093"><ele>42.0</ele><time>2026-04-04T15:05:59.999Z</time></trkpt><trkpt lat="39.14356184192402" lon="9.550240092986517"><ele>42.0</ele><time>2026-04-04T15:06:00.999Z</time></trkpt><trkpt lat="39.14375576569886" lon="9.550091610031584"><ele>42.0</ele><time>2026-04-04T15:06:01.999Z</time></trkpt><trkpt lat="39.143945805083845" lon="9.54996048751679"><ele>42.0</ele><time>2026-04-04T15:06:02.999Z</time></trkpt><trkpt lat="39.14414334660624" lon="9.54984287870056"><ele>47.0</ele><time>2026-04-04T15:06:03.999Z</time></trkpt><trkpt lat="39.14435036983824" lon="9.549736085972258"><ele>52.0</ele><time>2026-04-04T15:06:04.999Z</time></trkpt><trkpt lat="39.144563536911384" lon="9.549632679683816"><ele>45.0</ele><time>2026-04-04T15:06:05.999Z</time></trkpt><trkpt lat="39.14477923600582" lon="9.549525890517009"><ele>38.0</ele><time>2026-04-04T15:06:06.999Z</time></trkpt><trkpt lat="39.1449897871136" lon="9.549418745976347"><ele>38.0</ele><time>2026-04-04T15:06:07.999Z</time></trkpt><trkpt lat="39.145173152500284" lon="9.54932210947817"><ele>38.0</ele><time>2026-04-04T15:06:08.999Z</time></trkpt><trkpt lat="39.14532957756237" lon="9.549234781364055"><ele>38.0</ele><time>2026-04-04T15:06:09.999Z</time></trkpt><trkpt lat="39.145461665387394" lon="9.549136620328925"><ele>38.0</ele><time>2026-04-04T15:06:10.999Z</time></trkpt><trkpt lat="39.14556393434674" lon="9.5490084458018"><ele>38.0</ele><time>2026-04-04T15:06:11.999Z</time></trkpt><trkpt lat="39.145629157756495" lon="9.548847605144749"><ele>38.0</ele><time>2026-04-04T15:06:12.999Z</time></trkpt><trkpt lat="39.14566380682492" lon="9.548655644664187"><ele>38.0</ele><time>2026-04-04T15:06:13.999Z</time></trkpt><trkpt lat="39.145671230768" lon="9.548441046386941"><ele>35.666666666666664</ele><time>2026-04-04T15:06:14.999Z</time></trkpt><trkpt lat="39.14565345154567" lon="9.548235055047106"><ele>33.333333333333336</ele><time>2026-04-04T15:06:15.999Z</time></trkpt><trkpt lat="39.1456634550778" lon="9.548065890703711"><ele>31.0</ele><time>2026-04-04T15:06:16.999Z</time></trkpt><trkpt lat="39.14552849189385" lon="9.54791073620928"><ele>35.66666666666667</ele><time>2026-04-04T15:06:17.999Z</time></trkpt><trkpt lat="39.1454246216132" lon="9.547776040238029"><ele>40.333333333333336</ele><time>2026-04-04T15:06:18.999Z</time></trkpt><trkpt lat="39.145299656072176" lon="9.547672365237752"><ele>45.0</ele><time>2026-04-04T15:06:19.999Z</time></trkpt><trkpt lat="39.14514824485695" lon="9.547606488762495"><ele>45.0</ele><time>2026-04-04T15:06:20.999Z</time></trkpt><trkpt lat="39.14497336201444" lon="9.547559723683657"><ele>45.0</ele><time>2026-04-04T15:06:21.999Z</time></trkpt><trkpt lat="39.14478933498713" lon="9.54751994338891"><ele>45.0</ele><time>2026-04-04T15:06:22.999Z</time></trkpt><trkpt lat="39.14460067118335" lon="9.547476105319856"><ele>45.333333333333336</ele><time>2026-04-04T15:06:23.999Z</time></trkpt><trkpt lat="39.144405350127414" lon="9.547426153203311"><ele>45.66666666666667</ele><time>2026-04-04T15:06:24.999Z</time></trkpt><trkpt lat="39.144202807986126" lon="9.547372898580486"><ele>46.0</ele><time>2026-04-04T15:06:25.999Z</time></trkpt><trkpt lat="39.143996839289684" lon="9.54732256221389"><ele>46.0</ele><time>2026-04-04T15:06:26.999Z</time></trkpt><trkpt lat="39.14378614315712" lon="9.547270909653577"><ele>46.0</ele><time>2026-04-04T15:06:27.999Z</time></trkpt><trkpt lat="39.1435957151802" lon="9.547223994022573"><ele>46.0</ele><time>2026-04-04T15:06:28.999Z</time></trkpt><trkpt lat="39.143410746172115" lon="9.547182451212759"><ele>46.0</ele><time>2026-04-04T15:06:29.999Z</time></trkpt><trkpt lat="39.14321753089082" lon="9.547134448507403"><ele>46.0</ele><time>2026-04-04T15:06:30.999Z</time></trkpt><trkpt lat="39.143016256788066" lon="9.547080629605043"><ele>46.0</ele><time>2026-04-04T15:06:31.999Z</time></trkpt><trkpt lat="39.14282019994725" lon="9.547025799754463"><ele>53.333333333333336</ele><time>2026-04-04T15:06:32.999Z</time></trkpt><trkpt lat="39.14265119978708" lon="9.546979785723865"><ele>60.66666666666667</ele><time>2026-04-04T15:06:33.999Z</time></trkpt><trkpt lat="39.14249365354812" lon="9.546937788753183"><ele>68.0</ele><time>2026-04-04T15:06:34.999Z</time></trkpt><trkpt lat="39.14236320506292" lon="9.54689549701539"><ele>69.0</ele><time>2026-04-04T15:06:35.999Z</time></trkpt><trkpt lat="39.142244005707376" lon="9.546831552173371"><ele>70.0</ele><time>2026-04-04T15:06:36.999Z</time></trkpt><trkpt lat="39.142139714113" lon="9.546730669923246"><ele>71.0</ele><time>2026-04-04T15:06:37.999Z</time></trkpt><trkpt lat="39.142060756783145" lon="9.546591996366491"><ele>72.0</ele><time>2026-04-04T15:06:38.999Z</time></trkpt><trkpt lat="39.142006286576354" lon="9.546421165414024"><ele>72.0</ele><time>2026-04-04T15:06:39.999Z</time></trkpt><trkpt lat="39.1419887988011" lon="9.546256077269367"><ele>72.0</ele><time>2026-04-04T15:06:40.999Z</time></trkpt><trkpt lat="39.142025584659905" lon="9.546093340192895"><ele>72.0</ele><time>2026-04-04T15:06:41.999Z</time></trkpt><trkpt lat="39.142080907122086" lon="9.545915596879638"><ele>72.0</ele><time>2026-04-04T15:06:42.999Z</time></trkpt><trkpt lat="39.14214142167445" lon="9.545722154506826"><ele>70.5</ele><time>2026-04-04T15:06:43.999Z</time></trkpt><trkpt lat="39.14220602744698" lon="9.545546823469747"><ele>69.0</ele><time>2026-04-04T15:06:44.999Z</time></trkpt><trkpt lat="39.142237823014845" lon="9.545373957699342"><ele>67.5</ele><time>2026-04-04T15:06:45.999Z</time></trkpt><trkpt lat="39.14222644603899" lon="9.545212796514429"><ele>66.0</ele><time>2026-04-04T15:06:46.999Z</time></trkpt><trkpt lat="39.1421841491135" lon="9.545057741786016"><ele>62.66666666666667</ele><time>2026-04-04T15:06:47.999Z</time></trkpt><trkpt lat="39.1420988446866" lon="9.54493040492564"><ele>59.333333333333336</ele><time>2026-04-04T15:06:48.999Z</time></trkpt><trkpt lat="39.14197578095523" lon="9.54481772135491"><ele>56.0</ele><time>2026-04-04T15:06:49.999Z</time></trkpt><trkpt lat="39.14181805849632" lon="9.544710132874904"><ele>56.0</ele><time>2026-04-04T15:06:50.999Z</time></trkpt><trkpt lat="39.14163463571878" lon="9.54459108435652"><ele>56.0</ele><time>2026-04-04T15:06:51.999Z</time></trkpt><trkpt lat="39.14143913963884" lon="9.544450367324433"><ele>56.0</ele><time>2026-04-04T15:06:52.999Z</time></trkpt><trkpt lat="39.14124106151853" lon="9.544308626403883"><ele>53.0</ele><time>2026-04-04T15:06:53.999Z</time></trkpt><trkpt lat="39.14106705171811" lon="9.544184232074405"><ele>50.0</ele><time>2026-04-04T15:06:54.999Z</time></trkpt><trkpt lat="39.14092191582431" lon="9.54407186901039"><ele>47.0</ele><time>2026-04-04T15:06:55.999Z</time></trkpt><trkpt lat="39.140805302285784" lon="9.54392027915585"><ele>44.666666666666664</ele><time>2026-04-04T15:06:56.999Z</time></trkpt><trkpt lat="39.140704573894425" lon="9.543756668782766"><ele>42.333333333333336</ele><time>2026-04-04T15:06:57.999Z</time></trkpt><trkpt lat="39.140613303462956" lon="9.543578761999601"><ele>40.0</ele><time>2026-04-04T15:06:58.999Z</time></trkpt><trkpt lat="39.14056307358512" lon="9.54337809673429"><ele>38.66666666666667</ele><time>2026-04-04T15:06:59.999Z</time></trkpt><trkpt lat="39.14055607333392" lon="9.543175491679516"><ele>37.333333333333336</ele><time>2026-04-04T15:07:00.999Z</time></trkpt><trkpt lat="39.14056561651467" lon="9.542987582029898"><ele>36.0</ele><time>2026-04-04T15:07:01.999Z</time></trkpt><trkpt lat="39.14060763664546" lon="9.542777868374698"><ele>37.666666666666664</ele><time>2026-04-04T15:07:02.999Z</time></trkpt><trkpt lat="39.1406527065147" lon="9.542545200260964"><ele>39.33333333333333</ele><time>2026-04-04T15:07:04Z</time></trkpt><trkpt lat="39.14070763447627" lon="9.54230599503346"><ele>41.0</ele><time>2026-04-04T15:07:05Z</time></trkpt><trkpt lat="39.14072949977681" lon="9.54207694210304"><ele>38.666666666666664</ele><time>2026-04-04T15:07:06Z</time></trkpt><trkpt lat="39.14071972965674" lon="9.541851610263851"><ele>36.333333333333336</ele><time>2026-04-04T15:07:07Z</time></trkpt><trkpt lat="39.14068236390421" lon="9.541605190696336"><ele>34.0</ele><time>2026-04-04T15:07:08Z</time></trkpt><trkpt lat="39.14061570170733" lon="9.541359507014924"><ele>31.0</ele><time>2026-04-04T15:07:09Z</time></trkpt><trkpt lat="39.14052277290679" lon="9.541131243968891"><ele>28.0</ele><time>2026-04-04T15:07:10Z</time></trkpt><trkpt lat="39.14039921612845" lon="9.540910151377295"><ele>25.0</ele><time>2026-04-04T15:07:11Z</time></trkpt><trkpt lat="39.14024327549855" lon="9.54069563989519"><ele>25.0</ele><time>2026-04-04T15:07:12Z</time></trkpt><trkpt lat="39.14006332479362" lon="9.540479470996724"><ele>25.0</ele><time>2026-04-04T15:07:13Z</time></trkpt><trkpt lat="39.139867886343254" lon="9.54026036620688"><ele>25.5</ele><time>2026-04-04T15:07:14Z</time></trkpt><trkpt lat="39.13967197589756" lon="9.540028233170458"><ele>26.0</ele><time>2026-04-04T15:07:15Z</time></trkpt><trkpt lat="39.139472711897916" lon="9.539790560024851"><ele>26.0</ele><time>2026-04-04T15:07:16Z</time></trkpt><trkpt lat="39.13927996629643" lon="9.539561213559729"><ele>26.0</ele><time>2026-04-04T15:07:17Z</time></trkpt><trkpt lat="39.139095205233104" lon="9.539338595234257"><ele>26.0</ele><time>2026-04-04T15:07:18Z</time></trkpt><trkpt lat="39.13891041251206" lon="9.539112237447956"><ele>26.0</ele><time>2026-04-04T15:07:19Z</time></trkpt><trkpt lat="39.13872348805235" lon="9.538883671744394"><ele>28.5</ele><time>2026-04-04T15:07:20Z</time></trkpt><trkpt lat="39.13853326759761" lon="9.538653425680607"><ele>31.0</ele><time>2026-04-04T15:07:21Z</time></trkpt><trkpt lat="39.13834223673167" lon="9.538420944207614"><ele>29.0</ele><time>2026-04-04T15:07:22Z</time></trkpt><trkpt lat="39.13795539019035" lon="9.537952830349091"><ele>27.5</ele><time>2026-04-04T15:07:24Z</time></trkpt><trkpt lat="39.137777902042025" lon="9.5377345745653"><ele>26.0</ele><time>2026-04-04T15:07:25Z</time></trkpt><trkpt lat="39.13760828776401" lon="9.537526199715252"><ele>26.0</ele><time>2026-04-04T15:07:26Z</time></trkpt><trkpt lat="39.13744554363439" lon="9.537326661211722"><ele>26.0</ele><time>2026-04-04T15:07:27Z</time></trkpt><trkpt lat="39.13729486822924" lon="9.53713482788147"><ele>26.0</ele><time>2026-04-04T15:07:28Z</time></trkpt><trkpt lat="39.13716062339482" lon="9.536954021013734"><ele>25.0</ele><time>2026-04-04T15:07:29Z</time></trkpt><trkpt lat="39.1370344798464" lon="9.536780602965758"><ele>24.0</ele><time>2026-04-04T15:07:30Z</time></trkpt><trkpt lat="39.13692625610368" lon="9.536606335935886"><ele>23.0</ele><time>2026-04-04T15:07:31Z</time></trkpt><trkpt lat="39.13683500885381" lon="9.536401116924395"><ele>25.0</ele><time>2026-04-04T15:07:32Z</time></trkpt><trkpt lat="39.136770606038425" lon="9.536159871204159"><ele>27.0</ele><time>2026-04-04T15:07:33Z</time></trkpt><trkpt lat="39.13669786440827" lon="9.535914957196322"><ele>29.0</ele><time>2026-04-04T15:07:34Z</time></trkpt><trkpt lat="39.13661768076574" lon="9.535667404824633"><ele>28.0</ele><time>2026-04-04T15:07:35Z</time></trkpt><trkpt lat="39.13653162780263" lon="9.535414520134777"><ele>27.0</ele><time>2026-04-04T15:07:36Z</time></trkpt><trkpt lat="39.13644618103327" lon="9.535173807502302"><ele>26.0</ele><time>2026-04-04T15:07:37Z</time></trkpt><trkpt lat="39.13637881233326" lon="9.534967778451811"><ele>27.0</ele><time>2026-04-04T15:07:38Z</time></trkpt><trkpt lat="39.13633411298351" lon="9.534775900561566"><ele>28.0</ele><time>2026-04-04T15:07:39Z</time></trkpt><trkpt lat="39.136310138871785" lon="9.534574458151328"><ele>29.0</ele><time>2026-04-04T15:07:40Z</time></trkpt><trkpt lat="39.13631190120484" lon="9.534353188263461"><ele>29.0</ele><time>2026-04-04T15:07:41Z</time></trkpt><trkpt lat="39.13632600911028" lon="9.534125046339799"><ele>29.0</ele><time>2026-04-04T15:07:42Z</time></trkpt><trkpt lat="39.13635885677773" lon="9.533896637230377"><ele>29.0</ele><time>2026-04-04T15:07:43Z</time></trkpt><trkpt lat="39.13641571206972" lon="9.533673906893439"><ele>30.666666666666664</ele><time>2026-04-04T15:07:44Z</time></trkpt><trkpt lat="39.13649687374318" lon="9.5334435334933"><ele>32.333333333333336</ele><time>2026-04-04T15:07:45Z</time></trkpt><trkpt lat="39.136604075015995" lon="9.533228235304334"><ele>34.0</ele><time>2026-04-04T15:07:46Z</time></trkpt><trkpt lat="39.136730410252966" lon="9.533019311683885"><ele>31.0</ele><time>2026-04-04T15:07:47Z</time></trkpt><trkpt lat="39.13689813890236" lon="9.53284908266608"><ele>28.0</ele><time>2026-04-04T15:07:48Z</time></trkpt><trkpt lat="39.13708151151037" lon="9.53267296752683"><ele>25.0</ele><time>2026-04-04T15:07:49Z</time></trkpt><trkpt lat="39.137281393912" lon="9.532499519681648"><ele>29.5</ele><time>2026-04-04T15:07:50Z</time></trkpt><trkpt lat="39.13748365719586" lon="9.532329213708362"><ele>34.0</ele><time>2026-04-04T15:07:51Z</time></trkpt><trkpt lat="39.13766803908695" lon="9.532166042749575"><ele>34.5</ele><time>2026-04-04T15:07:52Z</time></trkpt><trkpt lat="39.137870898866865" lon="9.532048910789904"><ele>35.0</ele><time>2026-04-04T15:07:53Z</time></trkpt><trkpt lat="39.13808649016088" lon="9.531941324865743"><ele>36.0</ele><time>2026-04-04T15:07:54Z</time></trkpt><trkpt lat="39.13831718173444" lon="9.531856495740946"><ele>37.0</ele><time>2026-04-04T15:07:55Z</time></trkpt><trkpt lat="39.13855873434623" lon="9.531793563303752"><ele>37.0</ele><time>2026-04-04T15:07:56Z</time></trkpt><trkpt lat="39.138815524491456" lon="9.531737872634869"><ele>37.0</ele><time>2026-04-04T15:07:57Z</time></trkpt><trkpt lat="39.1390852261513" lon="9.531694145122264"><ele>40.0</ele><time>2026-04-04T15:07:58Z</time></trkpt><trkpt lat="39.13934915457005" lon="9.53165688080621"><ele>43.0</ele><time>2026-04-04T15:07:59Z</time></trkpt><trkpt lat="39.13960054338383" lon="9.53161156296873"><ele>43.0</ele><time>2026-04-04T15:08:00Z</time></trkpt><trkpt lat="39.13984897800036" lon="9.531553578837372"><ele>43.0</ele><time>2026-04-04T15:08:01Z</time></trkpt><trkpt lat="39.14009651375954" lon="9.53146895754047"><ele>47.0</ele><time>2026-04-04T15:08:02Z</time></trkpt><trkpt lat="39.140333823389284" lon="9.53136154098372"><ele>51.0</ele><time>2026-04-04T15:08:03Z</time></trkpt><trkpt lat="39.14056140757608" lon="9.531243556833083"><ele>54.5</ele><time>2026-04-04T15:08:04Z</time></trkpt><trkpt lat="39.14078217769133" lon="9.531106577227415"><ele>58.0</ele><time>2026-04-04T15:08:05Z</time></trkpt><trkpt lat="39.14099257412299" lon="9.53095799982907"><ele>58.0</ele><time>2026-04-04T15:08:06Z</time></trkpt><trkpt lat="39.141181977523715" lon="9.530815592257765"><ele>58.0</ele><time>2026-04-04T15:08:07Z</time></trkpt><trkpt lat="39.14134710739918" lon="9.53067833069701"><ele>58.0</ele><time>2026-04-04T15:08:08Z</time></trkpt><trkpt lat="39.14150795438672" lon="9.530528861966738"><ele>58.666666666666664</ele><time>2026-04-04T15:08:09Z</time></trkpt><trkpt lat="39.14166653286388" lon="9.530360787551322"><ele>59.33333333333333</ele><time>2026-04-04T15:08:10Z</time></trkpt><trkpt lat="39.14183086970477" lon="9.530184318668491"><ele>60.0</ele><time>2026-04-04T15:08:11Z</time></trkpt><trkpt lat="39.14200345968603" lon="9.529998643681603"><ele>60.0</ele><time>2026-04-04T15:08:12Z</time></trkpt><trkpt lat="39.14218738740084" lon="9.5298132262341"><ele>60.0</ele><time>2026-04-04T15:08:13Z</time></trkpt><trkpt lat="39.142374207679104" lon="9.529630964142477"><ele>58.0</ele><time>2026-04-04T15:08:14Z</time></trkpt><trkpt lat="39.14257253267119" lon="9.52944633146451"><ele>56.0</ele><time>2026-04-04T15:08:15Z</time></trkpt><trkpt lat="39.14277333700085" lon="9.529266414852076"><ele>56.0</ele><time>2026-04-04T15:08:16Z</time></trkpt><trkpt lat="39.142980048495644" lon="9.529084325157278"><ele>56.0</ele><time>2026-04-04T15:08:17Z</time></trkpt><trkpt lat="39.14319167505329" lon="9.528905486362582"><ele>56.0</ele><time>2026-04-04T15:08:18Z</time></trkpt><trkpt lat="39.14339466995947" lon="9.528741329670735"><ele>56.0</ele><time>2026-04-04T15:08:19Z</time></trkpt><trkpt lat="39.1435866724978" lon="9.528587239830165"><ele>56.0</ele><time>2026-04-04T15:08:20Z</time></trkpt><trkpt lat="39.14376233518677" lon="9.528425549788425"><ele>56.0</ele><time>2026-04-04T15:08:21Z</time></trkpt><trkpt lat="39.1439079784534" lon="9.52825076436452"><ele>56.0</ele><time>2026-04-04T15:08:22Z</time></trkpt><trkpt lat="39.1440380436357" lon="9.528045468591625"><ele>54.0</ele><time>2026-04-04T15:08:23Z</time></trkpt><trkpt lat="39.14415429685113" lon="9.527812055681308"><ele>52.0</ele><time>2026-04-04T15:08:24Z</time></trkpt><trkpt lat="39.144281511786275" lon="9.527593736213746"><ele>50.0</ele><time>2026-04-04T15:08:25Z</time></trkpt><trkpt lat="39.144402188105005" lon="9.527364285106618"><ele>54.0</ele><time>2026-04-04T15:08:26Z</time></trkpt><trkpt lat="39.14437766116925" lon="9.527015255802796"><ele>58.0</ele><time>2026-04-04T15:08:27Z</time></trkpt><trkpt lat="39.14443733704049" lon="9.526770800004696"><ele>58.0</ele><time>2026-04-04T15:08:28Z</time></trkpt><trkpt lat="39.1445183792914" lon="9.526568556057715"><ele>58.0</ele><time>2026-04-04T15:08:29Z</time></trkpt><trkpt lat="39.144626008304854" lon="9.526391465430546"><ele>58.0</ele><time>2026-04-04T15:08:30Z</time></trkpt><trkpt lat="39.14476058663807" lon="9.526233819104837"><ele>54.0</ele><time>2026-04-04T15:08:31Z</time></trkpt><trkpt lat="39.14491007237337" lon="9.52611550535418"><ele>50.0</ele><time>2026-04-04T15:08:32Z</time></trkpt><trkpt lat="39.14507089075477" lon="9.526034607465418"><ele>46.0</ele><time>2026-04-04T15:08:33Z</time></trkpt><trkpt lat="39.14524200520834" lon="9.525984000906483"><ele>46.0</ele><time>2026-04-04T15:08:34Z</time></trkpt><trkpt lat="39.1454149050053" lon="9.525963322875846"><ele>46.0</ele><time>2026-04-04T15:08:35Z</time></trkpt><trkpt lat="39.14559528280877" lon="9.525978257940109"><ele>46.0</ele><time>2026-04-04T15:08:36Z</time></trkpt><trkpt lat="39.145781026035046" lon="9.526024068023812"><ele>47.66666666666667</ele><time>2026-04-04T15:08:37Z</time></trkpt><trkpt lat="39.14597674707477" lon="9.52608552379008"><ele>49.333333333333336</ele><time>2026-04-04T15:08:38Z</time></trkpt><trkpt lat="39.14618035335022" lon="9.526148105127822"><ele>51.0</ele><time>2026-04-04T15:08:39Z</time></trkpt><trkpt lat="39.14638917838419" lon="9.526204019231908"><ele>51.66666666666667</ele><time>2026-04-04T15:08:40Z</time></trkpt><trkpt lat="39.14658049889535" lon="9.526244788939485"><ele>52.333333333333336</ele><time>2026-04-04T15:08:41Z</time></trkpt><trkpt lat="39.146768594549336" lon="9.526263005754537"><ele>53.0</ele><time>2026-04-04T15:08:42Z</time></trkpt><trkpt lat="39.14695701274827" lon="9.526254468869059"><ele>54.333333333333336</ele><time>2026-04-04T15:08:43Z</time></trkpt><trkpt lat="39.147148244130946" lon="9.526217282716651"><ele>55.66666666666667</ele><time>2026-04-04T15:08:44Z</time></trkpt><trkpt lat="39.14734026040253" lon="9.526148793447144"><ele>57.0</ele><time>2026-04-04T15:08:45Z</time></trkpt><trkpt lat="39.14752345896903" lon="9.526054116691874"><ele>57.66666666666667</ele><time>2026-04-04T15:08:46Z</time></trkpt><trkpt lat="39.147702345641534" lon="9.525932579291256"><ele>58.333333333333336</ele><time>2026-04-04T15:08:47Z</time></trkpt><trkpt lat="39.147884380429126" lon="9.525777989330331"><ele>59.0</ele><time>2026-04-04T15:08:48Z</time></trkpt><trkpt lat="39.14806445227716" lon="9.525595628392654"><ele>62.0</ele><time>2026-04-04T15:08:49Z</time></trkpt><trkpt lat="39.14825235581095" lon="9.525397748085323"><ele>65.0</ele><time>2026-04-04T15:08:50Z</time></trkpt><trkpt lat="39.148452333284105" lon="9.525194816398926"><ele>65.5</ele><time>2026-04-04T15:08:51Z</time></trkpt><trkpt lat="39.14865881167539" lon="9.52498720792613"><ele>66.0</ele><time>2026-04-04T15:08:52Z</time></trkpt><trkpt lat="39.14887305363941" lon="9.524770555936398"><ele>64.0</ele><time>2026-04-04T15:08:53Z</time></trkpt><trkpt lat="39.14909151929635" lon="9.524551188938963"><ele>62.0</ele><time>2026-04-04T15:08:54Z</time></trkpt><trkpt lat="39.14931418145693" lon="9.524325334461142"><ele>62.0</ele><time>2026-04-04T15:08:55Z</time></trkpt><trkpt lat="39.149540228958024" lon="9.524094360952136"><ele>62.0</ele><time>2026-04-04T15:08:56Z</time></trkpt><trkpt lat="39.14976953938564" lon="9.523860732035748"><ele>64.0</ele><time>2026-04-04T15:08:57Z</time></trkpt><trkpt lat="39.150001650711275" lon="9.52362454259635"><ele>66.0</ele><time>2026-04-04T15:08:58Z</time></trkpt><trkpt lat="39.15023216602686" lon="9.523388490839963"><ele>66.0</ele><time>2026-04-04T15:08:59Z</time></trkpt><trkpt lat="39.15045034923517" lon="9.523168852176646"><ele>66.0</ele><time>2026-04-04T15:09:00Z</time></trkpt><trkpt lat="39.15065021243463" lon="9.52296902962508"><ele>66.0</ele><time>2026-04-04T15:09:01Z</time></trkpt><trkpt lat="39.15083923764618" lon="9.522784088170784"><ele>66.0</ele><time>2026-04-04T15:09:02Z</time></trkpt><trkpt lat="39.151023519720596" lon="9.52260431594663"><ele>66.0</ele><time>2026-04-04T15:09:03Z</time></trkpt><trkpt lat="39.15119803351264" lon="9.522429529821371"><ele>66.0</ele><time>2026-04-04T15:09:04Z</time></trkpt><trkpt lat="39.15135766954449" lon="9.52225817036037"><ele>66.0</ele><time>2026-04-04T15:09:05Z</time></trkpt><trkpt lat="39.15150314622902" lon="9.522078931801962"><ele>67.0</ele><time>2026-04-04T15:09:06Z</time></trkpt><trkpt lat="39.15163802231139" lon="9.521881775425431"><ele>68.0</ele><time>2026-04-04T15:09:07Z</time></trkpt><trkpt lat="39.15175661001981" lon="9.521671973442867"><ele>69.0</ele><time>2026-04-04T15:09:08Z</time></trkpt><trkpt lat="39.15184510889777" lon="9.521459377426513"><ele>69.0</ele><time>2026-04-04T15:09:09Z</time></trkpt><trkpt lat="39.151909643714774" lon="9.521233879599356"><ele>69.0</ele><time>2026-04-04T15:09:10Z</time></trkpt><trkpt lat="39.15195634421164" lon="9.520992465240894"><ele>69.0</ele><time>2026-04-04T15:09:11Z</time></trkpt><trkpt lat="39.15198376230018" lon="9.520738741440132"><ele>68.0</ele><time>2026-04-04T15:09:12Z</time></trkpt><trkpt lat="39.1519962502208" lon="9.520470666321309"><ele>67.0</ele><time>2026-04-04T15:09:13Z</time></trkpt><trkpt lat="39.15200210791279" lon="9.520194533589017"><ele>66.0</ele><time>2026-04-04T15:09:14Z</time></trkpt><trkpt lat="39.152012307746446" lon="9.519937892643407"><ele>62.33333333333333</ele><time>2026-04-04T15:09:15Z</time></trkpt><trkpt lat="39.152033602352994" lon="9.5196909437888"><ele>58.666666666666664</ele><time>2026-04-04T15:09:16Z</time></trkpt><trkpt lat="39.152070793300965" lon="9.519442221654035"><ele>55.0</ele><time>2026-04-04T15:09:17Z</time></trkpt><trkpt lat="39.15211997199101" lon="9.519198782214557"><ele>52.33333333333333</ele><time>2026-04-04T15:09:18Z</time></trkpt><trkpt lat="39.15218262683697" lon="9.518950969631177"><ele>49.666666666666664</ele><time>2026-04-04T15:09:19Z</time></trkpt><trkpt lat="39.152259945098436" lon="9.518707675045956"><ele>47.0</ele><time>2026-04-04T15:09:20Z</time></trkpt><trkpt lat="39.15235431577704" lon="9.518469904412417"><ele>45.666666666666664</ele><time>2026-04-04T15:09:21Z</time></trkpt><trkpt lat="39.152462095028454" lon="9.518241961443735"><ele>44.333333333333336</ele><time>2026-04-04T15:09:22Z</time></trkpt><trkpt lat="39.15257465980111" lon="9.518036124751472"><ele>43.0</ele><time>2026-04-04T15:09:23Z</time></trkpt><trkpt lat="39.152690962656834" lon="9.517849783283623"><ele>43.0</ele><time>2026-04-04T15:09:24Z</time></trkpt><trkpt lat="39.152815174714945" lon="9.517677162222611"><ele>43.0</ele><time>2026-04-04T15:09:25Z</time></trkpt><trkpt lat="39.1529431410141" lon="9.517520650464878"><ele>43.0</ele><time>2026-04-04T15:09:26Z</time></trkpt><trkpt lat="39.153074748926535" lon="9.51737204053697"><ele>43.0</ele><time>2026-04-04T15:09:27Z</time></trkpt><trkpt lat="39.15319972684928" lon="9.517232228302701"><ele>43.0</ele><time>2026-04-04T15:09:28Z</time></trkpt><trkpt lat="39.15331585993866" lon="9.517097372013046"><ele>43.0</ele><time>2026-04-04T15:09:29Z</time></trkpt><trkpt lat="39.15342146449016" lon="9.516974269060244"><ele>42.4</ele><time>2026-04-04T15:09:30Z</time></trkpt><trkpt lat="39.153522621537746" lon="9.516860232797251"><ele>41.8</ele><time>2026-04-04T15:09:31Z</time></trkpt><trkpt lat="39.1536086423903" lon="9.516766429244157"><ele>41.2</ele><time>2026-04-04T15:09:32Z</time></trkpt><trkpt lat="39.15368505080947" lon="9.516684469399447"><ele>40.6</ele><time>2026-04-04T15:09:33Z</time></trkpt><trkpt lat="39.15375581643467" lon="9.516605510674225"><ele>40.0</ele><time>2026-04-04T15:09:34Z</time></trkpt><trkpt lat="39.153808956600336" lon="9.516514265007416"><ele>40.0</ele><time>2026-04-04T15:09:35Z</time></trkpt><trkpt lat="39.15382457441377" lon="9.516408940849521"><ele>40.0</ele><time>2026-04-04T15:09:36Z</time></trkpt><trkpt lat="39.15380438575444" lon="9.516304097257747"><ele>40.0</ele><time>2026-04-04T15:09:37Z</time></trkpt><trkpt lat="39.15375072095451" lon="9.516215117287073"><ele>40.0</ele><time>2026-04-04T15:09:38Z</time></trkpt><trkpt lat="39.15367152576068" lon="9.516157961636134"><ele>40.0</ele><time>2026-04-04T15:09:39Z</time></trkpt><trkpt lat="39.1535648445334" lon="9.516127797469073"><ele>38.5</ele><time>2026-04-04T15:09:40Z</time></trkpt><trkpt lat="39.15343897767521" lon="9.516110461670204"><ele>37.0</ele><time>2026-04-04T15:09:41Z</time></trkpt><trkpt lat="39.15329613902008" lon="9.51608055355318"><ele>35.5</ele><time>2026-04-04T15:09:42Z</time></trkpt><trkpt lat="39.15313498047917" lon="9.516050164683183"><ele>34.0</ele><time>2026-04-04T15:09:43Z</time></trkpt><trkpt lat="39.15296460026214" lon="9.515930083295437"><ele>34.0</ele><time>2026-04-04T15:09:44Z</time></trkpt><trkpt lat="39.15280485357398" lon="9.515836107781313"><ele>34.0</ele><time>2026-04-04T15:09:45Z</time></trkpt><trkpt lat="39.15264610706336" lon="9.515728984962402"><ele>34.0</ele><time>2026-04-04T15:09:46Z</time></trkpt><trkpt lat="39.152477868248795" lon="9.515600714883393"><ele>34.66666666666667</ele><time>2026-04-04T15:09:47Z</time></trkpt><trkpt lat="39.152296527272064" lon="9.51545054205609"><ele>35.333333333333336</ele><time>2026-04-04T15:09:48Z</time></trkpt><trkpt lat="39.15212455167575" lon="9.515300628182452"><ele>36.0</ele><time>2026-04-04T15:09:49Z</time></trkpt><trkpt lat="39.151968064136966" lon="9.515158689066254"><ele>34.666666666666664</ele><time>2026-04-04T15:09:50Z</time></trkpt><trkpt lat="39.1518215132324" lon="9.515014780447641"><ele>33.33333333333333</ele><time>2026-04-04T15:09:51Z</time></trkpt><trkpt lat="39.151686228576175" lon="9.514877979146359"><ele>32.0</ele><time>2026-04-04T15:09:52Z</time></trkpt><trkpt lat="39.15155744171935" lon="9.514747748490889"><ele>32.33333333333333</ele><time>2026-04-04T15:09:53Z</time></trkpt><trkpt lat="39.151435505537094" lon="9.51462444537788"><ele>32.666666666666664</ele><time>2026-04-04T15:09:54Z</time></trkpt><trkpt lat="39.15131729005508" lon="9.514504842380521"><ele>33.0</ele><time>2026-04-04T15:09:55Z</time></trkpt><trkpt lat="39.15119156830621" lon="9.514378834113662"><ele>32.333333333333336</ele><time>2026-04-04T15:09:56Z</time></trkpt><trkpt lat="39.15105837031774" lon="9.51424496872088"><ele>31.666666666666668</ele><time>2026-04-04T15:09:57Z</time></trkpt><trkpt lat="39.15091340123364" lon="9.514099111236343"><ele>31.0</ele><time>2026-04-04T15:09:58Z</time></trkpt><trkpt lat="39.15075543403049" lon="9.513964821860467"><ele>31.0</ele><time>2026-04-04T15:09:59Z</time></trkpt><trkpt lat="39.150598911847545" lon="9.51380156858484"><ele>31.0</ele><time>2026-04-04T15:10:00Z</time></trkpt><trkpt lat="39.150436540441696" lon="9.513640358926809"><ele>31.0</ele><time>2026-04-04T15:10:01Z</time></trkpt><trkpt lat="39.1502840330348" lon="9.513490130583685"><ele>30.25</ele><time>2026-04-04T15:10:02Z</time></trkpt><trkpt lat="39.15015242094713" lon="9.513358821392595"><ele>29.5</ele><time>2026-04-04T15:10:03Z</time></trkpt><trkpt lat="39.150037534481385" lon="9.513246537432938"><ele>28.75</ele><time>2026-04-04T15:10:04Z</time></trkpt><trkpt lat="39.149938476844085" lon="9.513167168916144"><ele>28.0</ele><time>2026-04-04T15:10:05Z</time></trkpt><trkpt lat="39.14984267434109" lon="9.51313967051435"><ele>27.75</ele><time>2026-04-04T15:10:06Z</time></trkpt><trkpt lat="39.149753752541926" lon="9.513176975994933"><ele>27.5</ele><time>2026-04-04T15:10:07Z</time></trkpt><trkpt lat="39.14967098144725" lon="9.513262527990133"><ele>27.25</ele><time>2026-04-04T15:10:08Z</time></trkpt><trkpt lat="39.149577239739955" lon="9.513375409835264"><ele>27.0</ele><time>2026-04-04T15:10:09Z</time></trkpt><trkpt lat="39.1494620985168" lon="9.513467218967438"><ele>27.0</ele><time>2026-04-04T15:10:10Z</time></trkpt><trkpt lat="39.14933856510347" lon="9.51357480816455"><ele>27.0</ele><time>2026-04-04T15:10:11Z</time></trkpt><trkpt lat="39.149207573057524" lon="9.513689699221883"><ele>27.0</ele><time>2026-04-04T15:10:12Z</time></trkpt><trkpt lat="39.14907841670889" lon="9.51380317590545"><ele>27.0</ele><time>2026-04-04T15:10:13Z</time></trkpt><trkpt lat="39.14895671430622" lon="9.513915222417314"><ele>27.0</ele><time>2026-04-04T15:10:14Z</time></trkpt><trkpt lat="39.14884843938055" lon="9.514015442296053"><ele>27.0</ele><time>2026-04-04T15:10:15Z</time></trkpt><trkpt lat="39.14874579503981" lon="9.5141104288079"><ele>27.0</ele><time>2026-04-04T15:10:16Z</time></trkpt><trkpt lat="39.14865383016483" lon="9.514192521135055"><ele>27.0</ele><time>2026-04-04T15:10:17Z</time></trkpt><trkpt lat="39.148560552571574" lon="9.514273734641916"><ele>27.0</ele><time>2026-04-04T15:10:18Z</time></trkpt><trkpt lat="39.148464315964894" lon="9.514363017695581"><ele>27.0</ele><time>2026-04-04T15:10:19Z</time></trkpt><trkpt lat="39.14837202859228" lon="9.514448883564416"><ele>27.0</ele><time>2026-04-04T15:10:20Z</time></trkpt><trkpt lat="39.14827885148758" lon="9.514531746931864"><ele>27.400000000000002</ele><time>2026-04-04T15:10:21Z</time></trkpt><trkpt lat="39.14818791040537" lon="9.514618740306975"><ele>27.800000000000004</ele><time>2026-04-04T15:10:22Z</time></trkpt><trkpt lat="39.14809696602484" lon="9.514703131206852"><ele>28.2</ele><time>2026-04-04T15:10:23Z</time></trkpt><trkpt lat="39.14800552529454" lon="9.514781968332771"><ele>28.6</ele><time>2026-04-04T15:10:24Z</time></trkpt><trkpt lat="39.14791899675886" lon="9.514841114590173"><ele>29.0</ele><time>2026-04-04T15:10:25Z</time></trkpt><trkpt lat="39.14783249243653" lon="9.514869812172355"><ele>29.0</ele><time>2026-04-04T15:10:26Z</time></trkpt><trkpt lat="39.14773942992655" lon="9.51486922859428"><ele>29.0</ele><time>2026-04-04T15:10:27Z</time></trkpt><trkpt lat="39.147643014617735" lon="9.514831182136446"><ele>29.0</ele><time>2026-04-04T15:10:28Z</time></trkpt><trkpt lat="39.14754356282866" lon="9.514762445773782"><ele>29.0</ele><time>2026-04-04T15:10:29Z</time></trkpt><trkpt lat="39.14745187532871" lon="9.514661798406742"><ele>29.0</ele><time>2026-04-04T15:10:30Z</time></trkpt><trkpt lat="39.14738090271227" lon="9.514521492385116"><ele>29.5</ele><time>2026-04-04T15:10:31Z</time></trkpt><trkpt lat="39.14729394280377" lon="9.514387424537858"><ele>30.0</ele><time>2026-04-04T15:10:32Z</time></trkpt><trkpt lat="39.14720444301307" lon="9.514247896924156"><ele>30.5</ele><time>2026-04-04T15:10:33Z</time></trkpt><trkpt lat="39.14711195641932" lon="9.514104467294509"><ele>31.0</ele><time>2026-04-04T15:10:34Z</time></trkpt><trkpt lat="39.14701651778708" lon="9.513955299182646"><ele>31.0</ele><time>2026-04-04T15:10:35Z</time></trkpt><trkpt lat="39.146904829361155" lon="9.513811076838342"><ele>31.0</ele><time>2026-04-04T15:10:36Z</time></trkpt><trkpt lat="39.1468066944194" lon="9.513655904487267"><ele>31.0</ele><time>2026-04-04T15:10:37Z</time></trkpt><trkpt lat="39.146709305568045" lon="9.513505906981147"><ele>30.75</ele><time>2026-04-04T15:10:38Z</time></trkpt><trkpt lat="39.14661807159276" lon="9.513366862894092"><ele>30.5</ele><time>2026-04-04T15:10:39Z</time></trkpt><trkpt lat="39.14654498871211" lon="9.513219602906066"><ele>30.25</ele><time>2026-04-04T15:10:40Z</time></trkpt><trkpt lat="39.14646472121967" lon="9.513094486813324"><ele>30.0</ele><time>2026-04-04T15:10:41Z</time></trkpt><trkpt lat="39.14639002269515" lon="9.51297805129135"><ele>29.75</ele><time>2026-04-04T15:10:42Z</time></trkpt><trkpt lat="39.14631576573332" lon="9.512862304050062"><ele>29.5</ele><time>2026-04-04T15:10:43Z</time></trkpt><trkpt lat="39.14624063030311" lon="9.512745187672417"><ele>29.25</ele><time>2026-04-04T15:10:44Z</time></trkpt><trkpt lat="39.146149672926086" lon="9.512633314335421"><ele>29.0</ele><time>2026-04-04T15:10:45Z</time></trkpt><trkpt lat="39.146074274852474" lon="9.512505340798148"><ele>29.0</ele><time>2026-04-04T15:10:46Z</time></trkpt><trkpt lat="39.14599940498872" lon="9.512376107541865"><ele>29.0</ele><time>2026-04-04T15:10:47Z</time></trkpt><trkpt lat="39.14592311266976" lon="9.512246797163087"><ele>29.0</ele><time>2026-04-04T15:10:48Z</time></trkpt><trkpt lat="39.145851227914484" lon="9.512116562606751"><ele>29.0</ele><time>2026-04-04T15:10:49Z</time></trkpt><trkpt lat="39.14580976396437" lon="9.51196610709962"><ele>28.0</ele><time>2026-04-04T15:10:50Z</time></trkpt><trkpt lat="39.14575513146131" lon="9.51182489012337"><ele>27.0</ele><time>2026-04-04T15:10:51Z</time></trkpt><trkpt lat="39.14575057003184" lon="9.511668431637789"><ele>26.0</ele><time>2026-04-04T15:10:52Z</time></trkpt><trkpt lat="39.1457390038042" lon="9.511519303537732"><ele>25.0</ele><time>2026-04-04T15:10:53Z</time></trkpt><trkpt lat="39.14573441109389" lon="9.511367623945118"><ele>24.5</ele><time>2026-04-04T15:10:54Z</time></trkpt><trkpt lat="39.14573151141846" lon="9.511211922193997"><ele>24.0</ele><time>2026-04-04T15:10:55Z</time></trkpt><trkpt lat="39.145729722222825" lon="9.511050927774377"><ele>23.5</ele><time>2026-04-04T15:10:56Z</time></trkpt><trkpt lat="39.14572831701021" lon="9.5109026778205"><ele>23.0</ele><time>2026-04-04T15:10:57Z</time></trkpt><trkpt lat="39.14572675158936" lon="9.510737525902602"><ele>23.0</ele><time>2026-04-04T15:10:58Z</time></trkpt><trkpt lat="39.14572502200604" lon="9.51055505394934"><ele>23.0</ele><time>2026-04-04T15:10:59Z</time></trkpt><trkpt lat="39.14572014865436" lon="9.510354061080855"><ele>23.0</ele><time>2026-04-04T15:11:00Z</time></trkpt><trkpt lat="39.145709563798206" lon="9.51014439420344"><ele>27.333333333333336</ele><time>2026-04-04T15:11:01Z</time></trkpt><trkpt lat="39.145691281783485" lon="9.509917980855777"><ele>31.666666666666668</ele><time>2026-04-04T15:11:02Z</time></trkpt><trkpt lat="39.14566726610407" lon="9.509668131652898"><ele>36.0</ele><time>2026-04-04T15:11:03Z</time></trkpt><trkpt lat="39.145636880126034" lon="9.509382987953153"><ele>35.5</ele><time>2026-04-04T15:11:04Z</time></trkpt><trkpt lat="39.14560051365195" lon="9.509062903463727"><ele>35.0</ele><time>2026-04-04T15:11:05Z</time></trkpt><trkpt lat="39.14556295026276" lon="9.508738043960493"><ele>35.0</ele><time>2026-04-04T15:11:06Z</time></trkpt><trkpt lat="39.14552780071478" lon="9.508428124213037"><ele>35.0</ele><time>2026-04-04T15:11:07Z</time></trkpt><trkpt lat="39.145502596990944" lon="9.508200496570339"><ele>35.0</ele><time>2026-04-04T15:11:08Z</time></trkpt><trkpt lat="39.14547218869342" lon="9.507913237307129"><ele>33.666666666666664</ele><time>2026-04-04T15:11:09Z</time></trkpt><trkpt lat="39.145451871048934" lon="9.507650420084849"><ele>32.333333333333336</ele><time>2026-04-04T15:11:10Z</time></trkpt><trkpt lat="39.14544676386044" lon="9.507405423362567"><ele>31.0</ele><time>2026-04-04T15:11:11Z</time></trkpt><trkpt lat="39.145449675085175" lon="9.507176766745514"><ele>29.75</ele><time>2026-04-04T15:11:12Z</time></trkpt><trkpt lat="39.14547220197718" lon="9.50697814774795"><ele>28.5</ele><time>2026-04-04T15:11:13Z</time></trkpt><trkpt lat="39.14550805635126" lon="9.506796429675624"><ele>27.25</ele><time>2026-04-04T15:11:14Z</time></trkpt><trkpt lat="39.145551965858395" lon="9.506628288488875"><ele>26.0</ele><time>2026-04-04T15:11:15Z</time></trkpt><trkpt lat="39.14560603378344" lon="9.506477124195628"><ele>26.0</ele><time>2026-04-04T15:11:16Z</time></trkpt><trkpt lat="39.14564287808738" lon="9.506323430478455"><ele>26.0</ele><time>2026-04-04T15:11:17Z</time></trkpt><trkpt lat="39.14568145756923" lon="9.506188773435168"><ele>26.0</ele><time>2026-04-04T15:11:18Z</time></trkpt><trkpt lat="39.145685100640364" lon="9.50604885901279"><ele>26.0</ele><time>2026-04-04T15:11:19Z</time></trkpt><trkpt lat="39.145658337006196" lon="9.505916258134778"><ele>24.75</ele><time>2026-04-04T15:11:20Z</time></trkpt><trkpt lat="39.14561002964383" lon="9.505790904546226"><ele>23.5</ele><time>2026-04-04T15:11:21Z</time></trkpt><trkpt lat="39.14553220846023" lon="9.505659666439797"><ele>22.25</ele><time>2026-04-04T15:11:22Z</time></trkpt><trkpt lat="39.145445128217574" lon="9.505513865839998"><ele>21.0</ele><time>2026-04-04T15:11:23Z</time></trkpt><trkpt lat="39.145355249120975" lon="9.505354389894897"><ele>20.0</ele><time>2026-04-04T15:11:24Z</time></trkpt><trkpt lat="39.145267926423365" lon="9.505188229219739"><ele>19.0</ele><time>2026-04-04T15:11:25Z</time></trkpt><trkpt lat="39.14517769715701" lon="9.505014668098992"><ele>18.0</ele><time>2026-04-04T15:11:26Z</time></trkpt><trkpt lat="39.14508627955771" lon="9.504846737059637"><ele>18.0</ele><time>2026-04-04T15:11:27Z</time></trkpt><trkpt lat="39.145012963789554" lon="9.50470670203639"><ele>18.0</ele><time>2026-04-04T15:11:28Z</time></trkpt><trkpt lat="39.144943512251295" lon="9.504570318107493"><ele>18.0</ele><time>2026-04-04T15:11:29Z</time></trkpt><trkpt lat="39.14491023392863" lon="9.50442737776504"><ele>18.0</ele><time>2026-04-04T15:11:30Z</time></trkpt><trkpt lat="39.14488623417186" lon="9.504310531771136"><ele>17.833333333333332</ele><time>2026-04-04T15:11:31Z</time></trkpt><trkpt lat="39.14488222161618" lon="9.504186765612362"><ele>17.666666666666668</ele><time>2026-04-04T15:11:32Z</time></trkpt><trkpt lat="39.14487838786903" lon="9.504067179579662"><ele>17.5</ele><time>2026-04-04T15:11:33Z</time></trkpt><trkpt lat="39.14487615740755" lon="9.503957348463814"><ele>17.333333333333336</ele><time>2026-04-04T15:11:34Z</time></trkpt><trkpt lat="39.144875144997734" lon="9.50385617279163"><ele>17.166666666666668</ele><time>2026-04-04T15:11:35Z</time></trkpt><trkpt lat="39.144874198719194" lon="9.503761605990055"><ele>17.0</ele><time>2026-04-04T15:11:36Z</time></trkpt><trkpt lat="39.144873254737135" lon="9.50366726876339"><ele>17.333333333333336</ele><time>2026-04-04T15:11:37Z</time></trkpt><trkpt lat="39.1448718122195" lon="9.503584470445908"><ele>17.666666666666668</ele><time>2026-04-04T15:11:38Z</time></trkpt><trkpt lat="39.14487049486623" lon="9.503499022960023"><ele>18.0</ele><time>2026-04-04T15:11:39Z</time></trkpt><trkpt lat="39.14486906929359" lon="9.503406555970937"><ele>18.333333333333332</ele><time>2026-04-04T15:11:40Z</time></trkpt><trkpt lat="39.14486755074914" lon="9.503308058581176"><ele>18.666666666666664</ele><time>2026-04-04T15:11:41Z</time></trkpt><trkpt lat="39.1448662638771" lon="9.503198245806086"><ele>19.0</ele><time>2026-04-04T15:11:42Z</time></trkpt><trkpt lat="39.14486479420515" lon="9.503085816210746"><ele>19.0</ele><time>2026-04-04T15:11:43Z</time></trkpt><trkpt lat="39.144863161983615" lon="9.502988356803094"><ele>19.0</ele><time>2026-04-04T15:11:44Z</time></trkpt><trkpt lat="39.14486157286803" lon="9.502830230680297"><ele>19.0</ele><time>2026-04-04T15:11:46Z</time></trkpt><trkpt lat="39.14487452375868" lon="9.502689845539303"><ele>19.0</ele><time>2026-04-04T15:11:48Z</time></trkpt><trkpt lat="39.1448586194561" lon="9.502574036586374"><ele>19.0</ele><time>2026-04-04T15:11:50Z</time></trkpt><trkpt lat="39.144856411598" lon="9.502406220450748"><ele>18.25</ele><time>2026-04-04T15:11:52Z</time></trkpt><trkpt lat="39.144854734737244" lon="9.502250949545399"><ele>17.5</ele><time>2026-04-04T15:11:53Z</time></trkpt><trkpt lat="39.14485263123473" lon="9.502056174126851"><ele>16.75</ele><time>2026-04-04T15:11:54Z</time></trkpt><trkpt lat="39.1448501232882" lon="9.501867403059638"><ele>16.0</ele><time>2026-04-04T15:11:55Z</time></trkpt><trkpt lat="39.144825503433324" lon="9.501667307176875"><ele>15.666666666666666</ele><time>2026-04-04T15:11:56Z</time></trkpt><trkpt lat="39.14482399844726" lon="9.501453331731835"><ele>15.333333333333332</ele><time>2026-04-04T15:11:57Z</time></trkpt><trkpt lat="39.144823685560254" lon="9.501259109776445"><ele>15.0</ele><time>2026-04-04T15:11:58Z</time></trkpt><trkpt lat="39.144824671697975" lon="9.501074096757643"><ele>15.0</ele><time>2026-04-04T15:11:59Z</time></trkpt><trkpt lat="39.144823212421606" lon="9.500867069113548"><ele>15.0</ele><time>2026-04-04T15:12:00Z</time></trkpt><trkpt lat="39.14483895026155" lon="9.500647013505333"><ele>15.0</ele><time>2026-04-04T15:12:01Z</time></trkpt><trkpt lat="39.144882393044306" lon="9.500423758282173"><ele>14.666666666666668</ele><time>2026-04-04T15:12:02Z</time></trkpt><trkpt lat="39.14494613320482" lon="9.500210751966579"><ele>14.333333333333334</ele><time>2026-04-04T15:12:03Z</time></trkpt><trkpt lat="39.145037528949494" lon="9.500022127936464"><ele>14.0</ele><time>2026-04-04T15:12:04Z</time></trkpt><trkpt lat="39.14508634769399" lon="9.499833472483912"><ele>14.0</ele><time>2026-04-04T15:12:05Z</time></trkpt><trkpt lat="39.14514307796754" lon="9.499663314836567"><ele>14.0</ele><time>2026-04-04T15:12:06Z</time></trkpt><trkpt lat="39.14519474416796" lon="9.499499455540285"><ele>14.0</ele><time>2026-04-04T15:12:07Z</time></trkpt><trkpt lat="39.14523206690349" lon="9.499342933839495"><ele>14.0</ele><time>2026-04-04T15:12:08Z</time></trkpt><trkpt lat="39.145246935351" lon="9.499175525030166"><ele>13.666666666666668</ele><time>2026-04-04T15:12:09Z</time></trkpt><trkpt lat="39.14523187350449" lon="9.498988299423669"><ele>13.333333333333332</ele><time>2026-04-04T15:12:10Z</time></trkpt><trkpt lat="39.14518792862874" lon="9.49879971917608"><ele>13.0</ele><time>2026-04-04T15:12:11Z</time></trkpt><trkpt lat="39.14510748146371" lon="9.498611308148417"><ele>12.666666666666666</ele><time>2026-04-04T15:12:12Z</time></trkpt><trkpt lat="39.14504035109179" lon="9.498376979549517"><ele>12.333333333333332</ele><time>2026-04-04T15:12:13Z</time></trkpt><trkpt lat="39.1449447814638" lon="9.498110221638505"><ele>12.0</ele><time>2026-04-04T15:12:14Z</time></trkpt><trkpt lat="39.1448428929502" lon="9.49782584499663"><ele>11.666666666666666</ele><time>2026-04-04T15:12:15Z</time></trkpt><trkpt lat="39.14475274415368" lon="9.49757546471253"><ele>11.333333333333332</ele><time>2026-04-04T15:12:16Z</time></trkpt><trkpt lat="39.14467993314868" lon="9.497374051621781"><ele>11.0</ele><time>2026-04-04T15:12:17Z</time></trkpt><trkpt lat="39.14461854461334" lon="9.497204235805084"><ele>10.75</ele><time>2026-04-04T15:12:18Z</time></trkpt><trkpt lat="39.144560641393596" lon="9.497044360078682"><ele>10.5</ele><time>2026-04-04T15:12:19Z</time></trkpt><trkpt lat="39.144499945623295" lon="9.496877365073242"><ele>10.25</ele><time>2026-04-04T15:12:20Z</time></trkpt><trkpt lat="39.14442918387171" lon="9.496682674511849"><ele>10.0</ele><time>2026-04-04T15:12:21Z</time></trkpt><trkpt lat="39.14434904095975" lon="9.496462173529267"><ele>10.5</ele><time>2026-04-04T15:12:22Z</time></trkpt><trkpt lat="39.14425597731698" lon="9.496205313758717"><ele>11.0</ele><time>2026-04-04T15:12:23Z</time></trkpt><trkpt lat="39.14415321450178" lon="9.495919643240734"><ele>11.0</ele><time>2026-04-04T15:12:24Z</time></trkpt><trkpt lat="39.14405192417871" lon="9.495638066624625"><ele>11.0</ele><time>2026-04-04T15:12:25Z</time></trkpt><trkpt lat="39.14394904143392" lon="9.495352543991672"><ele>10.666666666666666</ele><time>2026-04-04T15:12:26Z</time></trkpt><trkpt lat="39.14385110187411" lon="9.495083253154919"><ele>10.333333333333334</ele><time>2026-04-04T15:12:27Z</time></trkpt><trkpt lat="39.143771183892746" lon="9.494863513876359"><ele>10.0</ele><time>2026-04-04T15:12:28Z</time></trkpt><trkpt lat="39.14369443874999" lon="9.494655494221194"><ele>9.333333333333334</ele><time>2026-04-04T15:12:29Z</time></trkpt><trkpt lat="39.14361352589114" lon="9.494438379272982"><ele>8.666666666666666</ele><time>2026-04-04T15:12:30Z</time></trkpt><trkpt lat="39.14352773163989" lon="9.494225645993279"><ele>8.0</ele><time>2026-04-04T15:12:31Z</time></trkpt><trkpt lat="39.14341539850798" lon="9.494030358811406"><ele>8.0</ele><time>2026-04-04T15:12:32Z</time></trkpt><trkpt lat="39.14331517175348" lon="9.493783839025491"><ele>8.0</ele><time>2026-04-04T15:12:33Z</time></trkpt><trkpt lat="39.14318200214858" lon="9.493516577547041"><ele>8.5</ele><time>2026-04-04T15:12:34Z</time></trkpt><trkpt lat="39.143041994325166" lon="9.49323559228265"><ele>9.0</ele><time>2026-04-04T15:12:35Z</time></trkpt><trkpt lat="39.142889802797804" lon="9.492930155211981"><ele>8.5</ele><time>2026-04-04T15:12:36Z</time></trkpt><trkpt lat="39.1427318316973" lon="9.492612222651259"><ele>8.0</ele><time>2026-04-04T15:12:37Z</time></trkpt><trkpt lat="39.142566850159994" lon="9.49227989494877"><ele>8.0</ele><time>2026-04-04T15:12:38Z</time></trkpt><trkpt lat="39.142402531016224" lon="9.49194744962568"><ele>8.0</ele><time>2026-04-04T15:12:39Z</time></trkpt><trkpt lat="39.14224059358543" lon="9.491620850784086"><ele>8.0</ele><time>2026-04-04T15:12:40Z</time></trkpt><trkpt lat="39.142076622128705" lon="9.491291808443883"><ele>8.0</ele><time>2026-04-04T15:12:41Z</time></trkpt><trkpt lat="39.14192082218086" lon="9.49097933489796"><ele>9.0</ele><time>2026-04-04T15:12:42Z</time></trkpt><trkpt lat="39.14177519826819" lon="9.490686867712222"><ele>10.0</ele><time>2026-04-04T15:12:43Z</time></trkpt><trkpt lat="39.141635220370596" lon="9.490405373725903"><ele>9.5</ele><time>2026-04-04T15:12:44Z</time></trkpt><trkpt lat="39.141489986934815" lon="9.490157126320003"><ele>9.0</ele><time>2026-04-04T15:12:45Z</time></trkpt><trkpt lat="39.14137149250533" lon="9.489927533936752"><ele>9.0</ele><time>2026-04-04T15:12:46Z</time></trkpt><trkpt lat="39.1412503682808" lon="9.489725930283642"><ele>9.0</ele><time>2026-04-04T15:12:47Z</time></trkpt><trkpt lat="39.141113505475694" lon="9.489541201942112"><ele>9.0</ele><time>2026-04-04T15:12:48Z</time></trkpt><trkpt lat="39.14095505873412" lon="9.489354262283964"><ele>9.333333333333334</ele><time>2026-04-04T15:12:49Z</time></trkpt><trkpt lat="39.1407909893626" lon="9.489162175479635"><ele>9.666666666666668</ele><time>2026-04-04T15:12:50Z</time></trkpt><trkpt lat="39.140626580846366" lon="9.488969206954494"><ele>10.0</ele><time>2026-04-04T15:12:51Z</time></trkpt><trkpt lat="39.14047441169225" lon="9.48878882419088"><ele>10.333333333333334</ele><time>2026-04-04T15:12:52Z</time></trkpt><trkpt lat="39.140327141992955" lon="9.488612669023313"><ele>10.666666666666666</ele><time>2026-04-04T15:12:53Z</time></trkpt><trkpt lat="39.14017410275792" lon="9.488429267633538"><ele>11.0</ele><time>2026-04-04T15:12:54Z</time></trkpt><trkpt lat="39.14001663576634" lon="9.488244464998404"><ele>10.0</ele><time>2026-04-04T15:12:55Z</time></trkpt><trkpt lat="39.13985975166678" lon="9.488062031932204"><ele>9.0</ele><time>2026-04-04T15:12:56Z</time></trkpt><trkpt lat="39.13971468798408" lon="9.48789213783709"><ele>8.0</ele><time>2026-04-04T15:12:57Z</time></trkpt><trkpt lat="39.139581663343044" lon="9.487741085680316"><ele>8.0</ele><time>2026-04-04T15:12:58Z</time></trkpt><trkpt lat="39.13946046286209" lon="9.48760060074323"><ele>8.0</ele><time>2026-04-04T15:12:59Z</time></trkpt><trkpt lat="39.13934660321633" lon="9.48746754609603"><ele>8.0</ele><time>2026-04-04T15:13:00Z</time></trkpt><trkpt lat="39.13924654062913" lon="9.487343004143243"><ele>8.0</ele><time>2026-04-04T15:13:01Z</time></trkpt><trkpt lat="39.13915689586056" lon="9.487239760896708"><ele>8.0</ele><time>2026-04-04T15:13:02Z</time></trkpt><trkpt lat="39.13907535456435" lon="9.487144802208592"><ele>8.0</ele><time>2026-04-04T15:13:03Z</time></trkpt><trkpt lat="39.1389898793072" lon="9.48704314733817"><ele>8.0</ele><time>2026-04-04T15:13:04Z</time></trkpt><trkpt lat="39.13889382072903" lon="9.486927529129902"><ele>7.666666666666666</ele><time>2026-04-04T15:13:05Z</time></trkpt><trkpt lat="39.13878813124912" lon="9.48680163478458"><ele>7.333333333333334</ele><time>2026-04-04T15:13:06Z</time></trkpt><trkpt lat="39.13866958855803" lon="9.486667283872766"><ele>7.0</ele><time>2026-04-04T15:13:07Z</time></trkpt><trkpt lat="39.138554399024656" lon="9.48650483036132"><ele>7.0</ele><time>2026-04-04T15:13:08Z</time></trkpt><trkpt lat="39.13842158536915" lon="9.486375821267993"><ele>7.0</ele><time>2026-04-04T15:13:09Z</time></trkpt><trkpt lat="39.1383223443623" lon="9.48623255892839"><ele>7.0</ele><time>2026-04-04T15:13:10Z</time></trkpt><trkpt lat="39.13821795194513" lon="9.48611000954537"><ele>7.0</ele><time>2026-04-04T15:13:11Z</time></trkpt><trkpt lat="39.13810205397157" lon="9.485973566255534"><ele>7.0</ele><time>2026-04-04T15:13:12Z</time></trkpt><trkpt lat="39.137974630182995" lon="9.48582355400076"><ele>7.0</ele><time>2026-04-04T15:13:13Z</time></trkpt><trkpt lat="39.13784118528312" lon="9.485666070375167"><ele>7.0</ele><time>2026-04-04T15:13:14Z</time></trkpt><trkpt lat="39.13769994917827" lon="9.485499470126737"><ele>7.0</ele><time>2026-04-04T15:13:15Z</time></trkpt><trkpt lat="39.13755232481626" lon="9.485325334375041"><ele>7.0</ele><time>2026-04-04T15:13:16Z</time></trkpt><trkpt lat="39.13741109390023" lon="9.485161951722658"><ele>6.666666666666667</ele><time>2026-04-04T15:13:17Z</time></trkpt><trkpt lat="39.13727720261656" lon="9.485008056562164"><ele>6.333333333333334</ele><time>2026-04-04T15:13:18Z</time></trkpt><trkpt lat="39.137165684351956" lon="9.484872618544403"><ele>6.0</ele><time>2026-04-04T15:13:19Z</time></trkpt><trkpt lat="39.13706679640839" lon="9.484740916410756"><ele>6.25</ele><time>2026-04-04T15:13:20Z</time></trkpt><trkpt lat="39.136989515901014" lon="9.48459500733966"><ele>6.5</ele><time>2026-04-04T15:13:21Z</time></trkpt><trkpt lat="39.13695630428219" lon="9.484421965432855"><ele>6.75</ele><time>2026-04-04T15:13:22Z</time></trkpt><trkpt lat="39.13694260771069" lon="9.484224210303921"><ele>7.0</ele><time>2026-04-04T15:13:23Z</time></trkpt><trkpt lat="39.13694206265411" lon="9.48400495807168"><ele>7.0</ele><time>2026-04-04T15:13:24Z</time></trkpt><trkpt lat="39.136932474357984" lon="9.483775217711436"><ele>7.0</ele><time>2026-04-04T15:13:25Z</time></trkpt><trkpt lat="39.13693987571785" lon="9.48356485116889"><ele>7.0</ele><time>2026-04-04T15:13:26Z</time></trkpt><trkpt lat="39.136930528686484" lon="9.483380689381667"><ele>8.5</ele><time>2026-04-04T15:13:27Z</time></trkpt><trkpt lat="39.136895979030164" lon="9.483210778570902"><ele>10.0</ele><time>2026-04-04T15:13:28Z</time></trkpt><trkpt lat="39.13684225529871" lon="9.483061476276854"><ele>11.5</ele><time>2026-04-04T15:13:29Z</time></trkpt><trkpt lat="39.13676913363165" lon="9.48292877729029"><ele>13.0</ele><time>2026-04-04T15:13:30Z</time></trkpt><trkpt lat="39.136666579808725" lon="9.482811055534267"><ele>13.5</ele><time>2026-04-04T15:13:31Z</time></trkpt><trkpt lat="39.136534956716915" lon="9.482721806723646"><ele>14.0</ele><time>2026-04-04T15:13:32Z</time></trkpt><trkpt lat="39.13639508564969" lon="9.482652870429556"><ele>14.5</ele><time>2026-04-04T15:13:33Z</time></trkpt><trkpt lat="39.136290450229055" lon="9.482562017158992"><ele>15.0</ele><time>2026-04-04T15:13:34Z</time></trkpt><trkpt lat="39.136184982786105" lon="9.48247490434367"><ele>15.0</ele><time>2026-04-04T15:13:35Z</time></trkpt><trkpt lat="39.13612184709978" lon="9.482312473676409"><ele>15.0</ele><time>2026-04-04T15:13:36Z</time></trkpt><trkpt lat="39.13605149833354" lon="9.482149880879435"><ele>15.0</ele><time>2026-04-04T15:13:37Z</time></trkpt><trkpt lat="39.13597160618436" lon="9.48202348965284"><ele>15.0</ele><time>2026-04-04T15:13:38Z</time></trkpt><trkpt lat="39.13589857849378" lon="9.481924913521878"><ele>15.2</ele><time>2026-04-04T15:13:39Z</time></trkpt><trkpt lat="39.13581860564473" lon="9.48186043093992"><ele>15.4</ele><time>2026-04-04T15:13:40Z</time></trkpt><trkpt lat="39.13576611773586" lon="9.481770923526408"><ele>15.600000000000001</ele><time>2026-04-04T15:13:41Z</time></trkpt><trkpt lat="39.135708973346254" lon="9.481665756902668"><ele>15.8</ele><time>2026-04-04T15:13:42Z</time></trkpt><trkpt lat="39.13569005155014" lon="9.481533949415606"><ele>16.0</ele><time>2026-04-04T15:13:43Z</time></trkpt><trkpt lat="39.135693408811264" lon="9.48139198535861"><ele>20.25</ele><time>2026-04-04T15:13:44Z</time></trkpt><trkpt lat="39.1357306592631" lon="9.481253501546366"><ele>24.5</ele><time>2026-04-04T15:13:45Z</time></trkpt><trkpt lat="39.13576120575541" lon="9.481105497868775"><ele>28.75</ele><time>2026-04-04T15:13:46Z</time></trkpt><trkpt lat="39.13578533171494" lon="9.480938314100406"><ele>33.0</ele><time>2026-04-04T15:13:47Z</time></trkpt><trkpt lat="39.135821752749045" lon="9.480789339791391"><ele>33.0</ele><time>2026-04-04T15:13:48Z</time></trkpt><trkpt lat="39.13584432381393" lon="9.48064176698427"><ele>33.0</ele><time>2026-04-04T15:13:49Z</time></trkpt><trkpt lat="39.135847503244214" lon="9.480506305291481"><ele>33.0</ele><time>2026-04-04T15:13:50Z</time></trkpt><trkpt lat="39.135827132397296" lon="9.480392938061778"><ele>33.0</ele><time>2026-04-04T15:13:51Z</time></trkpt><trkpt lat="39.13578980431527" lon="9.480279683662836"><ele>33.0</ele><time>2026-04-04T15:13:52Z</time></trkpt><trkpt lat="39.13573003619926" lon="9.480172841839849"><ele>34.599999999999994</ele><time>2026-04-04T15:13:53Z</time></trkpt><trkpt lat="39.13564731382773" lon="9.48008607741809"><ele>36.199999999999996</ele><time>2026-04-04T15:13:54Z</time></trkpt><trkpt lat="39.13554359461976" lon="9.480029959008201"><ele>37.8</ele><time>2026-04-04T15:13:55Z</time></trkpt><trkpt lat="39.13543231193169" lon="9.480009919664337"><ele>39.4</ele><time>2026-04-04T15:13:56Z</time></trkpt><trkpt lat="39.13531616746812" lon="9.480022548859292"><ele>41.0</ele><time>2026-04-04T15:13:57Z</time></trkpt><trkpt lat="39.13519833567132" lon="9.480031299776725"><ele>41.0</ele><time>2026-04-04T15:13:58Z</time></trkpt><trkpt lat="39.13503804739209" lon="9.480011164893714"><ele>41.0</ele><time>2026-04-04T15:13:59Z</time></trkpt><trkpt lat="39.13487945242411" lon="9.479984487695683"><ele>41.0</ele><time>2026-04-04T15:14:00Z</time></trkpt><trkpt lat="39.13473053101205" lon="9.479972065802892"><ele>43.0</ele><time>2026-04-04T15:14:01Z</time></trkpt><trkpt lat="39.134602206771206" lon="9.479974895351877"><ele>45.0</ele><time>2026-04-04T15:14:02Z</time></trkpt><trkpt lat="39.13449910700741" lon="9.479983963386125"><ele>47.0</ele><time>2026-04-04T15:14:03Z</time></trkpt><trkpt lat="39.134351322649636" lon="9.480048023863027"><ele>49.0</ele><time>2026-04-04T15:14:04Z</time></trkpt><trkpt lat="39.134249486992594" lon="9.480110301405546"><ele>49.0</ele><time>2026-04-04T15:14:05Z</time></trkpt><trkpt lat="39.13414364804243" lon="9.480189250398476"><ele>49.0</ele><time>2026-04-04T15:14:05.999Z</time></trkpt><trkpt lat="39.13403954891014" lon="9.48027108947728"><ele>49.0</ele><time>2026-04-04T15:14:07Z</time></trkpt><trkpt lat="39.13393743771119" lon="9.480348134886023"><ele>49.0</ele><time>2026-04-04T15:14:08Z</time></trkpt><trkpt lat="39.13383931053748" lon="9.48041114082502"><ele>47.400000000000006</ele><time>2026-04-04T15:14:09Z</time></trkpt><trkpt lat="39.13374720152414" lon="9.480438292250556"><ele>45.8</ele><time>2026-04-04T15:14:10Z</time></trkpt><trkpt lat="39.13364946490421" lon="9.480410756995278"><ele>44.2</ele><time>2026-04-04T15:14:11Z</time></trkpt><trkpt lat="39.13354616895424" lon="9.480393969665325"><ele>42.599999999999994</ele><time>2026-04-04T15:14:12Z</time></trkpt><trkpt lat="39.13347539731292" lon="9.480295576154582"><ele>41.0</ele><time>2026-04-04T15:14:13Z</time></trkpt><trkpt lat="39.133402792997266" lon="9.480190340873312"><ele>41.0</ele><time>2026-04-04T15:14:14Z</time></trkpt><trkpt lat="39.133315159075565" lon="9.480048690315963"><ele>41.0</ele><time>2026-04-04T15:14:15Z</time></trkpt><trkpt lat="39.13320703585074" lon="9.479872773574916"><ele>41.0</ele><time>2026-04-04T15:14:16Z</time></trkpt><trkpt lat="39.1330938396596" lon="9.479688992620275"><ele>36.25</ele><time>2026-04-04T15:14:17Z</time></trkpt><trkpt lat="39.132989862401615" lon="9.479520285648082"><ele>31.5</ele><time>2026-04-04T15:14:18Z</time></trkpt><trkpt lat="39.13289956843373" lon="9.479373780321396"><ele>26.75</ele><time>2026-04-04T15:14:19Z</time></trkpt><trkpt lat="39.13282312810795" lon="9.479242612633948"><ele>22.0</ele><time>2026-04-04T15:14:20Z</time></trkpt><trkpt lat="39.13276919794475" lon="9.479113023211617"><ele>22.0</ele><time>2026-04-04T15:14:21Z</time></trkpt><trkpt lat="39.132731128083144" lon="9.478976148588348"><ele>22.0</ele><time>2026-04-04T15:14:22Z</time></trkpt><trkpt lat="39.13270002305796" lon="9.478837297269429"><ele>22.0</ele><time>2026-04-04T15:14:23Z</time></trkpt><trkpt lat="39.132673377108006" lon="9.478699498012565"><ele>22.0</ele><time>2026-04-04T15:14:24Z</time></trkpt><trkpt lat="39.13266111951207" lon="9.478563835953874"><ele>22.0</ele><time>2026-04-04T15:14:25Z</time></trkpt><trkpt lat="39.13266420440605" lon="9.478431661252216"><ele>21.5</ele><time>2026-04-04T15:14:26Z</time></trkpt><trkpt lat="39.13269862395762" lon="9.478302180517161"><ele>21.0</ele><time>2026-04-04T15:14:27Z</time></trkpt><trkpt lat="39.132750888218084" lon="9.478115953493901"><ele>20.5</ele><time>2026-04-04T15:14:28Z</time></trkpt><trkpt lat="39.13281290236115" lon="9.477897121977596"><ele>20.0</ele><time>2026-04-04T15:14:29Z</time></trkpt><trkpt lat="39.13287366664174" lon="9.477683727903425"><ele>16.333333333333336</ele><time>2026-04-04T15:14:30Z</time></trkpt><trkpt lat="39.132933189551665" lon="9.47747031351202"><ele>12.666666666666668</ele><time>2026-04-04T15:14:31Z</time></trkpt><trkpt lat="39.13297957200962" lon="9.477267571178313"><ele>9.0</ele><time>2026-04-04T15:14:32Z</time></trkpt><trkpt lat="39.13299526941879" lon="9.477064585285932"><ele>7.666666666666667</ele><time>2026-04-04T15:14:33Z</time></trkpt><trkpt lat="39.13302775066628" lon="9.47686168127106"><ele>6.333333333333334</ele><time>2026-04-04T15:14:34Z</time></trkpt><trkpt lat="39.133089925621704" lon="9.476659611004921"><ele>5.0</ele><time>2026-04-04T15:14:35Z</time></trkpt><trkpt lat="39.133153642368065" lon="9.476454818690293"><ele>4.666666666666667</ele><time>2026-04-04T15:14:36Z</time></trkpt><trkpt lat="39.13321365080647" lon="9.476244706122731"><ele>4.333333333333333</ele><time>2026-04-04T15:14:37Z</time></trkpt><trkpt lat="39.13325138479036" lon="9.476050539988071"><ele>4.0</ele><time>2026-04-04T15:14:38Z</time></trkpt><trkpt lat="39.1332708970625" lon="9.475806732910891"><ele>11.0</ele><time>2026-04-04T15:14:39Z</time></trkpt><trkpt lat="39.13327541543523" lon="9.475513366207025"><ele>18.0</ele><time>2026-04-04T15:14:40Z</time></trkpt><trkpt lat="39.13327694766853" lon="9.475189298953353"><ele>18.0</ele><time>2026-04-04T15:14:41Z</time></trkpt><trkpt lat="39.133278457032766" lon="9.474870068856779"><ele>18.0</ele><time>2026-04-04T15:14:42Z</time></trkpt><trkpt lat="39.13326449944503" lon="9.474594306766503"><ele>18.666666666666668</ele><time>2026-04-04T15:14:43Z</time></trkpt><trkpt lat="39.13326575163999" lon="9.474339810244164"><ele>19.333333333333336</ele><time>2026-04-04T15:14:44Z</time></trkpt><trkpt lat="39.13327001057961" lon="9.474060927248154"><ele>20.0</ele><time>2026-04-04T15:14:45Z</time></trkpt><trkpt lat="39.13324929890858" lon="9.473736323184955"><ele>20.5</ele><time>2026-04-04T15:14:46Z</time></trkpt><trkpt lat="39.13322659566098" lon="9.47337527114016"><ele>21.0</ele><time>2026-04-04T15:14:47Z</time></trkpt><trkpt lat="39.13320353344337" lon="9.473003287499566"><ele>13.5</ele><time>2026-04-04T15:14:48Z</time></trkpt><trkpt lat="39.13318351325798" lon="9.472653129653278"><ele>6.0</ele><time>2026-04-04T15:14:49Z</time></trkpt><trkpt lat="39.133167718997065" lon="9.472379500195576"><ele>6.0</ele><time>2026-04-04T15:14:50Z</time></trkpt><trkpt lat="39.13312155751441" lon="9.472142601667622"><ele>6.0</ele><time>2026-04-04T15:14:51Z</time></trkpt><trkpt lat="39.13305732551986" lon="9.471890330513757"><ele>6.0</ele><time>2026-04-04T15:14:52Z</time></trkpt><trkpt lat="39.132961093689424" lon="9.47161083680991"><ele>8.0</ele><time>2026-04-04T15:14:53Z</time></trkpt><trkpt lat="39.132877484491914" lon="9.471298142831497"><ele>10.0</ele><time>2026-04-04T15:14:54Z</time></trkpt><trkpt lat="39.132757334483166" lon="9.470986044598002"><ele>11.5</ele><time>2026-04-04T15:14:55Z</time></trkpt><trkpt lat="39.132643728817115" lon="9.470643890499579"><ele>13.0</ele><time>2026-04-04T15:14:56Z</time></trkpt><trkpt lat="39.1324924168433" lon="9.470343865917634"><ele>10.0</ele><time>2026-04-04T15:14:57Z</time></trkpt><trkpt lat="39.13238052321184" lon="9.470061470891421"><ele>7.0</ele><time>2026-04-04T15:14:58Z</time></trkpt><trkpt lat="39.13227563357852" lon="9.469832419733347"><ele>7.0</ele><time>2026-04-04T15:14:59Z</time></trkpt><trkpt lat="39.13219023401014" lon="9.469638952861818"><ele>7.0</ele><time>2026-04-04T15:15:00Z</time></trkpt><trkpt lat="39.13212825586994" lon="9.469467774883347"><ele>7.0</ele><time>2026-04-04T15:15:01Z</time></trkpt><trkpt lat="39.132094279387246" lon="9.469295093814308"><ele>7.666666666666667</ele><time>2026-04-04T15:15:02Z</time></trkpt><trkpt lat="39.1320990032117" lon="9.469088615850835"><ele>8.333333333333334</ele><time>2026-04-04T15:15:03Z</time></trkpt><trkpt lat="39.132110624147" lon="9.46883266988136"><ele>9.0</ele><time>2026-04-04T15:15:04Z</time></trkpt><trkpt lat="39.13212610269901" lon="9.468552048282051"><ele>9.666666666666666</ele><time>2026-04-04T15:15:05Z</time></trkpt><trkpt lat="39.132119893551845" lon="9.468311271726053"><ele>10.333333333333332</ele><time>2026-04-04T15:15:06Z</time></trkpt><trkpt lat="39.13211661376421" lon="9.468118853717684"><ele>11.0</ele><time>2026-04-04T15:15:07Z</time></trkpt><trkpt lat="39.132078985952845" lon="9.467941043011788"><ele>11.666666666666666</ele><time>2026-04-04T15:15:08Z</time></trkpt><trkpt lat="39.1319812943108" lon="9.467758108989893"><ele>12.333333333333332</ele><time>2026-04-04T15:15:09Z</time></trkpt><trkpt lat="39.131855289824806" lon="9.467548515179377"><ele>13.0</ele><time>2026-04-04T15:15:10Z</time></trkpt><trkpt lat="39.131714883153776" lon="9.467327549948601"><ele>13.0</ele><time>2026-04-04T15:15:11Z</time></trkpt><trkpt lat="39.131629305697096" lon="9.467136039366228"><ele>13.0</ele><time>2026-04-04T15:15:12Z</time></trkpt><trkpt lat="39.13153761598311" lon="9.466990904672699"><ele>13.0</ele><time>2026-04-04T15:15:13Z</time></trkpt><trkpt lat="39.13149464667189" lon="9.466790855050295"><ele>13.0</ele><time>2026-04-04T15:15:14Z</time></trkpt><trkpt lat="39.1314618156082" lon="9.466547043561649"><ele>13.0</ele><time>2026-04-04T15:15:15Z</time></trkpt><trkpt lat="39.13141982462407" lon="9.466272065517153"><ele>13.0</ele><time>2026-04-04T15:15:16Z</time></trkpt><trkpt lat="39.13139506617135" lon="9.465968882829719"><ele>13.0</ele><time>2026-04-04T15:15:17Z</time></trkpt><trkpt lat="39.13134430723522" lon="9.465651994019352"><ele>13.0</ele><time>2026-04-04T15:15:18Z</time></trkpt><trkpt lat="39.13129531162864" lon="9.46534643960808"><ele>14.0</ele><time>2026-04-04T15:15:19Z</time></trkpt><trkpt lat="39.13124370271445" lon="9.46502458769142"><ele>15.0</ele><time>2026-04-04T15:15:20Z</time></trkpt><trkpt lat="39.131189657125994" lon="9.46469057566077"><ele>16.0</ele><time>2026-04-04T15:15:21Z</time></trkpt><trkpt lat="39.13113554009037" lon="9.464349472621926"><ele>17.0</ele><time>2026-04-04T15:15:22Z</time></trkpt><trkpt lat="39.1310852236006" lon="9.464034518504834"><ele>17.666666666666668</ele><time>2026-04-04T15:15:23Z</time></trkpt><trkpt lat="39.13104154394525" lon="9.463766000644153"><ele>18.333333333333332</ele><time>2026-04-04T15:15:24Z</time></trkpt><trkpt lat="39.13100760052377" lon="9.463518993072215"><ele>19.0</ele><time>2026-04-04T15:15:25Z</time></trkpt><trkpt lat="39.13098415944695" lon="9.463267954679717"><ele>19.0</ele><time>2026-04-04T15:15:26Z</time></trkpt><trkpt lat="39.13096451314581" lon="9.463001533149301"><ele>19.0</ele><time>2026-04-04T15:15:27Z</time></trkpt><trkpt lat="39.13094644690097" lon="9.462724633195787"><ele>19.0</ele><time>2026-04-04T15:15:28Z</time></trkpt><trkpt lat="39.130927133207834" lon="9.462433841141527"><ele>19.5</ele><time>2026-04-04T15:15:29Z</time></trkpt><trkpt lat="39.13090540550682" lon="9.462128129110548"><ele>20.0</ele><time>2026-04-04T15:15:30Z</time></trkpt><trkpt lat="39.130875177208466" lon="9.461813970702007"><ele>22.0</ele><time>2026-04-04T15:15:31Z</time></trkpt><trkpt lat="39.13083568379866" lon="9.461518611166504"><ele>24.0</ele><time>2026-04-04T15:15:32Z</time></trkpt><trkpt lat="39.130782984597914" lon="9.46121715406248"><ele>29.5</ele><time>2026-04-04T15:15:33Z</time></trkpt><trkpt lat="39.13072059993882" lon="9.460908918821309"><ele>35.0</ele><time>2026-04-04T15:15:34Z</time></trkpt><trkpt lat="39.13064990847388" lon="9.4605929430421"><ele>35.33333333333333</ele><time>2026-04-04T15:15:35Z</time></trkpt><trkpt lat="39.13058238394279" lon="9.460292585093528"><ele>35.666666666666664</ele><time>2026-04-04T15:15:36Z</time></trkpt><trkpt lat="39.13052647334803" lon="9.460049185902387"><ele>36.0</ele><time>2026-04-04T15:15:37Z</time></trkpt><trkpt lat="39.13047725556387" lon="9.459834923053196"><ele>36.0</ele><time>2026-04-04T15:15:38Z</time></trkpt><trkpt lat="39.13042739325222" lon="9.45961785435239"><ele>36.0</ele><time>2026-04-04T15:15:39Z</time></trkpt><trkpt lat="39.130376672840896" lon="9.459397050004636"><ele>36.0</ele><time>2026-04-04T15:15:40Z</time></trkpt><trkpt lat="39.13030745691129" lon="9.45919963878788"><ele>33.0</ele><time>2026-04-04T15:15:41Z</time></trkpt><trkpt lat="39.13031255317045" lon="9.458973334620092"><ele>30.0</ele><time>2026-04-04T15:15:42Z</time></trkpt><trkpt lat="39.130335279138215" lon="9.458733545260191"><ele>27.0</ele><time>2026-04-04T15:15:43Z</time></trkpt><trkpt lat="39.13035664277569" lon="9.458509631885953"><ele>25.0</ele><time>2026-04-04T15:15:44Z</time></trkpt><trkpt lat="39.13038282192833" lon="9.458296849553424"><ele>23.0</ele><time>2026-04-04T15:15:45Z</time></trkpt><trkpt lat="39.13043519508281" lon="9.45810261196347"><ele>21.0</ele><time>2026-04-04T15:15:46Z</time></trkpt><trkpt lat="39.13051554257135" lon="9.457919180008187"><ele>18.333333333333332</ele><time>2026-04-04T15:15:47Z</time></trkpt><trkpt lat="39.13061729354471" lon="9.45773235244544"><ele>15.666666666666666</ele><time>2026-04-04T15:15:48Z</time></trkpt><trkpt lat="39.13071821798748" lon="9.457537463365734"><ele>13.0</ele><time>2026-04-04T15:15:49Z</time></trkpt><trkpt lat="39.1308278626255" lon="9.457321233708303"><ele>14.666666666666666</ele><time>2026-04-04T15:15:50Z</time></trkpt><trkpt lat="39.13093967705138" lon="9.457123522138978"><ele>16.333333333333332</ele><time>2026-04-04T15:15:51Z</time></trkpt><trkpt lat="39.13104646634479" lon="9.456940925991583"><ele>18.0</ele><time>2026-04-04T15:15:52Z</time></trkpt><trkpt lat="39.131147976829986" lon="9.456794472018501"><ele>18.0</ele><time>2026-04-04T15:15:53Z</time></trkpt><trkpt lat="39.1312491436042" lon="9.456679156731376"><ele>18.0</ele><time>2026-04-04T15:15:54Z</time></trkpt><trkpt lat="39.13135956587033" lon="9.456599161330763"><ele>18.0</ele><time>2026-04-04T15:15:55Z</time></trkpt><trkpt lat="39.13147907641054" lon="9.45658820348384"><ele>18.0</ele><time>2026-04-04T15:15:56Z</time></trkpt><trkpt lat="39.13162146800909" lon="9.456628937852523"><ele>21.333333333333336</ele><time>2026-04-04T15:15:57Z</time></trkpt><trkpt lat="39.131781516305274" lon="9.456697243818668"><ele>24.666666666666668</ele><time>2026-04-04T15:15:58Z</time></trkpt><trkpt lat="39.13196136922001" lon="9.456760749200477"><ele>28.0</ele><time>2026-04-04T15:15:59Z</time></trkpt><trkpt lat="39.1321541276675" lon="9.456824044475889"><ele>28.0</ele><time>2026-04-04T15:16:00Z</time></trkpt><trkpt lat="39.132343275656496" lon="9.456904605481292"><ele>28.0</ele><time>2026-04-04T15:16:01Z</time></trkpt><trkpt lat="39.132535277455744" lon="9.457023123715961"><ele>28.0</ele><time>2026-04-04T15:16:02Z</time></trkpt><trkpt lat="39.13270555413904" lon="9.457152279603067"><ele>32.333333333333336</ele><time>2026-04-04T15:16:03Z</time></trkpt><trkpt lat="39.13287559768503" lon="9.457286971357714"><ele>36.666666666666664</ele><time>2026-04-04T15:16:04Z</time></trkpt><trkpt lat="39.13303487746977" lon="9.457400127369752"><ele>41.0</ele><time>2026-04-04T15:16:05Z</time></trkpt><trkpt lat="39.13318652387106" lon="9.457477652895367"><ele>39.25</ele><time>2026-04-04T15:16:06Z</time></trkpt><trkpt lat="39.13332653769762" lon="9.4575038392772"><ele>37.5</ele><time>2026-04-04T15:16:07Z</time></trkpt><trkpt lat="39.13345595293457" lon="9.457475482893084"><ele>35.75</ele><time>2026-04-04T15:16:08Z</time></trkpt><trkpt lat="39.133560561306595" lon="9.457398425794006"><ele>34.0</ele><time>2026-04-04T15:16:09Z</time></trkpt><trkpt lat="39.13364600004918" lon="9.457276026368397"><ele>32.66666666666667</ele><time>2026-04-04T15:16:10Z</time></trkpt><trkpt lat="39.13370398719376" lon="9.45711200831324"><ele>31.333333333333336</ele><time>2026-04-04T15:16:11Z</time></trkpt><trkpt lat="39.13374066473605" lon="9.45691696707561"><ele>30.0</ele><time>2026-04-04T15:16:11.999Z</time></trkpt><trkpt lat="39.13376479681673" lon="9.456700498024388"><ele>30.0</ele><time>2026-04-04T15:16:13Z</time></trkpt><trkpt lat="39.133786760581216" lon="9.456471603747893"><ele>30.0</ele><time>2026-04-04T15:16:14Z</time></trkpt><trkpt lat="39.13379960353601" lon="9.456236468015174"><ele>30.0</ele><time>2026-04-04T15:16:15Z</time></trkpt><trkpt lat="39.13378383849994" lon="9.455991730847211"><ele>31.666666666666664</ele><time>2026-04-04T15:16:16Z</time></trkpt><trkpt lat="39.13373114145949" lon="9.455740821808691"><ele>33.33333333333333</ele><time>2026-04-04T15:16:17Z</time></trkpt><trkpt lat="39.13366396607548" lon="9.455489563200215"><ele>35.0</ele><time>2026-04-04T15:16:18Z</time></trkpt><trkpt lat="39.1336170406636" lon="9.455264331801576"><ele>38.666666666666664</ele><time>2026-04-04T15:16:19Z</time></trkpt><trkpt lat="39.13360425494836" lon="9.45506208596031"><ele>42.333333333333336</ele><time>2026-04-04T15:16:20Z</time></trkpt><trkpt lat="39.133624630697966" lon="9.454875779604162"><ele>46.0</ele><time>2026-04-04T15:16:21Z</time></trkpt><trkpt lat="39.13367148477844" lon="9.45469174015941"><ele>46.333333333333336</ele><time>2026-04-04T15:16:22Z</time></trkpt><trkpt lat="39.1337476415891" lon="9.454499721342927"><ele>46.666666666666664</ele><time>2026-04-04T15:16:23Z</time></trkpt><trkpt lat="39.13385277311455" lon="9.454308767688769"><ele>47.0</ele><time>2026-04-04T15:16:24Z</time></trkpt><trkpt lat="39.13397224609124" lon="9.45411918912662"><ele>48.666666666666664</ele><time>2026-04-04T15:16:25Z</time></trkpt><trkpt lat="39.13409117697705" lon="9.453914066590619"><ele>50.33333333333333</ele><time>2026-04-04T15:16:26Z</time></trkpt><trkpt lat="39.13419638493523" lon="9.453692067755494"><ele>52.0</ele><time>2026-04-04T15:16:27Z</time></trkpt><trkpt lat="39.1342869664463" lon="9.453440051113805"><ele>52.0</ele><time>2026-04-04T15:16:28Z</time></trkpt><trkpt lat="39.13436626999266" lon="9.453163415979322"><ele>52.0</ele><time>2026-04-04T15:16:29Z</time></trkpt><trkpt lat="39.13443383813314" lon="9.4528956421058"><ele>52.0</ele><time>2026-04-04T15:16:30Z</time></trkpt><trkpt lat="39.13448013103121" lon="9.452676419423055"><ele>52.666666666666664</ele><time>2026-04-04T15:16:31Z</time></trkpt><trkpt lat="39.13449373246637" lon="9.452464877125854"><ele>53.33333333333333</ele><time>2026-04-04T15:16:32Z</time></trkpt><trkpt lat="39.13446069954293" lon="9.452242956562404"><ele>54.0</ele><time>2026-04-04T15:16:33Z</time></trkpt><trkpt lat="39.134384883195736" lon="9.452007455935243"><ele>56.0</ele><time>2026-04-04T15:16:34Z</time></trkpt><trkpt lat="39.13428606242685" lon="9.451768408671583"><ele>58.0</ele><time>2026-04-04T15:16:35Z</time></trkpt><trkpt lat="39.13418574298823" lon="9.451511117236455"><ele>60.0</ele><time>2026-04-04T15:16:36Z</time></trkpt><trkpt lat="39.134093140531775" lon="9.451229521821451"><ele>53.0</ele><time>2026-04-04T15:16:37Z</time></trkpt><trkpt lat="39.13400149084118" lon="9.450935164675846"><ele>46.0</ele><time>2026-04-04T15:16:38Z</time></trkpt><trkpt lat="39.13389007293521" lon="9.450636615852783"><ele>53.0</ele><time>2026-04-04T15:16:39Z</time></trkpt><trkpt lat="39.133764285953404" lon="9.450363386279749"><ele>60.0</ele><time>2026-04-04T15:16:40Z</time></trkpt><trkpt lat="39.133649592991205" lon="9.450126897279725"><ele>60.0</ele><time>2026-04-04T15:16:41Z</time></trkpt><trkpt lat="39.13355805454867" lon="9.449915489495705"><ele>60.0</ele><time>2026-04-04T15:16:42Z</time></trkpt><trkpt lat="39.13349813484218" lon="9.449711402673854"><ele>60.0</ele><time>2026-04-04T15:16:43Z</time></trkpt><trkpt lat="39.133471456364475" lon="9.449490830777853"><ele>63.66666666666667</ele><time>2026-04-04T15:16:44Z</time></trkpt><trkpt lat="39.13348489316354" lon="9.449255781235077"><ele>67.33333333333334</ele><time>2026-04-04T15:16:45Z</time></trkpt><trkpt lat="39.13351022381905" lon="9.449001786558204"><ele>71.0</ele><time>2026-04-04T15:16:46Z</time></trkpt><trkpt lat="39.133508218061365" lon="9.448761879128906"><ele>72.33333333333334</ele><time>2026-04-04T15:16:47Z</time></trkpt><trkpt lat="39.1334799734438" lon="9.448553402354408"><ele>73.66666666666667</ele><time>2026-04-04T15:16:48Z</time></trkpt><trkpt lat="39.133487865608615" lon="9.448357775867242"><ele>75.0</ele><time>2026-04-04T15:16:49Z</time></trkpt><trkpt lat="39.13351281758234" lon="9.448157346606896"><ele>74.66666666666667</ele><time>2026-04-04T15:16:50Z</time></trkpt><trkpt lat="39.13354823127748" lon="9.447948756289438"><ele>74.33333333333334</ele><time>2026-04-04T15:16:51Z</time></trkpt><trkpt lat="39.133567961943164" lon="9.44773757284682"><ele>74.0</ele><time>2026-04-04T15:16:52Z</time></trkpt><trkpt lat="39.13359625738535" lon="9.447555828888976"><ele>74.0</ele><time>2026-04-04T15:16:53Z</time></trkpt><trkpt lat="39.133607380373476" lon="9.447397153094094"><ele>74.0</ele><time>2026-04-04T15:16:54Z</time></trkpt><trkpt lat="39.133612706753105" lon="9.447255659837326"><ele>74.0</ele><time>2026-04-04T15:16:55Z</time></trkpt><trkpt lat="39.13363858139381" lon="9.447121433357125"><ele>74.0</ele><time>2026-04-04T15:16:56Z</time></trkpt><trkpt lat="39.13364519262584" lon="9.446968286140542"><ele>76.75</ele><time>2026-04-04T15:16:57Z</time></trkpt><trkpt lat="39.1336240620253" lon="9.446795289605623"><ele>79.5</ele><time>2026-04-04T15:16:58Z</time></trkpt><trkpt lat="39.13359034958703" lon="9.446610578471757"><ele>82.25</ele><time>2026-04-04T15:16:59Z</time></trkpt><trkpt lat="39.133545012727204" lon="9.446425129430615"><ele>85.0</ele><time>2026-04-04T15:17:00Z</time></trkpt><trkpt lat="39.13353862980828" lon="9.44626468317237"><ele>88.0</ele><time>2026-04-04T15:17:01Z</time></trkpt><trkpt lat="39.13352655451824" lon="9.44612389976682"><ele>91.0</ele><time>2026-04-04T15:17:02Z</time></trkpt><trkpt lat="39.13351571197532" lon="9.445996521591438"><ele>94.0</ele><time>2026-04-04T15:17:03Z</time></trkpt><trkpt lat="39.133492666949046" lon="9.445860515771274"><ele>97.0</ele><time>2026-04-04T15:17:04Z</time></trkpt><trkpt lat="39.13342588195936" lon="9.44573046317085"><ele>100.0</ele><time>2026-04-04T15:17:05Z</time></trkpt><trkpt lat="39.133349235423196" lon="9.44561097507913"><ele>100.0</ele><time>2026-04-04T15:17:06Z</time></trkpt><trkpt lat="39.133265318102524" lon="9.445513776109351"><ele>100.0</ele><time>2026-04-04T15:17:07Z</time></trkpt><trkpt lat="39.13318744748544" lon="9.445442040468777"><ele>100.0</ele><time>2026-04-04T15:17:08Z</time></trkpt><trkpt lat="39.13310502040993" lon="9.445360230903905"><ele>100.0</ele><time>2026-04-04T15:17:09Z</time></trkpt><trkpt lat="39.1329739511593" lon="9.445362464287916"><ele>100.0</ele><time>2026-04-04T15:17:10Z</time></trkpt><trkpt lat="39.132836842491734" lon="9.445367094672234"><ele>106.25</ele><time>2026-04-04T15:17:11Z</time></trkpt><trkpt lat="39.132705783198475" lon="9.445375435346767"><ele>112.5</ele><time>2026-04-04T15:17:12Z</time></trkpt><trkpt lat="39.13259016691881" lon="9.44538405467092"><ele>118.75</ele><time>2026-04-04T15:17:13Z</time></trkpt><trkpt lat="39.13249020537592" lon="9.445411030848664"><ele>125.0</ele><time>2026-04-04T15:17:14Z</time></trkpt><trkpt lat="39.132391179379695" lon="9.445457136338861"><ele>116.25</ele><time>2026-04-04T15:17:15Z</time></trkpt><trkpt lat="39.132282770814896" lon="9.445500727504875"><ele>107.5</ele><time>2026-04-04T15:17:16Z</time></trkpt><trkpt lat="39.1321619936988" lon="9.44553335638922"><ele>98.75</ele><time>2026-04-04T15:17:17Z</time></trkpt><trkpt lat="39.13203260438097" lon="9.445558498499157"><ele>90.0</ele><time>2026-04-04T15:17:18Z</time></trkpt><trkpt lat="39.131919955967284" lon="9.445567488723261"><ele>90.0</ele><time>2026-04-04T15:17:19Z</time></trkpt><trkpt lat="39.13181951053007" lon="9.445552676756956"><ele>90.0</ele><time>2026-04-04T15:17:20Z</time></trkpt><trkpt lat="39.131715569966346" lon="9.44551019814674"><ele>90.0</ele><time>2026-04-04T15:17:21Z</time></trkpt><trkpt lat="39.13162158267522" lon="9.445431290284738"><ele>90.0</ele><time>2026-04-04T15:17:22Z</time></trkpt><trkpt lat="39.13155998432476" lon="9.44529514886935"><ele>90.0</ele><time>2026-04-04T15:17:23Z</time></trkpt><trkpt lat="39.131499939167085" lon="9.445159603661345"><ele>90.2</ele><time>2026-04-04T15:17:24Z</time></trkpt><trkpt lat="39.131451875869516" lon="9.44501823712765"><ele>90.4</ele><time>2026-04-04T15:17:25Z</time></trkpt><trkpt lat="39.13141841265305" lon="9.44489053879557"><ele>90.6</ele><time>2026-04-04T15:17:26Z</time></trkpt><trkpt lat="39.13139452492522" lon="9.444769229204994"><ele>90.8</ele><time>2026-04-04T15:17:27Z</time></trkpt><trkpt lat="39.13136254343833" lon="9.444640180736053"><ele>91.0</ele><time>2026-04-04T15:17:28Z</time></trkpt><trkpt lat="39.13135089159164" lon="9.444504457493709"><ele>95.8</ele><time>2026-04-04T15:17:29Z</time></trkpt><trkpt lat="39.13133460941687" lon="9.444383002440317"><ele>100.6</ele><time>2026-04-04T15:17:30Z</time></trkpt><trkpt lat="39.1313133930271" lon="9.444249176721891"><ele>105.4</ele><time>2026-04-04T15:17:31Z</time></trkpt><trkpt lat="39.13121535450976" lon="9.444156101133116"><ele>110.2</ele><time>2026-04-04T15:17:32Z</time></trkpt><trkpt lat="39.1311076490796" lon="9.444074520375128"><ele>115.0</ele><time>2026-04-04T15:17:33Z</time></trkpt><trkpt lat="39.130987543230034" lon="9.4440060344345"><ele>115.0</ele><time>2026-04-04T15:17:34Z</time></trkpt><trkpt lat="39.13086567828983" lon="9.44395983919741"><ele>115.0</ele><time>2026-04-04T15:17:35Z</time></trkpt><trkpt lat="39.13074257636005" lon="9.443929573753183"><ele>115.0</ele><time>2026-04-04T15:17:36Z</time></trkpt><trkpt lat="39.1306173886412" lon="9.443903743823768"><ele>115.0</ele><time>2026-04-04T15:17:37Z</time></trkpt><trkpt lat="39.13047724479558" lon="9.44387633080854"><ele>115.33333333333334</ele><time>2026-04-04T15:17:38Z</time></trkpt><trkpt lat="39.130305941364995" lon="9.443860994753543"><ele>115.66666666666666</ele><time>2026-04-04T15:17:39Z</time></trkpt><trkpt lat="39.13010633277735" lon="9.443868361918549"><ele>116.0</ele><time>2026-04-04T15:17:40Z</time></trkpt><trkpt lat="39.12989044197944" lon="9.443846258327973"><ele>121.33333333333333</ele><time>2026-04-04T15:17:41Z</time></trkpt><trkpt lat="39.12967982941362" lon="9.4438679379327"><ele>126.66666666666666</ele><time>2026-04-04T15:17:42Z</time></trkpt><trkpt lat="39.12948142453849" lon="9.443911577377254"><ele>132.0</ele><time>2026-04-04T15:17:43Z</time></trkpt><trkpt lat="39.12932241711487" lon="9.443959698899782"><ele>132.0</ele><time>2026-04-04T15:17:44Z</time></trkpt><trkpt lat="39.129179863427304" lon="9.44395759583722"><ele>132.0</ele><time>2026-04-04T15:17:45Z</time></trkpt><trkpt lat="39.129057116745" lon="9.443914517939369"><ele>132.0</ele><time>2026-04-04T15:17:46Z</time></trkpt><trkpt lat="39.128949713664326" lon="9.44382156699448"><ele>132.0</ele><time>2026-04-04T15:17:47Z</time></trkpt><trkpt lat="39.128853560164394" lon="9.443681139480798"><ele>127.25</ele><time>2026-04-04T15:17:48Z</time></trkpt><trkpt lat="39.12879202891919" lon="9.44351591923841"><ele>122.5</ele><time>2026-04-04T15:17:49Z</time></trkpt><trkpt lat="39.128807563618494" lon="9.443344814666897"><ele>117.75</ele><time>2026-04-04T15:17:50Z</time></trkpt><trkpt lat="39.12880868723374" lon="9.443141020626735"><ele>113.0</ele><time>2026-04-04T15:17:51Z</time></trkpt><trkpt lat="39.128811399108336" lon="9.442903536108403"><ele>108.33333333333333</ele><time>2026-04-04T15:17:52Z</time></trkpt><trkpt lat="39.12882282738264" lon="9.442675984344223"><ele>103.66666666666666</ele><time>2026-04-04T15:17:53Z</time></trkpt><trkpt lat="39.12886056576942" lon="9.442475831083799"><ele>99.0</ele><time>2026-04-04T15:17:54Z</time></trkpt><trkpt lat="39.12892962159042" lon="9.442283672445138"><ele>105.33333333333334</ele><time>2026-04-04T15:17:55Z</time></trkpt><trkpt lat="39.12903327686793" lon="9.442086856025302"><ele>111.66666666666667</ele><time>2026-04-04T15:17:56Z</time></trkpt><trkpt lat="39.12914317788024" lon="9.441877200237922"><ele>118.0</ele><time>2026-04-04T15:17:57Z</time></trkpt><trkpt lat="39.12925647233586" lon="9.441659971916346"><ele>118.0</ele><time>2026-04-04T15:17:58Z</time></trkpt><trkpt lat="39.12937308299293" lon="9.441435951236963"><ele>118.0</ele><time>2026-04-04T15:17:59Z</time></trkpt><trkpt lat="39.12947371818322" lon="9.441246159416549"><ele>118.0</ele><time>2026-04-04T15:18:00Z</time></trkpt><trkpt lat="39.12955816873039" lon="9.441106652476643"><ele>116.25</ele><time>2026-04-04T15:18:01Z</time></trkpt><trkpt lat="39.1296385931177" lon="9.441008369686807"><ele>114.5</ele><time>2026-04-04T15:18:02Z</time></trkpt><trkpt lat="39.12973480931208" lon="9.440951065408788"><ele>112.75</ele><time>2026-04-04T15:18:03Z</time></trkpt><trkpt lat="39.1298464848923" lon="9.440907890859604"><ele>111.0</ele><time>2026-04-04T15:18:04Z</time></trkpt><trkpt lat="39.12997542438314" lon="9.440944983214461"><ele>111.0</ele><time>2026-04-04T15:18:05Z</time></trkpt><trkpt lat="39.1300906999501" lon="9.441059742252184"><ele>111.0</ele><time>2026-04-04T15:18:06Z</time></trkpt><trkpt lat="39.13020048879928" lon="9.441143034566876"><ele>111.0</ele><time>2026-04-04T15:18:07Z</time></trkpt><trkpt lat="39.130276720341264" lon="9.441196522739613"><ele>111.0</ele><time>2026-04-04T15:18:08Z</time></trkpt><trkpt lat="39.130356982578746" lon="9.441205629439358"><ele>111.0</ele><time>2026-04-04T15:18:09Z</time></trkpt><trkpt lat="39.13042612969463" lon="9.441152093025972"><ele>111.0</ele><time>2026-04-04T15:18:10Z</time></trkpt><trkpt lat="39.130484369550146" lon="9.441117882410389"><ele>111.0</ele><time>2026-04-04T15:18:11Z</time></trkpt><trkpt lat="39.130464403863385" lon="9.44094787405143"><ele>111.0</ele><time>2026-04-04T15:18:12Z</time></trkpt><trkpt lat="39.130417436755515" lon="9.440854461656077"><ele>111.0</ele><time>2026-04-04T15:18:13Z</time></trkpt><trkpt lat="39.130332885967555" lon="9.440794167390088"><ele>111.0</ele><time>2026-04-04T15:18:14Z</time></trkpt><trkpt lat="39.13021264844836" lon="9.44075427575577"><ele>111.0</ele><time>2026-04-04T15:18:15Z</time></trkpt><trkpt lat="39.130065470257655" lon="9.4407073963827"><ele>111.0</ele><time>2026-04-04T15:18:16Z</time></trkpt><trkpt lat="39.12995230287556" lon="9.440646073112063"><ele>111.0</ele><time>2026-04-04T15:18:17Z</time></trkpt><trkpt lat="39.129888920947735" lon="9.44056543969067"><ele>111.0</ele><time>2026-04-04T15:18:18Z</time></trkpt><trkpt lat="39.12988156147612" lon="9.44044705723079"><ele>107.0</ele><time>2026-04-04T15:18:19Z</time></trkpt><trkpt lat="39.12986355513064" lon="9.440322652742834"><ele>103.0</ele><time>2026-04-04T15:18:20Z</time></trkpt><trkpt lat="39.12986775186946" lon="9.440175470304"><ele>99.0</ele><time>2026-04-04T15:18:21Z</time></trkpt><trkpt lat="39.129849639539614" lon="9.440053439929374"><ele>95.0</ele><time>2026-04-04T15:18:22Z</time></trkpt><trkpt lat="39.12979661985419" lon="9.439962937412298"><ele>91.0</ele><time>2026-04-04T15:18:23Z</time></trkpt><trkpt lat="39.12971877204139" lon="9.439907870617596"><ele>91.0</ele><time>2026-04-04T15:18:24Z</time></trkpt><trkpt lat="39.12963392053552" lon="9.43987725308224"><ele>91.0</ele><time>2026-04-04T15:18:25Z</time></trkpt><trkpt lat="39.12955449135597" lon="9.439850140336599"><ele>91.0</ele><time>2026-04-04T15:18:26Z</time></trkpt><trkpt lat="39.129492558041505" lon="9.439812666008823"><ele>91.0</ele><time>2026-04-04T15:18:27Z</time></trkpt><trkpt lat="39.129445202958884" lon="9.439705539798977"><ele>91.0</ele><time>2026-04-04T15:18:29Z</time></trkpt><trkpt lat="39.129498881409795" lon="9.439594289455574"><ele>91.0</ele><time>2026-04-04T15:18:31Z</time></trkpt><trkpt lat="39.129626332294265" lon="9.439572937385345"><ele>91.0</ele><time>2026-04-04T15:18:33Z</time></trkpt><trkpt lat="39.12971949548749" lon="9.43961535243495"><ele>91.0</ele><time>2026-04-04T15:18:34Z</time></trkpt><trkpt lat="39.129815296041336" lon="9.439684790258498"><ele>91.0</ele><time>2026-04-04T15:18:35Z</time></trkpt><trkpt lat="39.12990697425786" lon="9.439757155884449"><ele>91.0</ele><time>2026-04-04T15:18:36Z</time></trkpt><trkpt lat="39.13000603382645" lon="9.439832425213082"><ele>91.0</ele><time>2026-04-04T15:18:37Z</time></trkpt><trkpt lat="39.130112991154064" lon="9.439954038304766"><ele>92.33333333333333</ele><time>2026-04-04T15:18:38Z</time></trkpt><trkpt lat="39.130213496991885" lon="9.440099992977814"><ele>93.66666666666667</ele><time>2026-04-04T15:18:39Z</time></trkpt><trkpt lat="39.13032120834493" lon="9.440276285733551"><ele>95.0</ele><time>2026-04-04T15:18:40Z</time></trkpt><trkpt lat="39.130421099660055" lon="9.440405190553491"><ele>97.25</ele><time>2026-04-04T15:18:41Z</time></trkpt><trkpt lat="39.130518169490216" lon="9.44049277843013"><ele>99.5</ele><time>2026-04-04T15:18:42Z</time></trkpt><trkpt lat="39.13064433904088" lon="9.440527145808272"><ele>101.75</ele><time>2026-04-04T15:18:43Z</time></trkpt><trkpt lat="39.13080764763292" lon="9.44051228797934"><ele>104.0</ele><time>2026-04-04T15:18:44Z</time></trkpt><trkpt lat="39.13099933157895" lon="9.440452656106759"><ele>96.0</ele><time>2026-04-04T15:18:45Z</time></trkpt><trkpt lat="39.1312024339848" lon="9.440383778357559"><ele>88.0</ele><time>2026-04-04T15:18:46Z</time></trkpt><trkpt lat="39.131410505511475" lon="9.44032127590272"><ele>80.0</ele><time>2026-04-04T15:18:47Z</time></trkpt><trkpt lat="39.131608960173075" lon="9.440264994580438"><ele>80.0</ele><time>2026-04-04T15:18:48Z</time></trkpt><trkpt lat="39.131776947919214" lon="9.44020091857923"><ele>80.0</ele><time>2026-04-04T15:18:49Z</time></trkpt><trkpt lat="39.131916774418826" lon="9.440096687300056"><ele>80.0</ele><time>2026-04-04T15:18:50Z</time></trkpt><trkpt lat="39.13204928518434" lon="9.439926537705528"><ele>80.0</ele><time>2026-04-04T15:18:51Z</time></trkpt><trkpt lat="39.13218077370274" lon="9.439724215777463"><ele>80.0</ele><time>2026-04-04T15:18:52Z</time></trkpt><trkpt lat="39.1322824889454" lon="9.439570817867166"><ele>80.0</ele><time>2026-04-04T15:18:53Z</time></trkpt><trkpt lat="39.132373677180574" lon="9.43949083973288"><ele>79.8</ele><time>2026-04-04T15:18:54Z</time></trkpt><trkpt lat="39.13244834851201" lon="9.439421951596852"><ele>79.6</ele><time>2026-04-04T15:18:55Z</time></trkpt><trkpt lat="39.13255042832415" lon="9.439419490423202"><ele>79.4</ele><time>2026-04-04T15:18:56Z</time></trkpt><trkpt lat="39.13263826309653" lon="9.439480794735536"><ele>79.2</ele><time>2026-04-04T15:18:57Z</time></trkpt><trkpt lat="39.13269039806565" lon="9.439590990580253"><ele>79.0</ele><time>2026-04-04T15:18:58Z</time></trkpt><trkpt lat="39.13269323975294" lon="9.439747191358158"><ele>79.0</ele><time>2026-04-04T15:18:59Z</time></trkpt><trkpt lat="39.13272622599031" lon="9.439950293653467"><ele>79.0</ele><time>2026-04-04T15:19:00Z</time></trkpt><trkpt lat="39.13277911633096" lon="9.440116576636028"><ele>79.0</ele><time>2026-04-04T15:19:01Z</time></trkpt><trkpt lat="39.13285458569836" lon="9.440223469344861"><ele>79.0</ele><time>2026-04-04T15:19:02Z</time></trkpt><trkpt lat="39.13296883904614" lon="9.440301614358223"><ele>79.0</ele><time>2026-04-04T15:19:03Z</time></trkpt><trkpt lat="39.13311902051779" lon="9.44035198876365"><ele>79.0</ele><time>2026-04-04T15:19:04Z</time></trkpt><trkpt lat="39.133298339811205" lon="9.440363977246218"><ele>79.0</ele><time>2026-04-04T15:19:05Z</time></trkpt><trkpt lat="39.13347917341731" lon="9.440343505699937"><ele>73.0</ele><time>2026-04-04T15:19:06Z</time></trkpt><trkpt lat="39.133674788595094" lon="9.440334126721064"><ele>67.0</ele><time>2026-04-04T15:19:07Z</time></trkpt><trkpt lat="39.13385302539216" lon="9.440369926293222"><ele>61.0</ele><time>2026-04-04T15:19:08Z</time></trkpt><trkpt lat="39.13402434601342" lon="9.440448129183507"><ele>64.0</ele><time>2026-04-04T15:19:09Z</time></trkpt><trkpt lat="39.13416486078757" lon="9.440536546042898"><ele>67.0</ele><time>2026-04-04T15:19:10Z</time></trkpt><trkpt lat="39.13428006060339" lon="9.440613016786047"><ele>70.0</ele><time>2026-04-04T15:19:11Z</time></trkpt><trkpt lat="39.13439106366028" lon="9.440648691562005"><ele>73.0</ele><time>2026-04-04T15:19:12Z</time></trkpt><trkpt lat="39.13449918257662" lon="9.440625106952808"><ele>73.0</ele><time>2026-04-04T15:19:13Z</time></trkpt><trkpt lat="39.13461047308352" lon="9.440560761188832"><ele>73.0</ele><time>2026-04-04T15:19:14Z</time></trkpt><trkpt lat="39.13469693423853" lon="9.44046271824451"><ele>73.0</ele><time>2026-04-04T15:19:15Z</time></trkpt><trkpt lat="39.134753582040474" lon="9.440284754482434"><ele>73.0</ele><time>2026-04-04T15:19:16Z</time></trkpt><trkpt lat="39.13480571913525" lon="9.440076483605122"><ele>69.25</ele><time>2026-04-04T15:19:17Z</time></trkpt><trkpt lat="39.13489678260966" lon="9.439905387529897"><ele>65.5</ele><time>2026-04-04T15:19:18Z</time></trkpt><trkpt lat="39.13499499506599" lon="9.439801750777576"><ele>61.75</ele><time>2026-04-04T15:19:19Z</time></trkpt><trkpt lat="39.13510649942134" lon="9.439717027926411"><ele>58.0</ele><time>2026-04-04T15:19:20Z</time></trkpt><trkpt lat="39.13524485045457" lon="9.439670868820606"><ele>58.0</ele><time>2026-04-04T15:19:21Z</time></trkpt><trkpt lat="39.13540466492422" lon="9.439653996135249"><ele>58.0</ele><time>2026-04-04T15:19:22Z</time></trkpt><trkpt lat="39.13556355554488" lon="9.439674951608325"><ele>58.0</ele><time>2026-04-04T15:19:23Z</time></trkpt><trkpt lat="39.13573290721443" lon="9.439740025850773"><ele>57.666666666666664</ele><time>2026-04-04T15:19:24Z</time></trkpt><trkpt lat="39.135929807340894" lon="9.43982270435258"><ele>57.33333333333333</ele><time>2026-04-04T15:19:25Z</time></trkpt><trkpt lat="39.13613519645486" lon="9.439893805216856"><ele>57.0</ele><time>2026-04-04T15:19:26Z</time></trkpt><trkpt lat="39.136300353309316" lon="9.43995485385709"><ele>57.0</ele><time>2026-04-04T15:19:27Z</time></trkpt><trkpt lat="39.13643804924879" lon="9.439983530504795"><ele>57.0</ele><time>2026-04-04T15:19:28Z</time></trkpt><trkpt lat="39.13654782794803" lon="9.439986751882614"><ele>57.0</ele><time>2026-04-04T15:19:29Z</time></trkpt><trkpt lat="39.13663042294888" lon="9.439949332804181"><ele>57.0</ele><time>2026-04-04T15:19:30Z</time></trkpt><trkpt lat="39.136680502722754" lon="9.439860678587026"><ele>57.0</ele><time>2026-04-04T15:19:31Z</time></trkpt><trkpt lat="39.136684664572655" lon="9.439743030361289"><ele>52.6</ele><time>2026-04-04T15:19:32Z</time></trkpt><trkpt lat="39.136640994729454" lon="9.43963160444785"><ele>48.2</ele><time>2026-04-04T15:19:33Z</time></trkpt><trkpt lat="39.136553435697024" lon="9.439558333581749"><ele>43.8</ele><time>2026-04-04T15:19:34Z</time></trkpt><trkpt lat="39.13644102563566" lon="9.439541839617458"><ele>39.4</ele><time>2026-04-04T15:19:35Z</time></trkpt><trkpt lat="39.13631381834668" lon="9.439576595091896"><ele>35.0</ele><time>2026-04-04T15:19:36Z</time></trkpt><trkpt lat="39.136166361457995" lon="9.439588554953158"><ele>35.0</ele><time>2026-04-04T15:19:37Z</time></trkpt><trkpt lat="39.13600603352999" lon="9.439530853109446"><ele>35.0</ele><time>2026-04-04T15:19:38Z</time></trkpt><trkpt lat="39.13587012851597" lon="9.439427058338746"><ele>35.0</ele><time>2026-04-04T15:19:39Z</time></trkpt><trkpt lat="39.13572037625961" lon="9.439287657716454"><ele>36.666666666666664</ele><time>2026-04-04T15:19:40Z</time></trkpt><trkpt lat="39.13555686491334" lon="9.43914946209926"><ele>38.333333333333336</ele><time>2026-04-04T15:19:41Z</time></trkpt><trkpt lat="39.13542671611104" lon="9.438952056300517"><ele>40.0</ele><time>2026-04-04T15:19:42Z</time></trkpt><trkpt lat="39.13531016343616" lon="9.438761421050419"><ele>37.8</ele><time>2026-04-04T15:19:43Z</time></trkpt><trkpt lat="39.13522745232058" lon="9.438615863869895"><ele>35.6</ele><time>2026-04-04T15:19:44Z</time></trkpt><trkpt lat="39.135198923040754" lon="9.438473148550942"><ele>33.4</ele><time>2026-04-04T15:19:45Z</time></trkpt><trkpt lat="39.135182610252166" lon="9.438354344219173"><ele>31.2</ele><time>2026-04-04T15:19:46Z</time></trkpt><trkpt lat="39.1352159030761" lon="9.438257382326322"><ele>29.0</ele><time>2026-04-04T15:19:47Z</time></trkpt><trkpt lat="39.135274699365205" lon="9.438182681159397"><ele>29.0</ele><time>2026-04-04T15:19:48Z</time></trkpt><trkpt lat="39.135350042931876" lon="9.438115450191379"><ele>29.0</ele><time>2026-04-04T15:19:49Z</time></trkpt><trkpt lat="39.135449642475265" lon="9.438129239972843"><ele>29.0</ele><time>2026-04-04T15:19:50Z</time></trkpt><trkpt lat="39.13553604208042" lon="9.438212703364485"><ele>29.0</ele><time>2026-04-04T15:19:51Z</time></trkpt><trkpt lat="39.13560322228587" lon="9.438362653476847"><ele>29.0</ele><time>2026-04-04T15:19:52Z</time></trkpt><trkpt lat="39.135710870025974" lon="9.43853525621909"><ele>27.333333333333332</ele><time>2026-04-04T15:19:53Z</time></trkpt><trkpt lat="39.13580188755872" lon="9.438750347826149"><ele>25.666666666666664</ele><time>2026-04-04T15:19:54Z</time></trkpt><trkpt lat="39.135895030900265" lon="9.438893804793576"><ele>24.0</ele><time>2026-04-04T15:19:55Z</time></trkpt><trkpt lat="39.13601434607194" lon="9.438965726481019"><ele>24.333333333333336</ele><time>2026-04-04T15:19:56Z</time></trkpt><trkpt lat="39.136166570997325" lon="9.438979491374157"><ele>24.666666666666668</ele><time>2026-04-04T15:19:56.999Z</time></trkpt><trkpt lat="39.1363588197058" lon="9.438965004130123"><ele>25.0</ele><time>2026-04-04T15:19:57.999Z</time></trkpt><trkpt lat="39.136574471153956" lon="9.438938469523855"><ele>25.0</ele><time>2026-04-04T15:19:58.999Z</time></trkpt><trkpt lat="39.13678884534483" lon="9.438908998704239"><ele>25.0</ele><time>2026-04-04T15:19:59.999Z</time></trkpt><trkpt lat="39.13702328197319" lon="9.43888161257416"><ele>25.0</ele><time>2026-04-04T15:20:00.999Z</time></trkpt><trkpt lat="39.13726330641417" lon="9.438853187802136"><ele>25.0</ele><time>2026-04-04T15:20:01.999Z</time></trkpt><trkpt lat="39.137476664068636" lon="9.438833826742776"><ele>23.333333333333336</ele><time>2026-04-04T15:20:02.999Z</time></trkpt><trkpt lat="39.137663611022894" lon="9.438819197466305"><ele>21.666666666666668</ele><time>2026-04-04T15:20:03.999Z</time></trkpt><trkpt lat="39.13783365798419" lon="9.438788794795517"><ele>20.0</ele><time>2026-04-04T15:20:04.999Z</time></trkpt><trkpt lat="39.137975454941525" lon="9.438710773036224"><ele>17.666666666666668</ele><time>2026-04-04T15:20:05.999Z</time></trkpt><trkpt lat="39.13811785546318" lon="9.438574468303859"><ele>15.333333333333332</ele><time>2026-04-04T15:20:06.999Z</time></trkpt><trkpt lat="39.138269828398215" lon="9.438389313569592"><ele>13.0</ele><time>2026-04-04T15:20:07.999Z</time></trkpt><trkpt lat="39.13842925952412" lon="9.438188436876107"><ele>13.0</ele><time>2026-04-04T15:20:08.999Z</time></trkpt><trkpt lat="39.138590266349155" lon="9.438003319192061"><ele>13.0</ele><time>2026-04-04T15:20:09.999Z</time></trkpt><trkpt lat="39.13874800429806" lon="9.43783200492495"><ele>13.0</ele><time>2026-04-04T15:20:10.999Z</time></trkpt><trkpt lat="39.13887679468167" lon="9.437689771766706"><ele>12.75</ele><time>2026-04-04T15:20:11.999Z</time></trkpt><trkpt lat="39.13898261881049" lon="9.437559825501104"><ele>12.5</ele><time>2026-04-04T15:20:12.999Z</time></trkpt><trkpt lat="39.13906502789631" lon="9.437441798723802"><ele>12.25</ele><time>2026-04-04T15:20:13.999Z</time></trkpt><trkpt lat="39.13911608450562" lon="9.437305592735296"><ele>12.0</ele><time>2026-04-04T15:20:14.999Z</time></trkpt><trkpt lat="39.13914805890033" lon="9.43712642073235"><ele>12.8</ele><time>2026-04-04T15:20:15.999Z</time></trkpt><trkpt lat="39.13915049087473" lon="9.436916391968253"><ele>13.6</ele><time>2026-04-04T15:20:16.999Z</time></trkpt><trkpt lat="39.13914098977405" lon="9.436747700829654"><ele>14.400000000000002</ele><time>2026-04-04T15:20:17.999Z</time></trkpt><trkpt lat="39.13916290805121" lon="9.436647931233749"><ele>15.200000000000001</ele><time>2026-04-04T15:20:18.999Z</time></trkpt><trkpt lat="39.13922071956622" lon="9.436592805418275"><ele>16.0</ele><time>2026-04-04T15:20:19.999Z</time></trkpt><trkpt lat="39.13931025723017" lon="9.436559390730247"><ele>16.0</ele><time>2026-04-04T15:20:20.999Z</time></trkpt><trkpt lat="39.139436423067714" lon="9.436530367251722"><ele>16.0</ele><time>2026-04-04T15:20:21.999Z</time></trkpt><trkpt lat="39.13958885561186" lon="9.43650070031092"><ele>16.0</ele><time>2026-04-04T15:20:22.999Z</time></trkpt><trkpt lat="39.13976406133622" lon="9.436451659032945"><ele>15.666666666666666</ele><time>2026-04-04T15:20:24Z</time></trkpt><trkpt lat="39.13995432377696" lon="9.43639050802373"><ele>15.333333333333332</ele><time>2026-04-04T15:20:25Z</time></trkpt><trkpt lat="39.14013601754642" lon="9.436331266788832"><ele>15.0</ele><time>2026-04-04T15:20:26Z</time></trkpt><trkpt lat="39.14032873608696" lon="9.436268236058275"><ele>20.333333333333336</ele><time>2026-04-04T15:20:27Z</time></trkpt><trkpt lat="39.140543112200646" lon="9.436203337742622"><ele>25.666666666666668</ele><time>2026-04-04T15:20:28Z</time></trkpt><trkpt lat="39.140761379690204" lon="9.436119991046075"><ele>31.0</ele><time>2026-04-04T15:20:29Z</time></trkpt><trkpt lat="39.140968530961025" lon="9.436019612021834"><ele>31.0</ele><time>2026-04-04T15:20:30Z</time></trkpt><trkpt lat="39.1411728663398" lon="9.435910229619648"><ele>31.0</ele><time>2026-04-04T15:20:31Z</time></trkpt><trkpt lat="39.14136167354585" lon="9.435804408953315"><ele>31.0</ele><time>2026-04-04T15:20:32Z</time></trkpt><trkpt lat="39.14153588914795" lon="9.435704895707719"><ele>27.666666666666668</ele><time>2026-04-04T15:20:33Z</time></trkpt><trkpt lat="39.14169183494915" lon="9.435621430052965"><ele>24.333333333333336</ele><time>2026-04-04T15:20:34Z</time></trkpt><trkpt lat="39.14182958349891" lon="9.435564398036979"><ele>21.0</ele><time>2026-04-04T15:20:35Z</time></trkpt><trkpt lat="39.14196620671677" lon="9.43553558753987"><ele>21.0</ele><time>2026-04-04T15:20:36Z</time></trkpt><trkpt lat="39.142120659466784" lon="9.435533542260353"><ele>21.0</ele><time>2026-04-04T15:20:37Z</time></trkpt><trkpt lat="39.14228762036199" lon="9.435547739712092"><ele>21.0</ele><time>2026-04-04T15:20:38Z</time></trkpt><trkpt lat="39.14244254431306" lon="9.435555001888725"><ele>20.5</ele><time>2026-04-04T15:20:39Z</time></trkpt><trkpt lat="39.142579205208094" lon="9.435531875884513"><ele>20.0</ele><time>2026-04-04T15:20:40Z</time></trkpt><trkpt lat="39.14271731704252" lon="9.435457270325331"><ele>19.5</ele><time>2026-04-04T15:20:41Z</time></trkpt><trkpt lat="39.14285577839573" lon="9.43535036947961"><ele>19.0</ele><time>2026-04-04T15:20:42Z</time></trkpt><trkpt lat="39.14297541530733" lon="9.435246454418714"><ele>19.5</ele><time>2026-04-04T15:20:43Z</time></trkpt><trkpt lat="39.1430811227196" lon="9.435158304292678"><ele>20.0</ele><time>2026-04-04T15:20:44Z</time></trkpt><trkpt lat="39.1431746179882" lon="9.435064023403925"><ele>20.5</ele><time>2026-04-04T15:20:45Z</time></trkpt><trkpt lat="39.14325167726509" lon="9.434950721616909"><ele>21.0</ele><time>2026-04-04T15:20:46Z</time></trkpt><trkpt lat="39.14331596593712" lon="9.434810560548582"><ele>21.0</ele><time>2026-04-04T15:20:47Z</time></trkpt><trkpt lat="39.143357638819126" lon="9.434653856614732"><ele>21.0</ele><time>2026-04-04T15:20:48Z</time></trkpt><trkpt lat="39.143420421580416" lon="9.434531277484206"><ele>21.0</ele><time>2026-04-04T15:20:49Z</time></trkpt><trkpt lat="39.14335902201474" lon="9.434345292080957"><ele>21.0</ele><time>2026-04-04T15:20:50Z</time></trkpt><trkpt lat="39.143315686076015" lon="9.434178884103867"><ele>21.333333333333332</ele><time>2026-04-04T15:20:51Z</time></trkpt><trkpt lat="39.14323891271551" lon="9.434012268058327"><ele>21.666666666666664</ele><time>2026-04-04T15:20:52Z</time></trkpt><trkpt lat="39.14313227466515" lon="9.43384274451144"><ele>22.0</ele><time>2026-04-04T15:20:53Z</time></trkpt><trkpt lat="39.14301452745373" lon="9.433669501800248"><ele>22.0</ele><time>2026-04-04T15:20:54Z</time></trkpt><trkpt lat="39.142890229135666" lon="9.433472531168292"><ele>22.0</ele><time>2026-04-04T15:20:55Z</time></trkpt><trkpt lat="39.14277255365294" lon="9.433278446896042"><ele>22.0</ele><time>2026-04-04T15:20:56Z</time></trkpt><trkpt lat="39.142670934975456" lon="9.433106938043377"><ele>22.333333333333332</ele><time>2026-04-04T15:20:57Z</time></trkpt><trkpt lat="39.1425774246075" lon="9.432933086187989"><ele>22.666666666666668</ele><time>2026-04-04T15:20:58Z</time></trkpt><trkpt lat="39.14249566369562" lon="9.43272482546531"><ele>23.0</ele><time>2026-04-04T15:20:59Z</time></trkpt><trkpt lat="39.14239575023877" lon="9.43250491974104"><ele>20.0</ele><time>2026-04-04T15:21:00Z</time></trkpt><trkpt lat="39.142301553348005" lon="9.432297596003533"><ele>17.0</ele><time>2026-04-04T15:21:01Z</time></trkpt><trkpt lat="39.142195164686385" lon="9.432099496175757"><ele>14.0</ele><time>2026-04-04T15:21:02Z</time></trkpt><trkpt lat="39.14210516853017" lon="9.43189632312318"><ele>14.0</ele><time>2026-04-04T15:21:03Z</time></trkpt><trkpt lat="39.14202189080024" lon="9.43167581352494"><ele>14.0</ele><time>2026-04-04T15:21:04Z</time></trkpt><trkpt lat="39.14191301238985" lon="9.431464221232787"><ele>14.0</ele><time>2026-04-04T15:21:05Z</time></trkpt><trkpt lat="39.141805063264336" lon="9.431233888824684"><ele>14.333333333333334</ele><time>2026-04-04T15:21:06Z</time></trkpt><trkpt lat="39.14170890275981" lon="9.430985441611899"><ele>14.666666666666668</ele><time>2026-04-04T15:21:07Z</time></trkpt><trkpt lat="39.14158773600523" lon="9.430763077200721"><ele>15.0</ele><time>2026-04-04T15:21:08Z</time></trkpt><trkpt lat="39.141483611630875" lon="9.43053496292006"><ele>15.333333333333332</ele><time>2026-04-04T15:21:09Z</time></trkpt><trkpt lat="39.141380899099005" lon="9.430313285800674"><ele>15.666666666666666</ele><time>2026-04-04T15:21:10Z</time></trkpt><trkpt lat="39.14128407555653" lon="9.430099103758328"><ele>16.0</ele><time>2026-04-04T15:21:11Z</time></trkpt><trkpt lat="39.141187183814935" lon="9.429884276669293"><ele>16.0</ele><time>2026-04-04T15:21:12Z</time></trkpt><trkpt lat="39.1410897957637" lon="9.429671866065318"><ele>16.0</ele><time>2026-04-04T15:21:13Z</time></trkpt><trkpt lat="39.14101024874481" lon="9.429454748586236"><ele>16.0</ele><time>2026-04-04T15:21:14Z</time></trkpt><trkpt lat="39.140920884475506" lon="9.429257974585058"><ele>16.0</ele><time>2026-04-04T15:21:15Z</time></trkpt><trkpt lat="39.140830907165274" lon="9.429059850736456"><ele>16.0</ele><time>2026-04-04T15:21:16Z</time></trkpt><trkpt lat="39.14073904698269" lon="9.428855193047507"><ele>16.0</ele><time>2026-04-04T15:21:17Z</time></trkpt><trkpt lat="39.14064256825392" lon="9.428637558649914"><ele>16.0</ele><time>2026-04-04T15:21:18Z</time></trkpt><trkpt lat="39.14054286694478" lon="9.428417794991391"><ele>16.0</ele><time>2026-04-04T15:21:19Z</time></trkpt><trkpt lat="39.140426326677215" lon="9.428211416177714"><ele>16.0</ele><time>2026-04-04T15:21:20Z</time></trkpt><trkpt lat="39.1403468215571" lon="9.42799659896193"><ele>18.0</ele><time>2026-04-04T15:21:21Z</time></trkpt><trkpt lat="39.14024130557377" lon="9.42782868426089"><ele>20.0</ele><time>2026-04-04T15:21:22Z</time></trkpt><trkpt lat="39.14015177768023" lon="9.427678275300567"><ele>22.0</ele><time>2026-04-04T15:21:23Z</time></trkpt><trkpt lat="39.140046705337404" lon="9.4275538655818"><ele>22.0</ele><time>2026-04-04T15:21:24Z</time></trkpt><trkpt lat="39.13990974153012" lon="9.42747913586162"><ele>22.0</ele><time>2026-04-04T15:21:25Z</time></trkpt><trkpt lat="39.1397529891923" lon="9.427445500243541"><ele>22.0</ele><time>2026-04-04T15:21:26Z</time></trkpt><trkpt lat="39.13957756959217" lon="9.427427047718218"><ele>22.333333333333332</ele><time>2026-04-04T15:21:27Z</time></trkpt><trkpt lat="39.13940278540436" lon="9.427400131253503"><ele>22.666666666666668</ele><time>2026-04-04T15:21:28Z</time></trkpt><trkpt lat="39.1392332547422" lon="9.427348211276982"><ele>23.0</ele><time>2026-04-04T15:21:29Z</time></trkpt><trkpt lat="39.13909582322612" lon="9.427226482583773"><ele>23.5</ele><time>2026-04-04T15:21:30Z</time></trkpt><trkpt lat="39.138956581711014" lon="9.427097999179077"><ele>24.0</ele><time>2026-04-04T15:21:31Z</time></trkpt><trkpt lat="39.13884094419126" lon="9.426969150428521"><ele>24.5</ele><time>2026-04-04T15:21:32Z</time></trkpt><trkpt lat="39.13876548318118" lon="9.426852063283015"><ele>25.0</ele><time>2026-04-04T15:21:33Z</time></trkpt><trkpt lat="39.13871315433797" lon="9.426721965648447"><ele>25.0</ele><time>2026-04-04T15:21:34Z</time></trkpt><trkpt lat="39.138673252964345" lon="9.42655712808775"><ele>25.0</ele><time>2026-04-04T15:21:35Z</time></trkpt><trkpt lat="39.13868151047988" lon="9.426335074542067"><ele>25.0</ele><time>2026-04-04T15:21:36Z</time></trkpt><trkpt lat="39.138668543859" lon="9.426091947454115"><ele>25.0</ele><time>2026-04-04T15:21:37Z</time></trkpt><trkpt lat="39.13864262211529" lon="9.425834534586524"><ele>25.0</ele><time>2026-04-04T15:21:38Z</time></trkpt><trkpt lat="39.13865306620604" lon="9.425583803686665"><ele>25.0</ele><time>2026-04-04T15:21:39Z</time></trkpt><trkpt lat="39.13868559391876" lon="9.425339210863152"><ele>26.0</ele><time>2026-04-04T15:21:40Z</time></trkpt><trkpt lat="39.13875294829007" lon="9.425095162413403"><ele>27.0</ele><time>2026-04-04T15:21:41Z</time></trkpt><trkpt lat="39.13879007243839" lon="9.424863619458037"><ele>28.0</ele><time>2026-04-04T15:21:42Z</time></trkpt><trkpt lat="39.138847709793204" lon="9.424652279444217"><ele>28.666666666666668</ele><time>2026-04-04T15:21:43Z</time></trkpt><trkpt lat="39.138927062865754" lon="9.424447647328632"><ele>29.333333333333336</ele><time>2026-04-04T15:21:44Z</time></trkpt><trkpt lat="39.13901989332169" lon="9.42426440241051"><ele>30.0</ele><time>2026-04-04T15:21:45Z</time></trkpt><trkpt lat="39.13910047504517" lon="9.424131239338505"><ele>33.4</ele><time>2026-04-04T15:21:45.999Z</time></trkpt><trkpt lat="39.13914918401893" lon="9.424025768017676"><ele>36.8</ele><time>2026-04-04T15:21:46.999Z</time></trkpt><trkpt lat="39.13918528326665" lon="9.423926607174185"><ele>40.2</ele><time>2026-04-04T15:21:47.999Z</time></trkpt><trkpt lat="39.13917746468998" lon="9.423811526523993"><ele>43.6</ele><time>2026-04-04T15:21:48.999Z</time></trkpt><trkpt lat="39.139084662596694" lon="9.423701418429202"><ele>47.0</ele><time>2026-04-04T15:21:49.999Z</time></trkpt><trkpt lat="39.13897622904793" lon="9.423598868676184"><ele>47.33333333333333</ele><time>2026-04-04T15:21:50.999Z</time></trkpt><trkpt lat="39.13885303103704" lon="9.423494410617856"><ele>47.666666666666664</ele><time>2026-04-04T15:21:51.999Z</time></trkpt><trkpt lat="39.13871642086143" lon="9.423376923900035"><ele>48.0</ele><time>2026-04-04T15:21:52.999Z</time></trkpt><trkpt lat="39.138561328612596" lon="9.423263868373812"><ele>48.0</ele><time>2026-04-04T15:21:53.999Z</time></trkpt><trkpt lat="39.13840604900505" lon="9.423186623255047"><ele>48.0</ele><time>2026-04-04T15:21:54.999Z</time></trkpt><trkpt lat="39.138246605769616" lon="9.423149804516374"><ele>48.0</ele><time>2026-04-04T15:21:55.999Z</time></trkpt><trkpt lat="39.138068177152924" lon="9.42316826331565"><ele>48.66666666666667</ele><time>2026-04-04T15:21:56.999Z</time></trkpt><trkpt lat="39.13787229604253" lon="9.423205593217258"><ele>49.333333333333336</ele><time>2026-04-04T15:21:57.999Z</time></trkpt><trkpt lat="39.137673661918534" lon="9.423238472945672"><ele>50.0</ele><time>2026-04-04T15:21:58.999Z</time></trkpt><trkpt lat="39.13750638658107" lon="9.423260515758212"><ele>50.0</ele><time>2026-04-04T15:21:59.999Z</time></trkpt><trkpt lat="39.1373619170596" lon="9.42323653373747"><ele>50.0</ele><time>2026-04-04T15:22:00.999Z</time></trkpt><trkpt lat="39.137217084783074" lon="9.423190464127577"><ele>50.0</ele><time>2026-04-04T15:22:01.999Z</time></trkpt><trkpt lat="39.1370391110714" lon="9.423136344647377"><ele>50.0</ele><time>2026-04-04T15:22:02.999Z</time></trkpt><trkpt lat="39.136854128345384" lon="9.423048231544232"><ele>50.0</ele><time>2026-04-04T15:22:03.999Z</time></trkpt><trkpt lat="39.13667391228218" lon="9.422977939247836"><ele>50.0</ele><time>2026-04-04T15:22:04.999Z</time></trkpt><trkpt lat="39.13652247723922" lon="9.422921177480696"><ele>50.8</ele><time>2026-04-04T15:22:05.999Z</time></trkpt><trkpt lat="39.13639633777207" lon="9.422869306848586"><ele>51.6</ele><time>2026-04-04T15:22:06.999Z</time></trkpt><trkpt lat="39.13629119586583" lon="9.422820317521845"><ele>52.400000000000006</ele><time>2026-04-04T15:22:07.999Z</time></trkpt><trkpt lat="39.136222827881525" lon="9.422751599672"><ele>53.2</ele><time>2026-04-04T15:22:08.999Z</time></trkpt><trkpt lat="39.136183974536756" lon="9.422650055807216"><ele>54.0</ele><time>2026-04-04T15:22:09.999Z</time></trkpt><trkpt lat="39.13617621965879" lon="9.422520437469919"><ele>54.0</ele><time>2026-04-04T15:22:10.999Z</time></trkpt><trkpt lat="39.136234918029466" lon="9.422366618071125"><ele>54.0</ele><time>2026-04-04T15:22:11.999Z</time></trkpt><trkpt lat="39.13627951729074" lon="9.422174402844016"><ele>54.0</ele><time>2026-04-04T15:22:12.999Z</time></trkpt><trkpt lat="39.13632678579651" lon="9.4219576441643"><ele>54.5</ele><time>2026-04-04T15:22:13.999Z</time></trkpt><trkpt lat="39.13639142481959" lon="9.421767371480515"><ele>55.0</ele><time>2026-04-04T15:22:14.999Z</time></trkpt><trkpt lat="39.13647031544241" lon="9.421614500719025"><ele>55.5</ele><time>2026-04-04T15:22:15.999Z</time></trkpt><trkpt lat="39.13653817867438" lon="9.421469100211764"><ele>56.0</ele><time>2026-04-04T15:22:16.999Z</time></trkpt><trkpt lat="39.13659816547414" lon="9.421314675286593"><ele>56.0</ele><time>2026-04-04T15:22:17.999Z</time></trkpt><trkpt lat="39.13667264311809" lon="9.421170691364612"><ele>56.0</ele><time>2026-04-04T15:22:18.999Z</time></trkpt><trkpt lat="39.136736804900934" lon="9.42101103101063"><ele>56.0</ele><time>2026-04-04T15:22:19.999Z</time></trkpt><trkpt lat="39.1367819969773" lon="9.420829692185599"><ele>56.0</ele><time>2026-04-04T15:22:20.999Z</time></trkpt><trkpt lat="39.136827702864046" lon="9.420651905997353"><ele>56.0</ele><time>2026-04-04T15:22:21.999Z</time></trkpt><trkpt lat="39.136847487554284" lon="9.420498737992565"><ele>56.0</ele><time>2026-04-04T15:22:22.999Z</time></trkpt><trkpt lat="39.13688624836536" lon="9.420354383488876"><ele>56.0</ele><time>2026-04-04T15:22:23.999Z</time></trkpt><trkpt lat="39.13693572681422" lon="9.420203040823909"><ele>56.0</ele><time>2026-04-04T15:22:24.999Z</time></trkpt><trkpt lat="39.13699296381037" lon="9.420045146519607"><ele>54.5</ele><time>2026-04-04T15:22:25.999Z</time></trkpt><trkpt lat="39.13704714849183" lon="9.419899981686143"><ele>53.0</ele><time>2026-04-04T15:22:26.999Z</time></trkpt><trkpt lat="39.13709638301462" lon="9.41974844838045"><ele>51.5</ele><time>2026-04-04T15:22:27.999Z</time></trkpt><trkpt lat="39.13713678474303" lon="9.419579674247517"><ele>50.0</ele><time>2026-04-04T15:22:28.999Z</time></trkpt><trkpt lat="39.13716387503417" lon="9.419396969303996"><ele>50.0</ele><time>2026-04-04T15:22:30Z</time></trkpt><trkpt lat="39.13718583148057" lon="9.419210722221353"><ele>50.0</ele><time>2026-04-04T15:22:31Z</time></trkpt><trkpt lat="39.13723971931461" lon="9.419044136878204"><ele>50.0</ele><time>2026-04-04T15:22:32Z</time></trkpt><trkpt lat="39.137307891635125" lon="9.418891486559813"><ele>50.0</ele><time>2026-04-04T15:22:33Z</time></trkpt><trkpt lat="39.137386101268625" lon="9.418739672334791"><ele>53.0</ele><time>2026-04-04T15:22:34Z</time></trkpt><trkpt lat="39.137453515191346" lon="9.41857254874668"><ele>56.0</ele><time>2026-04-04T15:22:35Z</time></trkpt><trkpt lat="39.13752744079657" lon="9.418422287030948"><ele>59.0</ele><time>2026-04-04T15:22:36Z</time></trkpt><trkpt lat="39.137585272646625" lon="9.41827970724555"><ele>62.0</ele><time>2026-04-04T15:22:37Z</time></trkpt><trkpt lat="39.13762655871637" lon="9.418143312040426"><ele>62.0</ele><time>2026-04-04T15:22:38Z</time></trkpt><trkpt lat="39.13767736039804" lon="9.418022100508642"><ele>62.0</ele><time>2026-04-04T15:22:39Z</time></trkpt><trkpt lat="39.13771573491461" lon="9.417906566986852"><ele>62.0</ele><time>2026-04-04T15:22:40Z</time></trkpt><trkpt lat="39.13775539377031" lon="9.417804797212446"><ele>62.0</ele><time>2026-04-04T15:22:41Z</time></trkpt><trkpt lat="39.13780823221314" lon="9.417699569428631"><ele>62.0</ele><time>2026-04-04T15:22:42Z</time></trkpt><trkpt lat="39.137906848432685" lon="9.417632865599726"><ele>61.0</ele><time>2026-04-04T15:22:43Z</time></trkpt><trkpt lat="39.13802847924208" lon="9.417646019177715"><ele>60.0</ele><time>2026-04-04T15:22:44Z</time></trkpt><trkpt lat="39.138156805744494" lon="9.417641234607629"><ele>59.0</ele><time>2026-04-04T15:22:45Z</time></trkpt><trkpt lat="39.13828930594398" lon="9.417669376170858"><ele>58.0</ele><time>2026-04-04T15:22:46Z</time></trkpt><trkpt lat="39.13843290357336" lon="9.417700430875664"><ele>57.0</ele><time>2026-04-04T15:22:47Z</time></trkpt><trkpt lat="39.1385956734348" lon="9.41775034528196"><ele>56.0</ele><time>2026-04-04T15:22:48Z</time></trkpt><trkpt lat="39.13878430250642" lon="9.417859902594929"><ele>55.0</ele><time>2026-04-04T15:22:49Z</time></trkpt><trkpt lat="39.13898624002371" lon="9.417956103147576"><ele>58.666666666666664</ele><time>2026-04-04T15:22:50Z</time></trkpt><trkpt lat="39.13916726347233" lon="9.41802549761335"><ele>62.33333333333333</ele><time>2026-04-04T15:22:51Z</time></trkpt><trkpt lat="39.13933171302871" lon="9.41809865738564"><ele>66.0</ele><time>2026-04-04T15:22:52Z</time></trkpt><trkpt lat="39.13947331931889" lon="9.41814909801429"><ele>66.0</ele><time>2026-04-04T15:22:53Z</time></trkpt><trkpt lat="39.139616796743795" lon="9.418195786230953"><ele>66.0</ele><time>2026-04-04T15:22:54Z</time></trkpt><trkpt lat="39.13973027645557" lon="9.418199783446667"><ele>66.0</ele><time>2026-04-04T15:22:55Z</time></trkpt><trkpt lat="39.13983699008313" lon="9.41817370272634"><ele>66.0</ele><time>2026-04-04T15:22:56Z</time></trkpt><trkpt lat="39.13993996431978" lon="9.418120956190371"><ele>65.8</ele><time>2026-04-04T15:22:57Z</time></trkpt><trkpt lat="39.1400243590042" lon="9.418060435265103"><ele>65.6</ele><time>2026-04-04T15:22:58Z</time></trkpt><trkpt lat="39.14009307217341" lon="9.41798578272596"><ele>65.4</ele><time>2026-04-04T15:22:59Z</time></trkpt><trkpt lat="39.14016008943351" lon="9.417896762570514"><ele>65.2</ele><time>2026-04-04T15:23:00Z</time></trkpt><trkpt lat="39.14023481333876" lon="9.417811039647686"><ele>65.0</ele><time>2026-04-04T15:23:01Z</time></trkpt><trkpt lat="39.140350195198614" lon="9.417768079197849"><ele>61.75</ele><time>2026-04-04T15:23:02Z</time></trkpt><trkpt lat="39.14046533813282" lon="9.417760278611418"><ele>58.5</ele><time>2026-04-04T15:23:03Z</time></trkpt><trkpt lat="39.140581528497535" lon="9.417759478140379"><ele>55.25</ele><time>2026-04-04T15:23:04Z</time></trkpt><trkpt lat="39.14070646049338" lon="9.417771413208802"><ele>52.0</ele><time>2026-04-04T15:23:05Z</time></trkpt><trkpt lat="39.14084001824156" lon="9.417771146606082"><ele>50.5</ele><time>2026-04-04T15:23:06Z</time></trkpt><trkpt lat="39.14098752035418" lon="9.417788559258835"><ele>49.0</ele><time>2026-04-04T15:23:07Z</time></trkpt><trkpt lat="39.141132196844204" lon="9.417797663297817"><ele>47.5</ele><time>2026-04-04T15:23:08Z</time></trkpt><trkpt lat="39.141283927071576" lon="9.417795834013283"><ele>46.0</ele><time>2026-04-04T15:23:09Z</time></trkpt><trkpt lat="39.1414370349888" lon="9.417778635247892"><ele>44.75</ele><time>2026-04-04T15:23:10Z</time></trkpt><trkpt lat="39.1415779857444" lon="9.417774167155217"><ele>43.5</ele><time>2026-04-04T15:23:11Z</time></trkpt><trkpt lat="39.141707804670496" lon="9.41778035665209"><ele>42.25</ele><time>2026-04-04T15:23:12Z</time></trkpt><trkpt lat="39.14181833445643" lon="9.417780864621065"><ele>41.0</ele><time>2026-04-04T15:23:13Z</time></trkpt><trkpt lat="39.14192164266291" lon="9.417733451138242"><ele>41.0</ele><time>2026-04-04T15:23:14Z</time></trkpt><trkpt lat="39.14200183824084" lon="9.417645493918887"><ele>41.0</ele><time>2026-04-04T15:23:15Z</time></trkpt><trkpt lat="39.14206770628588" lon="9.417541167184371"><ele>41.0</ele><time>2026-04-04T15:23:16Z</time></trkpt><trkpt lat="39.14213011291497" lon="9.417439091376412"><ele>41.0</ele><time>2026-04-04T15:23:17Z</time></trkpt><trkpt lat="39.142202558049" lon="9.417354739927337"><ele>41.0</ele><time>2026-04-04T15:23:18Z</time></trkpt><trkpt lat="39.142282582488534" lon="9.417289539069808"><ele>41.0</ele><time>2026-04-04T15:23:19Z</time></trkpt><trkpt lat="39.14238084103609" lon="9.41724107409517"><ele>41.0</ele><time>2026-04-04T15:23:20Z</time></trkpt><trkpt lat="39.142503891991815" lon="9.417231260695017"><ele>41.0</ele><time>2026-04-04T15:23:21Z</time></trkpt><trkpt lat="39.14262783760517" lon="9.41725208776976"><ele>41.0</ele><time>2026-04-04T15:23:22Z</time></trkpt><trkpt lat="39.14273308316016" lon="9.417251065209408"><ele>41.5</ele><time>2026-04-04T15:23:23Z</time></trkpt><trkpt lat="39.14281229993978" lon="9.417285305250008"><ele>42.0</ele><time>2026-04-04T15:23:24Z</time></trkpt><trkpt lat="39.14289152551798" lon="9.417266746623683"><ele>42.5</ele><time>2026-04-04T15:23:25Z</time></trkpt><trkpt lat="39.14296013938658" lon="9.417201745992182"><ele>43.0</ele><time>2026-04-04T15:23:26Z</time></trkpt><trkpt lat="39.143010984327994" lon="9.417102917978116"><ele>43.5</ele><time>2026-04-04T15:23:27Z</time></trkpt><trkpt lat="39.14303887852381" lon="9.416982395682124"><ele>44.0</ele><time>2026-04-04T15:23:28Z</time></trkpt><trkpt lat="39.14303501816774" lon="9.41686503041591"><ele>41.5</ele><time>2026-04-04T15:23:29Z</time></trkpt><trkpt lat="39.14299727896165" lon="9.416758660689439"><ele>39.0</ele><time>2026-04-04T15:23:30Z</time></trkpt><trkpt lat="39.14293630592" lon="9.416651035882364"><ele>36.5</ele><time>2026-04-04T15:23:31Z</time></trkpt><trkpt lat="39.14285074094406" lon="9.416520709319274"><ele>34.0</ele><time>2026-04-04T15:23:32Z</time></trkpt><trkpt lat="39.14273192895119" lon="9.41637635955609"><ele>33.333333333333336</ele><time>2026-04-04T15:23:33Z</time></trkpt><trkpt lat="39.142574983083925" lon="9.41623035263444"><ele>32.666666666666664</ele><time>2026-04-04T15:23:34Z</time></trkpt><trkpt lat="39.14240390167" lon="9.416053612782592"><ele>32.0</ele><time>2026-04-04T15:23:35Z</time></trkpt><trkpt lat="39.14221866802996" lon="9.415880982213896"><ele>32.0</ele><time>2026-04-04T15:23:36Z</time></trkpt><trkpt lat="39.142040741057805" lon="9.415715161177344"><ele>32.0</ele><time>2026-04-04T15:23:37Z</time></trkpt><trkpt lat="39.1418494456042" lon="9.415548899826495"><ele>32.666666666666664</ele><time>2026-04-04T15:23:38Z</time></trkpt><trkpt lat="39.14166174417615" lon="9.415366702785963"><ele>33.333333333333336</ele><time>2026-04-04T15:23:39Z</time></trkpt><trkpt lat="39.1414998684409" lon="9.415219086979397"><ele>34.0</ele><time>2026-04-04T15:23:40Z</time></trkpt><trkpt lat="39.14135924739576" lon="9.415095986700413"><ele>34.0</ele><time>2026-04-04T15:23:41Z</time></trkpt><trkpt lat="39.14122689349488" lon="9.414977085399988"><ele>34.0</ele><time>2026-04-04T15:23:42Z</time></trkpt><trkpt lat="39.1411082703518" lon="9.414859909623177"><ele>34.0</ele><time>2026-04-04T15:23:43Z</time></trkpt><trkpt lat="39.14100649942932" lon="9.41474383857259"><ele>34.0</ele><time>2026-04-04T15:23:44Z</time></trkpt><trkpt lat="39.14091431585727" lon="9.414624348232538"><ele>30.25</ele><time>2026-04-04T15:23:45Z</time></trkpt><trkpt lat="39.14082070166113" lon="9.414491630514064"><ele>26.5</ele><time>2026-04-04T15:23:46Z</time></trkpt><trkpt lat="39.140755166143165" lon="9.414335442655027"><ele>22.75</ele><time>2026-04-04T15:23:47Z</time></trkpt><trkpt lat="39.14069579227456" lon="9.414200619499088"><ele>19.0</ele><time>2026-04-04T15:23:48Z</time></trkpt><trkpt lat="39.140641332709414" lon="9.414072790958015"><ele>19.0</ele><time>2026-04-04T15:23:49Z</time></trkpt><trkpt lat="39.140617984343706" lon="9.413942572680948"><ele>19.0</ele><time>2026-04-04T15:23:50Z</time></trkpt><trkpt lat="39.140612790676634" lon="9.413803170015457"><ele>19.0</ele><time>2026-04-04T15:23:51Z</time></trkpt><trkpt lat="39.14062324898942" lon="9.413642289304837"><ele>19.0</ele><time>2026-04-04T15:23:52Z</time></trkpt><trkpt lat="39.14064975488708" lon="9.413474597113225"><ele>18.75</ele><time>2026-04-04T15:23:53Z</time></trkpt><trkpt lat="39.1406829091911" lon="9.413299930645067"><ele>18.5</ele><time>2026-04-04T15:23:54Z</time></trkpt><trkpt lat="39.140742179741736" lon="9.413125779775593"><ele>18.25</ele><time>2026-04-04T15:23:55Z</time></trkpt><trkpt lat="39.14079522490629" lon="9.412967045994186"><ele>18.0</ele><time>2026-04-04T15:23:55.999Z</time></trkpt><trkpt lat="39.14085585222063" lon="9.412806958871235"><ele>24.0</ele><time>2026-04-04T15:23:56.999Z</time></trkpt><trkpt lat="39.14092106058849" lon="9.412645589777808"><ele>30.0</ele><time>2026-04-04T15:23:57.999Z</time></trkpt><trkpt lat="39.140991255904964" lon="9.412482517798022"><ele>36.0</ele><time>2026-04-04T15:23:58.999Z</time></trkpt><trkpt lat="39.1410658143563" lon="9.412321632487577"><ele>42.0</ele><time>2026-04-04T15:23:59.999Z</time></trkpt><trkpt lat="39.14114072814616" lon="9.412161266989497"><ele>34.666666666666664</ele><time>2026-04-04T15:24:00.999Z</time></trkpt><trkpt lat="39.1412174752" lon="9.411996021201583"><ele>27.333333333333336</ele><time>2026-04-04T15:24:01.999Z</time></trkpt><trkpt lat="39.14129557012723" lon="9.411827873322885"><ele>20.0</ele><time>2026-04-04T15:24:02.999Z</time></trkpt><trkpt lat="39.1413619429177" lon="9.411647868473894"><ele>20.0</ele><time>2026-04-04T15:24:03.999Z</time></trkpt><trkpt lat="39.141434634953285" lon="9.411491632680114"><ele>20.0</ele><time>2026-04-04T15:24:04.999Z</time></trkpt><trkpt lat="39.14151374976619" lon="9.411362636776548"><ele>20.0</ele><time>2026-04-04T15:24:05.999Z</time></trkpt><trkpt lat="39.14158117025855" lon="9.411233961890181"><ele>20.0</ele><time>2026-04-04T15:24:06.999Z</time></trkpt><trkpt lat="39.141660702821234" lon="9.411125309814437"><ele>24.25</ele><time>2026-04-04T15:24:07.999Z</time></trkpt><trkpt lat="39.14175668409538" lon="9.411051002414148"><ele>28.5</ele><time>2026-04-04T15:24:08.999Z</time></trkpt><trkpt lat="39.141860963452615" lon="9.410989784886675"><ele>32.75</ele><time>2026-04-04T15:24:09.999Z</time></trkpt><trkpt lat="39.14199628975559" lon="9.41096605771361"><ele>37.0</ele><time>2026-04-04T15:24:10.999Z</time></trkpt><trkpt lat="39.14215423178111" lon="9.410946057711003"><ele>37.0</ele><time>2026-04-04T15:24:11.999Z</time></trkpt><trkpt lat="39.142329822822525" lon="9.41092366144361"><ele>37.0</ele><time>2026-04-04T15:24:12.999Z</time></trkpt><trkpt lat="39.14249427515173" lon="9.41090347827588"><ele>37.0</ele><time>2026-04-04T15:24:13.999Z</time></trkpt><trkpt lat="39.14264952380648" lon="9.41088586170644"><ele>38.5</ele><time>2026-04-04T15:24:14.999Z</time></trkpt><trkpt lat="39.14279867423328" lon="9.410869322456008"><ele>40.0</ele><time>2026-04-04T15:24:15.999Z</time></trkpt><trkpt lat="39.1429442025829" lon="9.410858673011802"><ele>41.5</ele><time>2026-04-04T15:24:16.999Z</time></trkpt><trkpt lat="39.14308084071858" lon="9.410849400489083"><ele>43.0</ele><time>2026-04-04T15:24:17.999Z</time></trkpt><trkpt lat="39.14320254914732" lon="9.410835591066062"><ele>42.8</ele><time>2026-04-04T15:24:18.999Z</time></trkpt><trkpt lat="39.14331433156922" lon="9.410816878899098"><ele>42.599999999999994</ele><time>2026-04-04T15:24:19.999Z</time></trkpt><trkpt lat="39.143420210858324" lon="9.410781522332192"><ele>42.400000000000006</ele><time>2026-04-04T15:24:20.999Z</time></trkpt><trkpt lat="39.14351363610499" lon="9.410711008810102"><ele>42.2</ele><time>2026-04-04T15:24:21.999Z</time></trkpt><trkpt lat="39.14358587557331" lon="9.41059860781976"><ele>42.0</ele><time>2026-04-04T15:24:22.999Z</time></trkpt><trkpt lat="39.14364933821336" lon="9.410441150256739"><ele>38.25</ele><time>2026-04-04T15:24:23.999Z</time></trkpt><trkpt lat="39.14372068878809" lon="9.410257867411875"><ele>34.5</ele><time>2026-04-04T15:24:24.999Z</time></trkpt><trkpt lat="39.143832819005866" lon="9.410139473748416"><ele>30.75</ele><time>2026-04-04T15:24:25.999Z</time></trkpt><trkpt lat="39.14394032320783" lon="9.41001447638562"><ele>27.0</ele><time>2026-04-04T15:24:26.999Z</time></trkpt><trkpt lat="39.14403638167482" lon="9.40988027912655"><ele>28.25</ele><time>2026-04-04T15:24:27.999Z</time></trkpt><trkpt lat="39.1441527243559" lon="9.409777194819855"><ele>29.5</ele><time>2026-04-04T15:24:28.999Z</time></trkpt><trkpt lat="39.14424529626795" lon="9.4096848563485"><ele>30.75</ele><time>2026-04-04T15:24:29.999Z</time></trkpt><trkpt lat="39.144333632186694" lon="9.409638637000393"><ele>32.0</ele><time>2026-04-04T15:24:30.999Z</time></trkpt><trkpt lat="39.144430677770224" lon="9.409635099171366"><ele>32.0</ele><time>2026-04-04T15:24:31.999Z</time></trkpt><trkpt lat="39.1445307539971" lon="9.409670053420113"><ele>32.0</ele><time>2026-04-04T15:24:32.999Z</time></trkpt><trkpt lat="39.144609851093634" lon="9.409752835656688"><ele>32.0</ele><time>2026-04-04T15:24:33.999Z</time></trkpt><trkpt lat="39.14469318779517" lon="9.409814598956208"><ele>32.0</ele><time>2026-04-04T15:24:34.999Z</time></trkpt><trkpt lat="39.1447660675656" lon="9.409844168567693"><ele>32.0</ele><time>2026-04-04T15:24:36Z</time></trkpt><trkpt lat="39.14484178284454" lon="9.40980469890996"><ele>32.0</ele><time>2026-04-04T15:24:37Z</time></trkpt><trkpt lat="39.144921956875244" lon="9.40973556170572"><ele>32.0</ele><time>2026-04-04T15:24:38Z</time></trkpt><trkpt lat="39.14496928793461" lon="9.409621723250535"><ele>32.0</ele><time>2026-04-04T15:24:39Z</time></trkpt><trkpt lat="39.144968905411986" lon="9.409464557026952"><ele>32.0</ele><time>2026-04-04T15:24:40Z</time></trkpt><trkpt lat="39.14498706611811" lon="9.409316691474244"><ele>32.0</ele><time>2026-04-04T15:24:41Z</time></trkpt><trkpt lat="39.145011308403134" lon="9.409157296459783"><ele>31.0</ele><time>2026-04-04T15:24:42Z</time></trkpt><trkpt lat="39.145036229490756" lon="9.409005072443927"><ele>30.000000000000004</ele><time>2026-04-04T15:24:43Z</time></trkpt><trkpt lat="39.14505760307242" lon="9.408876239602701"><ele>29.000000000000004</ele><time>2026-04-04T15:24:44Z</time></trkpt><trkpt lat="39.14509297094808" lon="9.408755313209417"><ele>28.0</ele><time>2026-04-04T15:24:44.999Z</time></trkpt><trkpt lat="39.14516199986805" lon="9.408638371758094"><ele>27.0</ele><time>2026-04-04T15:24:45.999Z</time></trkpt><trkpt lat="39.145247551850204" lon="9.408503011859327"><ele>25.666666666666668</ele><time>2026-04-04T15:24:46.999Z</time></trkpt><trkpt lat="39.14535174558289" lon="9.408351433673046"><ele>24.333333333333336</ele><time>2026-04-04T15:24:47.999Z</time></trkpt><trkpt lat="39.145472673046406" lon="9.408187256816287"><ele>23.0</ele><time>2026-04-04T15:24:48.999Z</time></trkpt><trkpt lat="39.14559479433298" lon="9.408026430291905"><ele>25.333333333333336</ele><time>2026-04-04T15:24:49.999Z</time></trkpt><trkpt lat="39.14571805262989" lon="9.407868176709943"><ele>27.666666666666668</ele><time>2026-04-04T15:24:50.999Z</time></trkpt><trkpt lat="39.145838161952334" lon="9.407724267700821"><ele>30.0</ele><time>2026-04-04T15:24:51.999Z</time></trkpt><trkpt lat="39.145942633526296" lon="9.407603446277792"><ele>30.0</ele><time>2026-04-04T15:24:52.999Z</time></trkpt><trkpt lat="39.14603414159051" lon="9.40749859051709"><ele>30.0</ele><time>2026-04-04T15:24:53.999Z</time></trkpt><trkpt lat="39.14609036177317" lon="9.407396041977185"><ele>30.0</ele><time>2026-04-04T15:24:54.999Z</time></trkpt><trkpt lat="39.14613896930694" lon="9.40732344450119"><ele>30.0</ele><time>2026-04-04T15:24:55.999Z</time></trkpt><trkpt lat="39.146164075462345" lon="9.407242575369049"><ele>30.0</ele><time>2026-04-04T15:24:56.999Z</time></trkpt><trkpt lat="39.146180658543884" lon="9.40714574706591"><ele>30.0</ele><time>2026-04-04T15:24:57.999Z</time></trkpt><trkpt lat="39.146151698062745" lon="9.407024247966957"><ele>30.5</ele><time>2026-04-04T15:24:58.999Z</time></trkpt><trkpt lat="39.14605071569234" lon="9.40691371424959"><ele>31.0</ele><time>2026-04-04T15:24:59.999Z</time></trkpt><trkpt lat="39.145950594469596" lon="9.406816834933814"><ele>31.5</ele><time>2026-04-04T15:25:00.999Z</time></trkpt><trkpt lat="39.14584115789491" lon="9.4067458676654"><ele>32.0</ele><time>2026-04-04T15:25:01.999Z</time></trkpt><trkpt lat="39.145748910881814" lon="9.406697409360264"><ele>31.0</ele><time>2026-04-04T15:25:02.999Z</time></trkpt><trkpt lat="39.14568252462994" lon="9.406619473649037"><ele>30.000000000000004</ele><time>2026-04-04T15:25:03.999Z</time></trkpt><trkpt lat="39.14567861737072" lon="9.406483951345196"><ele>29.000000000000004</ele><time>2026-04-04T15:25:04.999Z</time></trkpt><trkpt lat="39.14567566870133" lon="9.40634667493648"><ele>28.0</ele><time>2026-04-04T15:25:05.999Z</time></trkpt><trkpt lat="39.14569260437708" lon="9.406207015392974"><ele>27.0</ele><time>2026-04-04T15:25:06.999Z</time></trkpt><trkpt lat="39.14574304499206" lon="9.406098563090097"><ele>27.0</ele><time>2026-04-04T15:25:07.999Z</time></trkpt><trkpt lat="39.14583050776505" lon="9.406036700169931"><ele>27.0</ele><time>2026-04-04T15:25:08.999Z</time></trkpt><trkpt lat="39.14594314677219" lon="9.405985410036182"><ele>27.0</ele><time>2026-04-04T15:25:09.999Z</time></trkpt><trkpt lat="39.14609468872331" lon="9.405921010393174"><ele>27.0</ele><time>2026-04-04T15:25:10.999Z</time></trkpt><trkpt lat="39.146328723472706" lon="9.405814356703104"><ele>27.0</ele><time>2026-04-04T15:25:12Z</time></trkpt><trkpt lat="39.14654456421836" lon="9.40570448202181"><ele>27.0</ele><time>2026-04-04T15:25:13Z</time></trkpt><trkpt lat="39.146744815500035" lon="9.40559569694627"><ele>27.0</ele><time>2026-04-04T15:25:14Z</time></trkpt><trkpt lat="39.14695277198627" lon="9.40546093120795"><ele>26.0</ele><time>2026-04-04T15:25:15Z</time></trkpt><trkpt lat="39.14711587169239" lon="9.40534198704608"><ele>25.0</ele><time>2026-04-04T15:25:16Z</time></trkpt><trkpt lat="39.147277024469545" lon="9.405256169551807"><ele>24.0</ele><time>2026-04-04T15:25:17Z</time></trkpt><trkpt lat="39.14740457772147" lon="9.405261501553905"><ele>27.666666666666664</ele><time>2026-04-04T15:25:18Z</time></trkpt><trkpt lat="39.14756349174554" lon="9.405259442247804"><ele>31.333333333333332</ele><time>2026-04-04T15:25:19Z</time></trkpt><trkpt lat="39.14772913213706" lon="9.405241505119314"><ele>35.0</ele><time>2026-04-04T15:25:20Z</time></trkpt><trkpt lat="39.147881476470786" lon="9.405203719223923"><ele>35.0</ele><time>2026-04-04T15:25:21Z</time></trkpt><trkpt lat="39.148018292244984" lon="9.405183264462949"><ele>35.0</ele><time>2026-04-04T15:25:22Z</time></trkpt><trkpt lat="39.14812304863971" lon="9.405161473147214"><ele>35.0</ele><time>2026-04-04T15:25:23Z</time></trkpt><trkpt lat="39.14819293012454" lon="9.405134653936294"><ele>35.0</ele><time>2026-04-04T15:25:24Z</time></trkpt><trkpt lat="39.148289642994" lon="9.40508905760706"><ele>35.0</ele><time>2026-04-04T15:25:25Z</time></trkpt><trkpt lat="39.14834634915823" lon="9.404998177427528"><ele>37.0</ele><time>2026-04-04T15:25:26Z</time></trkpt><trkpt lat="39.14837972096177" lon="9.404861316846699"><ele>39.0</ele><time>2026-04-04T15:25:27Z</time></trkpt><trkpt lat="39.1483686871259" lon="9.404692304058473"><ele>41.0</ele><time>2026-04-04T15:25:28Z</time></trkpt><trkpt lat="39.148333659198656" lon="9.40453278073562"><ele>43.0</ele><time>2026-04-04T15:25:29Z</time></trkpt><trkpt lat="39.14834548747589" lon="9.404418140764886"><ele>43.0</ele><time>2026-04-04T15:25:30Z</time></trkpt><trkpt lat="39.1484282652251" lon="9.404318480630407"><ele>43.0</ele><time>2026-04-04T15:25:31Z</time></trkpt><trkpt lat="39.14851589302422" lon="9.404214787404111"><ele>43.0</ele><time>2026-04-04T15:25:32Z</time></trkpt><trkpt lat="39.148613024304005" lon="9.404109621296707"><ele>43.0</ele><time>2026-04-04T15:25:33Z</time></trkpt><trkpt lat="39.14870633014511" lon="9.404026983698433"><ele>43.0</ele><time>2026-04-04T15:25:34Z</time></trkpt><trkpt lat="39.14881647712895" lon="9.403952928932211"><ele>43.0</ele><time>2026-04-04T15:25:35Z</time></trkpt><trkpt lat="39.148940464611826" lon="9.403891617185604"><ele>43.0</ele><time>2026-04-04T15:25:36Z</time></trkpt><trkpt lat="39.14908647913265" lon="9.403803174710237"><ele>43.0</ele><time>2026-04-04T15:25:37Z</time></trkpt><trkpt lat="39.14924913488532" lon="9.403722995065422"><ele>42.5</ele><time>2026-04-04T15:25:38Z</time></trkpt><trkpt lat="39.14938416597737" lon="9.403670514566999"><ele>42.0</ele><time>2026-04-04T15:25:39Z</time></trkpt><trkpt lat="39.14949200014908" lon="9.403623309804312"><ele>41.5</ele><time>2026-04-04T15:25:40Z</time></trkpt><trkpt lat="39.149601396047274" lon="9.403601386814712"><ele>41.0</ele><time>2026-04-04T15:25:41Z</time></trkpt><trkpt lat="39.14972876205807" lon="9.403621314989"><ele>39.0</ele><time>2026-04-04T15:25:42Z</time></trkpt><trkpt lat="39.14988196876805" lon="9.403678816060735"><ele>37.0</ele><time>2026-04-04T15:25:43Z</time></trkpt><trkpt lat="39.1500441086451" lon="9.403762640518757"><ele>35.0</ele><time>2026-04-04T15:25:44Z</time></trkpt><trkpt lat="39.15019832481893" lon="9.403827084081621"><ele>38.75</ele><time>2026-04-04T15:25:45Z</time></trkpt><trkpt lat="39.15031286566797" lon="9.40389965888658"><ele>42.5</ele><time>2026-04-04T15:25:46Z</time></trkpt><trkpt lat="39.15040298094385" lon="9.403990727633785"><ele>46.25</ele><time>2026-04-04T15:25:47Z</time></trkpt><trkpt lat="39.15047843032041" lon="9.40410802008879"><ele>50.0</ele><time>2026-04-04T15:25:48Z</time></trkpt><trkpt lat="39.15055069831024" lon="9.404217269605606"><ele>50.0</ele><time>2026-04-04T15:25:49Z</time></trkpt><trkpt lat="39.150638427603745" lon="9.404283236807043"><ele>50.0</ele><time>2026-04-04T15:25:49.999Z</time></trkpt><trkpt lat="39.15075291663897" lon="9.404311305041606"><ele>50.0</ele><time>2026-04-04T15:25:50.999Z</time></trkpt><trkpt lat="39.150898501979235" lon="9.404327961129436"><ele>50.0</ele><time>2026-04-04T15:25:51.999Z</time></trkpt><trkpt lat="39.15103778180551" lon="9.404341890391558"><ele>50.2</ele><time>2026-04-04T15:25:52.999Z</time></trkpt><trkpt lat="39.15114683658011" lon="9.404378589858217"><ele>50.4</ele><time>2026-04-04T15:25:53.999Z</time></trkpt><trkpt lat="39.151232597269875" lon="9.404401479994771"><ele>50.599999999999994</ele><time>2026-04-04T15:25:54.999Z</time></trkpt><trkpt lat="39.15131057037736" lon="9.404446679260468"><ele>50.8</ele><time>2026-04-04T15:25:55.999Z</time></trkpt><trkpt lat="39.15139182176489" lon="9.4045248466034"><ele>51.0</ele><time>2026-04-04T15:25:56.999Z</time></trkpt><trkpt lat="39.15141764758258" lon="9.404690316238117"><ele>51.0</ele><time>2026-04-04T15:25:57.999Z</time></trkpt><trkpt lat="39.15148142746564" lon="9.40486672334699"><ele>51.0</ele><time>2026-04-04T15:25:58.999Z</time></trkpt><trkpt lat="39.15152869792895" lon="9.405063835355802"><ele>51.0</ele><time>2026-04-04T15:25:59.999Z</time></trkpt><trkpt lat="39.15157400819105" lon="9.405234581903548"><ele>45.75</ele><time>2026-04-04T15:26:00.999Z</time></trkpt><trkpt lat="39.15162323577434" lon="9.405404960395979"><ele>40.5</ele><time>2026-04-04T15:26:01.999Z</time></trkpt><trkpt lat="39.151669751685716" lon="9.405564639274628"><ele>35.25</ele><time>2026-04-04T15:26:02.999Z</time></trkpt><trkpt lat="39.15172090627925" lon="9.405706676141184"><ele>30.0</ele><time>2026-04-04T15:26:03.999Z</time></trkpt><trkpt lat="39.151786815514335" lon="9.405836289755731"><ele>30.0</ele><time>2026-04-04T15:26:04.999Z</time></trkpt><trkpt lat="39.15187445030359" lon="9.4059467782993"><ele>30.0</ele><time>2026-04-04T15:26:05.999Z</time></trkpt><trkpt lat="39.151984096490445" lon="9.406022705978762"><ele>30.0</ele><time>2026-04-04T15:26:06.999Z</time></trkpt><trkpt lat="39.152106244576444" lon="9.406064223665267"><ele>30.0</ele><time>2026-04-04T15:26:07.999Z</time></trkpt><trkpt lat="39.152231216945665" lon="9.406070918411508"><ele>30.0</ele><time>2026-04-04T15:26:08.999Z</time></trkpt><trkpt lat="39.15235665831449" lon="9.406040651764057"><ele>30.0</ele><time>2026-04-04T15:26:09.999Z</time></trkpt><trkpt lat="39.15249178783294" lon="9.405983812809405"><ele>30.0</ele><time>2026-04-04T15:26:10.999Z</time></trkpt><trkpt lat="39.15264305573696" lon="9.405923664934296"><ele>30.0</ele><time>2026-04-04T15:26:11.999Z</time></trkpt><trkpt lat="39.15279304516886" lon="9.40586606868525"><ele>29.5</ele><time>2026-04-04T15:26:12.999Z</time></trkpt><trkpt lat="39.152927678878605" lon="9.405814471221039"><ele>29.0</ele><time>2026-04-04T15:26:13.999Z</time></trkpt><trkpt lat="39.153063394415334" lon="9.405762923861543"><ele>28.5</ele><time>2026-04-04T15:26:14.999Z</time></trkpt><trkpt lat="39.153185627087716" lon="9.405711288288892"><ele>28.0</ele><time>2026-04-04T15:26:15.999Z</time></trkpt><trkpt lat="39.153288797975385" lon="9.405641796891333"><ele>28.0</ele><time>2026-04-04T15:26:16.999Z</time></trkpt><trkpt lat="39.15337134927756" lon="9.405547648731867"><ele>28.0</ele><time>2026-04-04T15:26:17.999Z</time></trkpt><trkpt lat="39.153444148149546" lon="9.405419232900405"><ele>28.0</ele><time>2026-04-04T15:26:18.999Z</time></trkpt><trkpt lat="39.15350290797591" lon="9.405239872429656"><ele>28.0</ele><time>2026-04-04T15:26:19.999Z</time></trkpt><trkpt lat="39.15359017378612" lon="9.405025038327263"><ele>27.5</ele><time>2026-04-04T15:26:20.999Z</time></trkpt><trkpt lat="39.15367597060867" lon="9.404771226989872"><ele>27.0</ele><time>2026-04-04T15:26:21.999Z</time></trkpt><trkpt lat="39.15377052988579" lon="9.404491493262727"><ele>25.0</ele><time>2026-04-04T15:26:22.999Z</time></trkpt><trkpt lat="39.15386354368881" lon="9.404194484540145"><ele>23.0</ele><time>2026-04-04T15:26:23.999Z</time></trkpt><trkpt lat="39.15396960330604" lon="9.403891690577176"><ele>27.0</ele><time>2026-04-04T15:26:24.999Z</time></trkpt><trkpt lat="39.15406564905721" lon="9.403583158161776"><ele>31.0</ele><time>2026-04-04T15:26:25.999Z</time></trkpt><trkpt lat="39.154163434595105" lon="9.403333538616875"><ele>31.0</ele><time>2026-04-04T15:26:26.999Z</time></trkpt><trkpt lat="39.1542562495563" lon="9.403123246567407"><ele>31.0</ele><time>2026-04-04T15:26:27.999Z</time></trkpt><trkpt lat="39.15437982119813" lon="9.40295600666787"><ele>31.0</ele><time>2026-04-04T15:26:28.999Z</time></trkpt><trkpt lat="39.15452669517906" lon="9.402775903714678"><ele>29.666666666666668</ele><time>2026-04-04T15:26:29.999Z</time></trkpt><trkpt lat="39.15465997300665" lon="9.4025872108156"><ele>28.333333333333336</ele><time>2026-04-04T15:26:30.999Z</time></trkpt><trkpt lat="39.15477956076291" lon="9.402482747981272"><ele>27.0</ele><time>2026-04-04T15:26:31.999Z</time></trkpt><trkpt lat="39.154901446323336" lon="9.402386378973492"><ele>27.666666666666664</ele><time>2026-04-04T15:26:32.999Z</time></trkpt><trkpt lat="39.15506093388899" lon="9.402325664470384"><ele>28.333333333333332</ele><time>2026-04-04T15:26:33.999Z</time></trkpt><trkpt lat="39.15525415123175" lon="9.402255563008264"><ele>29.0</ele><time>2026-04-04T15:26:34.999Z</time></trkpt><trkpt lat="39.15546619031115" lon="9.402160412133318"><ele>29.0</ele><time>2026-04-04T15:26:35.999Z</time></trkpt><trkpt lat="39.15566168744622" lon="9.402084327503218"><ele>29.0</ele><time>2026-04-04T15:26:36.999Z</time></trkpt><trkpt lat="39.15580780330668" lon="9.40201153453451"><ele>29.0</ele><time>2026-04-04T15:26:37.999Z</time></trkpt><trkpt lat="39.15592167526889" lon="9.401902206535105"><ele>28.0</ele><time>2026-04-04T15:26:38.999Z</time></trkpt><trkpt lat="39.15602055256265" lon="9.4017273511043"><ele>27.0</ele><time>2026-04-04T15:26:39.999Z</time></trkpt><trkpt lat="39.15612057949973" lon="9.401491100144426"><ele>26.0</ele><time>2026-04-04T15:26:40.999Z</time></trkpt><trkpt lat="39.15623218536095" lon="9.401230608136792"><ele>23.0</ele><time>2026-04-04T15:26:42Z</time></trkpt><trkpt lat="39.1563791996497" lon="9.400953313043305"><ele>20.0</ele><time>2026-04-04T15:26:43Z</time></trkpt><trkpt lat="39.15650265303278" lon="9.40065422712259"><ele>19.5</ele><time>2026-04-04T15:26:44Z</time></trkpt><trkpt lat="39.15665379424131" lon="9.400376297575518"><ele>19.0</ele><time>2026-04-04T15:26:45Z</time></trkpt><trkpt lat="39.15679220731274" lon="9.400085509127708"><ele>19.0</ele><time>2026-04-04T15:26:46Z</time></trkpt><trkpt lat="39.15693333425486" lon="9.399788837522527"><ele>19.0</ele><time>2026-04-04T15:26:47Z</time></trkpt><trkpt lat="39.15707483818585" lon="9.39949132832702"><ele>19.5</ele><time>2026-04-04T15:26:48Z</time></trkpt><trkpt lat="39.157220359154195" lon="9.399185373399575"><ele>20.0</ele><time>2026-04-04T15:26:49Z</time></trkpt><trkpt lat="39.15737252134336" lon="9.398868450401382"><ele>18.5</ele><time>2026-04-04T15:26:50Z</time></trkpt><trkpt lat="39.15750935848953" lon="9.39857952525679"><ele>17.0</ele><time>2026-04-04T15:26:51Z</time></trkpt><trkpt lat="39.15761196695925" lon="9.398324736004492"><ele>17.0</ele><time>2026-04-04T15:26:52Z</time></trkpt><trkpt lat="39.15773607434721" lon="9.398130760555938"><ele>17.0</ele><time>2026-04-04T15:26:53Z</time></trkpt><trkpt lat="39.15785671981105" lon="9.397951324560124"><ele>17.0</ele><time>2026-04-04T15:26:54Z</time></trkpt><trkpt lat="39.157991987701216" lon="9.397778701111573"><ele>16.333333333333336</ele><time>2026-04-04T15:26:55Z</time></trkpt><trkpt lat="39.15814437436551" lon="9.39761473839976"><ele>15.666666666666668</ele><time>2026-04-04T15:26:56Z</time></trkpt><trkpt lat="39.15830962602986" lon="9.397464602180015"><ele>15.0</ele><time>2026-04-04T15:26:57Z</time></trkpt><trkpt lat="39.15850031431658" lon="9.397322972173143"><ele>17.0</ele><time>2026-04-04T15:26:58Z</time></trkpt><trkpt lat="39.158705414486825" lon="9.397158502606283"><ele>19.0</ele><time>2026-04-04T15:26:59Z</time></trkpt><trkpt lat="39.15892578214347" lon="9.397007761873539"><ele>22.0</ele><time>2026-04-04T15:27:00Z</time></trkpt><trkpt lat="39.159158453941345" lon="9.39684610778345"><ele>25.0</ele><time>2026-04-04T15:27:01Z</time></trkpt><trkpt lat="39.15940736507554" lon="9.396698054287109"><ele>25.0</ele><time>2026-04-04T15:27:02Z</time></trkpt><trkpt lat="39.15965779311711" lon="9.396526390710866"><ele>25.0</ele><time>2026-04-04T15:27:03Z</time></trkpt><trkpt lat="39.15987741972998" lon="9.39635607230682"><ele>25.0</ele><time>2026-04-04T15:27:04Z</time></trkpt><trkpt lat="39.160084414929884" lon="9.396232544355676"><ele>25.0</ele><time>2026-04-04T15:27:05Z</time></trkpt><trkpt lat="39.16026497225081" lon="9.396101423678198"><ele>25.0</ele><time>2026-04-04T15:27:06Z</time></trkpt><trkpt lat="39.16042489195695" lon="9.395989754737656"><ele>25.0</ele><time>2026-04-04T15:27:07Z</time></trkpt><trkpt lat="39.16055399907225" lon="9.395886933932937"><ele>25.0</ele><time>2026-04-04T15:27:08Z</time></trkpt><trkpt lat="39.160661440599675" lon="9.395781993790086"><ele>25.0</ele><time>2026-04-04T15:27:09Z</time></trkpt><trkpt lat="39.1607201217522" lon="9.395644988811771"><ele>25.0</ele><time>2026-04-04T15:27:10Z</time></trkpt><trkpt lat="39.16075754709406" lon="9.395462932178253"><ele>28.333333333333336</ele><time>2026-04-04T15:27:11Z</time></trkpt><trkpt lat="39.16079176205991" lon="9.395252278998301"><ele>31.666666666666664</ele><time>2026-04-04T15:27:12Z</time></trkpt><trkpt lat="39.160864712255716" lon="9.395043487207904"><ele>35.0</ele><time>2026-04-04T15:27:13Z</time></trkpt><trkpt lat="39.16096935277405" lon="9.39483264811152"><ele>37.666666666666664</ele><time>2026-04-04T15:27:14Z</time></trkpt><trkpt lat="39.16107889167602" lon="9.39460685301966"><ele>40.333333333333336</ele><time>2026-04-04T15:27:15Z</time></trkpt><trkpt lat="39.161190333808655" lon="9.394378497029539"><ele>43.0</ele><time>2026-04-04T15:27:16Z</time></trkpt><trkpt lat="39.16128870886272" lon="9.394186488040525"><ele>43.0</ele><time>2026-04-04T15:27:17Z</time></trkpt><trkpt lat="39.16138939520118" lon="9.394027117359855"><ele>43.0</ele><time>2026-04-04T15:27:18Z</time></trkpt><trkpt lat="39.16150395516592" lon="9.393871916355122"><ele>43.0</ele><time>2026-04-04T15:27:19Z</time></trkpt><trkpt lat="39.16163730482407" lon="9.39370837750776"><ele>45.66666666666667</ele><time>2026-04-04T15:27:20Z</time></trkpt><trkpt lat="39.16177872431276" lon="9.393523730042336"><ele>48.333333333333336</ele><time>2026-04-04T15:27:21Z</time></trkpt><trkpt lat="39.161895557069585" lon="9.393337365767918"><ele>51.0</ele><time>2026-04-04T15:27:22Z</time></trkpt><trkpt lat="39.16198223230023" lon="9.393131818846124"><ele>51.66666666666667</ele><time>2026-04-04T15:27:23Z</time></trkpt><trkpt lat="39.162049976910275" lon="9.392912878468216"><ele>52.333333333333336</ele><time>2026-04-04T15:27:24Z</time></trkpt><trkpt lat="39.16209359717621" lon="9.392696672260554"><ele>53.0</ele><time>2026-04-04T15:27:25Z</time></trkpt><trkpt lat="39.162110927439244" lon="9.392477537489041"><ele>53.0</ele><time>2026-04-04T15:27:26Z</time></trkpt><trkpt lat="39.16209360091113" lon="9.392234864849934"><ele>53.0</ele><time>2026-04-04T15:27:27Z</time></trkpt><trkpt lat="39.16206697260512" lon="9.391993408310087"><ele>53.0</ele><time>2026-04-04T15:27:28Z</time></trkpt><trkpt lat="39.1620298434632" lon="9.391735102960675"><ele>49.0</ele><time>2026-04-04T15:27:29Z</time></trkpt><trkpt lat="39.16197832605342" lon="9.391472307917764"><ele>45.0</ele><time>2026-04-04T15:27:30Z</time></trkpt><trkpt lat="39.16192192833538" lon="9.391229890933065"><ele>41.0</ele><time>2026-04-04T15:27:31Z</time></trkpt><trkpt lat="39.161873763693" lon="9.390997244318056"><ele>37.0</ele><time>2026-04-04T15:27:32Z</time></trkpt><trkpt lat="39.16184513757898" lon="9.390764486714236"><ele>33.0</ele><time>2026-04-04T15:27:33Z</time></trkpt><trkpt lat="39.16182981353065" lon="9.39053089566774"><ele>29.0</ele><time>2026-04-04T15:27:34Z</time></trkpt><trkpt lat="39.161817744818016" lon="9.39032141176436"><ele>27.75</ele><time>2026-04-04T15:27:35Z</time></trkpt><trkpt lat="39.161812394444155" lon="9.390140509974682"><ele>26.5</ele><time>2026-04-04T15:27:35.999Z</time></trkpt><trkpt lat="39.16182595173691" lon="9.389976469581068"><ele>25.25</ele><time>2026-04-04T15:27:36.999Z</time></trkpt><trkpt lat="39.16187126854612" lon="9.389826877953475"><ele>24.0</ele><time>2026-04-04T15:27:37.999Z</time></trkpt><trkpt lat="39.161958849653054" lon="9.389691985155293"><ele>22.333333333333332</ele><time>2026-04-04T15:27:38.999Z</time></trkpt><trkpt lat="39.16208315572533" lon="9.389566916118884"><ele>20.666666666666664</ele><time>2026-04-04T15:27:39.999Z</time></trkpt><trkpt lat="39.162232700954334" lon="9.389431059461549"><ele>19.0</ele><time>2026-04-04T15:27:40.999Z</time></trkpt><trkpt lat="39.16239520634677" lon="9.389277437461589"><ele>17.666666666666664</ele><time>2026-04-04T15:27:41.999Z</time></trkpt><trkpt lat="39.16256401707855" lon="9.389108665278643"><ele>16.333333333333332</ele><time>2026-04-04T15:27:42.999Z</time></trkpt><trkpt lat="39.162736994457575" lon="9.38893241005933"><ele>15.0</ele><time>2026-04-04T15:27:43.999Z</time></trkpt><trkpt lat="39.16289682150068" lon="9.388769626455815"><ele>15.0</ele><time>2026-04-04T15:27:44.999Z</time></trkpt><trkpt lat="39.163058083656686" lon="9.388605204794084"><ele>15.0</ele><time>2026-04-04T15:27:45.999Z</time></trkpt><trkpt lat="39.16322553743448" lon="9.388438116137502"><ele>15.0</ele><time>2026-04-04T15:27:46.999Z</time></trkpt><trkpt lat="39.163386358411785" lon="9.388275416122958"><ele>14.333333333333332</ele><time>2026-04-04T15:27:47.999Z</time></trkpt><trkpt lat="39.16353091392992" lon="9.38812409297817"><ele>13.666666666666666</ele><time>2026-04-04T15:27:48.999Z</time></trkpt><trkpt lat="39.163663984189384" lon="9.387985261838125"><ele>13.0</ele><time>2026-04-04T15:27:49.999Z</time></trkpt><trkpt lat="39.16380814576806" lon="9.387866369880255"><ele>12.0</ele><time>2026-04-04T15:27:50.999Z</time></trkpt><trkpt lat="39.16396859567673" lon="9.3877711696748"><ele>11.0</ele><time>2026-04-04T15:27:51.999Z</time></trkpt><trkpt lat="39.16414839180486" lon="9.387698526506169"><ele>10.0</ele><time>2026-04-04T15:27:52.999Z</time></trkpt><trkpt lat="39.164344184558956" lon="9.38765321403373"><ele>9.333333333333334</ele><time>2026-04-04T15:27:53.999Z</time></trkpt><trkpt lat="39.16454724303066" lon="9.387631765334815"><ele>8.666666666666666</ele><time>2026-04-04T15:27:54.999Z</time></trkpt><trkpt lat="39.164760173792224" lon="9.387632534418527"><ele>8.0</ele><time>2026-04-04T15:27:55.999Z</time></trkpt><trkpt lat="39.164982408123436" lon="9.387638682199807"><ele>11.5</ele><time>2026-04-04T15:27:56.999Z</time></trkpt><trkpt lat="39.16521883133797" lon="9.387642628340545"><ele>15.0</ele><time>2026-04-04T15:27:57.999Z</time></trkpt><trkpt lat="39.16545401724877" lon="9.387642566967067"><ele>15.0</ele><time>2026-04-04T15:27:58.999Z</time></trkpt><trkpt lat="39.16567745943479" lon="9.387644418243225"><ele>15.0</ele><time>2026-04-04T15:27:59.999Z</time></trkpt><trkpt lat="39.16590121820079" lon="9.387646778041852"><ele>15.0</ele><time>2026-04-04T15:28:00.999Z</time></trkpt><trkpt lat="39.166128623498615" lon="9.387647850537443"><ele>12.5</ele><time>2026-04-04T15:28:01.999Z</time></trkpt><trkpt lat="39.16636350596525" lon="9.3876476958252"><ele>10.0</ele><time>2026-04-04T15:28:02.999Z</time></trkpt><trkpt lat="39.16660280316085" lon="9.38764951012972"><ele>9.5</ele><time>2026-04-04T15:28:03.999Z</time></trkpt><trkpt lat="39.16685067117595" lon="9.387655569021446"><ele>9.0</ele><time>2026-04-04T15:28:04.999Z</time></trkpt><trkpt lat="39.16709659859619" lon="9.387652691065966"><ele>9.0</ele><time>2026-04-04T15:28:05.999Z</time></trkpt><trkpt lat="39.16734738339264" lon="9.387657196263055"><ele>9.0</ele><time>2026-04-04T15:28:06.999Z</time></trkpt><trkpt lat="39.167574293112416" lon="9.38765977999726"><ele>9.0</ele><time>2026-04-04T15:28:07.999Z</time></trkpt><trkpt lat="39.16776948117893" lon="9.387657931261497"><ele>9.0</ele><time>2026-04-04T15:28:08.999Z</time></trkpt><trkpt lat="39.167953589675314" lon="9.387657948847052"><ele>9.0</ele><time>2026-04-04T15:28:09.999Z</time></trkpt><trkpt lat="39.16813044000343" lon="9.387662285210284"><ele>8.333333333333334</ele><time>2026-04-04T15:28:10.999Z</time></trkpt><trkpt lat="39.168310541881425" lon="9.3876657227092"><ele>7.666666666666667</ele><time>2026-04-04T15:28:11.999Z</time></trkpt><trkpt lat="39.168502768875754" lon="9.387659337542667"><ele>7.0</ele><time>2026-04-04T15:28:12.999Z</time></trkpt><trkpt lat="39.16870533027841" lon="9.387651987390148"><ele>7.0</ele><time>2026-04-04T15:28:13.999Z</time></trkpt><trkpt lat="39.16891840196359" lon="9.387645780452502"><ele>7.0</ele><time>2026-04-04T15:28:14.999Z</time></trkpt><trkpt lat="39.169133837639784" lon="9.387641882940724"><ele>7.0</ele><time>2026-04-04T15:28:15.999Z</time></trkpt><trkpt lat="39.16931639718639" lon="9.38764393591843"><ele>7.75</ele><time>2026-04-04T15:28:16.999Z</time></trkpt><trkpt lat="39.16946564839576" lon="9.387647721453256"><ele>8.5</ele><time>2026-04-04T15:28:17.999Z</time></trkpt><trkpt lat="39.16959585310677" lon="9.387645092161675"><ele>9.25</ele><time>2026-04-04T15:28:18.999Z</time></trkpt><trkpt lat="39.16970650346721" lon="9.387630966826904"><ele>10.0</ele><time>2026-04-04T15:28:19.999Z</time></trkpt><trkpt lat="39.16980461327322" lon="9.387604956717785"><ele>10.4</ele><time>2026-04-04T15:28:20.999Z</time></trkpt><trkpt lat="39.1698944226902" lon="9.387557973742954"><ele>10.8</ele><time>2026-04-04T15:28:21.999Z</time></trkpt><trkpt lat="39.169968678870305" lon="9.387485315272075"><ele>11.2</ele><time>2026-04-04T15:28:22.999Z</time></trkpt><trkpt lat="39.170018525818016" lon="9.38738309742212"><ele>11.6</ele><time>2026-04-04T15:28:23.999Z</time></trkpt><trkpt lat="39.17003993364243" lon="9.38726692906177"><ele>12.0</ele><time>2026-04-04T15:28:24.999Z</time></trkpt><trkpt lat="39.17003512388688" lon="9.38712711540706"><ele>10.666666666666666</ele><time>2026-04-04T15:28:25.999Z</time></trkpt><trkpt lat="39.17006015070093" lon="9.386953411667688"><ele>9.333333333333332</ele><time>2026-04-04T15:28:26.999Z</time></trkpt><trkpt lat="39.17007705917397" lon="9.386742782561639"><ele>8.0</ele><time>2026-04-04T15:28:27.999Z</time></trkpt><trkpt lat="39.17009667140591" lon="9.386498472729595"><ele>8.333333333333332</ele><time>2026-04-04T15:28:28.999Z</time></trkpt><trkpt lat="39.17011846570816" lon="9.386226980797305"><ele>8.666666666666666</ele><time>2026-04-04T15:28:29.999Z</time></trkpt><trkpt lat="39.17013948187031" lon="9.385964749118298"><ele>9.0</ele><time>2026-04-04T15:28:30.999Z</time></trkpt><trkpt lat="39.17016007354585" lon="9.38570770065217"><ele>9.0</ele><time>2026-04-04T15:28:31.999Z</time></trkpt><trkpt lat="39.17018211950631" lon="9.385443368115146"><ele>9.0</ele><time>2026-04-04T15:28:32.999Z</time></trkpt><trkpt lat="39.170204201886236" lon="9.385169279983563"><ele>9.0</ele><time>2026-04-04T15:28:33.999Z</time></trkpt><trkpt lat="39.17022624129649" lon="9.384898472230862"><ele>8.333333333333334</ele><time>2026-04-04T15:28:34.999Z</time></trkpt><trkpt lat="39.170240128664595" lon="9.38463773787769"><ele>7.666666666666667</ele><time>2026-04-04T15:28:35.999Z</time></trkpt><trkpt lat="39.17026093109889" lon="9.384414763150067"><ele>7.0</ele><time>2026-04-04T15:28:36.999Z</time></trkpt><trkpt lat="39.170272605570666" lon="9.384227643607499"><ele>7.0</ele><time>2026-04-04T15:28:37.999Z</time></trkpt><trkpt lat="39.170284745818876" lon="9.38406162153453"><ele>7.0</ele><time>2026-04-04T15:28:38.999Z</time></trkpt><trkpt lat="39.1702955204286" lon="9.383888450797848"><ele>7.0</ele><time>2026-04-04T15:28:39.999Z</time></trkpt><trkpt lat="39.170311181766735" lon="9.383740834670872"><ele>7.0</ele><time>2026-04-04T15:28:40.999Z</time></trkpt><trkpt lat="39.17032471361903" lon="9.3836181563928"><ele>8.2</ele><time>2026-04-04T15:28:41.999Z</time></trkpt><trkpt lat="39.17036536988783" lon="9.383521311658855"><ele>9.399999999999999</ele><time>2026-04-04T15:28:42.999Z</time></trkpt><trkpt lat="39.17044407965556" lon="9.383459151369209"><ele>10.600000000000001</ele><time>2026-04-04T15:28:43.999Z</time></trkpt><trkpt lat="39.17054774765767" lon="9.38346625410407"><ele>11.8</ele><time>2026-04-04T15:28:44.999Z</time></trkpt><trkpt lat="39.17066274688987" lon="9.383465154726691"><ele>13.0</ele><time>2026-04-04T15:28:45.999Z</time></trkpt><trkpt lat="39.170800422973315" lon="9.383442171218572"><ele>13.666666666666666</ele><time>2026-04-04T15:28:47Z</time></trkpt><trkpt lat="39.170957293920054" lon="9.383405479070932"><ele>14.333333333333332</ele><time>2026-04-04T15:28:48Z</time></trkpt><trkpt lat="39.17112953710294" lon="9.383339010485493"><ele>15.0</ele><time>2026-04-04T15:28:49Z</time></trkpt><trkpt lat="39.171298533951294" lon="9.383264656620845"><ele>15.0</ele><time>2026-04-04T15:28:50Z</time></trkpt><trkpt lat="39.171460672926926" lon="9.383192892859679"><ele>15.0</ele><time>2026-04-04T15:28:51Z</time></trkpt><trkpt lat="39.171610044475116" lon="9.383152737883828"><ele>15.0</ele><time>2026-04-04T15:28:52Z</time></trkpt><trkpt lat="39.17174548261164" lon="9.383157422948946"><ele>14.75</ele><time>2026-04-04T15:28:53Z</time></trkpt><trkpt lat="39.17187074670883" lon="9.383217522368746"><ele>14.5</ele><time>2026-04-04T15:28:54Z</time></trkpt><trkpt lat="39.17199284153005" lon="9.383307659086238"><ele>14.25</ele><time>2026-04-04T15:28:55Z</time></trkpt><trkpt lat="39.1721186890081" lon="9.383363673741695"><ele>14.0</ele><time>2026-04-04T15:28:56Z</time></trkpt><trkpt lat="39.172251437571006" lon="9.383354523335495"><ele>15.666666666666668</ele><time>2026-04-04T15:28:57Z</time></trkpt><trkpt lat="39.17239227689347" lon="9.383302800970979"><ele>17.333333333333332</ele><time>2026-04-04T15:28:58Z</time></trkpt><trkpt lat="39.17254057290528" lon="9.383232902402638"><ele>19.0</ele><time>2026-04-04T15:28:59Z</time></trkpt><trkpt lat="39.17267669188696" lon="9.383113240389221"><ele>25.666666666666664</ele><time>2026-04-04T15:29:00Z</time></trkpt><trkpt lat="39.17280342390568" lon="9.38294918301669"><ele>32.333333333333336</ele><time>2026-04-04T15:29:01Z</time></trkpt><trkpt lat="39.17292430990663" lon="9.38275972756695"><ele>39.0</ele><time>2026-04-04T15:29:02Z</time></trkpt><trkpt lat="39.17302727809189" lon="9.382588210742137"><ele>39.0</ele><time>2026-04-04T15:29:03Z</time></trkpt><trkpt lat="39.173105218544535" lon="9.382440343598578"><ele>39.0</ele><time>2026-04-04T15:29:04Z</time></trkpt><trkpt lat="39.17315910227552" lon="9.382290391041508"><ele>39.0</ele><time>2026-04-04T15:29:05Z</time></trkpt><trkpt lat="39.1731805025035" lon="9.382139633526778"><ele>39.0</ele><time>2026-04-04T15:29:05.999Z</time></trkpt><trkpt lat="39.17316338228969" lon="9.381991791549137"><ele>39.25</ele><time>2026-04-04T15:29:06.999Z</time></trkpt><trkpt lat="39.173101714098244" lon="9.381847024912325"><ele>39.5</ele><time>2026-04-04T15:29:07.999Z</time></trkpt><trkpt lat="39.17300730046869" lon="9.381705665212806"><ele>39.75</ele><time>2026-04-04T15:29:08.999Z</time></trkpt><trkpt lat="39.17287541166664" lon="9.381576799363875"><ele>40.0</ele><time>2026-04-04T15:29:09.999Z</time></trkpt><trkpt lat="39.172715334120475" lon="9.381441034075374"><ele>37.66666666666667</ele><time>2026-04-04T15:29:10.999Z</time></trkpt><trkpt lat="39.172553050507815" lon="9.381294963172829"><ele>35.333333333333336</ele><time>2026-04-04T15:29:11.999Z</time></trkpt><trkpt lat="39.17241677633529" lon="9.381162480176837"><ele>33.0</ele><time>2026-04-04T15:29:12.999Z</time></trkpt><trkpt lat="39.17232145043457" lon="9.381028727840087"><ele>37.0</ele><time>2026-04-04T15:29:13.999Z</time></trkpt><trkpt lat="39.172251501207796" lon="9.380878184444352"><ele>41.0</ele><time>2026-04-04T15:29:14.999Z</time></trkpt><trkpt lat="39.172220817953374" lon="9.380713169128374"><ele>45.0</ele><time>2026-04-04T15:29:15.999Z</time></trkpt><trkpt lat="39.17222078359519" lon="9.38054330353347"><ele>49.0</ele><time>2026-04-04T15:29:16.999Z</time></trkpt><trkpt lat="39.172263913631994" lon="9.380398102386769"><ele>49.33333333333333</ele><time>2026-04-04T15:29:17.999Z</time></trkpt><trkpt lat="39.17231832602351" lon="9.380256915180023"><ele>49.666666666666664</ele><time>2026-04-04T15:29:18.999Z</time></trkpt><trkpt lat="39.172379587265944" lon="9.380169414551418"><ele>50.0</ele><time>2026-04-04T15:29:19.999Z</time></trkpt><trkpt lat="39.172436073407475" lon="9.380081143641332"><ele>50.33333333333333</ele><time>2026-04-04T15:29:20.999Z</time></trkpt><trkpt lat="39.172468950960784" lon="9.379997775809377"><ele>50.666666666666664</ele><time>2026-04-04T15:29:21.999Z</time></trkpt><trkpt lat="39.17252243231226" lon="9.379954266324054"><ele>51.0</ele><time>2026-04-04T15:29:22.999Z</time></trkpt><trkpt lat="39.17262359826653" lon="9.379942904831047"><ele>47.5</ele><time>2026-04-04T15:29:24.999Z</time></trkpt><trkpt lat="39.172732462058796" lon="9.380022737391053"><ele>44.0</ele><time>2026-04-04T15:29:26.999Z</time></trkpt><trkpt lat="39.17280677701805" lon="9.380111772634631"><ele>40.5</ele><time>2026-04-04T15:29:27.999Z</time></trkpt><trkpt lat="39.17290230859398" lon="9.38019055397689"><ele>37.0</ele><time>2026-04-04T15:29:28.999Z</time></trkpt><trkpt lat="39.17303451516726" lon="9.380254871497256"><ele>36.0</ele><time>2026-04-04T15:29:29.999Z</time></trkpt><trkpt lat="39.17319185951691" lon="9.380324946252605"><ele>35.0</ele><time>2026-04-04T15:29:30.999Z</time></trkpt><trkpt lat="39.17334356132463" lon="9.380392897895193"><ele>34.0</ele><time>2026-04-04T15:29:31.999Z</time></trkpt><trkpt lat="39.17350639309959" lon="9.380473845970307"><ele>29.0</ele><time>2026-04-04T15:29:32.999Z</time></trkpt><trkpt lat="39.173676626946914" lon="9.38056263183842"><ele>24.0</ele><time>2026-04-04T15:29:33.999Z</time></trkpt><trkpt lat="39.173837396432475" lon="9.380640740166246"><ele>19.0</ele><time>2026-04-04T15:29:34.999Z</time></trkpt><trkpt lat="39.174001170953936" lon="9.380703274625922"><ele>18.666666666666664</ele><time>2026-04-04T15:29:35.999Z</time></trkpt><trkpt lat="39.17418934604911" lon="9.380735256938966"><ele>18.333333333333332</ele><time>2026-04-04T15:29:36.999Z</time></trkpt><trkpt lat="39.174378856906955" lon="9.38074355961593"><ele>18.0</ele><time>2026-04-04T15:29:37.999Z</time></trkpt><trkpt lat="39.17458801865573" lon="9.380752637440091"><ele>18.0</ele><time>2026-04-04T15:29:38.999Z</time></trkpt><trkpt lat="39.17480296307426" lon="9.3807645771173"><ele>18.0</ele><time>2026-04-04T15:29:39.999Z</time></trkpt><trkpt lat="39.175012808276975" lon="9.380779995654597"><ele>18.0</ele><time>2026-04-04T15:29:40.999Z</time></trkpt><trkpt lat="39.17522871113355" lon="9.38078243878419"><ele>17.0</ele><time>2026-04-04T15:29:41.999Z</time></trkpt><trkpt lat="39.175421927853584" lon="9.380776707529357"><ele>16.0</ele><time>2026-04-04T15:29:42.999Z</time></trkpt><trkpt lat="39.175600201322155" lon="9.380774437261891"><ele>15.0</ele><time>2026-04-04T15:29:43.999Z</time></trkpt><trkpt lat="39.175761048579965" lon="9.380799152348196"><ele>15.0</ele><time>2026-04-04T15:29:44.999Z</time></trkpt><trkpt lat="39.17591848330415" lon="9.380859884118317"><ele>15.0</ele><time>2026-04-04T15:29:45.999Z</time></trkpt><trkpt lat="39.1760775155403" lon="9.380960796230983"><ele>15.0</ele><time>2026-04-04T15:29:46.999Z</time></trkpt><trkpt lat="39.176248895853924" lon="9.38106588128609"><ele>15.0</ele><time>2026-04-04T15:29:47.999Z</time></trkpt><trkpt lat="39.176438405269245" lon="9.381158171577534"><ele>15.0</ele><time>2026-04-04T15:29:48.999Z</time></trkpt><trkpt lat="39.17663702035704" lon="9.381231856861602"><ele>15.0</ele><time>2026-04-04T15:29:49.999Z</time></trkpt><trkpt lat="39.17682886058503" lon="9.381286739248239"><ele>14.0</ele><time>2026-04-04T15:29:50.999Z</time></trkpt><trkpt lat="39.177026096113536" lon="9.38135225867093"><ele>13.0</ele><time>2026-04-04T15:29:51.999Z</time></trkpt><trkpt lat="39.17723313045063" lon="9.381443255836496"><ele>12.0</ele><time>2026-04-04T15:29:52.999Z</time></trkpt><trkpt lat="39.17742761308329" lon="9.38154382068691"><ele>12.0</ele><time>2026-04-04T15:29:53.999Z</time></trkpt><trkpt lat="39.17760479965068" lon="9.38163454586804"><ele>12.0</ele><time>2026-04-04T15:29:54.999Z</time></trkpt><trkpt lat="39.177772059554535" lon="9.38172278579189"><ele>12.0</ele><time>2026-04-04T15:29:55.999Z</time></trkpt><trkpt lat="39.177933532604314" lon="9.381829358735654"><ele>12.0</ele><time>2026-04-04T15:29:56.999Z</time></trkpt><trkpt lat="39.178090936960736" lon="9.381967384485034"><ele>12.0</ele><time>2026-04-04T15:29:57.999Z</time></trkpt><trkpt lat="39.178232876434336" lon="9.38213658284492"><ele>12.0</ele><time>2026-04-04T15:29:58.999Z</time></trkpt><trkpt lat="39.17836014475689" lon="9.382328076377256"><ele>12.666666666666668</ele><time>2026-04-04T15:29:59.999Z</time></trkpt><trkpt lat="39.17848066948821" lon="9.382535223354136"><ele>13.333333333333334</ele><time>2026-04-04T15:30:00.999Z</time></trkpt><trkpt lat="39.17860355176125" lon="9.382746789809193"><ele>14.0</ele><time>2026-04-04T15:30:01.999Z</time></trkpt><trkpt lat="39.1787238757731" lon="9.382923513323188"><ele>14.333333333333334</ele><time>2026-04-04T15:30:02.999Z</time></trkpt><trkpt lat="39.178843408191966" lon="9.383081055593319"><ele>14.666666666666668</ele><time>2026-04-04T15:30:03.999Z</time></trkpt><trkpt lat="39.178970591106534" lon="9.383206008536568"><ele>15.0</ele><time>2026-04-04T15:30:04.999Z</time></trkpt><trkpt lat="39.179084854628485" lon="9.383296368311765"><ele>15.0</ele><time>2026-04-04T15:30:05.999Z</time></trkpt><trkpt lat="39.17918232625307" lon="9.383373410737041"><ele>15.0</ele><time>2026-04-04T15:30:06.999Z</time></trkpt><trkpt lat="39.17926126343398" lon="9.38345304427329"><ele>15.0</ele><time>2026-04-04T15:30:07.999Z</time></trkpt><trkpt lat="39.1793112170984" lon="9.383544176689517"><ele>15.0</ele><time>2026-04-04T15:30:08.999Z</time></trkpt><trkpt lat="39.1793419671498" lon="9.383643759340671"><ele>15.0</ele><time>2026-04-04T15:30:09.999Z</time></trkpt><trkpt lat="39.179379193432645" lon="9.38372888324185"><ele>15.0</ele><time>2026-04-04T15:30:10.999Z</time></trkpt><trkpt lat="39.17944419782976" lon="9.38379042626167"><ele>15.0</ele><time>2026-04-04T15:30:11.999Z</time></trkpt><trkpt lat="39.17952998051304" lon="9.38381288182647"><ele>15.0</ele><time>2026-04-04T15:30:12.999Z</time></trkpt><trkpt lat="39.17961878402436" lon="9.383797286845843"><ele>15.0</ele><time>2026-04-04T15:30:13.999Z</time></trkpt><trkpt lat="39.17969121636073" lon="9.38377075047226"><ele>15.0</ele><time>2026-04-04T15:30:14.999Z</time></trkpt><trkpt lat="39.179767447047425" lon="9.383764451338488"><ele>15.0</ele><time>2026-04-04T15:30:15.999Z</time></trkpt><trkpt lat="39.17984756585508" lon="9.383810172480102"><ele>14.5</ele><time>2026-04-04T15:30:16.999Z</time></trkpt><trkpt lat="39.179930582652254" lon="9.383912087365884"><ele>14.0</ele><time>2026-04-04T15:30:17.999Z</time></trkpt><trkpt lat="39.18005719660892" lon="9.384000520479239"><ele>13.5</ele><time>2026-04-04T15:30:18.999Z</time></trkpt><trkpt lat="39.18020848685219" lon="9.38411498006734"><ele>13.0</ele><time>2026-04-04T15:30:19.999Z</time></trkpt><trkpt lat="39.18037393537232" lon="9.384262284651339"><ele>13.0</ele><time>2026-04-04T15:30:20.999Z</time></trkpt><trkpt lat="39.180516026776644" lon="9.3844271341889"><ele>13.0</ele><time>2026-04-04T15:30:21.999Z</time></trkpt><trkpt lat="39.18064208005267" lon="9.3846124454554"><ele>13.0</ele><time>2026-04-04T15:30:22.999Z</time></trkpt><trkpt lat="39.18076484455394" lon="9.384813623008252"><ele>13.333333333333332</ele><time>2026-04-04T15:30:23.999Z</time></trkpt><trkpt lat="39.18085677762986" lon="9.3850179281633"><ele>13.666666666666668</ele><time>2026-04-04T15:30:24.999Z</time></trkpt><trkpt lat="39.180935869553416" lon="9.385201455849057"><ele>14.0</ele><time>2026-04-04T15:30:25.999Z</time></trkpt><trkpt lat="39.18100845740189" lon="9.385372455244799"><ele>14.0</ele><time>2026-04-04T15:30:26.999Z</time></trkpt><trkpt lat="39.181087378277255" lon="9.385548804342525"><ele>14.0</ele><time>2026-04-04T15:30:27.999Z</time></trkpt><trkpt lat="39.18116590410093" lon="9.385730999176108"><ele>14.0</ele><time>2026-04-04T15:30:28.999Z</time></trkpt><trkpt lat="39.18124225690382" lon="9.385932814272302"><ele>14.0</ele><time>2026-04-04T15:30:29.999Z</time></trkpt><trkpt lat="39.18130638468983" lon="9.386145427536782"><ele>14.0</ele><time>2026-04-04T15:30:30.999Z</time></trkpt><trkpt lat="39.18135517711682" lon="9.386367469604357"><ele>14.0</ele><time>2026-04-04T15:30:31.999Z</time></trkpt><trkpt lat="39.18138956954073" lon="9.386577315147195"><ele>13.6</ele><time>2026-04-04T15:30:32.999Z</time></trkpt><trkpt lat="39.18140952527753" lon="9.38675120515462"><ele>13.2</ele><time>2026-04-04T15:30:33.999Z</time></trkpt><trkpt lat="39.181428143155145" lon="9.386885473534335"><ele>12.799999999999999</ele><time>2026-04-04T15:30:34.999Z</time></trkpt><trkpt lat="39.18143857200762" lon="9.386988614692601"><ele>12.399999999999999</ele><time>2026-04-04T15:30:35.999Z</time></trkpt><trkpt lat="39.18144174773397" lon="9.387086150394374"><ele>12.0</ele><time>2026-04-04T15:30:36.999Z</time></trkpt><trkpt lat="39.18141422547836" lon="9.387176171892035"><ele>12.0</ele><time>2026-04-04T15:30:37.999Z</time></trkpt><trkpt lat="39.1813613152404" lon="9.387262349120626"><ele>12.0</ele><time>2026-04-04T15:30:38.999Z</time></trkpt><trkpt lat="39.181312707735856" lon="9.387351152252242"><ele>12.0</ele><time>2026-04-04T15:30:39.999Z</time></trkpt><trkpt lat="39.181297650456095" lon="9.387454307170666"><ele>12.0</ele><time>2026-04-04T15:30:40.999Z</time></trkpt><trkpt lat="39.18132040179993" lon="9.387547732197774"><ele>12.0</ele><time>2026-04-04T15:30:41.999Z</time></trkpt><trkpt lat="39.18137001614135" lon="9.387629455743703"><ele>12.0</ele><time>2026-04-04T15:30:42.999Z</time></trkpt><trkpt lat="39.18144633308996" lon="9.387708208226746"><ele>13.0</ele><time>2026-04-04T15:30:43.999Z</time></trkpt><trkpt lat="39.181540110533064" lon="9.3877959287439"><ele>14.0</ele><time>2026-04-04T15:30:44.999Z</time></trkpt><trkpt lat="39.18160123416263" lon="9.387968094987118"><ele>15.0</ele><time>2026-04-04T15:30:45.999Z</time></trkpt><trkpt lat="39.18165129954135" lon="9.388139496110549"><ele>16.0</ele><time>2026-04-04T15:30:46.999Z</time></trkpt><trkpt lat="39.181736471420535" lon="9.388279367781518"><ele>16.0</ele><time>2026-04-04T15:30:47.999Z</time></trkpt><trkpt lat="39.181838926497754" lon="9.388362458816376"><ele>16.0</ele><time>2026-04-04T15:30:48.999Z</time></trkpt><trkpt lat="39.18196126455374" lon="9.388419601295055"><ele>16.0</ele><time>2026-04-04T15:30:49.999Z</time></trkpt><trkpt lat="39.182096886785224" lon="9.388441519003228"><ele>16.0</ele><time>2026-04-04T15:30:50.999Z</time></trkpt><trkpt lat="39.18223380230857" lon="9.388425472155937"><ele>18.5</ele><time>2026-04-04T15:30:51.999Z</time></trkpt><trkpt lat="39.18236504846893" lon="9.388365790526146"><ele>21.0</ele><time>2026-04-04T15:30:52.999Z</time></trkpt><trkpt lat="39.18247814074467" lon="9.388266808276448"><ele>23.5</ele><time>2026-04-04T15:30:53.999Z</time></trkpt><trkpt lat="39.182572236027184" lon="9.388131981305168"><ele>26.0</ele><time>2026-04-04T15:30:54.999Z</time></trkpt><trkpt lat="39.182641202745444" lon="9.387969424294292"><ele>26.0</ele><time>2026-04-04T15:30:55.999Z</time></trkpt><trkpt lat="39.18267431295372" lon="9.387795534750763"><ele>26.0</ele><time>2026-04-04T15:30:56.999Z</time></trkpt><trkpt lat="39.182672383955776" lon="9.387621871868342"><ele>26.0</ele><time>2026-04-04T15:30:57.999Z</time></trkpt><trkpt lat="39.18263914645157" lon="9.387447317000758"><ele>26.0</ele><time>2026-04-04T15:30:58.999Z</time></trkpt><trkpt lat="39.18254311156394" lon="9.387279459327495"><ele>25.25</ele><time>2026-04-04T15:30:59.999Z</time></trkpt><trkpt lat="39.18251538586525" lon="9.387101523912623"><ele>24.5</ele><time>2026-04-04T15:31:00.999Z</time></trkpt><trkpt lat="39.18246453819982" lon="9.386933511637958"><ele>23.75</ele><time>2026-04-04T15:31:01.999Z</time></trkpt><trkpt lat="39.182432752950646" lon="9.386774337338434"><ele>23.0</ele><time>2026-04-04T15:31:02.999Z</time></trkpt><trkpt lat="39.18241230651955" lon="9.386598908233074"><ele>23.0</ele><time>2026-04-04T15:31:03.999Z</time></trkpt><trkpt lat="39.182416898860005" lon="9.386413262281257"><ele>23.0</ele><time>2026-04-04T15:31:04.999Z</time></trkpt><trkpt lat="39.18244657479056" lon="9.386236512641252"><ele>23.0</ele><time>2026-04-04T15:31:05.999Z</time></trkpt><trkpt lat="39.18249759459021" lon="9.386062839151874"><ele>23.0</ele><time>2026-04-04T15:31:06.999Z</time></trkpt><trkpt lat="39.182569642278295" lon="9.385880915476331"><ele>21.333333333333336</ele><time>2026-04-04T15:31:07.999Z</time></trkpt><trkpt lat="39.18265327375898" lon="9.38568750183532"><ele>19.666666666666668</ele><time>2026-04-04T15:31:08.999Z</time></trkpt><trkpt lat="39.18272284458281" lon="9.385465348503223"><ele>18.0</ele><time>2026-04-04T15:31:09.999Z</time></trkpt><trkpt lat="39.182837322018" lon="9.385234021354348"><ele>17.5</ele><time>2026-04-04T15:31:10.999Z</time></trkpt><trkpt lat="39.18293046660144" lon="9.384968445492394"><ele>17.0</ele><time>2026-04-04T15:31:11.999Z</time></trkpt><trkpt lat="39.18302233422762" lon="9.384688885594848"><ele>15.5</ele><time>2026-04-04T15:31:12.999Z</time></trkpt><trkpt lat="39.18310911262309" lon="9.384410007100211"><ele>14.0</ele><time>2026-04-04T15:31:13.999Z</time></trkpt><trkpt lat="39.18319159553377" lon="9.38412290617303"><ele>19.5</ele><time>2026-04-04T15:31:14.999Z</time></trkpt><trkpt lat="39.1832684707946" lon="9.383825464198894"><ele>25.0</ele><time>2026-04-04T15:31:15.999Z</time></trkpt><trkpt lat="39.183337840276664" lon="9.383514289485731"><ele>25.0</ele><time>2026-04-04T15:31:16.999Z</time></trkpt><trkpt lat="39.18339830192355" lon="9.38320597058381"><ele>25.0</ele><time>2026-04-04T15:31:17.999Z</time></trkpt><trkpt lat="39.18344627263519" lon="9.382898312748882"><ele>23.0</ele><time>2026-04-04T15:31:18.999Z</time></trkpt><trkpt lat="39.18348386277797" lon="9.382585966547603"><ele>21.0</ele><time>2026-04-04T15:31:19.999Z</time></trkpt><trkpt lat="39.183514365982255" lon="9.382264714462133"><ele>19.5</ele><time>2026-04-04T15:31:20.999Z</time></trkpt><trkpt lat="39.183541902665205" lon="9.381938818567772"><ele>18.0</ele><time>2026-04-04T15:31:21.999Z</time></trkpt><trkpt lat="39.183566470772575" lon="9.381612751971986"><ele>16.5</ele><time>2026-04-04T15:31:22.998Z</time></trkpt><trkpt lat="39.1835894377656" lon="9.38128592123121"><ele>15.0</ele><time>2026-04-04T15:31:23.998Z</time></trkpt><trkpt lat="39.18361210437718" lon="9.380958340062524"><ele>15.0</ele><time>2026-04-04T15:31:24.998Z</time></trkpt><trkpt lat="39.18363594741725" lon="9.380631943831048"><ele>15.0</ele><time>2026-04-04T15:31:25.998Z</time></trkpt><trkpt lat="39.18366329096368" lon="9.380300436346687"><ele>15.0</ele><time>2026-04-04T15:31:26.998Z</time></trkpt><trkpt lat="39.18369102697443" lon="9.37998167268909"><ele>15.0</ele><time>2026-04-04T15:31:27.998Z</time></trkpt><trkpt lat="39.18371886238826" lon="9.379657743120312"><ele>19.0</ele><time>2026-04-04T15:31:28.998Z</time></trkpt><trkpt lat="39.18374590292628" lon="9.379337009796927"><ele>23.0</ele><time>2026-04-04T15:31:29.998Z</time></trkpt><trkpt lat="39.183770974976916" lon="9.379015662927342"><ele>28.5</ele><time>2026-04-04T15:31:30.998Z</time></trkpt><trkpt lat="39.18379647049089" lon="9.378694211301426"><ele>34.0</ele><time>2026-04-04T15:31:31.998Z</time></trkpt><trkpt lat="39.183818600078965" lon="9.378373515294745"><ele>34.0</ele><time>2026-04-04T15:31:32.998Z</time></trkpt><trkpt lat="39.18383350533477" lon="9.378056274649946"><ele>34.0</ele><time>2026-04-04T15:31:33.998Z</time></trkpt><trkpt lat="39.18384121421927" lon="9.377733681004868"><ele>43.5</ele><time>2026-04-04T15:31:34.998Z</time></trkpt><trkpt lat="39.1838381548099" lon="9.377418772218958"><ele>53.0</ele><time>2026-04-04T15:31:35.998Z</time></trkpt><trkpt lat="39.18382454869029" lon="9.377097908756655"><ele>62.0</ele><time>2026-04-04T15:31:36.998Z</time></trkpt><trkpt lat="39.18380345909305" lon="9.376781793919564"><ele>71.0</ele><time>2026-04-04T15:31:37.998Z</time></trkpt><trkpt lat="39.183772984529966" lon="9.376470180756517"><ele>79.0</ele><time>2026-04-04T15:31:38.998Z</time></trkpt><trkpt lat="39.1837358053887" lon="9.37616530545072"><ele>87.0</ele><time>2026-04-04T15:31:39.998Z</time></trkpt><trkpt lat="39.183693703678344" lon="9.375860287312419"><ele>87.0</ele><time>2026-04-04T15:31:40.998Z</time></trkpt><trkpt lat="39.18365282972286" lon="9.375553424899694"><ele>87.0</ele><time>2026-04-04T15:31:41.998Z</time></trkpt><trkpt lat="39.18361344119765" lon="9.375241946985366"><ele>93.5</ele><time>2026-04-04T15:31:42.998Z</time></trkpt><trkpt lat="39.18356731646678" lon="9.37490667212937"><ele>100.0</ele><time>2026-04-04T15:31:44.072Z</time></trkpt><trkpt lat="39.183523035133355" lon="9.374604958416525"><ele>65.0</ele><time>2026-04-04T15:31:45.067Z</time></trkpt><trkpt lat="39.18255202423016" lon="9.372302844165498"><ele>71.0</ele><time>2026-04-04T15:31:48.478Z</time></trkpt><trkpt lat="39.18220555350679" lon="9.371361222328035"><ele>47.0</ele><time>2026-04-04T15:31:49.478Z</time></trkpt><trkpt lat="39.18194961244251" lon="9.370295543394352"><ele>47.0</ele><time>2026-04-04T15:31:59.998Z</time></trkpt><trkpt lat="39.181873223222" lon="9.369977237671778"><ele>47.0</ele><time>2026-04-04T15:32:00.998Z</time></trkpt><trkpt lat="39.18177347248969" lon="9.369668792596185"><ele>43.0</ele><time>2026-04-04T15:32:01.998Z</time></trkpt><trkpt lat="39.18175067603991" lon="9.369319449590098"><ele>39.0</ele><time>2026-04-04T15:32:02.998Z</time></trkpt><trkpt lat="39.18171286742767" lon="9.3690086501513"><ele>38.5</ele><time>2026-04-04T15:32:03.998Z</time></trkpt><trkpt lat="39.18168821114739" lon="9.368684092127546"><ele>38.0</ele><time>2026-04-04T15:32:04.998Z</time></trkpt><trkpt lat="39.18167396014248" lon="9.368354068300029"><ele>41.5</ele><time>2026-04-04T15:32:05.998Z</time></trkpt><trkpt lat="39.18167105003284" lon="9.368007493055948"><ele>45.0</ele><time>2026-04-04T15:32:06.998Z</time></trkpt><trkpt lat="39.18167592292573" lon="9.367672796129032"><ele>45.0</ele><time>2026-04-04T15:32:07.998Z</time></trkpt><trkpt lat="39.1816925876381" lon="9.36736316611675"><ele>45.0</ele><time>2026-04-04T15:32:08.998Z</time></trkpt><trkpt lat="39.18173160522974" lon="9.367084567794938"><ele>48.66666666666667</ele><time>2026-04-04T15:32:09.998Z</time></trkpt><trkpt lat="39.18178487649169" lon="9.366811078231859"><ele>52.333333333333336</ele><time>2026-04-04T15:32:10.998Z</time></trkpt><trkpt lat="39.18184217614998" lon="9.366536571562188"><ele>56.0</ele><time>2026-04-04T15:32:11.998Z</time></trkpt><trkpt lat="39.18189520104864" lon="9.366254052141004"><ele>59.0</ele><time>2026-04-04T15:32:12.998Z</time></trkpt><trkpt lat="39.181957168469985" lon="9.365975691958711"><ele>62.0</ele><time>2026-04-04T15:32:13.998Z</time></trkpt><trkpt lat="39.182007087754556" lon="9.36569093088063"><ele>59.0</ele><time>2026-04-04T15:32:14.998Z</time></trkpt><trkpt lat="39.18206540732167" lon="9.365392258354456"><ele>56.0</ele><time>2026-04-04T15:32:16.067Z</time></trkpt><trkpt lat="39.18212884620961" lon="9.365111565224083"><ele>56.0</ele><time>2026-04-04T15:32:17.068Z</time></trkpt><trkpt lat="39.182191056746376" lon="9.364831960550372"><ele>56.0</ele><time>2026-04-04T15:32:18.067Z</time></trkpt><trkpt lat="39.18249982620407" lon="9.363947774830313"><ele>42.5</ele><time>2026-04-04T15:32:20.998Z</time></trkpt><trkpt lat="39.1827311891528" lon="9.363625949053873"><ele>29.0</ele><time>2026-04-04T15:32:21.998Z</time></trkpt><trkpt lat="39.18292650424442" lon="9.363448825109286"><ele>29.0</ele><time>2026-04-04T15:32:22.998Z</time></trkpt><trkpt lat="39.18308810243493" lon="9.363239914388274"><ele>29.0</ele><time>2026-04-04T15:32:23.998Z</time></trkpt><trkpt lat="39.1832530119933" lon="9.36303277926724"><ele>36.0</ele><time>2026-04-04T15:32:24.998Z</time></trkpt><trkpt lat="39.18342185681963" lon="9.362820746230192"><ele>43.0</ele><time>2026-04-04T15:32:25.998Z</time></trkpt><trkpt lat="39.18359636070633" lon="9.362612327989751"><ele>43.0</ele><time>2026-04-04T15:32:26.998Z</time></trkpt><trkpt lat="39.1837784700757" lon="9.362409836263343"><ele>43.0</ele><time>2026-04-04T15:32:27.998Z</time></trkpt><trkpt lat="39.18396916364072" lon="9.362217018280496"><ele>49.5</ele><time>2026-04-04T15:32:28.998Z</time></trkpt><trkpt lat="39.184167091328895" lon="9.362029172037108"><ele>56.0</ele><time>2026-04-04T15:32:29.998Z</time></trkpt><trkpt lat="39.18437207068669" lon="9.361852544891738"><ele>56.0</ele><time>2026-04-04T15:32:30.998Z</time></trkpt><trkpt lat="39.18458694057648" lon="9.361684192927777"><ele>56.0</ele><time>2026-04-04T15:32:31.998Z</time></trkpt><trkpt lat="39.18480787074502" lon="9.361526549575375"><ele>53.5</ele><time>2026-04-04T15:32:32.998Z</time></trkpt><trkpt lat="39.18502178421812" lon="9.36138609002973"><ele>51.0</ele><time>2026-04-04T15:32:33.998Z</time></trkpt><trkpt lat="39.185215892270044" lon="9.36126106873846"><ele>54.0</ele><time>2026-04-04T15:32:34.998Z</time></trkpt><trkpt lat="39.185398180546926" lon="9.361146547139997"><ele>57.0</ele><time>2026-04-04T15:32:35.998Z</time></trkpt><trkpt lat="39.18557277664544" lon="9.361041206377356"><ele>60.0</ele><time>2026-04-04T15:32:36.998Z</time></trkpt><trkpt lat="39.18574531150588" lon="9.360938441599929"><ele>60.0</ele><time>2026-04-04T15:32:37.998Z</time></trkpt><trkpt lat="39.1859163904367" lon="9.360832321704049"><ele>60.0</ele><time>2026-04-04T15:32:38.998Z</time></trkpt><trkpt lat="39.18608837473932" lon="9.360722017433785"><ele>60.0</ele><time>2026-04-04T15:32:39.998Z</time></trkpt><trkpt lat="39.186265231507214" lon="9.36060682987323"><ele>68.66666666666667</ele><time>2026-04-04T15:32:40.998Z</time></trkpt><trkpt lat="39.18644819907362" lon="9.360491897019854"><ele>77.33333333333334</ele><time>2026-04-04T15:32:41.998Z</time></trkpt><trkpt lat="39.18663112407292" lon="9.360380280246197"><ele>86.0</ele><time>2026-04-04T15:32:42.998Z</time></trkpt><trkpt lat="39.18681545736988" lon="9.36026927785869"><ele>86.66666666666667</ele><time>2026-04-04T15:32:43.998Z</time></trkpt><trkpt lat="39.187001420099804" lon="9.360160457533182"><ele>87.33333333333333</ele><time>2026-04-04T15:32:44.998Z</time></trkpt><trkpt lat="39.18718611781412" lon="9.36005432133289"><ele>88.0</ele><time>2026-04-04T15:32:45.998Z</time></trkpt><trkpt lat="39.18737326451685" lon="9.359945272157805"><ele>95.33333333333333</ele><time>2026-04-04T15:32:46.998Z</time></trkpt><trkpt lat="39.18757383831652" lon="9.359824229757573"><ele>102.66666666666666</ele><time>2026-04-04T15:32:48.072Z</time></trkpt><trkpt lat="39.18775734264218" lon="9.359709824724423"><ele>110.0</ele><time>2026-04-04T15:32:49.058Z</time></trkpt><trkpt lat="39.18794398251521" lon="9.359598122666384"><ele>116.0</ele><time>2026-04-04T15:32:50.057Z</time></trkpt><trkpt lat="39.18813073010234" lon="9.359487448621222"><ele>122.0</ele><time>2026-04-04T15:32:51.062Z</time></trkpt><trkpt lat="39.19541151440648" lon="9.35113783856395"><ele>106.5</ele><time>2026-04-04T15:33:31.997Z</time></trkpt><trkpt lat="39.19562637686573" lon="9.351054200134287"><ele>91.0</ele><time>2026-04-04T15:33:32.998Z</time></trkpt><trkpt lat="39.19584541240492" lon="9.350964693182002"><ele>91.0</ele><time>2026-04-04T15:33:33.998Z</time></trkpt><trkpt lat="39.19607393773988" lon="9.350886467100702"><ele>91.0</ele><time>2026-04-04T15:33:34.998Z</time></trkpt><trkpt lat="39.19630867469107" lon="9.350816155089731"><ele>93.5</ele><time>2026-04-04T15:33:35.998Z</time></trkpt><trkpt lat="39.19654592106017" lon="9.350754410255336"><ele>96.0</ele><time>2026-04-04T15:33:36.998Z</time></trkpt><trkpt lat="39.19678651667386" lon="9.350698949629512"><ele>96.0</ele><time>2026-04-04T15:33:37.999Z</time></trkpt><trkpt lat="39.19702928614962" lon="9.350641130461558"><ele>96.0</ele><time>2026-04-04T15:33:38.999Z</time></trkpt><trkpt lat="39.19727655969796" lon="9.350579713801727"><ele>89.5</ele><time>2026-04-04T15:33:39.999Z</time></trkpt><trkpt lat="39.197525767354506" lon="9.350515703152617"><ele>83.0</ele><time>2026-04-04T15:33:40.999Z</time></trkpt><trkpt lat="39.197773652158716" lon="9.350446440831385"><ele>83.0</ele><time>2026-04-04T15:33:41.999Z</time></trkpt><trkpt lat="39.19801801221745" lon="9.350372229261785"><ele>83.0</ele><time>2026-04-04T15:33:42.999Z</time></trkpt><trkpt lat="39.19824955147148" lon="9.350297323178852"><ele>85.0</ele><time>2026-04-04T15:33:43.999Z</time></trkpt><trkpt lat="39.198464307751706" lon="9.350224393205993"><ele>87.0</ele><time>2026-04-04T15:33:45Z</time></trkpt><trkpt lat="39.1986718581066" lon="9.350143885056704"><ele>89.0</ele><time>2026-04-04T15:33:46Z</time></trkpt><trkpt lat="39.19888118553516" lon="9.350058363872424"><ele>93.5</ele><time>2026-04-04T15:33:47Z</time></trkpt><trkpt lat="39.19909661195993" lon="9.34996476325919"><ele>98.0</ele><time>2026-04-04T15:33:48Z</time></trkpt><trkpt lat="39.1993079154843" lon="9.349866372137646"><ele>98.0</ele><time>2026-04-04T15:33:49Z</time></trkpt><trkpt lat="39.1995065173989" lon="9.349769272349642"><ele>98.0</ele><time>2026-04-04T15:33:50Z</time></trkpt><trkpt lat="39.19969357921394" lon="9.349671419504412"><ele>98.0</ele><time>2026-04-04T15:33:51Z</time></trkpt><trkpt lat="39.19987545526181" lon="9.349569210654545"><ele>99.0</ele><time>2026-04-04T15:33:52Z</time></trkpt><trkpt lat="39.20004805195725" lon="9.349466335168886"><ele>100.0</ele><time>2026-04-04T15:33:53Z</time></trkpt><trkpt lat="39.20020787973243" lon="9.349365892728468"><ele>101.0</ele><time>2026-04-04T15:33:54Z</time></trkpt><trkpt lat="39.200364128619334" lon="9.349264444357893"><ele>101.0</ele><time>2026-04-04T15:33:55Z</time></trkpt><trkpt lat="39.20052474094133" lon="9.349158166449236"><ele>101.0</ele><time>2026-04-04T15:33:56Z</time></trkpt><trkpt lat="39.20069096594164" lon="9.349045421816173"><ele>101.0</ele><time>2026-04-04T15:33:57Z</time></trkpt><trkpt lat="39.200859463726296" lon="9.348931321189305"><ele>112.0</ele><time>2026-04-04T15:33:58Z</time></trkpt><trkpt lat="39.20102046968714" lon="9.34882290299594"><ele>123.0</ele><time>2026-04-04T15:33:59Z</time></trkpt><trkpt lat="39.20116870437917" lon="9.348721229165708"><ele>134.0</ele><time>2026-04-04T15:34:00Z</time></trkpt><trkpt lat="39.20131976547992" lon="9.348618175819166"><ele>14.0</ele><time>2026-04-04T15:34:01Z</time></trkpt><trkpt lat="39.17848066948821" lon="9.382535223354136"><ele>14.0</ele><time>2026-04-04T15:30:00.999Z</time></trkpt><trkpt lat="39.17860355176125" lon="9.382746789809193"><ele>14.0</ele><time>2026-04-04T15:30:01.999Z</time></trkpt><trkpt lat="39.1787238757731" lon="9.382923513323188"><ele>14.0</ele><time>2026-04-04T15:30:02.999Z</time></trkpt><trkpt lat="39.178843408191966" lon="9.383081055593319"><ele>14.25</ele><time>2026-04-04T15:30:03.999Z</time></trkpt><trkpt lat="39.178970591106534" lon="9.383206008536568"><ele>14.5</ele><time>2026-04-04T15:30:04.999Z</time></trkpt><trkpt lat="39.179084854628485" lon="9.383296368311765"><ele>14.75</ele><time>2026-04-04T15:30:05.999Z</time></trkpt><trkpt lat="39.17918232625307" lon="9.383373410737041"><ele>15.0</ele><time>2026-04-04T15:30:06.999Z</time></trkpt><trkpt lat="39.17926126343398" lon="9.38345304427329"><ele>15.0</ele><time>2026-04-04T15:30:07.999Z</time></trkpt><trkpt lat="39.1793112170984" lon="9.383544176689517"><ele>15.0</ele><time>2026-04-04T15:30:08.999Z</time></trkpt><trkpt lat="39.1793419671498" lon="9.383643759340671"><ele>15.0</ele><time>2026-04-04T15:30:09.999Z</time></trkpt><trkpt lat="39.179379193432645" lon="9.38372888324185"><ele>15.0</ele><time>2026-04-04T15:30:10.999Z</time></trkpt><trkpt lat="39.17944419782976" lon="9.38379042626167"><ele>15.0</ele><time>2026-04-04T15:30:11.999Z</time></trkpt><trkpt lat="39.17952998051304" lon="9.38381288182647"><ele>15.0</ele><time>2026-04-04T15:30:12.999Z</time></trkpt><trkpt lat="39.17961878402436" lon="9.383797286845843"><ele>15.0</ele><time>2026-04-04T15:30:13.999Z</time></trkpt><trkpt lat="39.17969121636073" lon="9.38377075047226"><ele>15.0</ele><time>2026-04-04T15:30:14.999Z</time></trkpt><trkpt lat="39.179767447047425" lon="9.383764451338488"><ele>15.0</ele><time>2026-04-04T15:30:15.999Z</time></trkpt><trkpt lat="39.17984756585508" lon="9.383810172480102"><ele>15.0</ele><time>2026-04-04T15:30:16.999Z</time></trkpt><trkpt lat="39.179930582652254" lon="9.383912087365884"><ele>15.0</ele><time>2026-04-04T15:30:17.999Z</time></trkpt><trkpt lat="39.18005719660892" lon="9.384000520479239"><ele>14.333333333333332</ele><time>2026-04-04T15:30:18.999Z</time></trkpt><trkpt lat="39.18020848685219" lon="9.38411498006734"><ele>13.666666666666666</ele><time>2026-04-04T15:30:19.999Z</time></trkpt><trkpt lat="39.18037393537232" lon="9.384262284651339"><ele>13.0</ele><time>2026-04-04T15:30:20.999Z</time></trkpt><trkpt lat="39.180516026776644" lon="9.3844271341889"><ele>13.0</ele><time>2026-04-04T15:30:21.999Z</time></trkpt><trkpt lat="39.18064208005267" lon="9.3846124454554"><ele>13.0</ele><time>2026-04-04T15:30:22.999Z</time></trkpt><trkpt lat="39.18076484455394" lon="9.384813623008252"><ele>13.0</ele><time>2026-04-04T15:30:23.999Z</time></trkpt><trkpt lat="39.18085677762986" lon="9.3850179281633"><ele>13.333333333333332</ele><time>2026-04-04T15:30:24.999Z</time></trkpt><trkpt lat="39.180935869553416" lon="9.385201455849057"><ele>13.666666666666668</ele><time>2026-04-04T15:30:25.999Z</time></trkpt><trkpt lat="39.18100845740189" lon="9.385372455244799"><ele>14.0</ele><time>2026-04-04T15:30:26.999Z</time></trkpt><trkpt lat="39.181087378277255" lon="9.385548804342525"><ele>14.0</ele><time>2026-04-04T15:30:27.999Z</time></trkpt><trkpt lat="39.18116590410093" lon="9.385730999176108"><ele>14.0</ele><time>2026-04-04T15:30:28.999Z</time></trkpt><trkpt lat="39.18124225690382" lon="9.385932814272302"><ele>14.0</ele><time>2026-04-04T15:30:29.999Z</time></trkpt><trkpt lat="39.18130638468983" lon="9.386145427536782"><ele>13.333333333333334</ele><time>2026-04-04T15:30:30.999Z</time></trkpt><trkpt lat="39.18135517711682" lon="9.386367469604357"><ele>12.666666666666668</ele><time>2026-04-04T15:30:31.999Z</time></trkpt><trkpt lat="39.18138956954073" lon="9.386577315147195"><ele>12.0</ele><time>2026-04-04T15:30:32.999Z</time></trkpt><trkpt lat="39.18140952527753" lon="9.38675120515462"><ele>12.0</ele><time>2026-04-04T15:30:33.999Z</time></trkpt><trkpt lat="39.181428143155145" lon="9.386885473534335"><ele>12.0</ele><time>2026-04-04T15:30:34.999Z</time></trkpt><trkpt lat="39.18143857200762" lon="9.386988614692601"><ele>12.0</ele><time>2026-04-04T15:30:35.999Z</time></trkpt><trkpt lat="39.18144174773397" lon="9.387086150394374"><ele>12.0</ele><time>2026-04-04T15:30:36.999Z</time></trkpt><trkpt lat="39.18141422547836" lon="9.387176171892035"><ele>12.0</ele><time>2026-04-04T15:30:37.999Z</time></trkpt><trkpt lat="39.1813613152404" lon="9.387262349120626"><ele>12.0</ele><time>2026-04-04T15:30:38.999Z</time></trkpt><trkpt lat="39.181312707735856" lon="9.387351152252242"><ele>12.0</ele><time>2026-04-04T15:30:39.999Z</time></trkpt><trkpt lat="39.181297650456095" lon="9.387454307170666"><ele>12.0</ele><time>2026-04-04T15:30:40.999Z</time></trkpt><trkpt lat="39.18132040179993" lon="9.387547732197774"><ele>12.0</ele><time>2026-04-04T15:30:41.999Z</time></trkpt><trkpt lat="39.18137001614135" lon="9.387629455743703"><ele>12.0</ele><time>2026-04-04T15:30:42.999Z</time></trkpt><trkpt lat="39.18144633308996" lon="9.387708208226746"><ele>12.0</ele><time>2026-04-04T15:30:43.999Z</time></trkpt><trkpt lat="39.181540110533064" lon="9.3877959287439"><ele>13.0</ele><time>2026-04-04T15:30:44.999Z</time></trkpt><trkpt lat="39.18160123416263" lon="9.387968094987118"><ele>14.0</ele><time>2026-04-04T15:30:45.999Z</time></trkpt><trkpt lat="39.18165129954135" lon="9.388139496110549"><ele>15.0</ele><time>2026-04-04T15:30:46.999Z</time></trkpt><trkpt lat="39.181736471420535" lon="9.388279367781518"><ele>16.0</ele><time>2026-04-04T15:30:47.999Z</time></trkpt><trkpt lat="39.181838926497754" lon="9.388362458816376"><ele>16.0</ele><time>2026-04-04T15:30:48.999Z</time></trkpt><trkpt lat="39.18196126455374" lon="9.388419601295055"><ele>16.0</ele><time>2026-04-04T15:30:49.999Z</time></trkpt><trkpt lat="39.182096886785224" lon="9.388441519003228"><ele>16.0</ele><time>2026-04-04T15:30:50.999Z</time></trkpt><trkpt lat="39.18223380230857" lon="9.388425472155937"><ele>16.0</ele><time>2026-04-04T15:30:51.999Z</time></trkpt><trkpt lat="39.18236504846893" lon="9.388365790526146"><ele>18.5</ele><time>2026-04-04T15:30:52.999Z</time></trkpt><trkpt lat="39.18247814074467" lon="9.388266808276448"><ele>21.0</ele><time>2026-04-04T15:30:53.999Z</time></trkpt><trkpt lat="39.182572236027184" lon="9.388131981305168"><ele>23.5</ele><time>2026-04-04T15:30:54.999Z</time></trkpt><trkpt lat="39.182641202745444" lon="9.387969424294292"><ele>26.0</ele><time>2026-04-04T15:30:55.999Z</time></trkpt><trkpt lat="39.18267431295372" lon="9.387795534750763"><ele>26.0</ele><time>2026-04-04T15:30:56.999Z</time></trkpt><trkpt lat="39.182672383955776" lon="9.387621871868342"><ele>26.0</ele><time>2026-04-04T15:30:57.999Z</time></trkpt><trkpt lat="39.18263914645157" lon="9.387447317000758"><ele>26.0</ele><time>2026-04-04T15:30:58.999Z</time></trkpt><trkpt lat="39.18254311156394" lon="9.387279459327495"><ele>26.0</ele><time>2026-04-04T15:30:59.999Z</time></trkpt><trkpt lat="39.18251538586525" lon="9.387101523912623"><ele>25.25</ele><time>2026-04-04T15:31:00.999Z</time></trkpt><trkpt lat="39.18246453819982" lon="9.386933511637958"><ele>24.5</ele><time>2026-04-04T15:31:01.999Z</time></trkpt><trkpt lat="39.182432752950646" lon="9.386774337338434"><ele>23.75</ele><time>2026-04-04T15:31:02.999Z</time></trkpt><trkpt lat="39.18241230651955" lon="9.386598908233074"><ele>23.0</ele><time>2026-04-04T15:31:03.999Z</time></trkpt><trkpt lat="39.182416898860005" lon="9.386413262281257"><ele>21.75</ele><time>2026-04-04T15:31:04.999Z</time></trkpt><trkpt lat="39.18244657479056" lon="9.386236512641252"><ele>20.5</ele><time>2026-04-04T15:31:05.999Z</time></trkpt><trkpt lat="39.18249759459021" lon="9.386062839151874"><ele>19.25</ele><time>2026-04-04T15:31:06.999Z</time></trkpt><trkpt lat="39.182569642278295" lon="9.385880915476331"><ele>18.0</ele><time>2026-04-04T15:31:07.999Z</time></trkpt><trkpt lat="39.18265327375898" lon="9.38568750183532"><ele>17.666666666666668</ele><time>2026-04-04T15:31:08.999Z</time></trkpt><trkpt lat="39.18272284458281" lon="9.385465348503223"><ele>17.333333333333336</ele><time>2026-04-04T15:31:09.999Z</time></trkpt><trkpt lat="39.182837322018" lon="9.385234021354348"><ele>17.0</ele><time>2026-04-04T15:31:10.999Z</time></trkpt><trkpt lat="39.18293046660144" lon="9.384968445492394"><ele>17.0</ele><time>2026-04-04T15:31:11.999Z</time></trkpt><trkpt lat="39.18302233422762" lon="9.384688885594848"><ele>17.0</ele><time>2026-04-04T15:31:12.999Z</time></trkpt><trkpt lat="39.18310911262309" lon="9.384410007100211"><ele>21.0</ele><time>2026-04-04T15:31:13.999Z</time></trkpt><trkpt lat="39.18319159553377" lon="9.38412290617303"><ele>25.0</ele><time>2026-04-04T15:31:14.999Z</time></trkpt><trkpt lat="39.1832684707946" lon="9.383825464198894"><ele>25.0</ele><time>2026-04-04T15:31:15.999Z</time></trkpt><trkpt lat="39.183337840276664" lon="9.383514289485731"><ele>25.0</ele><time>2026-04-04T15:31:16.999Z</time></trkpt><trkpt lat="39.18339830192355" lon="9.38320597058381"><ele>23.0</ele><time>2026-04-04T15:31:17.999Z</time></trkpt><trkpt lat="39.18344627263519" lon="9.382898312748882"><ele>21.0</ele><time>2026-04-04T15:31:18.999Z</time></trkpt><trkpt lat="39.18348386277797" lon="9.382585966547603"><ele>21.0</ele><time>2026-04-04T15:31:19.999Z</time></trkpt><trkpt lat="39.183514365982255" lon="9.382264714462133"><ele>21.0</ele><time>2026-04-04T15:31:20.999Z</time></trkpt><trkpt lat="39.183541902665205" lon="9.381938818567772"><ele>19.5</ele><time>2026-04-04T15:31:21.999Z</time></trkpt><trkpt lat="39.183566470772575" lon="9.381612751971986"><ele>18.0</ele><time>2026-04-04T15:31:22.998Z</time></trkpt><trkpt lat="39.1835894377656" lon="9.38128592123121"><ele>16.5</ele><time>2026-04-04T15:31:23.998Z</time></trkpt><trkpt lat="39.18361210437718" lon="9.380958340062524"><ele>15.0</ele><time>2026-04-04T15:31:24.998Z</time></trkpt><trkpt lat="39.18363594741725" lon="9.380631943831048"><ele>15.0</ele><time>2026-04-04T15:31:25.998Z</time></trkpt><trkpt lat="39.18366329096368" lon="9.380300436346687"><ele>15.0</ele><time>2026-04-04T15:31:26.998Z</time></trkpt><trkpt lat="39.18369102697443" lon="9.37998167268909"><ele>19.0</ele><time>2026-04-04T15:31:27.998Z</time></trkpt><trkpt lat="39.18371886238826" lon="9.379657743120312"><ele>23.0</ele><time>2026-04-04T15:31:28.998Z</time></trkpt><trkpt lat="39.18374590292628" lon="9.379337009796927"><ele>23.0</ele><time>2026-04-04T15:31:29.998Z</time></trkpt><trkpt lat="39.183770974976916" lon="9.379015662927342"><ele>23.0</ele><time>2026-04-04T15:31:30.998Z</time></trkpt><trkpt lat="39.18379647049089" lon="9.378694211301426"><ele>28.5</ele><time>2026-04-04T15:31:31.998Z</time></trkpt><trkpt lat="39.183818600078965" lon="9.378373515294745"><ele>34.0</ele><time>2026-04-04T15:31:32.998Z</time></trkpt><trkpt lat="39.18383350533477" lon="9.378056274649946"><ele>43.5</ele><time>2026-04-04T15:31:33.998Z</time></trkpt><trkpt lat="39.18384121421927" lon="9.377733681004868"><ele>53.0</ele><time>2026-04-04T15:31:34.998Z</time></trkpt><trkpt lat="39.1838381548099" lon="9.377418772218958"><ele>62.0</ele><time>2026-04-04T15:31:35.998Z</time></trkpt><trkpt lat="39.18382454869029" lon="9.377097908756655"><ele>71.0</ele><time>2026-04-04T15:31:36.998Z</time></trkpt><trkpt lat="39.18380345909305" lon="9.376781793919564"><ele>71.0</ele><time>2026-04-04T15:31:37.998Z</time></trkpt><trkpt lat="39.183772984529966" lon="9.376470180756517"><ele>71.0</ele><time>2026-04-04T15:31:38.998Z</time></trkpt><trkpt lat="39.1837358053887" lon="9.37616530545072"><ele>79.0</ele><time>2026-04-04T15:31:39.998Z</time></trkpt><trkpt lat="39.183693703678344" lon="9.375860287312419"><ele>87.0</ele><time>2026-04-04T15:31:40.998Z</time></trkpt><trkpt lat="39.18365282972286" lon="9.375553424899694"><ele>94.0</ele><time>2026-04-04T15:31:41.998Z</time></trkpt><trkpt lat="39.18361344119765" lon="9.375241946985366"><ele>101.0</ele><time>2026-04-04T15:31:42.998Z</time></trkpt><trkpt lat="39.18356731646678" lon="9.37490667212937"><ele>100.5</ele><time>2026-04-04T15:31:44.072Z</time></trkpt><trkpt lat="39.183523035133355" lon="9.374604958416525"><ele>100.0</ele><time>2026-04-04T15:31:45.067Z</time></trkpt><trkpt lat="39.18255202423016" lon="9.372302844165498"><ele>71.0</ele><time>2026-04-04T15:31:48.478Z</time></trkpt><trkpt lat="39.18220555350679" lon="9.371361222328035"><ele>47.0</ele><time>2026-04-04T15:31:49.478Z</time></trkpt><trkpt lat="39.18194961244251" lon="9.370295543394352"><ele>47.0</ele><time>2026-04-04T15:31:59.998Z</time></trkpt><trkpt lat="39.181873223222" lon="9.369977237671778"><ele>47.0</ele><time>2026-04-04T15:32:00.998Z</time></trkpt><trkpt lat="39.18177347248969" lon="9.369668792596185"><ele>43.0</ele><time>2026-04-04T15:32:01.998Z</time></trkpt><trkpt lat="39.18175067603991" lon="9.369319449590098"><ele>39.0</ele><time>2026-04-04T15:32:02.998Z</time></trkpt><trkpt lat="39.18171286742767" lon="9.3690086501513"><ele>38.5</ele><time>2026-04-04T15:32:03.998Z</time></trkpt><trkpt lat="39.18168821114739" lon="9.368684092127546"><ele>38.0</ele><time>2026-04-04T15:32:04.998Z</time></trkpt><trkpt lat="39.18167396014248" lon="9.368354068300029"><ele>41.5</ele><time>2026-04-04T15:32:05.998Z</time></trkpt><trkpt lat="39.18167105003284" lon="9.368007493055948"><ele>45.0</ele><time>2026-04-04T15:32:06.998Z</time></trkpt><trkpt lat="39.18167592292573" lon="9.367672796129032"><ele>45.0</ele><time>2026-04-04T15:32:07.998Z</time></trkpt><trkpt lat="39.1816925876381" lon="9.36736316611675"><ele>45.0</ele><time>2026-04-04T15:32:08.998Z</time></trkpt><trkpt lat="39.18173160522974" lon="9.367084567794938"><ele>48.66666666666667</ele><time>2026-04-04T15:32:09.998Z</time></trkpt><trkpt lat="39.18178487649169" lon="9.366811078231859"><ele>52.333333333333336</ele><time>2026-04-04T15:32:10.998Z</time></trkpt><trkpt lat="39.18184217614998" lon="9.366536571562188"><ele>56.0</ele><time>2026-04-04T15:32:11.998Z</time></trkpt><trkpt lat="39.18189520104864" lon="9.366254052141004"><ele>59.0</ele><time>2026-04-04T15:32:12.998Z</time></trkpt><trkpt lat="39.181957168469985" lon="9.365975691958711"><ele>62.0</ele><time>2026-04-04T15:32:13.998Z</time></trkpt><trkpt lat="39.182007087754556" lon="9.36569093088063"><ele>59.0</ele><time>2026-04-04T15:32:14.998Z</time></trkpt><trkpt lat="39.18206540732167" lon="9.365392258354456"><ele>56.0</ele><time>2026-04-04T15:32:16.067Z</time></trkpt><trkpt lat="39.18212884620961" lon="9.365111565224083"><ele>56.0</ele><time>2026-04-04T15:32:17.068Z</time></trkpt><trkpt lat="39.182191056746376" lon="9.364831960550372"><ele>56.0</ele><time>2026-04-04T15:32:18.067Z</time></trkpt><trkpt lat="39.18249982620407" lon="9.363947774830313"><ele>42.5</ele><time>2026-04-04T15:32:20.998Z</time></trkpt><trkpt lat="39.1827311891528" lon="9.363625949053873"><ele>29.0</ele><time>2026-04-04T15:32:21.998Z</time></trkpt><trkpt lat="39.18292650424442" lon="9.363448825109286"><ele>29.0</ele><time>2026-04-04T15:32:22.998Z</time></trkpt><trkpt lat="39.18308810243493" lon="9.363239914388274"><ele>29.0</ele><time>2026-04-04T15:32:23.998Z</time></trkpt><trkpt lat="39.1832530119933" lon="9.36303277926724"><ele>36.0</ele><time>2026-04-04T15:32:24.998Z</time></trkpt><trkpt lat="39.18342185681963" lon="9.362820746230192"><ele>43.0</ele><time>2026-04-04T15:32:25.998Z</time></trkpt><trkpt lat="39.18359636070633" lon="9.362612327989751"><ele>43.0</ele><time>2026-04-04T15:32:26.998Z</time></trkpt><trkpt lat="39.1837784700757" lon="9.362409836263343"><ele>43.0</ele><time>2026-04-04T15:32:27.998Z</time></trkpt><trkpt lat="39.18396916364072" lon="9.362217018280496"><ele>49.5</ele><time>2026-04-04T15:32:28.998Z</time></trkpt><trkpt lat="39.184167091328895" lon="9.362029172037108"><ele>56.0</ele><time>2026-04-04T15:32:29.998Z</time></trkpt><trkpt lat="39.18437207068669" lon="9.361852544891738"><ele>56.0</ele><time>2026-04-04T15:32:30.998Z</time></trkpt><trkpt lat="39.18458694057648" lon="9.361684192927777"><ele>56.0</ele><time>2026-04-04T15:32:31.998Z</time></trkpt><trkpt lat="39.18480787074502" lon="9.361526549575375"><ele>53.5</ele><time>2026-04-04T15:32:32.998Z</time></trkpt><trkpt lat="39.18502178421812" lon="9.36138609002973"><ele>51.0</ele><time>2026-04-04T15:32:33.998Z</time></trkpt><trkpt lat="39.185215892270044" lon="9.36126106873846"><ele>54.0</ele><time>2026-04-04T15:32:34.998Z</time></trkpt><trkpt lat="39.185398180546926" lon="9.361146547139997"><ele>57.0</ele><time>2026-04-04T15:32:35.998Z</time></trkpt><trkpt lat="39.18557277664544" lon="9.361041206377356"><ele>60.0</ele><time>2026-04-04T15:32:36.998Z</time></trkpt><trkpt lat="39.18574531150588" lon="9.360938441599929"><ele>60.0</ele><time>2026-04-04T15:32:37.998Z</time></trkpt><trkpt lat="39.1859163904367" lon="9.360832321704049"><ele>60.0</ele><time>2026-04-04T15:32:38.998Z</time></trkpt><trkpt lat="39.18608837473932" lon="9.360722017433785"><ele>60.0</ele><time>2026-04-04T15:32:39.998Z</time></trkpt><trkpt lat="39.186265231507214" lon="9.36060682987323"><ele>68.66666666666667</ele><time>2026-04-04T15:32:40.998Z</time></trkpt><trkpt lat="39.18644819907362" lon="9.360491897019854"><ele>77.33333333333334</ele><time>2026-04-04T15:32:41.998Z</time></trkpt><trkpt lat="39.18663112407292" lon="9.360380280246197"><ele>86.0</ele><time>2026-04-04T15:32:42.998Z</time></trkpt><trkpt lat="39.18681545736988" lon="9.36026927785869"><ele>86.66666666666667</ele><time>2026-04-04T15:32:43.998Z</time></trkpt><trkpt lat="39.187001420099804" lon="9.360160457533182"><ele>87.33333333333333</ele><time>2026-04-04T15:32:44.998Z</time></trkpt><trkpt lat="39.18718611781412" lon="9.36005432133289"><ele>88.0</ele><time>2026-04-04T15:32:45.998Z</time></trkpt><trkpt lat="39.18737326451685" lon="9.359945272157805"><ele>95.33333333333333</ele><time>2026-04-04T15:32:46.998Z</time></trkpt><trkpt lat="39.18757383831652" lon="9.359824229757573"><ele>102.66666666666666</ele><time>2026-04-04T15:32:48.072Z</time></trkpt><trkpt lat="39.18775734264218" lon="9.359709824724423"><ele>110.0</ele><time>2026-04-04T15:32:49.058Z</time></trkpt><trkpt lat="39.18794398251521" lon="9.359598122666384"><ele>116.0</ele><time>2026-04-04T15:32:50.057Z</time></trkpt><trkpt lat="39.18813073010234" lon="9.359487448621222"><ele>122.0</ele><time>2026-04-04T15:32:51.062Z</time></trkpt><trkpt lat="39.19541151440648" lon="9.35113783856395"><ele>106.5</ele><time>2026-04-04T15:33:31.997Z</time></trkpt><trkpt lat="39.19562637686573" lon="9.351054200134287"><ele>91.0</ele><time>2026-04-04T15:33:32.998Z</time></trkpt><trkpt lat="39.19584541240492" lon="9.350964693182002"><ele>91.0</ele><time>2026-04-04T15:33:33.998Z</time></trkpt><trkpt lat="39.19607393773988" lon="9.350886467100702"><ele>91.0</ele><time>2026-04-04T15:33:34.998Z</time></trkpt><trkpt lat="39.19630867469107" lon="9.350816155089731"><ele>93.5</ele><time>2026-04-04T15:33:35.998Z</time></trkpt><trkpt lat="39.19654592106017" lon="9.350754410255336"><ele>96.0</ele><time>2026-04-04T15:33:36.998Z</time></trkpt><trkpt lat="39.19678651667386" lon="9.350698949629512"><ele>96.0</ele><time>2026-04-04T15:33:37.999Z</time></trkpt><trkpt lat="39.19702928614962" lon="9.350641130461558"><ele>96.0</ele><time>2026-04-04T15:33:38.999Z</time></trkpt><trkpt lat="39.19727655969796" lon="9.350579713801727"><ele>89.5</ele><time>2026-04-04T15:33:39.999Z</time></trkpt><trkpt lat="39.197525767354506" lon="9.350515703152617"><ele>83.0</ele><time>2026-04-04T15:33:40.999Z</time></trkpt><trkpt lat="39.197773652158716" lon="9.350446440831385"><ele>83.0</ele><time>2026-04-04T15:33:41.999Z</time></trkpt><trkpt lat="39.19801801221745" lon="9.350372229261785"><ele>83.0</ele><time>2026-04-04T15:33:42.999Z</time></trkpt><trkpt lat="39.19824955147148" lon="9.350297323178852"><ele>85.0</ele><time>2026-04-04T15:33:43.999Z</time></trkpt><trkpt lat="39.198464307751706" lon="9.350224393205993"><ele>87.0</ele><time>2026-04-04T15:33:45Z</time></trkpt><trkpt lat="39.1986718581066" lon="9.350143885056704"><ele>89.0</ele><time>2026-04-04T15:33:46Z</time></trkpt><trkpt lat="39.19888118553516" lon="9.350058363872424"><ele>93.5</ele><time>2026-04-04T15:33:47Z</time></trkpt><trkpt lat="39.19909661195993" lon="9.34996476325919"><ele>98.0</ele><time>2026-04-04T15:33:48Z</time></trkpt><trkpt lat="39.1993079154843" lon="9.349866372137646"><ele>98.0</ele><time>2026-04-04T15:33:49Z</time></trkpt><trkpt lat="39.1995065173989" lon="9.349769272349642"><ele>98.0</ele><time>2026-04-04T15:33:50Z</time></trkpt><trkpt lat="39.19969357921394" lon="9.349671419504412"><ele>98.0</ele><time>2026-04-04T15:33:51Z</time></trkpt><trkpt lat="39.19987545526181" lon="9.349569210654545"><ele>99.0</ele><time>2026-04-04T15:33:52Z</time></trkpt><trkpt lat="39.20004805195725" lon="9.349466335168886"><ele>100.0</ele><time>2026-04-04T15:33:53Z</time></trkpt><trkpt lat="39.20020787973243" lon="9.349365892728468"><ele>101.0</ele><time>2026-04-04T15:33:54Z</time></trkpt><trkpt lat="39.200364128619334" lon="9.349264444357893"><ele>101.0</ele><time>2026-04-04T15:33:55Z</time></trkpt><trkpt lat="39.20052474094133" lon="9.349158166449236"><ele>101.0</ele><time>2026-04-04T15:33:56Z</time></trkpt><trkpt lat="39.20069096594164" lon="9.349045421816173"><ele>101.0</ele><time>2026-04-04T15:33:57Z</time></trkpt><trkpt lat="39.200859463726296" lon="9.348931321189305"><ele>112.0</ele><time>2026-04-04T15:33:58Z</time></trkpt><trkpt lat="39.20102046968714" lon="9.34882290299594"><ele>123.0</ele><time>2026-04-04T15:33:59Z</time></trkpt><trkpt lat="39.20116870437917" lon="9.348721229165708"><ele>134.0</ele><time>2026-04-04T15:34:00Z</time></trkpt><trkpt lat="39.20131976547992" lon="9.348618175819166"><ele>134.0</ele><time>2026-04-04T15:34:01Z</time></trkpt><trkpt lat="39.20146424446169" lon="9.348525241336148"><ele>134.0</ele><time>2026-04-04T15:34:02Z</time></trkpt><trkpt lat="39.201601271490205" lon="9.348432585199442"><ele>134.0</ele><time>2026-04-04T15:34:03Z</time></trkpt><trkpt lat="39.20175001900455" lon="9.348326316183256"><ele>133.5</ele><time>2026-04-04T15:34:04.069Z</time></trkpt><trkpt lat="39.20189123949461" lon="9.348225769303564"><ele>133.0</ele><time>2026-04-04T15:34:05.067Z</time></trkpt><trkpt lat="39.20365957018858" lon="9.346954085499215"><ele>111.0</ele><time>2026-04-04T15:34:08.477Z</time></trkpt><trkpt lat="39.20237340254944" lon="9.347872332943988"><ele>111.0</ele><time>2026-04-04T15:34:10Z</time></trkpt><trkpt lat="39.20249850478601" lon="9.34778329693263"><ele>111.0</ele><time>2026-04-04T15:34:11Z</time></trkpt><trkpt lat="39.202600509359094" lon="9.347726048708825"><ele>111.0</ele><time>2026-04-04T15:34:12Z</time></trkpt><trkpt lat="39.202694928504535" lon="9.347659209775797"><ele>111.0</ele><time>2026-04-04T15:34:13Z</time></trkpt><trkpt lat="39.20277039676008" lon="9.347605786136187"><ele>111.0</ele><time>2026-04-04T15:34:14Z</time></trkpt><trkpt lat="39.20287671089122" lon="9.347530526801915"><ele>111.0</ele><time>2026-04-04T15:34:15Z</time></trkpt><trkpt lat="39.20296756525951" lon="9.347466211365195"><ele>111.0</ele><time>2026-04-04T15:34:16Z</time></trkpt><trkpt lat="39.20511557841419" lon="9.345926941009221"><ele>154.0</ele><time>2026-04-04T15:34:24.479Z</time></trkpt><trkpt lat="39.205667787963066" lon="9.345538585671227"><ele>154.0</ele><time>2026-04-04T15:34:25.477Z</time></trkpt><trkpt lat="39.20622141097579" lon="9.34514959903424"><ele>173.0</ele><time>2026-04-04T15:34:26.478Z</time></trkpt><trkpt lat="39.2067188" lon="9.3447996"><ele>101.0</ele><time>2026-04-04T15:34:27.479Z</time></trkpt><trkpt lat="39.22189222190637" lon="9.330467759658692"><ele>101.0</ele><time>2026-04-04T15:36:33Z</time></trkpt><trkpt lat="39.221767417687644" lon="9.330522065922304"><ele>101.0</ele><time>2026-04-04T15:36:34Z</time></trkpt><trkpt lat="39.221913035693085" lon="9.330358490751285"><ele>101.0</ele><time>2026-04-04T15:36:35Z</time></trkpt><trkpt lat="39.222098899123004" lon="9.33014608403344"><ele>101.0</ele><time>2026-04-04T15:36:36Z</time></trkpt><trkpt lat="39.22222015798115" lon="9.329960720883308"><ele>101.0</ele><time>2026-04-04T15:36:37Z</time></trkpt><trkpt lat="39.22233858061838" lon="9.329791587037633"><ele>101.0</ele><time>2026-04-04T15:36:38Z</time></trkpt><trkpt lat="39.22245296560736" lon="9.329629827992015"><ele>100.66666666666666</ele><time>2026-04-04T15:36:39Z</time></trkpt><trkpt lat="39.22256910698559" lon="9.329457101486401"><ele>100.33333333333334</ele><time>2026-04-04T15:36:40Z</time></trkpt><trkpt lat="39.222694467885624" lon="9.32927245828767"><ele>100.0</ele><time>2026-04-04T15:36:41Z</time></trkpt><trkpt lat="39.22282761517313" lon="9.329077589066758"><ele>98.33333333333334</ele><time>2026-04-04T15:36:42Z</time></trkpt><trkpt lat="39.22296360859286" lon="9.32888383453379"><ele>96.66666666666667</ele><time>2026-04-04T15:36:43Z</time></trkpt><trkpt lat="39.22310155942126" lon="9.328696070820772"><ele>95.0</ele><time>2026-04-04T15:36:44.001Z</time></trkpt><trkpt lat="39.22323896922426" lon="9.32851037201092"><ele>95.0</ele><time>2026-04-04T15:36:45.001Z</time></trkpt><trkpt lat="39.22336807670525" lon="9.328338555098131"><ele>95.0</ele><time>2026-04-04T15:36:46.001Z</time></trkpt><trkpt lat="39.22348877897483" lon="9.32817918389644"><ele>95.0</ele><time>2026-04-04T15:36:47.001Z</time></trkpt><trkpt lat="39.22359736849414" lon="9.328025890274219"><ele>91.75</ele><time>2026-04-04T15:36:48.001Z</time></trkpt><trkpt lat="39.22369557614726" lon="9.327887809716362"><ele>88.5</ele><time>2026-04-04T15:36:49.001Z</time></trkpt><trkpt lat="39.22379237272646" lon="9.327757584716377"><ele>85.25</ele><time>2026-04-04T15:36:50.001Z</time></trkpt><trkpt lat="39.22388954111517" lon="9.327633541151318"><ele>82.0</ele><time>2026-04-04T15:36:51.001Z</time></trkpt><trkpt lat="39.22399031076256" lon="9.327515820244725"><ele>80.66666666666666</ele><time>2026-04-04T15:36:52.001Z</time></trkpt><trkpt lat="39.22410557448993" lon="9.327389316366979"><ele>79.33333333333333</ele><time>2026-04-04T15:36:53.001Z</time></trkpt><trkpt lat="39.22423244536192" lon="9.327256151241807"><ele>78.0</ele><time>2026-04-04T15:36:54.001Z</time></trkpt><trkpt lat="39.22435972645184" lon="9.327115487725914"><ele>77.0</ele><time>2026-04-04T15:36:55.001Z</time></trkpt><trkpt lat="39.22447179435564" lon="9.326977622063778"><ele>76.0</ele><time>2026-04-04T15:36:56.001Z</time></trkpt><trkpt lat="39.22457961379898" lon="9.32682551249975"><ele>75.0</ele><time>2026-04-04T15:36:57.001Z</time></trkpt><trkpt lat="39.22468249278893" lon="9.326652188602536"><ele>75.0</ele><time>2026-04-04T15:36:58.001Z</time></trkpt><trkpt lat="39.22476519568515" lon="9.326474092367045"><ele>75.0</ele><time>2026-04-04T15:36:59.001Z</time></trkpt><trkpt lat="39.224840626506" lon="9.326285167940197"><ele>75.0</ele><time>2026-04-04T15:37:00.001Z</time></trkpt><trkpt lat="39.224913087384074" lon="9.326088036727832"><ele>73.0</ele><time>2026-04-04T15:37:01.001Z</time></trkpt><trkpt lat="39.22497807799945" lon="9.325900923471695"><ele>71.0</ele><time>2026-04-04T15:37:02.001Z</time></trkpt><trkpt lat="39.22503990606846" lon="9.325729897626536"><ele>69.0</ele><time>2026-04-04T15:37:03.001Z</time></trkpt><trkpt lat="39.225105953837726" lon="9.325560900740406"><ele>67.33333333333333</ele><time>2026-04-04T15:37:04.001Z</time></trkpt><trkpt lat="39.22518103168636" lon="9.325387554665701"><ele>65.66666666666666</ele><time>2026-04-04T15:37:05.001Z</time></trkpt><trkpt lat="39.22526444638099" lon="9.325215500984624"><ele>64.0</ele><time>2026-04-04T15:37:06.001Z</time></trkpt><trkpt lat="39.225362981332566" lon="9.325045726818564"><ele>64.0</ele><time>2026-04-04T15:37:07.001Z</time></trkpt><trkpt lat="39.22547898863881" lon="9.324878798835595"><ele>64.0</ele><time>2026-04-04T15:37:08.001Z</time></trkpt><trkpt lat="39.2256062159453" lon="9.324727624467108"><ele>64.0</ele><time>2026-04-04T15:37:09.001Z</time></trkpt><trkpt lat="39.22574294175636" lon="9.324597277180645"><ele>64.0</ele><time>2026-04-04T15:37:10.001Z</time></trkpt><trkpt lat="39.22588942483856" lon="9.324482268659134"><ele>64.0</ele><time>2026-04-04T15:37:11.001Z</time></trkpt><trkpt lat="39.226038808930504" lon="9.324387962520586"><ele>64.0</ele><time>2026-04-04T15:37:12.001Z</time></trkpt><trkpt lat="39.226189774612706" lon="9.324312078285551"><ele>64.0</ele><time>2026-04-04T15:37:13.001Z</time></trkpt><trkpt lat="39.22633449273105" lon="9.324254968473262"><ele>64.0</ele><time>2026-04-04T15:37:14.001Z</time></trkpt><trkpt lat="39.226481555315814" lon="9.32420213732043"><ele>64.0</ele><time>2026-04-04T15:37:15.001Z</time></trkpt><trkpt lat="39.22663192052006" lon="9.324142599366889"><ele>63.666666666666664</ele><time>2026-04-04T15:37:16.001Z</time></trkpt><trkpt lat="39.22678928092003" lon="9.324068586111315"><ele>63.33333333333333</ele><time>2026-04-04T15:37:17.001Z</time></trkpt><trkpt lat="39.22695479035807" lon="9.323977642551576"><ele>63.0</ele><time>2026-04-04T15:37:18.001Z</time></trkpt><trkpt lat="39.22713775993286" lon="9.3238733032714"><ele>64.0</ele><time>2026-04-04T15:37:19.001Z</time></trkpt><trkpt lat="39.22733708559066" lon="9.323755309485069"><ele>65.0</ele><time>2026-04-04T15:37:20.001Z</time></trkpt><trkpt lat="39.22752568613118" lon="9.323638670653553"><ele>66.0</ele><time>2026-04-04T15:37:21.001Z</time></trkpt><trkpt lat="39.227701893253446" lon="9.323522786968734"><ele>66.0</ele><time>2026-04-04T15:37:22.001Z</time></trkpt><trkpt lat="39.22787784707511" lon="9.323397366943782"><ele>66.0</ele><time>2026-04-04T15:37:23Z</time></trkpt><trkpt lat="39.22804989673713" lon="9.323260286423343"><ele>66.0</ele><time>2026-04-04T15:37:24Z</time></trkpt><trkpt lat="39.228218678371746" lon="9.323114722468407"><ele>63.66666666666667</ele><time>2026-04-04T15:37:25Z</time></trkpt><trkpt lat="39.22838529907863" lon="9.322965892139012"><ele>61.333333333333336</ele><time>2026-04-04T15:37:26Z</time></trkpt><trkpt lat="39.22855121434343" lon="9.32281428182246"><ele>59.0</ele><time>2026-04-04T15:37:27Z</time></trkpt><trkpt lat="39.22871572694744" lon="9.32266086343269"><ele>59.0</ele><time>2026-04-04T15:37:28Z</time></trkpt><trkpt lat="39.22887432749207" lon="9.322506084975721"><ele>59.0</ele><time>2026-04-04T15:37:29Z</time></trkpt><trkpt lat="39.22903190098132" lon="9.322348336415743"><ele>59.0</ele><time>2026-04-04T15:37:30Z</time></trkpt><trkpt lat="39.229181055267766" lon="9.322195835333345"><ele>60.333333333333336</ele><time>2026-04-04T15:37:31Z</time></trkpt><trkpt lat="39.22932591241729" lon="9.322051304720324"><ele>61.66666666666667</ele><time>2026-04-04T15:37:32Z</time></trkpt><trkpt lat="39.229475774146614" lon="9.321906005702084"><ele>63.0</ele><time>2026-04-04T15:37:33Z</time></trkpt><trkpt lat="39.22962968742571" lon="9.321757194065503"><ele>63.0</ele><time>2026-04-04T15:37:34Z</time></trkpt><trkpt lat="39.22978765142466" lon="9.321609667692687"><ele>63.0</ele><time>2026-04-04T15:37:35Z</time></trkpt><trkpt lat="39.229964220051336" lon="9.321458253715148"><ele>63.0</ele><time>2026-04-04T15:37:36Z</time></trkpt><trkpt lat="39.23016367386517" lon="9.321303959226722"><ele>66.5</ele><time>2026-04-04T15:37:37Z</time></trkpt><trkpt lat="39.230385979765096" lon="9.321156008297509"><ele>70.0</ele><time>2026-04-04T15:37:38Z</time></trkpt><trkpt lat="39.23062430602815" lon="9.321021090237455"><ele>71.5</ele><time>2026-04-04T15:37:39Z</time></trkpt><trkpt lat="39.23087948055549" lon="9.32089946775277"><ele>73.0</ele><time>2026-04-04T15:37:40Z</time></trkpt><trkpt lat="39.23115026467554" lon="9.320795238566866"><ele>73.0</ele><time>2026-04-04T15:37:41Z</time></trkpt><trkpt lat="39.23143048687913" lon="9.320705399671478"><ele>73.0</ele><time>2026-04-04T15:37:42Z</time></trkpt><trkpt lat="39.23171676184647" lon="9.32061825473008"><ele>74.5</ele><time>2026-04-04T15:37:43Z</time></trkpt><trkpt lat="39.231997032425454" lon="9.320528589022398"><ele>76.0</ele><time>2026-04-04T15:37:44Z</time></trkpt><trkpt lat="39.23226267628409" lon="9.32044248357551"><ele>77.5</ele><time>2026-04-04T15:37:45Z</time></trkpt><trkpt lat="39.23252505206832" lon="9.320353388162285"><ele>79.0</ele><time>2026-04-04T15:37:46Z</time></trkpt><trkpt lat="39.23278585492007" lon="9.32026089023112"><ele>79.0</ele><time>2026-04-04T15:37:47Z</time></trkpt><trkpt lat="39.23304430808377" lon="9.320162991598702"><ele>79.0</ele><time>2026-04-04T15:37:48Z</time></trkpt><trkpt lat="39.2333108023627" lon="9.320052268328674"><ele>83.0</ele><time>2026-04-04T15:37:49Z</time></trkpt><trkpt lat="39.23357769534937" lon="9.319926747722928"><ele>87.0</ele><time>2026-04-04T15:37:50Z</time></trkpt><trkpt lat="39.23384493588142" lon="9.319787692243919"><ele>87.0</ele><time>2026-04-04T15:37:51Z</time></trkpt><trkpt lat="39.23411361593126" lon="9.319637943693067"><ele>87.0</ele><time>2026-04-04T15:37:52Z</time></trkpt><trkpt lat="39.23438132462544" lon="9.31947952337791"><ele>87.0</ele><time>2026-04-04T15:37:53Z</time></trkpt><trkpt lat="39.234648160987796" lon="9.319308375186026"><ele>87.0</ele><time>2026-04-04T15:37:54Z</time></trkpt><trkpt lat="39.23491044997421" lon="9.319124205833194"><ele>88.0</ele><time>2026-04-04T15:37:55Z</time></trkpt><trkpt lat="39.235153315587944" lon="9.318930636630913"><ele>89.0</ele><time>2026-04-04T15:37:56Z</time></trkpt><trkpt lat="39.23537857569613" lon="9.318727630676484"><ele>93.5</ele><time>2026-04-04T15:37:57Z</time></trkpt><trkpt lat="39.235593670879204" lon="9.318508600195766"><ele>98.0</ele><time>2026-04-04T15:37:58Z</time></trkpt><trkpt lat="39.23579377640232" lon="9.318274367025344"><ele>101.5</ele><time>2026-04-04T15:37:59Z</time></trkpt><trkpt lat="39.23597972285337" lon="9.318021982347066"><ele>105.0</ele><time>2026-04-04T15:38:00Z</time></trkpt><trkpt lat="39.236156510812364" lon="9.317750081318323"><ele>105.0</ele><time>2026-04-04T15:38:01Z</time></trkpt><trkpt lat="39.23632047001072" lon="9.317463335608236"><ele>105.0</ele><time>2026-04-04T15:38:02Z</time></trkpt><trkpt lat="39.236470440939954" lon="9.317163158897426"><ele>106.0</ele><time>2026-04-04T15:38:03Z</time></trkpt><trkpt lat="39.23660873067808" lon="9.316854029918474"><ele>107.0</ele><time>2026-04-04T15:38:04Z</time></trkpt><trkpt lat="39.23673527214584" lon="9.316533199920775"><ele>108.5</ele><time>2026-04-04T15:38:05Z</time></trkpt><trkpt lat="39.236846910943534" lon="9.316198844827193"><ele>110.0</ele><time>2026-04-04T15:38:06Z</time></trkpt><trkpt lat="39.236944035797784" lon="9.315852786205967"><ele>107.0</ele><time>2026-04-04T15:38:07Z</time></trkpt><trkpt lat="39.23702713835757" lon="9.315496579630722"><ele>104.0</ele><time>2026-04-04T15:38:08Z</time></trkpt><trkpt lat="39.237098261877776" lon="9.31513882611179"><ele>104.0</ele><time>2026-04-04T15:38:09Z</time></trkpt><trkpt lat="39.237155621528" lon="9.314776056907904"><ele>104.0</ele><time>2026-04-04T15:38:10Z</time></trkpt><trkpt lat="39.237204656877125" lon="9.314409801188694"><ele>101.5</ele><time>2026-04-04T15:38:11Z</time></trkpt><trkpt lat="39.23724862154565" lon="9.31404104966579"><ele>99.0</ele><time>2026-04-04T15:38:12Z</time></trkpt><trkpt lat="39.2372848770226" lon="9.313672474934952"><ele>100.5</ele><time>2026-04-04T15:38:13Z</time></trkpt><trkpt lat="39.23731423562437" lon="9.313309861399027"><ele>102.0</ele><time>2026-04-04T15:38:14Z</time></trkpt><trkpt lat="39.237335277100904" lon="9.312973156817174"><ele>102.0</ele><time>2026-04-04T15:38:15Z</time></trkpt><trkpt lat="39.23735569238915" lon="9.312642201177562"><ele>102.0</ele><time>2026-04-04T15:38:16Z</time></trkpt><trkpt lat="39.237376713438245" lon="9.312307999631342"><ele>101.5</ele><time>2026-04-04T15:38:17Z</time></trkpt><trkpt lat="39.23739678019441" lon="9.311969680468982"><ele>101.0</ele><time>2026-04-04T15:38:18Z</time></trkpt><trkpt lat="39.23741581140242" lon="9.311644513422298"><ele>98.0</ele><time>2026-04-04T15:38:19Z</time></trkpt><trkpt lat="39.23743688578723" lon="9.311311282293664"><ele>95.0</ele><time>2026-04-04T15:38:20Z</time></trkpt><trkpt lat="39.237456880592354" lon="9.310981749622478"><ele>86.0</ele><time>2026-04-04T15:38:21Z</time></trkpt><trkpt lat="39.23749653020234" lon="9.310316039701295"><ele>86.0</ele><time>2026-04-04T15:38:23Z</time></trkpt><trkpt lat="39.23751297852445" lon="9.3099957239784"><ele>86.0</ele><time>2026-04-04T15:38:24Z</time></trkpt><trkpt lat="39.23752870224523" lon="9.309690940555853"><ele>82.0</ele><time>2026-04-04T15:38:25Z</time></trkpt><trkpt lat="39.23754466823349" lon="9.309384818833266"><ele>78.0</ele><time>2026-04-04T15:38:26Z</time></trkpt><trkpt lat="39.23756256633042" lon="9.309077295106665"><ele>75.0</ele><time>2026-04-04T15:38:27Z</time></trkpt><trkpt lat="39.23758213709043" lon="9.308764264222757"><ele>72.0</ele><time>2026-04-04T15:38:28Z</time></trkpt><trkpt lat="39.23760265524603" lon="9.308446112869074"><ele>72.0</ele><time>2026-04-04T15:38:29Z</time></trkpt><trkpt lat="39.23762403569328" lon="9.308126468566808"><ele>72.0</ele><time>2026-04-04T15:38:30Z</time></trkpt><trkpt lat="39.23764706575033" lon="9.307809984574542"><ele>70.0</ele><time>2026-04-04T15:38:31Z</time></trkpt><trkpt lat="39.23767573312029" lon="9.307492208662321"><ele>68.0</ele><time>2026-04-04T15:38:32Z</time></trkpt><trkpt lat="39.237714648635915" lon="9.307174498745155"><ele>67.5</ele><time>2026-04-04T15:38:33Z</time></trkpt><trkpt lat="39.23776502015125" lon="9.30685930230211"><ele>67.0</ele><time>2026-04-04T15:38:34Z</time></trkpt><trkpt lat="39.23782531637481" lon="9.30656129898769"><ele>71.0</ele><time>2026-04-04T15:38:35Z</time></trkpt><trkpt lat="39.237895309382665" lon="9.306265348453657"><ele>75.0</ele><time>2026-04-04T15:38:36Z</time></trkpt><trkpt lat="39.23798151735118" lon="9.30596594450298"><ele>75.0</ele><time>2026-04-04T15:38:37Z</time></trkpt><trkpt lat="39.23807454249893" lon="9.305669135837581"><ele>75.0</ele><time>2026-04-04T15:38:38Z</time></trkpt><trkpt lat="39.23817239962556" lon="9.305375950855275"><ele>65.5</ele><time>2026-04-04T15:38:39Z</time></trkpt><trkpt lat="39.23826953668724" lon="9.30509347067149"><ele>56.0</ele><time>2026-04-04T15:38:40Z</time></trkpt><trkpt lat="39.23836551322116" lon="9.304826751600823"><ele>55.5</ele><time>2026-04-04T15:38:41Z</time></trkpt><trkpt lat="39.23846215004601" lon="9.30455722112443"><ele>55.0</ele><time>2026-04-04T15:38:42Z</time></trkpt><trkpt lat="39.23856033853699" lon="9.304284631162911"><ele>55.0</ele><time>2026-04-04T15:38:43Z</time></trkpt><trkpt lat="39.23865782622057" lon="9.304010546547666"><ele>55.0</ele><time>2026-04-04T15:38:44Z</time></trkpt><trkpt lat="39.23875429177751" lon="9.303736619268609"><ele>49.5</ele><time>2026-04-04T15:38:45Z</time></trkpt><trkpt lat="39.23885044060171" lon="9.303458093386016"><ele>44.0</ele><time>2026-04-04T15:38:46Z</time></trkpt><trkpt lat="39.23894129905508" lon="9.303173972676248"><ele>42.5</ele><time>2026-04-04T15:38:47Z</time></trkpt><trkpt lat="39.23902432904208" lon="9.302877592585363"><ele>41.0</ele><time>2026-04-04T15:38:48Z</time></trkpt><trkpt lat="39.23909807663369" lon="9.302574715346994"><ele>41.0</ele><time>2026-04-04T15:38:49.001Z</time></trkpt><trkpt lat="39.23916369040196" lon="9.302265295935921"><ele>41.0</ele><time>2026-04-04T15:38:50.001Z</time></trkpt><trkpt lat="39.2392217181505" lon="9.301948634112755"><ele>40.0</ele><time>2026-04-04T15:38:51.001Z</time></trkpt><trkpt lat="39.23927152325398" lon="9.301634112617077"><ele>39.0</ele><time>2026-04-04T15:38:52.001Z</time></trkpt><trkpt lat="39.239314834112236" lon="9.301317024197402"><ele>36.0</ele><time>2026-04-04T15:38:53.001Z</time></trkpt><trkpt lat="39.23935210440254" lon="9.300996492127313"><ele>33.0</ele><time>2026-04-04T15:38:54.001Z</time></trkpt><trkpt lat="39.239385390855894" lon="9.30067499959571"><ele>30.0</ele><time>2026-04-04T15:38:55.001Z</time></trkpt><trkpt lat="39.23941643557158" lon="9.300362379059687"><ele>27.0</ele><time>2026-04-04T15:38:56.001Z</time></trkpt><trkpt lat="39.239446693441764" lon="9.300061762614071"><ele>27.0</ele><time>2026-04-04T15:38:57.001Z</time></trkpt><trkpt lat="39.23947951443121" lon="9.29975754366951"><ele>27.0</ele><time>2026-04-04T15:38:58.001Z</time></trkpt><trkpt lat="39.23951452149701" lon="9.299446232593878"><ele>25.5</ele><time>2026-04-04T15:38:59.001Z</time></trkpt><trkpt lat="39.239550893440814" lon="9.299131703161303"><ele>24.0</ele><time>2026-04-04T15:39:00.001Z</time></trkpt><trkpt lat="39.239587294813155" lon="9.298818412647666"><ele>22.0</ele><time>2026-04-04T15:39:01.001Z</time></trkpt><trkpt lat="39.23962127666628" lon="9.298507165702675"><ele>20.0</ele><time>2026-04-04T15:39:02.001Z</time></trkpt><trkpt lat="39.23965607295785" lon="9.29819234600189"><ele>19.5</ele><time>2026-04-04T15:39:03.001Z</time></trkpt><trkpt lat="39.23969028380029" lon="9.297872807172045"><ele>19.0</ele><time>2026-04-04T15:39:04.001Z</time></trkpt><trkpt lat="39.23972367181705" lon="9.297546289081351"><ele>19.5</ele><time>2026-04-04T15:39:05.001Z</time></trkpt><trkpt lat="39.23975819024934" lon="9.297216911754871"><ele>20.0</ele><time>2026-04-04T15:39:06.001Z</time></trkpt><trkpt lat="39.23979377831565" lon="9.296885426083591"><ele>21.5</ele><time>2026-04-04T15:39:07.001Z</time></trkpt><trkpt lat="39.239831205217264" lon="9.296554937984615"><ele>23.0</ele><time>2026-04-04T15:39:08Z</time></trkpt><trkpt lat="39.23986792764885" lon="9.29622733019317"><ele>23.5</ele><time>2026-04-04T15:39:09Z</time></trkpt><trkpt lat="39.239904023461655" lon="9.295903392087524"><ele>24.0</ele><time>2026-04-04T15:39:10Z</time></trkpt><trkpt lat="39.23993833509153" lon="9.295587985917532"><ele>24.5</ele><time>2026-04-04T15:39:11Z</time></trkpt><trkpt lat="39.23997139389687" lon="9.295272768528077"><ele>25.0</ele><time>2026-04-04T15:39:12Z</time></trkpt><trkpt lat="39.24000377741856" lon="9.294960703149487"><ele>25.0</ele><time>2026-04-04T15:39:13Z</time></trkpt><trkpt lat="39.24003611820576" lon="9.294647781122281"><ele>25.0</ele><time>2026-04-04T15:39:14Z</time></trkpt><trkpt lat="39.24006879969103" lon="9.294340364922105"><ele>25.0</ele><time>2026-04-04T15:39:15Z</time></trkpt><trkpt lat="39.24010211050409" lon="9.294032145886396"><ele>25.0</ele><time>2026-04-04T15:39:16Z</time></trkpt><trkpt lat="39.24013552951529" lon="9.293730308728888"><ele>25.5</ele><time>2026-04-04T15:39:17Z</time></trkpt><trkpt lat="39.24017064419832" lon="9.293429684645472"><ele>26.0</ele><time>2026-04-04T15:39:18Z</time></trkpt><trkpt lat="39.24020911853265" lon="9.293135263346292"><ele>27.0</ele><time>2026-04-04T15:39:19Z</time></trkpt><trkpt lat="39.24024251747902" lon="9.29284084145039"><ele>28.0</ele><time>2026-04-04T15:39:20Z</time></trkpt><trkpt lat="39.240273250863" lon="9.292545538272886"><ele>31.0</ele><time>2026-04-04T15:39:21Z</time></trkpt><trkpt lat="39.24030093878503" lon="9.292254774579497"><ele>34.0</ele><time>2026-04-04T15:39:22Z</time></trkpt><trkpt lat="39.24032973584301" lon="9.29196852859678"><ele>34.0</ele><time>2026-04-04T15:39:23Z</time></trkpt><trkpt lat="39.24036569037203" lon="9.291677743241328"><ele>34.0</ele><time>2026-04-04T15:39:24Z</time></trkpt><trkpt lat="39.24040165678922" lon="9.291386649426633"><ele>37.0</ele><time>2026-04-04T15:39:25Z</time></trkpt><trkpt lat="39.24043347023864" lon="9.291092959249175"><ele>40.0</ele><time>2026-04-04T15:39:26Z</time></trkpt><trkpt lat="39.24046934835072" lon="9.29079501000831"><ele>40.5</ele><time>2026-04-04T15:39:27Z</time></trkpt><trkpt lat="39.24051396629233" lon="9.290493989905224"><ele>41.0</ele><time>2026-04-04T15:39:28Z</time></trkpt><trkpt lat="39.24056413300904" lon="9.290180577846812"><ele>41.0</ele><time>2026-04-04T15:39:29Z</time></trkpt><trkpt lat="39.24062443031178" lon="9.28984483668608"><ele>41.0</ele><time>2026-04-04T15:39:30Z</time></trkpt><trkpt lat="39.240698223166994" lon="9.28950015029795"><ele>42.5</ele><time>2026-04-04T15:39:31Z</time></trkpt><trkpt lat="39.24078770634294" lon="9.289148281611583"><ele>44.0</ele><time>2026-04-04T15:39:32Z</time></trkpt><trkpt lat="39.2408918806169" lon="9.288797611130018"><ele>44.0</ele><time>2026-04-04T15:39:33Z</time></trkpt><trkpt lat="39.2410058140432" lon="9.288481530896828"><ele>44.0</ele><time>2026-04-04T15:39:34Z</time></trkpt><trkpt lat="39.24112703483115" lon="9.288185281099198"><ele>45.0</ele><time>2026-04-04T15:39:35Z</time></trkpt><trkpt lat="39.241260623181695" lon="9.287894647793276"><ele>46.0</ele><time>2026-04-04T15:39:36Z</time></trkpt><trkpt lat="39.2414058694183" lon="9.287611931330805"><ele>46.0</ele><time>2026-04-04T15:39:37Z</time></trkpt><trkpt lat="39.241560438380404" lon="9.287347327131428"><ele>46.0</ele><time>2026-04-04T15:39:38Z</time></trkpt><trkpt lat="39.241720248571085" lon="9.287089928880462"><ele>44.5</ele><time>2026-04-04T15:39:39Z</time></trkpt><trkpt lat="39.241891084086646" lon="9.28683678037278"><ele>43.0</ele><time>2026-04-04T15:39:40Z</time></trkpt><trkpt lat="39.242077613893784" lon="9.286590279567594"><ele>41.5</ele><time>2026-04-04T15:39:41Z</time></trkpt><trkpt lat="39.24227807956486" lon="9.286349933642569"><ele>40.0</ele><time>2026-04-04T15:39:42Z</time></trkpt><trkpt lat="39.24248955588775" lon="9.286121748471574"><ele>40.0</ele><time>2026-04-04T15:39:43Z</time></trkpt><trkpt lat="39.242700302320756" lon="9.285918185279893"><ele>40.0</ele><time>2026-04-04T15:39:44Z</time></trkpt><trkpt lat="39.24290443203938" lon="9.285741892695162"><ele>39.5</ele><time>2026-04-04T15:39:45Z</time></trkpt><trkpt lat="39.243112516644004" lon="9.285578427949453"><ele>39.0</ele><time>2026-04-04T15:39:46Z</time></trkpt><trkpt lat="39.2433319806519" lon="9.285413963368836"><ele>39.0</ele><time>2026-04-04T15:39:47Z</time></trkpt><trkpt lat="39.243561256811624" lon="9.285256499332126"><ele>39.0</ele><time>2026-04-04T15:39:48Z</time></trkpt><trkpt lat="39.243796954522615" lon="9.285101946660054"><ele>41.5</ele><time>2026-04-04T15:39:49Z</time></trkpt><trkpt lat="39.24404132466352" lon="9.28494557079822"><ele>44.0</ele><time>2026-04-04T15:39:50Z</time></trkpt><trkpt lat="39.24427080801694" lon="9.284805531126402"><ele>38.5</ele><time>2026-04-04T15:39:51Z</time></trkpt><trkpt lat="39.244506028902734" lon="9.284669169937239"><ele>33.0</ele><time>2026-04-04T15:39:52Z</time></trkpt><trkpt lat="39.24474014274431" lon="9.28453317593623"><ele>32.5</ele><time>2026-04-04T15:39:53Z</time></trkpt><trkpt lat="39.24496730811767" lon="9.284395649708676"><ele>32.0</ele><time>2026-04-04T15:39:54Z</time></trkpt><trkpt lat="39.24519796395252" lon="9.2842555703865"><ele>32.0</ele><time>2026-04-04T15:39:55Z</time></trkpt><trkpt lat="39.24543191962952" lon="9.284115538824713"><ele>32.0</ele><time>2026-04-04T15:39:56Z</time></trkpt><trkpt lat="39.24566198206351" lon="9.283981093788222"><ele>31.0</ele><time>2026-04-04T15:39:57Z</time></trkpt><trkpt lat="39.245875082706775" lon="9.283850723369147"><ele>30.0</ele><time>2026-04-04T15:39:58Z</time></trkpt><trkpt lat="39.24609100595583" lon="9.28371054362323"><ele>30.0</ele><time>2026-04-04T15:39:59Z</time></trkpt><trkpt lat="39.24630529294875" lon="9.283556577745319"><ele>30.0</ele><time>2026-04-04T15:40:00Z</time></trkpt><trkpt lat="39.24652247192329" lon="9.283380505960153"><ele>31.5</ele><time>2026-04-04T15:40:01Z</time></trkpt><trkpt lat="39.24673469361021" lon="9.283188310214245"><ele>33.0</ele><time>2026-04-04T15:40:02Z</time></trkpt><trkpt lat="39.24694158472912" lon="9.282981150663467"><ele>33.0</ele><time>2026-04-04T15:40:03Z</time></trkpt><trkpt lat="39.247141095811166" lon="9.282763772789773"><ele>33.0</ele><time>2026-04-04T15:40:04Z</time></trkpt><trkpt lat="39.24733955568359" lon="9.282527066529529"><ele>33.5</ele><time>2026-04-04T15:40:05Z</time></trkpt><trkpt lat="39.24752986118361" lon="9.282283665860781"><ele>34.0</ele><time>2026-04-04T15:40:06Z</time></trkpt><trkpt lat="39.24770645561088" lon="9.282055856275479"><ele>35.0</ele><time>2026-04-04T15:40:07Z</time></trkpt><trkpt lat="39.24787228859179" lon="9.281835533554295"><ele>36.0</ele><time>2026-04-04T15:40:08Z</time></trkpt><trkpt lat="39.24804222667049" lon="9.281613509154498"><ele>36.5</ele><time>2026-04-04T15:40:09Z</time></trkpt><trkpt lat="39.24821816336301" lon="9.281382172710867"><ele>37.0</ele><time>2026-04-04T15:40:10Z</time></trkpt><trkpt lat="39.24839598972348" lon="9.281149290572646"><ele>37.0</ele><time>2026-04-04T15:40:11Z</time></trkpt><trkpt lat="39.2485816515773" lon="9.280906140256137"><ele>37.0</ele><time>2026-04-04T15:40:12Z</time></trkpt><trkpt lat="39.24876572421949" lon="9.280663030627835"><ele>37.5</ele><time>2026-04-04T15:40:13Z</time></trkpt><trkpt lat="39.24894410024501" lon="9.280429968584688"><ele>38.0</ele><time>2026-04-04T15:40:14Z</time></trkpt><trkpt lat="39.249122302432816" lon="9.280195738053992"><ele>38.0</ele><time>2026-04-04T15:40:15Z</time></trkpt><trkpt lat="39.24930256445733" lon="9.27995930960246"><ele>38.0</ele><time>2026-04-04T15:40:16Z</time></trkpt><trkpt lat="39.249483732311525" lon="9.279722109294807"><ele>38.0</ele><time>2026-04-04T15:40:17Z</time></trkpt><trkpt lat="39.24966072657721" lon="9.27948457376432"><ele>38.0</ele><time>2026-04-04T15:40:18Z</time></trkpt><trkpt lat="39.24983822956628" lon="9.279243727068783"><ele>38.5</ele><time>2026-04-04T15:40:19Z</time></trkpt><trkpt lat="39.25001261650223" lon="9.279003810807536"><ele>39.0</ele><time>2026-04-04T15:40:20Z</time></trkpt><trkpt lat="39.25018567882383" lon="9.278766860687355"><ele>39.0</ele><time>2026-04-04T15:40:21Z</time></trkpt><trkpt lat="39.25034998136724" lon="9.278539423101243"><ele>39.0</ele><time>2026-04-04T15:40:22Z</time></trkpt><trkpt lat="39.25051579069284" lon="9.278302001492786"><ele>39.5</ele><time>2026-04-04T15:40:23Z</time></trkpt><trkpt lat="39.250683729090134" lon="9.278055531683066"><ele>40.0</ele><time>2026-04-04T15:40:24Z</time></trkpt><trkpt lat="39.2508526942953" lon="9.277800224489974"><ele>40.0</ele><time>2026-04-04T15:40:25Z</time></trkpt><trkpt lat="39.25101950748806" lon="9.277545923934776"><ele>40.0</ele><time>2026-04-04T15:40:26Z</time></trkpt><trkpt lat="39.25117593518645" lon="9.277300580548086"><ele>40.5</ele><time>2026-04-04T15:40:27Z</time></trkpt><trkpt lat="39.25132798990775" lon="9.277056946931905"><ele>41.0</ele><time>2026-04-04T15:40:28Z</time></trkpt><trkpt lat="39.251478797926566" lon="9.276808467424805"><ele>41.0</ele><time>2026-04-04T15:40:29Z</time></trkpt><trkpt lat="39.25163400528755" lon="9.276549719246255"><ele>41.0</ele><time>2026-04-04T15:40:30Z</time></trkpt><trkpt lat="39.25179002471703" lon="9.276292764234531"><ele>39.5</ele><time>2026-04-04T15:40:31Z</time></trkpt><trkpt lat="39.25195009852044" lon="9.276030686556242"><ele>38.0</ele><time>2026-04-04T15:40:32Z</time></trkpt><trkpt lat="39.25210613256758" lon="9.275772663845174"><ele>39.5</ele><time>2026-04-04T15:40:33Z</time></trkpt><trkpt lat="39.252259856515124" lon="9.275517360703526"><ele>41.0</ele><time>2026-04-04T15:40:34Z</time></trkpt><trkpt lat="39.25241389337164" lon="9.27526390073964"><ele>41.5</ele><time>2026-04-04T15:40:35Z</time></trkpt><trkpt lat="39.25257019234362" lon="9.275008175300002"><ele>42.0</ele><time>2026-04-04T15:40:36Z</time></trkpt><trkpt lat="39.25272687205444" lon="9.274751807440804"><ele>43.5</ele><time>2026-04-04T15:40:37Z</time></trkpt><trkpt lat="39.25288209640942" lon="9.274495049402484"><ele>45.0</ele><time>2026-04-04T15:40:38Z</time></trkpt><trkpt lat="39.253039013998" lon="9.274235986857953"><ele>45.0</ele><time>2026-04-04T15:40:39Z</time></trkpt><trkpt lat="39.25319662923633" lon="9.2739757724291"><ele>45.0</ele><time>2026-04-04T15:40:40Z</time></trkpt><trkpt lat="39.25335323557862" lon="9.273713524769423"><ele>45.0</ele><time>2026-04-04T15:40:41Z</time></trkpt><trkpt lat="39.25350930424993" lon="9.273450727353918"><ele>45.0</ele><time>2026-04-04T15:40:42Z</time></trkpt><trkpt lat="39.25366644045403" lon="9.273189300855513"><ele>45.0</ele><time>2026-04-04T15:40:43Z</time></trkpt><trkpt lat="39.2538319942331" lon="9.272931575176615"><ele>45.0</ele><time>2026-04-04T15:40:44Z</time></trkpt><trkpt lat="39.253967479952095" lon="9.272691306709705"><ele>45.0</ele><time>2026-04-04T15:40:45Z</time></trkpt><trkpt lat="39.25410999293017" lon="9.2724483593925"><ele>45.0</ele><time>2026-04-04T15:40:46Z</time></trkpt><trkpt lat="39.254255771272426" lon="9.272200480600178"><ele>45.5</ele><time>2026-04-04T15:40:47Z</time></trkpt><trkpt lat="39.254404276617" lon="9.271941870044408"><ele>46.0</ele><time>2026-04-04T15:40:48Z</time></trkpt><trkpt lat="39.254551300269135" lon="9.271673868985141"><ele>46.0</ele><time>2026-04-04T15:40:49Z</time></trkpt><trkpt lat="39.25469346412992" lon="9.271397160789805"><ele>46.0</ele><time>2026-04-04T15:40:50Z</time></trkpt><trkpt lat="39.254828019743734" lon="9.271117071690943"><ele>47.0</ele><time>2026-04-04T15:40:51Z</time></trkpt><trkpt lat="39.25495260197757" lon="9.270826640611928"><ele>48.0</ele><time>2026-04-04T15:40:52Z</time></trkpt><trkpt lat="39.255070325041" lon="9.270539834099164"><ele>48.0</ele><time>2026-04-04T15:40:53Z</time></trkpt><trkpt lat="39.25518222982542" lon="9.270249237292543"><ele>48.0</ele><time>2026-04-04T15:40:54Z</time></trkpt><trkpt lat="39.255288444603934" lon="9.269954728603038"><ele>48.5</ele><time>2026-04-04T15:40:55Z</time></trkpt><trkpt lat="39.25539179595474" lon="9.26965889760208"><ele>49.0</ele><time>2026-04-04T15:40:56Z</time></trkpt><trkpt lat="39.25549434470227" lon="9.269361513796033"><ele>49.0</ele><time>2026-04-04T15:40:57Z</time></trkpt><trkpt lat="39.25559324349551" lon="9.269065544138822"><ele>49.0</ele><time>2026-04-04T15:40:58Z</time></trkpt><trkpt lat="39.255692322951006" lon="9.268777521797338"><ele>50.5</ele><time>2026-04-04T15:40:59Z</time></trkpt><trkpt lat="39.25578769762854" lon="9.26851129449748"><ele>52.0</ele><time>2026-04-04T15:41:00Z</time></trkpt><trkpt lat="39.25588277446924" lon="9.268243097141324"><ele>54.0</ele><time>2026-04-04T15:41:01Z</time></trkpt><trkpt lat="39.25607316649889" lon="9.267688607268992"><ele>54.0</ele><time>2026-04-04T15:41:03Z</time></trkpt><trkpt lat="39.256173266181705" lon="9.26740081320394"><ele>54.0</ele><time>2026-04-04T15:41:04Z</time></trkpt><trkpt lat="39.256275676335235" lon="9.267105310467164"><ele>55.0</ele><time>2026-04-04T15:41:05Z</time></trkpt><trkpt lat="39.256377609243486" lon="9.266812640498921"><ele>56.0</ele><time>2026-04-04T15:41:06Z</time></trkpt><trkpt lat="39.25647937440649" lon="9.266521610748573"><ele>58.0</ele><time>2026-04-04T15:41:07Z</time></trkpt><trkpt lat="39.25658260431595" lon="9.266227515913439"><ele>60.0</ele><time>2026-04-04T15:41:08Z</time></trkpt><trkpt lat="39.256681914574784" lon="9.265944663275006"><ele>60.0</ele><time>2026-04-04T15:41:09Z</time></trkpt><trkpt lat="39.25677596903111" lon="9.265670706378634"><ele>60.0</ele><time>2026-04-04T15:41:10Z</time></trkpt><trkpt lat="39.25686827825142" lon="9.265396974797044"><ele>61.0</ele><time>2026-04-04T15:41:11Z</time></trkpt><trkpt lat="39.25696191790723" lon="9.26512427500121"><ele>62.0</ele><time>2026-04-04T15:41:12Z</time></trkpt><trkpt lat="39.25705709169674" lon="9.264847176793845"><ele>62.5</ele><time>2026-04-04T15:41:13Z</time></trkpt><trkpt lat="39.257156184507885" lon="9.264564733423908"><ele>63.0</ele><time>2026-04-04T15:41:14Z</time></trkpt><trkpt lat="39.257255749691545" lon="9.2642744577283"><ele>63.5</ele><time>2026-04-04T15:41:15Z</time></trkpt><trkpt lat="39.25735786436002" lon="9.263976078340104"><ele>64.0</ele><time>2026-04-04T15:41:16Z</time></trkpt><trkpt lat="39.257462226599564" lon="9.263674883565184"><ele>64.0</ele><time>2026-04-04T15:41:17Z</time></trkpt><trkpt lat="39.257567122127384" lon="9.263367590176713"><ele>64.0</ele><time>2026-04-04T15:41:18Z</time></trkpt><trkpt lat="39.257673217534325" lon="9.26305919974775"><ele>65.0</ele><time>2026-04-04T15:41:19Z</time></trkpt><trkpt lat="39.2577828585862" lon="9.262745767404622"><ele>66.0</ele><time>2026-04-04T15:41:20Z</time></trkpt><trkpt lat="39.257890249801406" lon="9.262440249143967"><ele>65.5</ele><time>2026-04-04T15:41:21Z</time></trkpt><trkpt lat="39.257995337690886" lon="9.262148797166688"><ele>65.0</ele><time>2026-04-04T15:41:22Z</time></trkpt><trkpt lat="39.25809766104357" lon="9.26186075441416"><ele>65.0</ele><time>2026-04-04T15:41:23Z</time></trkpt><trkpt lat="39.25819887288026" lon="9.261572869043128"><ele>65.0</ele><time>2026-04-04T15:41:24Z</time></trkpt><trkpt lat="39.25829324237831" lon="9.261302681855769"><ele>65.33333333333334</ele><time>2026-04-04T15:41:25Z</time></trkpt><trkpt lat="39.25837883950676" lon="9.26105474470823"><ele>65.66666666666667</ele><time>2026-04-04T15:41:26Z</time></trkpt><trkpt lat="39.258460752157376" lon="9.260818561880235"><ele>66.0</ele><time>2026-04-04T15:41:27Z</time></trkpt><trkpt lat="39.25854344610463" lon="9.260578387615487"><ele>66.66666666666667</ele><time>2026-04-04T15:41:28Z</time></trkpt><trkpt lat="39.258628527738956" lon="9.26032898292629"><ele>67.33333333333334</ele><time>2026-04-04T15:41:29Z</time></trkpt><trkpt lat="39.258713380888246" lon="9.260082651365787"><ele>68.0</ele><time>2026-04-04T15:41:30Z</time></trkpt><trkpt lat="39.258791059264766" lon="9.259859455438392"><ele>69.0</ele><time>2026-04-04T15:41:31Z</time></trkpt><trkpt lat="39.25886638067643" lon="9.259646794660812"><ele>70.0</ele><time>2026-04-04T15:41:32Z</time></trkpt><trkpt lat="39.2589365294887" lon="9.259448562152224"><ele>71.0</ele><time>2026-04-04T15:41:33Z</time></trkpt><trkpt lat="39.25900143861737" lon="9.259260798124512"><ele>71.25</ele><time>2026-04-04T15:41:34Z</time></trkpt><trkpt lat="39.2590615155603" lon="9.259088038128027"><ele>71.5</ele><time>2026-04-04T15:41:35Z</time></trkpt><trkpt lat="39.2591194241253" lon="9.258931520019201"><ele>71.75</ele><time>2026-04-04T15:41:36Z</time></trkpt><trkpt lat="39.25918160364777" lon="9.258794944599462"><ele>72.0</ele><time>2026-04-04T15:41:37Z</time></trkpt><trkpt lat="39.25925148657146" lon="9.258675438074139"><ele>72.4</ele><time>2026-04-04T15:41:38Z</time></trkpt><trkpt lat="39.25933461013854" lon="9.258589155368892"><ele>72.80000000000001</ele><time>2026-04-04T15:41:39Z</time></trkpt><trkpt lat="39.25942407213341" lon="9.258513703500995"><ele>73.2</ele><time>2026-04-04T15:41:40Z</time></trkpt><trkpt lat="39.25952914396886" lon="9.258453570997894"><ele>73.60000000000001</ele><time>2026-04-04T15:41:41Z</time></trkpt><trkpt lat="39.259640029199836" lon="9.258440982561273"><ele>74.0</ele><time>2026-04-04T15:41:42Z</time></trkpt><trkpt lat="39.25974692420228" lon="9.25847369287463"><ele>74.75</ele><time>2026-04-04T15:41:43Z</time></trkpt><trkpt lat="39.259859519227945" lon="9.258527524148873"><ele>75.5</ele><time>2026-04-04T15:41:44Z</time></trkpt><trkpt lat="39.25998209046399" lon="9.258607424556919"><ele>76.25</ele><time>2026-04-04T15:41:45Z</time></trkpt><trkpt lat="39.26011333557237" lon="9.258705105754787"><ele>77.0</ele><time>2026-04-04T15:41:46Z</time></trkpt><trkpt lat="39.26021646600217" lon="9.25880216173905"><ele>77.0</ele><time>2026-04-04T15:41:47Z</time></trkpt><trkpt lat="39.26030247980179" lon="9.258911234348787"><ele>77.0</ele><time>2026-04-04T15:41:48Z</time></trkpt><trkpt lat="39.260371244192385" lon="9.259035565183419"><ele>77.0</ele><time>2026-04-04T15:41:49Z</time></trkpt><trkpt lat="39.260420322457705" lon="9.259177282791105"><ele>77.0</ele><time>2026-04-04T15:41:50Z</time></trkpt><trkpt lat="39.2604470100414" lon="9.259329518606211"><ele>76.4</ele><time>2026-04-04T15:41:51Z</time></trkpt><trkpt lat="39.26044753965417" lon="9.259478530878559"><ele>75.80000000000001</ele><time>2026-04-04T15:41:52Z</time></trkpt><trkpt lat="39.26042392881918" lon="9.25961783307192"><ele>75.2</ele><time>2026-04-04T15:41:53Z</time></trkpt><trkpt lat="39.26038153544765" lon="9.259745065393426"><ele>74.60000000000001</ele><time>2026-04-04T15:41:54Z</time></trkpt><trkpt lat="39.26031689002398" lon="9.2598689978679"><ele>74.0</ele><time>2026-04-04T15:41:55Z</time></trkpt><trkpt lat="39.26023730074324" lon="9.259972297288352"><ele>73.4</ele><time>2026-04-04T15:41:56Z</time></trkpt><trkpt lat="39.260148268253126" lon="9.260048731876637"><ele>72.80000000000001</ele><time>2026-04-04T15:41:57Z</time></trkpt><trkpt lat="39.26005408627047" lon="9.260099463947807"><ele>72.19999999999999</ele><time>2026-04-04T15:41:58Z</time></trkpt><trkpt lat="39.25996202758296" lon="9.260126079074485"><ele>71.6</ele><time>2026-04-04T15:41:59Z</time></trkpt><trkpt lat="39.25987184685167" lon="9.260139094435488"><ele>71.0</ele><time>2026-04-04T15:42:00Z</time></trkpt><trkpt lat="39.25977550706488" lon="9.260150819200726"><ele>70.83333333333334</ele><time>2026-04-04T15:42:01Z</time></trkpt><trkpt lat="39.259671948770524" lon="9.260163210327844"><ele>70.66666666666667</ele><time>2026-04-04T15:42:02Z</time></trkpt><trkpt lat="39.25958049154877" lon="9.26017106435709"><ele>70.5</ele><time>2026-04-04T15:42:03Z</time></trkpt><trkpt lat="39.25949226874473" lon="9.26017269267958"><ele>70.33333333333333</ele><time>2026-04-04T15:42:04Z</time></trkpt><trkpt lat="39.25941111204472" lon="9.260169809327671"><ele>70.16666666666666</ele><time>2026-04-04T15:42:05Z</time></trkpt><trkpt lat="39.25933594902525" lon="9.2601600280469"><ele>70.0</ele><time>2026-04-04T15:42:06Z</time></trkpt><trkpt lat="39.25926995801242" lon="9.26013727287723"><ele>70.0</ele><time>2026-04-04T15:42:07Z</time></trkpt><trkpt lat="39.25917530678804" lon="9.260056702111665"><ele>70.0</ele><time>2026-04-04T15:42:09Z</time></trkpt><trkpt lat="39.259129406061646" lon="9.259938754773913"><ele>70.0</ele><time>2026-04-04T15:42:11Z</time></trkpt><trkpt lat="39.25911570441278" lon="9.259844151948252"><ele>70.0</ele><time>2026-04-04T15:42:12Z</time></trkpt><trkpt lat="39.259105725702334" lon="9.259728104384415"><ele>70.0</ele><time>2026-04-04T15:42:13Z</time></trkpt><trkpt lat="39.25909126893558" lon="9.259577528772681"><ele>70.5</ele><time>2026-04-04T15:42:14Z</time></trkpt><trkpt lat="39.25907771321815" lon="9.259423313862278"><ele>71.0</ele><time>2026-04-04T15:42:15Z</time></trkpt><trkpt lat="39.259065491740124" lon="9.259281725093938"><ele>71.5</ele><time>2026-04-04T15:42:16Z</time></trkpt><trkpt lat="39.25905153465377" lon="9.259117528465461"><ele>72.0</ele><time>2026-04-04T15:42:17Z</time></trkpt><trkpt lat="39.25903986620551" lon="9.258946480602768"><ele>72.5</ele><time>2026-04-04T15:42:18Z</time></trkpt><trkpt lat="39.259031825007646" lon="9.258784278950259"><ele>73.0</ele><time>2026-04-04T15:42:19Z</time></trkpt><trkpt lat="39.259026802661154" lon="9.258628137697608"><ele>73.5</ele><time>2026-04-04T15:42:20Z</time></trkpt><trkpt lat="39.25902097975724" lon="9.258488890240749"><ele>74.0</ele><time>2026-04-04T15:42:21Z</time></trkpt><trkpt lat="39.25900570340674" lon="9.25835356369131"><ele>74.0</ele><time>2026-04-04T15:42:22Z</time></trkpt><trkpt lat="39.2589990132819" lon="9.25819581434246"><ele>74.0</ele><time>2026-04-04T15:42:23Z</time></trkpt><trkpt lat="39.25900595261087" lon="9.258032677024273"><ele>74.0</ele><time>2026-04-04T15:42:24Z</time></trkpt><trkpt lat="39.25901923585429" lon="9.257860571204128"><ele>74.0</ele><time>2026-04-04T15:42:25Z</time></trkpt><trkpt lat="39.259037108606535" lon="9.25768333700343"><ele>74.33333333333334</ele><time>2026-04-04T15:42:26Z</time></trkpt><trkpt lat="39.25908918017327" lon="9.257498743786483"><ele>74.66666666666667</ele><time>2026-04-04T15:42:27Z</time></trkpt><trkpt lat="39.259142325098054" lon="9.257269843636363"><ele>75.0</ele><time>2026-04-04T15:42:28Z</time></trkpt><trkpt lat="39.25920369817158" lon="9.257009181609545"><ele>74.0</ele><time>2026-04-04T15:42:29Z</time></trkpt><trkpt lat="39.25925147003961" lon="9.256749511125669"><ele>73.0</ele><time>2026-04-04T15:42:30Z</time></trkpt><trkpt lat="39.259313699175856" lon="9.256499065848798"><ele>72.0</ele><time>2026-04-04T15:42:31Z</time></trkpt><trkpt lat="39.25937393204004" lon="9.25624487224712"><ele>71.66666666666667</ele><time>2026-04-04T15:42:32Z</time></trkpt><trkpt lat="39.25942989424868" lon="9.256010633303227"><ele>71.33333333333334</ele><time>2026-04-04T15:42:33Z</time></trkpt><trkpt lat="39.25948322146361" lon="9.25579579966066"><ele>71.0</ele><time>2026-04-04T15:42:34Z</time></trkpt><trkpt lat="39.25953388624355" lon="9.255584355441929"><ele>70.66666666666667</ele><time>2026-04-04T15:42:35Z</time></trkpt><trkpt lat="39.259583824067334" lon="9.255374368195163"><ele>70.33333333333333</ele><time>2026-04-04T15:42:36Z</time></trkpt><trkpt lat="39.259632168053884" lon="9.255179940412862"><ele>70.0</ele><time>2026-04-04T15:42:37Z</time></trkpt><trkpt lat="39.25969032931977" lon="9.255000183731337"><ele>70.0</ele><time>2026-04-04T15:42:38Z</time></trkpt><trkpt lat="39.25976508177974" lon="9.254819681379928"><ele>70.0</ele><time>2026-04-04T15:42:39Z</time></trkpt><trkpt lat="39.25985353432893" lon="9.254645219966775"><ele>70.0</ele><time>2026-04-04T15:42:40Z</time></trkpt><trkpt lat="39.259945766111635" lon="9.254494018418521"><ele>69.66666666666666</ele><time>2026-04-04T15:42:41Z</time></trkpt><trkpt lat="39.26004333144949" lon="9.25435435283402"><ele>69.33333333333333</ele><time>2026-04-04T15:42:42Z</time></trkpt><trkpt lat="39.260151168839975" lon="9.254212747661862"><ele>69.0</ele><time>2026-04-04T15:42:43Z</time></trkpt><trkpt lat="39.260269155355545" lon="9.254070460763964"><ele>68.66666666666667</ele><time>2026-04-04T15:42:44Z</time></trkpt><trkpt lat="39.26039681551614" lon="9.25392233895515"><ele>68.33333333333334</ele><time>2026-04-04T15:42:45Z</time></trkpt><trkpt lat="39.26052197113356" lon="9.253773992623984"><ele>68.0</ele><time>2026-04-04T15:42:46Z</time></trkpt><trkpt lat="39.26064942213732" lon="9.253623096651884"><ele>68.0</ele><time>2026-04-04T15:42:47Z</time></trkpt><trkpt lat="39.26077038672774" lon="9.253481970055638"><ele>68.0</ele><time>2026-04-04T15:42:48Z</time></trkpt><trkpt lat="39.26089162895229" lon="9.253340580205599"><ele>68.0</ele><time>2026-04-04T15:42:49Z</time></trkpt><trkpt lat="39.26101986899156" lon="9.25319328014382"><ele>66.0</ele><time>2026-04-04T15:42:50Z</time></trkpt><trkpt lat="39.26115339704729" lon="9.253039569258439"><ele>64.0</ele><time>2026-04-04T15:42:51Z</time></trkpt><trkpt lat="39.261291205412924" lon="9.252877193756081"><ele>62.0</ele><time>2026-04-04T15:42:52Z</time></trkpt><trkpt lat="39.26143215426356" lon="9.252710932941117"><ele>62.333333333333336</ele><time>2026-04-04T15:42:52.999Z</time></trkpt><trkpt lat="39.261567996407486" lon="9.252548909054548"><ele>62.66666666666667</ele><time>2026-04-04T15:42:53.999Z</time></trkpt><trkpt lat="39.26169337973369" lon="9.25240130375902"><ele>63.0</ele><time>2026-04-04T15:42:54.999Z</time></trkpt><trkpt lat="39.2618183915081" lon="9.2522586740946"><ele>63.66666666666667</ele><time>2026-04-04T15:42:55.999Z</time></trkpt><trkpt lat="39.26195232057878" lon="9.252106298838914"><ele>64.33333333333334</ele><time>2026-04-04T15:42:56.999Z</time></trkpt><trkpt lat="39.26206959545515" lon="9.251957064405508"><ele>65.0</ele><time>2026-04-04T15:42:57.999Z</time></trkpt><trkpt lat="39.262181654551874" lon="9.251803469963853"><ele>62.66666666666667</ele><time>2026-04-04T15:42:58.999Z</time></trkpt><trkpt lat="39.26229109693344" lon="9.25163212953848"><ele>60.33333333333333</ele><time>2026-04-04T15:42:59.999Z</time></trkpt><trkpt lat="39.26237924296519" lon="9.25143477364764"><ele>58.0</ele><time>2026-04-04T15:43:01Z</time></trkpt><trkpt lat="39.262466225789076" lon="9.25124243630809"><ele>58.0</ele><time>2026-04-04T15:43:02Z</time></trkpt><trkpt lat="39.26251417272445" lon="9.251010868559883"><ele>58.0</ele><time>2026-04-04T15:43:03Z</time></trkpt><trkpt lat="39.26257007774978" lon="9.250771799405111"><ele>58.0</ele><time>2026-04-04T15:43:04Z</time></trkpt><trkpt lat="39.26262153743764" lon="9.250532329520723"><ele>58.0</ele><time>2026-04-04T15:43:05Z</time></trkpt><trkpt lat="39.26267785346347" lon="9.25028979911855"><ele>58.0</ele><time>2026-04-04T15:43:06Z</time></trkpt><trkpt lat="39.26273617228337" lon="9.250028878135302"><ele>58.0</ele><time>2026-04-04T15:43:07Z</time></trkpt><trkpt lat="39.262809231944665" lon="9.249782830012933"><ele>56.0</ele><time>2026-04-04T15:43:08Z</time></trkpt><trkpt lat="39.26284593796681" lon="9.249549898250523"><ele>54.0</ele><time>2026-04-04T15:43:09Z</time></trkpt><trkpt lat="39.26289819718456" lon="9.24933344741665"><ele>52.0</ele><time>2026-04-04T15:43:10Z</time></trkpt><trkpt lat="39.26294677479924" lon="9.249123967960875"><ele>51.666666666666664</ele><time>2026-04-04T15:43:11Z</time></trkpt><trkpt lat="39.26299502045661" lon="9.248914781436811"><ele>51.33333333333333</ele><time>2026-04-04T15:43:12Z</time></trkpt><trkpt lat="39.26304710642957" lon="9.248696932851875"><ele>51.0</ele><time>2026-04-04T15:43:13Z</time></trkpt><trkpt lat="39.26309638295917" lon="9.248480314334236"><ele>50.33333333333333</ele><time>2026-04-04T15:43:14Z</time></trkpt><trkpt lat="39.2631510493697" lon="9.248255895536138"><ele>49.666666666666664</ele><time>2026-04-04T15:43:15Z</time></trkpt><trkpt lat="39.2632070503757" lon="9.248040397524177"><ele>49.0</ele><time>2026-04-04T15:43:16Z</time></trkpt><trkpt lat="39.263224383408776" lon="9.247822106783072"><ele>49.0</ele><time>2026-04-04T15:43:17Z</time></trkpt><trkpt lat="39.26324517328976" lon="9.247600260715082"><ele>49.0</ele><time>2026-04-04T15:43:18Z</time></trkpt><trkpt lat="39.26324690977782" lon="9.247367025769321"><ele>49.0</ele><time>2026-04-04T15:43:19Z</time></trkpt><trkpt lat="39.26322822716486" lon="9.247132781316717"><ele>49.33333333333333</ele><time>2026-04-04T15:43:20Z</time></trkpt><trkpt lat="39.26319512391842" lon="9.246899090212352"><ele>49.66666666666667</ele><time>2026-04-04T15:43:21Z</time></trkpt><trkpt lat="39.26315605032875" lon="9.246662571267553"><ele>50.0</ele><time>2026-04-04T15:43:22Z</time></trkpt><trkpt lat="39.263140321533" lon="9.24641720135043"><ele>49.333333333333336</ele><time>2026-04-04T15:43:23Z</time></trkpt><trkpt lat="39.26310905215521" lon="9.246170088754308"><ele>48.66666666666667</ele><time>2026-04-04T15:43:24Z</time></trkpt><trkpt lat="39.26305021502593" lon="9.245930141911012"><ele>48.0</ele><time>2026-04-04T15:43:25Z</time></trkpt><trkpt lat="39.26302085137465" lon="9.24570683174997"><ele>47.0</ele><time>2026-04-04T15:43:26Z</time></trkpt><trkpt lat="39.26299155888158" lon="9.245493903114758"><ele>46.0</ele><time>2026-04-04T15:43:27Z</time></trkpt><trkpt lat="39.26296619884291" lon="9.245289585728825"><ele>45.0</ele><time>2026-04-04T15:43:28Z</time></trkpt><trkpt lat="39.262960726007236" lon="9.245070530502751"><ele>45.0</ele><time>2026-04-04T15:43:29Z</time></trkpt><trkpt lat="39.2629316491248" lon="9.244848130359001"><ele>45.0</ele><time>2026-04-04T15:43:30Z</time></trkpt><trkpt lat="39.262901283619264" lon="9.244614168740979"><ele>45.0</ele><time>2026-04-04T15:43:31Z</time></trkpt><trkpt lat="39.262870101198786" lon="9.244373306160202"><ele>45.0</ele><time>2026-04-04T15:43:32Z</time></trkpt><trkpt lat="39.26283775913212" lon="9.244127497974377"><ele>45.0</ele><time>2026-04-04T15:43:33Z</time></trkpt><trkpt lat="39.262806541429924" lon="9.243891418367234"><ele>45.0</ele><time>2026-04-04T15:43:34Z</time></trkpt><trkpt lat="39.262772337524716" lon="9.243632756003953"><ele>45.0</ele><time>2026-04-04T15:43:35Z</time></trkpt><trkpt lat="39.2627334650268" lon="9.24333878804908"><ele>45.0</ele><time>2026-04-04T15:43:36Z</time></trkpt><trkpt lat="39.26269260950767" lon="9.243022756660782"><ele>44.0</ele><time>2026-04-04T15:43:37Z</time></trkpt><trkpt lat="39.26264672473934" lon="9.24266588034962"><ele>43.0</ele><time>2026-04-04T15:43:38Z</time></trkpt><trkpt lat="39.26260117121812" lon="9.242306271845381"><ele>43.0</ele><time>2026-04-04T15:43:39Z</time></trkpt><trkpt lat="39.26255420253214" lon="9.241940445564383"><ele>43.0</ele><time>2026-04-04T15:43:40Z</time></trkpt><trkpt lat="39.262511379156145" lon="9.241605314800411"><ele>43.0</ele><time>2026-04-04T15:43:41Z</time></trkpt><trkpt lat="39.262455596493076" lon="9.241351104821865"><ele>43.0</ele><time>2026-04-04T15:43:42Z</time></trkpt><trkpt lat="39.26242739730003" lon="9.241138899993564"><ele>43.0</ele><time>2026-04-04T15:43:43Z</time></trkpt><trkpt lat="39.26240267704607" lon="9.240943850634205"><ele>43.0</ele><time>2026-04-04T15:43:44Z</time></trkpt><trkpt lat="39.26237648736392" lon="9.240763182780684"><ele>43.0</ele><time>2026-04-04T15:43:45Z</time></trkpt><trkpt lat="39.26238080023462" lon="9.240579407087967"><ele>43.0</ele><time>2026-04-04T15:43:46Z</time></trkpt><trkpt lat="39.262359601147736" lon="9.240412458902043"><ele>43.0</ele><time>2026-04-04T15:43:47Z</time></trkpt><trkpt lat="39.26233782115313" lon="9.240249415084854"><ele>43.0</ele><time>2026-04-04T15:43:48Z</time></trkpt><trkpt lat="39.26231543649288" lon="9.240085060828822"><ele>43.0</ele><time>2026-04-04T15:43:49Z</time></trkpt><trkpt lat="39.262296026775395" lon="9.239942549419725"><ele>43.0</ele><time>2026-04-04T15:43:50Z</time></trkpt><trkpt lat="39.26227693017461" lon="9.239799680283886"><ele>43.0</ele><time>2026-04-04T15:43:51Z</time></trkpt><trkpt lat="39.262258247163516" lon="9.239656644657545"><ele>42.4</ele><time>2026-04-04T15:43:52Z</time></trkpt><trkpt lat="39.26224078016846" lon="9.23953054638916"><ele>41.8</ele><time>2026-04-04T15:43:53Z</time></trkpt><trkpt lat="39.26220879096057" lon="9.239417235313924"><ele>41.2</ele><time>2026-04-04T15:43:54Z</time></trkpt><trkpt lat="39.262196115567804" lon="9.239320925646458"><ele>40.6</ele><time>2026-04-04T15:43:55Z</time></trkpt><trkpt lat="39.26218046841624" lon="9.239199743522382"><ele>40.0</ele><time>2026-04-04T15:43:57Z</time></trkpt><trkpt lat="39.26217627725829" lon="9.23908747325932"><ele>40.333333333333336</ele><time>2026-04-04T15:43:59Z</time></trkpt><trkpt lat="39.26218205931556" lon="9.238962035220325"><ele>40.66666666666667</ele><time>2026-04-04T15:44:01Z</time></trkpt><trkpt lat="39.26219507460873" lon="9.238879095371475"><ele>41.0</ele><time>2026-04-04T15:44:03Z</time></trkpt><trkpt lat="39.26222584027802" lon="9.238754399744845"><ele>41.333333333333336</ele><time>2026-04-04T15:44:05Z</time></trkpt><trkpt lat="39.26223329723098" lon="9.238662923933326"><ele>41.666666666666664</ele><time>2026-04-04T15:44:06Z</time></trkpt><trkpt lat="39.26221003651385" lon="9.238565781291832"><ele>42.0</ele><time>2026-04-04T15:44:07Z</time></trkpt><trkpt lat="39.26215324759768" lon="9.238477629682412"><ele>42.0</ele><time>2026-04-04T15:44:08Z</time></trkpt><trkpt lat="39.262090658316886" lon="9.238370346502968"><ele>42.0</ele><time>2026-04-04T15:44:09Z</time></trkpt><trkpt lat="39.26205170693227" lon="9.238224120220314"><ele>42.0</ele><time>2026-04-04T15:44:10Z</time></trkpt><trkpt lat="39.262052890172654" lon="9.238049119373267"><ele>42.0</ele><time>2026-04-04T15:44:11Z</time></trkpt><trkpt lat="39.26202081687569" lon="9.237897696203454"><ele>42.5</ele><time>2026-04-04T15:44:12Z</time></trkpt><trkpt lat="39.262019129681875" lon="9.237733319856215"><ele>43.0</ele><time>2026-04-04T15:44:13Z</time></trkpt><trkpt lat="39.26199923418008" lon="9.237559507041178"><ele>43.5</ele><time>2026-04-04T15:44:14Z</time></trkpt><trkpt lat="39.26197602360508" lon="9.237376357408007"><ele>44.0</ele><time>2026-04-04T15:44:15Z</time></trkpt><trkpt lat="39.261951471955435" lon="9.2371876763687"><ele>44.0</ele><time>2026-04-04T15:44:16Z</time></trkpt><trkpt lat="39.26192346396503" lon="9.236987940500903"><ele>44.0</ele><time>2026-04-04T15:44:17Z</time></trkpt><trkpt lat="39.26189351045593" lon="9.236773558412276"><ele>44.0</ele><time>2026-04-04T15:44:18Z</time></trkpt><trkpt lat="39.26186586661458" lon="9.236571978692465"><ele>44.0</ele><time>2026-04-04T15:44:19Z</time></trkpt><trkpt lat="39.26182450276819" lon="9.236377288913323"><ele>44.0</ele><time>2026-04-04T15:44:20Z</time></trkpt><trkpt lat="39.261797055986186" lon="9.236166189443956"><ele>44.0</ele><time>2026-04-04T15:44:21Z</time></trkpt><trkpt lat="39.26176817896513" lon="9.235948480297878"><ele>44.0</ele><time>2026-04-04T15:44:22Z</time></trkpt><trkpt lat="39.26173909076744" lon="9.235720650652507"><ele>44.0</ele><time>2026-04-04T15:44:23Z</time></trkpt><trkpt lat="39.261709094481795" lon="9.235483464227856"><ele>44.0</ele><time>2026-04-04T15:44:24Z</time></trkpt><trkpt lat="39.26167715788173" lon="9.235242864998767"><ele>44.0</ele><time>2026-04-04T15:44:25Z</time></trkpt><trkpt lat="39.26166015856535" lon="9.234989431810858"><ele>44.0</ele><time>2026-04-04T15:44:26Z</time></trkpt><trkpt lat="39.261629145235425" lon="9.234750385242327"><ele>44.0</ele><time>2026-04-04T15:44:27Z</time></trkpt><trkpt lat="39.261598001754294" lon="9.234510431046418"><ele>44.0</ele><time>2026-04-04T15:44:28Z</time></trkpt><trkpt lat="39.26156572945623" lon="9.234262021880742"><ele>44.0</ele><time>2026-04-04T15:44:29Z</time></trkpt><trkpt lat="39.26153262436985" lon="9.234007202503875"><ele>44.0</ele><time>2026-04-04T15:44:30Z</time></trkpt><trkpt lat="39.261498634491105" lon="9.233745572625745"><ele>44.0</ele><time>2026-04-04T15:44:31Z</time></trkpt><trkpt lat="39.26146344582054" lon="9.233482727141284"><ele>44.0</ele><time>2026-04-04T15:44:32Z</time></trkpt><trkpt lat="39.26142710690697" lon="9.233212958921587"><ele>44.0</ele><time>2026-04-04T15:44:33Z</time></trkpt><trkpt lat="39.261391212301874" lon="9.232946489086956"><ele>44.33333333333333</ele><time>2026-04-04T15:44:34Z</time></trkpt><trkpt lat="39.26135679388563" lon="9.232685795824196"><ele>44.666666666666664</ele><time>2026-04-04T15:44:35Z</time></trkpt><trkpt lat="39.261325538950224" lon="9.232441715226422"><ele>45.0</ele><time>2026-04-04T15:44:36Z</time></trkpt><trkpt lat="39.26129684061895" lon="9.232217600044251"><ele>45.333333333333336</ele><time>2026-04-04T15:44:37Z</time></trkpt><trkpt lat="39.261254977280636" lon="9.232011499873746"><ele>45.66666666666667</ele><time>2026-04-04T15:44:38Z</time></trkpt><trkpt lat="39.261228064864206" lon="9.231801991596544"><ele>46.0</ele><time>2026-04-04T15:44:39Z</time></trkpt><trkpt lat="39.2612049092493" lon="9.23158134005649"><ele>46.66666666666667</ele><time>2026-04-04T15:44:40Z</time></trkpt><trkpt lat="39.26117571557469" lon="9.231353603412048"><ele>47.333333333333336</ele><time>2026-04-04T15:44:41Z</time></trkpt><trkpt lat="39.26114872862864" lon="9.231126541832774"><ele>48.0</ele><time>2026-04-04T15:44:42Z</time></trkpt><trkpt lat="39.26112123808447" lon="9.230890672939841"><ele>48.0</ele><time>2026-04-04T15:44:43Z</time></trkpt><trkpt lat="39.261094976521434" lon="9.230647139367733"><ele>48.0</ele><time>2026-04-04T15:44:43.999Z</time></trkpt><trkpt lat="39.26107046724165" lon="9.230401287107005"><ele>48.0</ele><time>2026-04-04T15:44:44.999Z</time></trkpt><trkpt lat="39.261047036389215" lon="9.230145978853061"><ele>48.66666666666667</ele><time>2026-04-04T15:44:45.999Z</time></trkpt><trkpt lat="39.26102501404427" lon="9.229883766039343"><ele>49.333333333333336</ele><time>2026-04-04T15:44:46.999Z</time></trkpt><trkpt lat="39.26100304082434" lon="9.22961710602029"><ele>50.0</ele><time>2026-04-04T15:44:47.999Z</time></trkpt><trkpt lat="39.260981869566535" lon="9.229357678938321"><ele>51.0</ele><time>2026-04-04T15:44:48.999Z</time></trkpt><trkpt lat="39.26096532445254" lon="9.229105852390603"><ele>52.0</ele><time>2026-04-04T15:44:49.999Z</time></trkpt><trkpt lat="39.260950577475924" lon="9.22885871714541"><ele>53.0</ele><time>2026-04-04T15:44:50.999Z</time></trkpt><trkpt lat="39.26093326716902" lon="9.228624275692283"><ele>53.0</ele><time>2026-04-04T15:44:51.999Z</time></trkpt><trkpt lat="39.260916995109575" lon="9.228403598956156"><ele>53.0</ele><time>2026-04-04T15:44:52.999Z</time></trkpt><trkpt lat="39.260900027988534" lon="9.228171846112845"><ele>53.0</ele><time>2026-04-04T15:44:53.999Z</time></trkpt><trkpt lat="39.26088184872909" lon="9.227931444184668"><ele>51.333333333333336</ele><time>2026-04-04T15:44:54.999Z</time></trkpt><trkpt lat="39.26086607663785" lon="9.227681851609134"><ele>49.66666666666667</ele><time>2026-04-04T15:44:55.999Z</time></trkpt><trkpt lat="39.260852720914386" lon="9.227415296289852"><ele>48.0</ele><time>2026-04-04T15:44:56.999Z</time></trkpt><trkpt lat="39.26084206367828" lon="9.227142835741335"><ele>47.5</ele><time>2026-04-04T15:44:57.999Z</time></trkpt><trkpt lat="39.26083626428846" lon="9.22685414089909"><ele>47.0</ele><time>2026-04-04T15:44:58.999Z</time></trkpt><trkpt lat="39.260836117332865" lon="9.226557857369793"><ele>46.5</ele><time>2026-04-04T15:44:59.999Z</time></trkpt><trkpt lat="39.26084605307736" lon="9.226263313024202"><ele>46.0</ele><time>2026-04-04T15:45:00.999Z</time></trkpt><trkpt lat="39.26085816641232" lon="9.225969804175575"><ele>46.0</ele><time>2026-04-04T15:45:01.999Z</time></trkpt><trkpt lat="39.26088304051944" lon="9.225681588293188"><ele>46.0</ele><time>2026-04-04T15:45:02.999Z</time></trkpt><trkpt lat="39.26091497193385" lon="9.225403416243324"><ele>46.0</ele><time>2026-04-04T15:45:03.999Z</time></trkpt><trkpt lat="39.260950419201286" lon="9.22514175371182"><ele>46.0</ele><time>2026-04-04T15:45:04.999Z</time></trkpt><trkpt lat="39.26099067117721" lon="9.224899487227695"><ele>46.0</ele><time>2026-04-04T15:45:05.999Z</time></trkpt><trkpt lat="39.261032461575674" lon="9.224677609007683"><ele>46.0</ele><time>2026-04-04T15:45:07Z</time></trkpt><trkpt lat="39.26107963661709" lon="9.224471403607179"><ele>46.0</ele><time>2026-04-04T15:45:08Z</time></trkpt><trkpt lat="39.261129027689684" lon="9.224279988585122"><ele>46.0</ele><time>2026-04-04T15:45:09Z</time></trkpt><trkpt lat="39.2611800980725" lon="9.224095670589866"><ele>46.0</ele><time>2026-04-04T15:45:10Z</time></trkpt><trkpt lat="39.26123274876493" lon="9.223917164672635"><ele>45.0</ele><time>2026-04-04T15:45:11Z</time></trkpt><trkpt lat="39.261286389578736" lon="9.223745941640882"><ele>44.0</ele><time>2026-04-04T15:45:12Z</time></trkpt><trkpt lat="39.261340977923176" lon="9.22357293884146"><ele>43.0</ele><time>2026-04-04T15:45:13Z</time></trkpt><trkpt lat="39.261404060491664" lon="9.223384548416657"><ele>42.0</ele><time>2026-04-04T15:45:14Z</time></trkpt><trkpt lat="39.261473942654156" lon="9.223182898189917"><ele>43.666666666666664</ele><time>2026-04-04T15:45:15Z</time></trkpt><trkpt lat="39.26155510873942" lon="9.22298095131611"><ele>45.33333333333333</ele><time>2026-04-04T15:45:16Z</time></trkpt><trkpt lat="39.26164691334807" lon="9.222770126624718"><ele>47.0</ele><time>2026-04-04T15:45:17Z</time></trkpt><trkpt lat="39.261744550484615" lon="9.222558640794855"><ele>47.0</ele><time>2026-04-04T15:45:18Z</time></trkpt><trkpt lat="39.26185612252588" lon="9.22233868268672"><ele>47.0</ele><time>2026-04-04T15:45:19Z</time></trkpt><trkpt lat="39.26197404763221" lon="9.222126418010713"><ele>47.0</ele><time>2026-04-04T15:45:20Z</time></trkpt><trkpt lat="39.26210571528821" lon="9.22190346657166"><ele>46.0</ele><time>2026-04-04T15:45:21Z</time></trkpt><trkpt lat="39.262240481849986" lon="9.221686766689345"><ele>45.0</ele><time>2026-04-04T15:45:22Z</time></trkpt><trkpt lat="39.26237295180728" lon="9.221482228828604"><ele>44.0</ele><time>2026-04-04T15:45:23Z</time></trkpt><trkpt lat="39.2625092276554" lon="9.221287554100753"><ele>46.0</ele><time>2026-04-04T15:45:24Z</time></trkpt><trkpt lat="39.262654306471546" lon="9.221098094921729"><ele>48.0</ele><time>2026-04-04T15:45:25Z</time></trkpt><trkpt lat="39.262807572700375" lon="9.220913779542487"><ele>50.0</ele><time>2026-04-04T15:45:26Z</time></trkpt><trkpt lat="39.26296157140665" lon="9.220735174216205"><ele>50.333333333333336</ele><time>2026-04-04T15:45:27Z</time></trkpt><trkpt lat="39.26311074889888" lon="9.220569093852"><ele>50.66666666666667</ele><time>2026-04-04T15:45:28Z</time></trkpt><trkpt lat="39.26325468902935" lon="9.220418015083071"><ele>51.0</ele><time>2026-04-04T15:45:29Z</time></trkpt><trkpt lat="39.263395511843385" lon="9.220273216451279"><ele>51.0</ele><time>2026-04-04T15:45:30Z</time></trkpt><trkpt lat="39.26353523582248" lon="9.22013103980614"><ele>51.0</ele><time>2026-04-04T15:45:31Z</time></trkpt><trkpt lat="39.26367975344992" lon="9.22001259889402"><ele>51.0</ele><time>2026-04-04T15:45:32Z</time></trkpt><trkpt lat="39.263806878270664" lon="9.219886720589423"><ele>51.0</ele><time>2026-04-04T15:45:33Z</time></trkpt><trkpt lat="39.263943229293446" lon="9.219751714174182"><ele>51.0</ele><time>2026-04-04T15:45:34Z</time></trkpt><trkpt lat="39.26408788435438" lon="9.219609214938938"><ele>51.0</ele><time>2026-04-04T15:45:35Z</time></trkpt><trkpt lat="39.26423356642564" lon="9.219463939390351"><ele>50.33333333333333</ele><time>2026-04-04T15:45:36Z</time></trkpt><trkpt lat="39.26437088698833" lon="9.219324421120584"><ele>49.666666666666664</ele><time>2026-04-04T15:45:37Z</time></trkpt><trkpt lat="39.26449710071892" lon="9.219176975435579"><ele>49.0</ele><time>2026-04-04T15:45:38Z</time></trkpt><trkpt lat="39.264617265898394" lon="9.219046982171012"><ele>47.33333333333333</ele><time>2026-04-04T15:45:39Z</time></trkpt><trkpt lat="39.26475939497972" lon="9.218908894045347"><ele>45.666666666666664</ele><time>2026-04-04T15:45:40Z</time></trkpt><trkpt lat="39.26490540522779" lon="9.218767119867962"><ele>44.0</ele><time>2026-04-04T15:45:41Z</time></trkpt><trkpt lat="39.26505328717242" lon="9.21861921688322"><ele>44.0</ele><time>2026-04-04T15:45:42Z</time></trkpt><trkpt lat="39.26520855616058" lon="9.218465364059611"><ele>44.0</ele><time>2026-04-04T15:45:43Z</time></trkpt><trkpt lat="39.26536405699713" lon="9.218309005427898"><ele>44.0</ele><time>2026-04-04T15:45:44Z</time></trkpt><trkpt lat="39.26551045511349" lon="9.21816159900093"><ele>43.666666666666664</ele><time>2026-04-04T15:45:45Z</time></trkpt><trkpt lat="39.26566466920078" lon="9.218009218655952"><ele>43.333333333333336</ele><time>2026-04-04T15:45:46Z</time></trkpt><trkpt lat="39.26582363981138" lon="9.21784952363799"><ele>43.0</ele><time>2026-04-04T15:45:47Z</time></trkpt><trkpt lat="39.26598950316467" lon="9.217683494357113"><ele>43.0</ele><time>2026-04-04T15:45:48Z</time></trkpt><trkpt lat="39.266157016635" lon="9.217514834010059"><ele>43.0</ele><time>2026-04-04T15:45:49Z</time></trkpt><trkpt lat="39.26633515356926" lon="9.217368137444144"><ele>43.0</ele><time>2026-04-04T15:45:50Z</time></trkpt><trkpt lat="39.26651134309605" lon="9.217191638578182"><ele>43.66666666666667</ele><time>2026-04-04T15:45:51Z</time></trkpt><trkpt lat="39.26667692254309" lon="9.217017499165246"><ele>44.333333333333336</ele><time>2026-04-04T15:45:52Z</time></trkpt><trkpt lat="39.26683608013106" lon="9.216841244576107"><ele>45.0</ele><time>2026-04-04T15:45:53Z</time></trkpt><trkpt lat="39.266971954577706" lon="9.216651792069637"><ele>45.333333333333336</ele><time>2026-04-04T15:45:54Z</time></trkpt><trkpt lat="39.26710246225277" lon="9.216478616334815"><ele>45.66666666666667</ele><time>2026-04-04T15:45:55Z</time></trkpt><trkpt lat="39.26722287771194" lon="9.21630607781074"><ele>46.0</ele><time>2026-04-04T15:45:56Z</time></trkpt><trkpt lat="39.267337012612266" lon="9.216141655104087"><ele>46.0</ele><time>2026-04-04T15:45:57Z</time></trkpt><trkpt lat="39.267444565914545" lon="9.21597379802254"><ele>46.0</ele><time>2026-04-04T15:45:58Z</time></trkpt><trkpt lat="39.26756199205789" lon="9.215809146064336"><ele>46.0</ele><time>2026-04-04T15:45:59Z</time></trkpt><trkpt lat="39.26767214457701" lon="9.21561535971705"><ele>46.0</ele><time>2026-04-04T15:46:00Z</time></trkpt><trkpt lat="39.26777973386175" lon="9.215408323277483"><ele>46.0</ele><time>2026-04-04T15:46:01Z</time></trkpt><trkpt lat="39.267870398534164" lon="9.21518178357728"><ele>46.0</ele><time>2026-04-04T15:46:02Z</time></trkpt><trkpt lat="39.2679745304751" lon="9.214959867203733"><ele>45.333333333333336</ele><time>2026-04-04T15:46:03Z</time></trkpt><trkpt lat="39.26807562194593" lon="9.214731062374387"><ele>44.666666666666664</ele><time>2026-04-04T15:46:04Z</time></trkpt><trkpt lat="39.268169870524865" lon="9.214504356424262"><ele>44.0</ele><time>2026-04-04T15:46:05Z</time></trkpt><trkpt lat="39.26825289619046" lon="9.214297936211011"><ele>46.33333333333333</ele><time>2026-04-04T15:46:06Z</time></trkpt><trkpt lat="39.268325443294124" lon="9.214103542038183"><ele>48.666666666666664</ele><time>2026-04-04T15:46:07Z</time></trkpt><trkpt lat="39.26838846152219" lon="9.213907975733733"><ele>51.0</ele><time>2026-04-04T15:46:08Z</time></trkpt><trkpt lat="39.26844487090142" lon="9.213710337478867"><ele>51.0</ele><time>2026-04-04T15:46:09Z</time></trkpt><trkpt lat="39.26849974825993" lon="9.213506862057686"><ele>51.0</ele><time>2026-04-04T15:46:10Z</time></trkpt><trkpt lat="39.26855471174104" lon="9.21329824137648"><ele>51.0</ele><time>2026-04-04T15:46:11Z</time></trkpt><trkpt lat="39.26860840454525" lon="9.213079850586208"><ele>50.33333333333333</ele><time>2026-04-04T15:46:12Z</time></trkpt><trkpt lat="39.268653342581345" lon="9.212853442469768"><ele>49.666666666666664</ele><time>2026-04-04T15:46:13Z</time></trkpt><trkpt lat="39.26869125799003" lon="9.212619416614409"><ele>49.0</ele><time>2026-04-04T15:46:14Z</time></trkpt><trkpt lat="39.26872179593048" lon="9.212373018921014"><ele>48.666666666666664</ele><time>2026-04-04T15:46:15Z</time></trkpt><trkpt lat="39.26875184880328" lon="9.212126611215197"><ele>48.33333333333333</ele><time>2026-04-04T15:46:16Z</time></trkpt><trkpt lat="39.26877808886619" lon="9.211878578333389"><ele>48.0</ele><time>2026-04-04T15:46:17Z</time></trkpt><trkpt lat="39.26880125514034" lon="9.21161655199454"><ele>48.0</ele><time>2026-04-04T15:46:18Z</time></trkpt><trkpt lat="39.268821796610204" lon="9.211337398511285"><ele>48.0</ele><time>2026-04-04T15:46:19Z</time></trkpt><trkpt lat="39.26884401971429" lon="9.21105570837036"><ele>48.0</ele><time>2026-04-04T15:46:20Z</time></trkpt><trkpt lat="39.26886453189313" lon="9.210782397050151"><ele>48.33333333333333</ele><time>2026-04-04T15:46:21Z</time></trkpt><trkpt lat="39.26888600608403" lon="9.210522069601517"><ele>48.666666666666664</ele><time>2026-04-04T15:46:22Z</time></trkpt><trkpt lat="39.2689067976379" lon="9.210264225446336"><ele>49.0</ele><time>2026-04-04T15:46:23Z</time></trkpt><trkpt lat="39.268928241470505" lon="9.210011734636378"><ele>50.666666666666664</ele><time>2026-04-04T15:46:24Z</time></trkpt><trkpt lat="39.26895066244926" lon="9.209762639674375"><ele>52.33333333333333</ele><time>2026-04-04T15:46:25Z</time></trkpt><trkpt lat="39.268970611796206" lon="9.209497477638589"><ele>54.0</ele><time>2026-04-04T15:46:26Z</time></trkpt><trkpt lat="39.269011265492324" lon="9.209204443578404"><ele>54.0</ele><time>2026-04-04T15:46:27Z</time></trkpt><trkpt lat="39.26903781290657" lon="9.208899973329183"><ele>54.0</ele><time>2026-04-04T15:46:28Z</time></trkpt><trkpt lat="39.26905008806075" lon="9.208616007057564"><ele>54.0</ele><time>2026-04-04T15:46:29Z</time></trkpt><trkpt lat="39.2690746181889" lon="9.208358282821399"><ele>54.0</ele><time>2026-04-04T15:46:30Z</time></trkpt><trkpt lat="39.26909445311155" lon="9.20812112376592"><ele>54.0</ele><time>2026-04-04T15:46:31Z</time></trkpt><trkpt lat="39.269113282727275" lon="9.20789187382607"><ele>54.0</ele><time>2026-04-04T15:46:32Z</time></trkpt><trkpt lat="39.269149265753676" lon="9.207636798265947"><ele>54.0</ele><time>2026-04-04T15:46:32.999Z</time></trkpt><trkpt lat="39.26917380951179" lon="9.207347152930275"><ele>54.0</ele><time>2026-04-04T15:46:33.999Z</time></trkpt><trkpt lat="39.26920066400291" lon="9.207034465373345"><ele>54.0</ele><time>2026-04-04T15:46:34.999Z</time></trkpt><trkpt lat="39.269229580170574" lon="9.206699811603585"><ele>54.0</ele><time>2026-04-04T15:46:35.999Z</time></trkpt><trkpt lat="39.26925919607208" lon="9.206351252753167"><ele>52.5</ele><time>2026-04-04T15:46:36.999Z</time></trkpt><trkpt lat="39.26928711974253" lon="9.206021435219377"><ele>51.0</ele><time>2026-04-04T15:46:37.999Z</time></trkpt><trkpt lat="39.26929700843498" lon="9.205713311523114"><ele>50.33333333333333</ele><time>2026-04-04T15:46:38.999Z</time></trkpt><trkpt lat="39.269323178358995" lon="9.205426097122748"><ele>49.666666666666664</ele><time>2026-04-04T15:46:39.999Z</time></trkpt><trkpt lat="39.26934188856871" lon="9.205146683562086"><ele>49.0</ele><time>2026-04-04T15:46:40.999Z</time></trkpt><trkpt lat="39.26935069682887" lon="9.204882539286709"><ele>47.666666666666664</ele><time>2026-04-04T15:46:41.999Z</time></trkpt><trkpt lat="39.26935270543039" lon="9.20461918077296"><ele>46.33333333333333</ele><time>2026-04-04T15:46:42.999Z</time></trkpt><trkpt lat="39.26934475187411" lon="9.204349415382456"><ele>45.0</ele><time>2026-04-04T15:46:43.999Z</time></trkpt><trkpt lat="39.26932929989469" lon="9.204078016564988"><ele>44.666666666666664</ele><time>2026-04-04T15:46:44.999Z</time></trkpt><trkpt lat="39.2693076396381" lon="9.203811703413663"><ele>44.33333333333333</ele><time>2026-04-04T15:46:45.999Z</time></trkpt><trkpt lat="39.26929819130127" lon="9.203546939444502"><ele>44.0</ele><time>2026-04-04T15:46:46.999Z</time></trkpt><trkpt lat="39.26925208960394" lon="9.203285387557415"><ele>44.33333333333333</ele><time>2026-04-04T15:46:47.999Z</time></trkpt><trkpt lat="39.2692160778374" lon="9.203022160710598"><ele>44.666666666666664</ele><time>2026-04-04T15:46:48.999Z</time></trkpt><trkpt lat="39.26917097122598" lon="9.202761794894831"><ele>45.0</ele><time>2026-04-04T15:46:49.999Z</time></trkpt><trkpt lat="39.26911801504653" lon="9.202504845794744"><ele>45.666666666666664</ele><time>2026-04-04T15:46:50.999Z</time></trkpt><trkpt lat="39.26906023248466" lon="9.202253826714324"><ele>46.33333333333333</ele><time>2026-04-04T15:46:51.999Z</time></trkpt><trkpt lat="39.26899918631729" lon="9.202008779888043"><ele>47.0</ele><time>2026-04-04T15:46:52.999Z</time></trkpt><trkpt lat="39.268928981000656" lon="9.201759291000466"><ele>45.33333333333333</ele><time>2026-04-04T15:46:53.999Z</time></trkpt><trkpt lat="39.268852482229235" lon="9.201518253127345"><ele>43.666666666666664</ele><time>2026-04-04T15:46:54.999Z</time></trkpt><trkpt lat="39.26877168941358" lon="9.201283210846375"><ele>42.0</ele><time>2026-04-04T15:46:55.999Z</time></trkpt><trkpt lat="39.26868414157208" lon="9.201054448092881"><ele>42.0</ele><time>2026-04-04T15:46:56.999Z</time></trkpt><trkpt lat="39.26858587424959" lon="9.200818396926069"><ele>42.0</ele><time>2026-04-04T15:46:57.999Z</time></trkpt><trkpt lat="39.2684805540591" lon="9.20058873619753"><ele>42.0</ele><time>2026-04-04T15:46:58.999Z</time></trkpt><trkpt lat="39.26836809843209" lon="9.200359359401707"><ele>42.0</ele><time>2026-04-04T15:46:59.999Z</time></trkpt><trkpt lat="39.26825272635087" lon="9.200138327510867"><ele>42.0</ele><time>2026-04-04T15:47:00.999Z</time></trkpt><trkpt lat="39.268131661790086" lon="9.199922073591486"><ele>42.0</ele><time>2026-04-04T15:47:01.999Z</time></trkpt><trkpt lat="39.26800482973902" lon="9.199709503376322"><ele>43.333333333333336</ele><time>2026-04-04T15:47:02.999Z</time></trkpt><trkpt lat="39.267877045589614" lon="9.199504554021937"><ele>44.66666666666667</ele><time>2026-04-04T15:47:03.999Z</time></trkpt><trkpt lat="39.26774882649839" lon="9.199311990564965"><ele>46.0</ele><time>2026-04-04T15:47:04.999Z</time></trkpt><trkpt lat="39.267619614632046" lon="9.199135241824163"><ele>46.66666666666667</ele><time>2026-04-04T15:47:05.999Z</time></trkpt><trkpt lat="39.26748515893618" lon="9.198961128789334"><ele>47.333333333333336</ele><time>2026-04-04T15:47:06.999Z</time></trkpt><trkpt lat="39.267346740475475" lon="9.19878925630025"><ele>48.0</ele><time>2026-04-04T15:47:07.999Z</time></trkpt><trkpt lat="39.26720119647012" lon="9.198616683674203"><ele>49.0</ele><time>2026-04-04T15:47:08.999Z</time></trkpt><trkpt lat="39.26705713486979" lon="9.198455041239168"><ele>50.0</ele><time>2026-04-04T15:47:09.999Z</time></trkpt><trkpt lat="39.26691369274772" lon="9.198305593991416"><ele>51.0</ele><time>2026-04-04T15:47:10.999Z</time></trkpt><trkpt lat="39.26675882593378" lon="9.198156392930937"><ele>51.0</ele><time>2026-04-04T15:47:11.999Z</time></trkpt><trkpt lat="39.26659838432811" lon="9.198012213925201"><ele>51.0</ele><time>2026-04-04T15:47:13Z</time></trkpt><trkpt lat="39.26644016694261" lon="9.197879365542326"><ele>51.0</ele><time>2026-04-04T15:47:14Z</time></trkpt><trkpt lat="39.266287853597504" lon="9.197759767618026"><ele>50.25</ele><time>2026-04-04T15:47:15Z</time></trkpt><trkpt lat="39.26615818444515" lon="9.197666363703208"><ele>49.5</ele><time>2026-04-04T15:47:16Z</time></trkpt><trkpt lat="39.26604400073278" lon="9.197587969362749"><ele>48.75</ele><time>2026-04-04T15:47:17Z</time></trkpt><trkpt lat="39.26593129273358" lon="9.197513158446615"><ele>48.0</ele><time>2026-04-04T15:47:18Z</time></trkpt><trkpt lat="39.26581634536941" lon="9.197442480451315"><ele>48.0</ele><time>2026-04-04T15:47:19Z</time></trkpt><trkpt lat="39.265696924794646" lon="9.197373159474513"><ele>48.0</ele><time>2026-04-04T15:47:20Z</time></trkpt><trkpt lat="39.2655631908458" lon="9.197304489429959"><ele>48.0</ele><time>2026-04-04T15:47:21Z</time></trkpt><trkpt lat="39.26541459886257" lon="9.19723346755929"><ele>48.0</ele><time>2026-04-04T15:47:22Z</time></trkpt><trkpt lat="39.26525036714081" lon="9.197156966449533"><ele>46.666666666666664</ele><time>2026-04-04T15:47:23Z</time></trkpt><trkpt lat="39.265067806430636" lon="9.19707811115051"><ele>45.33333333333333</ele><time>2026-04-04T15:47:24Z</time></trkpt><trkpt lat="39.26487080728618" lon="9.196997872530073"><ele>44.0</ele><time>2026-04-04T15:47:25Z</time></trkpt><trkpt lat="39.26466024472704" lon="9.196907707814391"><ele>44.0</ele><time>2026-04-04T15:47:26Z</time></trkpt><trkpt lat="39.264419860029506" lon="9.196805965546062"><ele>44.0</ele><time>2026-04-04T15:47:27Z</time></trkpt><trkpt lat="39.26416527090723" lon="9.196697183936612"><ele>42.5</ele><time>2026-04-04T15:47:28Z</time></trkpt><trkpt lat="39.2639012675314" lon="9.196578303919848"><ele>41.0</ele><time>2026-04-04T15:47:29Z</time></trkpt><trkpt lat="39.26362667262016" lon="9.196453090781986"><ele>39.5</ele><time>2026-04-04T15:47:30Z</time></trkpt><trkpt lat="39.26335792730392" lon="9.196326113351148"><ele>38.0</ele><time>2026-04-04T15:47:31Z</time></trkpt><trkpt lat="39.263079724904046" lon="9.196204105149972"><ele>37.5</ele><time>2026-04-04T15:47:32Z</time></trkpt><trkpt lat="39.262790963304695" lon="9.196081156597085"><ele>37.0</ele><time>2026-04-04T15:47:33Z</time></trkpt><trkpt lat="39.262507852015034" lon="9.195962334000857"><ele>36.5</ele><time>2026-04-04T15:47:34Z</time></trkpt><trkpt lat="39.26223024232926" lon="9.195848861847644"><ele>36.0</ele><time>2026-04-04T15:47:35Z</time></trkpt><trkpt lat="39.261963919301756" lon="9.195737620734112"><ele>34.5</ele><time>2026-04-04T15:47:36Z</time></trkpt><trkpt lat="39.26171266364156" lon="9.195632978251306"><ele>33.0</ele><time>2026-04-04T15:47:37Z</time></trkpt><trkpt lat="39.2614731590511" lon="9.19553546524687"><ele>32.5</ele><time>2026-04-04T15:47:38Z</time></trkpt><trkpt lat="39.261229746906444" lon="9.195440343475562"><ele>32.0</ele><time>2026-04-04T15:47:39Z</time></trkpt><trkpt lat="39.2609879349878" lon="9.19534438586499"><ele>32.0</ele><time>2026-04-04T15:47:40Z</time></trkpt><trkpt lat="39.260748498923384" lon="9.195247647189436"><ele>32.0</ele><time>2026-04-04T15:47:41Z</time></trkpt><trkpt lat="39.26050495796936" lon="9.195152912266304"><ele>31.5</ele><time>2026-04-04T15:47:42Z</time></trkpt><trkpt lat="39.26026599403433" lon="9.195055514494417"><ele>31.0</ele><time>2026-04-04T15:47:43Z</time></trkpt><trkpt lat="39.26002789567609" lon="9.19495386912945"><ele>31.0</ele><time>2026-04-04T15:47:44Z</time></trkpt><trkpt lat="39.259792815049174" lon="9.194846423083565"><ele>31.0</ele><time>2026-04-04T15:47:45Z</time></trkpt><trkpt lat="39.259559178945075" lon="9.194739614800488"><ele>31.0</ele><time>2026-04-04T15:47:46Z</time></trkpt><trkpt lat="39.259322453756425" lon="9.194631538492471"><ele>31.0</ele><time>2026-04-04T15:47:47Z</time></trkpt><trkpt lat="39.259091440293496" lon="9.194529947548554"><ele>30.0</ele><time>2026-04-04T15:47:48Z</time></trkpt><trkpt lat="39.258877682197976" lon="9.19443651901125"><ele>29.0</ele><time>2026-04-04T15:47:49Z</time></trkpt><trkpt lat="39.2586709373456" lon="9.19434523972112"><ele>28.0</ele><time>2026-04-04T15:47:50Z</time></trkpt><trkpt lat="39.258473595715024" lon="9.194255143961414"><ele>28.0</ele><time>2026-04-04T15:47:51Z</time></trkpt><trkpt lat="39.25829576547183" lon="9.194170372617313"><ele>28.0</ele><time>2026-04-04T15:47:52Z</time></trkpt><trkpt lat="39.25812670484222" lon="9.194085829834895"><ele>28.0</ele><time>2026-04-04T15:47:53Z</time></trkpt><trkpt lat="39.25797748681922" lon="9.19400046535431"><ele>26.666666666666668</ele><time>2026-04-04T15:47:54Z</time></trkpt><trkpt lat="39.25783560578192" lon="9.19390314088672"><ele>25.333333333333336</ele><time>2026-04-04T15:47:55Z</time></trkpt><trkpt lat="39.25770447277045" lon="9.193791176887576"><ele>24.0</ele><time>2026-04-04T15:47:56Z</time></trkpt><trkpt lat="39.25757587421637" lon="9.193661021809703"><ele>24.0</ele><time>2026-04-04T15:47:57Z</time></trkpt><trkpt lat="39.25745310244571" lon="9.193505765254844"><ele>24.0</ele><time>2026-04-04T15:47:58Z</time></trkpt><trkpt lat="39.257340833792775" lon="9.193326772136452"><ele>24.0</ele><time>2026-04-04T15:47:59Z</time></trkpt><trkpt lat="39.25724051823196" lon="9.193128966350693"><ele>23.666666666666668</ele><time>2026-04-04T15:48:00Z</time></trkpt><trkpt lat="39.257157091262975" lon="9.192914139889535"><ele>23.333333333333336</ele><time>2026-04-04T15:48:01Z</time></trkpt><trkpt lat="39.25709233848865" lon="9.19268974844474"><ele>23.0</ele><time>2026-04-04T15:48:02Z</time></trkpt><trkpt lat="39.25703768739717" lon="9.192455453727577"><ele>22.333333333333336</ele><time>2026-04-04T15:48:03Z</time></trkpt><trkpt lat="39.25700456362552" lon="9.192227753193135"><ele>21.666666666666668</ele><time>2026-04-04T15:48:04Z</time></trkpt><trkpt lat="39.256991909024144" lon="9.192008415262165"><ele>21.0</ele><time>2026-04-04T15:48:05Z</time></trkpt><trkpt lat="39.25698850521075" lon="9.191775246680148"><ele>21.0</ele><time>2026-04-04T15:48:06Z</time></trkpt><trkpt lat="39.256994813031746" lon="9.191541543533221"><ele>21.0</ele><time>2026-04-04T15:48:07Z</time></trkpt><trkpt lat="39.25700729359812" lon="9.191294406306321"><ele>21.0</ele><time>2026-04-04T15:48:08Z</time></trkpt><trkpt lat="39.2570177959307" lon="9.191044731400115"><ele>20.666666666666668</ele><time>2026-04-04T15:48:09Z</time></trkpt><trkpt lat="39.25702528354562" lon="9.190792339197685"><ele>20.333333333333336</ele><time>2026-04-04T15:48:10Z</time></trkpt><trkpt lat="39.25702882370366" lon="9.190555657921358"><ele>20.0</ele><time>2026-04-04T15:48:11Z</time></trkpt><trkpt lat="39.25703256039887" lon="9.190342654068528"><ele>19.666666666666668</ele><time>2026-04-04T15:48:12Z</time></trkpt><trkpt lat="39.2570462284616" lon="9.190147051429854"><ele>19.333333333333332</ele><time>2026-04-04T15:48:13Z</time></trkpt><trkpt lat="39.25707816643637" lon="9.189956594510047"><ele>19.0</ele><time>2026-04-04T15:48:14Z</time></trkpt><trkpt lat="39.25713234639291" lon="9.189777772902977"><ele>18.666666666666664</ele><time>2026-04-04T15:48:15Z</time></trkpt><trkpt lat="39.25720919472014" lon="9.189604064315454"><ele>18.333333333333332</ele><time>2026-04-04T15:48:16Z</time></trkpt><trkpt lat="39.25731042852885" lon="9.18944240535025"><ele>18.0</ele><time>2026-04-04T15:48:17Z</time></trkpt><trkpt lat="39.257431741981165" lon="9.18929033144307"><ele>19.333333333333332</ele><time>2026-04-04T15:48:18Z</time></trkpt><trkpt lat="39.257558435806885" lon="9.189131642941073"><ele>20.666666666666664</ele><time>2026-04-04T15:48:19Z</time></trkpt><trkpt lat="39.25768732460276" lon="9.188959786620437"><ele>22.0</ele><time>2026-04-04T15:48:20Z</time></trkpt><trkpt lat="39.257820591155834" lon="9.188781406047934"><ele>22.0</ele><time>2026-04-04T15:48:21Z</time></trkpt><trkpt lat="39.25795757252804" lon="9.18861377814565"><ele>22.0</ele><time>2026-04-04T15:48:21.999Z</time></trkpt><trkpt lat="39.25808279361637" lon="9.188463707499729"><ele>22.0</ele><time>2026-04-04T15:48:22.999Z</time></trkpt><trkpt lat="39.25818910344205" lon="9.188334955377478"><ele>22.0</ele><time>2026-04-04T15:48:23.999Z</time></trkpt><trkpt lat="39.258280382953934" lon="9.188221133973263"><ele>22.0</ele><time>2026-04-04T15:48:24.999Z</time></trkpt><trkpt lat="39.25835569523295" lon="9.188123367111697"><ele>22.0</ele><time>2026-04-04T15:48:25.999Z</time></trkpt><trkpt lat="39.25841591240648" lon="9.188041419204266"><ele>22.0</ele><time>2026-04-04T15:48:26.999Z</time></trkpt><trkpt lat="39.25848223354962" lon="9.187934652622513"><ele>22.0</ele><time>2026-04-04T15:48:28.999Z</time></trkpt><trkpt lat="39.2585301701663" lon="9.18787162440449"><ele>22.0</ele><time>2026-04-04T15:48:30.999Z</time></trkpt><trkpt lat="39.25861310039979" lon="9.187778561684675"><ele>22.0</ele><time>2026-04-04T15:50:26Z</time></trkpt><trkpt lat="39.25866453898324" lon="9.1877032257591"><ele>22.0</ele><time>2026-04-04T15:50:27Z</time></trkpt><trkpt lat="39.25872345420807" lon="9.18760427088705"><ele>22.0</ele><time>2026-04-04T15:50:28Z</time></trkpt><trkpt lat="39.258775448847885" lon="9.187516898223448"><ele>22.0</ele><time>2026-04-04T15:50:29Z</time></trkpt><trkpt lat="39.25884819329557" lon="9.187394568377846"><ele>21.333333333333332</ele><time>2026-04-04T15:50:30Z</time></trkpt><trkpt lat="39.25893191101407" lon="9.187250551558016"><ele>20.666666666666668</ele><time>2026-04-04T15:50:31Z</time></trkpt><trkpt lat="39.25902908920421" lon="9.187072622708392"><ele>20.0</ele><time>2026-04-04T15:50:31.999Z</time></trkpt><trkpt lat="39.2591144296086" lon="9.186888885682563"><ele>21.333333333333336</ele><time>2026-04-04T15:50:32.999Z</time></trkpt><trkpt lat="39.25919917057499" lon="9.186689358915872"><ele>22.666666666666668</ele><time>2026-04-04T15:50:33.999Z</time></trkpt><trkpt lat="39.259288940227464" lon="9.186479007783898"><ele>24.0</ele><time>2026-04-04T15:50:34.999Z</time></trkpt><trkpt lat="39.259370424124356" lon="9.186238423267149"><ele>24.0</ele><time>2026-04-04T15:50:35.999Z</time></trkpt><trkpt lat="39.259443923957306" lon="9.186017315404001"><ele>24.0</ele><time>2026-04-04T15:50:36.999Z</time></trkpt><trkpt lat="39.2595089934257" lon="9.185793457724815"><ele>24.0</ele><time>2026-04-04T15:50:37.999Z</time></trkpt><trkpt lat="39.25957859214168" lon="9.185549018974584"><ele>23.666666666666668</ele><time>2026-04-04T15:50:38.999Z</time></trkpt><trkpt lat="39.25964523630642" lon="9.185297810533001"><ele>23.333333333333336</ele><time>2026-04-04T15:50:39.999Z</time></trkpt><trkpt lat="39.2597120914425" lon="9.185054318964832"><ele>23.0</ele><time>2026-04-04T15:50:40.999Z</time></trkpt><trkpt lat="39.25977786166547" lon="9.184808068889762"><ele>23.666666666666668</ele><time>2026-04-04T15:50:41.999Z</time></trkpt><trkpt lat="39.259846864431545" lon="9.184561694232968"><ele>24.333333333333336</ele><time>2026-04-04T15:50:42.999Z</time></trkpt><trkpt lat="39.259917725598186" lon="9.184311939426433"><ele>25.0</ele><time>2026-04-04T15:50:43.999Z</time></trkpt><trkpt lat="39.25999633812385" lon="9.18406195858727"><ele>24.666666666666668</ele><time>2026-04-04T15:50:44.999Z</time></trkpt><trkpt lat="39.26006385544661" lon="9.183827610638875"><ele>24.333333333333336</ele><time>2026-04-04T15:50:45.999Z</time></trkpt><trkpt lat="39.26013109825618" lon="9.18357287210507"><ele>24.0</ele><time>2026-04-04T15:50:46.999Z</time></trkpt><trkpt lat="39.26020844132457" lon="9.183314784902972"><ele>24.0</ele><time>2026-04-04T15:50:47.999Z</time></trkpt><trkpt lat="39.26028380372525" lon="9.183050656774288"><ele>24.0</ele><time>2026-04-04T15:50:48.999Z</time></trkpt><trkpt lat="39.26036181444976" lon="9.182777287443427"><ele>24.0</ele><time>2026-04-04T15:50:49.999Z</time></trkpt><trkpt lat="39.26043860404736" lon="9.182509741968769"><ele>24.0</ele><time>2026-04-04T15:50:50.999Z</time></trkpt><trkpt lat="39.260516478165556" lon="9.182242502181188"><ele>24.0</ele><time>2026-04-04T15:50:51.999Z</time></trkpt><trkpt lat="39.26059513890355" lon="9.181973845605524"><ele>24.0</ele><time>2026-04-04T15:50:52.999Z</time></trkpt><trkpt lat="39.260666676551544" lon="9.18172066482384"><ele>24.0</ele><time>2026-04-04T15:50:53.999Z</time></trkpt><trkpt lat="39.26073538895222" lon="9.181484015622065"><ele>24.0</ele><time>2026-04-04T15:50:54.999Z</time></trkpt><trkpt lat="39.26080140679795" lon="9.18124233602226"><ele>24.0</ele><time>2026-04-04T15:50:55.999Z</time></trkpt><trkpt lat="39.2608694907297" lon="9.181004860292784"><ele>24.0</ele><time>2026-04-04T15:50:56.999Z</time></trkpt><trkpt lat="39.26093393490794" lon="9.180772587770239"><ele>24.0</ele><time>2026-04-04T15:50:57.999Z</time></trkpt><trkpt lat="39.2609907689392" lon="9.18053102066903"><ele>24.0</ele><time>2026-04-04T15:50:58.999Z</time></trkpt><trkpt lat="39.26105246136497" lon="9.180298988613547"><ele>23.0</ele><time>2026-04-04T15:50:59.999Z</time></trkpt><trkpt lat="39.261114976246105" lon="9.18006256031474"><ele>22.0</ele><time>2026-04-04T15:51:00.999Z</time></trkpt><trkpt lat="39.261177828943396" lon="9.179831323178947"><ele>21.0</ele><time>2026-04-04T15:51:01.999Z</time></trkpt><trkpt lat="39.26124207361253" lon="9.179602370571175"><ele>21.0</ele><time>2026-04-04T15:51:02.999Z</time></trkpt><trkpt lat="39.26130610264964" lon="9.179383546392467"><ele>21.0</ele><time>2026-04-04T15:51:03.999Z</time></trkpt><trkpt lat="39.26137258098155" lon="9.17915832816865"><ele>21.0</ele><time>2026-04-04T15:51:04.999Z</time></trkpt><trkpt lat="39.26143847994383" lon="9.178927927457718"><ele>22.0</ele><time>2026-04-04T15:51:05.999Z</time></trkpt><trkpt lat="39.26150363874058" lon="9.178696948010458"><ele>23.0</ele><time>2026-04-04T15:51:06.999Z</time></trkpt><trkpt lat="39.26156872715793" lon="9.178468445351507"><ele>24.0</ele><time>2026-04-04T15:51:07.999Z</time></trkpt><trkpt lat="39.26163205223449" lon="9.178242479495978"><ele>23.666666666666668</ele><time>2026-04-04T15:51:08.999Z</time></trkpt><trkpt lat="39.261696462062474" lon="9.178014842511846"><ele>23.333333333333336</ele><time>2026-04-04T15:51:09.999Z</time></trkpt><trkpt lat="39.26176149526507" lon="9.17779018252333"><ele>23.0</ele><time>2026-04-04T15:51:10.999Z</time></trkpt><trkpt lat="39.261822507803494" lon="9.177579617824684"><ele>23.0</ele><time>2026-04-04T15:51:11.999Z</time></trkpt><trkpt lat="39.261879124683546" lon="9.177385470469163"><ele>23.0</ele><time>2026-04-04T15:51:12.999Z</time></trkpt><trkpt lat="39.26193289347798" lon="9.17720062548086"><ele>23.0</ele><time>2026-04-04T15:51:13.999Z</time></trkpt><trkpt lat="39.2619823515262" lon="9.177026453448901"><ele>22.75</ele><time>2026-04-04T15:51:14.999Z</time></trkpt><trkpt lat="39.262029365177916" lon="9.176859687363068"><ele>22.5</ele><time>2026-04-04T15:51:15.999Z</time></trkpt><trkpt lat="39.26208008668384" lon="9.176680032492644"><ele>22.25</ele><time>2026-04-04T15:51:16.999Z</time></trkpt><trkpt lat="39.26213437392557" lon="9.176490710057212"><ele>22.0</ele><time>2026-04-04T15:51:17.999Z</time></trkpt><trkpt lat="39.262187270880915" lon="9.176310863710182"><ele>21.75</ele><time>2026-04-04T15:51:18.999Z</time></trkpt><trkpt lat="39.26223868847323" lon="9.176136947450415"><ele>21.5</ele><time>2026-04-04T15:51:19.999Z</time></trkpt><trkpt lat="39.26228488224109" lon="9.17597934259827"><ele>21.25</ele><time>2026-04-04T15:51:20.999Z</time></trkpt><trkpt lat="39.26232779743998" lon="9.175827869659408"><ele>21.0</ele><time>2026-04-04T15:51:21.999Z</time></trkpt><trkpt lat="39.262369908225" lon="9.175685317232308"><ele>21.0</ele><time>2026-04-04T15:51:22.999Z</time></trkpt><trkpt lat="39.26240639948075" lon="9.175556920039645"><ele>21.0</ele><time>2026-04-04T15:51:23.999Z</time></trkpt><trkpt lat="39.262438762566845" lon="9.175441211054203"><ele>21.0</ele><time>2026-04-04T15:51:25Z</time></trkpt><trkpt lat="39.26246894280127" lon="9.175340386673026"><ele>21.0</ele><time>2026-04-04T15:51:26Z</time></trkpt><trkpt lat="39.26249093012129" lon="9.175260279147576"><ele>21.0</ele><time>2026-04-04T15:51:27Z</time></trkpt><trkpt lat="39.262518806259436" lon="9.17517101817173"><ele>21.0</ele><time>2026-04-04T15:51:29Z</time></trkpt><trkpt lat="39.262540012488785" lon="9.175092666412375"><ele>21.0</ele><time>2026-04-04T15:51:53Z</time></trkpt><trkpt lat="39.262584844673874" lon="9.174942118263113"><ele>21.0</ele><time>2026-04-04T15:51:55Z</time></trkpt><trkpt lat="39.26261731118535" lon="9.174823637214287"><ele>21.0</ele><time>2026-04-04T15:51:56Z</time></trkpt><trkpt lat="39.262651181318695" lon="9.174701896000137"><ele>21.0</ele><time>2026-04-04T15:51:57Z</time></trkpt><trkpt lat="39.262689780665546" lon="9.174562249266899"><ele>21.0</ele><time>2026-04-04T15:51:58Z</time></trkpt><trkpt lat="39.26272954917524" lon="9.174405995293009"><ele>20.666666666666668</ele><time>2026-04-04T15:51:59Z</time></trkpt><trkpt lat="39.262779178213975" lon="9.174223466429734"><ele>20.333333333333336</ele><time>2026-04-04T15:52:00Z</time></trkpt><trkpt lat="39.26283275661226" lon="9.17402883257717"><ele>20.0</ele><time>2026-04-04T15:52:01Z</time></trkpt><trkpt lat="39.262884797605004" lon="9.173840668120592"><ele>20.0</ele><time>2026-04-04T15:52:02Z</time></trkpt><trkpt lat="39.26293984555555" lon="9.173653305186738"><ele>20.0</ele><time>2026-04-04T15:52:03Z</time></trkpt><trkpt lat="39.26299274206516" lon="9.173488558185321"><ele>20.0</ele><time>2026-04-04T15:52:04Z</time></trkpt><trkpt lat="39.26304115352293" lon="9.17333712869844"><ele>20.0</ele><time>2026-04-04T15:52:05Z</time></trkpt><trkpt lat="39.263090266012256" lon="9.173194900901148"><ele>20.166666666666668</ele><time>2026-04-04T15:52:06Z</time></trkpt><trkpt lat="39.26314434076706" lon="9.173082479935598"><ele>20.333333333333336</ele><time>2026-04-04T15:52:07Z</time></trkpt><trkpt lat="39.26320674977341" lon="9.172994439311362"><ele>20.5</ele><time>2026-04-04T15:52:08Z</time></trkpt><trkpt lat="39.26327628364637" lon="9.172922155244326"><ele>20.666666666666668</ele><time>2026-04-04T15:52:09Z</time></trkpt><trkpt lat="39.26333066949325" lon="9.172879974909508"><ele>20.833333333333332</ele><time>2026-04-04T15:52:10Z</time></trkpt><trkpt lat="39.263378910530825" lon="9.172799224367326"><ele>21.0</ele><time>2026-04-04T15:52:12Z</time></trkpt><trkpt lat="39.26336709138191" lon="9.172703043542128"><ele>21.0</ele><time>2026-04-04T15:52:14Z</time></trkpt><trkpt lat="39.26331068211069" lon="9.172742496934418"><ele>21.0</ele><time>2026-04-04T15:52:18Z</time></trkpt><trkpt lat="39.26330611935287" lon="9.17282382123587"><ele>21.0</ele><time>2026-04-04T16:01:53Z</time></trkpt><trkpt lat="39.263283858745694" lon="9.172900802736494"><ele>21.0</ele><time>2026-04-04T16:01:55.999Z</time></trkpt><trkpt lat="39.26327094809467" lon="9.17299658752948"><ele>21.0</ele><time>2026-04-04T16:01:58.999Z</time></trkpt><trkpt lat="39.26334179653609" lon="9.173005588114064"><ele>21.0</ele><time>2026-04-04T16:02:00.999Z</time></trkpt><trkpt lat="39.2633872416635" lon="9.172919324470238"><ele>21.0</ele><time>2026-04-04T16:02:02.999Z</time></trkpt><trkpt lat="39.263406861371706" lon="9.17281993358761"><ele>21.0</ele><time>2026-04-04T16:02:04.999Z</time></trkpt><trkpt lat="39.26340657998919" lon="9.172733299510504"><ele>21.0</ele><time>2026-04-04T16:02:06.999Z</time></trkpt><trkpt lat="39.26335676833179" lon="9.172652897049362"><ele>21.0</ele><time>2026-04-04T16:02:08.999Z</time></trkpt><trkpt lat="39.26332222428788" lon="9.17256859235729"><ele>21.0</ele><time>2026-04-04T16:02:10.999Z</time></trkpt><trkpt lat="39.263315582501235" lon="9.172468832037527"><ele>21.0</ele><time>2026-04-04T16:02:12.999Z</time></trkpt><trkpt lat="39.26334077041539" lon="9.17236776482957"><ele>21.0</ele><time>2026-04-04T16:02:13.999Z</time></trkpt><trkpt lat="39.263381516313316" lon="9.172239534362404"><ele>20.75</ele><time>2026-04-04T16:02:14.999Z</time></trkpt><trkpt lat="39.26341905772094" lon="9.17211705470726"><ele>20.5</ele><time>2026-04-04T16:02:15.999Z</time></trkpt><trkpt lat="39.26345838170789" lon="9.1719719878323"><ele>20.25</ele><time>2026-04-04T16:02:16.999Z</time></trkpt><trkpt lat="39.26349890784472" lon="9.1718158015188"><ele>20.0</ele><time>2026-04-04T16:02:18Z</time></trkpt><trkpt lat="39.263544995259245" lon="9.171638370382174"><ele>19.666666666666668</ele><time>2026-04-04T16:02:19Z</time></trkpt><trkpt lat="39.26359422470266" lon="9.171466232642466"><ele>19.333333333333332</ele><time>2026-04-04T16:02:20Z</time></trkpt><trkpt lat="39.26364668879687" lon="9.17128690978895"><ele>19.0</ele><time>2026-04-04T16:02:21Z</time></trkpt><trkpt lat="39.263703794785734" lon="9.171094817680872"><ele>19.0</ele><time>2026-04-04T16:02:22Z</time></trkpt><trkpt lat="39.263762518524445" lon="9.170889529784736"><ele>19.0</ele><time>2026-04-04T16:02:23Z</time></trkpt><trkpt lat="39.26382424114302" lon="9.170671775849897"><ele>19.0</ele><time>2026-04-04T16:02:24Z</time></trkpt><trkpt lat="39.26388260439894" lon="9.170466884250319"><ele>18.666666666666664</ele><time>2026-04-04T16:02:25Z</time></trkpt><trkpt lat="39.26393786261199" lon="9.170279361218101"><ele>18.333333333333332</ele><time>2026-04-04T16:02:26Z</time></trkpt><trkpt lat="39.26398818382726" lon="9.170101018797709"><ele>18.0</ele><time>2026-04-04T16:02:27Z</time></trkpt><trkpt lat="39.26404000369302" lon="9.169918521087068"><ele>18.0</ele><time>2026-04-04T16:02:28Z</time></trkpt><trkpt lat="39.26409355443867" lon="9.169728914933748"><ele>18.0</ele><time>2026-04-04T16:02:29Z</time></trkpt><trkpt lat="39.26420447829795" lon="9.169352613749755"><ele>18.0</ele><time>2026-04-04T16:02:31Z</time></trkpt><trkpt lat="39.26426192332298" lon="9.169149058310838"><ele>18.0</ele><time>2026-04-04T16:02:32Z</time></trkpt><trkpt lat="39.2643209288876" lon="9.168939803178441"><ele>18.0</ele><time>2026-04-04T16:02:33Z</time></trkpt><trkpt lat="39.2643888447212" lon="9.168704462750025"><ele>17.666666666666668</ele><time>2026-04-04T16:02:34Z</time></trkpt><trkpt lat="39.26445741161164" lon="9.168456928340296"><ele>17.333333333333336</ele><time>2026-04-04T16:02:35Z</time></trkpt><trkpt lat="39.26452596987314" lon="9.16821208237371"><ele>17.0</ele><time>2026-04-04T16:02:36Z</time></trkpt><trkpt lat="39.26459796961283" lon="9.167961336015589"><ele>17.0</ele><time>2026-04-04T16:02:37Z</time></trkpt><trkpt lat="39.26467415948215" lon="9.16769818044583"><ele>17.0</ele><time>2026-04-04T16:02:38Z</time></trkpt><trkpt lat="39.264752809164804" lon="9.167428299538512"><ele>17.0</ele><time>2026-04-04T16:02:39Z</time></trkpt><trkpt lat="39.264832136666826" lon="9.167154766193036"><ele>16.666666666666668</ele><time>2026-04-04T16:02:40Z</time></trkpt><trkpt lat="39.26490615733744" lon="9.166894863826009"><ele>16.333333333333332</ele><time>2026-04-04T16:02:41Z</time></trkpt><trkpt lat="39.26498040047392" lon="9.166633996560174"><ele>16.0</ele><time>2026-04-04T16:02:42Z</time></trkpt><trkpt lat="39.26505611054238" lon="9.166370792794401"><ele>16.0</ele><time>2026-04-04T16:02:43Z</time></trkpt><trkpt lat="39.26513243804954" lon="9.166107029906625"><ele>16.0</ele><time>2026-04-04T16:02:44Z</time></trkpt><trkpt lat="39.265204967830165" lon="9.165853269555559"><ele>16.0</ele><time>2026-04-04T16:02:45Z</time></trkpt><trkpt lat="39.26527795715842" lon="9.165593739685573"><ele>16.0</ele><time>2026-04-04T16:02:46Z</time></trkpt><trkpt lat="39.265350392843494" lon="9.165336030185614"><ele>16.0</ele><time>2026-04-04T16:02:47Z</time></trkpt><trkpt lat="39.26542247693978" lon="9.16508015710303"><ele>16.0</ele><time>2026-04-04T16:02:48Z</time></trkpt><trkpt lat="39.26549699930238" lon="9.16481871306313"><ele>15.666666666666666</ele><time>2026-04-04T16:02:49Z</time></trkpt><trkpt lat="39.26557144633171" lon="9.164561466192577"><ele>15.333333333333332</ele><time>2026-04-04T16:02:50Z</time></trkpt><trkpt lat="39.26564623253887" lon="9.164298538629573"><ele>15.0</ele><time>2026-04-04T16:02:51Z</time></trkpt><trkpt lat="39.26572070314877" lon="9.164041774264398"><ele>14.666666666666668</ele><time>2026-04-04T16:02:52Z</time></trkpt><trkpt lat="39.265798009207074" lon="9.163776145446382"><ele>14.333333333333334</ele><time>2026-04-04T16:02:53Z</time></trkpt><trkpt lat="39.265875237967215" lon="9.163506616910642"><ele>14.0</ele><time>2026-04-04T16:02:54Z</time></trkpt><trkpt lat="39.26595226871571" lon="9.163236617089243"><ele>14.5</ele><time>2026-04-04T16:02:55Z</time></trkpt><trkpt lat="39.266032415396964" lon="9.16295962829217"><ele>15.0</ele><time>2026-04-04T16:02:56Z</time></trkpt><trkpt lat="39.26611333248263" lon="9.162680373716091"><ele>15.0</ele><time>2026-04-04T16:02:57Z</time></trkpt><trkpt lat="39.26619532228956" lon="9.162397030013242"><ele>15.0</ele><time>2026-04-04T16:02:58Z</time></trkpt><trkpt lat="39.266277130391835" lon="9.162111938735029"><ele>14.0</ele><time>2026-04-04T16:02:59Z</time></trkpt><trkpt lat="39.26635878932817" lon="9.161822406671444"><ele>13.0</ele><time>2026-04-04T16:03:00Z</time></trkpt><trkpt lat="39.26644090672522" lon="9.16153461677048"><ele>14.0</ele><time>2026-04-04T16:03:01Z</time></trkpt><trkpt lat="39.266525309554964" lon="9.161244011777784"><ele>15.0</ele><time>2026-04-04T16:03:02Z</time></trkpt><trkpt lat="39.26661165385253" lon="9.160948625450855"><ele>15.0</ele><time>2026-04-04T16:03:03Z</time></trkpt><trkpt lat="39.2666973996271" lon="9.160658467064843"><ele>15.0</ele><time>2026-04-04T16:03:04Z</time></trkpt><trkpt lat="39.266781354470126" lon="9.160363034642717"><ele>15.0</ele><time>2026-04-04T16:03:05Z</time></trkpt><trkpt lat="39.26686493960749" lon="9.160068154936562"><ele>15.0</ele><time>2026-04-04T16:03:06Z</time></trkpt><trkpt lat="39.266949536203654" lon="9.159769731010197"><ele>16.0</ele><time>2026-04-04T16:03:07Z</time></trkpt><trkpt lat="39.267035208231235" lon="9.159470069467941"><ele>17.0</ele><time>2026-04-04T16:03:08Z</time></trkpt><trkpt lat="39.267118927290866" lon="9.159181145741549"><ele>17.5</ele><time>2026-04-04T16:03:09Z</time></trkpt><trkpt lat="39.267201282224235" lon="9.158894775145434"><ele>18.0</ele><time>2026-04-04T16:03:10Z</time></trkpt><trkpt lat="39.26728249247474" lon="9.158611362718139"><ele>18.0</ele><time>2026-04-04T16:03:11Z</time></trkpt><trkpt lat="39.26735820816473" lon="9.15834564938345"><ele>18.0</ele><time>2026-04-04T16:03:12Z</time></trkpt><trkpt lat="39.26743251788517" lon="9.158085150520732"><ele>18.0</ele><time>2026-04-04T16:03:13Z</time></trkpt><trkpt lat="39.26750950928928" lon="9.15783002169256"><ele>18.0</ele><time>2026-04-04T16:03:14Z</time></trkpt><trkpt lat="39.26758936895107" lon="9.157562847294482"><ele>18.0</ele><time>2026-04-04T16:03:15Z</time></trkpt><trkpt lat="39.26766715116844" lon="9.15729346827239"><ele>18.0</ele><time>2026-04-04T16:03:16Z</time></trkpt><trkpt lat="39.26774522025613" lon="9.157021455642727"><ele>18.0</ele><time>2026-04-04T16:03:17Z</time></trkpt><trkpt lat="39.26782165040339" lon="9.156752065354071"><ele>18.0</ele><time>2026-04-04T16:03:18Z</time></trkpt><trkpt lat="39.267898406787765" lon="9.156483838256955"><ele>18.0</ele><time>2026-04-04T16:03:19Z</time></trkpt><trkpt lat="39.26797047954543" lon="9.156215736477613"><ele>18.0</ele><time>2026-04-04T16:03:20Z</time></trkpt><trkpt lat="39.26803379771682" lon="9.155936484260906"><ele>18.0</ele><time>2026-04-04T16:03:21Z</time></trkpt><trkpt lat="39.26808238213005" lon="9.155650067641094"><ele>18.333333333333332</ele><time>2026-04-04T16:03:22Z</time></trkpt><trkpt lat="39.268116434060815" lon="9.155357561138763"><ele>18.666666666666664</ele><time>2026-04-04T16:03:23Z</time></trkpt><trkpt lat="39.26813389953884" lon="9.155094520727006"><ele>19.0</ele><time>2026-04-04T16:03:24Z</time></trkpt><trkpt lat="39.26814031812258" lon="9.154855593422296"><ele>19.333333333333332</ele><time>2026-04-04T16:03:25Z</time></trkpt><trkpt lat="39.268137872890996" lon="9.154635707512773"><ele>19.666666666666668</ele><time>2026-04-04T16:03:26Z</time></trkpt><trkpt lat="39.26812899462321" lon="9.154438717889498"><ele>20.0</ele><time>2026-04-04T16:03:27Z</time></trkpt><trkpt lat="39.26811533774224" lon="9.154246742431589"><ele>20.0</ele><time>2026-04-04T16:03:28Z</time></trkpt><trkpt lat="39.26810186584443" lon="9.154079956108944"><ele>20.0</ele><time>2026-04-04T16:03:29Z</time></trkpt><trkpt lat="39.26808707364893" lon="9.153929812101314"><ele>20.0</ele><time>2026-04-04T16:03:30Z</time></trkpt><trkpt lat="39.268073942946366" lon="9.153807861196208"><ele>20.0</ele><time>2026-04-04T16:03:31Z</time></trkpt><trkpt lat="39.268062840784104" lon="9.153718637383538"><ele>20.0</ele><time>2026-04-04T16:03:32Z</time></trkpt><trkpt lat="39.268051980366586" lon="9.153604623512583"><ele>20.0</ele><time>2026-04-04T16:03:34Z</time></trkpt><trkpt lat="39.26804718712272" lon="9.153500061378043"><ele>20.0</ele><time>2026-04-04T16:04:17.999Z</time></trkpt><trkpt lat="39.268038879245935" lon="9.153414287001333"><ele>20.0</ele><time>2026-04-04T16:04:19.999Z</time></trkpt><trkpt lat="39.268024581424335" lon="9.153294064964292"><ele>20.0</ele><time>2026-04-04T16:04:21.999Z</time></trkpt><trkpt lat="39.26801343272289" lon="9.153209995912407"><ele>20.0</ele><time>2026-04-04T16:04:22.999Z</time></trkpt><trkpt lat="39.2679998522283" lon="9.153065175928587"><ele>20.0</ele><time>2026-04-04T16:04:24.999Z</time></trkpt><trkpt lat="39.26798484700821" lon="9.152909964687163"><ele>19.8</ele><time>2026-04-04T16:04:26.999Z</time></trkpt><trkpt lat="39.26796744455208" lon="9.15276935417522"><ele>19.6</ele><time>2026-04-04T16:04:28.999Z</time></trkpt><trkpt lat="39.267950836629446" lon="9.152621209710311"><ele>19.4</ele><time>2026-04-04T16:04:30.999Z</time></trkpt><trkpt lat="39.267937904352685" lon="9.152479233019534"><ele>19.2</ele><time>2026-04-04T16:04:32.999Z</time></trkpt><trkpt lat="39.26792684444079" lon="9.152382952041103"><ele>19.0</ele><time>2026-04-04T16:04:35.999Z</time></trkpt><trkpt lat="39.26792499768177" lon="9.152293072976704"><ele>18.666666666666664</ele><time>2026-04-04T16:05:42Z</time></trkpt><trkpt lat="39.26791445783147" lon="9.152197755938507"><ele>18.333333333333332</ele><time>2026-04-04T16:05:45Z</time></trkpt><trkpt lat="39.26789676023799" lon="9.15203691125985"><ele>18.0</ele><time>2026-04-04T16:05:47Z</time></trkpt><trkpt lat="39.26788991184479" lon="9.151955820727078"><ele>17.666666666666668</ele><time>2026-04-04T16:05:48Z</time></trkpt><trkpt lat="39.26787927259161" lon="9.151867083385094"><ele>17.333333333333336</ele><time>2026-04-04T16:05:49Z</time></trkpt><trkpt lat="39.2678649442345" lon="9.151773275215984"><ele>17.0</ele><time>2026-04-04T16:05:50Z</time></trkpt><trkpt lat="39.267852104724454" lon="9.151672304267171"><ele>17.0</ele><time>2026-04-04T16:05:51Z</time></trkpt><trkpt lat="39.26783364133204" lon="9.151542232656057"><ele>17.0</ele><time>2026-04-04T16:05:52Z</time></trkpt><trkpt lat="39.26780714710684" lon="9.151355589884368"><ele>17.0</ele><time>2026-04-04T16:05:53Z</time></trkpt><trkpt lat="39.26778128835565" lon="9.151128799751897"><ele>17.0</ele><time>2026-04-04T16:05:54Z</time></trkpt><trkpt lat="39.26775652131412" lon="9.150904810647903"><ele>17.0</ele><time>2026-04-04T16:05:55Z</time></trkpt><trkpt lat="39.26773292155128" lon="9.150653704228098"><ele>17.0</ele><time>2026-04-04T16:05:56Z</time></trkpt><trkpt lat="39.26770719562179" lon="9.150391216210721"><ele>17.0</ele><time>2026-04-04T16:05:57Z</time></trkpt><trkpt lat="39.2676824416" lon="9.150137461010733"><ele>17.0</ele><time>2026-04-04T16:05:58Z</time></trkpt><trkpt lat="39.267656969673645" lon="9.149880095235176"><ele>17.0</ele><time>2026-04-04T16:05:59Z</time></trkpt><trkpt lat="39.2676346726275" lon="9.14963341977349"><ele>17.0</ele><time>2026-04-04T16:06:00Z</time></trkpt><trkpt lat="39.26761391354185" lon="9.149404735072032"><ele>17.0</ele><time>2026-04-04T16:06:01Z</time></trkpt><trkpt lat="39.267590726970745" lon="9.14916952828823"><ele>17.0</ele><time>2026-04-04T16:06:02Z</time></trkpt><trkpt lat="39.26756537123849" lon="9.148929495136024"><ele>17.0</ele><time>2026-04-04T16:06:03Z</time></trkpt><trkpt lat="39.26753779704866" lon="9.148683430442375"><ele>17.333333333333336</ele><time>2026-04-04T16:06:04Z</time></trkpt><trkpt lat="39.26751300498437" lon="9.148445923540274"><ele>17.666666666666668</ele><time>2026-04-04T16:06:05Z</time></trkpt><trkpt lat="39.26748835469943" lon="9.148199572276878"><ele>18.0</ele><time>2026-04-04T16:06:06Z</time></trkpt><trkpt lat="39.26746280132211" lon="9.147944287105107"><ele>18.0</ele><time>2026-04-04T16:06:07Z</time></trkpt><trkpt lat="39.26743682713587" lon="9.147679038632287"><ele>18.0</ele><time>2026-04-04T16:06:08Z</time></trkpt><trkpt lat="39.267410805107716" lon="9.147417167687086"><ele>18.0</ele><time>2026-04-04T16:06:09Z</time></trkpt><trkpt lat="39.26738570871463" lon="9.147162390029303"><ele>18.0</ele><time>2026-04-04T16:06:10Z</time></trkpt><trkpt lat="39.26736035280127" lon="9.146902671375697"><ele>18.0</ele><time>2026-04-04T16:06:11Z</time></trkpt><trkpt lat="39.26733464672578" lon="9.146642940356621"><ele>18.0</ele><time>2026-04-04T16:06:12Z</time></trkpt><trkpt lat="39.26730863605427" lon="9.14638165125372"><ele>18.0</ele><time>2026-04-04T16:06:13Z</time></trkpt><trkpt lat="39.26728346253234" lon="9.146130965572503"><ele>18.0</ele><time>2026-04-04T16:06:14Z</time></trkpt><trkpt lat="39.267258722619495" lon="9.145888687199816"><ele>18.0</ele><time>2026-04-04T16:06:15Z</time></trkpt><trkpt lat="39.267232808462985" lon="9.145632850245788"><ele>18.0</ele><time>2026-04-04T16:06:16Z</time></trkpt><trkpt lat="39.2672078845467" lon="9.145377463117779"><ele>18.0</ele><time>2026-04-04T16:06:17Z</time></trkpt><trkpt lat="39.26718224910484" lon="9.145123045835032"><ele>18.0</ele><time>2026-04-04T16:06:18Z</time></trkpt><trkpt lat="39.267155495373395" lon="9.144866376593388"><ele>18.0</ele><time>2026-04-04T16:06:19Z</time></trkpt><trkpt lat="39.26712981501885" lon="9.144621944080361"><ele>18.0</ele><time>2026-04-04T16:06:20Z</time></trkpt><trkpt lat="39.26710658238227" lon="9.144384866143627"><ele>18.0</ele><time>2026-04-04T16:06:21Z</time></trkpt><trkpt lat="39.26708348090867" lon="9.144141217022298"><ele>17.666666666666668</ele><time>2026-04-04T16:06:22Z</time></trkpt><trkpt lat="39.26706209359597" lon="9.143897995781764"><ele>17.333333333333336</ele><time>2026-04-04T16:06:23Z</time></trkpt><trkpt lat="39.2670422540457" lon="9.14365065987739"><ele>17.0</ele><time>2026-04-04T16:06:24Z</time></trkpt><trkpt lat="39.26702359743498" lon="9.143403664978552"><ele>16.333333333333336</ele><time>2026-04-04T16:06:25Z</time></trkpt><trkpt lat="39.26700472746808" lon="9.14316317240758"><ele>15.666666666666668</ele><time>2026-04-04T16:06:26Z</time></trkpt><trkpt lat="39.2669830363419" lon="9.142923583404562"><ele>15.0</ele><time>2026-04-04T16:06:27Z</time></trkpt><trkpt lat="39.26695989243982" lon="9.142688196413168"><ele>15.0</ele><time>2026-04-04T16:06:28Z</time></trkpt><trkpt lat="39.26693543963759" lon="9.142445315243865"><ele>15.0</ele><time>2026-04-04T16:06:29Z</time></trkpt><trkpt lat="39.266910279704426" lon="9.142202631691767"><ele>15.0</ele><time>2026-04-04T16:06:30Z</time></trkpt><trkpt lat="39.26688581746453" lon="9.141955375990603"><ele>15.0</ele><time>2026-04-04T16:06:31Z</time></trkpt><trkpt lat="39.26686195510199" lon="9.14170650432096"><ele>15.0</ele><time>2026-04-04T16:06:32Z</time></trkpt><trkpt lat="39.26683788560184" lon="9.14147106203066"><ele>15.0</ele><time>2026-04-04T16:06:33Z</time></trkpt><trkpt lat="39.2668106319225" lon="9.141235364507004"><ele>15.0</ele><time>2026-04-04T16:06:34Z</time></trkpt><trkpt lat="39.26677614815184" lon="9.140987865829286"><ele>15.0</ele><time>2026-04-04T16:06:35Z</time></trkpt><trkpt lat="39.26674369029153" lon="9.140742045206641"><ele>15.0</ele><time>2026-04-04T16:06:36Z</time></trkpt><trkpt lat="39.266722553606904" lon="9.140533503183335"><ele>15.25</ele><time>2026-04-04T16:06:37Z</time></trkpt><trkpt lat="39.26670470358452" lon="9.140338974008712"><ele>15.5</ele><time>2026-04-04T16:06:38Z</time></trkpt><trkpt lat="39.26668574934488" lon="9.140157427069049"><ele>15.75</ele><time>2026-04-04T16:06:39Z</time></trkpt><trkpt lat="39.26666937960084" lon="9.139989102162865"><ele>16.0</ele><time>2026-04-04T16:06:40Z</time></trkpt><trkpt lat="39.26665639729659" lon="9.139854461377016"><ele>16.0</ele><time>2026-04-04T16:06:41Z</time></trkpt><trkpt lat="39.266646955552424" lon="9.139755533683557"><ele>16.0</ele><time>2026-04-04T16:06:42Z</time></trkpt><trkpt lat="39.26663260306818" lon="9.139622240844083"><ele>16.0</ele><time>2026-04-04T16:06:44Z</time></trkpt><trkpt lat="39.26662722216249" lon="9.13951595263579"><ele>16.0</ele><time>2026-04-04T16:06:46Z</time></trkpt><trkpt lat="39.266610820539086" lon="9.139357309673084"><ele>16.0</ele><time>2026-04-04T16:06:48Z</time></trkpt><trkpt lat="39.26659740351345" lon="9.139249079299915"><ele>16.0</ele><time>2026-04-04T16:06:49Z</time></trkpt><trkpt lat="39.26658576600378" lon="9.139129980548274"><ele>16.0</ele><time>2026-04-04T16:06:50Z</time></trkpt><trkpt lat="39.266573643342156" lon="9.138987987382082"><ele>16.0</ele><time>2026-04-04T16:06:51Z</time></trkpt><trkpt lat="39.266560382123515" lon="9.138848404215684"><ele>16.0</ele><time>2026-04-04T16:06:52Z</time></trkpt><trkpt lat="39.26654363850301" lon="9.138692606022738"><ele>16.0</ele><time>2026-04-04T16:06:53Z</time></trkpt><trkpt lat="39.26652585544336" lon="9.13852213269654"><ele>16.0</ele><time>2026-04-04T16:06:54Z</time></trkpt><trkpt lat="39.266508876844185" lon="9.138340480911818"><ele>16.0</ele><time>2026-04-04T16:06:55Z</time></trkpt><trkpt lat="39.266491694041285" lon="9.138158395226492"><ele>16.0</ele><time>2026-04-04T16:06:56Z</time></trkpt><trkpt lat="39.2664736432071" lon="9.137973387805907"><ele>16.0</ele><time>2026-04-04T16:06:57Z</time></trkpt><trkpt lat="39.26645465492845" lon="9.137778863995866"><ele>16.333333333333332</ele><time>2026-04-04T16:06:58Z</time></trkpt><trkpt lat="39.266433212555164" lon="9.137575738841967"><ele>16.666666666666668</ele><time>2026-04-04T16:06:59Z</time></trkpt><trkpt lat="39.266411310866616" lon="9.137359856145824"><ele>17.0</ele><time>2026-04-04T16:07:00Z</time></trkpt><trkpt lat="39.266389018260014" lon="9.13713301579235"><ele>16.666666666666668</ele><time>2026-04-04T16:07:01Z</time></trkpt><trkpt lat="39.2663653813853" lon="9.136903267323039"><ele>16.333333333333332</ele><time>2026-04-04T16:07:02Z</time></trkpt><trkpt lat="39.266342467416415" lon="9.136678359919896"><ele>16.0</ele><time>2026-04-04T16:07:03Z</time></trkpt><trkpt lat="39.26632007396831" lon="9.136459060469685"><ele>16.0</ele><time>2026-04-04T16:07:04Z</time></trkpt><trkpt lat="39.26629768296259" lon="9.136234961370695"><ele>16.0</ele><time>2026-04-04T16:07:05Z</time></trkpt><trkpt lat="39.26627570055753" lon="9.136008175641065"><ele>16.0</ele><time>2026-04-04T16:07:06Z</time></trkpt><trkpt lat="39.26625354775397" lon="9.135780376486672"><ele>16.333333333333332</ele><time>2026-04-04T16:07:07Z</time></trkpt><trkpt lat="39.266229323735274" lon="9.135550436913858"><ele>16.666666666666668</ele><time>2026-04-04T16:07:08Z</time></trkpt><trkpt lat="39.26620503867289" lon="9.135313734438395"><ele>17.0</ele><time>2026-04-04T16:07:09Z</time></trkpt><trkpt lat="39.266180131230165" lon="9.135064646960736"><ele>17.0</ele><time>2026-04-04T16:07:10Z</time></trkpt><trkpt lat="39.266156503097534" lon="9.134818087728403"><ele>17.0</ele><time>2026-04-04T16:07:11Z</time></trkpt><trkpt lat="39.266130877791305" lon="9.134581512375751"><ele>17.0</ele><time>2026-04-04T16:07:12Z</time></trkpt><trkpt lat="39.26610844874703" lon="9.13435114746102"><ele>17.0</ele><time>2026-04-04T16:07:13Z</time></trkpt><trkpt lat="39.26608494672717" lon="9.134113402894071"><ele>17.0</ele><time>2026-04-04T16:07:14Z</time></trkpt><trkpt lat="39.26606162420353" lon="9.133877137550696"><ele>17.0</ele><time>2026-04-04T16:07:15Z</time></trkpt><trkpt lat="39.26603688545556" lon="9.133634504495017"><ele>17.666666666666668</ele><time>2026-04-04T16:07:16Z</time></trkpt><trkpt lat="39.2660127808956" lon="9.13338881629873"><ele>18.333333333333332</ele><time>2026-04-04T16:07:17Z</time></trkpt><trkpt lat="39.26598962411237" lon="9.133142970461064"><ele>19.0</ele><time>2026-04-04T16:07:18Z</time></trkpt><trkpt lat="39.26596550418595" lon="9.132894010274622"><ele>19.0</ele><time>2026-04-04T16:07:19Z</time></trkpt><trkpt lat="39.26594072325972" lon="9.132639632317172"><ele>19.0</ele><time>2026-04-04T16:07:20Z</time></trkpt><trkpt lat="39.265916948942156" lon="9.13238263094114"><ele>19.0</ele><time>2026-04-04T16:07:21Z</time></trkpt><trkpt lat="39.26589409958194" lon="9.132120498502124"><ele>19.0</ele><time>2026-04-04T16:07:22Z</time></trkpt><trkpt lat="39.26587261542962" lon="9.13186085022075"><ele>19.0</ele><time>2026-04-04T16:07:23Z</time></trkpt><trkpt lat="39.26585111114744" lon="9.131585596914315"><ele>19.0</ele><time>2026-04-04T16:07:24Z</time></trkpt><trkpt lat="39.2658286086839" lon="9.13131534711626"><ele>19.0</ele><time>2026-04-04T16:07:25Z</time></trkpt><trkpt lat="39.26580359638128" lon="9.131039373699682"><ele>19.0</ele><time>2026-04-04T16:07:26Z</time></trkpt><trkpt lat="39.2657736893296" lon="9.130761771952187"><ele>19.0</ele><time>2026-04-04T16:07:27Z</time></trkpt><trkpt lat="39.2657439770498" lon="9.130480623209282"><ele>19.0</ele><time>2026-04-04T16:07:28Z</time></trkpt><trkpt lat="39.26571638313447" lon="9.130201476608319"><ele>19.0</ele><time>2026-04-04T16:07:29Z</time></trkpt><trkpt lat="39.265690559865085" lon="9.129923360934889"><ele>19.0</ele><time>2026-04-04T16:07:30Z</time></trkpt><trkpt lat="39.26566566166896" lon="9.12964999670804"><ele>19.666666666666664</ele><time>2026-04-04T16:07:31Z</time></trkpt><trkpt lat="39.26563994777751" lon="9.129374749914511"><ele>20.333333333333332</ele><time>2026-04-04T16:07:32Z</time></trkpt><trkpt lat="39.265615397370006" lon="9.1290979750219"><ele>21.0</ele><time>2026-04-04T16:07:33Z</time></trkpt><trkpt lat="39.26558749670942" lon="9.128822069800263"><ele>21.666666666666668</ele><time>2026-04-04T16:07:34Z</time></trkpt><trkpt lat="39.26555965689288" lon="9.128547174395557"><ele>22.333333333333336</ele><time>2026-04-04T16:07:35Z</time></trkpt><trkpt lat="39.26553308915941" lon="9.128270498557397"><ele>23.0</ele><time>2026-04-04T16:07:36Z</time></trkpt><trkpt lat="39.26550828051898" lon="9.128000579669045"><ele>23.333333333333336</ele><time>2026-04-04T16:07:37Z</time></trkpt><trkpt lat="39.26548214451956" lon="9.12773587387917"><ele>23.666666666666668</ele><time>2026-04-04T16:07:38Z</time></trkpt><trkpt lat="39.26545428000324" lon="9.127466006321843"><ele>24.0</ele><time>2026-04-04T16:07:39Z</time></trkpt><trkpt lat="39.265420283639656" lon="9.127194100366184"><ele>25.666666666666664</ele><time>2026-04-04T16:07:40Z</time></trkpt><trkpt lat="39.265392875233815" lon="9.12690966065997"><ele>27.333333333333332</ele><time>2026-04-04T16:07:41Z</time></trkpt><trkpt lat="39.265366880177986" lon="9.126630356241686"><ele>29.0</ele><time>2026-04-04T16:07:42Z</time></trkpt><trkpt lat="39.2653414521664" lon="9.126351004855627"><ele>29.0</ele><time>2026-04-04T16:07:43Z</time></trkpt><trkpt lat="39.26531567120538" lon="9.126070809860042"><ele>29.0</ele><time>2026-04-04T16:07:44Z</time></trkpt><trkpt lat="39.26528768519287" lon="9.125790562145855"><ele>29.0</ele><time>2026-04-04T16:07:45Z</time></trkpt><trkpt lat="39.26526019623007" lon="9.125510191640752"><ele>29.333333333333332</ele><time>2026-04-04T16:07:46Z</time></trkpt><trkpt lat="39.26523403884757" lon="9.12522793623502"><ele>29.666666666666664</ele><time>2026-04-04T16:07:47Z</time></trkpt><trkpt lat="39.2652092729259" lon="9.124945728853826"><ele>30.0</ele><time>2026-04-04T16:07:48Z</time></trkpt><trkpt lat="39.265184458440366" lon="9.124663060342504"><ele>31.333333333333336</ele><time>2026-04-04T16:07:49Z</time></trkpt><trkpt lat="39.26515802388289" lon="9.12437661219132"><ele>32.66666666666667</ele><time>2026-04-04T16:07:50Z</time></trkpt><trkpt lat="39.265134941673686" lon="9.124092028279263"><ele>34.0</ele><time>2026-04-04T16:07:51Z</time></trkpt><trkpt lat="39.26511508270566" lon="9.123810631582074"><ele>34.0</ele><time>2026-04-04T16:07:52Z</time></trkpt><trkpt lat="39.26509560731319" lon="9.123543413071543"><ele>34.0</ele><time>2026-04-04T16:07:53Z</time></trkpt><trkpt lat="39.26507630315706" lon="9.123271668906652"><ele>34.0</ele><time>2026-04-04T16:07:54Z</time></trkpt><trkpt lat="39.26505759022265" lon="9.122994401174491"><ele>34.0</ele><time>2026-04-04T16:07:55Z</time></trkpt><trkpt lat="39.265039132759654" lon="9.122717172044032"><ele>34.0</ele><time>2026-04-04T16:07:56Z</time></trkpt><trkpt lat="39.2650207580828" lon="9.122441507393036"><ele>34.0</ele><time>2026-04-04T16:07:57Z</time></trkpt><trkpt lat="39.264999811207694" lon="9.1221659429972"><ele>34.0</ele><time>2026-04-04T16:07:58Z</time></trkpt><trkpt lat="39.26497853821966" lon="9.121893283434758"><ele>34.0</ele><time>2026-04-04T16:07:59Z</time></trkpt><trkpt lat="39.264956299016546" lon="9.12163166916599"><ele>34.0</ele><time>2026-04-04T16:08:00Z</time></trkpt><trkpt lat="39.264939399175965" lon="9.121364911629842"><ele>34.0</ele><time>2026-04-04T16:08:01Z</time></trkpt><trkpt lat="39.26492131398941" lon="9.121089938281074"><ele>34.0</ele><time>2026-04-04T16:08:02Z</time></trkpt><trkpt lat="39.264902563257486" lon="9.120807359368117"><ele>34.0</ele><time>2026-04-04T16:08:03Z</time></trkpt><trkpt lat="39.26488327763526" lon="9.12052414620937"><ele>34.0</ele><time>2026-04-04T16:08:04Z</time></trkpt><trkpt lat="39.26486330539806" lon="9.120240350433761"><ele>34.0</ele><time>2026-04-04T16:08:05Z</time></trkpt><trkpt lat="39.264842583355914" lon="9.119958389069891"><ele>34.0</ele><time>2026-04-04T16:08:06Z</time></trkpt><trkpt lat="39.264823349571365" lon="9.119688957970181"><ele>33.66666666666667</ele><time>2026-04-04T16:08:07Z</time></trkpt><trkpt lat="39.26480547103383" lon="9.119434962267226"><ele>33.333333333333336</ele><time>2026-04-04T16:08:08Z</time></trkpt><trkpt lat="39.264788288411786" lon="9.119189219116866"><ele>33.0</ele><time>2026-04-04T16:08:09Z</time></trkpt><trkpt lat="39.26476878955566" lon="9.118936403800936"><ele>32.666666666666664</ele><time>2026-04-04T16:08:10Z</time></trkpt><trkpt lat="39.26474659743988" lon="9.118677800259805"><ele>32.33333333333333</ele><time>2026-04-04T16:08:11Z</time></trkpt><trkpt lat="39.2647171873336" lon="9.118400576640335"><ele>32.0</ele><time>2026-04-04T16:08:12Z</time></trkpt><trkpt lat="39.2646783591956" lon="9.118103562438447"><ele>32.0</ele><time>2026-04-04T16:08:13Z</time></trkpt><trkpt lat="39.26463027136317" lon="9.117793111221507"><ele>32.0</ele><time>2026-04-04T16:08:14Z</time></trkpt><trkpt lat="39.26457195310008" lon="9.117471692350762"><ele>31.0</ele><time>2026-04-04T16:08:15Z</time></trkpt><trkpt lat="39.264502836138135" lon="9.117142325655609"><ele>30.0</ele><time>2026-04-04T16:08:16Z</time></trkpt><trkpt lat="39.26442955131394" lon="9.116806148183521"><ele>30.0</ele><time>2026-04-04T16:08:17Z</time></trkpt><trkpt lat="39.264357105024025" lon="9.116480728004989"><ele>30.0</ele><time>2026-04-04T16:08:18Z</time></trkpt><trkpt lat="39.264289032365234" lon="9.11617261496452"><ele>30.0</ele><time>2026-04-04T16:08:19Z</time></trkpt><trkpt lat="39.26422168993647" lon="9.11587297152515"><ele>30.0</ele><time>2026-04-04T16:08:20Z</time></trkpt><trkpt lat="39.26415603563839" lon="9.115575678900951"><ele>29.0</ele><time>2026-04-04T16:08:21Z</time></trkpt><trkpt lat="39.2640887379743" lon="9.115275243391578"><ele>28.0</ele><time>2026-04-04T16:08:22Z</time></trkpt><trkpt lat="39.264023058231004" lon="9.114976158877326"><ele>28.0</ele><time>2026-04-04T16:08:23Z</time></trkpt><trkpt lat="39.263957858105094" lon="9.114680409999487"><ele>28.0</ele><time>2026-04-04T16:08:24Z</time></trkpt><trkpt lat="39.26389401485629" lon="9.114389238567748"><ele>28.0</ele><time>2026-04-04T16:08:25Z</time></trkpt><trkpt lat="39.263829545372154" lon="9.11409923231785"><ele>28.0</ele><time>2026-04-04T16:08:26Z</time></trkpt><trkpt lat="39.26376704240573" lon="9.113818488114893"><ele>28.0</ele><time>2026-04-04T16:08:27Z</time></trkpt><trkpt lat="39.26370558112265" lon="9.113546880494551"><ele>28.0</ele><time>2026-04-04T16:08:28Z</time></trkpt><trkpt lat="39.26364483804157" lon="9.113273290591025"><ele>28.0</ele><time>2026-04-04T16:08:29Z</time></trkpt><trkpt lat="39.26358592962828" lon="9.112998627407633"><ele>27.666666666666668</ele><time>2026-04-04T16:08:30Z</time></trkpt><trkpt lat="39.26352707068848" lon="9.112725975118233"><ele>27.333333333333336</ele><time>2026-04-04T16:08:31Z</time></trkpt><trkpt lat="39.26346805561232" lon="9.112459372214271"><ele>27.0</ele><time>2026-04-04T16:08:32Z</time></trkpt><trkpt lat="39.26341500347363" lon="9.112210500447434"><ele>27.0</ele><time>2026-04-04T16:08:33Z</time></trkpt><trkpt lat="39.26336167362753" lon="9.111977399118901"><ele>27.0</ele><time>2026-04-04T16:08:34Z</time></trkpt><trkpt lat="39.26330645418072" lon="9.111763327368335"><ele>27.0</ele><time>2026-04-04T16:08:35Z</time></trkpt><trkpt lat="39.2632441659334" lon="9.111567784967228"><ele>26.666666666666664</ele><time>2026-04-04T16:08:36Z</time></trkpt><trkpt lat="39.26316637755761" lon="9.111390403214523"><ele>26.333333333333332</ele><time>2026-04-04T16:08:37Z</time></trkpt><trkpt lat="39.26306310320307" lon="9.11122479125529"><ele>26.0</ele><time>2026-04-04T16:08:38Z</time></trkpt><trkpt lat="39.26293529437577" lon="9.111072599672841"><ele>26.0</ele><time>2026-04-04T16:08:39Z</time></trkpt><trkpt lat="39.26278579760706" lon="9.110949210445975"><ele>26.0</ele><time>2026-04-04T16:08:40Z</time></trkpt><trkpt lat="39.262619887512834" lon="9.110858087344099"><ele>26.0</ele><time>2026-04-04T16:08:41Z</time></trkpt><trkpt lat="39.26244181301558" lon="9.110797688804796"><ele>26.0</ele><time>2026-04-04T16:08:42Z</time></trkpt><trkpt lat="39.262255606318064" lon="9.110746336259082"><ele>26.0</ele><time>2026-04-04T16:08:43Z</time></trkpt><trkpt lat="39.26206298489067" lon="9.110676083385645"><ele>26.0</ele><time>2026-04-04T16:08:44Z</time></trkpt><trkpt lat="39.26187319235893" lon="9.110608555220324"><ele>26.0</ele><time>2026-04-04T16:08:45Z</time></trkpt><trkpt lat="39.26168061291207" lon="9.110540617902252"><ele>26.0</ele><time>2026-04-04T16:08:46Z</time></trkpt><trkpt lat="39.26149289553756" lon="9.110471419381035"><ele>26.0</ele><time>2026-04-04T16:08:47Z</time></trkpt><trkpt lat="39.261321636312395" lon="9.110400107430541"><ele>26.333333333333332</ele><time>2026-04-04T16:08:48Z</time></trkpt><trkpt lat="39.26116228848796" lon="9.110313163178958"><ele>26.666666666666664</ele><time>2026-04-04T16:08:49Z</time></trkpt><trkpt lat="39.26100832425316" lon="9.110194122236262"><ele>27.0</ele><time>2026-04-04T16:08:50Z</time></trkpt><trkpt lat="39.260863128158775" lon="9.110043579710712"><ele>27.0</ele><time>2026-04-04T16:08:51Z</time></trkpt><trkpt lat="39.26073296275624" lon="9.109867285074428"><ele>27.0</ele><time>2026-04-04T16:08:52Z</time></trkpt><trkpt lat="39.260619861717394" lon="9.109668581099783"><ele>27.0</ele><time>2026-04-04T16:08:53Z</time></trkpt><trkpt lat="39.2605266535043" lon="9.10944647269869"><ele>27.333333333333336</ele><time>2026-04-04T16:08:54Z</time></trkpt><trkpt lat="39.26045340183493" lon="9.109208336710326"><ele>27.666666666666668</ele><time>2026-04-04T16:08:55Z</time></trkpt><trkpt lat="39.26038353936875" lon="9.108964812164244"><ele>28.0</ele><time>2026-04-04T16:08:56Z</time></trkpt><trkpt lat="39.2603043779237" lon="9.108712023183976"><ele>28.333333333333336</ele><time>2026-04-04T16:08:57Z</time></trkpt><trkpt lat="39.26022663474959" lon="9.108454992215739"><ele>28.666666666666664</ele><time>2026-04-04T16:08:58Z</time></trkpt><trkpt lat="39.26015238515469" lon="9.108189002249953"><ele>29.0</ele><time>2026-04-04T16:08:59Z</time></trkpt><trkpt lat="39.26007861831363" lon="9.10792272580824"><ele>29.0</ele><time>2026-04-04T16:09:00Z</time></trkpt><trkpt lat="39.260007020876486" lon="9.107660416384078"><ele>29.0</ele><time>2026-04-04T16:09:01Z</time></trkpt><trkpt lat="39.25993765293831" lon="9.107404866829013"><ele>29.0</ele><time>2026-04-04T16:09:02Z</time></trkpt><trkpt lat="39.25986707468889" lon="9.107146366411245"><ele>29.0</ele><time>2026-04-04T16:09:03Z</time></trkpt><trkpt lat="39.25979808818755" lon="9.106889374753834"><ele>29.0</ele><time>2026-04-04T16:09:04Z</time></trkpt><trkpt lat="39.25972729591439" lon="9.106627339266339"><ele>29.0</ele><time>2026-04-04T16:09:05Z</time></trkpt><trkpt lat="39.259657984323454" lon="9.106369520943055"><ele>29.666666666666664</ele><time>2026-04-04T16:09:06Z</time></trkpt><trkpt lat="39.259589479921985" lon="9.106112793629322"><ele>30.333333333333336</ele><time>2026-04-04T16:09:07Z</time></trkpt><trkpt lat="39.259523753639" lon="9.105869521370968"><ele>31.0</ele><time>2026-04-04T16:09:08Z</time></trkpt><trkpt lat="39.259460207795115" lon="9.105633447342779"><ele>31.0</ele><time>2026-04-04T16:09:09Z</time></trkpt><trkpt lat="39.25940441644908" lon="9.105393822712616"><ele>31.0</ele><time>2026-04-04T16:09:10Z</time></trkpt><trkpt lat="39.25936256008029" lon="9.105154744401252"><ele>31.0</ele><time>2026-04-04T16:09:11Z</time></trkpt><trkpt lat="39.25934842058083" lon="9.104919322236759"><ele>30.666666666666668</ele><time>2026-04-04T16:09:12Z</time></trkpt><trkpt lat="39.25936268256037" lon="9.104687950739224"><ele>30.333333333333336</ele><time>2026-04-04T16:09:13Z</time></trkpt><trkpt lat="39.25939842733424" lon="9.104464222483596"><ele>30.0</ele><time>2026-04-04T16:09:14Z</time></trkpt><trkpt lat="39.25945744553334" lon="9.104241298972461"><ele>29.0</ele><time>2026-04-04T16:09:15Z</time></trkpt><trkpt lat="39.259537591376564" lon="9.1040197428058"><ele>28.0</ele><time>2026-04-04T16:09:16Z</time></trkpt><trkpt lat="39.25964620912572" lon="9.103795794822359"><ele>27.0</ele><time>2026-04-04T16:09:17Z</time></trkpt><trkpt lat="39.25974623876815" lon="9.103558666278431"><ele>25.666666666666668</ele><time>2026-04-04T16:09:18Z</time></trkpt><trkpt lat="39.259850806246654" lon="9.10331172298059"><ele>24.333333333333336</ele><time>2026-04-04T16:09:19Z</time></trkpt><trkpt lat="39.25994919572306" lon="9.103065863250597"><ele>23.0</ele><time>2026-04-04T16:09:20Z</time></trkpt><trkpt lat="39.26003479309466" lon="9.102834311279967"><ele>22.666666666666668</ele><time>2026-04-04T16:09:21Z</time></trkpt><trkpt lat="39.260094485299646" lon="9.102597566852847"><ele>22.333333333333332</ele><time>2026-04-04T16:09:22Z</time></trkpt><trkpt lat="39.26012157360185" lon="9.102353492376745"><ele>22.0</ele><time>2026-04-04T16:09:23Z</time></trkpt><trkpt lat="39.260124697346896" lon="9.10210155063771"><ele>22.0</ele><time>2026-04-04T16:09:24Z</time></trkpt><trkpt lat="39.26010794459221" lon="9.10184967592109"><ele>22.0</ele><time>2026-04-04T16:09:25Z</time></trkpt><trkpt lat="39.260067589752026" lon="9.101597926137218"><ele>22.0</ele><time>2026-04-04T16:09:26Z</time></trkpt><trkpt lat="39.26000936621586" lon="9.101344197609652"><ele>21.666666666666664</ele><time>2026-04-04T16:09:27Z</time></trkpt><trkpt lat="39.25995721308152" lon="9.101083731464975"><ele>21.333333333333332</ele><time>2026-04-04T16:09:28Z</time></trkpt><trkpt lat="39.2599096495089" lon="9.100818962010152"><ele>21.0</ele><time>2026-04-04T16:09:29Z</time></trkpt><trkpt lat="39.25985838630041" lon="9.100548358953521"><ele>21.0</ele><time>2026-04-04T16:09:30Z</time></trkpt><trkpt lat="39.25980561447309" lon="9.100272874436167"><ele>21.0</ele><time>2026-04-04T16:09:31Z</time></trkpt><trkpt lat="39.2597466479479" lon="9.099989481137557"><ele>21.0</ele><time>2026-04-04T16:09:32Z</time></trkpt><trkpt lat="39.25968591194869" lon="9.099703773283675"><ele>22.0</ele><time>2026-04-04T16:09:33Z</time></trkpt><trkpt lat="39.259626350886904" lon="9.099418621527084"><ele>23.0</ele><time>2026-04-04T16:09:34Z</time></trkpt><trkpt lat="39.25956517990167" lon="9.099130101727681"><ele>23.0</ele><time>2026-04-04T16:09:35Z</time></trkpt><trkpt lat="39.259505696882776" lon="9.098837819095646"><ele>23.0</ele><time>2026-04-04T16:09:36Z</time></trkpt><trkpt lat="39.25944556472536" lon="9.09854541709513"><ele>23.0</ele><time>2026-04-04T16:09:37Z</time></trkpt><trkpt lat="39.259385094193405" lon="9.09825289562671"><ele>23.0</ele><time>2026-04-04T16:09:38Z</time></trkpt><trkpt lat="39.25932558828732" lon="9.09796007032541"><ele>20.5</ele><time>2026-04-04T16:09:39Z</time></trkpt><trkpt lat="39.25926480364167" lon="9.097669707373472"><ele>18.0</ele><time>2026-04-04T16:09:40Z</time></trkpt><trkpt lat="39.25920689466781" lon="9.09739278551187"><ele>17.666666666666668</ele><time>2026-04-04T16:09:41Z</time></trkpt><trkpt lat="39.25915119985459" lon="9.097115137142245"><ele>17.333333333333336</ele><time>2026-04-04T16:09:42Z</time></trkpt><trkpt lat="39.259095665128015" lon="9.096841520987013"><ele>17.0</ele><time>2026-04-04T16:09:43Z</time></trkpt><trkpt lat="39.25903884112445" lon="9.096568975350417"><ele>17.0</ele><time>2026-04-04T16:09:44Z</time></trkpt><trkpt lat="39.2589828281201" lon="9.096297761700589"><ele>17.0</ele><time>2026-04-04T16:09:45Z</time></trkpt><trkpt lat="39.25892841613472" lon="9.096028131577922"><ele>17.0</ele><time>2026-04-04T16:09:46Z</time></trkpt><trkpt lat="39.2588797644164" lon="9.095761243992916"><ele>17.333333333333336</ele><time>2026-04-04T16:09:47Z</time></trkpt><trkpt lat="39.25884247944539" lon="9.095493369863219"><ele>17.666666666666668</ele><time>2026-04-04T16:09:48Z</time></trkpt><trkpt lat="39.25881845429879" lon="9.095220309763603"><ele>18.0</ele><time>2026-04-04T16:09:49Z</time></trkpt><trkpt lat="39.25881843443285" lon="9.094945647877065"><ele>17.0</ele><time>2026-04-04T16:09:50Z</time></trkpt><trkpt lat="39.25883489494239" lon="9.094665346990357"><ele>16.0</ele><time>2026-04-04T16:09:51Z</time></trkpt><trkpt lat="39.25886736307174" lon="9.094382069403116"><ele>15.0</ele><time>2026-04-04T16:09:52Z</time></trkpt><trkpt lat="39.25891889356272" lon="9.094106977189771"><ele>13.666666666666666</ele><time>2026-04-04T16:09:53Z</time></trkpt><trkpt lat="39.25899114065676" lon="9.093841128181658"><ele>12.333333333333332</ele><time>2026-04-04T16:09:54Z</time></trkpt><trkpt lat="39.25908478187812" lon="9.093584211329965"><ele>11.0</ele><time>2026-04-04T16:09:55Z</time></trkpt><trkpt lat="39.259194901174745" lon="9.093334842632933"><ele>12.0</ele><time>2026-04-04T16:09:56Z</time></trkpt><trkpt lat="39.25931976358436" lon="9.093092332507604"><ele>13.0</ele><time>2026-04-04T16:09:57Z</time></trkpt><trkpt lat="39.25945772382463" lon="9.092857876655147"><ele>13.0</ele><time>2026-04-04T16:09:58Z</time></trkpt><trkpt lat="39.25960539567742" lon="9.092630373427884"><ele>13.0</ele><time>2026-04-04T16:09:59Z</time></trkpt><trkpt lat="39.2597631701363" lon="9.092408417222606"><ele>11.5</ele><time>2026-04-04T16:10:00Z</time></trkpt><trkpt lat="39.259920890184006" lon="9.09218853388809"><ele>10.0</ele><time>2026-04-04T16:10:01Z</time></trkpt><trkpt lat="39.2600736345146" lon="9.091970687818645"><ele>10.0</ele><time>2026-04-04T16:10:02Z</time></trkpt><trkpt lat="39.26022734619098" lon="9.091748576676476"><ele>10.0</ele><time>2026-04-04T16:10:03Z</time></trkpt><trkpt lat="39.26037831329415" lon="9.091524941841673"><ele>10.5</ele><time>2026-04-04T16:10:04Z</time></trkpt><trkpt lat="39.26053095034397" lon="9.091294856901431"><ele>11.0</ele><time>2026-04-04T16:10:05Z</time></trkpt><trkpt lat="39.26068514038948" lon="9.091066749570764"><ele>10.0</ele><time>2026-04-04T16:10:06Z</time></trkpt><trkpt lat="39.260840680666405" lon="9.090839396822595"><ele>9.0</ele><time>2026-04-04T16:10:07Z</time></trkpt><trkpt lat="39.260996440191775" lon="9.09060972940783"><ele>8.5</ele><time>2026-04-04T16:10:08Z</time></trkpt><trkpt lat="39.261150838756734" lon="9.090381775033169"><ele>8.0</ele><time>2026-04-04T16:10:09Z</time></trkpt><trkpt lat="39.26130571250811" lon="9.090153267448956"><ele>8.0</ele><time>2026-04-04T16:10:10Z</time></trkpt><trkpt lat="39.26146005005781" lon="9.089928115850592"><ele>8.0</ele><time>2026-04-04T16:10:11Z</time></trkpt><trkpt lat="39.26161193619123" lon="9.089702940002942"><ele>7.666666666666666</ele><time>2026-04-04T16:10:12Z</time></trkpt><trkpt lat="39.26175348646141" lon="9.089479609552125"><ele>7.333333333333334</ele><time>2026-04-04T16:10:13Z</time></trkpt><trkpt lat="39.26187992242162" lon="9.08925165472926"><ele>7.0</ele><time>2026-04-04T16:10:14Z</time></trkpt><trkpt lat="39.26197205360566" lon="9.089022428507056"><ele>7.0</ele><time>2026-04-04T16:10:15Z</time></trkpt><trkpt lat="39.262039580154244" lon="9.088782525370698"><ele>7.0</ele><time>2026-04-04T16:10:16Z</time></trkpt><trkpt lat="39.262090740647736" lon="9.088530782976612"><ele>7.0</ele><time>2026-04-04T16:10:17Z</time></trkpt><trkpt lat="39.262121476507104" lon="9.088271874110704"><ele>7.0</ele><time>2026-04-04T16:10:18Z</time></trkpt><trkpt lat="39.2621337913391" lon="9.08801775248977"><ele>7.0</ele><time>2026-04-04T16:10:19Z</time></trkpt><trkpt lat="39.262123734806906" lon="9.087768291412411"><ele>7.0</ele><time>2026-04-04T16:10:20Z</time></trkpt><trkpt lat="39.26208858578206" lon="9.087516943434942"><ele>7.333333333333334</ele><time>2026-04-04T16:10:21Z</time></trkpt><trkpt lat="39.26203113486307" lon="9.087264069732964"><ele>7.666666666666666</ele><time>2026-04-04T16:10:22Z</time></trkpt><trkpt lat="39.26195133068239" lon="9.087017971857193"><ele>8.0</ele><time>2026-04-04T16:10:23Z</time></trkpt><trkpt lat="39.261854784450854" lon="9.08677924366123"><ele>9.333333333333332</ele><time>2026-04-04T16:10:24Z</time></trkpt><trkpt lat="39.261748533153984" lon="9.086551322373076"><ele>10.666666666666666</ele><time>2026-04-04T16:10:25Z</time></trkpt><trkpt lat="39.261635667235446" lon="9.086324171680248"><ele>12.0</ele><time>2026-04-04T16:10:26Z</time></trkpt><trkpt lat="39.261522458388036" lon="9.086100777483583"><ele>12.0</ele><time>2026-04-04T16:10:27Z</time></trkpt><trkpt lat="39.2614137317307" lon="9.08587742762626"><ele>12.0</ele><time>2026-04-04T16:10:28Z</time></trkpt><trkpt lat="39.26130831908998" lon="9.085657396966935"><ele>12.0</ele><time>2026-04-04T16:10:29Z</time></trkpt><trkpt lat="39.26120415052545" lon="9.085447212676627"><ele>12.333333333333332</ele><time>2026-04-04T16:10:30Z</time></trkpt><trkpt lat="39.261094334443186" lon="9.085251046287736"><ele>12.666666666666666</ele><time>2026-04-04T16:10:31Z</time></trkpt><trkpt lat="39.26097057133431" lon="9.085071398331019"><ele>13.0</ele><time>2026-04-04T16:10:32Z</time></trkpt><trkpt lat="39.2608275693979" lon="9.084901297111253"><ele>13.333333333333332</ele><time>2026-04-04T16:10:33Z</time></trkpt><trkpt lat="39.26066539481826" lon="9.084740131310879"><ele>13.666666666666668</ele><time>2026-04-04T16:10:34Z</time></trkpt><trkpt lat="39.26048881976068" lon="9.084591382649236"><ele>14.0</ele><time>2026-04-04T16:10:35Z</time></trkpt><trkpt lat="39.26029822364378" lon="9.084461418938057"><ele>14.0</ele><time>2026-04-04T16:10:36Z</time></trkpt><trkpt lat="39.26009384760034" lon="9.084347544209242"><ele>14.0</ele><time>2026-04-04T16:10:37Z</time></trkpt><trkpt lat="39.25987638911322" lon="9.084252121794211"><ele>13.5</ele><time>2026-04-04T16:10:38Z</time></trkpt><trkpt lat="39.25965617005256" lon="9.084159626262737"><ele>13.0</ele><time>2026-04-04T16:10:39Z</time></trkpt><trkpt lat="39.259448830748056" lon="9.084065762959112"><ele>13.0</ele><time>2026-04-04T16:10:40Z</time></trkpt><trkpt lat="39.25925785684503" lon="9.08397187998555"><ele>13.0</ele><time>2026-04-04T16:10:41Z</time></trkpt><trkpt lat="39.2590738868341" lon="9.083869349610296"><ele>13.0</ele><time>2026-04-04T16:10:42Z</time></trkpt><trkpt lat="39.258887832511974" lon="9.08375810007867"><ele>12.333333333333332</ele><time>2026-04-04T16:10:43Z</time></trkpt><trkpt lat="39.25871629518615" lon="9.083643824697637"><ele>11.666666666666666</ele><time>2026-04-04T16:10:44Z</time></trkpt><trkpt lat="39.25856004120776" lon="9.083523142648206"><ele>11.0</ele><time>2026-04-04T16:10:45Z</time></trkpt><trkpt lat="39.258406715395786" lon="9.083387272520689"><ele>11.666666666666666</ele><time>2026-04-04T16:10:46Z</time></trkpt><trkpt lat="39.25825678351971" lon="9.083245942156212"><ele>12.333333333333332</ele><time>2026-04-04T16:10:47Z</time></trkpt><trkpt lat="39.25810981616777" lon="9.083100726836118"><ele>13.0</ele><time>2026-04-04T16:10:48Z</time></trkpt><trkpt lat="39.257963872085284" lon="9.082948418486295"><ele>13.0</ele><time>2026-04-04T16:10:49Z</time></trkpt><trkpt lat="39.25782305227459" lon="9.082790008150534"><ele>13.0</ele><time>2026-04-04T16:10:50Z</time></trkpt><trkpt lat="39.25768576907956" lon="9.082624398904548"><ele>13.0</ele><time>2026-04-04T16:10:51Z</time></trkpt><trkpt lat="39.257550019419135" lon="9.08244751793171"><ele>13.0</ele><time>2026-04-04T16:10:52Z</time></trkpt><trkpt lat="39.25741868507374" lon="9.082254197783062"><ele>13.0</ele><time>2026-04-04T16:10:53Z</time></trkpt><trkpt lat="39.2572943976871" lon="9.082045657965214"><ele>13.0</ele><time>2026-04-04T16:10:54Z</time></trkpt><trkpt lat="39.25716723447856" lon="9.081828734024175"><ele>13.0</ele><time>2026-04-04T16:10:55Z</time></trkpt><trkpt lat="39.2570355444495" lon="9.081609357215264"><ele>13.0</ele><time>2026-04-04T16:10:56Z</time></trkpt><trkpt lat="39.25690225491602" lon="9.081387717160498"><ele>13.0</ele><time>2026-04-04T16:10:57Z</time></trkpt><trkpt lat="39.25676738016685" lon="9.081164381190257"><ele>13.0</ele><time>2026-04-04T16:10:58Z</time></trkpt><trkpt lat="39.25663142247788" lon="9.080939276637816"><ele>13.0</ele><time>2026-04-04T16:10:59Z</time></trkpt><trkpt lat="39.25649904755913" lon="9.08071971869104"><ele>13.0</ele><time>2026-04-04T16:11:00Z</time></trkpt><trkpt lat="39.256361546458095" lon="9.080503521441178"><ele>13.0</ele><time>2026-04-04T16:11:01Z</time></trkpt><trkpt lat="39.25621759384703" lon="9.08029776628198"><ele>13.0</ele><time>2026-04-04T16:11:02Z</time></trkpt><trkpt lat="39.25606454606884" lon="9.08010844548551"><ele>13.0</ele><time>2026-04-04T16:11:03Z</time></trkpt><trkpt lat="39.255903693875155" lon="9.079927589607173"><ele>13.333333333333332</ele><time>2026-04-04T16:11:04Z</time></trkpt><trkpt lat="39.25574016053189" lon="9.079751929669037"><ele>13.666666666666668</ele><time>2026-04-04T16:11:05Z</time></trkpt><trkpt lat="39.25557419086654" lon="9.0795780149076"><ele>14.0</ele><time>2026-04-04T16:11:06Z</time></trkpt><trkpt lat="39.25541017290406" lon="9.07939970644257"><ele>13.333333333333334</ele><time>2026-04-04T16:11:07Z</time></trkpt><trkpt lat="39.25524894019495" lon="9.079222465074949"><ele>12.666666666666668</ele><time>2026-04-04T16:11:08Z</time></trkpt><trkpt lat="39.255088125736066" lon="9.079056969868212"><ele>12.0</ele><time>2026-04-04T16:11:09Z</time></trkpt><trkpt lat="39.25492349536742" lon="9.078889068346575"><ele>10.0</ele><time>2026-04-04T16:11:10Z</time></trkpt><trkpt lat="39.254758579785594" lon="9.078724390100122"><ele>8.0</ele><time>2026-04-04T16:11:11Z</time></trkpt><trkpt lat="39.25459378216472" lon="9.078555318768386"><ele>6.0</ele><time>2026-04-04T16:11:12Z</time></trkpt><trkpt lat="39.25442216800571" lon="9.078386256672479"><ele>6.666666666666666</ele><time>2026-04-04T16:11:13Z</time></trkpt><trkpt lat="39.25426695756988" lon="9.078220268615242"><ele>7.333333333333333</ele><time>2026-04-04T16:11:14Z</time></trkpt><trkpt lat="39.25411451873839" lon="9.078065796762806"><ele>8.0</ele><time>2026-04-04T16:11:15Z</time></trkpt><trkpt lat="39.25396732470218" lon="9.077922356217153"><ele>7.333333333333333</ele><time>2026-04-04T16:11:16Z</time></trkpt><trkpt lat="39.25381925576485" lon="9.077790707166082"><ele>6.666666666666666</ele><time>2026-04-04T16:11:17Z</time></trkpt><trkpt lat="39.2536582068085" lon="9.077667988103457"><ele>6.0</ele><time>2026-04-04T16:11:18Z</time></trkpt><trkpt lat="39.25348080414032" lon="9.077568045579492"><ele>6.0</ele><time>2026-04-04T16:11:19Z</time></trkpt><trkpt lat="39.25329780570842" lon="9.077496422420102"><ele>6.0</ele><time>2026-04-04T16:11:20Z</time></trkpt><trkpt lat="39.25311560431533" lon="9.077439597384473"><ele>6.0</ele><time>2026-04-04T16:11:21Z</time></trkpt><trkpt lat="39.25273765739466" lon="9.07742906407052"><ele>6.666666666666666</ele><time>2026-04-04T16:11:23Z</time></trkpt><trkpt lat="39.25254819639043" lon="9.077464930060916"><ele>7.333333333333333</ele><time>2026-04-04T16:11:24Z</time></trkpt><trkpt lat="39.252365013696256" lon="9.077526630906132"><ele>8.0</ele><time>2026-04-04T16:11:25Z</time></trkpt><trkpt lat="39.25218576688193" lon="9.07760522637909"><ele>8.0</ele><time>2026-04-04T16:11:26Z</time></trkpt><trkpt lat="39.252012684808285" lon="9.07771076684322"><ele>8.0</ele><time>2026-04-04T16:11:27Z</time></trkpt><trkpt lat="39.25184751177826" lon="9.077841377828872"><ele>8.0</ele><time>2026-04-04T16:11:28Z</time></trkpt><trkpt lat="39.251690008576375" lon="9.07799438831658"><ele>8.0</ele><time>2026-04-04T16:11:29Z</time></trkpt><trkpt lat="39.251534590842816" lon="9.078159969931482"><ele>8.0</ele><time>2026-04-04T16:11:30Z</time></trkpt><trkpt lat="39.25137982833894" lon="9.078328439146388"><ele>8.0</ele><time>2026-04-04T16:11:31Z</time></trkpt><trkpt lat="39.25121889474447" lon="9.078497351187467"><ele>6.333333333333333</ele><time>2026-04-04T16:11:32Z</time></trkpt><trkpt lat="39.25105554191698" lon="9.07866457374984"><ele>4.666666666666666</ele><time>2026-04-04T16:11:33Z</time></trkpt><trkpt lat="39.25089059058513" lon="9.078833140515737"><ele>3.0</ele><time>2026-04-04T16:11:34Z</time></trkpt><trkpt lat="39.25072877970016" lon="9.079002881724147"><ele>3.0</ele><time>2026-04-04T16:11:35Z</time></trkpt><trkpt lat="39.25055588039288" lon="9.079190680804793"><ele>3.0</ele><time>2026-04-04T16:11:36Z</time></trkpt><trkpt lat="39.2503761109142" lon="9.079392964472682"><ele>3.0</ele><time>2026-04-04T16:11:37Z</time></trkpt><trkpt lat="39.25019317215275" lon="9.079592792954074"><ele>3.0</ele><time>2026-04-04T16:11:38Z</time></trkpt><trkpt lat="39.249822801146216" lon="9.079979158364665"><ele>1.5</ele><time>2026-04-04T16:11:40Z</time></trkpt><trkpt lat="39.24964193721957" lon="9.080172524166413"><ele>0.0</ele><time>2026-04-04T16:11:41Z</time></trkpt><trkpt lat="39.24946605501434" lon="9.080361999901282"><ele>0.0</ele><time>2026-04-04T16:11:42Z</time></trkpt><trkpt lat="39.249288509490135" lon="9.080550579854204"><ele>0.0</ele><time>2026-04-04T16:11:43Z</time></trkpt><trkpt lat="39.24911631373985" lon="9.080730371568947"><ele>0.6666666666666666</ele><time>2026-04-04T16:11:44Z</time></trkpt><trkpt lat="39.2489427726312" lon="9.080908819667583"><ele>1.3333333333333333</ele><time>2026-04-04T16:11:45Z</time></trkpt><trkpt lat="39.24877424913919" lon="9.081081648591619"><ele>2.0</ele><time>2026-04-04T16:11:46Z</time></trkpt><trkpt lat="39.24861131429753" lon="9.081249097632679"><ele>2.0</ele><time>2026-04-04T16:11:47Z</time></trkpt><trkpt lat="39.2484462034291" lon="9.08141864765351"><ele>2.0</ele><time>2026-04-04T16:11:48Z</time></trkpt><trkpt lat="39.248280327614154" lon="9.081585558797103"><ele>2.0</ele><time>2026-04-04T16:11:49Z</time></trkpt><trkpt lat="39.24811522591436" lon="9.081746732112565"><ele>3.333333333333333</ele><time>2026-04-04T16:11:50Z</time></trkpt><trkpt lat="39.247947462350304" lon="9.081901625399736"><ele>4.666666666666667</ele><time>2026-04-04T16:11:51Z</time></trkpt><trkpt lat="39.24777153061932" lon="9.082050726446345"><ele>6.0</ele><time>2026-04-04T16:11:52Z</time></trkpt><trkpt lat="39.24759335682215" lon="9.082200594686002"><ele>6.0</ele><time>2026-04-04T16:11:53Z</time></trkpt><trkpt lat="39.24740958110393" lon="9.08235827723002"><ele>6.0</ele><time>2026-04-04T16:11:54Z</time></trkpt><trkpt lat="39.2472211650673" lon="9.082515855385259"><ele>6.0</ele><time>2026-04-04T16:11:55Z</time></trkpt><trkpt lat="39.24702738430153" lon="9.082671362086447"><ele>7.0</ele><time>2026-04-04T16:11:56Z</time></trkpt><trkpt lat="39.24682829505032" lon="9.082827961276283"><ele>8.0</ele><time>2026-04-04T16:11:57Z</time></trkpt><trkpt lat="39.246628823044695" lon="9.082981925284523"><ele>9.0</ele><time>2026-04-04T16:11:58Z</time></trkpt><trkpt lat="39.246426197386256" lon="9.083139850104294"><ele>10.0</ele><time>2026-04-04T16:11:59Z</time></trkpt><trkpt lat="39.24622274368282" lon="9.083299919460467"><ele>10.0</ele><time>2026-04-04T16:12:00Z</time></trkpt><trkpt lat="39.24601599734786" lon="9.083463855365514"><ele>10.0</ele><time>2026-04-04T16:12:01Z</time></trkpt><trkpt lat="39.24580815769855" lon="9.083626003824543"><ele>11.0</ele><time>2026-04-04T16:12:02Z</time></trkpt><trkpt lat="39.24559955720373" lon="9.08378936334176"><ele>12.0</ele><time>2026-04-04T16:12:03Z</time></trkpt><trkpt lat="39.24538498864998" lon="9.083954306907032"><ele>12.5</ele><time>2026-04-04T16:12:04Z</time></trkpt><trkpt lat="39.245173118686225" lon="9.084119381278883"><ele>13.0</ele><time>2026-04-04T16:12:05Z</time></trkpt><trkpt lat="39.24496184907755" lon="9.08428584360545"><ele>11.5</ele><time>2026-04-04T16:12:06Z</time></trkpt><trkpt lat="39.24475206918241" lon="9.084451516053873"><ele>10.0</ele><time>2026-04-04T16:12:07Z</time></trkpt><trkpt lat="39.244538418206346" lon="9.084615072666539"><ele>10.0</ele><time>2026-04-04T16:12:08Z</time></trkpt><trkpt lat="39.24432857752205" lon="9.084778635539063"><ele>10.0</ele><time>2026-04-04T16:12:09Z</time></trkpt><trkpt lat="39.24411602512721" lon="9.084942933616643"><ele>10.0</ele><time>2026-04-04T16:12:10Z</time></trkpt><trkpt lat="39.24390740288258" lon="9.0851062794143"><ele>10.0</ele><time>2026-04-04T16:12:11Z</time></trkpt><trkpt lat="39.24369969916501" lon="9.085268987540713"><ele>10.0</ele><time>2026-04-04T16:12:12Z</time></trkpt><trkpt lat="39.243491863378125" lon="9.085430022135366"><ele>10.0</ele><time>2026-04-04T16:12:13Z</time></trkpt><trkpt lat="39.243286059446696" lon="9.08559105137739"><ele>9.0</ele><time>2026-04-04T16:12:14Z</time></trkpt><trkpt lat="39.243079064490445" lon="9.085750664297747"><ele>8.0</ele><time>2026-04-04T16:12:15Z</time></trkpt><trkpt lat="39.24287714899506" lon="9.085910400268109"><ele>8.0</ele><time>2026-04-04T16:12:16Z</time></trkpt><trkpt lat="39.24268761663466" lon="9.08606160671836"><ele>8.0</ele><time>2026-04-04T16:12:17Z</time></trkpt><trkpt lat="39.24249842121487" lon="9.086217635620992"><ele>8.0</ele><time>2026-04-04T16:12:18Z</time></trkpt><trkpt lat="39.24230753087393" lon="9.086377035096856"><ele>6.5</ele><time>2026-04-04T16:12:19Z</time></trkpt><trkpt lat="39.24211374757882" lon="9.086535329978547"><ele>5.0</ele><time>2026-04-04T16:12:20Z</time></trkpt><trkpt lat="39.24191957589747" lon="9.086689583813406"><ele>4.666666666666667</ele><time>2026-04-04T16:12:21Z</time></trkpt><trkpt lat="39.241724667793626" lon="9.086839066460026"><ele>4.333333333333333</ele><time>2026-04-04T16:12:22Z</time></trkpt><trkpt lat="39.24153344199705" lon="9.086984139617142"><ele>4.0</ele><time>2026-04-04T16:12:23Z</time></trkpt><trkpt lat="39.24134002058555" lon="9.087138371105176"><ele>4.0</ele><time>2026-04-04T16:12:24Z</time></trkpt><trkpt lat="39.24115087967399" lon="9.08729868664666"><ele>4.0</ele><time>2026-04-04T16:12:25Z</time></trkpt><trkpt lat="39.240969787689785" lon="9.087472092946468"><ele>4.0</ele><time>2026-04-04T16:12:26Z</time></trkpt><trkpt lat="39.24079431934835" lon="9.087666606796288"><ele>4.0</ele><time>2026-04-04T16:12:27Z</time></trkpt><trkpt lat="39.24063385894561" lon="9.087876354824571"><ele>4.0</ele><time>2026-04-04T16:12:28Z</time></trkpt><trkpt lat="39.24048054979903" lon="9.088104866038085"><ele>4.0</ele><time>2026-04-04T16:12:29Z</time></trkpt><trkpt lat="39.24033853112728" lon="9.088342324626232"><ele>4.0</ele><time>2026-04-04T16:12:30Z</time></trkpt><trkpt lat="39.24020621354746" lon="9.088590858253275"><ele>4.0</ele><time>2026-04-04T16:12:31Z</time></trkpt><trkpt lat="39.24007617880247" lon="9.088846186786986"><ele>5.0</ele><time>2026-04-04T16:12:32Z</time></trkpt><trkpt lat="39.23994357695785" lon="9.089100294526485"><ele>6.0</ele><time>2026-04-04T16:12:33Z</time></trkpt><trkpt lat="39.239809394463336" lon="9.089357189978983"><ele>4.0</ele><time>2026-04-04T16:12:34Z</time></trkpt><trkpt lat="39.23967153752725" lon="9.089613143429732"><ele>2.0</ele><time>2026-04-04T16:12:35Z</time></trkpt><trkpt lat="39.239525522248314" lon="9.0898642832643"><ele>2.5</ele><time>2026-04-04T16:12:36Z</time></trkpt><trkpt lat="39.239367885105985" lon="9.090097463413292"><ele>3.0</ele><time>2026-04-04T16:12:37Z</time></trkpt><trkpt lat="39.239191471960005" lon="9.09030937854151"><ele>3.0</ele><time>2026-04-04T16:12:38Z</time></trkpt><trkpt lat="39.23900137796812" lon="9.090502280853178"><ele>3.0</ele><time>2026-04-04T16:12:39Z</time></trkpt><trkpt lat="39.238800639455214" lon="9.090675541820376"><ele>4.5</ele><time>2026-04-04T16:12:40Z</time></trkpt><trkpt lat="39.23859168797271" lon="9.0908303216711"><ele>6.0</ele><time>2026-04-04T16:12:41Z</time></trkpt><trkpt lat="39.23837419670484" lon="9.090965697924565"><ele>6.0</ele><time>2026-04-04T16:12:42Z</time></trkpt><trkpt lat="39.238151290212315" lon="9.091079414691325"><ele>6.0</ele><time>2026-04-04T16:12:43Z</time></trkpt><trkpt lat="39.23792448636786" lon="9.091169682251287"><ele>6.5</ele><time>2026-04-04T16:12:44Z</time></trkpt><trkpt lat="39.237694837394145" lon="9.091235451502634"><ele>7.0</ele><time>2026-04-04T16:12:45Z</time></trkpt><trkpt lat="39.2374687822743" lon="9.091283242495217"><ele>4.5</ele><time>2026-04-04T16:12:46Z</time></trkpt><trkpt lat="39.237241400872314" lon="9.091321901080084"><ele>2.0</ele><time>2026-04-04T16:12:47Z</time></trkpt><trkpt lat="39.23701331391378" lon="9.0913502292658"><ele>2.0</ele><time>2026-04-04T16:12:48Z</time></trkpt><trkpt lat="39.236786521253464" lon="9.091373582837265"><ele>2.0</ele><time>2026-04-04T16:12:49Z</time></trkpt><trkpt lat="39.23655807803701" lon="9.091403675109161"><ele>1.0</ele><time>2026-04-04T16:12:50Z</time></trkpt><trkpt lat="39.236332594936" lon="9.091440679032136"><ele>0.0</ele><time>2026-04-04T16:12:51Z</time></trkpt><trkpt lat="39.2361079798696" lon="9.091478324761146"><ele>0.0</ele><time>2026-04-04T16:12:52Z</time></trkpt><trkpt lat="39.23589101713097" lon="9.091516544320825"><ele>0.0</ele><time>2026-04-04T16:12:53Z</time></trkpt><trkpt lat="39.23567858797178" lon="9.091551888385277"><ele>0.0</ele><time>2026-04-04T16:12:54Z</time></trkpt><trkpt lat="39.23546964921854" lon="9.091587818128918"><ele>2.0</ele><time>2026-04-04T16:12:55Z</time></trkpt><trkpt lat="39.2352622381496" lon="9.091630155075652"><ele>4.0</ele><time>2026-04-04T16:12:56Z</time></trkpt><trkpt lat="39.235056004623274" lon="9.091686113001527"><ele>6.0</ele><time>2026-04-04T16:12:57Z</time></trkpt><trkpt lat="39.23484727624028" lon="9.091752985689757"><ele>6.333333333333334</ele><time>2026-04-04T16:12:58Z</time></trkpt><trkpt lat="39.23463769141633" lon="9.091828377062594"><ele>6.666666666666667</ele><time>2026-04-04T16:12:59Z</time></trkpt><trkpt lat="39.234430236302835" lon="9.091912379902018"><ele>7.0</ele><time>2026-04-04T16:13:00Z</time></trkpt><trkpt lat="39.23422287641773" lon="9.092009974304734"><ele>7.0</ele><time>2026-04-04T16:13:01Z</time></trkpt><trkpt lat="39.234018372683664" lon="9.092119235820952"><ele>7.0</ele><time>2026-04-04T16:13:02Z</time></trkpt><trkpt lat="39.23381462319428" lon="9.092240527548059"><ele>7.0</ele><time>2026-04-04T16:13:03Z</time></trkpt><trkpt lat="39.23361450724937" lon="9.092369738384788"><ele>7.333333333333334</ele><time>2026-04-04T16:13:04Z</time></trkpt><trkpt lat="39.23341624920413" lon="9.09250359421829"><ele>7.666666666666666</ele><time>2026-04-04T16:13:05Z</time></trkpt><trkpt lat="39.23322162536329" lon="9.092635029382771"><ele>8.0</ele><time>2026-04-04T16:13:06Z</time></trkpt><trkpt lat="39.233038632931766" lon="9.092758055335876"><ele>8.0</ele><time>2026-04-04T16:13:07Z</time></trkpt><trkpt lat="39.232858591804145" lon="9.092876893169102"><ele>8.0</ele><time>2026-04-04T16:13:08Z</time></trkpt><trkpt lat="39.23268030855323" lon="9.092992223373194"><ele>8.0</ele><time>2026-04-04T16:13:09Z</time></trkpt><trkpt lat="39.232499057711166" lon="9.093103237596939"><ele>8.333333333333332</ele><time>2026-04-04T16:13:10Z</time></trkpt><trkpt lat="39.23230577536471" lon="9.093201725638867"><ele>8.666666666666666</ele><time>2026-04-04T16:13:11Z</time></trkpt><trkpt lat="39.232109196394354" lon="9.093265890479218"><ele>9.0</ele><time>2026-04-04T16:13:12Z</time></trkpt><trkpt lat="39.2319021720712" lon="9.093292568085896"><ele>9.0</ele><time>2026-04-04T16:13:13Z</time></trkpt><trkpt lat="39.23169531658673" lon="9.093280545814956"><ele>9.0</ele><time>2026-04-04T16:13:14Z</time></trkpt><trkpt lat="39.23148909235822" lon="9.09323830649132"><ele>9.0</ele><time>2026-04-04T16:13:15Z</time></trkpt><trkpt lat="39.23128537960994" lon="9.093170092376292"><ele>8.333333333333334</ele><time>2026-04-04T16:13:16Z</time></trkpt><trkpt lat="39.231087671971586" lon="9.093075950469323"><ele>7.666666666666667</ele><time>2026-04-04T16:13:17Z</time></trkpt><trkpt lat="39.23089405796522" lon="9.092967126144755"><ele>7.0</ele><time>2026-04-04T16:13:18Z</time></trkpt><trkpt lat="39.230715000874426" lon="9.09286465780838"><ele>4.666666666666667</ele><time>2026-04-04T16:13:19Z</time></trkpt><trkpt lat="39.23054414858302" lon="9.092770585942572"><ele>2.3333333333333335</ele><time>2026-04-04T16:13:20Z</time></trkpt><trkpt lat="39.23037150788087" lon="9.092686023555133"><ele>0.0</ele><time>2026-04-04T16:13:21Z</time></trkpt><trkpt lat="39.230191674299675" lon="9.092605514629142"><ele>0.0</ele><time>2026-04-04T16:13:22Z</time></trkpt><trkpt lat="39.230007856773895" lon="9.092543580707737"><ele>0.0</ele><time>2026-04-04T16:13:23Z</time></trkpt><trkpt lat="39.229819871918096" lon="9.092508577333541"><ele>0.0</ele><time>2026-04-04T16:13:24Z</time></trkpt><trkpt lat="39.229636719139954" lon="9.092496672682158"><ele>-0.3333333333333333</ele><time>2026-04-04T16:13:25Z</time></trkpt><trkpt lat="39.229452536535156" lon="9.092507429616031"><ele>-0.6666666666666666</ele><time>2026-04-04T16:13:26Z</time></trkpt><trkpt lat="39.22926289412934" lon="9.092544400624318"><ele>-1.0</ele><time>2026-04-04T16:13:27Z</time></trkpt><trkpt lat="39.2290710589958" lon="9.092604458225116"><ele>-0.6666666666666666</ele><time>2026-04-04T16:13:28Z</time></trkpt><trkpt lat="39.22888114877958" lon="9.092687131377476"><ele>-0.3333333333333333</ele><time>2026-04-04T16:13:29Z</time></trkpt><trkpt lat="39.22869417929549" lon="9.092782779096392"><ele>0.0</ele><time>2026-04-04T16:13:30Z</time></trkpt><trkpt lat="39.22850925343061" lon="9.09288706353581"><ele>0.0</ele><time>2026-04-04T16:13:31Z</time></trkpt><trkpt lat="39.22832199723509" lon="9.092992829292207"><ele>0.0</ele><time>2026-04-04T16:13:32Z</time></trkpt><trkpt lat="39.22813284119589" lon="9.093092609036642"><ele>0.0</ele><time>2026-04-04T16:13:33Z</time></trkpt><trkpt lat="39.22793923613422" lon="9.09319196668865"><ele>0.0</ele><time>2026-04-04T16:13:34Z</time></trkpt><trkpt lat="39.22774517118885" lon="9.093292874797859"><ele>0.0</ele><time>2026-04-04T16:13:35Z</time></trkpt><trkpt lat="39.22755090563388" lon="9.093396663640487"><ele>0.0</ele><time>2026-04-04T16:13:36Z</time></trkpt><trkpt lat="39.22735086251702" lon="9.093503926803807"><ele>0.0</ele><time>2026-04-04T16:13:37Z</time></trkpt><trkpt lat="39.227144818574324" lon="9.09361426539237"><ele>0.0</ele><time>2026-04-04T16:13:38Z</time></trkpt><trkpt lat="39.22692770714332" lon="9.09372879221329"><ele>0.0</ele><time>2026-04-04T16:13:39Z</time></trkpt><trkpt lat="39.22670367239667" lon="9.093848695974957"><ele>0.0</ele><time>2026-04-04T16:13:40Z</time></trkpt><trkpt lat="39.22647775375499" lon="9.0939701033323"><ele>0.0</ele><time>2026-04-04T16:13:41Z</time></trkpt><trkpt lat="39.22625545651133" lon="9.094088913199665"><ele>0.0</ele><time>2026-04-04T16:13:42Z</time></trkpt><trkpt lat="39.226033363695706" lon="9.09420735766249"><ele>0.0</ele><time>2026-04-04T16:13:43Z</time></trkpt><trkpt lat="39.22581569182054" lon="9.094323739268546"><ele>0.0</ele><time>2026-04-04T16:13:44Z</time></trkpt><trkpt lat="39.22560039703027" lon="9.094438516512156"><ele>0.0</ele><time>2026-04-04T16:13:45Z</time></trkpt><trkpt lat="39.22538492466294" lon="9.094554545920458"><ele>0.0</ele><time>2026-04-04T16:13:46Z</time></trkpt><trkpt lat="39.22517199096239" lon="9.094669654210232"><ele>0.0</ele><time>2026-04-04T16:13:47Z</time></trkpt><trkpt lat="39.22495886256781" lon="9.094781605352134"><ele>0.0</ele><time>2026-04-04T16:13:48Z</time></trkpt><trkpt lat="39.22474735860328" lon="9.094892649901572"><ele>0.0</ele><time>2026-04-04T16:13:49Z</time></trkpt><trkpt lat="39.224537190277594" lon="9.09500582096964"><ele>0.0</ele><time>2026-04-04T16:13:50Z</time></trkpt><trkpt lat="39.22432930468234" lon="9.09511925440567"><ele>0.0</ele><time>2026-04-04T16:13:51Z</time></trkpt><trkpt lat="39.224120990733915" lon="9.095231893561923"><ele>0.0</ele><time>2026-04-04T16:13:52Z</time></trkpt><trkpt lat="39.223913733803535" lon="9.095342979460058"><ele>0.0</ele><time>2026-04-04T16:13:53Z</time></trkpt><trkpt lat="39.2237045232459" lon="9.095454509535571"><ele>0.0</ele><time>2026-04-04T16:13:54Z</time></trkpt><trkpt lat="39.22349201918015" lon="9.09556743159913"><ele>0.0</ele><time>2026-04-04T16:13:55Z</time></trkpt><trkpt lat="39.22306851984841" lon="9.095792890912463"><ele>0.0</ele><time>2026-04-04T16:13:57Z</time></trkpt><trkpt lat="39.222856041758625" lon="9.095907529572155"><ele>0.0</ele><time>2026-04-04T16:13:58Z</time></trkpt><trkpt lat="39.22264162174472" lon="9.096023661092325"><ele>0.0</ele><time>2026-04-04T16:13:59Z</time></trkpt><trkpt lat="39.2224254985158" lon="9.096138256937001"><ele>0.0</ele><time>2026-04-04T16:14:00Z</time></trkpt><trkpt lat="39.22220781737639" lon="9.096256492722452"><ele>0.0</ele><time>2026-04-04T16:14:01Z</time></trkpt><trkpt lat="39.22198943233562" lon="9.096374502923624"><ele>0.0</ele><time>2026-04-04T16:14:02Z</time></trkpt><trkpt lat="39.221771059754225" lon="9.096491544860054"><ele>0.0</ele><time>2026-04-04T16:14:03Z</time></trkpt><trkpt lat="39.22155035106645" lon="9.096610621243261"><ele>0.0</ele><time>2026-04-04T16:14:04Z</time></trkpt><trkpt lat="39.22134113600025" lon="9.096722924869068"><ele>0.0</ele><time>2026-04-04T16:14:05Z</time></trkpt><trkpt lat="39.22114485367738" lon="9.096828148665711"><ele>0.0</ele><time>2026-04-04T16:14:06Z</time></trkpt><trkpt lat="39.220952666853044" lon="9.09693614003965"><ele>0.0</ele><time>2026-04-04T16:14:07Z</time></trkpt><trkpt lat="39.22075641475338" lon="9.09704331950039"><ele>0.0</ele><time>2026-04-04T16:14:08Z</time></trkpt><trkpt lat="39.220570058126256" lon="9.097127544323104"><ele>0.0</ele><time>2026-04-04T16:14:09Z</time></trkpt><trkpt lat="39.220390917776456" lon="9.097191407910202"><ele>0.0</ele><time>2026-04-04T16:14:10Z</time></trkpt><trkpt lat="39.22021573616782" lon="9.097241576952516"><ele>0.0</ele><time>2026-04-04T16:14:11Z</time></trkpt><trkpt lat="39.21983387555535" lon="9.097300982445786"><ele>0.0</ele><time>2026-04-04T16:14:13Z</time></trkpt><trkpt lat="39.219629048930244" lon="9.097308701521605"><ele>0.0</ele><time>2026-04-04T16:14:14Z</time></trkpt><trkpt lat="39.219421527146075" lon="9.097297790162992"><ele>0.0</ele><time>2026-04-04T16:14:15Z</time></trkpt><trkpt lat="39.219206845773854" lon="9.097276648817806"><ele>0.0</ele><time>2026-04-04T16:14:16Z</time></trkpt><trkpt lat="39.218990729898785" lon="9.09725462122706"><ele>0.0</ele><time>2026-04-04T16:14:17Z</time></trkpt><trkpt lat="39.21878734032818" lon="9.097235268577833"><ele>0.0</ele><time>2026-04-04T16:14:18Z</time></trkpt><trkpt lat="39.21860281111746" lon="9.097213497567541"><ele>0.0</ele><time>2026-04-04T16:14:19Z</time></trkpt><trkpt lat="39.218434220594375" lon="9.097184265238859"><ele>0.0</ele><time>2026-04-04T16:14:20Z</time></trkpt><trkpt lat="39.21826580890873" lon="9.097131944689338"><ele>0.0</ele><time>2026-04-04T16:14:21Z</time></trkpt><trkpt lat="39.21810083432427" lon="9.097048246975707"><ele>0.0</ele><time>2026-04-04T16:14:22Z</time></trkpt><trkpt lat="39.21794236139432" lon="9.096937149117398"><ele>0.0</ele><time>2026-04-04T16:14:23Z</time></trkpt><trkpt lat="39.21781446568611" lon="9.09681574632124"><ele>0.0</ele><time>2026-04-04T16:14:24Z</time></trkpt><trkpt lat="39.21770147412096" lon="9.09667375529149"><ele>0.0</ele><time>2026-04-04T16:14:25Z</time></trkpt><trkpt lat="39.21760362061884" lon="9.09651968637227"><ele>0.0</ele><time>2026-04-04T16:14:26Z</time></trkpt><trkpt lat="39.2175232984922" lon="9.096364088138193"><ele>0.0</ele><time>2026-04-04T16:14:27Z</time></trkpt><trkpt lat="39.217453382151355" lon="9.096212529588756"><ele>0.0</ele><time>2026-04-04T16:14:28Z</time></trkpt><trkpt lat="39.21738398742385" lon="9.096055243580121"><ele>0.0</ele><time>2026-04-04T16:14:29Z</time></trkpt><trkpt lat="39.217306839432574" lon="9.095886838862755"><ele>0.0</ele><time>2026-04-04T16:14:30Z</time></trkpt><trkpt lat="39.21722253920281" lon="9.095714051156857"><ele>0.0</ele><time>2026-04-04T16:14:31Z</time></trkpt><trkpt lat="39.21714197579097" lon="9.09555805426444"><ele>0.0</ele><time>2026-04-04T16:14:32Z</time></trkpt><trkpt lat="39.21706683909041" lon="9.095410819470521"><ele>0.0</ele><time>2026-04-04T16:14:33Z</time></trkpt><trkpt lat="39.2169916643871" lon="9.095254448497597"><ele>0.0</ele><time>2026-04-04T16:14:34Z</time></trkpt><trkpt lat="39.21691013059333" lon="9.095085463736227"><ele>0.0</ele><time>2026-04-04T16:14:35Z</time></trkpt><trkpt lat="39.21682359912199" lon="9.094900269701181"><ele>0.0</ele><time>2026-04-04T16:14:36Z</time></trkpt><trkpt lat="39.21673958823201" lon="9.094704109355979"><ele>0.0</ele><time>2026-04-04T16:14:37Z</time></trkpt><trkpt lat="39.21666145721872" lon="9.094513687199997"><ele>0.0</ele><time>2026-04-04T16:14:38Z</time></trkpt><trkpt lat="39.216588940429865" lon="9.094344283557358"><ele>0.0</ele><time>2026-04-04T16:14:39Z</time></trkpt><trkpt lat="39.21651539673067" lon="9.094183346200198"><ele>0.0</ele><time>2026-04-04T16:14:40Z</time></trkpt><trkpt lat="39.21643647084962" lon="9.094004200526726"><ele>0.0</ele><time>2026-04-04T16:14:41Z</time></trkpt><trkpt lat="39.2163587428214" lon="9.09381560967072"><ele>0.0</ele><time>2026-04-04T16:14:42Z</time></trkpt><trkpt lat="39.216278015852794" lon="9.093621646452327"><ele>0.0</ele><time>2026-04-04T16:14:43Z</time></trkpt><trkpt lat="39.21619732613924" lon="9.093431727959452"><ele>0.0</ele><time>2026-04-04T16:14:44Z</time></trkpt><trkpt lat="39.2161194972267" lon="9.093251358985945"><ele>0.0</ele><time>2026-04-04T16:14:45Z</time></trkpt><trkpt lat="39.2160480359704" lon="9.093088236470182"><ele>0.0</ele><time>2026-04-04T16:14:46Z</time></trkpt><trkpt lat="39.2159809343027" lon="9.09293230513205"><ele>0.0</ele><time>2026-04-04T16:14:47Z</time></trkpt><trkpt lat="39.21591324134693" lon="9.092775167973494"><ele>0.0</ele><time>2026-04-04T16:14:48Z</time></trkpt><trkpt lat="39.21584091668169" lon="9.092613255468176"><ele>0.0</ele><time>2026-04-04T16:14:49Z</time></trkpt><trkpt lat="39.21575642205237" lon="9.092443227233687"><ele>0.0</ele><time>2026-04-04T16:14:50Z</time></trkpt><trkpt lat="39.21566239370775" lon="9.092250295522058"><ele>0.0</ele><time>2026-04-04T16:14:51Z</time></trkpt><trkpt lat="39.215567128240004" lon="9.092030320951334"><ele>0.0</ele><time>2026-04-04T16:14:52Z</time></trkpt><trkpt lat="39.21547575820886" lon="9.091799530755475"><ele>0.0</ele><time>2026-04-04T16:14:53Z</time></trkpt><trkpt lat="39.215382667451046" lon="9.091559181738157"><ele>0.0</ele><time>2026-04-04T16:14:54Z</time></trkpt><trkpt lat="39.2152899427576" lon="9.0913285731539"><ele>0.0</ele><time>2026-04-04T16:14:55Z</time></trkpt><trkpt lat="39.21520224993912" lon="9.091106782033513"><ele>0.0</ele><time>2026-04-04T16:14:56Z</time></trkpt><trkpt lat="39.21511887477208" lon="9.090908833678952"><ele>0.0</ele><time>2026-04-04T16:14:57Z</time></trkpt><trkpt lat="39.215044549002755" lon="9.090728827874498"><ele>0.0</ele><time>2026-04-04T16:14:58Z</time></trkpt><trkpt lat="39.214975089802" lon="9.090552625721918"><ele>0.75</ele><time>2026-04-04T16:14:59Z</time></trkpt><trkpt lat="39.21491907904589" lon="9.090382957334134"><ele>1.5</ele><time>2026-04-04T16:15:00Z</time></trkpt><trkpt lat="39.21488219439855" lon="9.090214673347605"><ele>2.25</ele><time>2026-04-04T16:15:01Z</time></trkpt><trkpt lat="39.2148663101155" lon="9.090051227402723"><ele>3.0</ele><time>2026-04-04T16:15:02Z</time></trkpt><trkpt lat="39.21487037871624" lon="9.0898923046361"><ele>3.0</ele><time>2026-04-04T16:15:03Z</time></trkpt><trkpt lat="39.21489091023372" lon="9.089743105492733"><ele>3.0</ele><time>2026-04-04T16:15:04Z</time></trkpt><trkpt lat="39.21492634399973" lon="9.089596440212263"><ele>3.0</ele><time>2026-04-04T16:15:05Z</time></trkpt><trkpt lat="39.21497833103814" lon="9.089445168890133"><ele>3.0</ele><time>2026-04-04T16:15:06Z</time></trkpt><trkpt lat="39.21504935090581" lon="9.08928718110143"><ele>3.0</ele><time>2026-04-04T16:15:07Z</time></trkpt><trkpt lat="39.215141681090536" lon="9.089140701412193"><ele>3.0</ele><time>2026-04-04T16:15:08Z</time></trkpt><trkpt lat="39.21525205178612" lon="9.089006936533625"><ele>3.0</ele><time>2026-04-04T16:15:09Z</time></trkpt><trkpt lat="39.215381031772644" lon="9.088883285493269"><ele>2.6666666666666665</ele><time>2026-04-04T16:15:10Z</time></trkpt><trkpt lat="39.21553245447422" lon="9.088758597084098"><ele>2.333333333333333</ele><time>2026-04-04T16:15:11Z</time></trkpt><trkpt lat="39.21570698350396" lon="9.08860738493735"><ele>2.0</ele><time>2026-04-04T16:15:12Z</time></trkpt><trkpt lat="39.21589162403641" lon="9.08843095825411"><ele>2.5</ele><time>2026-04-04T16:15:13Z</time></trkpt><trkpt lat="39.21609425475516" lon="9.088241212825638"><ele>3.0</ele><time>2026-04-04T16:15:14Z</time></trkpt><trkpt lat="39.21631666203872" lon="9.08804602814766"><ele>1.5</ele><time>2026-04-04T16:15:15Z</time></trkpt><trkpt lat="39.216545741785275" lon="9.087851099033585"><ele>0.0</ele><time>2026-04-04T16:15:16Z</time></trkpt><trkpt lat="39.21677154316762" lon="9.087663432948014"><ele>0.0</ele><time>2026-04-04T16:15:17Z</time></trkpt><trkpt lat="39.21700395500482" lon="9.08747296312236"><ele>0.0</ele><time>2026-04-04T16:15:18Z</time></trkpt><trkpt lat="39.21724197510756" lon="9.087276051318513"><ele>-0.5</ele><time>2026-04-04T16:15:19Z</time></trkpt><trkpt lat="39.21748818519654" lon="9.087065611137785"><ele>-1.0</ele><time>2026-04-04T16:15:20Z</time></trkpt><trkpt lat="39.217731900520754" lon="9.0868525043931"><ele>-1.0</ele><time>2026-04-04T16:15:21Z</time></trkpt><trkpt lat="39.217962147191095" lon="9.086647327981218"><ele>-1.0</ele><time>2026-04-04T16:15:22Z</time></trkpt><trkpt lat="39.21817789136781" lon="9.086453241880614"><ele>0.5</ele><time>2026-04-04T16:15:23Z</time></trkpt><trkpt lat="39.218381442674875" lon="9.08626981075884"><ele>2.0</ele><time>2026-04-04T16:15:24Z</time></trkpt><trkpt lat="39.21857679077333" lon="9.086089792660042"><ele>2.0</ele><time>2026-04-04T16:15:25Z</time></trkpt><trkpt lat="39.21877281138091" lon="9.085904346193757"><ele>2.0</ele><time>2026-04-04T16:15:26Z</time></trkpt><trkpt lat="39.21897276530597" lon="9.08571082127755"><ele>2.0</ele><time>2026-04-04T16:15:27Z</time></trkpt><trkpt lat="39.21917041375414" lon="9.085515702818165"><ele>2.0</ele><time>2026-04-04T16:15:28Z</time></trkpt><trkpt lat="39.219365443426426" lon="9.085323918299508"><ele>2.0</ele><time>2026-04-04T16:15:29Z</time></trkpt><trkpt lat="39.21955870264582" lon="9.085137807118274"><ele>2.0</ele><time>2026-04-04T16:15:30Z</time></trkpt><trkpt lat="39.21974986909768" lon="9.084955511003656"><ele>2.5</ele><time>2026-04-04T16:15:31Z</time></trkpt><trkpt lat="39.219942663264426" lon="9.084768400325098"><ele>3.0</ele><time>2026-04-04T16:15:32Z</time></trkpt><trkpt lat="39.22013042422967" lon="9.084574379299319"><ele>3.0</ele><time>2026-04-04T16:15:33Z</time></trkpt><trkpt lat="39.22031153802427" lon="9.0843690077612"><ele>3.0</ele><time>2026-04-04T16:15:34Z</time></trkpt><trkpt lat="39.220490890733394" lon="9.084156083505288"><ele>3.0</ele><time>2026-04-04T16:15:35Z</time></trkpt><trkpt lat="39.220664980244614" lon="9.083943308855217"><ele>3.0</ele><time>2026-04-04T16:15:36Z</time></trkpt><trkpt lat="39.220840775993345" lon="9.083724566196526"><ele>3.0</ele><time>2026-04-04T16:15:37Z</time></trkpt><trkpt lat="39.22101722082877" lon="9.083504220851276"><ele>3.0</ele><time>2026-04-04T16:15:38Z</time></trkpt><trkpt lat="39.22119486958669" lon="9.08328096965772"><ele>1.5</ele><time>2026-04-04T16:15:39Z</time></trkpt><trkpt lat="39.221374584853066" lon="9.083057008584555"><ele>0.0</ele><time>2026-04-04T16:15:40Z</time></trkpt><trkpt lat="39.221559389802714" lon="9.082829792263654"><ele>0.0</ele><time>2026-04-04T16:15:41Z</time></trkpt><trkpt lat="39.22174430924489" lon="9.082603187255366"><ele>0.0</ele><time>2026-04-04T16:15:42Z</time></trkpt><trkpt lat="39.221937617252756" lon="9.082364468861188"><ele>0.5</ele><time>2026-04-04T16:15:43Z</time></trkpt><trkpt lat="39.22213376281359" lon="9.082102049740916"><ele>1.0</ele><time>2026-04-04T16:15:44Z</time></trkpt><trkpt lat="39.22233959557399" lon="9.081833108131356"><ele>0.5</ele><time>2026-04-04T16:15:45Z</time></trkpt><trkpt lat="39.22255082001878" lon="9.081565337711277"><ele>0.0</ele><time>2026-04-04T16:15:46Z</time></trkpt><trkpt lat="39.222760367966174" lon="9.081307954781648"><ele>0.0</ele><time>2026-04-04T16:15:47Z</time></trkpt><trkpt lat="39.22295866324453" lon="9.081064665732162"><ele>0.0</ele><time>2026-04-04T16:15:48Z</time></trkpt><trkpt lat="39.22315381511148" lon="9.080829120686865"><ele>-1.0</ele><time>2026-04-04T16:15:49Z</time></trkpt><trkpt lat="39.22334604383987" lon="9.080604541001"><ele>-2.0</ele><time>2026-04-04T16:15:50Z</time></trkpt><trkpt lat="39.22353592531123" lon="9.080383355423338"><ele>-2.0</ele><time>2026-04-04T16:15:51Z</time></trkpt><trkpt lat="39.22373021938111" lon="9.080151189347054"><ele>-2.0</ele><time>2026-04-04T16:15:52Z</time></trkpt><trkpt lat="39.22391627077574" lon="9.07992021882602"><ele>-0.5</ele><time>2026-04-04T16:15:53Z</time></trkpt><trkpt lat="39.22410166592474" lon="9.079689695656441"><ele>1.0</ele><time>2026-04-04T16:15:54Z</time></trkpt><trkpt lat="39.22428013100688" lon="9.079470113548435"><ele>1.0</ele><time>2026-04-04T16:15:55Z</time></trkpt><trkpt lat="39.22444488201957" lon="9.079265647683078"><ele>1.0</ele><time>2026-04-04T16:15:56Z</time></trkpt><trkpt lat="39.224606882012175" lon="9.079048847665819"><ele>1.0</ele><time>2026-04-04T16:15:57Z</time></trkpt><trkpt lat="39.22475700830273" lon="9.078819160417437"><ele>1.0</ele><time>2026-04-04T16:15:58Z</time></trkpt><trkpt lat="39.22489682490727" lon="9.078569990080924"><ele>1.0</ele><time>2026-04-04T16:15:59Z</time></trkpt><trkpt lat="39.22502532216953" lon="9.078301113995536"><ele>1.0</ele><time>2026-04-04T16:16:00Z</time></trkpt><trkpt lat="39.22514766117488" lon="9.07801077781353"><ele>1.0</ele><time>2026-04-04T16:16:01Z</time></trkpt><trkpt lat="39.225256284779014" lon="9.077706657349772"><ele>1.0</ele><time>2026-04-04T16:16:02Z</time></trkpt><trkpt lat="39.22534808350766" lon="9.07738999084082"><ele>0.5</ele><time>2026-04-04T16:16:03Z</time></trkpt><trkpt lat="39.22542873470757" lon="9.07706085149791"><ele>0.0</ele><time>2026-04-04T16:16:04Z</time></trkpt><trkpt lat="39.225498749028425" lon="9.076731745592717"><ele>0.0</ele><time>2026-04-04T16:16:05Z</time></trkpt><trkpt lat="39.22556301958117" lon="9.076404985902068"><ele>0.0</ele><time>2026-04-04T16:16:06Z</time></trkpt><trkpt lat="39.22563008562816" lon="9.076080272806156"><ele>0.5</ele><time>2026-04-04T16:16:07Z</time></trkpt><trkpt lat="39.22570022887763" lon="9.07575488138976"><ele>1.0</ele><time>2026-04-04T16:16:08Z</time></trkpt><trkpt lat="39.22577062852596" lon="9.075434127183803"><ele>1.0</ele><time>2026-04-04T16:16:09Z</time></trkpt><trkpt lat="39.225839389475624" lon="9.075120716155554"><ele>1.0</ele><time>2026-04-04T16:16:10Z</time></trkpt><trkpt lat="39.22590748242307" lon="9.074812553998376"><ele>0.5</ele><time>2026-04-04T16:16:11Z</time></trkpt><trkpt lat="39.225974792881786" lon="9.074508923243672"><ele>0.0</ele><time>2026-04-04T16:16:12Z</time></trkpt><trkpt lat="39.226042235909155" lon="9.074203394150098"><ele>0.0</ele><time>2026-04-04T16:16:13Z</time></trkpt><trkpt lat="39.22610711966208" lon="9.073896618632338"><ele>0.0</ele><time>2026-04-04T16:16:14Z</time></trkpt><trkpt lat="39.22617061223984" lon="9.073593173943886"><ele>0.0</ele><time>2026-04-04T16:16:15Z</time></trkpt><trkpt lat="39.22623383812993" lon="9.07329301353657"><ele>0.0</ele><time>2026-04-04T16:16:16Z</time></trkpt><trkpt lat="39.22629676834329" lon="9.07298975827568"><ele>0.0</ele><time>2026-04-04T16:16:17Z</time></trkpt><trkpt lat="39.22635531251785" lon="9.072689814817021"><ele>0.0</ele><time>2026-04-04T16:16:18Z</time></trkpt><trkpt lat="39.226406033439055" lon="9.072396444797128"><ele>0.0</ele><time>2026-04-04T16:16:19Z</time></trkpt><trkpt lat="39.22644625765107" lon="9.07211025561147"><ele>0.0</ele><time>2026-04-04T16:16:20Z</time></trkpt><trkpt lat="39.22648021924211" lon="9.0718204571262"><ele>0.5</ele><time>2026-04-04T16:16:21Z</time></trkpt><trkpt lat="39.226502710178565" lon="9.071520136014064"><ele>1.0</ele><time>2026-04-04T16:16:22Z</time></trkpt><trkpt lat="39.22651255059225" lon="9.071219512430616"><ele>1.0</ele><time>2026-04-04T16:16:23Z</time></trkpt><trkpt lat="39.226503502188486" lon="9.070913779371164"><ele>1.0</ele><time>2026-04-04T16:16:24Z</time></trkpt><trkpt lat="39.22647911110933" lon="9.070603388900265"><ele>1.0</ele><time>2026-04-04T16:16:25Z</time></trkpt><trkpt lat="39.22643976486883" lon="9.07029477235076"><ele>1.0</ele><time>2026-04-04T16:16:26Z</time></trkpt><trkpt lat="39.22638360276532" lon="9.069986226377766"><ele>1.5</ele><time>2026-04-04T16:16:27Z</time></trkpt><trkpt lat="39.22631313710856" lon="9.069680938346407"><ele>2.0</ele><time>2026-04-04T16:16:28Z</time></trkpt><trkpt lat="39.22622628021395" lon="9.069381316921032"><ele>1.5</ele><time>2026-04-04T16:16:29Z</time></trkpt><trkpt lat="39.226123891498574" lon="9.069087255836848"><ele>1.0</ele><time>2026-04-04T16:16:30Z</time></trkpt><trkpt lat="39.226009410479705" lon="9.068803809495382"><ele>1.0</ele><time>2026-04-04T16:16:31Z</time></trkpt><trkpt lat="39.225882430038624" lon="9.068523220946657"><ele>1.0</ele><time>2026-04-04T16:16:32Z</time></trkpt><trkpt lat="39.225749331721026" lon="9.068246681519394"><ele>0.5</ele><time>2026-04-04T16:16:33Z</time></trkpt><trkpt lat="39.225617109455115" lon="9.067971476821823"><ele>0.0</ele><time>2026-04-04T16:16:34Z</time></trkpt><trkpt lat="39.225489979777834" lon="9.067692829333962"><ele>0.5</ele><time>2026-04-04T16:16:35.001Z</time></trkpt><trkpt lat="39.225368783149676" lon="9.06740704615369"><ele>1.0</ele><time>2026-04-04T16:16:36.001Z</time></trkpt><trkpt lat="39.225260827858314" lon="9.067119562801729"><ele>1.0</ele><time>2026-04-04T16:16:37.001Z</time></trkpt><trkpt lat="39.22516833304083" lon="9.066826738746244"><ele>1.0</ele><time>2026-04-04T16:16:38.001Z</time></trkpt><trkpt lat="39.225086522106864" lon="9.06653067424819"><ele>0.5</ele><time>2026-04-04T16:16:39.001Z</time></trkpt><trkpt lat="39.22501247175945" lon="9.06623179239565"><ele>0.0</ele><time>2026-04-04T16:16:40.001Z</time></trkpt><trkpt lat="39.22494809024807" lon="9.065931418703967"><ele>-0.5</ele><time>2026-04-04T16:16:41.001Z</time></trkpt><trkpt lat="39.22488815544082" lon="9.0656281527884"><ele>-1.0</ele><time>2026-04-04T16:16:42.001Z</time></trkpt><trkpt lat="39.22482940479242" lon="9.065325985537791"><ele>0.5</ele><time>2026-04-04T16:16:43.001Z</time></trkpt><trkpt lat="39.22476945175917" lon="9.06502527816419"><ele>2.0</ele><time>2026-04-04T16:16:44.001Z</time></trkpt><trkpt lat="39.22470759718417" lon="9.064723624181338"><ele>2.0</ele><time>2026-04-04T16:16:45.001Z</time></trkpt><trkpt lat="39.22464169018288" lon="9.064425936727716"><ele>2.0</ele><time>2026-04-04T16:16:46Z</time></trkpt><trkpt lat="39.22457536646376" lon="9.06412701450573"><ele>1.5</ele><time>2026-04-04T16:16:47Z</time></trkpt><trkpt lat="39.22451031113917" lon="9.063826371421566"><ele>1.0</ele><time>2026-04-04T16:16:48Z</time></trkpt><trkpt lat="39.2244474049727" lon="9.063526788937901"><ele>0.5</ele><time>2026-04-04T16:16:49Z</time></trkpt><trkpt lat="39.224384708161196" lon="9.063227753327999"><ele>0.0</ele><time>2026-04-04T16:16:50Z</time></trkpt><trkpt lat="39.22432249109967" lon="9.062928533490679"><ele>0.0</ele><time>2026-04-04T16:16:51Z</time></trkpt><trkpt lat="39.224262314968726" lon="9.062625772761495"><ele>0.0</ele><time>2026-04-04T16:16:52Z</time></trkpt><trkpt lat="39.22420108184163" lon="9.062328593650843"><ele>0.0</ele><time>2026-04-04T16:16:53Z</time></trkpt><trkpt lat="39.22413681659995" lon="9.06203313481799"><ele>0.0</ele><time>2026-04-04T16:16:54Z</time></trkpt><trkpt lat="39.22406887615046" lon="9.061739548007768"><ele>1.0</ele><time>2026-04-04T16:16:55Z</time></trkpt><trkpt lat="39.2239981714564" lon="9.061445730584438"><ele>2.0</ele><time>2026-04-04T16:16:56Z</time></trkpt><trkpt lat="39.22392800804589" lon="9.061153088692757"><ele>2.0</ele><time>2026-04-04T16:16:57Z</time></trkpt><trkpt lat="39.22386061146199" lon="9.060858220357733"><ele>2.0</ele><time>2026-04-04T16:16:58Z</time></trkpt><trkpt lat="39.223799838147116" lon="9.060565059128518"><ele>0.5</ele><time>2026-04-04T16:16:59Z</time></trkpt><trkpt lat="39.223743543988526" lon="9.060267752866487"><ele>-1.0</ele><time>2026-04-04T16:17:00Z</time></trkpt><trkpt lat="39.2236903165115" lon="9.05997148714975"><ele>-1.0</ele><time>2026-04-04T16:17:01Z</time></trkpt><trkpt lat="39.22363228499913" lon="9.059674148228824"><ele>-1.0</ele><time>2026-04-04T16:17:02Z</time></trkpt><trkpt lat="39.223566373172936" lon="9.059381278439048"><ele>-1.0</ele><time>2026-04-04T16:17:03Z</time></trkpt><trkpt lat="39.22349232930876" lon="9.059091610026647"><ele>-1.0</ele><time>2026-04-04T16:17:04Z</time></trkpt><trkpt lat="39.2234127271817" lon="9.058802940464817"><ele>-1.0</ele><time>2026-04-04T16:17:05Z</time></trkpt><trkpt lat="39.22332786356467" lon="9.058518316236865"><ele>-1.0</ele><time>2026-04-04T16:17:06Z</time></trkpt><trkpt lat="39.22323655459091" lon="9.058233473939747"><ele>-0.5</ele><time>2026-04-04T16:17:07Z</time></trkpt><trkpt lat="39.223139830309215" lon="9.057956375205794"><ele>0.0</ele><time>2026-04-04T16:17:08Z</time></trkpt><trkpt lat="39.22303775120186" lon="9.057684122143526"><ele>0.5</ele><time>2026-04-04T16:17:09Z</time></trkpt><trkpt lat="39.22293017650994" lon="9.05741723284973"><ele>1.0</ele><time>2026-04-04T16:17:10Z</time></trkpt><trkpt lat="39.22281654795228" lon="9.057152437083142"><ele>1.0</ele><time>2026-04-04T16:17:11Z</time></trkpt><trkpt lat="39.222694362810365" lon="9.056894753570996"><ele>1.0</ele><time>2026-04-04T16:17:12Z</time></trkpt><trkpt lat="39.222566032073686" lon="9.056650463842859"><ele>0.5</ele><time>2026-04-04T16:17:13Z</time></trkpt><trkpt lat="39.22242801450709" lon="9.0564149544151"><ele>0.0</ele><time>2026-04-04T16:17:14Z</time></trkpt><trkpt lat="39.222281924356" lon="9.056186615356753"><ele>0.0</ele><time>2026-04-04T16:17:15Z</time></trkpt><trkpt lat="39.222128604084965" lon="9.05597055012593"><ele>0.0</ele><time>2026-04-04T16:17:16Z</time></trkpt><trkpt lat="39.2219684449943" lon="9.055762791050116"><ele>-0.5</ele><time>2026-04-04T16:17:17Z</time></trkpt><trkpt lat="39.22180407160713" lon="9.055564949935873"><ele>-1.0</ele><time>2026-04-04T16:17:18Z</time></trkpt><trkpt lat="39.221631369783125" lon="9.055375017686753"><ele>-1.0</ele><time>2026-04-04T16:17:19Z</time></trkpt><trkpt lat="39.22144857814916" lon="9.055193158346615"><ele>-1.0</ele><time>2026-04-04T16:17:20Z</time></trkpt><trkpt lat="39.22125921784671" lon="9.055027158947121"><ele>-0.5</ele><time>2026-04-04T16:17:21Z</time></trkpt><trkpt lat="39.22106083637558" lon="9.05486935674121"><ele>0.0</ele><time>2026-04-04T16:17:22Z</time></trkpt><trkpt lat="39.22085266392085" lon="9.054724175987817"><ele>-0.5</ele><time>2026-04-04T16:17:23Z</time></trkpt><trkpt lat="39.22063553862976" lon="9.054592016224946"><ele>-1.0</ele><time>2026-04-04T16:17:24Z</time></trkpt><trkpt lat="39.22041194401831" lon="9.054473989040822"><ele>-1.0</ele><time>2026-04-04T16:17:25Z</time></trkpt><trkpt lat="39.220180473042824" lon="9.054370360901627"><ele>-1.0</ele><time>2026-04-04T16:17:26Z</time></trkpt><trkpt lat="39.21994365558756" lon="9.054282495001042"><ele>-0.5</ele><time>2026-04-04T16:17:27Z</time></trkpt><trkpt lat="39.21970115641775" lon="9.054209403459254"><ele>0.0</ele><time>2026-04-04T16:17:28Z</time></trkpt><trkpt lat="39.21945555304454" lon="9.054154416364671"><ele>0.0</ele><time>2026-04-04T16:17:29Z</time></trkpt><trkpt lat="39.21920361842222" lon="9.05411723192371"><ele>0.0</ele><time>2026-04-04T16:17:30Z</time></trkpt><trkpt lat="39.218954427058684" lon="9.0540953453825"><ele>0.0</ele><time>2026-04-04T16:17:31Z</time></trkpt><trkpt lat="39.21870082878617" lon="9.054097847691528"><ele>0.0</ele><time>2026-04-04T16:17:32Z</time></trkpt><trkpt lat="39.2184477747905" lon="9.054116016680142"><ele>0.0</ele><time>2026-04-04T16:17:33Z</time></trkpt><trkpt lat="39.21819795738374" lon="9.054147291024885"><ele>0.0</ele><time>2026-04-04T16:17:34Z</time></trkpt><trkpt lat="39.217951223019774" lon="9.054196450136082"><ele>0.0</ele><time>2026-04-04T16:17:35Z</time></trkpt><trkpt lat="39.21770728649063" lon="9.054266816763478"><ele>0.0</ele><time>2026-04-04T16:17:36Z</time></trkpt><trkpt lat="39.21746893454496" lon="9.054352322529478"><ele>1.0</ele><time>2026-04-04T16:17:37Z</time></trkpt><trkpt lat="39.217230357900235" lon="9.054448980701522"><ele>2.0</ele><time>2026-04-04T16:17:38Z</time></trkpt><trkpt lat="39.21699173139355" lon="9.05455018740111"><ele>2.0</ele><time>2026-04-04T16:17:39Z</time></trkpt><trkpt lat="39.2167564898973" lon="9.054648247213324"><ele>2.0</ele><time>2026-04-04T16:17:40Z</time></trkpt><trkpt lat="39.21651654920939" lon="9.054743906504681"><ele>0.0</ele><time>2026-04-04T16:17:41Z</time></trkpt><trkpt lat="39.21627746838752" lon="9.054829203045912"><ele>-2.0</ele><time>2026-04-04T16:17:42Z</time></trkpt><trkpt lat="39.21603458954578" lon="9.05490682352874"><ele>-1.5</ele><time>2026-04-04T16:17:43Z</time></trkpt><trkpt lat="39.21579242140034" lon="9.054978467355904"><ele>-1.0</ele><time>2026-04-04T16:17:44Z</time></trkpt><trkpt lat="39.21554852052847" lon="9.055045906535558"><ele>-1.0</ele><time>2026-04-04T16:17:45Z</time></trkpt><trkpt lat="39.215305942096165" lon="9.055112211983337"><ele>-1.0</ele><time>2026-04-04T16:17:46Z</time></trkpt><trkpt lat="39.215063139233486" lon="9.055184836702832"><ele>-1.0</ele><time>2026-04-04T16:17:47Z</time></trkpt><trkpt lat="39.21482278576076" lon="9.055256553545052"><ele>-1.0</ele><time>2026-04-04T16:17:48Z</time></trkpt><trkpt lat="39.21457947952134" lon="9.055328503449545"><ele>-1.0</ele><time>2026-04-04T16:17:49Z</time></trkpt><trkpt lat="39.21433850662544" lon="9.055399467464593"><ele>-1.0</ele><time>2026-04-04T16:17:50Z</time></trkpt><trkpt lat="39.21409757094428" lon="9.055470566130978"><ele>-1.0</ele><time>2026-04-04T16:17:51Z</time></trkpt><trkpt lat="39.213858316990915" lon="9.055542357163429"><ele>-1.0</ele><time>2026-04-04T16:17:52Z</time></trkpt><trkpt lat="39.21361968502513" lon="9.055613437832527"><ele>-1.0</ele><time>2026-04-04T16:17:53Z</time></trkpt><trkpt lat="39.21338028104017" lon="9.055681200098887"><ele>-1.0</ele><time>2026-04-04T16:17:54Z</time></trkpt><trkpt lat="39.213144408331885" lon="9.055746454464355"><ele>-1.0</ele><time>2026-04-04T16:17:55Z</time></trkpt><trkpt lat="39.21290681767409" lon="9.055813711695476"><ele>-1.0</ele><time>2026-04-04T16:17:56Z</time></trkpt><trkpt lat="39.21267161456931" lon="9.055885794179316"><ele>-1.0</ele><time>2026-04-04T16:17:57Z</time></trkpt><trkpt lat="39.21243802950855" lon="9.0559578011466"><ele>-1.0</ele><time>2026-04-04T16:17:58Z</time></trkpt><trkpt lat="39.21220431411578" lon="9.056027998826597"><ele>-1.0</ele><time>2026-04-04T16:17:59Z</time></trkpt><trkpt lat="39.211969934443786" lon="9.05609651175054"><ele>-1.0</ele><time>2026-04-04T16:18:00Z</time></trkpt><trkpt lat="39.21173838864772" lon="9.056163737111705"><ele>-1.0</ele><time>2026-04-04T16:18:01Z</time></trkpt><trkpt lat="39.21150580524837" lon="9.056231292583362"><ele>-1.0</ele><time>2026-04-04T16:18:02Z</time></trkpt><trkpt lat="39.21127421307435" lon="9.056298290502133"><ele>-1.0</ele><time>2026-04-04T16:18:03Z</time></trkpt><trkpt lat="39.21104312839095" lon="9.0563637963446"><ele>-1.0</ele><time>2026-04-04T16:18:04Z</time></trkpt><trkpt lat="39.210814821508905" lon="9.056430096308288"><ele>-0.5</ele><time>2026-04-04T16:18:05Z</time></trkpt><trkpt lat="39.21058498599949" lon="9.056497445272035"><ele>0.0</ele><time>2026-04-04T16:18:06Z</time></trkpt><trkpt lat="39.21035591524243" lon="9.05656649630907"><ele>-0.5</ele><time>2026-04-04T16:18:07Z</time></trkpt><trkpt lat="39.21012321025129" lon="9.056636194944168"><ele>-1.0</ele><time>2026-04-04T16:18:08Z</time></trkpt><trkpt lat="39.209886535032766" lon="9.056708203100811"><ele>-0.5</ele><time>2026-04-04T16:18:09Z</time></trkpt><trkpt lat="39.209647011769" lon="9.056781334579876"><ele>0.0</ele><time>2026-04-04T16:18:10Z</time></trkpt><trkpt lat="39.20940223497891" lon="9.056852093317362"><ele>0.0</ele><time>2026-04-04T16:18:11Z</time></trkpt><trkpt lat="39.20915710507397" lon="9.056923769830552"><ele>0.0</ele><time>2026-04-04T16:18:12Z</time></trkpt><trkpt lat="39.20890937052648" lon="9.056994366443712"><ele>-0.5</ele><time>2026-04-04T16:18:13Z</time></trkpt><trkpt lat="39.208656481414394" lon="9.05707011165718"><ele>-1.0</ele><time>2026-04-04T16:18:14Z</time></trkpt><trkpt lat="39.20840334154602" lon="9.057147459770082"><ele>-1.0</ele><time>2026-04-04T16:18:15Z</time></trkpt><trkpt lat="39.208152974706785" lon="9.057224668408844"><ele>-1.0</ele><time>2026-04-04T16:18:16Z</time></trkpt><trkpt lat="39.207899647850354" lon="9.057301876517858"><ele>-1.0</ele><time>2026-04-04T16:18:17Z</time></trkpt><trkpt lat="39.20764775075058" lon="9.057374994304352"><ele>-1.0</ele><time>2026-04-04T16:18:18Z</time></trkpt><trkpt lat="39.20739712214758" lon="9.057446963226733"><ele>-1.0</ele><time>2026-04-04T16:18:19Z</time></trkpt><trkpt lat="39.2071496162693" lon="9.057519521920154"><ele>-1.0</ele><time>2026-04-04T16:18:20Z</time></trkpt><trkpt lat="39.20690333956043" lon="9.057591803124055"><ele>-1.0</ele><time>2026-04-04T16:18:21Z</time></trkpt><trkpt lat="39.20665931629568" lon="9.05766406368638"><ele>-1.0</ele><time>2026-04-04T16:18:22Z</time></trkpt><trkpt lat="39.20641791782297" lon="9.057734538415023"><ele>-1.0</ele><time>2026-04-04T16:18:23Z</time></trkpt><trkpt lat="39.20617518537168" lon="9.057805209148146"><ele>-1.0</ele><time>2026-04-04T16:18:24Z</time></trkpt><trkpt lat="39.20593707060642" lon="9.057875639570936"><ele>-1.0</ele><time>2026-04-04T16:18:25Z</time></trkpt><trkpt lat="39.20569915759654" lon="9.057945824716018"><ele>-1.0</ele><time>2026-04-04T16:18:26Z</time></trkpt><trkpt lat="39.2054603426992" lon="9.058016305903733"><ele>-1.5</ele><time>2026-04-04T16:18:27Z</time></trkpt><trkpt lat="39.20522155510808" lon="9.05808582168019"><ele>-2.0</ele><time>2026-04-04T16:18:28Z</time></trkpt><trkpt lat="39.204984407541794" lon="9.058156030310608"><ele>-2.0</ele><time>2026-04-04T16:18:29Z</time></trkpt><trkpt lat="39.204752375840336" lon="9.058223322954797"><ele>-2.0</ele><time>2026-04-04T16:18:30Z</time></trkpt><trkpt lat="39.20452273215027" lon="9.058289343358279"><ele>-1.0</ele><time>2026-04-04T16:18:31Z</time></trkpt><trkpt lat="39.204292484196195" lon="9.058356845930605"><ele>0.0</ele><time>2026-04-04T16:18:32Z</time></trkpt><trkpt lat="39.20406222513266" lon="9.058425169634173"><ele>-0.5</ele><time>2026-04-04T16:18:33Z</time></trkpt><trkpt lat="39.2038274128975" lon="9.058494559766363"><ele>-1.0</ele><time>2026-04-04T16:18:34Z</time></trkpt><trkpt lat="39.203590238857096" lon="9.058563838534354"><ele>-1.0</ele><time>2026-04-04T16:18:35Z</time></trkpt><trkpt lat="39.203354308459495" lon="9.058633772754009"><ele>-1.0</ele><time>2026-04-04T16:18:36Z</time></trkpt><trkpt lat="39.20311401938997" lon="9.058708516467005"><ele>-1.5</ele><time>2026-04-04T16:18:37Z</time></trkpt><trkpt lat="39.202878009553714" lon="9.058781635949455"><ele>-2.0</ele><time>2026-04-04T16:18:38Z</time></trkpt><trkpt lat="39.202639561209466" lon="9.058852049094758"><ele>-2.0</ele><time>2026-04-04T16:18:39Z</time></trkpt><trkpt lat="39.202402473947906" lon="9.058922633017715"><ele>-2.0</ele><time>2026-04-04T16:18:40Z</time></trkpt><trkpt lat="39.202162183181905" lon="9.058993044211073"><ele>-2.0</ele><time>2026-04-04T16:18:41Z</time></trkpt><trkpt lat="39.2019217857756" lon="9.05906207142068"><ele>-2.0</ele><time>2026-04-04T16:18:42Z</time></trkpt><trkpt lat="39.20168184152683" lon="9.059131566630358"><ele>-1.5</ele><time>2026-04-04T16:18:43Z</time></trkpt><trkpt lat="39.20143937195678" lon="9.059203520563976"><ele>-1.0</ele><time>2026-04-04T16:18:44Z</time></trkpt><trkpt lat="39.20119871521124" lon="9.059275657566415"><ele>-1.0</ele><time>2026-04-04T16:18:45Z</time></trkpt><trkpt lat="39.20095485637245" lon="9.059350170685342"><ele>-1.0</ele><time>2026-04-04T16:18:46Z</time></trkpt><trkpt lat="39.200713215057185" lon="9.059422260018502"><ele>-1.0</ele><time>2026-04-04T16:18:47Z</time></trkpt><trkpt lat="39.200470821646476" lon="9.059493054771702"><ele>-1.0</ele><time>2026-04-04T16:18:48Z</time></trkpt><trkpt lat="39.20022977933232" lon="9.0595647364411"><ele>-1.0</ele><time>2026-04-04T16:18:49Z</time></trkpt><trkpt lat="39.19998947571839" lon="9.059633886916258"><ele>-1.0</ele><time>2026-04-04T16:18:50Z</time></trkpt><trkpt lat="39.19974856725754" lon="9.05970249597262"><ele>-1.5</ele><time>2026-04-04T16:18:51Z</time></trkpt><trkpt lat="39.19951053622341" lon="9.059769950280833"><ele>-2.0</ele><time>2026-04-04T16:18:52Z</time></trkpt><trkpt lat="39.19927228291994" lon="9.059833241128223"><ele>-2.0</ele><time>2026-04-04T16:18:53Z</time></trkpt><trkpt lat="39.19903444364443" lon="9.059893846658161"><ele>-2.0</ele><time>2026-04-04T16:18:54Z</time></trkpt><trkpt lat="39.19879869251694" lon="9.05994740144754"><ele>-1.0</ele><time>2026-04-04T16:18:55Z</time></trkpt><trkpt lat="39.19856107925013" lon="9.0599960641379"><ele>0.0</ele><time>2026-04-04T16:18:56Z</time></trkpt><trkpt lat="39.19832380818218" lon="9.06003722207019"><ele>0.0</ele><time>2026-04-04T16:18:57Z</time></trkpt><trkpt lat="39.19808670250402" lon="9.060075471198925"><ele>0.0</ele><time>2026-04-04T16:18:58Z</time></trkpt><trkpt lat="39.1978493054877" lon="9.060109380206166"><ele>0.0</ele><time>2026-04-04T16:18:59Z</time></trkpt><trkpt lat="39.197614148252576" lon="9.060136276871074"><ele>0.0</ele><time>2026-04-04T16:19:00Z</time></trkpt><trkpt lat="39.19737967016711" lon="9.060152214703814"><ele>0.0</ele><time>2026-04-04T16:19:01Z</time></trkpt><trkpt lat="39.197143419421174" lon="9.060155218019226"><ele>0.0</ele><time>2026-04-04T16:19:02Z</time></trkpt><trkpt lat="39.19690688808948" lon="9.06014766179337"><ele>0.0</ele><time>2026-04-04T16:19:03Z</time></trkpt><trkpt lat="39.196671784833214" lon="9.060133532726201"><ele>0.0</ele><time>2026-04-04T16:19:04Z</time></trkpt><trkpt lat="39.19643430571342" lon="9.060114898174147"><ele>0.5</ele><time>2026-04-04T16:19:05Z</time></trkpt><trkpt lat="39.196196175476814" lon="9.060088184502805"><ele>1.0</ele><time>2026-04-04T16:19:06Z</time></trkpt><trkpt lat="39.19595850622959" lon="9.060051149345815"><ele>1.0</ele><time>2026-04-04T16:19:07Z</time></trkpt><trkpt lat="39.19572120426157" lon="9.060005948154608"><ele>1.0</ele><time>2026-04-04T16:19:08Z</time></trkpt><trkpt lat="39.195484939214516" lon="9.05995335531261"><ele>1.0</ele><time>2026-04-04T16:19:09Z</time></trkpt><trkpt lat="39.1952505689633" lon="9.05989188406745"><ele>1.0</ele><time>2026-04-04T16:19:10Z</time></trkpt><trkpt lat="39.195016672960115" lon="9.05982314160197"><ele>1.0</ele><time>2026-04-04T16:19:11Z</time></trkpt><trkpt lat="39.19478418685718" lon="9.059745155058788"><ele>1.0</ele><time>2026-04-04T16:19:12Z</time></trkpt><trkpt lat="39.19455329656352" lon="9.059659416932067"><ele>1.0</ele><time>2026-04-04T16:19:13Z</time></trkpt><trkpt lat="39.19432383137233" lon="9.059566150140354"><ele>1.0</ele><time>2026-04-04T16:19:14Z</time></trkpt><trkpt lat="39.19409883071589" lon="9.059467240907605"><ele>0.0</ele><time>2026-04-04T16:19:15Z</time></trkpt><trkpt lat="39.19387458057514" lon="9.05936060835569"><ele>-1.0</ele><time>2026-04-04T16:19:16Z</time></trkpt><trkpt lat="39.19365770313407" lon="9.059247460025333"><ele>-1.0</ele><time>2026-04-04T16:19:17Z</time></trkpt><trkpt lat="39.19344407815588" lon="9.059128164399379"><ele>-1.0</ele><time>2026-04-04T16:19:18Z</time></trkpt><trkpt lat="39.1932326613613" lon="9.059004001659355"><ele>-0.5</ele><time>2026-04-04T16:19:19Z</time></trkpt><trkpt lat="39.19302729234435" lon="9.05887323412279"><ele>0.0</ele><time>2026-04-04T16:19:20Z</time></trkpt><trkpt lat="39.19282561398136" lon="9.058734580026316"><ele>0.0</ele><time>2026-04-04T16:19:21Z</time></trkpt><trkpt lat="39.19262969914233" lon="9.058591730508638"><ele>0.0</ele><time>2026-04-04T16:19:22Z</time></trkpt><trkpt lat="39.19243510208521" lon="9.058441851717228"><ele>0.0</ele><time>2026-04-04T16:19:23Z</time></trkpt><trkpt lat="39.192240507124716" lon="9.058286846953719"><ele>0.0</ele><time>2026-04-04T16:19:24Z</time></trkpt><trkpt lat="39.19204712175542" lon="9.058125704761048"><ele>0.0</ele><time>2026-04-04T16:19:25Z</time></trkpt><trkpt lat="39.191854430341486" lon="9.05796120767691"><ele>0.0</ele><time>2026-04-04T16:19:26Z</time></trkpt><trkpt lat="39.19165670517177" lon="9.05779070008412"><ele>0.5</ele><time>2026-04-04T16:19:27Z</time></trkpt><trkpt lat="39.19146191754544" lon="9.05761868232661"><ele>1.0</ele><time>2026-04-04T16:19:28Z</time></trkpt><trkpt lat="39.19126678224767" lon="9.057440820110322"><ele>1.0</ele><time>2026-04-04T16:19:29Z</time></trkpt><trkpt lat="39.19107366749663" lon="9.057258839513517"><ele>1.0</ele><time>2026-04-04T16:19:30Z</time></trkpt><trkpt lat="39.19088118023045" lon="9.057073570104423"><ele>1.0</ele><time>2026-04-04T16:19:31Z</time></trkpt><trkpt lat="39.19068830458437" lon="9.0568837201715"><ele>1.0</ele><time>2026-04-04T16:19:32Z</time></trkpt><trkpt lat="39.190497451640375" lon="9.056693888387006"><ele>0.5</ele><time>2026-04-04T16:19:33Z</time></trkpt><trkpt lat="39.19030737626151" lon="9.056502049368689"><ele>0.0</ele><time>2026-04-04T16:19:34Z</time></trkpt><trkpt lat="39.19011428312579" lon="9.056311914825384"><ele>0.0</ele><time>2026-04-04T16:19:35Z</time></trkpt><trkpt lat="39.189922105788455" lon="9.056124308112581"><ele>0.0</ele><time>2026-04-04T16:19:36Z</time></trkpt><trkpt lat="39.189727557223314" lon="9.05593289398632"><ele>0.0</ele><time>2026-04-04T16:19:37Z</time></trkpt><trkpt lat="39.18953376636146" lon="9.055740561498801"><ele>0.0</ele><time>2026-04-04T16:19:38Z</time></trkpt><trkpt lat="39.18934087436908" lon="9.055549093399758"><ele>0.0</ele><time>2026-04-04T16:19:39Z</time></trkpt><trkpt lat="39.18914621014843" lon="9.055355728336075"><ele>0.0</ele><time>2026-04-04T16:19:40Z</time></trkpt><trkpt lat="39.18895117530086" lon="9.055162901682523"><ele>0.0</ele><time>2026-04-04T16:19:41Z</time></trkpt><trkpt lat="39.18875646381334" lon="9.054968478890586"><ele>0.0</ele><time>2026-04-04T16:19:42Z</time></trkpt><trkpt lat="39.188562567315806" lon="9.05477494960979"><ele>0.0</ele><time>2026-04-04T16:19:43Z</time></trkpt><trkpt lat="39.188366435410714" lon="9.054584327931666"><ele>0.0</ele><time>2026-04-04T16:19:44Z</time></trkpt><trkpt lat="39.18817006000743" lon="9.054395295164516"><ele>0.0</ele><time>2026-04-04T16:19:45Z</time></trkpt><trkpt lat="39.18797568114151" lon="9.05420292745716"><ele>0.0</ele><time>2026-04-04T16:19:46Z</time></trkpt><trkpt lat="39.18778404819332" lon="9.054007572995731"><ele>0.0</ele><time>2026-04-04T16:19:47Z</time></trkpt><trkpt lat="39.187593764785156" lon="9.053811218690816"><ele>0.0</ele><time>2026-04-04T16:19:48Z</time></trkpt><trkpt lat="39.187401057552485" lon="9.053615642254197"><ele>0.5</ele><time>2026-04-04T16:19:49Z</time></trkpt><trkpt lat="39.18720693142362" lon="9.053423463064517"><ele>1.0</ele><time>2026-04-04T16:19:50Z</time></trkpt><trkpt lat="39.187015066344344" lon="9.053235376030422"><ele>1.0</ele><time>2026-04-04T16:19:51Z</time></trkpt><trkpt lat="39.18682228045068" lon="9.053045713915905"><ele>1.0</ele><time>2026-04-04T16:19:52Z</time></trkpt><trkpt lat="39.186630512361994" lon="9.052856838418018"><ele>1.0</ele><time>2026-04-04T16:19:53Z</time></trkpt><trkpt lat="39.18643910191362" lon="9.052669323096483"><ele>1.0</ele><time>2026-04-04T16:19:54Z</time></trkpt><trkpt lat="39.18624783478759" lon="9.052482042364325"><ele>1.0</ele><time>2026-04-04T16:19:55Z</time></trkpt><trkpt lat="39.18605802112224" lon="9.052294587234243"><ele>1.0</ele><time>2026-04-04T16:19:56Z</time></trkpt><trkpt lat="39.18586986838547" lon="9.052103935678213"><ele>1.0</ele><time>2026-04-04T16:19:57Z</time></trkpt><trkpt lat="39.18568150871461" lon="9.051913145506463"><ele>1.0</ele><time>2026-04-04T16:19:58Z</time></trkpt><trkpt lat="39.1854936832847" lon="9.051725941358368"><ele>0.5</ele><time>2026-04-04T16:19:59Z</time></trkpt><trkpt lat="39.185302222790604" lon="9.051537539380826"><ele>0.0</ele><time>2026-04-04T16:20:00Z</time></trkpt><trkpt lat="39.185112204916514" lon="9.051350457239401"><ele>0.0</ele><time>2026-04-04T16:20:01Z</time></trkpt><trkpt lat="39.1849234674205" lon="9.051163579982486"><ele>0.0</ele><time>2026-04-04T16:20:02Z</time></trkpt><trkpt lat="39.184736568581684" lon="9.050974334908297"><ele>0.5</ele><time>2026-04-04T16:20:03Z</time></trkpt><trkpt lat="39.18455255941865" lon="9.050785310618439"><ele>1.0</ele><time>2026-04-04T16:20:04Z</time></trkpt><trkpt lat="39.18437767104248" lon="9.050602262181256"><ele>1.0</ele><time>2026-04-04T16:20:05Z</time></trkpt><trkpt lat="39.18421561606201" lon="9.050427626703055"><ele>1.0</ele><time>2026-04-04T16:20:06Z</time></trkpt><trkpt lat="39.184066291706365" lon="9.050261473063848"><ele>1.0</ele><time>2026-04-04T16:20:07Z</time></trkpt><trkpt lat="39.183924471212265" lon="9.050101275661978"><ele>1.0</ele><time>2026-04-04T16:20:08Z</time></trkpt><trkpt lat="39.18377990310115" lon="9.049940636864628"><ele>1.0</ele><time>2026-04-04T16:20:09Z</time></trkpt><trkpt lat="39.183627100210806" lon="9.049771228033876"><ele>1.0</ele><time>2026-04-04T16:20:10Z</time></trkpt><trkpt lat="39.18347113964664" lon="9.049597693177871"><ele>1.0</ele><time>2026-04-04T16:20:11Z</time></trkpt><trkpt lat="39.183333169699736" lon="9.049446846184905"><ele>1.0</ele><time>2026-04-04T16:20:12Z</time></trkpt><trkpt lat="39.18319376976904" lon="9.049296804411323"><ele>1.0</ele><time>2026-04-04T16:20:13Z</time></trkpt><trkpt lat="39.18305232996389" lon="9.049138888364709"><ele>0.6666666666666666</ele><time>2026-04-04T16:20:14Z</time></trkpt><trkpt lat="39.18291429396755" lon="9.048981941222536"><ele>0.3333333333333333</ele><time>2026-04-04T16:20:15Z</time></trkpt><trkpt lat="39.18278578944985" lon="9.048834801959583"><ele>0.0</ele><time>2026-04-04T16:20:16Z</time></trkpt><trkpt lat="39.18266045969208" lon="9.048694333254598"><ele>0.0</ele><time>2026-04-04T16:20:17Z</time></trkpt><trkpt lat="39.1825292702142" lon="9.048544734565771"><ele>0.0</ele><time>2026-04-04T16:20:18Z</time></trkpt><trkpt lat="39.182398180223174" lon="9.048398496296393"><ele>0.0</ele><time>2026-04-04T16:20:19Z</time></trkpt><trkpt lat="39.182260106120104" lon="9.048242217699151"><ele>0.3333333333333333</ele><time>2026-04-04T16:20:20Z</time></trkpt><trkpt lat="39.1821155544351" lon="9.048081476099442"><ele>0.6666666666666666</ele><time>2026-04-04T16:20:21Z</time></trkpt><trkpt lat="39.181975097636354" lon="9.047926829123755"><ele>1.0</ele><time>2026-04-04T16:20:22Z</time></trkpt><trkpt lat="39.18184290963155" lon="9.047778412423328"><ele>1.0</ele><time>2026-04-04T16:20:23Z</time></trkpt><trkpt lat="39.18170644169968" lon="9.047626358177729"><ele>1.0</ele><time>2026-04-04T16:20:24Z</time></trkpt><trkpt lat="39.18155791433266" lon="9.047464008533803"><ele>1.0</ele><time>2026-04-04T16:20:25Z</time></trkpt><trkpt lat="39.181401536968615" lon="9.047294138726768"><ele>2.0</ele><time>2026-04-04T16:20:26Z</time></trkpt><trkpt lat="39.181301897167" lon="9.047177782722226"><ele>3.0</ele><time>2026-04-04T16:20:27Z</time></trkpt><trkpt lat="39.181165780413664" lon="9.047022561744177"><ele>4.0</ele><time>2026-04-04T16:20:28Z</time></trkpt><trkpt lat="39.181025775405274" lon="9.046863299792754"><ele>4.0</ele><time>2026-04-04T16:20:29Z</time></trkpt><trkpt lat="39.180880399113626" lon="9.046704077101388"><ele>4.0</ele><time>2026-04-04T16:20:30Z</time></trkpt><trkpt lat="39.18072983475345" lon="9.046547217920256"><ele>4.0</ele><time>2026-04-04T16:20:31Z</time></trkpt><trkpt lat="39.18058066614679" lon="9.046385485367102"><ele>4.0</ele><time>2026-04-04T16:20:32Z</time></trkpt><trkpt lat="39.18042820210729" lon="9.046220351537622"><ele>4.0</ele><time>2026-04-04T16:20:33Z</time></trkpt><trkpt lat="39.18027367905985" lon="9.046048722310271"><ele>4.0</ele><time>2026-04-04T16:20:34Z</time></trkpt><trkpt lat="39.18011968961202" lon="9.045874076002875"><ele>4.333333333333333</ele><time>2026-04-04T16:20:35Z</time></trkpt><trkpt lat="39.1799613267962" lon="9.045693816132259"><ele>4.666666666666667</ele><time>2026-04-04T16:20:36Z</time></trkpt><trkpt lat="39.17979696043583" lon="9.045511992439216"><ele>5.0</ele><time>2026-04-04T16:20:37Z</time></trkpt><trkpt lat="39.17963966549136" lon="9.045339532738316"><ele>5.0</ele><time>2026-04-04T16:20:38Z</time></trkpt><trkpt lat="39.17947971487847" lon="9.045162760958986"><ele>5.0</ele><time>2026-04-04T16:20:39Z</time></trkpt><trkpt lat="39.17932089414215" lon="9.044984114390726"><ele>5.0</ele><time>2026-04-04T16:20:40Z</time></trkpt><trkpt lat="39.17916136352631" lon="9.044802347483953"><ele>4.333333333333334</ele><time>2026-04-04T16:20:41Z</time></trkpt><trkpt lat="39.1789974627705" lon="9.044617484736118"><ele>3.666666666666667</ele><time>2026-04-04T16:20:42Z</time></trkpt><trkpt lat="39.17883074902528" lon="9.044431360334295"><ele>3.0</ele><time>2026-04-04T16:20:43Z</time></trkpt><trkpt lat="39.17866227235084" lon="9.044243557761927"><ele>3.0</ele><time>2026-04-04T16:20:44Z</time></trkpt><trkpt lat="39.178486187572965" lon="9.044054179803098"><ele>3.0</ele><time>2026-04-04T16:20:45Z</time></trkpt><trkpt lat="39.178315840401964" lon="9.043863139248725"><ele>2.0</ele><time>2026-04-04T16:20:46Z</time></trkpt><trkpt lat="39.178142089366546" lon="9.043669489347975"><ele>1.0</ele><time>2026-04-04T16:20:47Z</time></trkpt><trkpt lat="39.17796991837105" lon="9.043482328234498"><ele>1.0</ele><time>2026-04-04T16:20:48Z</time></trkpt><trkpt lat="39.17780650311823" lon="9.043303270852896"><ele>1.0</ele><time>2026-04-04T16:20:49Z</time></trkpt><trkpt lat="39.17764696240947" lon="9.043126378164848"><ele>1.0</ele><time>2026-04-04T16:20:50Z</time></trkpt><trkpt lat="39.177484176174026" lon="9.042948071667304"><ele>1.6666666666666665</ele><time>2026-04-04T16:20:51Z</time></trkpt><trkpt lat="39.17731668480161" lon="9.042762402579147"><ele>2.3333333333333335</ele><time>2026-04-04T16:20:52Z</time></trkpt><trkpt lat="39.17714883849122" lon="9.042574698943993"><ele>3.0</ele><time>2026-04-04T16:20:53Z</time></trkpt><trkpt lat="39.17697828700701" lon="9.042384217791371"><ele>3.0</ele><time>2026-04-04T16:20:54Z</time></trkpt><trkpt lat="39.176806902534956" lon="9.042192534432475"><ele>3.0</ele><time>2026-04-04T16:20:55Z</time></trkpt><trkpt lat="39.17663286338834" lon="9.041997969154558"><ele>2.3333333333333335</ele><time>2026-04-04T16:20:56Z</time></trkpt><trkpt lat="39.1764595089504" lon="9.04180503670884"><ele>1.6666666666666665</ele><time>2026-04-04T16:20:57Z</time></trkpt><trkpt lat="39.17629417448975" lon="9.041619141426445"><ele>1.0</ele><time>2026-04-04T16:20:58Z</time></trkpt><trkpt lat="39.176140662648876" lon="9.041447457905425"><ele>1.0</ele><time>2026-04-04T16:20:59Z</time></trkpt><trkpt lat="39.17598916934454" lon="9.04127700717975"><ele>1.0</ele><time>2026-04-04T16:21:00Z</time></trkpt><trkpt lat="39.175833157383515" lon="9.041102962589637"><ele>1.0</ele><time>2026-04-04T16:21:01Z</time></trkpt><trkpt lat="39.1756745726276" lon="9.040926070453834"><ele>1.0</ele><time>2026-04-04T16:21:02Z</time></trkpt><trkpt lat="39.1755143699335" lon="9.040749107875103"><ele>1.0</ele><time>2026-04-04T16:21:03Z</time></trkpt><trkpt lat="39.17535296974614" lon="9.04056964005412"><ele>1.0</ele><time>2026-04-04T16:21:04Z</time></trkpt><trkpt lat="39.17519308223731" lon="9.040392377723641"><ele>1.0</ele><time>2026-04-04T16:21:05Z</time></trkpt><trkpt lat="39.17504618358455" lon="9.040229836852733"><ele>1.0</ele><time>2026-04-04T16:21:06Z</time></trkpt><trkpt lat="39.17490699379146" lon="9.040075842637084"><ele>1.0</ele><time>2026-04-04T16:21:07Z</time></trkpt><trkpt lat="39.17476657952636" lon="9.039921943434809"><ele>1.0</ele><time>2026-04-04T16:21:08Z</time></trkpt><trkpt lat="39.17462461506236" lon="9.039765270117629"><ele>1.0</ele><time>2026-04-04T16:21:09Z</time></trkpt><trkpt lat="39.174477748353425" lon="9.039601933455156"><ele>1.0</ele><time>2026-04-04T16:21:10Z</time></trkpt><trkpt lat="39.17432736431505" lon="9.039437075573955"><ele>1.0</ele><time>2026-04-04T16:21:11Z</time></trkpt><trkpt lat="39.17417559328692" lon="9.039270422860337"><ele>1.0</ele><time>2026-04-04T16:21:12Z</time></trkpt><trkpt lat="39.17402151423586" lon="9.039102423164673"><ele>1.0</ele><time>2026-04-04T16:21:13Z</time></trkpt><trkpt lat="39.17386716936632" lon="9.038932281501422"><ele>1.0</ele><time>2026-04-04T16:21:14Z</time></trkpt><trkpt lat="39.17371170573094" lon="9.038760081813772"><ele>1.0</ele><time>2026-04-04T16:21:15Z</time></trkpt><trkpt lat="39.17355710272496" lon="9.03858760712255"><ele>1.0</ele><time>2026-04-04T16:21:16Z</time></trkpt><trkpt lat="39.17340197128597" lon="9.038415002314842"><ele>0.6666666666666666</ele><time>2026-04-04T16:21:17Z</time></trkpt><trkpt lat="39.17324727128174" lon="9.03824119205842"><ele>0.3333333333333333</ele><time>2026-04-04T16:21:18Z</time></trkpt><trkpt lat="39.173092970257976" lon="9.0380670173657"><ele>0.0</ele><time>2026-04-04T16:21:19Z</time></trkpt><trkpt lat="39.17293743647598" lon="9.037891403116006"><ele>0.0</ele><time>2026-04-04T16:21:20Z</time></trkpt><trkpt lat="39.17277584098334" lon="9.037714034707115"><ele>0.0</ele><time>2026-04-04T16:21:21Z</time></trkpt><trkpt lat="39.1726084244123" lon="9.037536156267032"><ele>0.0</ele><time>2026-04-04T16:21:22Z</time></trkpt><trkpt lat="39.17243572984741" lon="9.037360625739828"><ele>-0.3333333333333333</ele><time>2026-04-04T16:21:23Z</time></trkpt><trkpt lat="39.17225726611568" lon="9.037190888377326"><ele>-0.6666666666666666</ele><time>2026-04-04T16:21:24Z</time></trkpt><trkpt lat="39.172074227729254" lon="9.037027354518758"><ele>-1.0</ele><time>2026-04-04T16:21:25Z</time></trkpt><trkpt lat="39.17188596616793" lon="9.036865795798699"><ele>-1.0</ele><time>2026-04-04T16:21:26Z</time></trkpt><trkpt lat="39.17169805294368" lon="9.036707157081372"><ele>-1.0</ele><time>2026-04-04T16:21:27Z</time></trkpt><trkpt lat="39.17151452087889" lon="9.036554055392143"><ele>-1.0</ele><time>2026-04-04T16:21:28Z</time></trkpt><trkpt lat="39.17134337670697" lon="9.036412490084322"><ele>-1.0</ele><time>2026-04-04T16:21:29Z</time></trkpt><trkpt lat="39.171175768060856" lon="9.036275972776734"><ele>-1.0</ele><time>2026-04-04T16:21:30Z</time></trkpt><trkpt lat="39.17101745482637" lon="9.036145364008588"><ele>-1.0</ele><time>2026-04-04T16:21:31Z</time></trkpt><trkpt lat="39.17086782877257" lon="9.036020035532559"><ele>-1.0</ele><time>2026-04-04T16:21:32Z</time></trkpt><trkpt lat="39.170713098612005" lon="9.035890940286697"><ele>-1.0</ele><time>2026-04-04T16:21:33Z</time></trkpt><trkpt lat="39.17055621200898" lon="9.03575911075014"><ele>-1.0</ele><time>2026-04-04T16:21:34Z</time></trkpt><trkpt lat="39.17039592039368" lon="9.035624313036138"><ele>-1.6666666666666665</ele><time>2026-04-04T16:21:35Z</time></trkpt><trkpt lat="39.17023303464846" lon="9.035489755237345"><ele>-2.3333333333333335</ele><time>2026-04-04T16:21:36Z</time></trkpt><trkpt lat="39.17008006407149" lon="9.035365473312618"><ele>-3.0</ele><time>2026-04-04T16:21:37Z</time></trkpt><trkpt lat="39.16992847704272" lon="9.035239873124624"><ele>-3.0</ele><time>2026-04-04T16:21:38Z</time></trkpt><trkpt lat="39.16977308737228" lon="9.0351071273095"><ele>-3.0</ele><time>2026-04-04T16:21:39Z</time></trkpt><trkpt lat="39.1696202357983" lon="9.034975836037585"><ele>-3.0</ele><time>2026-04-04T16:21:40Z</time></trkpt><trkpt lat="39.16947693940205" lon="9.034854043213768"><ele>-3.0</ele><time>2026-04-04T16:21:41Z</time></trkpt><trkpt lat="39.16934225129985" lon="9.034740908004684"><ele>-3.0</ele><time>2026-04-04T16:21:42Z</time></trkpt><trkpt lat="39.1692150426202" lon="9.034634150720143"><ele>-3.0</ele><time>2026-04-04T16:21:43Z</time></trkpt><trkpt lat="39.16909309842228" lon="9.034532350034997"><ele>-2.3333333333333335</ele><time>2026-04-04T16:21:44Z</time></trkpt><trkpt lat="39.16897268379227" lon="9.034430269000216"><ele>-1.6666666666666665</ele><time>2026-04-04T16:21:45Z</time></trkpt><trkpt lat="39.168861895215755" lon="9.034328022738963"><ele>-1.0</ele><time>2026-04-04T16:21:46Z</time></trkpt><trkpt lat="39.16866584134761" lon="9.034128102363416"><ele>-1.0</ele><time>2026-04-04T16:21:48Z</time></trkpt><trkpt lat="39.16856954464312" lon="9.034017124749257"><ele>-1.0</ele><time>2026-04-04T16:21:49Z</time></trkpt><trkpt lat="39.16848468337382" lon="9.033906556624643"><ele>-1.0</ele><time>2026-04-04T16:21:50Z</time></trkpt><trkpt lat="39.16841021590439" lon="9.033795171223916"><ele>-1.0</ele><time>2026-04-04T16:21:51Z</time></trkpt><trkpt lat="39.16834139993207" lon="9.033679161429937"><ele>-1.0</ele><time>2026-04-04T16:21:52Z</time></trkpt><trkpt lat="39.16827174404748" lon="9.033568847634443"><ele>-1.0</ele><time>2026-04-04T16:21:53Z</time></trkpt><trkpt lat="39.16819824281191" lon="9.033480131926538"><ele>-1.0</ele><time>2026-04-04T16:21:54Z</time></trkpt><trkpt lat="39.168116296901175" lon="9.033408037841793"><ele>-1.0</ele><time>2026-04-04T16:21:55Z</time></trkpt><trkpt lat="39.16801042039859" lon="9.033374183503623"><ele>-1.0</ele><time>2026-04-04T16:21:56Z</time></trkpt><trkpt lat="39.16788715219129" lon="9.033359010397307"><ele>-1.0</ele><time>2026-04-04T16:21:57Z</time></trkpt><trkpt lat="39.16775415345133" lon="9.033329537887987"><ele>-1.0</ele><time>2026-04-04T16:21:58Z</time></trkpt><trkpt lat="39.167615325229626" lon="9.033262367163006"><ele>-1.0</ele><time>2026-04-04T16:21:59Z</time></trkpt><trkpt lat="39.16747259322742" lon="9.033161587180516"><ele>-1.0</ele><time>2026-04-04T16:22:00Z</time></trkpt><trkpt lat="39.167181203006905" lon="9.032925906940763"><ele>-0.5</ele><time>2026-04-04T16:22:02Z</time></trkpt><trkpt lat="39.1670524485543" lon="9.032816399270311"><ele>0.0</ele><time>2026-04-04T16:22:03Z</time></trkpt><trkpt lat="39.16693344241311" lon="9.032719207049869"><ele>0.5</ele><time>2026-04-04T16:22:04Z</time></trkpt><trkpt lat="39.16681788838774" lon="9.032625403344314"><ele>1.0</ele><time>2026-04-04T16:22:05Z</time></trkpt><trkpt lat="39.166703061311274" lon="9.03253293176735"><ele>1.0</ele><time>2026-04-04T16:22:06Z</time></trkpt><trkpt lat="39.166589759757144" lon="9.032438698752603"><ele>1.0</ele><time>2026-04-04T16:22:07Z</time></trkpt><trkpt lat="39.16647784536205" lon="9.032347512487064"><ele>1.0</ele><time>2026-04-04T16:22:08Z</time></trkpt><trkpt lat="39.16635772288282" lon="9.03224891307583"><ele>1.0</ele><time>2026-04-04T16:22:09Z</time></trkpt><trkpt lat="39.16624580919381" lon="9.032160114300037"><ele>1.0</ele><time>2026-04-04T16:22:10Z</time></trkpt><trkpt lat="39.16613651296731" lon="9.032052188720867"><ele>1.0</ele><time>2026-04-04T16:22:11Z</time></trkpt><trkpt lat="39.1660071357101" lon="9.03195987095828"><ele>1.0</ele><time>2026-04-04T16:22:12Z</time></trkpt><trkpt lat="39.16587596539991" lon="9.031851640066925"><ele>1.0</ele><time>2026-04-04T16:22:13Z</time></trkpt><trkpt lat="39.16575193891377" lon="9.031740301868147"><ele>1.0</ele><time>2026-04-04T16:22:14Z</time></trkpt><trkpt lat="39.16562294680982" lon="9.031627429002443"><ele>1.0</ele><time>2026-04-04T16:22:15Z</time></trkpt><trkpt lat="39.16549360997157" lon="9.031508694964758"><ele>1.0</ele><time>2026-04-04T16:22:16Z</time></trkpt><trkpt lat="39.16536345629338" lon="9.031382443225732"><ele>1.0</ele><time>2026-04-04T16:22:17Z</time></trkpt><trkpt lat="39.165232048598554" lon="9.031254810006013"><ele>1.0</ele><time>2026-04-04T16:22:18Z</time></trkpt><trkpt lat="39.16509824805508" lon="9.031115116522106"><ele>1.0</ele><time>2026-04-04T16:22:19Z</time></trkpt><trkpt lat="39.16496518293636" lon="9.030971446084882"><ele>1.0</ele><time>2026-04-04T16:22:20Z</time></trkpt><trkpt lat="39.16482805831183" lon="9.030814841299968"><ele>1.0</ele><time>2026-04-04T16:22:21Z</time></trkpt><trkpt lat="39.16469208635095" lon="9.030658681229571"><ele>1.0</ele><time>2026-04-04T16:22:22Z</time></trkpt><trkpt lat="39.164553570406945" lon="9.030498886657629"><ele>1.0</ele><time>2026-04-04T16:22:23Z</time></trkpt><trkpt lat="39.164409725589174" lon="9.030332405753958"><ele>1.0</ele><time>2026-04-04T16:22:24Z</time></trkpt><trkpt lat="39.16426447511935" lon="9.030169217671375"><ele>1.0</ele><time>2026-04-04T16:22:25Z</time></trkpt><trkpt lat="39.16411798729081" lon="9.030004521244297"><ele>1.3333333333333333</ele><time>2026-04-04T16:22:26Z</time></trkpt><trkpt lat="39.16396482326619" lon="9.029837557181352"><ele>1.6666666666666665</ele><time>2026-04-04T16:22:27Z</time></trkpt><trkpt lat="39.16380307871149" lon="9.029673072895402"><ele>2.0</ele><time>2026-04-04T16:22:28Z</time></trkpt><trkpt lat="39.16363668803625" lon="9.029519399400922"><ele>2.0</ele><time>2026-04-04T16:22:29Z</time></trkpt><trkpt lat="39.163457210078874" lon="9.029388556113341"><ele>2.0</ele><time>2026-04-04T16:22:30Z</time></trkpt><trkpt lat="39.16326679208955" lon="9.029265534044553"><ele>2.0</ele><time>2026-04-04T16:22:31Z</time></trkpt><trkpt lat="39.163071660661" lon="9.029143533296704"><ele>1.6666666666666665</ele><time>2026-04-04T16:22:32Z</time></trkpt><trkpt lat="39.162875991637996" lon="9.029019992136783"><ele>1.3333333333333333</ele><time>2026-04-04T16:22:33Z</time></trkpt><trkpt lat="39.16268296002277" lon="9.028888983475715"><ele>1.0</ele><time>2026-04-04T16:22:34Z</time></trkpt><trkpt lat="39.16248908102005" lon="9.028754933815987"><ele>1.3333333333333333</ele><time>2026-04-04T16:22:35Z</time></trkpt><trkpt lat="39.16229518823146" lon="9.028619964343966"><ele>1.6666666666666665</ele><time>2026-04-04T16:22:36Z</time></trkpt><trkpt lat="39.16210312734497" lon="9.028486030980032"><ele>2.0</ele><time>2026-04-04T16:22:37Z</time></trkpt><trkpt lat="39.161907443090996" lon="9.028350881178177"><ele>2.0</ele><time>2026-04-04T16:22:38Z</time></trkpt><trkpt lat="39.161715072415916" lon="9.028220178596575"><ele>2.0</ele><time>2026-04-04T16:22:39Z</time></trkpt><trkpt lat="39.16152201351918" lon="9.028089044246546"><ele>2.0</ele><time>2026-04-04T16:22:40Z</time></trkpt><trkpt lat="39.16132825653017" lon="9.027958349093712"><ele>2.333333333333333</ele><time>2026-04-04T16:22:41Z</time></trkpt><trkpt lat="39.161135976750614" lon="9.027830699453034"><ele>2.6666666666666665</ele><time>2026-04-04T16:22:42Z</time></trkpt><trkpt lat="39.16095224964564" lon="9.027707042815422"><ele>3.0</ele><time>2026-04-04T16:22:42.999Z</time></trkpt><trkpt lat="39.16078349910721" lon="9.027596335478256"><ele>2.3333333333333335</ele><time>2026-04-04T16:22:43.999Z</time></trkpt><trkpt lat="39.160627399313604" lon="9.027492446745564"><ele>1.6666666666666665</ele><time>2026-04-04T16:22:44.999Z</time></trkpt><trkpt lat="39.160476491696734" lon="9.027389333759425"><ele>1.0</ele><time>2026-04-04T16:22:45.999Z</time></trkpt><trkpt lat="39.16031859784767" lon="9.027281036541641"><ele>1.0</ele><time>2026-04-04T16:22:46.999Z</time></trkpt><trkpt lat="39.16014659944838" lon="9.027166351928113"><ele>1.0</ele><time>2026-04-04T16:22:47.999Z</time></trkpt><trkpt lat="39.159962149884585" lon="9.027042898765144"><ele>1.0</ele><time>2026-04-04T16:22:48.999Z</time></trkpt><trkpt lat="39.15976874305544" lon="9.026908980612149"><ele>1.0</ele><time>2026-04-04T16:22:49.999Z</time></trkpt><trkpt lat="39.159577086394826" lon="9.026769727755147"><ele>1.0</ele><time>2026-04-04T16:22:50.999Z</time></trkpt><trkpt lat="39.15938843899475" lon="9.026623114513137"><ele>1.0</ele><time>2026-04-04T16:22:51.999Z</time></trkpt><trkpt lat="39.159208783004" lon="9.026459428325365"><ele>1.0</ele><time>2026-04-04T16:22:53Z</time></trkpt><trkpt lat="39.159042965516434" lon="9.02628584331817"><ele>1.0</ele><time>2026-04-04T16:22:54Z</time></trkpt><trkpt lat="39.15889727795479" lon="9.026117530480931"><ele>1.0</ele><time>2026-04-04T16:22:55Z</time></trkpt><trkpt lat="39.1587593620994" lon="9.025951965885262"><ele>1.3333333333333333</ele><time>2026-04-04T16:22:56Z</time></trkpt><trkpt lat="39.158620423953195" lon="9.025782266368177"><ele>1.6666666666666665</ele><time>2026-04-04T16:22:57Z</time></trkpt><trkpt lat="39.15848295235982" lon="9.025615483084643"><ele>2.0</ele><time>2026-04-04T16:22:58Z</time></trkpt><trkpt lat="39.15835481097292" lon="9.025464634613487"><ele>2.0</ele><time>2026-04-04T16:22:59Z</time></trkpt><trkpt lat="39.158232355998834" lon="9.025321722756013"><ele>2.0</ele><time>2026-04-04T16:23:00Z</time></trkpt><trkpt lat="39.158118179618924" lon="9.025182329002508"><ele>2.0</ele><time>2026-04-04T16:23:01Z</time></trkpt><trkpt lat="39.15800715708043" lon="9.025047556828087"><ele>1.5</ele><time>2026-04-04T16:23:02Z</time></trkpt><trkpt lat="39.15789908596072" lon="9.024926084396789"><ele>1.0</ele><time>2026-04-04T16:23:03Z</time></trkpt><trkpt lat="39.15779276714168" lon="9.024816145349677"><ele>0.5</ele><time>2026-04-04T16:23:04Z</time></trkpt><trkpt lat="39.157691855780904" lon="9.02471380896378"><ele>0.0</ele><time>2026-04-04T16:23:05Z</time></trkpt><trkpt lat="39.15758826420833" lon="9.024611080212665"><ele>0.0</ele><time>2026-04-04T16:23:06Z</time></trkpt><trkpt lat="39.157475261539815" lon="9.024507269926906"><ele>0.0</ele><time>2026-04-04T16:23:07Z</time></trkpt><trkpt lat="39.157353482005036" lon="9.024402557125157"><ele>0.0</ele><time>2026-04-04T16:23:08Z</time></trkpt><trkpt lat="39.157225647860855" lon="9.024293457469971"><ele>0.0</ele><time>2026-04-04T16:23:09Z</time></trkpt><trkpt lat="39.15709403172145" lon="9.024182382645787"><ele>0.3333333333333333</ele><time>2026-04-04T16:23:10Z</time></trkpt><trkpt lat="39.15695957943193" lon="9.024068777181206"><ele>0.6666666666666666</ele><time>2026-04-04T16:23:11Z</time></trkpt><trkpt lat="39.15682749479915" lon="9.023955625057054"><ele>1.0</ele><time>2026-04-04T16:23:12Z</time></trkpt><trkpt lat="39.15670636183196" lon="9.023851544692812"><ele>1.0</ele><time>2026-04-04T16:23:13Z</time></trkpt><trkpt lat="39.15659016520954" lon="9.023750895691862"><ele>1.0</ele><time>2026-04-04T16:23:14Z</time></trkpt><trkpt lat="39.15647968564302" lon="9.023655434995074"><ele>1.0</ele><time>2026-04-04T16:23:15Z</time></trkpt><trkpt lat="39.156370508539915" lon="9.02356094961743"><ele>1.0</ele><time>2026-04-04T16:23:16Z</time></trkpt><trkpt lat="39.15626136598738" lon="9.023467447895774"><ele>1.0</ele><time>2026-04-04T16:23:17Z</time></trkpt><trkpt lat="39.15615203133773" lon="9.023375177427573"><ele>1.0</ele><time>2026-04-04T16:23:18Z</time></trkpt><trkpt lat="39.156042534402154" lon="9.023282646068104"><ele>1.0</ele><time>2026-04-04T16:23:19Z</time></trkpt><trkpt lat="39.15593035809463" lon="9.023190672627122"><ele>1.0</ele><time>2026-04-04T16:23:20Z</time></trkpt><trkpt lat="39.15582544968225" lon="9.023107424644182"><ele>0.8</ele><time>2026-04-04T16:23:21Z</time></trkpt><trkpt lat="39.155728100587325" lon="9.023031680343214"><ele>0.6000000000000001</ele><time>2026-04-04T16:23:22Z</time></trkpt><trkpt lat="39.15563890255508" lon="9.022954906965813"><ele>0.4</ele><time>2026-04-04T16:23:23Z</time></trkpt><trkpt lat="39.15555709243922" lon="9.022888346880963"><ele>0.2</ele><time>2026-04-04T16:23:24Z</time></trkpt><trkpt lat="39.155484732582885" lon="9.022830282104106"><ele>0.0</ele><time>2026-04-04T16:23:25Z</time></trkpt><trkpt lat="39.15541930042233" lon="9.022780546273745"><ele>-0.3333333333333333</ele><time>2026-04-04T16:23:26Z</time></trkpt><trkpt lat="39.15535580025424" lon="9.022734207512382"><ele>-0.6666666666666666</ele><time>2026-04-04T16:23:27Z</time></trkpt><trkpt lat="39.15527486690884" lon="9.02266840127979"><ele>-1.0</ele><time>2026-04-04T16:23:28Z</time></trkpt><trkpt lat="39.15520488498955" lon="9.02261593188672"><ele>-1.3333333333333333</ele><time>2026-04-04T16:23:29Z</time></trkpt><trkpt lat="39.155142699920674" lon="9.022563176400435"><ele>-1.6666666666666665</ele><time>2026-04-04T16:23:30Z</time></trkpt><trkpt lat="39.15506723952818" lon="9.022479417159184"><ele>-2.0</ele><time>2026-04-04T16:23:32Z</time></trkpt><trkpt lat="39.15495483636704" lon="9.022369244635707"><ele>-1.0</ele><time>2026-04-04T16:23:34Z</time></trkpt><trkpt lat="39.154857007237766" lon="9.022310841053141"><ele>0.0</ele><time>2026-04-04T16:23:35Z</time></trkpt><trkpt lat="39.15473828201107" lon="9.022224975403594"><ele>1.0</ele><time>2026-04-04T16:23:36Z</time></trkpt><trkpt lat="39.15461526827743" lon="9.022110419974533"><ele>2.0</ele><time>2026-04-04T16:23:37Z</time></trkpt><trkpt lat="39.154511746737114" lon="9.022011569587248"><ele>2.0</ele><time>2026-04-04T16:23:38Z</time></trkpt><trkpt lat="39.154398998621765" lon="9.021907157623602"><ele>2.0</ele><time>2026-04-04T16:23:39Z</time></trkpt><trkpt lat="39.15426190501183" lon="9.021788671397438"><ele>2.0</ele><time>2026-04-04T16:23:40Z</time></trkpt><trkpt lat="39.15411433101124" lon="9.021664533488476"><ele>2.0</ele><time>2026-04-04T16:23:41Z</time></trkpt><trkpt lat="39.15399160301523" lon="9.02155412641932"><ele>2.0</ele><time>2026-04-04T16:23:42Z</time></trkpt><trkpt lat="39.15387440091801" lon="9.021453714620419"><ele>2.0</ele><time>2026-04-04T16:23:43Z</time></trkpt><trkpt lat="39.153759951428775" lon="9.021355313341852"><ele>2.0</ele><time>2026-04-04T16:23:44Z</time></trkpt><trkpt lat="39.153655049771935" lon="9.02126245890842"><ele>2.0</ele><time>2026-04-04T16:23:45Z</time></trkpt><trkpt lat="39.153557350403595" lon="9.021174884256054"><ele>2.0</ele><time>2026-04-04T16:23:46Z</time></trkpt><trkpt lat="39.15345790070899" lon="9.021085456268517"><ele>2.0</ele><time>2026-04-04T16:23:47Z</time></trkpt><trkpt lat="39.15335783061976" lon="9.02098748640273"><ele>2.0</ele><time>2026-04-04T16:23:48Z</time></trkpt><trkpt lat="39.15326479108601" lon="9.020885279717763"><ele>2.2</ele><time>2026-04-04T16:23:49Z</time></trkpt><trkpt lat="39.15318262924977" lon="9.020788894958045"><ele>2.4000000000000004</ele><time>2026-04-04T16:23:50.001Z</time></trkpt><trkpt lat="39.15310457536641" lon="9.020689482487944"><ele>2.5999999999999996</ele><time>2026-04-04T16:23:51.001Z</time></trkpt><trkpt lat="39.15302330580516" lon="9.02058058329518"><ele>2.8</ele><time>2026-04-04T16:23:52.001Z</time></trkpt><trkpt lat="39.152947947243916" lon="9.020475152274868"><ele>3.0</ele><time>2026-04-04T16:23:53.001Z</time></trkpt><trkpt lat="39.15288156303796" lon="9.020376817562056"><ele>3.0</ele><time>2026-04-04T16:23:54.001Z</time></trkpt><trkpt lat="39.152823253632405" lon="9.020282570957711"><ele>3.0</ele><time>2026-04-04T16:23:55.001Z</time></trkpt><trkpt lat="39.15276733465086" lon="9.020187353017873"><ele>3.0</ele><time>2026-04-04T16:23:56.001Z</time></trkpt><trkpt lat="39.15271154492843" lon="9.020093237965169"><ele>3.0</ele><time>2026-04-04T16:23:57.001Z</time></trkpt><trkpt lat="39.15265991715284" lon="9.02000954079814"><ele>3.0</ele><time>2026-04-04T16:23:58.001Z</time></trkpt><trkpt lat="39.15261141952042" lon="9.019930064357766"><ele>3.0</ele><time>2026-04-04T16:23:59.001Z</time></trkpt><trkpt lat="39.152561716534045" lon="9.019842992004412"><ele>3.1666666666666665</ele><time>2026-04-04T16:24:00.001Z</time></trkpt><trkpt lat="39.15251961662232" lon="9.019759639519759"><ele>3.333333333333333</ele><time>2026-04-04T16:24:01Z</time></trkpt><trkpt lat="39.15247943613662" lon="9.019675986142532"><ele>3.5</ele><time>2026-04-04T16:24:02Z</time></trkpt><trkpt lat="39.15243637904163" lon="9.019579659453022"><ele>3.6666666666666665</ele><time>2026-04-04T16:24:03Z</time></trkpt><trkpt lat="39.15239223234141" lon="9.019477123940081"><ele>3.833333333333333</ele><time>2026-04-04T16:24:04Z</time></trkpt><trkpt lat="39.15235597331397" lon="9.01938764356229"><ele>4.0</ele><time>2026-04-04T16:24:05Z</time></trkpt><trkpt lat="39.15232508001467" lon="9.01931110866989"><ele>3.9999999999999996</ele><time>2026-04-04T16:24:06Z</time></trkpt><trkpt lat="39.152296147115464" lon="9.019238984088291"><ele>4.0</ele><time>2026-04-04T16:24:07Z</time></trkpt><trkpt lat="39.1522648417981" lon="9.019161458790494"><ele>4.0</ele><time>2026-04-04T16:24:08Z</time></trkpt><trkpt lat="39.15223126245224" lon="9.01907912620994"><ele>4.0</ele><time>2026-04-04T16:24:09Z</time></trkpt><trkpt lat="39.152201066838884" lon="9.01899436926267"><ele>3.9999999999999996</ele><time>2026-04-04T16:24:10Z</time></trkpt><trkpt lat="39.1521624548867" lon="9.018859940381393"><ele>4.0</ele><time>2026-04-04T16:24:12Z</time></trkpt><trkpt lat="39.152135965712574" lon="9.018759676524493"><ele>4.0</ele><time>2026-04-04T16:24:14Z</time></trkpt><trkpt lat="39.152129827067284" lon="9.018639029141378"><ele>4.0</ele><time>2026-04-04T16:24:16Z</time></trkpt><trkpt lat="39.152142038146145" lon="9.018485673964285"><ele>4.0</ele><time>2026-04-04T16:24:18Z</time></trkpt><trkpt lat="39.15217438582553" lon="9.018274297909377"><ele>4.0</ele><time>2026-04-04T16:24:20Z</time></trkpt><trkpt lat="39.152200079383945" lon="9.01817338309082"><ele>4.0</ele><time>2026-04-04T16:24:21Z</time></trkpt><trkpt lat="39.15223717668124" lon="9.018062692432116"><ele>4.0</ele><time>2026-04-04T16:24:22Z</time></trkpt><trkpt lat="39.15228424040551" lon="9.017937737590337"><ele>4.0</ele><time>2026-04-04T16:24:23Z</time></trkpt><trkpt lat="39.15234180930472" lon="9.01780183327152"><ele>4.0</ele><time>2026-04-04T16:24:24Z</time></trkpt><trkpt lat="39.15240575642594" lon="9.017651281730467"><ele>4.0</ele><time>2026-04-04T16:24:25Z</time></trkpt><trkpt lat="39.15246464318106" lon="9.017508331031749"><ele>4.0</ele><time>2026-04-04T16:24:26Z</time></trkpt><trkpt lat="39.15251803220618" lon="9.017378768898947"><ele>4.0</ele><time>2026-04-04T16:24:27Z</time></trkpt><trkpt lat="39.15257262038965" lon="9.01724479391809"><ele>4.0</ele><time>2026-04-04T16:24:28Z</time></trkpt><trkpt lat="39.15270234323657" lon="9.016920439665238"><ele>3.6666666666666665</ele><time>2026-04-04T16:24:30Z</time></trkpt><trkpt lat="39.15279116680958" lon="9.01674516513891"><ele>3.333333333333333</ele><time>2026-04-04T16:24:31Z</time></trkpt><trkpt lat="39.15286335722049" lon="9.016569406607747"><ele>3.0</ele><time>2026-04-04T16:24:32Z</time></trkpt><trkpt lat="39.15293202785244" lon="9.016402217514127"><ele>3.0</ele><time>2026-04-04T16:24:33Z</time></trkpt><trkpt lat="39.15300504609219" lon="9.016224095343375"><ele>3.0</ele><time>2026-04-04T16:24:34Z</time></trkpt><trkpt lat="39.15308689735154" lon="9.01602416835822"><ele>3.0</ele><time>2026-04-04T16:24:35Z</time></trkpt><trkpt lat="39.1531732335098" lon="9.015813286715735"><ele>3.333333333333333</ele><time>2026-04-04T16:24:36Z</time></trkpt><trkpt lat="39.153257073931854" lon="9.01560788599767"><ele>3.6666666666666665</ele><time>2026-04-04T16:24:37Z</time></trkpt><trkpt lat="39.15333713344171" lon="9.015411645983773"><ele>4.0</ele><time>2026-04-04T16:24:38Z</time></trkpt><trkpt lat="39.15341970601367" lon="9.015209298482631"><ele>4.0</ele><time>2026-04-04T16:24:39Z</time></trkpt><trkpt lat="39.15350480447145" lon="9.015000837115062"><ele>4.0</ele><time>2026-04-04T16:24:40Z</time></trkpt><trkpt lat="39.153576997533314" lon="9.014779837892966"><ele>4.0</ele><time>2026-04-04T16:24:41Z</time></trkpt><trkpt lat="39.15366807161496" lon="9.01456676569112"><ele>4.666666666666666</ele><time>2026-04-04T16:24:42Z</time></trkpt><trkpt lat="39.153758222508856" lon="9.014344351371314"><ele>5.333333333333333</ele><time>2026-04-04T16:24:43Z</time></trkpt><trkpt lat="39.15385106546507" lon="9.014119416750038"><ele>6.0</ele><time>2026-04-04T16:24:44Z</time></trkpt><trkpt lat="39.15394192567169" lon="9.013894145021444"><ele>6.0</ele><time>2026-04-04T16:24:45Z</time></trkpt><trkpt lat="39.15402626826995" lon="9.013687109777473"><ele>6.0</ele><time>2026-04-04T16:24:46Z</time></trkpt><trkpt lat="39.15410884908326" lon="9.013482218823754"><ele>6.0</ele><time>2026-04-04T16:24:47Z</time></trkpt><trkpt lat="39.154186702482875" lon="9.013291882791295"><ele>5.75</ele><time>2026-04-04T16:24:48Z</time></trkpt><trkpt lat="39.15425787055192" lon="9.013115671621664"><ele>5.5</ele><time>2026-04-04T16:24:49Z</time></trkpt><trkpt lat="39.15432805901683" lon="9.012944782082249"><ele>5.25</ele><time>2026-04-04T16:24:50Z</time></trkpt><trkpt lat="39.154395628283176" lon="9.012780647441893"><ele>5.0</ele><time>2026-04-04T16:24:51Z</time></trkpt><trkpt lat="39.15446768699638" lon="9.012605265331226"><ele>6.0</ele><time>2026-04-04T16:24:52Z</time></trkpt><trkpt lat="39.15453865231721" lon="9.012429157603782"><ele>7.0</ele><time>2026-04-04T16:24:53Z</time></trkpt><trkpt lat="39.154611746929" lon="9.0122443402884"><ele>8.0</ele><time>2026-04-04T16:24:54Z</time></trkpt><trkpt lat="39.15468712720669" lon="9.01205880702511"><ele>8.0</ele><time>2026-04-04T16:24:55Z</time></trkpt><trkpt lat="39.154766374133295" lon="9.011865989039743"><ele>8.0</ele><time>2026-04-04T16:24:56Z</time></trkpt><trkpt lat="39.15484576859366" lon="9.01167059355826"><ele>8.0</ele><time>2026-04-04T16:24:57Z</time></trkpt><trkpt lat="39.154927584052345" lon="9.011474263018684"><ele>8.0</ele><time>2026-04-04T16:24:58Z</time></trkpt><trkpt lat="39.155008254860576" lon="9.01127613828337"><ele>8.0</ele><time>2026-04-04T16:24:59.001Z</time></trkpt><trkpt lat="39.15508562993481" lon="9.011090800242025"><ele>8.0</ele><time>2026-04-04T16:25:00.001Z</time></trkpt><trkpt lat="39.15515173699407" lon="9.01093071245483"><ele>8.5</ele><time>2026-04-04T16:25:01.001Z</time></trkpt><trkpt lat="39.15521369431293" lon="9.010776940995056"><ele>9.0</ele><time>2026-04-04T16:25:02.001Z</time></trkpt><trkpt lat="39.155277200961585" lon="9.01062492640254"><ele>9.5</ele><time>2026-04-04T16:25:03.001Z</time></trkpt><trkpt lat="39.155341300845016" lon="9.01046486978394"><ele>10.0</ele><time>2026-04-04T16:25:04.001Z</time></trkpt><trkpt lat="39.155422405895905" lon="9.010312586150361"><ele>10.0</ele><time>2026-04-04T16:25:05.001Z</time></trkpt><trkpt lat="39.15549358877427" lon="9.010140414500807"><ele>10.0</ele><time>2026-04-04T16:25:06.001Z</time></trkpt><trkpt lat="39.155565017775515" lon="9.009967647546512"><ele>10.0</ele><time>2026-04-04T16:25:07.001Z</time></trkpt><trkpt lat="39.155640890537086" lon="9.009785188777544"><ele>9.333333333333334</ele><time>2026-04-04T16:25:08.001Z</time></trkpt><trkpt lat="39.15571615168238" lon="9.009602695464672"><ele>8.666666666666666</ele><time>2026-04-04T16:25:09.001Z</time></trkpt><trkpt lat="39.155794486643174" lon="9.00941274876025"><ele>8.0</ele><time>2026-04-04T16:25:10.001Z</time></trkpt><trkpt lat="39.155866543958524" lon="9.009238024098133"><ele>8.0</ele><time>2026-04-04T16:25:11.001Z</time></trkpt><trkpt lat="39.15594015459155" lon="9.009058558158673"><ele>8.0</ele><time>2026-04-04T16:25:12.001Z</time></trkpt><trkpt lat="39.15601479198451" lon="9.008874821888565"><ele>8.0</ele><time>2026-04-04T16:25:13.001Z</time></trkpt><trkpt lat="39.15609172159481" lon="9.008687701683357"><ele>8.0</ele><time>2026-04-04T16:25:14.001Z</time></trkpt><trkpt lat="39.15617162315985" lon="9.0084937340287"><ele>8.0</ele><time>2026-04-04T16:25:15.001Z</time></trkpt><trkpt lat="39.15625015606202" lon="9.00830308891698"><ele>8.0</ele><time>2026-04-04T16:25:16.001Z</time></trkpt><trkpt lat="39.15632275031122" lon="9.008126860375718"><ele>8.0</ele><time>2026-04-04T16:25:17.001Z</time></trkpt><trkpt lat="39.156392028054455" lon="9.007958682925153"><ele>8.0</ele><time>2026-04-04T16:25:18.001Z</time></trkpt><trkpt lat="39.15645875864337" lon="9.00779974814644"><ele>8.0</ele><time>2026-04-04T16:25:19.001Z</time></trkpt><trkpt lat="39.15653204081408" lon="9.007642278224708"><ele>8.0</ele><time>2026-04-04T16:25:20.001Z</time></trkpt><trkpt lat="39.15661731598532" lon="9.007488533498277"><ele>8.25</ele><time>2026-04-04T16:25:21.001Z</time></trkpt><trkpt lat="39.15671115814092" lon="9.007340693890152"><ele>8.5</ele><time>2026-04-04T16:25:22.001Z</time></trkpt><trkpt lat="39.15680165428155" lon="9.007203078008587"><ele>8.75</ele><time>2026-04-04T16:25:23.001Z</time></trkpt><trkpt lat="39.1568825403246" lon="9.007051092214354"><ele>9.0</ele><time>2026-04-04T16:25:24.001Z</time></trkpt><trkpt lat="39.15697323381661" lon="9.006914654240976"><ele>9.0</ele><time>2026-04-04T16:25:25.001Z</time></trkpt><trkpt lat="39.15707343110853" lon="9.006788686766088"><ele>9.0</ele><time>2026-04-04T16:25:26.001Z</time></trkpt><trkpt lat="39.15716728197186" lon="9.006645132223175"><ele>9.0</ele><time>2026-04-04T16:25:27.001Z</time></trkpt><trkpt lat="39.157260663421404" lon="9.00650213917268"><ele>9.0</ele><time>2026-04-04T16:25:28Z</time></trkpt><trkpt lat="39.1573470922813" lon="9.00636979246708"><ele>9.5</ele><time>2026-04-04T16:25:29Z</time></trkpt><trkpt lat="39.157424683572685" lon="9.006250978560773"><ele>10.0</ele><time>2026-04-04T16:25:30Z</time></trkpt><trkpt lat="39.157499445262125" lon="9.006136497552603"><ele>10.5</ele><time>2026-04-04T16:25:31Z</time></trkpt><trkpt lat="39.1575707846665" lon="9.006027257013997"><ele>11.0</ele><time>2026-04-04T16:25:32Z</time></trkpt><trkpt lat="39.157638700875786" lon="9.005923258354036"><ele>10.5</ele><time>2026-04-04T16:25:33Z</time></trkpt><trkpt lat="39.157711033639316" lon="9.005812496748286"><ele>10.0</ele><time>2026-04-04T16:25:34Z</time></trkpt><trkpt lat="39.15779182918965" lon="9.005693046828227"><ele>9.5</ele><time>2026-04-04T16:25:35Z</time></trkpt><trkpt lat="39.157877194764446" lon="9.00556641786338"><ele>9.0</ele><time>2026-04-04T16:25:36Z</time></trkpt><trkpt lat="39.15796353612453" lon="9.005438341439909"><ele>9.0</ele><time>2026-04-04T16:25:37Z</time></trkpt><trkpt lat="39.15804601210715" lon="9.005315998813899"><ele>9.0</ele><time>2026-04-04T16:25:38Z</time></trkpt><trkpt lat="39.15812085268966" lon="9.005204982330605"><ele>9.0</ele><time>2026-04-04T16:25:39Z</time></trkpt><trkpt lat="39.15819045918993" lon="9.005101729934873"><ele>9.0</ele><time>2026-04-04T16:25:40Z</time></trkpt><trkpt lat="39.15825526627239" lon="9.005005596885187"><ele>9.0</ele><time>2026-04-04T16:25:41Z</time></trkpt><trkpt lat="39.15831592016589" lon="9.004915624547078"><ele>9.2</ele><time>2026-04-04T16:25:42Z</time></trkpt><trkpt lat="39.15837134332808" lon="9.00483341134184"><ele>9.4</ele><time>2026-04-04T16:25:43Z</time></trkpt><trkpt lat="39.15840990520369" lon="9.004745675674243"><ele>9.6</ele><time>2026-04-04T16:25:44Z</time></trkpt><trkpt lat="39.158564150175074" lon="9.00468582076148"><ele>9.8</ele><time>2026-04-04T16:25:46Z</time></trkpt><trkpt lat="39.15866125585788" lon="9.004661782299245"><ele>10.0</ele><time>2026-04-04T16:25:47Z</time></trkpt><trkpt lat="39.15875459946133" lon="9.004645985945928"><ele>10.0</ele><time>2026-04-04T16:25:48Z</time></trkpt><trkpt lat="39.15882929615754" lon="9.004581416497643"><ele>10.0</ele><time>2026-04-04T16:25:49Z</time></trkpt><trkpt lat="39.15888611050398" lon="9.004477342266389"><ele>10.0</ele><time>2026-04-04T16:25:50Z</time></trkpt><trkpt lat="39.15888981956678" lon="9.004331058877344"><ele>10.0</ele><time>2026-04-04T16:25:51Z</time></trkpt><trkpt lat="39.15887633467908" lon="9.004183973142622"><ele>10.0</ele><time>2026-04-04T16:25:52Z</time></trkpt><trkpt lat="39.1588344796461" lon="9.004067056542528"><ele>9.0</ele><time>2026-04-04T16:25:53Z</time></trkpt><trkpt lat="39.15897141130345" lon="9.003915499598365"><ele>8.0</ele><time>2026-04-04T16:25:54Z</time></trkpt><trkpt lat="39.15905822980741" lon="9.003781116393773"><ele>7.0</ele><time>2026-04-04T16:25:55Z</time></trkpt><trkpt lat="39.15914856928402" lon="9.003641286214558"><ele>6.75</ele><time>2026-04-04T16:25:56Z</time></trkpt><trkpt lat="39.15923154994148" lon="9.003487078187042"><ele>6.5</ele><time>2026-04-04T16:25:57Z</time></trkpt><trkpt lat="39.15931865584884" lon="9.003357069054791"><ele>6.25</ele><time>2026-04-04T16:25:58Z</time></trkpt><trkpt lat="39.15940816421368" lon="9.003218315526244"><ele>6.0</ele><time>2026-04-04T16:25:59Z</time></trkpt><trkpt lat="39.159498221248924" lon="9.003080505452967"><ele>6.5</ele><time>2026-04-04T16:26:00Z</time></trkpt><trkpt lat="39.15958104803975" lon="9.002951733689672"><ele>7.0</ele><time>2026-04-04T16:26:01Z</time></trkpt><trkpt lat="39.15965631806947" lon="9.002830694914271"><ele>7.5</ele><time>2026-04-04T16:26:02Z</time></trkpt><trkpt lat="39.15973166410223" lon="9.002712682106681"><ele>8.0</ele><time>2026-04-04T16:26:03Z</time></trkpt><trkpt lat="39.159818667144876" lon="9.002588068098875"><ele>7.5</ele><time>2026-04-04T16:26:04Z</time></trkpt><trkpt lat="39.1599131204018" lon="9.002444842840053"><ele>7.0</ele><time>2026-04-04T16:26:05Z</time></trkpt><trkpt lat="39.159999288202705" lon="9.002309098713994"><ele>6.5</ele><time>2026-04-04T16:26:06Z</time></trkpt><trkpt lat="39.16008193013245" lon="9.002186660600575"><ele>6.0</ele><time>2026-04-04T16:26:07Z</time></trkpt><trkpt lat="39.160168599469436" lon="9.00205264546392"><ele>6.0</ele><time>2026-04-04T16:26:08Z</time></trkpt><trkpt lat="39.160254240018396" lon="9.001923938209712"><ele>6.0</ele><time>2026-04-04T16:26:09Z</time></trkpt><trkpt lat="39.16033683478458" lon="9.001794045624896"><ele>6.0</ele><time>2026-04-04T16:26:10Z</time></trkpt><trkpt lat="39.16040656839813" lon="9.001672695585649"><ele>6.0</ele><time>2026-04-04T16:26:11Z</time></trkpt><trkpt lat="39.160464058723186" lon="9.001543946909997"><ele>6.4</ele><time>2026-04-04T16:26:12Z</time></trkpt><trkpt lat="39.160534798655256" lon="9.00140693792733"><ele>6.8</ele><time>2026-04-04T16:26:13Z</time></trkpt><trkpt lat="39.16058724411896" lon="9.001273366559877"><ele>7.200000000000001</ele><time>2026-04-04T16:26:14Z</time></trkpt><trkpt lat="39.160633756723065" lon="9.001151896511626"><ele>7.6000000000000005</ele><time>2026-04-04T16:26:15Z</time></trkpt><trkpt lat="39.160670244485374" lon="9.001052793433086"><ele>8.0</ele><time>2026-04-04T16:26:16Z</time></trkpt><trkpt lat="39.16070730705426" lon="9.000965164003519"><ele>8.0</ele><time>2026-04-04T16:26:17Z</time></trkpt><trkpt lat="39.160809579701784" lon="9.000958937554433"><ele>8.0</ele><time>2026-04-04T16:26:18Z</time></trkpt><trkpt lat="39.16091160653808" lon="9.00090453801491"><ele>8.0</ele><time>2026-04-04T16:26:19Z</time></trkpt><trkpt lat="39.16100024044302" lon="9.000859790923045"><ele>8.0</ele><time>2026-04-04T16:26:20Z</time></trkpt><trkpt lat="39.161078283185105" lon="9.000845640091647"><ele>8.0</ele><time>2026-04-04T16:26:21Z</time></trkpt><trkpt lat="39.16117563588302" lon="9.001063239426996"><ele>8.0</ele><time>2026-04-04T16:26:22Z</time></trkpt><trkpt lat="39.16119259127994" lon="9.001175464618058"><ele>8.0</ele><time>2026-04-04T16:26:23Z</time></trkpt><trkpt lat="39.16118593993065" lon="9.001298278043778"><ele>8.0</ele><time>2026-04-04T16:26:24Z</time></trkpt><trkpt lat="39.16114831422332" lon="9.001433762785322"><ele>8.0</ele><time>2026-04-04T16:26:25Z</time></trkpt><trkpt lat="39.16107697297654" lon="9.001580305224067"><ele>8.0</ele><time>2026-04-04T16:26:26Z</time></trkpt><trkpt lat="39.16100155334886" lon="9.001739098765713"><ele>7.25</ele><time>2026-04-04T16:26:27Z</time></trkpt><trkpt lat="39.16093362535436" lon="9.001908841488676"><ele>6.5</ele><time>2026-04-04T16:26:28Z</time></trkpt><trkpt lat="39.160878398992395" lon="9.002061112221313"><ele>5.75</ele><time>2026-04-04T16:26:29Z</time></trkpt><trkpt lat="39.16082570262055" lon="9.002203881390937"><ele>5.0</ele><time>2026-04-04T16:26:30Z</time></trkpt><trkpt lat="39.16077184490365" lon="9.002358954789575"><ele>5.0</ele><time>2026-04-04T16:26:31Z</time></trkpt><trkpt lat="39.16067565007009" lon="9.002488199224663"><ele>5.0</ele><time>2026-04-04T16:26:32Z</time></trkpt><trkpt lat="39.16060431303967" lon="9.002623152230298"><ele>5.0</ele><time>2026-04-04T16:26:33Z</time></trkpt><trkpt lat="39.16045484388961" lon="9.002662446300231"><ele>5.0</ele><time>2026-04-04T16:26:34Z</time></trkpt><trkpt lat="39.16032536973604" lon="9.002704137560656"><ele>5.0</ele><time>2026-04-04T16:26:35Z</time></trkpt><trkpt lat="39.1601920860533" lon="9.002700386471716"><ele>5.0</ele><time>2026-04-04T16:26:36Z</time></trkpt><trkpt lat="39.16005671094303" lon="9.002663501326532"><ele>5.0</ele><time>2026-04-04T16:26:37Z</time></trkpt><trkpt lat="39.159923998491664" lon="9.002595905868112"><ele>5.0</ele><time>2026-04-04T16:26:38Z</time></trkpt><trkpt lat="39.15979075034586" lon="9.00249634255858"><ele>6.333333333333334</ele><time>2026-04-04T16:26:39Z</time></trkpt><trkpt lat="39.1596466075588" lon="9.002371503848684"><ele>7.666666666666667</ele><time>2026-04-04T16:26:40Z</time></trkpt><trkpt lat="39.1594847975656" lon="9.002236582795279"><ele>9.0</ele><time>2026-04-04T16:26:41Z</time></trkpt><trkpt lat="39.15930739386961" lon="9.002098667685923"><ele>9.0</ele><time>2026-04-04T16:26:42Z</time></trkpt><trkpt lat="39.159135350485485" lon="9.001970239147074"><ele>9.0</ele><time>2026-04-04T16:26:43Z</time></trkpt><trkpt lat="39.15896326055522" lon="9.001847195770821"><ele>9.0</ele><time>2026-04-04T16:26:44Z</time></trkpt><trkpt lat="39.158785374315265" lon="9.001721553012008"><ele>9.666666666666666</ele><time>2026-04-04T16:26:45Z</time></trkpt><trkpt lat="39.158597129030944" lon="9.001592191759546"><ele>10.333333333333332</ele><time>2026-04-04T16:26:46Z</time></trkpt><trkpt lat="39.15840129694913" lon="9.001465295846355"><ele>11.0</ele><time>2026-04-04T16:26:47Z</time></trkpt><trkpt lat="39.158199373385806" lon="9.001337153616308"><ele>11.0</ele><time>2026-04-04T16:26:48Z</time></trkpt><trkpt lat="39.157997014550624" lon="9.001208659998943"><ele>11.0</ele><time>2026-04-04T16:26:49Z</time></trkpt><trkpt lat="39.15780514304111" lon="9.001085716815092"><ele>11.0</ele><time>2026-04-04T16:26:50Z</time></trkpt><trkpt lat="39.15761186140404" lon="9.000963309366107"><ele>11.0</ele><time>2026-04-04T16:26:51Z</time></trkpt><trkpt lat="39.157413816261204" lon="9.0008374365756"><ele>11.0</ele><time>2026-04-04T16:26:52Z</time></trkpt><trkpt lat="39.1572046906708" lon="9.00070581802918"><ele>11.5</ele><time>2026-04-04T16:26:53Z</time></trkpt><trkpt lat="39.156993637896306" lon="9.000573431626693"><ele>12.0</ele><time>2026-04-04T16:26:54Z</time></trkpt><trkpt lat="39.156772368164646" lon="9.000435975674298"><ele>12.0</ele><time>2026-04-04T16:26:55Z</time></trkpt><trkpt lat="39.15654840317746" lon="9.000295270829652"><ele>12.0</ele><time>2026-04-04T16:26:56Z</time></trkpt><trkpt lat="39.1563238847849" lon="9.000155454211354"><ele>12.0</ele><time>2026-04-04T16:26:57Z</time></trkpt><trkpt lat="39.15610588301967" lon="9.000022749864904"><ele>12.0</ele><time>2026-04-04T16:26:58Z</time></trkpt><trkpt lat="39.1558949298567" lon="8.999893129604365"><ele>13.5</ele><time>2026-04-04T16:26:59Z</time></trkpt><trkpt lat="39.15568334971545" lon="8.999765186773367"><ele>15.0</ele><time>2026-04-04T16:27:00Z</time></trkpt><trkpt lat="39.15546873347498" lon="8.999634483392777"><ele>15.0</ele><time>2026-04-04T16:27:01Z</time></trkpt><trkpt lat="39.15525346003432" lon="8.99949961897815"><ele>15.0</ele><time>2026-04-04T16:27:02Z</time></trkpt><trkpt lat="39.1550374604762" lon="8.999362632730888"><ele>15.5</ele><time>2026-04-04T16:27:03Z</time></trkpt><trkpt lat="39.15481734282861" lon="8.999225824909836"><ele>16.0</ele><time>2026-04-04T16:27:04Z</time></trkpt><trkpt lat="39.15459629348832" lon="8.999091053026437"><ele>16.5</ele><time>2026-04-04T16:27:05Z</time></trkpt><trkpt lat="39.154372787461014" lon="8.998957838297006"><ele>17.0</ele><time>2026-04-04T16:27:06Z</time></trkpt><trkpt lat="39.15414997083042" lon="8.998823257131807"><ele>17.0</ele><time>2026-04-04T16:27:07Z</time></trkpt><trkpt lat="39.15392467665664" lon="8.998684581388558"><ele>17.0</ele><time>2026-04-04T16:27:08Z</time></trkpt><trkpt lat="39.15370174266327" lon="8.99854388707275"><ele>17.0</ele><time>2026-04-04T16:27:09Z</time></trkpt><trkpt lat="39.15347598486911" lon="8.998397118235374"><ele>17.0</ele><time>2026-04-04T16:27:10Z</time></trkpt><trkpt lat="39.1532540035206" lon="8.998245644007353"><ele>18.5</ele><time>2026-04-04T16:27:11Z</time></trkpt><trkpt lat="39.15303393771017" lon="8.998090928540265"><ele>20.0</ele><time>2026-04-04T16:27:12Z</time></trkpt><trkpt lat="39.15281521922232" lon="8.99793058976073"><ele>20.0</ele><time>2026-04-04T16:27:13Z</time></trkpt><trkpt lat="39.1526008454136" lon="8.997766315255376"><ele>20.0</ele><time>2026-04-04T16:27:14Z</time></trkpt><trkpt lat="39.152393014408155" lon="8.99759975534444"><ele>20.5</ele><time>2026-04-04T16:27:15Z</time></trkpt><trkpt lat="39.152193709730895" lon="8.997433014584798"><ele>21.0</ele><time>2026-04-04T16:27:16Z</time></trkpt><trkpt lat="39.15200471329019" lon="8.997268476402915"><ele>21.0</ele><time>2026-04-04T16:27:17Z</time></trkpt><trkpt lat="39.15182249930164" lon="8.997102167139827"><ele>21.0</ele><time>2026-04-04T16:27:18Z</time></trkpt><trkpt lat="39.15164025680271" lon="8.99693443551175"><ele>21.0</ele><time>2026-04-04T16:27:19Z</time></trkpt><trkpt lat="39.1514586198618" lon="8.996760674664431"><ele>21.5</ele><time>2026-04-04T16:27:20Z</time></trkpt><trkpt lat="39.15128050914354" lon="8.996583008948647"><ele>22.0</ele><time>2026-04-04T16:27:21Z</time></trkpt><trkpt lat="39.15110446484578" lon="8.996400848664987"><ele>22.0</ele><time>2026-04-04T16:27:22Z</time></trkpt><trkpt lat="39.15092924419726" lon="8.996212214798835"><ele>22.0</ele><time>2026-04-04T16:27:23Z</time></trkpt><trkpt lat="39.15075229610679" lon="8.996016563570592"><ele>22.5</ele><time>2026-04-04T16:27:24Z</time></trkpt><trkpt lat="39.15057400498638" lon="8.995818853499099"><ele>23.0</ele><time>2026-04-04T16:27:25Z</time></trkpt><trkpt lat="39.150391741532744" lon="8.995616046382722"><ele>23.0</ele><time>2026-04-04T16:27:26Z</time></trkpt><trkpt lat="39.15021026613317" lon="8.995412392639782"><ele>23.0</ele><time>2026-04-04T16:27:27Z</time></trkpt><trkpt lat="39.15002771199378" lon="8.995202856814947"><ele>24.0</ele><time>2026-04-04T16:27:28Z</time></trkpt><trkpt lat="39.149844865114595" lon="8.99499003197002"><ele>25.0</ele><time>2026-04-04T16:27:29Z</time></trkpt><trkpt lat="39.149660473840456" lon="8.994775138780714"><ele>25.0</ele><time>2026-04-04T16:27:30Z</time></trkpt><trkpt lat="39.14947605295422" lon="8.994563516978285"><ele>25.0</ele><time>2026-04-04T16:27:31Z</time></trkpt><trkpt lat="39.14928336515193" lon="8.994354391731077"><ele>25.0</ele><time>2026-04-04T16:27:32Z</time></trkpt><trkpt lat="39.149093351697175" lon="8.994139745120313"><ele>25.0</ele><time>2026-04-04T16:27:33Z</time></trkpt><trkpt lat="39.14890049618835" lon="8.993930007881168"><ele>25.0</ele><time>2026-04-04T16:27:34Z</time></trkpt><trkpt lat="39.1487064150719" lon="8.993727100594244"><ele>25.0</ele><time>2026-04-04T16:27:35Z</time></trkpt><trkpt lat="39.148510012840106" lon="8.993517045123724"><ele>26.0</ele><time>2026-04-04T16:27:36Z</time></trkpt><trkpt lat="39.14831859238457" lon="8.993321251050977"><ele>27.0</ele><time>2026-04-04T16:27:37Z</time></trkpt><trkpt lat="39.14813632965858" lon="8.993140046378379"><ele>27.0</ele><time>2026-04-04T16:27:38Z</time></trkpt><trkpt lat="39.14795346372129" lon="8.992960682194438"><ele>27.0</ele><time>2026-04-04T16:27:39Z</time></trkpt><trkpt lat="39.147765842034325" lon="8.992784045015553"><ele>27.0</ele><time>2026-04-04T16:27:40Z</time></trkpt><trkpt lat="39.14757149131779" lon="8.992610471307554"><ele>27.0</ele><time>2026-04-04T16:27:41Z</time></trkpt><trkpt lat="39.14737392621639" lon="8.992443776757138"><ele>25.5</ele><time>2026-04-04T16:27:42Z</time></trkpt><trkpt lat="39.14717332070626" lon="8.992283605641747"><ele>24.0</ele><time>2026-04-04T16:27:43Z</time></trkpt><trkpt lat="39.14696878828689" lon="8.992127066140238"><ele>24.0</ele><time>2026-04-04T16:27:44Z</time></trkpt><trkpt lat="39.14676276948253" lon="8.991975135418054"><ele>24.0</ele><time>2026-04-04T16:27:45Z</time></trkpt><trkpt lat="39.14655494550712" lon="8.991827019406266"><ele>23.5</ele><time>2026-04-04T16:27:46Z</time></trkpt><trkpt lat="39.146342389925714" lon="8.991682383587408"><ele>23.0</ele><time>2026-04-04T16:27:47Z</time></trkpt><trkpt lat="39.14612762795312" lon="8.991545580344983"><ele>23.0</ele><time>2026-04-04T16:27:48Z</time></trkpt><trkpt lat="39.145909484090815" lon="8.991416142398158"><ele>23.0</ele><time>2026-04-04T16:27:49Z</time></trkpt><trkpt lat="39.14568806415177" lon="8.991296929260612"><ele>23.5</ele><time>2026-04-04T16:27:50Z</time></trkpt><trkpt lat="39.14546142150022" lon="8.99118283784383"><ele>24.0</ele><time>2026-04-04T16:27:51Z</time></trkpt><trkpt lat="39.14523352804788" lon="8.991072877064774"><ele>24.0</ele><time>2026-04-04T16:27:52Z</time></trkpt><trkpt lat="39.14500528615858" lon="8.99096584802932"><ele>24.0</ele><time>2026-04-04T16:27:53Z</time></trkpt><trkpt lat="39.14477325125229" lon="8.990865783637581"><ele>24.5</ele><time>2026-04-04T16:27:54Z</time></trkpt><trkpt lat="39.144535808020926" lon="8.990771031118255"><ele>25.0</ele><time>2026-04-04T16:27:55Z</time></trkpt><trkpt lat="39.14429604712317" lon="8.990683723554463"><ele>25.0</ele><time>2026-04-04T16:27:56Z</time></trkpt><trkpt lat="39.14405230542077" lon="8.990605555809566"><ele>25.0</ele><time>2026-04-04T16:27:57Z</time></trkpt><trkpt lat="39.1438099527498" lon="8.990536574681556"><ele>28.5</ele><time>2026-04-04T16:27:58Z</time></trkpt><trkpt lat="39.14356855649764" lon="8.990475476975057"><ele>32.0</ele><time>2026-04-04T16:27:59Z</time></trkpt><trkpt lat="39.14332924125756" lon="8.990421043819545"><ele>32.5</ele><time>2026-04-04T16:28:00Z</time></trkpt><trkpt lat="39.143092531351364" lon="8.990373981325902"><ele>33.0</ele><time>2026-04-04T16:28:01Z</time></trkpt><trkpt lat="39.14285758351896" lon="8.99033291001076"><ele>33.0</ele><time>2026-04-04T16:28:02Z</time></trkpt><trkpt lat="39.14262426982777" lon="8.990296468752259"><ele>33.0</ele><time>2026-04-04T16:28:03Z</time></trkpt><trkpt lat="39.14239234579611" lon="8.990266909626094"><ele>32.0</ele><time>2026-04-04T16:28:04Z</time></trkpt><trkpt lat="39.14215393053528" lon="8.990243376637222"><ele>31.0</ele><time>2026-04-04T16:28:05Z</time></trkpt><trkpt lat="39.14191999656696" lon="8.990228970354906"><ele>31.0</ele><time>2026-04-04T16:28:06Z</time></trkpt><trkpt lat="39.14168360222053" lon="8.990220158026764"><ele>31.0</ele><time>2026-04-04T16:28:07Z</time></trkpt><trkpt lat="39.141449547085756" lon="8.990219495678128"><ele>32.0</ele><time>2026-04-04T16:28:08Z</time></trkpt><trkpt lat="39.14121343671138" lon="8.990224062540214"><ele>33.0</ele><time>2026-04-04T16:28:09Z</time></trkpt><trkpt lat="39.14097721102882" lon="8.99023544424989"><ele>33.0</ele><time>2026-04-04T16:28:10Z</time></trkpt><trkpt lat="39.14074032706193" lon="8.990255283157948"><ele>33.0</ele><time>2026-04-04T16:28:11Z</time></trkpt><trkpt lat="39.14050399698343" lon="8.99028265592958"><ele>32.0</ele><time>2026-04-04T16:28:12Z</time></trkpt><trkpt lat="39.14026974342315" lon="8.990314560393994"><ele>31.0</ele><time>2026-04-04T16:28:13Z</time></trkpt><trkpt lat="39.1400341899739" lon="8.990348628608732"><ele>30.5</ele><time>2026-04-04T16:28:14Z</time></trkpt><trkpt lat="39.1397991365478" lon="8.990389690637308"><ele>30.0</ele><time>2026-04-04T16:28:15Z</time></trkpt><trkpt lat="39.13956389432719" lon="8.990439919609505"><ele>30.0</ele><time>2026-04-04T16:28:16Z</time></trkpt><trkpt lat="39.13933060419838" lon="8.990497549367474"><ele>30.0</ele><time>2026-04-04T16:28:17Z</time></trkpt><trkpt lat="39.13909840176842" lon="8.990561435319577"><ele>33.0</ele><time>2026-04-04T16:28:18Z</time></trkpt><trkpt lat="39.138865336626935" lon="8.990631905610348"><ele>36.0</ele><time>2026-04-04T16:28:19Z</time></trkpt><trkpt lat="39.1386317589479" lon="8.990708414295284"><ele>36.0</ele><time>2026-04-04T16:28:20Z</time></trkpt><trkpt lat="39.138398424162105" lon="8.99079369885941"><ele>36.0</ele><time>2026-04-04T16:28:21Z</time></trkpt><trkpt lat="39.13816541959484" lon="8.990889649021037"><ele>36.5</ele><time>2026-04-04T16:28:22Z</time></trkpt><trkpt lat="39.13793130148603" lon="8.990992346032192"><ele>37.0</ele><time>2026-04-04T16:28:23Z</time></trkpt><trkpt lat="39.13770685003672" lon="8.99110046525733"><ele>37.0</ele><time>2026-04-04T16:28:24Z</time></trkpt><trkpt lat="39.13747462614117" lon="8.991215197432867"><ele>37.0</ele><time>2026-04-04T16:28:25Z</time></trkpt><trkpt lat="39.13724863020466" lon="8.991344304768988"><ele>37.0</ele><time>2026-04-04T16:28:26Z</time></trkpt><trkpt lat="39.137024300323425" lon="8.991465458617164"><ele>37.0</ele><time>2026-04-04T16:28:27Z</time></trkpt><trkpt lat="39.13680239290107" lon="8.991593865917173"><ele>37.0</ele><time>2026-04-04T16:28:28Z</time></trkpt><trkpt lat="39.13658416212861" lon="8.991734411713644"><ele>37.0</ele><time>2026-04-04T16:28:29Z</time></trkpt><trkpt lat="39.1363687279267" lon="8.991879037347175"><ele>37.0</ele><time>2026-04-04T16:28:30Z</time></trkpt><trkpt lat="39.13615578532787" lon="8.992028998723045"><ele>37.0</ele><time>2026-04-04T16:28:31Z</time></trkpt><trkpt lat="39.13594604479682" lon="8.992184923867022"><ele>37.0</ele><time>2026-04-04T16:28:32Z</time></trkpt><trkpt lat="39.13573966533821" lon="8.992344501298344"><ele>37.0</ele><time>2026-04-04T16:28:33Z</time></trkpt><trkpt lat="39.13553320822632" lon="8.992508887453365"><ele>34.0</ele><time>2026-04-04T16:28:34Z</time></trkpt><trkpt lat="39.13532854633311" lon="8.99267777409791"><ele>31.0</ele><time>2026-04-04T16:28:35Z</time></trkpt><trkpt lat="39.13512353165085" lon="8.99284636485324"><ele>31.0</ele><time>2026-04-04T16:28:36Z</time></trkpt><trkpt lat="39.13492187454896" lon="8.993016881447142"><ele>31.0</ele><time>2026-04-04T16:28:37Z</time></trkpt><trkpt lat="39.1347222373388" lon="8.993189258935983"><ele>26.5</ele><time>2026-04-04T16:28:38Z</time></trkpt><trkpt lat="39.13452357924546" lon="8.99336284661943"><ele>22.0</ele><time>2026-04-04T16:28:39Z</time></trkpt><trkpt lat="39.13433045007997" lon="8.993531335597657"><ele>22.0</ele><time>2026-04-04T16:28:40Z</time></trkpt><trkpt lat="39.13413864165122" lon="8.993697686331025"><ele>22.0</ele><time>2026-04-04T16:28:41Z</time></trkpt><trkpt lat="39.13394568904022" lon="8.993865255001127"><ele>22.5</ele><time>2026-04-04T16:28:42Z</time></trkpt><trkpt lat="39.13375750412739" lon="8.99402678411962"><ele>23.0</ele><time>2026-04-04T16:28:43Z</time></trkpt><trkpt lat="39.133566881880654" lon="8.994190230497031"><ele>23.0</ele><time>2026-04-04T16:28:44Z</time></trkpt><trkpt lat="39.13337249199905" lon="8.994351598676168"><ele>23.0</ele><time>2026-04-04T16:28:45Z</time></trkpt><trkpt lat="39.13317618910457" lon="8.994507114044158"><ele>26.5</ele><time>2026-04-04T16:28:46Z</time></trkpt><trkpt lat="39.1329697728289" lon="8.994666392741411"><ele>30.0</ele><time>2026-04-04T16:28:47Z</time></trkpt><trkpt lat="39.13276486161802" lon="8.99482349709087"><ele>30.0</ele><time>2026-04-04T16:28:48Z</time></trkpt><trkpt lat="39.13254928670141" lon="8.99497681932247"><ele>30.0</ele><time>2026-04-04T16:28:49Z</time></trkpt><trkpt lat="39.13233370035638" lon="8.995128227962839"><ele>28.0</ele><time>2026-04-04T16:28:50Z</time></trkpt><trkpt lat="39.13211236981453" lon="8.995277537747237"><ele>26.0</ele><time>2026-04-04T16:28:51Z</time></trkpt><trkpt lat="39.13188754423144" lon="8.99542266541806"><ele>26.0</ele><time>2026-04-04T16:28:52Z</time></trkpt><trkpt lat="39.13165704669037" lon="8.995559960615731"><ele>26.0</ele><time>2026-04-04T16:28:53Z</time></trkpt><trkpt lat="39.13142225304682" lon="8.995689941649267"><ele>27.0</ele><time>2026-04-04T16:28:54Z</time></trkpt><trkpt lat="39.13118350565324" lon="8.99581349297443"><ele>28.0</ele><time>2026-04-04T16:28:55Z</time></trkpt><trkpt lat="39.1309444449044" lon="8.995930790537662"><ele>29.5</ele><time>2026-04-04T16:28:56Z</time></trkpt><trkpt lat="39.13070765669242" lon="8.996041727100645"><ele>31.0</ele><time>2026-04-04T16:28:57Z</time></trkpt><trkpt lat="39.130478795806" lon="8.996140907762538"><ele>31.0</ele><time>2026-04-04T16:28:58Z</time></trkpt><trkpt lat="39.1302543636702" lon="8.996227409449904"><ele>31.0</ele><time>2026-04-04T16:28:59Z</time></trkpt><trkpt lat="39.130025096678224" lon="8.996308793412895"><ele>32.0</ele><time>2026-04-04T16:29:00Z</time></trkpt><trkpt lat="39.12979759890575" lon="8.996380150473767"><ele>33.0</ele><time>2026-04-04T16:29:01Z</time></trkpt><trkpt lat="39.12956323466774" lon="8.996450736602837"><ele>33.0</ele><time>2026-04-04T16:29:02Z</time></trkpt><trkpt lat="39.12933332410299" lon="8.996514304990134"><ele>33.0</ele><time>2026-04-04T16:29:03Z</time></trkpt><trkpt lat="39.12910260872494" lon="8.996568011479193"><ele>32.5</ele><time>2026-04-04T16:29:04Z</time></trkpt><trkpt lat="39.12887325136118" lon="8.996612983651222"><ele>32.0</ele><time>2026-04-04T16:29:05Z</time></trkpt><trkpt lat="39.12864200449131" lon="8.996652280978754"><ele>31.5</ele><time>2026-04-04T16:29:06Z</time></trkpt><trkpt lat="39.12841033032152" lon="8.996683522677419"><ele>31.0</ele><time>2026-04-04T16:29:07Z</time></trkpt><trkpt lat="39.12817846501488" lon="8.99671006364187"><ele>31.0</ele><time>2026-04-04T16:29:08Z</time></trkpt><trkpt lat="39.12794703616305" lon="8.996730610596554"><ele>31.0</ele><time>2026-04-04T16:29:09Z</time></trkpt><trkpt lat="39.12771324833855" lon="8.996745639426619"><ele>31.0</ele><time>2026-04-04T16:29:10Z</time></trkpt><trkpt lat="39.12747896989856" lon="8.99675583194951"><ele>31.0</ele><time>2026-04-04T16:29:11Z</time></trkpt><trkpt lat="39.12724708036279" lon="8.996759677910154"><ele>31.5</ele><time>2026-04-04T16:29:12Z</time></trkpt><trkpt lat="39.12701554395504" lon="8.99675567105457"><ele>32.0</ele><time>2026-04-04T16:29:13Z</time></trkpt><trkpt lat="39.126782442373674" lon="8.996743378273703"><ele>33.0</ele><time>2026-04-04T16:29:14Z</time></trkpt><trkpt lat="39.126547049872826" lon="8.996724919214333"><ele>34.0</ele><time>2026-04-04T16:29:15Z</time></trkpt><trkpt lat="39.12630981471257" lon="8.99670039458158"><ele>34.0</ele><time>2026-04-04T16:29:16Z</time></trkpt><trkpt lat="39.126072113859394" lon="8.996672408771396"><ele>34.0</ele><time>2026-04-04T16:29:17Z</time></trkpt><trkpt lat="39.12583399015678" lon="8.99663788095786"><ele>37.0</ele><time>2026-04-04T16:29:18Z</time></trkpt><trkpt lat="39.1255953205948" lon="8.996599124302834"><ele>40.0</ele><time>2026-04-04T16:29:19Z</time></trkpt><trkpt lat="39.12535792892538" lon="8.996557432920588"><ele>40.0</ele><time>2026-04-04T16:29:20Z</time></trkpt><trkpt lat="39.125120314250616" lon="8.996511226990394"><ele>40.0</ele><time>2026-04-04T16:29:21Z</time></trkpt><trkpt lat="39.12488075890603" lon="8.996462407094977"><ele>40.5</ele><time>2026-04-04T16:29:22Z</time></trkpt><trkpt lat="39.12464100307729" lon="8.996410853798775"><ele>41.0</ele><time>2026-04-04T16:29:23Z</time></trkpt><trkpt lat="39.12440023157566" lon="8.996359980381639"><ele>41.0</ele><time>2026-04-04T16:29:24Z</time></trkpt><trkpt lat="39.12416104767672" lon="8.996306022238265"><ele>41.0</ele><time>2026-04-04T16:29:25Z</time></trkpt><trkpt lat="39.12392141566566" lon="8.996253191692137"><ele>41.5</ele><time>2026-04-04T16:29:26Z</time></trkpt><trkpt lat="39.12368518711969" lon="8.99620012521221"><ele>42.0</ele><time>2026-04-04T16:29:27Z</time></trkpt><trkpt lat="39.12344713529561" lon="8.996157693062942"><ele>45.0</ele><time>2026-04-04T16:29:28Z</time></trkpt><trkpt lat="39.123211152947626" lon="8.996115272409263"><ele>48.0</ele><time>2026-04-04T16:29:29Z</time></trkpt><trkpt lat="39.122975544566756" lon="8.996077018741174"><ele>48.0</ele><time>2026-04-04T16:29:30Z</time></trkpt><trkpt lat="39.122739661021015" lon="8.996041999698384"><ele>48.0</ele><time>2026-04-04T16:29:31Z</time></trkpt><trkpt lat="39.122503057725055" lon="8.99601284516637"><ele>49.0</ele><time>2026-04-04T16:29:32Z</time></trkpt><trkpt lat="39.12226621088635" lon="8.995994733861172"><ele>50.0</ele><time>2026-04-04T16:29:33Z</time></trkpt><trkpt lat="39.12202701999502" lon="8.995984228321865"><ele>50.0</ele><time>2026-04-04T16:29:34Z</time></trkpt><trkpt lat="39.121788826129915" lon="8.995982715893062"><ele>50.0</ele><time>2026-04-04T16:29:35Z</time></trkpt><trkpt lat="39.12154848572326" lon="8.995985336466347"><ele>47.0</ele><time>2026-04-04T16:29:36Z</time></trkpt><trkpt lat="39.121306491832684" lon="8.995993339870285"><ele>44.0</ele><time>2026-04-04T16:29:37Z</time></trkpt><trkpt lat="39.121060725597424" lon="8.996009372392876"><ele>44.0</ele><time>2026-04-04T16:29:38Z</time></trkpt><trkpt lat="39.120815164371095" lon="8.99603215278569"><ele>44.0</ele><time>2026-04-04T16:29:39Z</time></trkpt><trkpt lat="39.12057328641709" lon="8.996060746358157"><ele>44.0</ele><time>2026-04-04T16:29:40Z</time></trkpt><trkpt lat="39.120326288709464" lon="8.996100041500034"><ele>44.0</ele><time>2026-04-04T16:29:41Z</time></trkpt><trkpt lat="39.1200812441737" lon="8.996143933383934"><ele>46.0</ele><time>2026-04-04T16:29:42Z</time></trkpt><trkpt lat="39.119836793374894" lon="8.996199054358106"><ele>48.0</ele><time>2026-04-04T16:29:43Z</time></trkpt><trkpt lat="39.11959416021441" lon="8.996260288908982"><ele>48.0</ele><time>2026-04-04T16:29:44Z</time></trkpt><trkpt lat="39.119353135201266" lon="8.996326992256767"><ele>48.0</ele><time>2026-04-04T16:29:45Z</time></trkpt><trkpt lat="39.11911595444009" lon="8.99639973331411"><ele>49.5</ele><time>2026-04-04T16:29:46Z</time></trkpt><trkpt lat="39.11888357994332" lon="8.996476651863977"><ele>51.0</ele><time>2026-04-04T16:29:47Z</time></trkpt><trkpt lat="39.11865210567184" lon="8.996554189114903"><ele>51.0</ele><time>2026-04-04T16:29:48Z</time></trkpt><trkpt lat="39.11842338949852" lon="8.99663066793667"><ele>51.0</ele><time>2026-04-04T16:29:49Z</time></trkpt><trkpt lat="39.1181925792143" lon="8.996713372816473"><ele>49.0</ele><time>2026-04-04T16:29:50Z</time></trkpt><trkpt lat="39.117966407306746" lon="8.996793496629223"><ele>47.0</ele><time>2026-04-04T16:29:51Z</time></trkpt><trkpt lat="39.11773809053687" lon="8.996875853630327"><ele>47.0</ele><time>2026-04-04T16:29:52Z</time></trkpt><trkpt lat="39.117509031189094" lon="8.996957661454546"><ele>47.0</ele><time>2026-04-04T16:29:53Z</time></trkpt><trkpt lat="39.117278826715214" lon="8.99703829412041"><ele>47.5</ele><time>2026-04-04T16:29:54Z</time></trkpt><trkpt lat="39.11704651495543" lon="8.997116762050299"><ele>48.0</ele><time>2026-04-04T16:29:55Z</time></trkpt><trkpt lat="39.116813700576536" lon="8.997194229621623"><ele>48.0</ele><time>2026-04-04T16:29:56Z</time></trkpt><trkpt lat="39.116580805968944" lon="8.997274245308683"><ele>48.0</ele><time>2026-04-04T16:29:57Z</time></trkpt><trkpt lat="39.11634597151685" lon="8.99736017542852"><ele>49.5</ele><time>2026-04-04T16:29:58Z</time></trkpt><trkpt lat="39.11611395166835" lon="8.997446663284649"><ele>51.0</ele><time>2026-04-04T16:29:59Z</time></trkpt><trkpt lat="39.11587844949892" lon="8.997536560730902"><ele>49.5</ele><time>2026-04-04T16:30:00Z</time></trkpt><trkpt lat="39.11564280904448" lon="8.997620378684326"><ele>48.0</ele><time>2026-04-04T16:30:01Z</time></trkpt><trkpt lat="39.11540552090094" lon="8.997708467700976"><ele>48.0</ele><time>2026-04-04T16:30:02Z</time></trkpt><trkpt lat="39.115166415495" lon="8.99779647410145"><ele>48.0</ele><time>2026-04-04T16:30:03Z</time></trkpt><trkpt lat="39.114933740668384" lon="8.99788355706448"><ele>47.5</ele><time>2026-04-04T16:30:04Z</time></trkpt><trkpt lat="39.11470888693243" lon="8.997963359665663"><ele>47.0</ele><time>2026-04-04T16:30:05Z</time></trkpt><trkpt lat="39.11449784131561" lon="8.998035992228582"><ele>47.0</ele><time>2026-04-04T16:30:06Z</time></trkpt><trkpt lat="39.11428920349068" lon="8.998104027398472"><ele>47.0</ele><time>2026-04-04T16:30:07Z</time></trkpt><trkpt lat="39.114076185867795" lon="8.998174293189624"><ele>47.0</ele><time>2026-04-04T16:30:08Z</time></trkpt><trkpt lat="39.11386514718896" lon="8.998240292028651"><ele>46.0</ele><time>2026-04-04T16:30:09Z</time></trkpt><trkpt lat="39.11364829428266" lon="8.998304528060165"><ele>45.0</ele><time>2026-04-04T16:30:10Z</time></trkpt><trkpt lat="39.11342501469596" lon="8.998359058475112"><ele>41.0</ele><time>2026-04-04T16:30:11Z</time></trkpt><trkpt lat="39.11320051173993" lon="8.998399903435075"><ele>37.0</ele><time>2026-04-04T16:30:12Z</time></trkpt><trkpt lat="39.1129697792284" lon="8.998429262990703"><ele>37.0</ele><time>2026-04-04T16:30:13Z</time></trkpt><trkpt lat="39.112733178658154" lon="8.998449203255912"><ele>37.0</ele><time>2026-04-04T16:30:14Z</time></trkpt><trkpt lat="39.11249518211005" lon="8.998462274114884"><ele>38.0</ele><time>2026-04-04T16:30:15Z</time></trkpt><trkpt lat="39.112254169636294" lon="8.998465804468967"><ele>39.0</ele><time>2026-04-04T16:30:16Z</time></trkpt><trkpt lat="39.11200955569209" lon="8.998455131068685"><ele>39.0</ele><time>2026-04-04T16:30:17Z</time></trkpt><trkpt lat="39.11176489508134" lon="8.998428936220282"><ele>39.0</ele><time>2026-04-04T16:30:18Z</time></trkpt><trkpt lat="39.11152252220519" lon="8.998389366917426"><ele>40.5</ele><time>2026-04-04T16:30:19Z</time></trkpt><trkpt lat="39.111278275892026" lon="8.998340753394976"><ele>42.0</ele><time>2026-04-04T16:30:20Z</time></trkpt><trkpt lat="39.111035622414256" lon="8.998282316310021"><ele>44.0</ele><time>2026-04-04T16:30:21Z</time></trkpt><trkpt lat="39.11079201501786" lon="8.99821365133329"><ele>46.0</ele><time>2026-04-04T16:30:22Z</time></trkpt><trkpt lat="39.11055030063603" lon="8.99813282829447"><ele>48.0</ele><time>2026-04-04T16:30:23Z</time></trkpt><trkpt lat="39.11031218142669" lon="8.998042092162834"><ele>50.0</ele><time>2026-04-04T16:30:24Z</time></trkpt><trkpt lat="39.11008377637076" lon="8.997940760751495"><ele>54.0</ele><time>2026-04-04T16:30:25Z</time></trkpt><trkpt lat="39.10986942762123" lon="8.997834337828047"><ele>58.0</ele><time>2026-04-04T16:30:26Z</time></trkpt><trkpt lat="39.10966097042637" lon="8.997724881918167"><ele>58.0</ele><time>2026-04-04T16:30:27Z</time></trkpt><trkpt lat="39.10944535030292" lon="8.997612932439338"><ele>58.0</ele><time>2026-04-04T16:30:28Z</time></trkpt><trkpt lat="39.109227796014366" lon="8.997499550967051"><ele>62.0</ele><time>2026-04-04T16:30:29Z</time></trkpt><trkpt lat="39.10900502285887" lon="8.997381616345827"><ele>66.0</ele><time>2026-04-04T16:30:30Z</time></trkpt><trkpt lat="39.10877789323277" lon="8.997261795461176"><ele>66.0</ele><time>2026-04-04T16:30:31Z</time></trkpt><trkpt lat="39.10854505823917" lon="8.997145858724293"><ele>66.0</ele><time>2026-04-04T16:30:32Z</time></trkpt><trkpt lat="39.108310922120275" lon="8.997040944838364"><ele>65.5</ele><time>2026-04-04T16:30:33Z</time></trkpt><trkpt lat="39.10806896820945" lon="8.996948277020133"><ele>65.0</ele><time>2026-04-04T16:30:34Z</time></trkpt><trkpt lat="39.10782218983991" lon="8.99686922622868"><ele>65.0</ele><time>2026-04-04T16:30:35Z</time></trkpt><trkpt lat="39.107574335213414" lon="8.996797955597957"><ele>65.0</ele><time>2026-04-04T16:30:36Z</time></trkpt><trkpt lat="39.10732225914451" lon="8.99673374734758"><ele>64.0</ele><time>2026-04-04T16:30:37Z</time></trkpt><trkpt lat="39.10707184462921" lon="8.996680791158616"><ele>63.0</ele><time>2026-04-04T16:30:38Z</time></trkpt><trkpt lat="39.10681884923184" lon="8.996632702713297"><ele>63.0</ele><time>2026-04-04T16:30:39Z</time></trkpt><trkpt lat="39.10658193126195" lon="8.996590979855755"><ele>63.0</ele><time>2026-04-04T16:30:40Z</time></trkpt><trkpt lat="39.10636139256859" lon="8.996553733706458"><ele>66.0</ele><time>2026-04-04T16:30:41Z</time></trkpt><trkpt lat="39.10613566710351" lon="8.996514557584506"><ele>69.0</ele><time>2026-04-04T16:30:42Z</time></trkpt><trkpt lat="39.10591318161681" lon="8.996474415502844"><ele>71.5</ele><time>2026-04-04T16:30:43Z</time></trkpt><trkpt lat="39.105689413266596" lon="8.996433385005838"><ele>74.0</ele><time>2026-04-04T16:30:44Z</time></trkpt><trkpt lat="39.10546276747623" lon="8.996392462004998"><ele>74.0</ele><time>2026-04-04T16:30:45Z</time></trkpt><trkpt lat="39.10523648847018" lon="8.996351915689281"><ele>74.0</ele><time>2026-04-04T16:30:46Z</time></trkpt><trkpt lat="39.10500921365085" lon="8.99631194310378"><ele>76.0</ele><time>2026-04-04T16:30:47Z</time></trkpt><trkpt lat="39.104776553110746" lon="8.996271484931015"><ele>78.0</ele><time>2026-04-04T16:30:48Z</time></trkpt><trkpt lat="39.10454621656508" lon="8.996229820082764"><ele>78.0</ele><time>2026-04-04T16:30:49Z</time></trkpt><trkpt lat="39.10431603685059" lon="8.996189006809272"><ele>78.0</ele><time>2026-04-04T16:30:50Z</time></trkpt><trkpt lat="39.104083068343634" lon="8.996145351482236"><ele>71.5</ele><time>2026-04-04T16:30:51Z</time></trkpt><trkpt lat="39.10384618612478" lon="8.996100743457585"><ele>65.0</ele><time>2026-04-04T16:30:52Z</time></trkpt><trkpt lat="39.10360614976341" lon="8.996056905395543"><ele>65.0</ele><time>2026-04-04T16:30:53Z</time></trkpt><trkpt lat="39.1033677451147" lon="8.996014743825288"><ele>65.0</ele><time>2026-04-04T16:30:54Z</time></trkpt><trkpt lat="39.10312301077315" lon="8.995975593477555"><ele>62.5</ele><time>2026-04-04T16:30:55Z</time></trkpt><trkpt lat="39.1028832936456" lon="8.995940996863938"><ele>60.0</ele><time>2026-04-04T16:30:56Z</time></trkpt><trkpt lat="39.10263637084171" lon="8.995913220339919"><ele>62.5</ele><time>2026-04-04T16:30:57Z</time></trkpt><trkpt lat="39.10239171736315" lon="8.995892255186286"><ele>65.0</ele><time>2026-04-04T16:30:58Z</time></trkpt><trkpt lat="39.10214627775607" lon="8.995880937359097"><ele>65.0</ele><time>2026-04-04T16:30:59Z</time></trkpt><trkpt lat="39.10189799775177" lon="8.995878413962147"><ele>65.0</ele><time>2026-04-04T16:31:00Z</time></trkpt><trkpt lat="39.1016493038728" lon="8.995883973336095"><ele>66.0</ele><time>2026-04-04T16:31:01Z</time></trkpt><trkpt lat="39.10140132532021" lon="8.99589989254799"><ele>67.0</ele><time>2026-04-04T16:31:02Z</time></trkpt><trkpt lat="39.10114875089492" lon="8.9959224426734"><ele>67.0</ele><time>2026-04-04T16:31:03Z</time></trkpt><trkpt lat="39.10089533257426" lon="8.995951602658327"><ele>67.0</ele><time>2026-04-04T16:31:04Z</time></trkpt><trkpt lat="39.10064075715946" lon="8.995990570939874"><ele>68.0</ele><time>2026-04-04T16:31:05Z</time></trkpt><trkpt lat="39.10038516228159" lon="8.996043297615978"><ele>69.0</ele><time>2026-04-04T16:31:06Z</time></trkpt><trkpt lat="39.100136480814676" lon="8.996103156920071"><ele>73.0</ele><time>2026-04-04T16:31:07Z</time></trkpt><trkpt lat="39.099896165726555" lon="8.996168137353099"><ele>77.0</ele><time>2026-04-04T16:31:08Z</time></trkpt><trkpt lat="39.0996647659271" lon="8.996237125077489"><ele>77.0</ele><time>2026-04-04T16:31:09Z</time></trkpt><trkpt lat="39.099431372867144" lon="8.996308833557903"><ele>77.0</ele><time>2026-04-04T16:31:10Z</time></trkpt><trkpt lat="39.099198509603376" lon="8.9963800478546"><ele>78.5</ele><time>2026-04-04T16:31:11Z</time></trkpt><trkpt lat="39.09896658031179" lon="8.996445093992808"><ele>80.0</ele><time>2026-04-04T16:31:12Z</time></trkpt><trkpt lat="39.09873772536806" lon="8.996506112434359"><ele>80.0</ele><time>2026-04-04T16:31:13Z</time></trkpt><trkpt lat="39.09850966669997" lon="8.996563797323434"><ele>80.0</ele><time>2026-04-04T16:31:14Z</time></trkpt><trkpt lat="39.0982802992899" lon="8.99661724253463"><ele>85.5</ele><time>2026-04-04T16:31:15Z</time></trkpt><trkpt lat="39.09805353142321" lon="8.99666978667128"><ele>91.0</ele><time>2026-04-04T16:31:16Z</time></trkpt><trkpt lat="39.09782427774781" lon="8.99672785995092"><ele>91.0</ele><time>2026-04-04T16:31:17Z</time></trkpt><trkpt lat="39.097599551692646" lon="8.996791330639995"><ele>91.0</ele><time>2026-04-04T16:31:18Z</time></trkpt><trkpt lat="39.09737227359112" lon="8.996859137239916"><ele>90.5</ele><time>2026-04-04T16:31:19Z</time></trkpt><trkpt lat="39.09714880091902" lon="8.99693086433913"><ele>90.0</ele><time>2026-04-04T16:31:20Z</time></trkpt><trkpt lat="39.09692529456195" lon="8.997001007746519"><ele>90.0</ele><time>2026-04-04T16:31:21Z</time></trkpt><trkpt lat="39.096699861225595" lon="8.997071186417868"><ele>90.0</ele><time>2026-04-04T16:31:22Z</time></trkpt><trkpt lat="39.09647383575004" lon="8.997140976338935"><ele>93.33333333333334</ele><time>2026-04-04T16:31:23Z</time></trkpt><trkpt lat="39.09625104630251" lon="8.997211639231038"><ele>96.66666666666667</ele><time>2026-04-04T16:31:24Z</time></trkpt><trkpt lat="39.09603721838562" lon="8.99727122266047"><ele>100.0</ele><time>2026-04-04T16:31:25Z</time></trkpt><trkpt lat="39.09582666586618" lon="8.997319295359535"><ele>106.66666666666667</ele><time>2026-04-04T16:31:26Z</time></trkpt><trkpt lat="39.09561435625434" lon="8.997363212175726"><ele>113.33333333333334</ele><time>2026-04-04T16:31:27Z</time></trkpt><trkpt lat="39.09540472548307" lon="8.997404756650575"><ele>120.0</ele><time>2026-04-04T16:31:28Z</time></trkpt><trkpt lat="39.09519302230005" lon="8.997448839253305"><ele>120.0</ele><time>2026-04-04T16:31:29Z</time></trkpt><trkpt lat="39.09497849051361" lon="8.99749566749205"><ele>120.0</ele><time>2026-04-04T16:31:30Z</time></trkpt><trkpt lat="39.09475457998407" lon="8.997547368151194"><ele>120.0</ele><time>2026-04-04T16:31:31Z</time></trkpt><trkpt lat="39.09436732189762" lon="8.997761773188017"><ele>114.0</ele><time>2026-04-04T16:31:32Z</time></trkpt><trkpt lat="39.09414364071432" lon="8.997830945650163"><ele>108.0</ele><time>2026-04-04T16:31:33Z</time></trkpt><trkpt lat="39.093927609074754" lon="8.997898970704819"><ele>100.66666666666667</ele><time>2026-04-04T16:31:34Z</time></trkpt><trkpt lat="39.093716643245195" lon="8.997969690284707"><ele>93.33333333333334</ele><time>2026-04-04T16:31:35Z</time></trkpt><trkpt lat="39.09351879792522" lon="8.998031969044945"><ele>86.0</ele><time>2026-04-04T16:31:36Z</time></trkpt><trkpt lat="39.0933175120265" lon="8.998091771153575"><ele>83.0</ele><time>2026-04-04T16:31:37Z</time></trkpt><trkpt lat="39.09312736103213" lon="8.998148963938592"><ele>80.0</ele><time>2026-04-04T16:31:38Z</time></trkpt><trkpt lat="39.09293011639083" lon="8.998207808883375"><ele>77.0</ele><time>2026-04-04T16:31:39Z</time></trkpt><trkpt lat="39.092739653144314" lon="8.99826541978343"><ele>74.5</ele><time>2026-04-04T16:31:40Z</time></trkpt><trkpt lat="39.09248469941372" lon="8.998340263269702"><ele>72.0</ele><time>2026-04-04T16:31:42Z</time></trkpt><trkpt lat="39.092210737088074" lon="8.998437608411045"><ele>67.0</ele><time>2026-04-04T16:31:43Z</time></trkpt><trkpt lat="39.091960537333236" lon="8.998515218637895"><ele>62.0</ele><time>2026-04-04T16:31:44Z</time></trkpt><trkpt lat="39.09172346684486" lon="8.998557787239823"><ele>58.5</ele><time>2026-04-04T16:31:45Z</time></trkpt><trkpt lat="39.09149082786088" lon="8.998600585367992"><ele>55.0</ele><time>2026-04-04T16:31:46Z</time></trkpt><trkpt lat="39.091256259130446" lon="8.998634690350537"><ele>55.0</ele><time>2026-04-04T16:31:47Z</time></trkpt><trkpt lat="39.091024934877304" lon="8.998661694105921"><ele>55.0</ele><time>2026-04-04T16:31:48Z</time></trkpt><trkpt lat="39.090792103704146" lon="8.998682983046274"><ele>53.5</ele><time>2026-04-04T16:31:49Z</time></trkpt><trkpt lat="39.0905560211072" lon="8.998696434975521"><ele>52.0</ele><time>2026-04-04T16:31:50Z</time></trkpt><trkpt lat="39.090320584848115" lon="8.998699517698327"><ele>52.0</ele><time>2026-04-04T16:31:51Z</time></trkpt><trkpt lat="39.09008476279526" lon="8.998693107560156"><ele>52.0</ele><time>2026-04-04T16:31:52Z</time></trkpt><trkpt lat="39.08984883402257" lon="8.998677867302925"><ele>56.5</ele><time>2026-04-04T16:31:53Z</time></trkpt><trkpt lat="39.08961558030791" lon="8.998655296792322"><ele>61.0</ele><time>2026-04-04T16:31:54Z</time></trkpt><trkpt lat="39.08938008297244" lon="8.998625743071521"><ele>61.0</ele><time>2026-04-04T16:31:55Z</time></trkpt><trkpt lat="39.08914424558504" lon="8.998589329709924"><ele>61.0</ele><time>2026-04-04T16:31:56Z</time></trkpt><trkpt lat="39.08891314342919" lon="8.998546265380662"><ele>65.5</ele><time>2026-04-04T16:31:57Z</time></trkpt><trkpt lat="39.08867870090549" lon="8.998497510715659"><ele>70.0</ele><time>2026-04-04T16:31:58Z</time></trkpt><trkpt lat="39.088449324201015" lon="8.998441859025885"><ele>71.0</ele><time>2026-04-04T16:31:59Z</time></trkpt><trkpt lat="39.088219247433955" lon="8.99837759480811"><ele>72.0</ele><time>2026-04-04T16:32:00Z</time></trkpt><trkpt lat="39.08798378297773" lon="8.998303368150898"><ele>74.0</ele><time>2026-04-04T16:32:01Z</time></trkpt><trkpt lat="39.08774051955401" lon="8.998221152170686"><ele>76.0</ele><time>2026-04-04T16:32:02Z</time></trkpt><trkpt lat="39.0874937392706" lon="8.998134235643702"><ele>79.0</ele><time>2026-04-04T16:32:03Z</time></trkpt><trkpt lat="39.08724998810409" lon="8.998048670203572"><ele>82.0</ele><time>2026-04-04T16:32:04Z</time></trkpt><trkpt lat="39.08700813381361" lon="8.997963354763701"><ele>82.0</ele><time>2026-04-04T16:32:05Z</time></trkpt><trkpt lat="39.08676849998778" lon="8.997883164975546"><ele>82.0</ele><time>2026-04-04T16:32:06Z</time></trkpt><trkpt lat="39.086526798748096" lon="8.997804173831774"><ele>82.0</ele><time>2026-04-04T16:32:07Z</time></trkpt><trkpt lat="39.08628711905195" lon="8.99772416065642"><ele>82.0</ele><time>2026-04-04T16:32:08Z</time></trkpt><trkpt lat="39.08604286128584" lon="8.997640696155663"><ele>82.0</ele><time>2026-04-04T16:32:09Z</time></trkpt><trkpt lat="39.085799950260906" lon="8.997556431434596"><ele>82.0</ele><time>2026-04-04T16:32:10Z</time></trkpt><trkpt lat="39.0855562901568" lon="8.997471736081666"><ele>86.5</ele><time>2026-04-04T16:32:11Z</time></trkpt><trkpt lat="39.085313481780496" lon="8.997386024166842"><ele>91.0</ele><time>2026-04-04T16:32:12Z</time></trkpt><trkpt lat="39.085067162895406" lon="8.997299312683175"><ele>88.0</ele><time>2026-04-04T16:32:13Z</time></trkpt><trkpt lat="39.084820548043176" lon="8.99721357117727"><ele>85.0</ele><time>2026-04-04T16:32:14Z</time></trkpt><trkpt lat="39.08457246024971" lon="8.997126712437474"><ele>85.0</ele><time>2026-04-04T16:32:15Z</time></trkpt><trkpt lat="39.08432515160783" lon="8.997041322943806"><ele>85.0</ele><time>2026-04-04T16:32:16Z</time></trkpt><trkpt lat="39.08407463225761" lon="8.996957565345351"><ele>84.0</ele><time>2026-04-04T16:32:17Z</time></trkpt><trkpt lat="39.083822733149724" lon="8.996873475708606"><ele>83.0</ele><time>2026-04-04T16:32:18Z</time></trkpt><trkpt lat="39.083571759692035" lon="8.996789642404332"><ele>83.0</ele><time>2026-04-04T16:32:19Z</time></trkpt><trkpt lat="39.083320422952326" lon="8.996702718202771"><ele>83.0</ele><time>2026-04-04T16:32:20Z</time></trkpt><trkpt lat="39.08307004043818" lon="8.996617277955576"><ele>85.0</ele><time>2026-04-04T16:32:21Z</time></trkpt><trkpt lat="39.082819025586375" lon="8.9965296252458"><ele>87.0</ele><time>2026-04-04T16:32:22Z</time></trkpt><trkpt lat="39.082569368306075" lon="8.996441395917598"><ele>86.5</ele><time>2026-04-04T16:32:23Z</time></trkpt><trkpt lat="39.08231335399337" lon="8.99635462009597"><ele>86.0</ele><time>2026-04-04T16:32:24Z</time></trkpt><trkpt lat="39.08205859024528" lon="8.996273234138735"><ele>86.0</ele><time>2026-04-04T16:32:25Z</time></trkpt><trkpt lat="39.081804837531436" lon="8.996190305937992"><ele>86.0</ele><time>2026-04-04T16:32:26Z</time></trkpt><trkpt lat="39.0815496199638" lon="8.996104214638583"><ele>82.0</ele><time>2026-04-04T16:32:27Z</time></trkpt><trkpt lat="39.08129009965481" lon="8.996013105149528"><ele>78.0</ele><time>2026-04-04T16:32:28Z</time></trkpt><trkpt lat="39.08103306033652" lon="8.99592682410098"><ele>78.0</ele><time>2026-04-04T16:32:29Z</time></trkpt><trkpt lat="39.08078425614046" lon="8.995849187344021"><ele>78.0</ele><time>2026-04-04T16:32:30Z</time></trkpt><trkpt lat="39.08053133210792" lon="8.99577181956666"><ele>76.0</ele><time>2026-04-04T16:32:31Z</time></trkpt><trkpt lat="39.080276863343755" lon="8.995691753498452"><ele>74.0</ele><time>2026-04-04T16:32:32Z</time></trkpt><trkpt lat="39.08002917908644" lon="8.995610441747502"><ele>72.5</ele><time>2026-04-04T16:32:33Z</time></trkpt><trkpt lat="39.07977878821146" lon="8.995523048572421"><ele>71.0</ele><time>2026-04-04T16:32:34Z</time></trkpt><trkpt lat="39.07952705664872" lon="8.99543360999576"><ele>71.0</ele><time>2026-04-04T16:32:35Z</time></trkpt><trkpt lat="39.07927833594027" lon="8.99534483411057"><ele>71.0</ele><time>2026-04-04T16:32:36Z</time></trkpt><trkpt lat="39.07903088167385" lon="8.995261131543229"><ele>72.0</ele><time>2026-04-04T16:32:37Z</time></trkpt><trkpt lat="39.07878571626782" lon="8.995178666730233"><ele>73.0</ele><time>2026-04-04T16:32:38Z</time></trkpt><trkpt lat="39.0785376607021" lon="8.995090284704357"><ele>74.0</ele><time>2026-04-04T16:32:39Z</time></trkpt><trkpt lat="39.078292380679414" lon="8.994999448695236"><ele>75.0</ele><time>2026-04-04T16:32:40Z</time></trkpt><trkpt lat="39.07804788379159" lon="8.99490687684657"><ele>75.5</ele><time>2026-04-04T16:32:41Z</time></trkpt><trkpt lat="39.07780558227483" lon="8.994816767062803"><ele>76.0</ele><time>2026-04-04T16:32:42Z</time></trkpt><trkpt lat="39.077565255183984" lon="8.994733126026338"><ele>76.0</ele><time>2026-04-04T16:32:43Z</time></trkpt><trkpt lat="39.077325763162605" lon="8.994654108441031"><ele>76.0</ele><time>2026-04-04T16:32:44Z</time></trkpt><trkpt lat="39.07708517456069" lon="8.994573525632047"><ele>76.0</ele><time>2026-04-04T16:32:45Z</time></trkpt><trkpt lat="39.07685504287711" lon="8.994492203604262"><ele>76.0</ele><time>2026-04-04T16:32:46Z</time></trkpt><trkpt lat="39.07662397258719" lon="8.994409390122234"><ele>76.5</ele><time>2026-04-04T16:32:47Z</time></trkpt><trkpt lat="39.0763933090827" lon="8.994327762154025"><ele>77.0</ele><time>2026-04-04T16:32:48Z</time></trkpt><trkpt lat="39.07616855279757" lon="8.994248229591848"><ele>77.0</ele><time>2026-04-04T16:32:49Z</time></trkpt><trkpt lat="39.07594328713719" lon="8.994169243266832"><ele>77.0</ele><time>2026-04-04T16:32:50Z</time></trkpt><trkpt lat="39.07571682575236" lon="8.994090674207147"><ele>77.0</ele><time>2026-04-04T16:32:51Z</time></trkpt><trkpt lat="39.07548122640698" lon="8.994011347262724"><ele>77.0</ele><time>2026-04-04T16:32:52Z</time></trkpt><trkpt lat="39.075248804080765" lon="8.993931712770546"><ele>77.0</ele><time>2026-04-04T16:32:53Z</time></trkpt><trkpt lat="39.07501860078827" lon="8.993851427146545"><ele>77.0</ele><time>2026-04-04T16:32:54Z</time></trkpt><trkpt lat="39.07478673870948" lon="8.993769918700307"><ele>77.0</ele><time>2026-04-04T16:32:55Z</time></trkpt><trkpt lat="39.07455310274401" lon="8.993688602582735"><ele>77.0</ele><time>2026-04-04T16:32:56Z</time></trkpt><trkpt lat="39.0743189191271" lon="8.993609346489398"><ele>76.5</ele><time>2026-04-04T16:32:57Z</time></trkpt><trkpt lat="39.07408836013582" lon="8.993530332042369"><ele>76.0</ele><time>2026-04-04T16:32:58Z</time></trkpt><trkpt lat="39.073853643826006" lon="8.99345347505687"><ele>76.0</ele><time>2026-04-04T16:32:59Z</time></trkpt><trkpt lat="39.07361944740124" lon="8.993375376637118"><ele>76.0</ele><time>2026-04-04T16:33:00Z</time></trkpt><trkpt lat="39.073389177809794" lon="8.993298425390643"><ele>76.5</ele><time>2026-04-04T16:33:01Z</time></trkpt><trkpt lat="39.07315971712041" lon="8.993221561809781"><ele>77.0</ele><time>2026-04-04T16:33:02Z</time></trkpt><trkpt lat="39.07293069407354" lon="8.993143131009209"><ele>77.0</ele><time>2026-04-04T16:33:03Z</time></trkpt><trkpt lat="39.07269758594313" lon="8.993062166570336"><ele>77.0</ele><time>2026-04-04T16:33:04Z</time></trkpt><trkpt lat="39.07246568648218" lon="8.992984415659473"><ele>77.5</ele><time>2026-04-04T16:33:05Z</time></trkpt><trkpt lat="39.07223305168418" lon="8.992901999289629"><ele>78.0</ele><time>2026-04-04T16:33:06Z</time></trkpt><trkpt lat="39.07199937310736" lon="8.992820254370837"><ele>78.0</ele><time>2026-04-04T16:33:07Z</time></trkpt><trkpt lat="39.07176301976653" lon="8.992737354603735"><ele>78.0</ele><time>2026-04-04T16:33:08Z</time></trkpt><trkpt lat="39.07152782996741" lon="8.992656147792264"><ele>77.0</ele><time>2026-04-04T16:33:09Z</time></trkpt><trkpt lat="39.071291510098895" lon="8.992576232934738"><ele>76.0</ele><time>2026-04-04T16:33:10Z</time></trkpt><trkpt lat="39.071056813404866" lon="8.992497963960917"><ele>76.0</ele><time>2026-04-04T16:33:11Z</time></trkpt><trkpt lat="39.070827813630025" lon="8.99242288741129"><ele>76.0</ele><time>2026-04-04T16:33:12Z</time></trkpt><trkpt lat="39.0705983258705" lon="8.992344945941408"><ele>75.5</ele><time>2026-04-04T16:33:13Z</time></trkpt><trkpt lat="39.07036798795918" lon="8.992267644281617"><ele>75.0</ele><time>2026-04-04T16:33:14Z</time></trkpt><trkpt lat="39.07014037949805" lon="8.99218911276128"><ele>74.0</ele><time>2026-04-04T16:33:15Z</time></trkpt><trkpt lat="39.06990854317567" lon="8.992108318645156"><ele>73.0</ele><time>2026-04-04T16:33:16Z</time></trkpt><trkpt lat="39.069677748998025" lon="8.992026832600313"><ele>73.0</ele><time>2026-04-04T16:33:17Z</time></trkpt><trkpt lat="39.069449067665424" lon="8.991945597893563"><ele>73.0</ele><time>2026-04-04T16:33:18Z</time></trkpt><trkpt lat="39.06921817269841" lon="8.991866820909188"><ele>71.5</ele><time>2026-04-04T16:33:19Z</time></trkpt><trkpt lat="39.06899130883445" lon="8.991790592479752"><ele>70.0</ele><time>2026-04-04T16:33:20Z</time></trkpt><trkpt lat="39.06876323918746" lon="8.991712817979197"><ele>71.5</ele><time>2026-04-04T16:33:21Z</time></trkpt><trkpt lat="39.06853884022367" lon="8.991634293179562"><ele>73.0</ele><time>2026-04-04T16:33:22Z</time></trkpt><trkpt lat="39.06831376582002" lon="8.991556601937733"><ele>71.5</ele><time>2026-04-04T16:33:23Z</time></trkpt><trkpt lat="39.06808831560507" lon="8.99147810593988"><ele>70.0</ele><time>2026-04-04T16:33:24Z</time></trkpt><trkpt lat="39.06786558198974" lon="8.99139852086331"><ele>70.0</ele><time>2026-04-04T16:33:25Z</time></trkpt><trkpt lat="39.06763934647263" lon="8.991321224045613"><ele>70.0</ele><time>2026-04-04T16:33:26Z</time></trkpt><trkpt lat="39.06741389466962" lon="8.99124346432147"><ele>71.0</ele><time>2026-04-04T16:33:27Z</time></trkpt><trkpt lat="39.067189316219" lon="8.991165261246673"><ele>72.0</ele><time>2026-04-04T16:33:28Z</time></trkpt><trkpt lat="39.06695821990154" lon="8.991086870794081"><ele>72.0</ele><time>2026-04-04T16:33:29Z</time></trkpt><trkpt lat="39.066736240722406" lon="8.991006257998075"><ele>72.0</ele><time>2026-04-04T16:33:30Z</time></trkpt><trkpt lat="39.066513138867656" lon="8.990926552832882"><ele>74.0</ele><time>2026-04-04T16:33:31Z</time></trkpt><trkpt lat="39.06628788971089" lon="8.990848233925984"><ele>76.0</ele><time>2026-04-04T16:33:32Z</time></trkpt><trkpt lat="39.06606279306136" lon="8.990770472306865"><ele>76.0</ele><time>2026-04-04T16:33:33Z</time></trkpt><trkpt lat="39.065837476839846" lon="8.990691676896347"><ele>76.0</ele><time>2026-04-04T16:33:34Z</time></trkpt><trkpt lat="39.065612173766496" lon="8.990613215198813"><ele>73.5</ele><time>2026-04-04T16:33:35Z</time></trkpt><trkpt lat="39.06538404511062" lon="8.990533616009726"><ele>71.0</ele><time>2026-04-04T16:33:36Z</time></trkpt><trkpt lat="39.06515436449433" lon="8.990456309876478"><ele>70.0</ele><time>2026-04-04T16:33:37Z</time></trkpt><trkpt lat="39.06492457437115" lon="8.99037643365645"><ele>69.0</ele><time>2026-04-04T16:33:38Z</time></trkpt><trkpt lat="39.064692675146304" lon="8.990295254811853"><ele>69.0</ele><time>2026-04-04T16:33:39Z</time></trkpt><trkpt lat="39.06446157799158" lon="8.990214799108896"><ele>69.0</ele><time>2026-04-04T16:33:40Z</time></trkpt><trkpt lat="39.064230713621185" lon="8.990136012888522"><ele>68.5</ele><time>2026-04-04T16:33:41Z</time></trkpt><trkpt lat="39.06399914493591" lon="8.990057664023803"><ele>68.0</ele><time>2026-04-04T16:33:42Z</time></trkpt><trkpt lat="39.06376600622953" lon="8.98997817021805"><ele>67.0</ele><time>2026-04-04T16:33:43Z</time></trkpt><trkpt lat="39.06353699659242" lon="8.989898043404676"><ele>66.0</ele><time>2026-04-04T16:33:44Z</time></trkpt><trkpt lat="39.063306067630485" lon="8.989819142613298"><ele>65.5</ele><time>2026-04-04T16:33:45Z</time></trkpt><trkpt lat="39.06307935213488" lon="8.989740680456748"><ele>65.0</ele><time>2026-04-04T16:33:46Z</time></trkpt><trkpt lat="39.06285207962331" lon="8.98966150731835"><ele>65.0</ele><time>2026-04-04T16:33:47Z</time></trkpt><trkpt lat="39.0626323349536" lon="8.989584120591463"><ele>65.0</ele><time>2026-04-04T16:33:48Z</time></trkpt><trkpt lat="39.06241535554053" lon="8.989511415070458"><ele>64.66666666666667</ele><time>2026-04-04T16:33:49Z</time></trkpt><trkpt lat="39.06220683470067" lon="8.989440418200706"><ele>64.33333333333333</ele><time>2026-04-04T16:33:50Z</time></trkpt><trkpt lat="39.06199857154331" lon="8.989369520000556"><ele>64.0</ele><time>2026-04-04T16:33:51Z</time></trkpt><trkpt lat="39.06178877283848" lon="8.989297551941451"><ele>63.666666666666664</ele><time>2026-04-04T16:33:52Z</time></trkpt><trkpt lat="39.06157905649036" lon="8.989226858749188"><ele>63.33333333333333</ele><time>2026-04-04T16:33:53Z</time></trkpt><trkpt lat="39.06136581149202" lon="8.98915612661531"><ele>63.0</ele><time>2026-04-04T16:33:54Z</time></trkpt><trkpt lat="39.06115117084487" lon="8.989082670169049"><ele>62.5</ele><time>2026-04-04T16:33:55Z</time></trkpt><trkpt lat="39.06093246067992" lon="8.989006098252927"><ele>62.0</ele><time>2026-04-04T16:33:56Z</time></trkpt><trkpt lat="39.060708627401944" lon="8.98892842182883"><ele>60.5</ele><time>2026-04-04T16:33:57Z</time></trkpt><trkpt lat="39.060481506365065" lon="8.988850949145123"><ele>59.0</ele><time>2026-04-04T16:33:58Z</time></trkpt><trkpt lat="39.060254707379784" lon="8.988773890079452"><ele>59.0</ele><time>2026-04-04T16:33:59Z</time></trkpt><trkpt lat="39.060023251173284" lon="8.988695860040272"><ele>59.0</ele><time>2026-04-04T16:34:00Z</time></trkpt><trkpt lat="39.059790277025634" lon="8.988616811532104"><ele>58.0</ele><time>2026-04-04T16:34:01Z</time></trkpt><trkpt lat="39.0595593407376" lon="8.98853698348374"><ele>57.0</ele><time>2026-04-04T16:34:02Z</time></trkpt><trkpt lat="39.05932469760229" lon="8.988454820612239"><ele>57.5</ele><time>2026-04-04T16:34:03Z</time></trkpt><trkpt lat="39.05908909771744" lon="8.988372154137897"><ele>58.0</ele><time>2026-04-04T16:34:04Z</time></trkpt><trkpt lat="39.05885618615033" lon="8.98828986075755"><ele>59.0</ele><time>2026-04-04T16:34:05Z</time></trkpt><trkpt lat="39.05862165687665" lon="8.988207191800747"><ele>60.0</ele><time>2026-04-04T16:34:06Z</time></trkpt><trkpt lat="39.05838375832961" lon="8.988125092092378"><ele>59.0</ele><time>2026-04-04T16:34:07Z</time></trkpt><trkpt lat="39.05814361832084" lon="8.988045342285501"><ele>58.0</ele><time>2026-04-04T16:34:08Z</time></trkpt><trkpt lat="39.05790206003207" lon="8.987966064510857"><ele>58.0</ele><time>2026-04-04T16:34:09Z</time></trkpt><trkpt lat="39.05765845658474" lon="8.98788521881267"><ele>58.0</ele><time>2026-04-04T16:34:10Z</time></trkpt><trkpt lat="39.05741338691772" lon="8.987801049947116"><ele>56.5</ele><time>2026-04-04T16:34:11Z</time></trkpt><trkpt lat="39.05716829782388" lon="8.987715996547092"><ele>55.0</ele><time>2026-04-04T16:34:12Z</time></trkpt><trkpt lat="39.05692286984787" lon="8.987631037829503"><ele>55.0</ele><time>2026-04-04T16:34:13Z</time></trkpt><trkpt lat="39.05667410256517" lon="8.987544989144054"><ele>55.0</ele><time>2026-04-04T16:34:14Z</time></trkpt><trkpt lat="39.05642577017935" lon="8.987459210061767"><ele>54.5</ele><time>2026-04-04T16:34:15Z</time></trkpt><trkpt lat="39.05617864659448" lon="8.98737436571851"><ele>54.0</ele><time>2026-04-04T16:34:16Z</time></trkpt><trkpt lat="39.055928990728724" lon="8.987288610438746"><ele>54.0</ele><time>2026-04-04T16:34:17Z</time></trkpt><trkpt lat="39.05568018657354" lon="8.987201185895106"><ele>54.0</ele><time>2026-04-04T16:34:18Z</time></trkpt><trkpt lat="39.05543120566625" lon="8.987114861919508"><ele>54.0</ele><time>2026-04-04T16:34:19Z</time></trkpt><trkpt lat="39.05518053177532" lon="8.987028153781212"><ele>54.0</ele><time>2026-04-04T16:34:20Z</time></trkpt><trkpt lat="39.054928497372686" lon="8.986939023288274"><ele>53.0</ele><time>2026-04-04T16:34:21Z</time></trkpt><trkpt lat="39.054676717968434" lon="8.986850429843848"><ele>52.0</ele><time>2026-04-04T16:34:22Z</time></trkpt><trkpt lat="39.054423219208026" lon="8.986763402038074"><ele>52.0</ele><time>2026-04-04T16:34:23Z</time></trkpt><trkpt lat="39.0541695896745" lon="8.986678772476846"><ele>52.0</ele><time>2026-04-04T16:34:24Z</time></trkpt><trkpt lat="39.053911023666146" lon="8.986593341420331"><ele>50.5</ele><time>2026-04-04T16:34:25Z</time></trkpt><trkpt lat="39.05365814079005" lon="8.986513684368186"><ele>49.0</ele><time>2026-04-04T16:34:26Z</time></trkpt><trkpt lat="39.05341255826738" lon="8.98643547702209"><ele>49.0</ele><time>2026-04-04T16:34:27Z</time></trkpt><trkpt lat="39.05317692884931" lon="8.98635628764453"><ele>49.0</ele><time>2026-04-04T16:34:28Z</time></trkpt><trkpt lat="39.05293889680436" lon="8.98627872863666"><ele>49.0</ele><time>2026-04-04T16:34:29Z</time></trkpt><trkpt lat="39.05270414778423" lon="8.986205552419431"><ele>49.0</ele><time>2026-04-04T16:34:30Z</time></trkpt><trkpt lat="39.05246753985417" lon="8.986133630407222"><ele>48.0</ele><time>2026-04-04T16:34:31Z</time></trkpt><trkpt lat="39.05223310944589" lon="8.986066580517758"><ele>47.0</ele><time>2026-04-04T16:34:32Z</time></trkpt><trkpt lat="39.05199836386855" lon="8.986003203796598"><ele>47.0</ele><time>2026-04-04T16:34:33Z</time></trkpt><trkpt lat="39.051763466957645" lon="8.985947057338945"><ele>47.0</ele><time>2026-04-04T16:34:34Z</time></trkpt><trkpt lat="39.05153115441089" lon="8.985900679364446"><ele>47.0</ele><time>2026-04-04T16:34:35Z</time></trkpt><trkpt lat="39.051300403843804" lon="8.985857843383501"><ele>47.0</ele><time>2026-04-04T16:34:36Z</time></trkpt><trkpt lat="39.05107369901581" lon="8.985818075719633"><ele>48.5</ele><time>2026-04-04T16:34:37Z</time></trkpt><trkpt lat="39.05084454763004" lon="8.985781041681827"><ele>50.0</ele><time>2026-04-04T16:34:38Z</time></trkpt><trkpt lat="39.05061158634417" lon="8.98574967702675"><ele>50.0</ele><time>2026-04-04T16:34:39Z</time></trkpt><trkpt lat="39.05037480739578" lon="8.985723033024923"><ele>50.0</ele><time>2026-04-04T16:34:40Z</time></trkpt><trkpt lat="39.05013517997548" lon="8.985700725582884"><ele>48.5</ele><time>2026-04-04T16:34:41Z</time></trkpt><trkpt lat="39.04989241056731" lon="8.985682045079738"><ele>47.0</ele><time>2026-04-04T16:34:42Z</time></trkpt><trkpt lat="39.04964933768315" lon="8.985667251274025"><ele>47.0</ele><time>2026-04-04T16:34:43Z</time></trkpt><trkpt lat="39.049404492256976" lon="8.985656998330407"><ele>47.0</ele><time>2026-04-04T16:34:44Z</time></trkpt><trkpt lat="39.04915623633857" lon="8.985656149774272"><ele>47.0</ele><time>2026-04-04T16:34:45Z</time></trkpt><trkpt lat="39.048911972642095" lon="8.985659069601029"><ele>47.0</ele><time>2026-04-04T16:34:46Z</time></trkpt><trkpt lat="39.04866801072445" lon="8.985666433796094"><ele>47.0</ele><time>2026-04-04T16:34:47Z</time></trkpt><trkpt lat="39.04842642578515" lon="8.985677904067218"><ele>47.0</ele><time>2026-04-04T16:34:48Z</time></trkpt><trkpt lat="39.04818468436683" lon="8.985694167308813"><ele>46.5</ele><time>2026-04-04T16:34:49Z</time></trkpt><trkpt lat="39.04794371236388" lon="8.98571372592102"><ele>46.0</ele><time>2026-04-04T16:34:50Z</time></trkpt><trkpt lat="39.04770529515762" lon="8.985737660704961"><ele>46.0</ele><time>2026-04-04T16:34:51Z</time></trkpt><trkpt lat="39.04746659722876" lon="8.985761327064829"><ele>46.0</ele><time>2026-04-04T16:34:52Z</time></trkpt><trkpt lat="39.047227845581915" lon="8.98578535559586"><ele>46.5</ele><time>2026-04-04T16:34:53Z</time></trkpt><trkpt lat="39.046991545288165" lon="8.985809417450554"><ele>47.0</ele><time>2026-04-04T16:34:54Z</time></trkpt><trkpt lat="39.04675239921432" lon="8.985836047587114"><ele>47.0</ele><time>2026-04-04T16:34:55Z</time></trkpt><trkpt lat="39.046512827224575" lon="8.985859782877064"><ele>47.0</ele><time>2026-04-04T16:34:56Z</time></trkpt><trkpt lat="39.04627312555686" lon="8.985882664043578"><ele>47.0</ele><time>2026-04-04T16:34:57Z</time></trkpt><trkpt lat="39.046031902532526" lon="8.985901988438542"><ele>47.0</ele><time>2026-04-04T16:34:58Z</time></trkpt><trkpt lat="39.04578658485361" lon="8.985919520657497"><ele>47.0</ele><time>2026-04-04T16:34:59Z</time></trkpt><trkpt lat="39.045539139499006" lon="8.985936179899829"><ele>47.0</ele><time>2026-04-04T16:35:00Z</time></trkpt><trkpt lat="39.0452932231606" lon="8.985949412754383"><ele>47.0</ele><time>2026-04-04T16:35:01Z</time></trkpt><trkpt lat="39.045057830232345" lon="8.985955250662473"><ele>47.0</ele><time>2026-04-04T16:35:02Z</time></trkpt><trkpt lat="39.044829192183194" lon="8.985955603752256"><ele>45.5</ele><time>2026-04-04T16:35:03Z</time></trkpt><trkpt lat="39.04459420418622" lon="8.985951993785143"><ele>44.0</ele><time>2026-04-04T16:35:04Z</time></trkpt><trkpt lat="39.04435755346182" lon="8.985941631633496"><ele>40.0</ele><time>2026-04-04T16:35:05Z</time></trkpt><trkpt lat="39.044116808254465" lon="8.985925378719507"><ele>36.0</ele><time>2026-04-04T16:35:06Z</time></trkpt><trkpt lat="39.04387741646249" lon="8.985903498679306"><ele>36.0</ele><time>2026-04-04T16:35:07Z</time></trkpt><trkpt lat="39.043636971664554" lon="8.985872431521582"><ele>36.0</ele><time>2026-04-04T16:35:08Z</time></trkpt><trkpt lat="39.04339478930425" lon="8.985835071327788"><ele>36.0</ele><time>2026-04-04T16:35:09Z</time></trkpt><trkpt lat="39.04315177617243" lon="8.985792179877459"><ele>36.0</ele><time>2026-04-04T16:35:10Z</time></trkpt><trkpt lat="39.04290701946094" lon="8.985741402501976"><ele>36.0</ele><time>2026-04-04T16:35:11Z</time></trkpt><trkpt lat="39.04266310097527" lon="8.985682190251323"><ele>36.0</ele><time>2026-04-04T16:35:12Z</time></trkpt><trkpt lat="39.04241881291508" lon="8.985618602514437"><ele>35.0</ele><time>2026-04-04T16:35:13Z</time></trkpt><trkpt lat="39.04218637191743" lon="8.98555548593532"><ele>34.0</ele><time>2026-04-04T16:35:14Z</time></trkpt><trkpt lat="39.04196828990007" lon="8.985495094956466"><ele>34.0</ele><time>2026-04-04T16:35:15Z</time></trkpt><trkpt lat="39.04175390418846" lon="8.985435182067038"><ele>34.0</ele><time>2026-04-04T16:35:16Z</time></trkpt><trkpt lat="39.0415314645514" lon="8.98537357588921"><ele>34.0</ele><time>2026-04-04T16:35:17Z</time></trkpt><trkpt lat="39.041303749017715" lon="8.985307120450726"><ele>34.0</ele><time>2026-04-04T16:35:18Z</time></trkpt><trkpt lat="39.04107129390004" lon="8.985240475050732"><ele>34.0</ele><time>2026-04-04T16:35:19Z</time></trkpt><trkpt lat="39.040844561980244" lon="8.985176140637499"><ele>34.0</ele><time>2026-04-04T16:35:20Z</time></trkpt><trkpt lat="39.040611966658744" lon="8.985117441017342"><ele>34.0</ele><time>2026-04-04T16:35:21Z</time></trkpt><trkpt lat="39.0403677806031" lon="8.985063442934056"><ele>34.0</ele><time>2026-04-04T16:35:22Z</time></trkpt><trkpt lat="39.0401182248425" lon="8.985017376686645"><ele>34.0</ele><time>2026-04-04T16:35:23Z</time></trkpt><trkpt lat="39.0398702393397" lon="8.98498237735118"><ele>34.5</ele><time>2026-04-04T16:35:24Z</time></trkpt><trkpt lat="39.03962415169" lon="8.984956506620513"><ele>35.0</ele><time>2026-04-04T16:35:25Z</time></trkpt><trkpt lat="39.03937484375439" lon="8.98493369132541"><ele>34.5</ele><time>2026-04-04T16:35:26Z</time></trkpt><trkpt lat="39.03912519620746" lon="8.984915675795197"><ele>34.0</ele><time>2026-04-04T16:35:27Z</time></trkpt><trkpt lat="39.03887755200757" lon="8.984905549629705"><ele>34.0</ele><time>2026-04-04T16:35:28Z</time></trkpt><trkpt lat="39.038634071165774" lon="8.984903530762137"><ele>34.0</ele><time>2026-04-04T16:35:29Z</time></trkpt><trkpt lat="39.038387932305035" lon="8.9849083315209"><ele>33.5</ele><time>2026-04-04T16:35:30Z</time></trkpt><trkpt lat="39.03814732675992" lon="8.984922250231657"><ele>33.0</ele><time>2026-04-04T16:35:31Z</time></trkpt><trkpt lat="39.037914838330856" lon="8.98494068154449"><ele>33.0</ele><time>2026-04-04T16:35:32Z</time></trkpt><trkpt lat="39.037682074886234" lon="8.984956690077224"><ele>33.0</ele><time>2026-04-04T16:35:33Z</time></trkpt><trkpt lat="39.037445328560494" lon="8.98497198811921"><ele>33.0</ele><time>2026-04-04T16:35:34Z</time></trkpt><trkpt lat="39.037202965006514" lon="8.984987044398393"><ele>33.0</ele><time>2026-04-04T16:35:35Z</time></trkpt><trkpt lat="39.036962454874235" lon="8.98500218901112"><ele>32.5</ele><time>2026-04-04T16:35:36Z</time></trkpt><trkpt lat="39.03672126043704" lon="8.985018906093275"><ele>32.0</ele><time>2026-04-04T16:35:37Z</time></trkpt><trkpt lat="39.036479385762014" lon="8.985035352503607"><ele>31.0</ele><time>2026-04-04T16:35:38Z</time></trkpt><trkpt lat="39.0362349467869" lon="8.985051814303583"><ele>30.0</ele><time>2026-04-04T16:35:39Z</time></trkpt><trkpt lat="39.03599438307084" lon="8.985067330009715"><ele>31.0</ele><time>2026-04-04T16:35:40Z</time></trkpt><trkpt lat="39.0357571995594" lon="8.985083887704569"><ele>32.0</ele><time>2026-04-04T16:35:41Z</time></trkpt><trkpt lat="39.035521525864034" lon="8.985102276026728"><ele>32.0</ele><time>2026-04-04T16:35:42Z</time></trkpt><trkpt lat="39.03528604434446" lon="8.985114744212463"><ele>32.0</ele><time>2026-04-04T16:35:43Z</time></trkpt><trkpt lat="39.035044392864" lon="8.985130940318896"><ele>32.0</ele><time>2026-04-04T16:35:44Z</time></trkpt><trkpt lat="39.03479801515844" lon="8.985145811683827"><ele>32.0</ele><time>2026-04-04T16:35:45Z</time></trkpt><trkpt lat="39.034555463241894" lon="8.985165180909659"><ele>32.0</ele><time>2026-04-04T16:35:46Z</time></trkpt><trkpt lat="39.03430842074358" lon="8.985185054335183"><ele>32.0</ele><time>2026-04-04T16:35:47Z</time></trkpt><trkpt lat="39.034064515857054" lon="8.98520397695682"><ele>32.5</ele><time>2026-04-04T16:35:48Z</time></trkpt><trkpt lat="39.03382410567081" lon="8.985221993820797"><ele>33.0</ele><time>2026-04-04T16:35:49Z</time></trkpt><trkpt lat="39.03358517921583" lon="8.985238745632747"><ele>33.0</ele><time>2026-04-04T16:35:50Z</time></trkpt><trkpt lat="39.03334993352512" lon="8.985254909254394"><ele>33.0</ele><time>2026-04-04T16:35:51Z</time></trkpt><trkpt lat="39.03311477822255" lon="8.98527220166274"><ele>33.0</ele><time>2026-04-04T16:35:52Z</time></trkpt><trkpt lat="39.032879338024046" lon="8.98529037224758"><ele>33.0</ele><time>2026-04-04T16:35:53Z</time></trkpt><trkpt lat="39.03264530755157" lon="8.985309896593924"><ele>33.0</ele><time>2026-04-04T16:35:54Z</time></trkpt><trkpt lat="39.03240890768279" lon="8.985331290145439"><ele>33.0</ele><time>2026-04-04T16:35:55Z</time></trkpt><trkpt lat="39.03217173261323" lon="8.985354613136252"><ele>33.0</ele><time>2026-04-04T16:35:56Z</time></trkpt><trkpt lat="39.03194204527381" lon="8.98537934557111"><ele>33.0</ele><time>2026-04-04T16:35:57Z</time></trkpt><trkpt lat="39.031715051890004" lon="8.985401743262049"><ele>33.5</ele><time>2026-04-04T16:35:58Z</time></trkpt><trkpt lat="39.0314885236121" lon="8.985426872156062"><ele>34.0</ele><time>2026-04-04T16:35:59Z</time></trkpt><trkpt lat="39.031257212383764" lon="8.985454774471345"><ele>34.0</ele><time>2026-04-04T16:36:00Z</time></trkpt><trkpt lat="39.03102624621758" lon="8.98548365459179"><ele>34.0</ele><time>2026-04-04T16:36:01Z</time></trkpt><trkpt lat="39.03079927090094" lon="8.985512108930164"><ele>34.333333333333336</ele><time>2026-04-04T16:36:02Z</time></trkpt><trkpt lat="39.03057972178311" lon="8.985540874100684"><ele>34.666666666666664</ele><time>2026-04-04T16:36:03Z</time></trkpt><trkpt lat="39.03037101095151" lon="8.985569389018051"><ele>35.0</ele><time>2026-04-04T16:36:04Z</time></trkpt><trkpt lat="39.0301534906294" lon="8.985598742017718"><ele>35.5</ele><time>2026-04-04T16:36:05Z</time></trkpt><trkpt lat="39.02993010986299" lon="8.985630088708778"><ele>36.0</ele><time>2026-04-04T16:36:06Z</time></trkpt><trkpt lat="39.02969831780504" lon="8.985663144195742"><ele>36.0</ele><time>2026-04-04T16:36:07Z</time></trkpt><trkpt lat="39.02945889157201" lon="8.985696588476397"><ele>36.0</ele><time>2026-04-04T16:36:08Z</time></trkpt><trkpt lat="39.02921421312262" lon="8.985731466299287"><ele>36.5</ele><time>2026-04-04T16:36:09Z</time></trkpt><trkpt lat="39.028960063429544" lon="8.985765757919276"><ele>37.0</ele><time>2026-04-04T16:36:10Z</time></trkpt><trkpt lat="39.02870412108485" lon="8.985799048643875"><ele>37.0</ele><time>2026-04-04T16:36:11Z</time></trkpt><trkpt lat="39.02845977886989" lon="8.985830773075314"><ele>37.0</ele><time>2026-04-04T16:36:12Z</time></trkpt><trkpt lat="39.02822128889856" lon="8.985863992206587"><ele>35.0</ele><time>2026-04-04T16:36:13Z</time></trkpt><trkpt lat="39.027977469796916" lon="8.985899454091635"><ele>33.0</ele><time>2026-04-04T16:36:14Z</time></trkpt><trkpt lat="39.02773026462126" lon="8.98594080170926"><ele>33.0</ele><time>2026-04-04T16:36:15Z</time></trkpt><trkpt lat="39.027479707960026" lon="8.985989557903496"><ele>33.0</ele><time>2026-04-04T16:36:16Z</time></trkpt><trkpt lat="39.027227761175716" lon="8.986041833161698"><ele>33.0</ele><time>2026-04-04T16:36:17Z</time></trkpt><trkpt lat="39.02698168435287" lon="8.986094953029278"><ele>33.0</ele><time>2026-04-04T16:36:18Z</time></trkpt><trkpt lat="39.02673675597936" lon="8.986146899520623"><ele>34.0</ele><time>2026-04-04T16:36:19Z</time></trkpt><trkpt lat="39.02650463372061" lon="8.98619932939399"><ele>35.0</ele><time>2026-04-04T16:36:20Z</time></trkpt><trkpt lat="39.02627703831606" lon="8.986253990283952"><ele>35.0</ele><time>2026-04-04T16:36:21Z</time></trkpt><trkpt lat="39.02604637594162" lon="8.986313081123978"><ele>35.0</ele><time>2026-04-04T16:36:22Z</time></trkpt><trkpt lat="39.02581498995838" lon="8.986377051264546"><ele>34.5</ele><time>2026-04-04T16:36:23Z</time></trkpt><trkpt lat="39.02558524687954" lon="8.98644287014892"><ele>34.0</ele><time>2026-04-04T16:36:24Z</time></trkpt><trkpt lat="39.025357892262896" lon="8.986512377723107"><ele>34.0</ele><time>2026-04-04T16:36:25Z</time></trkpt><trkpt lat="39.02513217178202" lon="8.986582775459027"><ele>34.0</ele><time>2026-04-04T16:36:26Z</time></trkpt><trkpt lat="39.02490382551278" lon="8.986658205762406"><ele>33.0</ele><time>2026-04-04T16:36:27Z</time></trkpt><trkpt lat="39.02467454759166" lon="8.986737756060146"><ele>32.0</ele><time>2026-04-04T16:36:28Z</time></trkpt><trkpt lat="39.02444226118755" lon="8.986820105856399"><ele>32.0</ele><time>2026-04-04T16:36:29Z</time></trkpt><trkpt lat="39.02421795680548" lon="8.98689971547607"><ele>32.0</ele><time>2026-04-04T16:36:30Z</time></trkpt><trkpt lat="39.02401387068436" lon="8.986974653381495"><ele>32.0</ele><time>2026-04-04T16:36:31Z</time></trkpt><trkpt lat="39.02382014292649" lon="8.987049438244922"><ele>32.0</ele><time>2026-04-04T16:36:32Z</time></trkpt><trkpt lat="39.023631231960344" lon="8.987123637278652"><ele>32.0</ele><time>2026-04-04T16:36:33Z</time></trkpt><trkpt lat="39.02343598059765" lon="8.987199762663463"><ele>32.0</ele><time>2026-04-04T16:36:34Z</time></trkpt><trkpt lat="39.02325187257327" lon="8.987269232110982"><ele>32.0</ele><time>2026-04-04T16:36:35Z</time></trkpt><trkpt lat="39.02308291572464" lon="8.987332061467963"><ele>32.0</ele><time>2026-04-04T16:36:36Z</time></trkpt><trkpt lat="39.02292245272035" lon="8.98739324397212"><ele>32.0</ele><time>2026-04-04T16:36:37Z</time></trkpt><trkpt lat="39.022769965294806" lon="8.987456191056028"><ele>32.0</ele><time>2026-04-04T16:36:38Z</time></trkpt><trkpt lat="39.02263357906321" lon="8.98752024593116"><ele>32.0</ele><time>2026-04-04T16:36:39Z</time></trkpt><trkpt lat="39.02250876956727" lon="8.987578841983462"><ele>32.0</ele><time>2026-04-04T16:36:40Z</time></trkpt><trkpt lat="39.022381832958075" lon="8.987643380480359"><ele>32.0</ele><time>2026-04-04T16:36:41Z</time></trkpt><trkpt lat="39.02226740637216" lon="8.987700098806453"><ele>31.999999999999996</ele><time>2026-04-04T16:36:42Z</time></trkpt><trkpt lat="39.02216377213461" lon="8.987750918852171"><ele>32.0</ele><time>2026-04-04T16:36:43Z</time></trkpt><trkpt lat="39.02207517093759" lon="8.987784659868069"><ele>32.0</ele><time>2026-04-04T16:36:44Z</time></trkpt><trkpt lat="39.02200245251464" lon="8.987795600125317"><ele>32.0</ele><time>2026-04-04T16:36:45Z</time></trkpt><trkpt lat="39.02193137290445" lon="8.987778933532477"><ele>31.999999999999996</ele><time>2026-04-04T16:36:46Z</time></trkpt><trkpt lat="39.02183868094454" lon="8.987760919187744"><ele>32.0</ele><time>2026-04-04T16:36:47Z</time></trkpt><trkpt lat="39.0217367688956" lon="8.987724032335207"><ele>31.6</ele><time>2026-04-04T16:36:48Z</time></trkpt><trkpt lat="39.021639389500606" lon="8.98771740503261"><ele>31.200000000000003</ele><time>2026-04-04T16:36:49Z</time></trkpt><trkpt lat="39.02155808506169" lon="8.987689307945299"><ele>30.8</ele><time>2026-04-04T16:36:50Z</time></trkpt><trkpt lat="39.02146400861585" lon="8.987768151494656"><ele>30.4</ele><time>2026-04-04T16:36:51Z</time></trkpt><trkpt lat="39.02140463767484" lon="8.987865714533413"><ele>30.0</ele><time>2026-04-04T16:36:52Z</time></trkpt><trkpt lat="39.02137597048613" lon="8.987990264801045"><ele>30.0</ele><time>2026-04-04T16:36:53Z</time></trkpt><trkpt lat="39.02138907890367" lon="8.988126895255743"><ele>30.0</ele><time>2026-04-04T16:36:54Z</time></trkpt><trkpt lat="39.021423035369374" lon="8.988274918466713"><ele>30.0</ele><time>2026-04-04T16:36:55Z</time></trkpt><trkpt lat="39.02142955192959" lon="8.988435759841078"><ele>30.0</ele><time>2026-04-04T16:36:56Z</time></trkpt><trkpt lat="39.02138361951224" lon="8.988577346152555"><ele>29.0</ele><time>2026-04-04T16:36:57Z</time></trkpt><trkpt lat="39.02129631943534" lon="8.988728179597821"><ele>28.0</ele><time>2026-04-04T16:36:58Z</time></trkpt><trkpt lat="39.02119833211881" lon="8.988904953497775"><ele>27.0</ele><time>2026-04-04T16:36:59Z</time></trkpt><trkpt lat="39.02110326494677" lon="8.989119885717859"><ele>27.0</ele><time>2026-04-04T16:37:00Z</time></trkpt><trkpt lat="39.02101393782708" lon="8.989358238027096"><ele>27.0</ele><time>2026-04-04T16:37:01Z</time></trkpt><trkpt lat="39.02096118614823" lon="8.989587938346343"><ele>27.0</ele><time>2026-04-04T16:37:02Z</time></trkpt><trkpt lat="39.020911384092095" lon="8.989803130152644"><ele>26.666666666666664</ele><time>2026-04-04T16:37:03Z</time></trkpt><trkpt lat="39.02084548705829" lon="8.990024939067359"><ele>26.333333333333332</ele><time>2026-04-04T16:37:04Z</time></trkpt><trkpt lat="39.020806230197884" lon="8.990267431599221"><ele>26.0</ele><time>2026-04-04T16:37:05Z</time></trkpt><trkpt lat="39.02075005436561" lon="8.990525647859796"><ele>26.0</ele><time>2026-04-04T16:37:06Z</time></trkpt><trkpt lat="39.020681046623594" lon="8.990806823686206"><ele>26.0</ele><time>2026-04-04T16:37:07Z</time></trkpt><trkpt lat="39.020609080388134" lon="8.991068432217068"><ele>26.0</ele><time>2026-04-04T16:37:08Z</time></trkpt><trkpt lat="39.02052784099427" lon="8.991327986740092"><ele>26.0</ele><time>2026-04-04T16:37:09Z</time></trkpt><trkpt lat="39.0204437079722" lon="8.991593670520043"><ele>26.0</ele><time>2026-04-04T16:37:10Z</time></trkpt><trkpt lat="39.0203498439196" lon="8.991856763294647"><ele>26.0</ele><time>2026-04-04T16:37:11Z</time></trkpt><trkpt lat="39.0202553186218" lon="8.992130303102263"><ele>26.0</ele><time>2026-04-04T16:37:12Z</time></trkpt><trkpt lat="39.02016837147849" lon="8.992381552981227"><ele>26.0</ele><time>2026-04-04T16:37:13Z</time></trkpt><trkpt lat="39.02008767634449" lon="8.992617604380605"><ele>26.0</ele><time>2026-04-04T16:37:14Z</time></trkpt><trkpt lat="39.020006656300396" lon="8.992854518401655"><ele>25.333333333333332</ele><time>2026-04-04T16:37:15Z</time></trkpt><trkpt lat="39.01992363978356" lon="8.993085438204687"><ele>24.666666666666664</ele><time>2026-04-04T16:37:16Z</time></trkpt><trkpt lat="39.01984280990529" lon="8.993297894658678"><ele>24.0</ele><time>2026-04-04T16:37:17Z</time></trkpt><trkpt lat="39.01975879269253" lon="8.99349871371797"><ele>23.666666666666668</ele><time>2026-04-04T16:37:18Z</time></trkpt><trkpt lat="39.019665704833415" lon="8.993679268745709"><ele>23.333333333333336</ele><time>2026-04-04T16:37:19Z</time></trkpt><trkpt lat="39.01955687695647" lon="8.993839361562117"><ele>23.0</ele><time>2026-04-04T16:37:20Z</time></trkpt><trkpt lat="39.019413342163475" lon="8.993968494811899"><ele>23.0</ele><time>2026-04-04T16:37:20.999Z</time></trkpt><trkpt lat="39.01925734712212" lon="8.994109852412745"><ele>23.0</ele><time>2026-04-04T16:37:21.999Z</time></trkpt><trkpt lat="39.018909782004485" lon="8.994371492988366"><ele>23.0</ele><time>2026-04-04T16:37:23.999Z</time></trkpt><trkpt lat="39.01874530180715" lon="8.994481630847618"><ele>23.0</ele><time>2026-04-04T16:37:24.999Z</time></trkpt><trkpt lat="39.01860161828999" lon="8.994593954380795"><ele>23.0</ele><time>2026-04-04T16:37:25.999Z</time></trkpt><trkpt lat="39.01846278748292" lon="8.994719099754253"><ele>23.0</ele><time>2026-04-04T16:37:26.999Z</time></trkpt><trkpt lat="39.018329327603524" lon="8.99486419983121"><ele>23.0</ele><time>2026-04-04T16:37:27.999Z</time></trkpt><trkpt lat="39.01820194165175" lon="8.995030354085012"><ele>23.0</ele><time>2026-04-04T16:37:28.999Z</time></trkpt><trkpt lat="39.01809210126353" lon="8.995196625867115"><ele>22.666666666666668</ele><time>2026-04-04T16:37:29.999Z</time></trkpt><trkpt lat="39.0179927245783" lon="8.995353272951254"><ele>22.333333333333332</ele><time>2026-04-04T16:37:30.999Z</time></trkpt><trkpt lat="39.01788712868202" lon="8.995502984991095"><ele>22.0</ele><time>2026-04-04T16:37:31.999Z</time></trkpt><trkpt lat="39.01776661491829" lon="8.99564629514675"><ele>22.0</ele><time>2026-04-04T16:37:33Z</time></trkpt><trkpt lat="39.01762973591905" lon="8.995781901348527"><ele>22.0</ele><time>2026-04-04T16:37:34Z</time></trkpt><trkpt lat="39.01749675225415" lon="8.995898267718477"><ele>22.0</ele><time>2026-04-04T16:37:35Z</time></trkpt><trkpt lat="39.01737300152687" lon="8.996004263786887"><ele>21.5</ele><time>2026-04-04T16:37:36Z</time></trkpt><trkpt lat="39.017258755127735" lon="8.996106477578103"><ele>21.0</ele><time>2026-04-04T16:37:37Z</time></trkpt><trkpt lat="39.01715127973145" lon="8.996204665148552"><ele>20.5</ele><time>2026-04-04T16:37:38Z</time></trkpt><trkpt lat="39.01705720684439" lon="8.996291969189222"><ele>20.0</ele><time>2026-04-04T16:37:39Z</time></trkpt><trkpt lat="39.01698330507275" lon="8.9963588718574"><ele>20.0</ele><time>2026-04-04T16:37:40Z</time></trkpt><trkpt lat="39.01691345910171" lon="8.996408680507363"><ele>20.0</ele><time>2026-04-04T16:37:41Z</time></trkpt><trkpt lat="39.01684799697628" lon="8.99645198448187"><ele>20.0</ele><time>2026-04-04T16:37:42Z</time></trkpt><trkpt lat="39.01675580402473" lon="8.996423033169936"><ele>20.0</ele><time>2026-04-04T16:37:43Z</time></trkpt><trkpt lat="39.01664841289711" lon="8.996399383004496"><ele>20.0</ele><time>2026-04-04T16:37:44Z</time></trkpt><trkpt lat="39.016546875802256" lon="8.996424615601871"><ele>20.333333333333336</ele><time>2026-04-04T16:37:45Z</time></trkpt><trkpt lat="39.01640852780449" lon="8.996234269105193"><ele>20.666666666666668</ele><time>2026-04-04T16:37:46Z</time></trkpt><trkpt lat="39.01627647635906" lon="8.996102592409686"><ele>21.0</ele><time>2026-04-04T16:37:47Z</time></trkpt><trkpt lat="39.01612782598194" lon="8.995962853386379"><ele>20.666666666666668</ele><time>2026-04-04T16:37:48Z</time></trkpt><trkpt lat="39.015981339057944" lon="8.995834002513897"><ele>20.333333333333336</ele><time>2026-04-04T16:37:49Z</time></trkpt><trkpt lat="39.015816436466146" lon="8.99572079419681"><ele>20.0</ele><time>2026-04-04T16:37:50Z</time></trkpt><trkpt lat="39.0156441865742" lon="8.995588002722368"><ele>21.0</ele><time>2026-04-04T16:37:51Z</time></trkpt><trkpt lat="39.01545968815826" lon="8.99545446921429"><ele>22.0</ele><time>2026-04-04T16:37:52Z</time></trkpt><trkpt lat="39.01528126960761" lon="8.995334370638052"><ele>23.0</ele><time>2026-04-04T16:37:53Z</time></trkpt><trkpt lat="39.01509684742097" lon="8.995222244231547"><ele>22.333333333333336</ele><time>2026-04-04T16:37:54Z</time></trkpt><trkpt lat="39.01490298671945" lon="8.9951141384671"><ele>21.666666666666668</ele><time>2026-04-04T16:37:55Z</time></trkpt><trkpt lat="39.014700514545495" lon="8.995013102849901"><ele>21.0</ele><time>2026-04-04T16:37:56Z</time></trkpt><trkpt lat="39.014497669698656" lon="8.994921876403994"><ele>19.666666666666668</ele><time>2026-04-04T16:37:57Z</time></trkpt><trkpt lat="39.01430351286271" lon="8.99484141141794"><ele>18.333333333333336</ele><time>2026-04-04T16:37:58Z</time></trkpt><trkpt lat="39.01410346031246" lon="8.994769511005174"><ele>17.0</ele><time>2026-04-04T16:37:59Z</time></trkpt><trkpt lat="39.013900192193674" lon="8.994708365606868"><ele>17.0</ele><time>2026-04-04T16:38:00Z</time></trkpt><trkpt lat="39.01369840353227" lon="8.994656062823001"><ele>17.0</ele><time>2026-04-04T16:38:01Z</time></trkpt><trkpt lat="39.013503714459056" lon="8.99461026668101"><ele>17.0</ele><time>2026-04-04T16:38:02Z</time></trkpt><trkpt lat="39.01332269155079" lon="8.99457275350573"><ele>17.333333333333336</ele><time>2026-04-04T16:38:03Z</time></trkpt><trkpt lat="39.013150326419314" lon="8.994541404143211"><ele>17.666666666666668</ele><time>2026-04-04T16:38:04Z</time></trkpt><trkpt lat="39.01298816934449" lon="8.994515803648047"><ele>18.0</ele><time>2026-04-04T16:38:05Z</time></trkpt><trkpt lat="39.01282918070043" lon="8.994492401953433"><ele>18.0</ele><time>2026-04-04T16:38:06Z</time></trkpt><trkpt lat="39.01268298784493" lon="8.994474991919274"><ele>18.0</ele><time>2026-04-04T16:38:07Z</time></trkpt><trkpt lat="39.012437396625145" lon="8.99445380211645"><ele>18.0</ele><time>2026-04-04T16:38:09Z</time></trkpt><trkpt lat="39.012329315453975" lon="8.99442544826671"><ele>17.6</ele><time>2026-04-04T16:38:10Z</time></trkpt><trkpt lat="39.012231904500595" lon="8.994378358889513"><ele>17.200000000000003</ele><time>2026-04-04T16:38:11Z</time></trkpt><trkpt lat="39.0121470774095" lon="8.9943513354452"><ele>16.8</ele><time>2026-04-04T16:38:12Z</time></trkpt><trkpt lat="39.01205993041871" lon="8.994370606088848"><ele>16.400000000000002</ele><time>2026-04-04T16:38:13Z</time></trkpt><trkpt lat="39.01196531318789" lon="8.99443447790946"><ele>16.0</ele><time>2026-04-04T16:38:14Z</time></trkpt><trkpt lat="39.011864125660644" lon="8.994507215138169"><ele>16.0</ele><time>2026-04-04T16:38:15Z</time></trkpt><trkpt lat="39.011736191886705" lon="8.994539638727412"><ele>16.0</ele><time>2026-04-04T16:38:16Z</time></trkpt><trkpt lat="39.011589097216095" lon="8.994552943178187"><ele>16.0</ele><time>2026-04-04T16:38:17Z</time></trkpt><trkpt lat="39.01142245086328" lon="8.994576261195672"><ele>16.0</ele><time>2026-04-04T16:38:18Z</time></trkpt><trkpt lat="39.01124695827846" lon="8.994608579773082"><ele>16.333333333333332</ele><time>2026-04-04T16:38:19Z</time></trkpt><trkpt lat="39.01106987471695" lon="8.994655240472518"><ele>16.666666666666668</ele><time>2026-04-04T16:38:20Z</time></trkpt><trkpt lat="39.01088932961493" lon="8.994711264665856"><ele>17.0</ele><time>2026-04-04T16:38:21Z</time></trkpt><trkpt lat="39.01071047806518" lon="8.994777184786784"><ele>17.0</ele><time>2026-04-04T16:38:22Z</time></trkpt><trkpt lat="39.01053085424832" lon="8.994848456203481"><ele>17.0</ele><time>2026-04-04T16:38:23Z</time></trkpt><trkpt lat="39.01035955416846" lon="8.994918884555194"><ele>17.0</ele><time>2026-04-04T16:38:24Z</time></trkpt><trkpt lat="39.01019471659186" lon="8.994990918701847"><ele>17.333333333333336</ele><time>2026-04-04T16:38:25Z</time></trkpt><trkpt lat="39.01002151753288" lon="8.99506820173678"><ele>17.666666666666668</ele><time>2026-04-04T16:38:26Z</time></trkpt><trkpt lat="39.00984497962189" lon="8.99515355603527"><ele>18.0</ele><time>2026-04-04T16:38:27Z</time></trkpt><trkpt lat="39.009684576969796" lon="8.995235326526265"><ele>18.0</ele><time>2026-04-04T16:38:28Z</time></trkpt><trkpt lat="39.00953490014049" lon="8.995310429079458"><ele>18.0</ele><time>2026-04-04T16:38:29Z</time></trkpt><trkpt lat="39.00939245155374" lon="8.995381684710406"><ele>18.0</ele><time>2026-04-04T16:38:30Z</time></trkpt><trkpt lat="39.00925817824718" lon="8.995446133361781"><ele>17.5</ele><time>2026-04-04T16:38:31Z</time></trkpt><trkpt lat="39.009132074844146" lon="8.99550596263174"><ele>17.0</ele><time>2026-04-04T16:38:32Z</time></trkpt><trkpt lat="39.00900671061009" lon="8.99556725089756"><ele>16.5</ele><time>2026-04-04T16:38:33Z</time></trkpt><trkpt lat="39.00887967693773" lon="8.995629789085708"><ele>16.0</ele><time>2026-04-04T16:38:34Z</time></trkpt><trkpt lat="39.0087499013996" lon="8.995693430680943"><ele>16.0</ele><time>2026-04-04T16:38:35Z</time></trkpt><trkpt lat="39.008614142968156" lon="8.995758042466845"><ele>16.0</ele><time>2026-04-04T16:38:36Z</time></trkpt><trkpt lat="39.00846820695489" lon="8.995821125218008"><ele>16.0</ele><time>2026-04-04T16:38:37Z</time></trkpt><trkpt lat="39.00832347604819" lon="8.995889439231082"><ele>15.75</ele><time>2026-04-04T16:38:38Z</time></trkpt><trkpt lat="39.00819677929609" lon="8.995956222230493"><ele>15.5</ele><time>2026-04-04T16:38:39Z</time></trkpt><trkpt lat="39.008080918452144" lon="8.996016190814748"><ele>15.25</ele><time>2026-04-04T16:38:40Z</time></trkpt><trkpt lat="39.00796656729648" lon="8.996069111229955"><ele>15.0</ele><time>2026-04-04T16:38:41Z</time></trkpt><trkpt lat="39.00785724316976" lon="8.996113229915355"><ele>15.0</ele><time>2026-04-04T16:38:42Z</time></trkpt><trkpt lat="39.0077529419993" lon="8.996162644708502"><ele>15.0</ele><time>2026-04-04T16:38:43Z</time></trkpt><trkpt lat="39.00766197206641" lon="8.996209228803357"><ele>15.0</ele><time>2026-04-04T16:38:44Z</time></trkpt><trkpt lat="39.0075787479637" lon="8.996247906241706"><ele>15.0</ele><time>2026-04-04T16:38:45Z</time></trkpt><trkpt lat="39.00750590983658" lon="8.996280773547943"><ele>15.0</ele><time>2026-04-04T16:38:46Z</time></trkpt><trkpt lat="39.00743980161082" lon="8.996311564179798"><ele>15.0</ele><time>2026-04-04T16:38:47Z</time></trkpt><trkpt lat="39.007327262561056" lon="8.99636836904423"><ele>14.8</ele><time>2026-04-04T16:38:49Z</time></trkpt><trkpt lat="39.00725820121716" lon="8.996401724985319"><ele>14.6</ele><time>2026-04-04T16:38:50Z</time></trkpt><trkpt lat="39.00717718303285" lon="8.99644235626977"><ele>14.399999999999999</ele><time>2026-04-04T16:38:51Z</time></trkpt><trkpt lat="39.00709580986338" lon="8.996486032044741"><ele>14.2</ele><time>2026-04-04T16:38:52Z</time></trkpt><trkpt lat="39.00699854812232" lon="8.996532995567815"><ele>14.0</ele><time>2026-04-04T16:38:53Z</time></trkpt><trkpt lat="39.006903276896516" lon="8.996580493433008"><ele>14.0</ele><time>2026-04-04T16:38:54Z</time></trkpt><trkpt lat="39.00680661800015" lon="8.996627362710646"><ele>14.0</ele><time>2026-04-04T16:38:55Z</time></trkpt><trkpt lat="39.00670139768276" lon="8.996681232302432"><ele>14.0</ele><time>2026-04-04T16:38:56Z</time></trkpt><trkpt lat="39.006585162672636" lon="8.996741582493193"><ele>14.0</ele><time>2026-04-04T16:38:57Z</time></trkpt><trkpt lat="39.00646321050412" lon="8.996804741588083"><ele>13.75</ele><time>2026-04-04T16:38:58Z</time></trkpt><trkpt lat="39.0063345705412" lon="8.996869161553404"><ele>13.5</ele><time>2026-04-04T16:38:59Z</time></trkpt><trkpt lat="39.006199992400184" lon="8.996939481889253"><ele>13.25</ele><time>2026-04-04T16:39:00Z</time></trkpt><trkpt lat="39.006077822947475" lon="8.997001815128472"><ele>13.0</ele><time>2026-04-04T16:39:00.999Z</time></trkpt><trkpt lat="39.00596356102908" lon="8.997052793210853"><ele>13.0</ele><time>2026-04-04T16:39:01.999Z</time></trkpt><trkpt lat="39.00583861252464" lon="8.997131500544366"><ele>13.0</ele><time>2026-04-04T16:39:02.999Z</time></trkpt><trkpt lat="39.00570453628771" lon="8.997192313708677"><ele>13.0</ele><time>2026-04-04T16:39:03.999Z</time></trkpt><trkpt lat="39.00556792038469" lon="8.997256572949125"><ele>13.0</ele><time>2026-04-04T16:39:05Z</time></trkpt><trkpt lat="39.00542143189503" lon="8.997329013629157"><ele>13.0</ele><time>2026-04-04T16:39:05.999Z</time></trkpt><trkpt lat="39.00526172746762" lon="8.99740886391768"><ele>13.0</ele><time>2026-04-04T16:39:06.999Z</time></trkpt><trkpt lat="39.00510403760195" lon="8.997486705214822"><ele>13.0</ele><time>2026-04-04T16:39:07.999Z</time></trkpt><trkpt lat="39.004955618807976" lon="8.997556674715618"><ele>12.666666666666666</ele><time>2026-04-04T16:39:08.999Z</time></trkpt><trkpt lat="39.00480653226568" lon="8.997627783111257"><ele>12.333333333333332</ele><time>2026-04-04T16:39:09.999Z</time></trkpt><trkpt lat="39.00465439169166" lon="8.99770254304721"><ele>12.0</ele><time>2026-04-04T16:39:10.999Z</time></trkpt><trkpt lat="39.004500494525914" lon="8.997773722153143"><ele>12.0</ele><time>2026-04-04T16:39:11.999Z</time></trkpt><trkpt lat="39.0043477233559" lon="8.997838140841106"><ele>12.0</ele><time>2026-04-04T16:39:12.999Z</time></trkpt><trkpt lat="39.00420631813917" lon="8.997892791465706"><ele>12.0</ele><time>2026-04-04T16:39:13.999Z</time></trkpt><trkpt lat="39.004068405022835" lon="8.997940962176708"><ele>11.75</ele><time>2026-04-04T16:39:14.999Z</time></trkpt><trkpt lat="39.003936459584494" lon="8.99798181814964"><ele>11.5</ele><time>2026-04-04T16:39:15.999Z</time></trkpt><trkpt lat="39.0038098875794" lon="8.998011558649395"><ele>11.25</ele><time>2026-04-04T16:39:16.999Z</time></trkpt><trkpt lat="39.00369075332886" lon="8.998039688194966"><ele>11.0</ele><time>2026-04-04T16:39:17.999Z</time></trkpt><trkpt lat="39.00358032504798" lon="8.998061807782591"><ele>11.0</ele><time>2026-04-04T16:39:18.999Z</time></trkpt><trkpt lat="39.00348326972888" lon="8.998076848786212"><ele>11.0</ele><time>2026-04-04T16:39:19.999Z</time></trkpt><trkpt lat="39.00341389801317" lon="8.998082460905584"><ele>11.0</ele><time>2026-04-04T16:39:20.999Z</time></trkpt><trkpt lat="39.003310441537444" lon="8.998068630804761"><ele>11.0</ele><time>2026-04-04T16:39:22.999Z</time></trkpt><trkpt lat="39.00319610282827" lon="8.998009999147882"><ele>11.0</ele><time>2026-04-04T16:39:24.999Z</time></trkpt><trkpt lat="39.00312938038015" lon="8.99798433729656"><ele>10.8</ele><time>2026-04-04T16:39:25.999Z</time></trkpt><trkpt lat="39.00306148410959" lon="8.997991251614312"><ele>10.600000000000001</ele><time>2026-04-04T16:39:26.999Z</time></trkpt><trkpt lat="39.00299214739657" lon="8.998031106211897"><ele>10.4</ele><time>2026-04-04T16:39:27.999Z</time></trkpt><trkpt lat="39.002827372102715" lon="8.998147097493638"><ele>10.2</ele><time>2026-04-04T16:39:29.999Z</time></trkpt><trkpt lat="39.00271347373877" lon="8.998170558175888"><ele>10.0</ele><time>2026-04-04T16:39:30.999Z</time></trkpt><trkpt lat="39.002574954802384" lon="8.998168487880621"><ele>10.25</ele><time>2026-04-04T16:39:31.999Z</time></trkpt><trkpt lat="39.00244179017228" lon="8.998164397854934"><ele>10.5</ele><time>2026-04-04T16:39:32.999Z</time></trkpt><trkpt lat="39.002308439907246" lon="8.998151432536647"><ele>10.75</ele><time>2026-04-04T16:39:33.999Z</time></trkpt><trkpt lat="39.0021589688282" lon="8.998135561833546"><ele>11.0</ele><time>2026-04-04T16:39:34.999Z</time></trkpt><trkpt lat="39.0020018017316" lon="8.998111513586455"><ele>11.0</ele><time>2026-04-04T16:39:35.999Z</time></trkpt><trkpt lat="39.001857318383635" lon="8.99808224996427"><ele>11.0</ele><time>2026-04-04T16:39:36.999Z</time></trkpt><trkpt lat="39.001725535320354" lon="8.998049881325356"><ele>11.0</ele><time>2026-04-04T16:39:37.999Z</time></trkpt><trkpt lat="39.00158355860318" lon="8.998014096910524"><ele>11.0</ele><time>2026-04-04T16:39:39Z</time></trkpt><trkpt lat="39.001430339198336" lon="8.997970339151152"><ele>11.0</ele><time>2026-04-04T16:39:40Z</time></trkpt><trkpt lat="39.00125342036277" lon="8.997908872046429"><ele>11.0</ele><time>2026-04-04T16:39:41Z</time></trkpt><trkpt lat="39.00105618139223" lon="8.997829548918865"><ele>11.0</ele><time>2026-04-04T16:39:42Z</time></trkpt><trkpt lat="39.00088286682897" lon="8.997749951211157"><ele>10.333333333333332</ele><time>2026-04-04T16:39:43Z</time></trkpt><trkpt lat="39.00072966140789" lon="8.997671090481475"><ele>9.666666666666666</ele><time>2026-04-04T16:39:44Z</time></trkpt><trkpt lat="39.00057698877522" lon="8.997589638754583"><ele>9.0</ele><time>2026-04-04T16:39:45Z</time></trkpt><trkpt lat="39.00042559070188" lon="8.997503447246945"><ele>8.666666666666666</ele><time>2026-04-04T16:39:46Z</time></trkpt><trkpt lat="39.00026258849722" lon="8.99740389242616"><ele>8.333333333333332</ele><time>2026-04-04T16:39:47Z</time></trkpt><trkpt lat="39.000094700911404" lon="8.997291894678005"><ele>8.0</ele><time>2026-04-04T16:39:48Z</time></trkpt><trkpt lat="38.99992302094437" lon="8.99717540106898"><ele>8.0</ele><time>2026-04-04T16:39:49Z</time></trkpt><trkpt lat="38.99974790064797" lon="8.997056888035969"><ele>8.0</ele><time>2026-04-04T16:39:50Z</time></trkpt><trkpt lat="38.99956973752564" lon="8.996938997086371"><ele>8.0</ele><time>2026-04-04T16:39:51Z</time></trkpt><trkpt lat="38.99939063532166" lon="8.996815877126952"><ele>8.0</ele><time>2026-04-04T16:39:52Z</time></trkpt><trkpt lat="38.99922126943808" lon="8.996701753367795"><ele>8.0</ele><time>2026-04-04T16:39:53Z</time></trkpt><trkpt lat="38.9990565955569" lon="8.996590757142863"><ele>8.0</ele><time>2026-04-04T16:39:54Z</time></trkpt><trkpt lat="38.9988853400733" lon="8.996472648655262"><ele>9.0</ele><time>2026-04-04T16:39:55Z</time></trkpt><trkpt lat="38.99871026510232" lon="8.996349360350086"><ele>10.0</ele><time>2026-04-04T16:39:56Z</time></trkpt><trkpt lat="38.99852696279104" lon="8.996223538837002"><ele>11.0</ele><time>2026-04-04T16:39:57Z</time></trkpt><trkpt lat="38.99834377054438" lon="8.996100159086842"><ele>10.333333333333332</ele><time>2026-04-04T16:39:58Z</time></trkpt><trkpt lat="38.99815760411963" lon="8.995976848813557"><ele>9.666666666666666</ele><time>2026-04-04T16:39:59Z</time></trkpt><trkpt lat="38.997972545226304" lon="8.995850154555795"><ele>9.0</ele><time>2026-04-04T16:40:00Z</time></trkpt><trkpt lat="38.99779388721514" lon="8.995725859317984"><ele>9.0</ele><time>2026-04-04T16:40:01Z</time></trkpt><trkpt lat="38.99761987963746" lon="8.99560555422699"><ele>9.0</ele><time>2026-04-04T16:40:02Z</time></trkpt><trkpt lat="38.99745171286411" lon="8.995491236403637"><ele>9.0</ele><time>2026-04-04T16:40:03Z</time></trkpt><trkpt lat="38.99729898028577" lon="8.995383686829204"><ele>8.666666666666666</ele><time>2026-04-04T16:40:04Z</time></trkpt><trkpt lat="38.997152535496156" lon="8.995287267689008"><ele>8.333333333333332</ele><time>2026-04-04T16:40:05Z</time></trkpt><trkpt lat="38.99701425250163" lon="8.995192321166039"><ele>8.0</ele><time>2026-04-04T16:40:06Z</time></trkpt><trkpt lat="38.9968823614851" lon="8.99510458612293"><ele>8.0</ele><time>2026-04-04T16:40:07Z</time></trkpt><trkpt lat="38.99676392620637" lon="8.995019541433876"><ele>8.0</ele><time>2026-04-04T16:40:08Z</time></trkpt><trkpt lat="38.99666527568474" lon="8.99494459961525"><ele>8.0</ele><time>2026-04-04T16:40:09Z</time></trkpt><trkpt lat="38.996577612209556" lon="8.994874047522488"><ele>8.0</ele><time>2026-04-04T16:40:10Z</time></trkpt><trkpt lat="38.99650828839945" lon="8.994808545269915"><ele>8.0</ele><time>2026-04-04T16:40:11Z</time></trkpt><trkpt lat="38.996405004929265" lon="8.994669644999961"><ele>7.800000000000001</ele><time>2026-04-04T16:40:13Z</time></trkpt><trkpt lat="38.996355708153104" lon="8.994592809582379"><ele>7.6000000000000005</ele><time>2026-04-04T16:40:14Z</time></trkpt><trkpt lat="38.9962789813002" lon="8.99452301818804"><ele>7.3999999999999995</ele><time>2026-04-04T16:40:15Z</time></trkpt><trkpt lat="38.996178054036065" lon="8.994483689841545"><ele>7.199999999999999</ele><time>2026-04-04T16:40:16Z</time></trkpt><trkpt lat="38.99606190099874" lon="8.994468289972234"><ele>7.0</ele><time>2026-04-04T16:40:17Z</time></trkpt><trkpt lat="38.99593149935191" lon="8.994425055701601"><ele>7.0</ele><time>2026-04-04T16:40:18Z</time></trkpt><trkpt lat="38.99581772125134" lon="8.994360668422326"><ele>7.0</ele><time>2026-04-04T16:40:19Z</time></trkpt><trkpt lat="38.99569174393156" lon="8.99428553342742"><ele>7.0</ele><time>2026-04-04T16:40:20Z</time></trkpt><trkpt lat="38.995546258807096" lon="8.994196847456879"><ele>7.0</ele><time>2026-04-04T16:40:21Z</time></trkpt><trkpt lat="38.995383884293965" lon="8.994090563886196"><ele>7.666666666666667</ele><time>2026-04-04T16:40:22Z</time></trkpt><trkpt lat="38.99523704616671" lon="8.993989951450736"><ele>8.333333333333334</ele><time>2026-04-04T16:40:23Z</time></trkpt><trkpt lat="38.995096637919616" lon="8.99389422178825"><ele>9.0</ele><time>2026-04-04T16:40:24Z</time></trkpt><trkpt lat="38.99495164437842" lon="8.99379613341845"><ele>9.333333333333334</ele><time>2026-04-04T16:40:25Z</time></trkpt><trkpt lat="38.99481048149269" lon="8.993695983276604"><ele>9.666666666666668</ele><time>2026-04-04T16:40:26Z</time></trkpt><trkpt lat="38.99466779416851" lon="8.993600354999929"><ele>10.0</ele><time>2026-04-04T16:40:27Z</time></trkpt><trkpt lat="38.99451986937174" lon="8.99350130763846"><ele>10.0</ele><time>2026-04-04T16:40:28Z</time></trkpt><trkpt lat="38.9943702701632" lon="8.993398899772584"><ele>10.0</ele><time>2026-04-04T16:40:29Z</time></trkpt><trkpt lat="38.99420915243485" lon="8.993288971131184"><ele>10.0</ele><time>2026-04-04T16:40:30Z</time></trkpt><trkpt lat="38.99405612904566" lon="8.993185597461826"><ele>9.666666666666668</ele><time>2026-04-04T16:40:31Z</time></trkpt><trkpt lat="38.99390650026326" lon="8.993085644389854"><ele>9.333333333333334</ele><time>2026-04-04T16:40:32Z</time></trkpt><trkpt lat="38.99375225413565" lon="8.99297994017131"><ele>9.0</ele><time>2026-04-04T16:40:33Z</time></trkpt><trkpt lat="38.99359642037123" lon="8.992870958210235"><ele>9.0</ele><time>2026-04-04T16:40:34Z</time></trkpt><trkpt lat="38.99343939228034" lon="8.99276530778233"><ele>9.0</ele><time>2026-04-04T16:40:35Z</time></trkpt><trkpt lat="38.993279848496606" lon="8.992662557188535"><ele>9.0</ele><time>2026-04-04T16:40:36Z</time></trkpt><trkpt lat="38.99311895670347" lon="8.992554263843536"><ele>8.333333333333334</ele><time>2026-04-04T16:40:37Z</time></trkpt><trkpt lat="38.99295679186733" lon="8.992439916966891"><ele>7.666666666666667</ele><time>2026-04-04T16:40:38Z</time></trkpt><trkpt lat="38.992791029323485" lon="8.992323779120783"><ele>7.0</ele><time>2026-04-04T16:40:39Z</time></trkpt><trkpt lat="38.99262462450663" lon="8.992206326910411"><ele>6.666666666666667</ele><time>2026-04-04T16:40:40Z</time></trkpt><trkpt lat="38.9924569061689" lon="8.992091525584732"><ele>6.333333333333334</ele><time>2026-04-04T16:40:41Z</time></trkpt><trkpt lat="38.99228436896288" lon="8.99197637585086"><ele>6.0</ele><time>2026-04-04T16:40:42Z</time></trkpt><trkpt lat="38.99211129027203" lon="8.991858823418886"><ele>6.0</ele><time>2026-04-04T16:40:43Z</time></trkpt><trkpt lat="38.99193437317999" lon="8.991739853357272"><ele>6.0</ele><time>2026-04-04T16:40:44Z</time></trkpt><trkpt lat="38.99175557699797" lon="8.991618872489331"><ele>6.0</ele><time>2026-04-04T16:40:45Z</time></trkpt><trkpt lat="38.99157508817228" lon="8.991494691744053"><ele>5.666666666666667</ele><time>2026-04-04T16:40:46Z</time></trkpt><trkpt lat="38.99139727759212" lon="8.991373726157287"><ele>5.333333333333334</ele><time>2026-04-04T16:40:47Z</time></trkpt><trkpt lat="38.99122905969583" lon="8.99125762111976"><ele>5.0</ele><time>2026-04-04T16:40:48Z</time></trkpt><trkpt lat="38.991051972523046" lon="8.991134623066976"><ele>5.0</ele><time>2026-04-04T16:40:49Z</time></trkpt><trkpt lat="38.990871184646466" lon="8.990994558696972"><ele>5.0</ele><time>2026-04-04T16:40:50Z</time></trkpt><trkpt lat="38.99069758345606" lon="8.990843795756936"><ele>5.0</ele><time>2026-04-04T16:40:51Z</time></trkpt><trkpt lat="38.990528469808666" lon="8.990690731334753"><ele>7.0</ele><time>2026-04-04T16:40:52Z</time></trkpt><trkpt lat="38.99036074604805" lon="8.990530200669394"><ele>9.0</ele><time>2026-04-04T16:40:53Z</time></trkpt><trkpt lat="38.99020026344228" lon="8.99037165644864"><ele>11.0</ele><time>2026-04-04T16:40:54Z</time></trkpt><trkpt lat="38.99003900222355" lon="8.990211710430357"><ele>9.666666666666666</ele><time>2026-04-04T16:40:54.999Z</time></trkpt><trkpt lat="38.98987467426561" lon="8.990047849391411"><ele>8.333333333333334</ele><time>2026-04-04T16:40:55.999Z</time></trkpt><trkpt lat="38.98971166156848" lon="8.989883542714196"><ele>7.0</ele><time>2026-04-04T16:40:56.999Z</time></trkpt><trkpt lat="38.98954569470998" lon="8.989716139326656"><ele>7.0</ele><time>2026-04-04T16:40:57.999Z</time></trkpt><trkpt lat="38.98937964238698" lon="8.989548500990049"><ele>7.0</ele><time>2026-04-04T16:40:58.999Z</time></trkpt><trkpt lat="38.989212266534246" lon="8.9893794926512"><ele>7.0</ele><time>2026-04-04T16:40:59.999Z</time></trkpt><trkpt lat="38.98904299426683" lon="8.989206820543524"><ele>7.333333333333334</ele><time>2026-04-04T16:41:00.999Z</time></trkpt><trkpt lat="38.98887164763461" lon="8.989032085156946"><ele>7.666666666666666</ele><time>2026-04-04T16:41:01.999Z</time></trkpt><trkpt lat="38.98870033718252" lon="8.988857671795726"><ele>8.0</ele><time>2026-04-04T16:41:02.999Z</time></trkpt><trkpt lat="38.98852806700655" lon="8.988682597761091"><ele>8.0</ele><time>2026-04-04T16:41:03.999Z</time></trkpt><trkpt lat="38.98835478692058" lon="8.988506597053751"><ele>8.0</ele><time>2026-04-04T16:41:04.999Z</time></trkpt><trkpt lat="38.988181880353864" lon="8.988331589372534"><ele>8.0</ele><time>2026-04-04T16:41:05.999Z</time></trkpt><trkpt lat="38.98800658254111" lon="8.988156110504653"><ele>7.333333333333333</ele><time>2026-04-04T16:41:06.999Z</time></trkpt><trkpt lat="38.98783267571481" lon="8.987980503879264"><ele>6.666666666666666</ele><time>2026-04-04T16:41:07.999Z</time></trkpt><trkpt lat="38.987656941197045" lon="8.987804769824347"><ele>6.0</ele><time>2026-04-04T16:41:08.999Z</time></trkpt><trkpt lat="38.9874809319328" lon="8.98762853040272"><ele>6.0</ele><time>2026-04-04T16:41:09.999Z</time></trkpt><trkpt lat="38.98730600176645" lon="8.987453107679785"><ele>6.0</ele><time>2026-04-04T16:41:10.999Z</time></trkpt><trkpt lat="38.987131351452824" lon="8.987276930938114"><ele>6.0</ele><time>2026-04-04T16:41:11.999Z</time></trkpt><trkpt lat="38.986955747230276" lon="8.987100311999036"><ele>6.0</ele><time>2026-04-04T16:41:12.999Z</time></trkpt><trkpt lat="38.98678265164569" lon="8.986923968955825"><ele>6.0</ele><time>2026-04-04T16:41:13.999Z</time></trkpt><trkpt lat="38.986608607098596" lon="8.986745370869262"><ele>6.0</ele><time>2026-04-04T16:41:14.999Z</time></trkpt><trkpt lat="38.986432514160924" lon="8.986565849484121"><ele>6.5</ele><time>2026-04-04T16:41:15.999Z</time></trkpt><trkpt lat="38.98625604751132" lon="8.986387805512273"><ele>7.0</ele><time>2026-04-04T16:41:16.999Z</time></trkpt><trkpt lat="38.986077030999546" lon="8.986210911645882"><ele>7.0</ele><time>2026-04-04T16:41:17.999Z</time></trkpt><trkpt lat="38.9858972502465" lon="8.986030079402823"><ele>7.0</ele><time>2026-04-04T16:41:18.999Z</time></trkpt><trkpt lat="38.98571783085622" lon="8.985850158080602"><ele>7.5</ele><time>2026-04-04T16:41:19.999Z</time></trkpt><trkpt lat="38.9855382536748" lon="8.98566797584813"><ele>8.0</ele><time>2026-04-04T16:41:20.999Z</time></trkpt><trkpt lat="38.98535854152012" lon="8.985487384728238"><ele>8.0</ele><time>2026-04-04T16:41:21.999Z</time></trkpt><trkpt lat="38.9851768053915" lon="8.985303008343154"><ele>8.0</ele><time>2026-04-04T16:41:22.999Z</time></trkpt><trkpt lat="38.984993877280445" lon="8.985116430117335"><ele>7.0</ele><time>2026-04-04T16:41:23.999Z</time></trkpt><trkpt lat="38.98481261676169" lon="8.984931705342262"><ele>6.0</ele><time>2026-04-04T16:41:24.999Z</time></trkpt><trkpt lat="38.98463215170055" lon="8.984745820440537"><ele>6.0</ele><time>2026-04-04T16:41:25.999Z</time></trkpt><trkpt lat="38.9844506846279" lon="8.984560885442892"><ele>6.0</ele><time>2026-04-04T16:41:26.999Z</time></trkpt><trkpt lat="38.98427113353947" lon="8.984376207880878"><ele>5.0</ele><time>2026-04-04T16:41:27.999Z</time></trkpt><trkpt lat="38.9840928508766" lon="8.98419575832082"><ele>4.0</ele><time>2026-04-04T16:41:28.999Z</time></trkpt><trkpt lat="38.98391168026398" lon="8.98401475123002"><ele>4.0</ele><time>2026-04-04T16:41:29.999Z</time></trkpt><trkpt lat="38.983727948090994" lon="8.98383303043275"><ele>4.0</ele><time>2026-04-04T16:41:30.999Z</time></trkpt><trkpt lat="38.98354565081275" lon="8.983649480765003"><ele>4.0</ele><time>2026-04-04T16:41:31.999Z</time></trkpt><trkpt lat="38.983363119357904" lon="8.983465492486607"><ele>4.0</ele><time>2026-04-04T16:41:32.999Z</time></trkpt><trkpt lat="38.98318044268386" lon="8.983280285370464"><ele>5.0</ele><time>2026-04-04T16:41:33.999Z</time></trkpt><trkpt lat="38.982997085087305" lon="8.983096990267459"><ele>6.0</ele><time>2026-04-04T16:41:34.999Z</time></trkpt><trkpt lat="38.98281063896041" lon="8.982912635673985"><ele>6.0</ele><time>2026-04-04T16:41:35.999Z</time></trkpt><trkpt lat="38.982627698254866" lon="8.982729854392428"><ele>6.0</ele><time>2026-04-04T16:41:36.999Z</time></trkpt><trkpt lat="38.9824452559783" lon="8.982546570546905"><ele>6.5</ele><time>2026-04-04T16:41:37.999Z</time></trkpt><trkpt lat="38.98226319310288" lon="8.982359835638896"><ele>7.0</ele><time>2026-04-04T16:41:38.999Z</time></trkpt><trkpt lat="38.9820774783745" lon="8.98217179270196"><ele>7.0</ele><time>2026-04-04T16:41:39.999Z</time></trkpt><trkpt lat="38.981892101912884" lon="8.981982383631324"><ele>7.0</ele><time>2026-04-04T16:41:40.999Z</time></trkpt><trkpt lat="38.981702904899265" lon="8.98179002074476"><ele>7.5</ele><time>2026-04-04T16:41:41.999Z</time></trkpt><trkpt lat="38.98151016260136" lon="8.98159792436886"><ele>8.0</ele><time>2026-04-04T16:41:42.999Z</time></trkpt><trkpt lat="38.981319331444695" lon="8.981406159659917"><ele>8.0</ele><time>2026-04-04T16:41:43.999Z</time></trkpt><trkpt lat="38.98112703009836" lon="8.981210606385952"><ele>8.0</ele><time>2026-04-04T16:41:45Z</time></trkpt><trkpt lat="38.98093494569245" lon="8.981015136018621"><ele>8.5</ele><time>2026-04-04T16:41:46Z</time></trkpt><trkpt lat="38.9807470721026" lon="8.980814116827565"><ele>9.0</ele><time>2026-04-04T16:41:47Z</time></trkpt><trkpt lat="38.98055671084588" lon="8.980618334682049"><ele>9.0</ele><time>2026-04-04T16:41:48Z</time></trkpt><trkpt lat="38.98036212952677" lon="8.980422425434595"><ele>9.0</ele><time>2026-04-04T16:41:49Z</time></trkpt><trkpt lat="38.980171073758285" lon="8.98023058496266"><ele>9.0</ele><time>2026-04-04T16:41:50Z</time></trkpt><trkpt lat="38.97997795251675" lon="8.98003518039277"><ele>9.0</ele><time>2026-04-04T16:41:51Z</time></trkpt><trkpt lat="38.97978906848197" lon="8.97984343389588"><ele>9.0</ele><time>2026-04-04T16:41:52Z</time></trkpt><trkpt lat="38.97959833630992" lon="8.979652050253831"><ele>9.0</ele><time>2026-04-04T16:41:53Z</time></trkpt><trkpt lat="38.979408905809215" lon="8.979462150651726"><ele>9.0</ele><time>2026-04-04T16:41:54Z</time></trkpt><trkpt lat="38.97921815080328" lon="8.979271098568482"><ele>9.0</ele><time>2026-04-04T16:41:55Z</time></trkpt><trkpt lat="38.97903130514975" lon="8.979083552738103"><ele>12.0</ele><time>2026-04-04T16:41:56Z</time></trkpt><trkpt lat="38.97884571045539" lon="8.978894464034934"><ele>15.0</ele><time>2026-04-04T16:41:57Z</time></trkpt><trkpt lat="38.97866090542709" lon="8.978706665180887"><ele>15.0</ele><time>2026-04-04T16:41:58Z</time></trkpt><trkpt lat="38.97847744173932" lon="8.978521879396581"><ele>15.0</ele><time>2026-04-04T16:41:59Z</time></trkpt><trkpt lat="38.978295441079545" lon="8.978337322389988"><ele>14.5</ele><time>2026-04-04T16:42:00Z</time></trkpt><trkpt lat="38.97811664792511" lon="8.978156390161182"><ele>14.0</ele><time>2026-04-04T16:42:01Z</time></trkpt><trkpt lat="38.9779401693684" lon="8.977974864119453"><ele>14.0</ele><time>2026-04-04T16:42:02Z</time></trkpt><trkpt lat="38.97776412325667" lon="8.977794453397346"><ele>14.0</ele><time>2026-04-04T16:42:03Z</time></trkpt><trkpt lat="38.97758925743273" lon="8.977616052174886"><ele>14.0</ele><time>2026-04-04T16:42:04Z</time></trkpt><trkpt lat="38.977414248016714" lon="8.977439200078628"><ele>14.666666666666668</ele><time>2026-04-04T16:42:05Z</time></trkpt><trkpt lat="38.97723675088763" lon="8.97726119562336"><ele>15.333333333333332</ele><time>2026-04-04T16:42:06Z</time></trkpt><trkpt lat="38.97705911454863" lon="8.9770854027048"><ele>16.0</ele><time>2026-04-04T16:42:07Z</time></trkpt><trkpt lat="38.97688332171864" lon="8.976902059453316"><ele>16.0</ele><time>2026-04-04T16:42:08Z</time></trkpt><trkpt lat="38.976705798817164" lon="8.976720892629839"><ele>16.0</ele><time>2026-04-04T16:42:09Z</time></trkpt><trkpt lat="38.97652874836724" lon="8.97653822664403"><ele>16.5</ele><time>2026-04-04T16:42:10Z</time></trkpt><trkpt lat="38.976347740167036" lon="8.976357185567604"><ele>17.0</ele><time>2026-04-04T16:42:11Z</time></trkpt><trkpt lat="38.97616424860175" lon="8.976184069893767"><ele>17.0</ele><time>2026-04-04T16:42:12Z</time></trkpt><trkpt lat="38.97598713934794" lon="8.97603390924627"><ele>17.0</ele><time>2026-04-04T16:42:13Z</time></trkpt><trkpt lat="38.97580563324422" lon="8.975893478817335"><ele>17.0</ele><time>2026-04-04T16:42:14Z</time></trkpt><trkpt lat="38.97561923680904" lon="8.975759324538968"><ele>17.333333333333336</ele><time>2026-04-04T16:42:15Z</time></trkpt><trkpt lat="38.97542661058115" lon="8.975622953629918"><ele>17.666666666666668</ele><time>2026-04-04T16:42:16Z</time></trkpt><trkpt lat="38.97523170172591" lon="8.975484264881926"><ele>18.0</ele><time>2026-04-04T16:42:17Z</time></trkpt><trkpt lat="38.975037569661225" lon="8.97534159792555"><ele>16.0</ele><time>2026-04-04T16:42:18Z</time></trkpt><trkpt lat="38.97484200429867" lon="8.975197646270363"><ele>14.0</ele><time>2026-04-04T16:42:19Z</time></trkpt><trkpt lat="38.97463914793639" lon="8.975050007723304"><ele>14.0</ele><time>2026-04-04T16:42:20Z</time></trkpt><trkpt lat="38.97444369868254" lon="8.97490686261513"><ele>14.0</ele><time>2026-04-04T16:42:21Z</time></trkpt><trkpt lat="38.974258767278855" lon="8.97477157147086"><ele>14.0</ele><time>2026-04-04T16:42:22Z</time></trkpt><trkpt lat="38.974086303088285" lon="8.974643685997652"><ele>13.0</ele><time>2026-04-04T16:42:23Z</time></trkpt><trkpt lat="38.97392141422282" lon="8.974520964298096"><ele>12.0</ele><time>2026-04-04T16:42:24Z</time></trkpt><trkpt lat="38.97375938776023" lon="8.97439952370108"><ele>11.0</ele><time>2026-04-04T16:42:25Z</time></trkpt><trkpt lat="38.97359838828555" lon="8.974279109110995"><ele>11.333333333333332</ele><time>2026-04-04T16:42:26Z</time></trkpt><trkpt lat="38.97344403419886" lon="8.974161326132739"><ele>11.666666666666666</ele><time>2026-04-04T16:42:27Z</time></trkpt><trkpt lat="38.973299193888415" lon="8.974051103136672"><ele>12.0</ele><time>2026-04-04T16:42:28Z</time></trkpt><trkpt lat="38.973173440073104" lon="8.973954587609576"><ele>12.25</ele><time>2026-04-04T16:42:29Z</time></trkpt><trkpt lat="38.9730556065538" lon="8.973868494871997"><ele>12.5</ele><time>2026-04-04T16:42:30Z</time></trkpt><trkpt lat="38.97294809220727" lon="8.973789917274326"><ele>12.75</ele><time>2026-04-04T16:42:31Z</time></trkpt><trkpt lat="38.972846080207596" lon="8.97371301996874"><ele>13.0</ele><time>2026-04-04T16:42:32Z</time></trkpt><trkpt lat="38.97275623336378" lon="8.973638982454593"><ele>12.999999999999998</ele><time>2026-04-04T16:42:33Z</time></trkpt><trkpt lat="38.97268193607445" lon="8.973565533376659"><ele>13.0</ele><time>2026-04-04T16:42:34Z</time></trkpt><trkpt lat="38.97262543094572" lon="8.973486785217514"><ele>13.0</ele><time>2026-04-04T16:42:35Z</time></trkpt><trkpt lat="38.97257889319467" lon="8.973402832204703"><ele>13.0</ele><time>2026-04-04T16:42:36Z</time></trkpt><trkpt lat="38.97253290979507" lon="8.97332281957532"><ele>12.999999999999998</ele><time>2026-04-04T16:42:37Z</time></trkpt><trkpt lat="38.97247396105225" lon="8.973258778720982"><ele>13.0</ele><time>2026-04-04T16:42:38Z</time></trkpt><trkpt lat="38.97239297783503" lon="8.973225689988395"><ele>12.25</ele><time>2026-04-04T16:42:39Z</time></trkpt><trkpt lat="38.97228722442688" lon="8.973214301008161"><ele>11.5</ele><time>2026-04-04T16:42:40Z</time></trkpt><trkpt lat="38.97216753295336" lon="8.973174974546676"><ele>10.75</ele><time>2026-04-04T16:42:41Z</time></trkpt><trkpt lat="38.972037565413224" lon="8.973101508069728"><ele>10.0</ele><time>2026-04-04T16:42:42Z</time></trkpt><trkpt lat="38.971763759447896" lon="8.97292250037434"><ele>10.333333333333334</ele><time>2026-04-04T16:42:44Z</time></trkpt><trkpt lat="38.97164115396936" lon="8.972828576058166"><ele>10.666666666666666</ele><time>2026-04-04T16:42:44.999Z</time></trkpt><trkpt lat="38.97150989209093" lon="8.972719443823355"><ele>11.0</ele><time>2026-04-04T16:42:45.999Z</time></trkpt><trkpt lat="38.971366881236854" lon="8.972593418929264"><ele>11.0</ele><time>2026-04-04T16:42:46.999Z</time></trkpt><trkpt lat="38.97120853256449" lon="8.97243937521125"><ele>11.0</ele><time>2026-04-04T16:42:47.999Z</time></trkpt><trkpt lat="38.97103883049534" lon="8.972258098978635"><ele>11.0</ele><time>2026-04-04T16:42:48.999Z</time></trkpt><trkpt lat="38.9708753961827" lon="8.972067817218951"><ele>10.666666666666666</ele><time>2026-04-04T16:42:49.999Z</time></trkpt><trkpt lat="38.97072689921051" lon="8.971890802440642"><ele>10.333333333333334</ele><time>2026-04-04T16:42:50.999Z</time></trkpt><trkpt lat="38.97057546582521" lon="8.971716514603225"><ele>10.0</ele><time>2026-04-04T16:42:51.999Z</time></trkpt><trkpt lat="38.9704266423753" lon="8.971542859766124"><ele>10.666666666666668</ele><time>2026-04-04T16:42:52.999Z</time></trkpt><trkpt lat="38.97027658299533" lon="8.971364826180347"><ele>11.333333333333334</ele><time>2026-04-04T16:42:53.999Z</time></trkpt><trkpt lat="38.97012636513115" lon="8.971184388716246"><ele>12.0</ele><time>2026-04-04T16:42:54.999Z</time></trkpt><trkpt lat="38.96997641867271" lon="8.971008959497889"><ele>12.0</ele><time>2026-04-04T16:42:55.999Z</time></trkpt><trkpt lat="38.969821264992035" lon="8.97083028279876"><ele>12.0</ele><time>2026-04-04T16:42:56.999Z</time></trkpt><trkpt lat="38.96966621837241" lon="8.970649445340813"><ele>12.0</ele><time>2026-04-04T16:42:57.999Z</time></trkpt><trkpt lat="38.969508481372394" lon="8.970463309512121"><ele>12.0</ele><time>2026-04-04T16:42:58.999Z</time></trkpt><trkpt lat="38.96935968023029" lon="8.970287085799383"><ele>12.0</ele><time>2026-04-04T16:42:59.999Z</time></trkpt><trkpt lat="38.969217873588214" lon="8.970119004703959"><ele>12.0</ele><time>2026-04-04T16:43:00.999Z</time></trkpt><trkpt lat="38.9690698034431" lon="8.969947090931425"><ele>12.0</ele><time>2026-04-04T16:43:01.999Z</time></trkpt><trkpt lat="38.96891952138925" lon="8.969773816076081"><ele>12.0</ele><time>2026-04-04T16:43:02.999Z</time></trkpt><trkpt lat="38.968763851391955" lon="8.969595316386098"><ele>12.0</ele><time>2026-04-04T16:43:03.999Z</time></trkpt><trkpt lat="38.968608849999725" lon="8.969417596523662"><ele>12.0</ele><time>2026-04-04T16:43:04.999Z</time></trkpt><trkpt lat="38.968452429349966" lon="8.969238547733042"><ele>12.0</ele><time>2026-04-04T16:43:05.999Z</time></trkpt><trkpt lat="38.96829659719359" lon="8.969056602836053"><ele>12.0</ele><time>2026-04-04T16:43:06.999Z</time></trkpt><trkpt lat="38.96813915012874" lon="8.968874858379989"><ele>12.0</ele><time>2026-04-04T16:43:07.999Z</time></trkpt><trkpt lat="38.96798229289432" lon="8.968692043657432"><ele>12.0</ele><time>2026-04-04T16:43:08.999Z</time></trkpt><trkpt lat="38.96782491730299" lon="8.96850950159472"><ele>12.0</ele><time>2026-04-04T16:43:09.999Z</time></trkpt><trkpt lat="38.96767365392056" lon="8.968332184051436"><ele>12.0</ele><time>2026-04-04T16:43:10.999Z</time></trkpt><trkpt lat="38.96752776258829" lon="8.968160928591693"><ele>12.0</ele><time>2026-04-04T16:43:11.999Z</time></trkpt><trkpt lat="38.96738833776443" lon="8.968000899798119"><ele>12.0</ele><time>2026-04-04T16:43:12.999Z</time></trkpt><trkpt lat="38.96726406412394" lon="8.967829291247666"><ele>12.0</ele><time>2026-04-04T16:43:13.999Z</time></trkpt><trkpt lat="38.967126859588575" lon="8.967697579743609"><ele>12.0</ele><time>2026-04-04T16:43:14.999Z</time></trkpt><trkpt lat="38.967000803448684" lon="8.967547364551377"><ele>12.0</ele><time>2026-04-04T16:43:15.999Z</time></trkpt><trkpt lat="38.96687134368216" lon="8.967396291127875"><ele>12.666666666666668</ele><time>2026-04-04T16:43:16.999Z</time></trkpt><trkpt lat="38.96673776230138" lon="8.967241041315532"><ele>13.333333333333334</ele><time>2026-04-04T16:43:17.999Z</time></trkpt><trkpt lat="38.96661598989356" lon="8.96709648565141"><ele>14.0</ele><time>2026-04-04T16:43:18.999Z</time></trkpt><trkpt lat="38.966489576223644" lon="8.966955662750873"><ele>14.333333333333334</ele><time>2026-04-04T16:43:19.999Z</time></trkpt><trkpt lat="38.966361516749316" lon="8.966803200458147"><ele>14.666666666666668</ele><time>2026-04-04T16:43:20.999Z</time></trkpt><trkpt lat="38.96623336797286" lon="8.966652408775644"><ele>15.0</ele><time>2026-04-04T16:43:21.999Z</time></trkpt><trkpt lat="38.96610168258201" lon="8.96650195150513"><ele>15.0</ele><time>2026-04-04T16:43:22.999Z</time></trkpt><trkpt lat="38.96598485344262" lon="8.966337747924486"><ele>15.0</ele><time>2026-04-04T16:43:23.999Z</time></trkpt><trkpt lat="38.965857948099135" lon="8.966189736381528"><ele>15.0</ele><time>2026-04-04T16:43:24.999Z</time></trkpt><trkpt lat="38.96568288522966" lon="8.966010003592839"><ele>15.333333333333332</ele><time>2026-04-04T16:43:25.999Z</time></trkpt><trkpt lat="38.965542540374436" lon="8.965837918401457"><ele>15.666666666666666</ele><time>2026-04-04T16:43:26.999Z</time></trkpt><trkpt lat="38.96539894376814" lon="8.965669422488714"><ele>16.0</ele><time>2026-04-04T16:43:27.999Z</time></trkpt><trkpt lat="38.965253109467426" lon="8.965496196936284"><ele>16.0</ele><time>2026-04-04T16:43:28.999Z</time></trkpt><trkpt lat="38.965108088879646" lon="8.965317785389534"><ele>16.0</ele><time>2026-04-04T16:43:29.999Z</time></trkpt><trkpt lat="38.964966007338866" lon="8.96513938031801"><ele>16.0</ele><time>2026-04-04T16:43:30.999Z</time></trkpt><trkpt lat="38.96483579030186" lon="8.96493902300552"><ele>17.333333333333332</ele><time>2026-04-04T16:43:31.999Z</time></trkpt><trkpt lat="38.96470942225634" lon="8.964766344060232"><ele>18.666666666666668</ele><time>2026-04-04T16:43:32.999Z</time></trkpt><trkpt lat="38.96459040310265" lon="8.964603835956037"><ele>20.0</ele><time>2026-04-04T16:43:33.999Z</time></trkpt><trkpt lat="38.96447347776173" lon="8.964444186407988"><ele>20.0</ele><time>2026-04-04T16:43:34.999Z</time></trkpt><trkpt lat="38.96434309288614" lon="8.964294990229055"><ele>20.0</ele><time>2026-04-04T16:43:35.999Z</time></trkpt><trkpt lat="38.964226484512835" lon="8.964136009661397"><ele>20.0</ele><time>2026-04-04T16:43:36.999Z</time></trkpt><trkpt lat="38.96413063695987" lon="8.963976073853273"><ele>20.666666666666668</ele><time>2026-04-04T16:43:37.999Z</time></trkpt><trkpt lat="38.96400974709295" lon="8.96384202153046"><ele>21.333333333333332</ele><time>2026-04-04T16:43:38.999Z</time></trkpt><trkpt lat="38.96389922338282" lon="8.963690157620022"><ele>22.0</ele><time>2026-04-04T16:43:39.999Z</time></trkpt><trkpt lat="38.963798630924074" lon="8.963522754103407"><ele>22.0</ele><time>2026-04-04T16:43:40.999Z</time></trkpt><trkpt lat="38.96368462492284" lon="8.963396485061995"><ele>22.0</ele><time>2026-04-04T16:43:41.999Z</time></trkpt><trkpt lat="38.96359093767326" lon="8.963265623915573"><ele>22.0</ele><time>2026-04-04T16:43:42.999Z</time></trkpt><trkpt lat="38.963503841567345" lon="8.963144283762079"><ele>22.0</ele><time>2026-04-04T16:43:43.999Z</time></trkpt><trkpt lat="38.963420573557734" lon="8.963029056474676"><ele>21.8</ele><time>2026-04-04T16:43:44.999Z</time></trkpt><trkpt lat="38.963346591566236" lon="8.96292212358671"><ele>21.6</ele><time>2026-04-04T16:43:45.999Z</time></trkpt><trkpt lat="38.96327827820548" lon="8.962825231981896"><ele>21.400000000000002</ele><time>2026-04-04T16:43:46.999Z</time></trkpt><trkpt lat="38.963225027269814" lon="8.962727664095233"><ele>21.200000000000003</ele><time>2026-04-04T16:43:47.999Z</time></trkpt><trkpt lat="38.96317444654182" lon="8.96261110256398"><ele>21.0</ele><time>2026-04-04T16:43:48.999Z</time></trkpt><trkpt lat="38.963114400159114" lon="8.962492371231713"><ele>21.5</ele><time>2026-04-04T16:43:49.999Z</time></trkpt><trkpt lat="38.96303466195936" lon="8.962380683936209"><ele>22.0</ele><time>2026-04-04T16:43:51Z</time></trkpt><trkpt lat="38.96293101201178" lon="8.962289056749437"><ele>22.5</ele><time>2026-04-04T16:43:52Z</time></trkpt><trkpt lat="38.96282594022001" lon="8.962187497283251"><ele>23.0</ele><time>2026-04-04T16:43:53Z</time></trkpt><trkpt lat="38.96274087965001" lon="8.96208188290751"><ele>23.0</ele><time>2026-04-04T16:43:54Z</time></trkpt><trkpt lat="38.9626733193304" lon="8.961986113605604"><ele>23.0</ele><time>2026-04-04T16:43:55Z</time></trkpt><trkpt lat="38.962612256222506" lon="8.961892894636799"><ele>23.0</ele><time>2026-04-04T16:43:56Z</time></trkpt><trkpt lat="38.96255592121867" lon="8.96180752145515"><ele>23.0</ele><time>2026-04-04T16:43:57Z</time></trkpt><trkpt lat="38.96250964736465" lon="8.961707501606677"><ele>23.0</ele><time>2026-04-04T16:43:58Z</time></trkpt><trkpt lat="38.96245724321073" lon="8.961586761268087"><ele>22.75</ele><time>2026-04-04T16:43:59Z</time></trkpt><trkpt lat="38.96237867266693" lon="8.961472028705277"><ele>22.5</ele><time>2026-04-04T16:44:00Z</time></trkpt><trkpt lat="38.962269009956245" lon="8.961378565218434"><ele>22.25</ele><time>2026-04-04T16:44:01Z</time></trkpt><trkpt lat="38.962149882860665" lon="8.961288860497506"><ele>22.0</ele><time>2026-04-04T16:44:02Z</time></trkpt><trkpt lat="38.96204081953154" lon="8.96116296353819"><ele>22.0</ele><time>2026-04-04T16:44:03Z</time></trkpt><trkpt lat="38.96193839342995" lon="8.961014520822413"><ele>22.0</ele><time>2026-04-04T16:44:04Z</time></trkpt><trkpt lat="38.961827676747234" lon="8.960860752275375"><ele>22.0</ele><time>2026-04-04T16:44:05Z</time></trkpt><trkpt lat="38.96172276735415" lon="8.960722453515181"><ele>22.0</ele><time>2026-04-04T16:44:06Z</time></trkpt><trkpt lat="38.961611721434714" lon="8.960578699030002"><ele>22.0</ele><time>2026-04-04T16:44:07Z</time></trkpt><trkpt lat="38.96149961180677" lon="8.960425909842527"><ele>22.0</ele><time>2026-04-04T16:44:08Z</time></trkpt><trkpt lat="38.96137473873238" lon="8.960258031042535"><ele>22.0</ele><time>2026-04-04T16:44:09Z</time></trkpt><trkpt lat="38.961259701269114" lon="8.960102774263103"><ele>22.0</ele><time>2026-04-04T16:44:10Z</time></trkpt><trkpt lat="38.96113367494485" lon="8.959933743214451"><ele>22.0</ele><time>2026-04-04T16:44:11Z</time></trkpt><trkpt lat="38.96100377648619" lon="8.959760470552817"><ele>22.666666666666664</ele><time>2026-04-04T16:44:12Z</time></trkpt><trkpt lat="38.96088584605144" lon="8.959602344767417"><ele>23.333333333333332</ele><time>2026-04-04T16:44:13Z</time></trkpt><trkpt lat="38.96076493010076" lon="8.959439699788186"><ele>24.0</ele><time>2026-04-04T16:44:14Z</time></trkpt><trkpt lat="38.96063771249392" lon="8.959265859978153"><ele>24.666666666666664</ele><time>2026-04-04T16:44:15Z</time></trkpt><trkpt lat="38.96050622926492" lon="8.95908688923948"><ele>25.333333333333332</ele><time>2026-04-04T16:44:16Z</time></trkpt><trkpt lat="38.960385593557824" lon="8.958894478146972"><ele>26.0</ele><time>2026-04-04T16:44:17Z</time></trkpt><trkpt lat="38.96025245509147" lon="8.958713179097161"><ele>26.0</ele><time>2026-04-04T16:44:18Z</time></trkpt><trkpt lat="38.96012170210295" lon="8.958535128432695"><ele>26.0</ele><time>2026-04-04T16:44:19Z</time></trkpt><trkpt lat="38.95998459570724" lon="8.95834842612107"><ele>26.0</ele><time>2026-04-04T16:44:20Z</time></trkpt><trkpt lat="38.9598526898523" lon="8.958168805557607"><ele>25.666666666666664</ele><time>2026-04-04T16:44:21Z</time></trkpt><trkpt lat="38.95972225142609" lon="8.957991183240997"><ele>25.333333333333336</ele><time>2026-04-04T16:44:22Z</time></trkpt><trkpt lat="38.959588914730546" lon="8.957809614181192"><ele>25.0</ele><time>2026-04-04T16:44:23Z</time></trkpt><trkpt lat="38.95944935018764" lon="8.957619564671921"><ele>24.333333333333336</ele><time>2026-04-04T16:44:24Z</time></trkpt><trkpt lat="38.95930623792338" lon="8.95742435483175"><ele>23.666666666666668</ele><time>2026-04-04T16:44:25Z</time></trkpt><trkpt lat="38.959165968099455" lon="8.957233905453306"><ele>23.0</ele><time>2026-04-04T16:44:26Z</time></trkpt><trkpt lat="38.95903717429029" lon="8.957059037464582"><ele>22.0</ele><time>2026-04-04T16:44:27Z</time></trkpt><trkpt lat="38.958908724398434" lon="8.956884636440112"><ele>21.0</ele><time>2026-04-04T16:44:28Z</time></trkpt><trkpt lat="38.958770203716625" lon="8.956696561912914"><ele>20.0</ele><time>2026-04-04T16:44:29Z</time></trkpt><trkpt lat="38.95862251870904" lon="8.956496044710265"><ele>20.0</ele><time>2026-04-04T16:44:30Z</time></trkpt><trkpt lat="38.95847353455839" lon="8.956293763573711"><ele>20.0</ele><time>2026-04-04T16:44:31Z</time></trkpt><trkpt lat="38.95832258367368" lon="8.956088812143499"><ele>20.0</ele><time>2026-04-04T16:44:32Z</time></trkpt><trkpt lat="38.95817076343412" lon="8.955882680340384"><ele>19.666666666666668</ele><time>2026-04-04T16:44:33Z</time></trkpt><trkpt lat="38.95801718323413" lon="8.955675924756886"><ele>19.333333333333332</ele><time>2026-04-04T16:44:34Z</time></trkpt><trkpt lat="38.95786373650389" lon="8.955467825756655"><ele>19.0</ele><time>2026-04-04T16:44:35Z</time></trkpt><trkpt lat="38.957711355392966" lon="8.9552611791607"><ele>19.0</ele><time>2026-04-04T16:44:36Z</time></trkpt><trkpt lat="38.95755752737838" lon="8.955052587808058"><ele>19.0</ele><time>2026-04-04T16:44:37Z</time></trkpt><trkpt lat="38.95740350417602" lon="8.954843731794531"><ele>19.0</ele><time>2026-04-04T16:44:38Z</time></trkpt><trkpt lat="38.95725064909199" lon="8.95463645971418"><ele>20.0</ele><time>2026-04-04T16:44:39Z</time></trkpt><trkpt lat="38.95709849014095" lon="8.954430131619928"><ele>21.0</ele><time>2026-04-04T16:44:39.999Z</time></trkpt><trkpt lat="38.95694965325276" lon="8.954228308269055"><ele>22.0</ele><time>2026-04-04T16:44:40.999Z</time></trkpt><trkpt lat="38.95681156052752" lon="8.954041054032468"><ele>22.666666666666664</ele><time>2026-04-04T16:44:41.999Z</time></trkpt><trkpt lat="38.95667254602702" lon="8.953852549858858"><ele>23.333333333333332</ele><time>2026-04-04T16:44:42.999Z</time></trkpt><trkpt lat="38.956530967208614" lon="8.953660538532375"><ele>24.0</ele><time>2026-04-04T16:44:43.999Z</time></trkpt><trkpt lat="38.956392023563254" lon="8.953472099549876"><ele>24.333333333333336</ele><time>2026-04-04T16:44:44.999Z</time></trkpt><trkpt lat="38.956258324349704" lon="8.953290773145007"><ele>24.666666666666668</ele><time>2026-04-04T16:44:45.999Z</time></trkpt><trkpt lat="38.956125426351434" lon="8.95311053339861"><ele>25.0</ele><time>2026-04-04T16:44:46.999Z</time></trkpt><trkpt lat="38.95598879793898" lon="8.952925234361519"><ele>24.666666666666668</ele><time>2026-04-04T16:44:47.999Z</time></trkpt><trkpt lat="38.9558499332054" lon="8.95273690236994"><ele>24.333333333333336</ele><time>2026-04-04T16:44:48.999Z</time></trkpt><trkpt lat="38.95571308555221" lon="8.95255130598115"><ele>24.0</ele><time>2026-04-04T16:44:49.999Z</time></trkpt><trkpt lat="38.95557418337705" lon="8.952363245252043"><ele>24.666666666666664</ele><time>2026-04-04T16:44:50.999Z</time></trkpt><trkpt lat="38.95543637783147" lon="8.952176728989324"><ele>25.333333333333332</ele><time>2026-04-04T16:44:51.999Z</time></trkpt><trkpt lat="38.95529643568155" lon="8.951987320890847"><ele>26.0</ele><time>2026-04-04T16:44:52.999Z</time></trkpt><trkpt lat="38.955157190015946" lon="8.95179863969482"><ele>26.0</ele><time>2026-04-04T16:44:53.999Z</time></trkpt><trkpt lat="38.95501581958028" lon="8.951606555057545"><ele>26.0</ele><time>2026-04-04T16:44:54.999Z</time></trkpt><trkpt lat="38.95487238737352" lon="8.951412304040563"><ele>26.0</ele><time>2026-04-04T16:44:55.999Z</time></trkpt><trkpt lat="38.95472839567901" lon="8.951217295324062"><ele>26.0</ele><time>2026-04-04T16:44:56.999Z</time></trkpt><trkpt lat="38.954584526229574" lon="8.951022452202126"><ele>26.0</ele><time>2026-04-04T16:44:57.999Z</time></trkpt><trkpt lat="38.95443640023358" lon="8.95082184526574"><ele>26.0</ele><time>2026-04-04T16:44:58.999Z</time></trkpt><trkpt lat="38.95429319529624" lon="8.950627902603228"><ele>25.666666666666664</ele><time>2026-04-04T16:44:59.999Z</time></trkpt><trkpt lat="38.95414714286111" lon="8.950430102302148"><ele>25.333333333333336</ele><time>2026-04-04T16:45:00.999Z</time></trkpt><trkpt lat="38.954001659214086" lon="8.950233751807609"><ele>25.0</ele><time>2026-04-04T16:45:01.999Z</time></trkpt><trkpt lat="38.95384264810309" lon="8.950048515358402"><ele>25.0</ele><time>2026-04-04T16:45:02.999Z</time></trkpt><trkpt lat="38.953698472010956" lon="8.949851887117836"><ele>25.0</ele><time>2026-04-04T16:45:03.999Z</time></trkpt><trkpt lat="38.953559861067305" lon="8.949636110259519"><ele>25.0</ele><time>2026-04-04T16:45:04.999Z</time></trkpt><trkpt lat="38.953406337458546" lon="8.949428239856536"><ele>25.333333333333336</ele><time>2026-04-04T16:45:05.999Z</time></trkpt><trkpt lat="38.953253904013685" lon="8.949221845490833"><ele>25.666666666666664</ele><time>2026-04-04T16:45:06.999Z</time></trkpt><trkpt lat="38.953107775716965" lon="8.94902387104793"><ele>26.0</ele><time>2026-04-04T16:45:07.999Z</time></trkpt><trkpt lat="38.95295962253937" lon="8.948822807044769"><ele>26.333333333333332</ele><time>2026-04-04T16:45:08.999Z</time></trkpt><trkpt lat="38.95281186548362" lon="8.948622280616359"><ele>26.666666666666664</ele><time>2026-04-04T16:45:09.999Z</time></trkpt><trkpt lat="38.95266331337889" lon="8.948420675192477"><ele>27.0</ele><time>2026-04-04T16:45:10.999Z</time></trkpt><trkpt lat="38.95251060078128" lon="8.948213423418713"><ele>27.0</ele><time>2026-04-04T16:45:11.999Z</time></trkpt><trkpt lat="38.95234797636815" lon="8.948020331406685"><ele>27.0</ele><time>2026-04-04T16:45:12.999Z</time></trkpt><trkpt lat="38.95219801319123" lon="8.947816374479613"><ele>27.0</ele><time>2026-04-04T16:45:13.999Z</time></trkpt><trkpt lat="38.95205653422487" lon="8.947597192823649"><ele>27.333333333333336</ele><time>2026-04-04T16:45:14.999Z</time></trkpt><trkpt lat="38.951899489171524" lon="8.947413544086507"><ele>27.666666666666668</ele><time>2026-04-04T16:45:15.999Z</time></trkpt><trkpt lat="38.95175427303665" lon="8.94721358017174"><ele>28.0</ele><time>2026-04-04T16:45:16.999Z</time></trkpt><trkpt lat="38.951613340556165" lon="8.947021261105979"><ele>28.333333333333336</ele><time>2026-04-04T16:45:17.999Z</time></trkpt><trkpt lat="38.95147129135208" lon="8.946830196607962"><ele>28.666666666666664</ele><time>2026-04-04T16:45:18.999Z</time></trkpt><trkpt lat="38.9513268557115" lon="8.946634918867314"><ele>29.0</ele><time>2026-04-04T16:45:19.999Z</time></trkpt><trkpt lat="38.95118467235867" lon="8.946444066154427"><ele>29.0</ele><time>2026-04-04T16:45:20.999Z</time></trkpt><trkpt lat="38.95104293935174" lon="8.946250737818554"><ele>29.0</ele><time>2026-04-04T16:45:21.999Z</time></trkpt><trkpt lat="38.95089544650894" lon="8.946048802983823"><ele>29.0</ele><time>2026-04-04T16:45:22.999Z</time></trkpt><trkpt lat="38.95074855530286" lon="8.945847644304537"><ele>29.0</ele><time>2026-04-04T16:45:23.999Z</time></trkpt><trkpt lat="38.95060252154884" lon="8.945652078267187"><ele>29.0</ele><time>2026-04-04T16:45:24.999Z</time></trkpt><trkpt lat="38.950469858193735" lon="8.945471245382958"><ele>29.0</ele><time>2026-04-04T16:45:25.999Z</time></trkpt><trkpt lat="38.95034590084442" lon="8.945303099292682"><ele>29.0</ele><time>2026-04-04T16:45:26.999Z</time></trkpt><trkpt lat="38.95022184242681" lon="8.945134731701424"><ele>29.0</ele><time>2026-04-04T16:45:27.999Z</time></trkpt><trkpt lat="38.95009743056119" lon="8.94496536251979"><ele>29.0</ele><time>2026-04-04T16:45:28.999Z</time></trkpt><trkpt lat="38.949983079124074" lon="8.944812113843941"><ele>28.666666666666664</ele><time>2026-04-04T16:45:29.999Z</time></trkpt><trkpt lat="38.94986913109753" lon="8.944666411750555"><ele>28.333333333333336</ele><time>2026-04-04T16:45:30.999Z</time></trkpt><trkpt lat="38.94975612449096" lon="8.944528398437031"><ele>28.0</ele><time>2026-04-04T16:45:31.999Z</time></trkpt><trkpt lat="38.94965068997587" lon="8.944402688674238"><ele>28.0</ele><time>2026-04-04T16:45:32.999Z</time></trkpt><trkpt lat="38.94954185483957" lon="8.944272846839526"><ele>28.0</ele><time>2026-04-04T16:45:33.999Z</time></trkpt><trkpt lat="38.94942680571558" lon="8.944144113896549"><ele>28.0</ele><time>2026-04-04T16:45:34.999Z</time></trkpt><trkpt lat="38.94930756887017" lon="8.94401098861507"><ele>28.0</ele><time>2026-04-04T16:45:35.999Z</time></trkpt><trkpt lat="38.949200850451724" lon="8.943892640948613"><ele>28.0</ele><time>2026-04-04T16:45:36.999Z</time></trkpt><trkpt lat="38.94908632794413" lon="8.943769992878"><ele>28.0</ele><time>2026-04-04T16:45:37.999Z</time></trkpt><trkpt lat="38.94896133889305" lon="8.943638076863511"><ele>28.0</ele><time>2026-04-04T16:45:38.999Z</time></trkpt><trkpt lat="38.9488275833522" lon="8.943494810331796"><ele>28.0</ele><time>2026-04-04T16:45:39.999Z</time></trkpt><trkpt lat="38.94868727879714" lon="8.943341467141606"><ele>28.0</ele><time>2026-04-04T16:45:40.999Z</time></trkpt><trkpt lat="38.948544865621244" lon="8.943182050165419"><ele>28.666666666666668</ele><time>2026-04-04T16:45:41.999Z</time></trkpt><trkpt lat="38.94839991182546" lon="8.94301993272945"><ele>29.333333333333336</ele><time>2026-04-04T16:45:42.999Z</time></trkpt><trkpt lat="38.94824799777402" lon="8.942855211826531"><ele>30.0</ele><time>2026-04-04T16:45:43.999Z</time></trkpt><trkpt lat="38.94808917236041" lon="8.94268614822269"><ele>30.0</ele><time>2026-04-04T16:45:44.999Z</time></trkpt><trkpt lat="38.947937161076005" lon="8.942519783377653"><ele>30.0</ele><time>2026-04-04T16:45:45.999Z</time></trkpt><trkpt lat="38.94779553317746" lon="8.942362638506403"><ele>30.0</ele><time>2026-04-04T16:45:46.999Z</time></trkpt><trkpt lat="38.947664724497486" lon="8.942218755156837"><ele>30.666666666666664</ele><time>2026-04-04T16:45:47.999Z</time></trkpt><trkpt lat="38.94753851298015" lon="8.94207820475934"><ele>31.333333333333332</ele><time>2026-04-04T16:45:48.999Z</time></trkpt><trkpt lat="38.94741793373067" lon="8.94194332955251"><ele>32.0</ele><time>2026-04-04T16:45:49.999Z</time></trkpt><trkpt lat="38.947297596871564" lon="8.941803352191787"><ele>32.0</ele><time>2026-04-04T16:45:50.999Z</time></trkpt><trkpt lat="38.94717396073365" lon="8.941657553382816"><ele>32.0</ele><time>2026-04-04T16:45:51.999Z</time></trkpt><trkpt lat="38.947041760174834" lon="8.94150467456167"><ele>32.0</ele><time>2026-04-04T16:45:52.999Z</time></trkpt><trkpt lat="38.94690415416148" lon="8.941349962108236"><ele>32.0</ele><time>2026-04-04T16:45:53.999Z</time></trkpt><trkpt lat="38.94676013081361" lon="8.941192260835269"><ele>32.0</ele><time>2026-04-04T16:45:54.999Z</time></trkpt><trkpt lat="38.946601466831325" lon="8.94102662440669"><ele>32.0</ele><time>2026-04-04T16:45:55.999Z</time></trkpt><trkpt lat="38.94642999202362" lon="8.940847110936945"><ele>32.5</ele><time>2026-04-04T16:45:57Z</time></trkpt><trkpt lat="38.94625230507209" lon="8.94066217849687"><ele>33.0</ele><time>2026-04-04T16:45:58Z</time></trkpt><trkpt lat="38.94606763042803" lon="8.94046449421907"><ele>33.0</ele><time>2026-04-04T16:45:59Z</time></trkpt><trkpt lat="38.94588052742078" lon="8.940251371484575"><ele>33.0</ele><time>2026-04-04T16:46:00Z</time></trkpt><trkpt lat="38.945687579494674" lon="8.940022154419037"><ele>31.5</ele><time>2026-04-04T16:46:01Z</time></trkpt><trkpt lat="38.94550812063966" lon="8.939798554918216"><ele>30.0</ele><time>2026-04-04T16:46:02Z</time></trkpt><trkpt lat="38.94534456092978" lon="8.93958834627288"><ele>30.0</ele><time>2026-04-04T16:46:03Z</time></trkpt><trkpt lat="38.94517956054233" lon="8.939380285551412"><ele>30.0</ele><time>2026-04-04T16:46:04Z</time></trkpt><trkpt lat="38.945011402249094" lon="8.939173174775537"><ele>30.666666666666664</ele><time>2026-04-04T16:46:05Z</time></trkpt><trkpt lat="38.94485594727448" lon="8.938980812741699"><ele>31.333333333333332</ele><time>2026-04-04T16:46:06Z</time></trkpt><trkpt lat="38.94470516924579" lon="8.938792415845896"><ele>32.0</ele><time>2026-04-04T16:46:07Z</time></trkpt><trkpt lat="38.94455188395019" lon="8.93860055660078"><ele>32.0</ele><time>2026-04-04T16:46:08Z</time></trkpt><trkpt lat="38.944397574052616" lon="8.938410721526164"><ele>32.0</ele><time>2026-04-04T16:46:09Z</time></trkpt><trkpt lat="38.944256577181456" lon="8.938232087208027"><ele>32.0</ele><time>2026-04-04T16:46:10Z</time></trkpt><trkpt lat="38.9441186805039" lon="8.938059264196156"><ele>32.33333333333333</ele><time>2026-04-04T16:46:11Z</time></trkpt><trkpt lat="38.94398243263851" lon="8.937890870181938"><ele>32.666666666666664</ele><time>2026-04-04T16:46:12Z</time></trkpt><trkpt lat="38.94384493584294" lon="8.937719616337546"><ele>33.0</ele><time>2026-04-04T16:46:13Z</time></trkpt><trkpt lat="38.94370944253361" lon="8.937547102037776"><ele>33.0</ele><time>2026-04-04T16:46:14Z</time></trkpt><trkpt lat="38.943573641713385" lon="8.937372317643872"><ele>33.0</ele><time>2026-04-04T16:46:15Z</time></trkpt><trkpt lat="38.94343646468041" lon="8.937198999849821"><ele>33.0</ele><time>2026-04-04T16:46:16Z</time></trkpt><trkpt lat="38.94329996633255" lon="8.937019668717449"><ele>33.0</ele><time>2026-04-04T16:46:17Z</time></trkpt><trkpt lat="38.94315916301971" lon="8.936850714055776"><ele>33.0</ele><time>2026-04-04T16:46:18Z</time></trkpt><trkpt lat="38.943020786398804" lon="8.936682613822"><ele>33.0</ele><time>2026-04-04T16:46:19Z</time></trkpt><trkpt lat="38.94287947143065" lon="8.93650481499008"><ele>32.333333333333336</ele><time>2026-04-04T16:46:20Z</time></trkpt><trkpt lat="38.94274098265596" lon="8.936334122994248"><ele>31.666666666666668</ele><time>2026-04-04T16:46:21Z</time></trkpt><trkpt lat="38.94262023854456" lon="8.936145344193084"><ele>31.0</ele><time>2026-04-04T16:46:22Z</time></trkpt><trkpt lat="38.94249155035278" lon="8.935984464404179"><ele>30.333333333333336</ele><time>2026-04-04T16:46:23Z</time></trkpt><trkpt lat="38.94236863568027" lon="8.935831450364613"><ele>29.666666666666664</ele><time>2026-04-04T16:46:24Z</time></trkpt><trkpt lat="38.94225541213502" lon="8.935690725219493"><ele>29.0</ele><time>2026-04-04T16:46:25Z</time></trkpt><trkpt lat="38.942145500851495" lon="8.935553659046377"><ele>29.0</ele><time>2026-04-04T16:46:26Z</time></trkpt><trkpt lat="38.942042596954785" lon="8.935425331518491"><ele>29.0</ele><time>2026-04-04T16:46:27Z</time></trkpt><trkpt lat="38.94194473589773" lon="8.935303292722839"><ele>29.0</ele><time>2026-04-04T16:46:28Z</time></trkpt><trkpt lat="38.94184038625527" lon="8.935174696033608"><ele>29.0</ele><time>2026-04-04T16:46:29Z</time></trkpt><trkpt lat="38.94172309862227" lon="8.935060594231357"><ele>29.25</ele><time>2026-04-04T16:46:30Z</time></trkpt><trkpt lat="38.94161940467033" lon="8.934936889943568"><ele>29.5</ele><time>2026-04-04T16:46:31Z</time></trkpt><trkpt lat="38.941519892992346" lon="8.93481071324723"><ele>29.75</ele><time>2026-04-04T16:46:32Z</time></trkpt><trkpt lat="38.94141934718973" lon="8.934685690777673"><ele>30.0</ele><time>2026-04-04T16:46:33Z</time></trkpt><trkpt lat="38.941314490525585" lon="8.934555545973154"><ele>30.0</ele><time>2026-04-04T16:46:34Z</time></trkpt><trkpt lat="38.94120890054669" lon="8.93442582184461"><ele>30.0</ele><time>2026-04-04T16:46:35Z</time></trkpt><trkpt lat="38.94109970034577" lon="8.934292419529378"><ele>30.0</ele><time>2026-04-04T16:46:36Z</time></trkpt><trkpt lat="38.940986742875204" lon="8.934152047160865"><ele>28.333333333333336</ele><time>2026-04-04T16:46:37Z</time></trkpt><trkpt lat="38.94087975721115" lon="8.934020021216742"><ele>26.666666666666668</ele><time>2026-04-04T16:46:38Z</time></trkpt><trkpt lat="38.94077023918807" lon="8.933884832528472"><ele>25.0</ele><time>2026-04-04T16:46:38.999Z</time></trkpt><trkpt lat="38.94065570298206" lon="8.933749586289567"><ele>25.0</ele><time>2026-04-04T16:46:39.999Z</time></trkpt><trkpt lat="38.94053806043797" lon="8.933619739209835"><ele>25.0</ele><time>2026-04-04T16:46:40.999Z</time></trkpt><trkpt lat="38.940421359599235" lon="8.933478174782476"><ele>25.0</ele><time>2026-04-04T16:46:41.999Z</time></trkpt><trkpt lat="38.94029089841136" lon="8.9333509594057"><ele>25.0</ele><time>2026-04-04T16:46:42.999Z</time></trkpt><trkpt lat="38.940175612202204" lon="8.933250250554178"><ele>25.0</ele><time>2026-04-04T16:46:43.999Z</time></trkpt><trkpt lat="38.9400752196133" lon="8.933163772240844"><ele>25.0</ele><time>2026-04-04T16:46:44.999Z</time></trkpt><trkpt lat="38.93997830341576" lon="8.933080288496878"><ele>25.0</ele><time>2026-04-04T16:46:45.999Z</time></trkpt><trkpt lat="38.93989234763997" lon="8.933006246076173"><ele>24.333333333333336</ele><time>2026-04-04T16:46:46.999Z</time></trkpt><trkpt lat="38.939699184016945" lon="8.932852448363388"><ele>23.666666666666668</ele><time>2026-04-04T16:46:47.999Z</time></trkpt><trkpt lat="38.93958561097353" lon="8.932756749147611"><ele>23.0</ele><time>2026-04-04T16:46:48.999Z</time></trkpt><trkpt lat="38.93947090757428" lon="8.93265138010742"><ele>23.0</ele><time>2026-04-04T16:46:49.999Z</time></trkpt><trkpt lat="38.9393539170789" lon="8.932550421279892"><ele>23.0</ele><time>2026-04-04T16:46:50.999Z</time></trkpt><trkpt lat="38.93923011609963" lon="8.9324413123223"><ele>23.0</ele><time>2026-04-04T16:46:51.999Z</time></trkpt><trkpt lat="38.939100441098816" lon="8.932337387600873"><ele>23.0</ele><time>2026-04-04T16:46:52.999Z</time></trkpt><trkpt lat="38.938968623660166" lon="8.932228888235304"><ele>24.25</ele><time>2026-04-04T16:46:53.999Z</time></trkpt><trkpt lat="38.938850572044686" lon="8.932118231174359"><ele>25.5</ele><time>2026-04-04T16:46:54.999Z</time></trkpt><trkpt lat="38.938732834525275" lon="8.932006874674396"><ele>26.75</ele><time>2026-04-04T16:46:55.999Z</time></trkpt><trkpt lat="38.93863020777192" lon="8.931898923219139"><ele>28.0</ele><time>2026-04-04T16:46:56.999Z</time></trkpt><trkpt lat="38.938536674444265" lon="8.931793784722453"><ele>28.0</ele><time>2026-04-04T16:46:57.999Z</time></trkpt><trkpt lat="38.93844993555338" lon="8.931686453799614"><ele>28.0</ele><time>2026-04-04T16:46:58.999Z</time></trkpt><trkpt lat="38.93836486380743" lon="8.9315899936668"><ele>28.0</ele><time>2026-04-04T16:46:59.999Z</time></trkpt><trkpt lat="38.93829739986069" lon="8.931478356537667"><ele>28.0</ele><time>2026-04-04T16:47:00.999Z</time></trkpt><trkpt lat="38.93821987187346" lon="8.931374813097605"><ele>28.0</ele><time>2026-04-04T16:47:01.999Z</time></trkpt><trkpt lat="38.938138431838354" lon="8.931265835590365"><ele>28.0</ele><time>2026-04-04T16:47:02.999Z</time></trkpt><trkpt lat="38.93805993534791" lon="8.93116079607561"><ele>28.0</ele><time>2026-04-04T16:47:03.999Z</time></trkpt><trkpt lat="38.93797125504923" lon="8.93106591863267"><ele>28.0</ele><time>2026-04-04T16:47:04.999Z</time></trkpt><trkpt lat="38.937880262122704" lon="8.930944730149982"><ele>27.5</ele><time>2026-04-04T16:47:05.999Z</time></trkpt><trkpt lat="38.937780288110496" lon="8.930807738445287"><ele>27.0</ele><time>2026-04-04T16:47:06.999Z</time></trkpt><trkpt lat="38.937678339381755" lon="8.930674399144499"><ele>26.5</ele><time>2026-04-04T16:47:07.999Z</time></trkpt><trkpt lat="38.93758327282398" lon="8.930554319315378"><ele>26.0</ele><time>2026-04-04T16:47:08.999Z</time></trkpt><trkpt lat="38.937496040727055" lon="8.930436844926303"><ele>24.75</ele><time>2026-04-04T16:47:09.999Z</time></trkpt><trkpt lat="38.93741470331021" lon="8.93031859157557"><ele>23.5</ele><time>2026-04-04T16:47:10.999Z</time></trkpt><trkpt lat="38.93733518973621" lon="8.930192793755507"><ele>22.25</ele><time>2026-04-04T16:47:11.999Z</time></trkpt><trkpt lat="38.937256188820555" lon="8.930086714264135"><ele>21.0</ele><time>2026-04-04T16:47:12.999Z</time></trkpt><trkpt lat="38.937173136285125" lon="8.929975048017107"><ele>21.0</ele><time>2026-04-04T16:47:13.999Z</time></trkpt><trkpt lat="38.937081123179816" lon="8.929851036972455"><ele>21.0</ele><time>2026-04-04T16:47:14.999Z</time></trkpt><trkpt lat="38.936972197647755" lon="8.929703793748164"><ele>21.0</ele><time>2026-04-04T16:47:15.999Z</time></trkpt><trkpt lat="38.936848676966356" lon="8.929536529663569"><ele>21.333333333333332</ele><time>2026-04-04T16:47:16.999Z</time></trkpt><trkpt lat="38.936714505771256" lon="8.929355999746067"><ele>21.666666666666664</ele><time>2026-04-04T16:47:17.999Z</time></trkpt><trkpt lat="38.93657069422412" lon="8.929162520357272"><ele>22.0</ele><time>2026-04-04T16:47:18.999Z</time></trkpt><trkpt lat="38.9364260517597" lon="8.928967724753226"><ele>22.0</ele><time>2026-04-04T16:47:19.999Z</time></trkpt><trkpt lat="38.93627758386041" lon="8.928767177043019"><ele>22.0</ele><time>2026-04-04T16:47:20.999Z</time></trkpt><trkpt lat="38.93611638462929" lon="8.928549432058135"><ele>22.0</ele><time>2026-04-04T16:47:21.999Z</time></trkpt><trkpt lat="38.935941447367846" lon="8.928313129978637"><ele>23.5</ele><time>2026-04-04T16:47:22.999Z</time></trkpt><trkpt lat="38.935761290547845" lon="8.92806977745782"><ele>25.0</ele><time>2026-04-04T16:47:23.999Z</time></trkpt><trkpt lat="38.935585659862475" lon="8.927832538710728"><ele>25.0</ele><time>2026-04-04T16:47:24.999Z</time></trkpt><trkpt lat="38.93541012798083" lon="8.927595650728327"><ele>25.0</ele><time>2026-04-04T16:47:25.999Z</time></trkpt><trkpt lat="38.935233729354266" lon="8.92735905233493"><ele>24.5</ele><time>2026-04-04T16:47:26.999Z</time></trkpt><trkpt lat="38.935069290965245" lon="8.927138495887403"><ele>24.0</ele><time>2026-04-04T16:47:27.999Z</time></trkpt><trkpt lat="38.93491586132131" lon="8.926932705101507"><ele>24.333333333333336</ele><time>2026-04-04T16:47:28.999Z</time></trkpt><trkpt lat="38.93476134151078" lon="8.926725452132512"><ele>24.666666666666668</ele><time>2026-04-04T16:47:29.999Z</time></trkpt><trkpt lat="38.934611322059105" lon="8.926524235390257"><ele>25.0</ele><time>2026-04-04T16:47:30.999Z</time></trkpt><trkpt lat="38.93446925895808" lon="8.926333690223684"><ele>25.0</ele><time>2026-04-04T16:47:31.999Z</time></trkpt><trkpt lat="38.93431977622885" lon="8.926133193360895"><ele>25.0</ele><time>2026-04-04T16:47:32.999Z</time></trkpt><trkpt lat="38.934157580465026" lon="8.925914707219274"><ele>26.0</ele><time>2026-04-04T16:47:33.999Z</time></trkpt><trkpt lat="38.934004735136824" lon="8.925708197952247"><ele>27.0</ele><time>2026-04-04T16:47:34.999Z</time></trkpt><trkpt lat="38.93385484188696" lon="8.92553400827293"><ele>28.0</ele><time>2026-04-04T16:47:35.999Z</time></trkpt><trkpt lat="38.93372892797827" lon="8.925358279320477"><ele>28.0</ele><time>2026-04-04T16:47:36.999Z</time></trkpt><trkpt lat="38.933604595901286" lon="8.925181608049067"><ele>28.0</ele><time>2026-04-04T16:47:37.999Z</time></trkpt><trkpt lat="38.9334837617833" lon="8.924986161664048"><ele>28.0</ele><time>2026-04-04T16:47:38.999Z</time></trkpt><trkpt lat="38.93337189307521" lon="8.924772367124703"><ele>28.666666666666668</ele><time>2026-04-04T16:47:39.999Z</time></trkpt><trkpt lat="38.93326272832299" lon="8.924549004042326"><ele>29.333333333333336</ele><time>2026-04-04T16:47:40.999Z</time></trkpt><trkpt lat="38.933163704281334" lon="8.92433854063095"><ele>30.0</ele><time>2026-04-04T16:47:41.999Z</time></trkpt><trkpt lat="38.93307339354008" lon="8.924145934537888"><ele>30.0</ele><time>2026-04-04T16:47:42.999Z</time></trkpt><trkpt lat="38.93298680135318" lon="8.923962190139507"><ele>30.0</ele><time>2026-04-04T16:47:43.999Z</time></trkpt><trkpt lat="38.932901390294916" lon="8.923780406328586"><ele>30.0</ele><time>2026-04-04T16:47:44.999Z</time></trkpt><trkpt lat="38.93282116736881" lon="8.92360888129672"><ele>30.0</ele><time>2026-04-04T16:47:45.999Z</time></trkpt><trkpt lat="38.93273909582477" lon="8.923441542715347"><ele>30.0</ele><time>2026-04-04T16:47:46.999Z</time></trkpt><trkpt lat="38.93266122754749" lon="8.92326430089096"><ele>30.0</ele><time>2026-04-04T16:47:47.999Z</time></trkpt><trkpt lat="38.932578263325574" lon="8.923088158560203"><ele>29.25</ele><time>2026-04-04T16:47:48.999Z</time></trkpt><trkpt lat="38.93250110573001" lon="8.92291835495052"><ele>28.5</ele><time>2026-04-04T16:47:49.999Z</time></trkpt><trkpt lat="38.93242363469768" lon="8.922754057862045"><ele>27.75</ele><time>2026-04-04T16:47:50.999Z</time></trkpt><trkpt lat="38.932350689639904" lon="8.922596180424256"><ele>27.0</ele><time>2026-04-04T16:47:51.999Z</time></trkpt><trkpt lat="38.93227795567143" lon="8.922436203985667"><ele>27.0</ele><time>2026-04-04T16:47:52.999Z</time></trkpt><trkpt lat="38.93221781377002" lon="8.922264436825401"><ele>27.0</ele><time>2026-04-04T16:47:53.999Z</time></trkpt><trkpt lat="38.93214291933214" lon="8.922103148178547"><ele>27.0</ele><time>2026-04-04T16:47:54.999Z</time></trkpt><trkpt lat="38.93206819397697" lon="8.921947081515379"><ele>27.0</ele><time>2026-04-04T16:47:55.999Z</time></trkpt><trkpt lat="38.93198171593777" lon="8.921804368319473"><ele>26.75</ele><time>2026-04-04T16:47:56.999Z</time></trkpt><trkpt lat="38.9319049089463" lon="8.921653154922357"><ele>26.5</ele><time>2026-04-04T16:47:57.999Z</time></trkpt><trkpt lat="38.93182082877946" lon="8.9215048498505"><ele>26.25</ele><time>2026-04-04T16:47:58.999Z</time></trkpt><trkpt lat="38.93173251635875" lon="8.921360585599311"><ele>26.0</ele><time>2026-04-04T16:47:59.999Z</time></trkpt><trkpt lat="38.931647386936135" lon="8.921197364509943"><ele>26.0</ele><time>2026-04-04T16:48:00.999Z</time></trkpt><trkpt lat="38.931538854583614" lon="8.92104232172696"><ele>26.0</ele><time>2026-04-04T16:48:01.999Z</time></trkpt><trkpt lat="38.931406139550646" lon="8.920867740737789"><ele>26.0</ele><time>2026-04-04T16:48:03Z</time></trkpt><trkpt lat="38.93125074309328" lon="8.92068395620224"><ele>25.5</ele><time>2026-04-04T16:48:04Z</time></trkpt><trkpt lat="38.93107633772984" lon="8.920490938407191"><ele>25.0</ele><time>2026-04-04T16:48:05Z</time></trkpt><trkpt lat="38.93088205281395" lon="8.920298847712042"><ele>24.0</ele><time>2026-04-04T16:48:06Z</time></trkpt><trkpt lat="38.930700352505" lon="8.920089816096004"><ele>23.0</ele><time>2026-04-04T16:48:07Z</time></trkpt><trkpt lat="38.930531402450065" lon="8.91990069566401"><ele>22.0</ele><time>2026-04-04T16:48:08Z</time></trkpt><trkpt lat="38.93035998484537" lon="8.919715045135872"><ele>21.0</ele><time>2026-04-04T16:48:09Z</time></trkpt><trkpt lat="38.93019355752521" lon="8.919525260175348"><ele>20.0</ele><time>2026-04-04T16:48:10Z</time></trkpt><trkpt lat="38.93003780692411" lon="8.919341853096888"><ele>19.0</ele><time>2026-04-04T16:48:11Z</time></trkpt><trkpt lat="38.929907487561486" lon="8.919132699227685"><ele>18.0</ele><time>2026-04-04T16:48:12Z</time></trkpt><trkpt lat="38.92976499118333" lon="8.918925731591939"><ele>17.0</ele><time>2026-04-04T16:48:13Z</time></trkpt><trkpt lat="38.92964354767782" lon="8.918681877836867"><ele>17.0</ele><time>2026-04-04T16:48:14Z</time></trkpt><trkpt lat="38.92953051249524" lon="8.91841899333626"><ele>17.0</ele><time>2026-04-04T16:48:15Z</time></trkpt><trkpt lat="38.929425109439045" lon="8.918145245002906"><ele>17.0</ele><time>2026-04-04T16:48:16Z</time></trkpt><trkpt lat="38.929315516593114" lon="8.917863415817354"><ele>17.0</ele><time>2026-04-04T16:48:17Z</time></trkpt><trkpt lat="38.929200966956614" lon="8.91759002344532"><ele>20.0</ele><time>2026-04-04T16:48:18Z</time></trkpt><trkpt lat="38.929089478716755" lon="8.917334054184819"><ele>23.0</ele><time>2026-04-04T16:48:19Z</time></trkpt><trkpt lat="38.92898102564861" lon="8.917075910199364"><ele>23.0</ele><time>2026-04-04T16:48:20Z</time></trkpt><trkpt lat="38.92887317323154" lon="8.916816322634261"><ele>23.0</ele><time>2026-04-04T16:48:21Z</time></trkpt><trkpt lat="38.92876164697152" lon="8.91655276981592"><ele>23.5</ele><time>2026-04-04T16:48:22Z</time></trkpt><trkpt lat="38.92865039341706" lon="8.916291129496916"><ele>24.0</ele><time>2026-04-04T16:48:23Z</time></trkpt><trkpt lat="38.928537808423044" lon="8.916033223514015"><ele>24.0</ele><time>2026-04-04T16:48:23.999Z</time></trkpt><trkpt lat="38.92842825827828" lon="8.915770731663281"><ele>24.0</ele><time>2026-04-04T16:48:24.999Z</time></trkpt><trkpt lat="38.928318007530855" lon="8.915506301862491"><ele>23.5</ele><time>2026-04-04T16:48:25.999Z</time></trkpt><trkpt lat="38.92820813844615" lon="8.915252095676589"><ele>23.0</ele><time>2026-04-04T16:48:26.999Z</time></trkpt><trkpt lat="38.928096298535586" lon="8.91499445980389"><ele>23.0</ele><time>2026-04-04T16:48:27.999Z</time></trkpt><trkpt lat="38.927987191690555" lon="8.914741019444092"><ele>23.0</ele><time>2026-04-04T16:48:28.999Z</time></trkpt><trkpt lat="38.92788023906854" lon="8.914486448200247"><ele>23.0</ele><time>2026-04-04T16:48:29.999Z</time></trkpt><trkpt lat="38.92777567068816" lon="8.914243694350626"><ele>23.0</ele><time>2026-04-04T16:48:30.999Z</time></trkpt><trkpt lat="38.92766979669127" lon="8.913994875129028"><ele>23.0</ele><time>2026-04-04T16:48:31.999Z</time></trkpt><trkpt lat="38.927565359199974" lon="8.913755806886718"><ele>22.0</ele><time>2026-04-04T16:48:32.999Z</time></trkpt><trkpt lat="38.92746040511409" lon="8.913516067067327"><ele>21.0</ele><time>2026-04-04T16:48:33.999Z</time></trkpt><trkpt lat="38.927351521231024" lon="8.913278425670526"><ele>20.0</ele><time>2026-04-04T16:48:34.999Z</time></trkpt><trkpt lat="38.92723569613508" lon="8.913043448940156"><ele>19.666666666666668</ele><time>2026-04-04T16:48:35.999Z</time></trkpt><trkpt lat="38.92710945998438" lon="8.91281206991845"><ele>19.333333333333332</ele><time>2026-04-04T16:48:36.999Z</time></trkpt><trkpt lat="38.9269755439872" lon="8.91258221403115"><ele>19.0</ele><time>2026-04-04T16:48:37.999Z</time></trkpt><trkpt lat="38.926836688802474" lon="8.91235143448265"><ele>20.5</ele><time>2026-04-04T16:48:38.999Z</time></trkpt><trkpt lat="38.92670005960714" lon="8.9121215513251"><ele>22.0</ele><time>2026-04-04T16:48:39.999Z</time></trkpt><trkpt lat="38.92656094666523" lon="8.911887474784805"><ele>21.0</ele><time>2026-04-04T16:48:40.999Z</time></trkpt><trkpt lat="38.92641912425401" lon="8.911648943985671"><ele>20.0</ele><time>2026-04-04T16:48:41.999Z</time></trkpt><trkpt lat="38.92627885549714" lon="8.911412810005153"><ele>20.0</ele><time>2026-04-04T16:48:42.999Z</time></trkpt><trkpt lat="38.92629763827787" lon="8.9110378697845"><ele>20.0</ele><time>2026-04-04T16:48:43.999Z</time></trkpt><trkpt lat="38.926166498631716" lon="8.91078498522563"><ele>23.0</ele><time>2026-04-04T16:48:44.999Z</time></trkpt><trkpt lat="38.92602742481342" lon="8.910542905278978"><ele>26.0</ele><time>2026-04-04T16:48:45.999Z</time></trkpt><trkpt lat="38.925702429471066" lon="8.910450655275111"><ele>26.0</ele><time>2026-04-04T16:48:46.999Z</time></trkpt><trkpt lat="38.92555429168581" lon="8.910200938852801"><ele>26.0</ele><time>2026-04-04T16:48:47.999Z</time></trkpt><trkpt lat="38.9254087337266" lon="8.90995384243126"><ele>27.5</ele><time>2026-04-04T16:48:48.999Z</time></trkpt><trkpt lat="38.925259458155445" lon="8.909705705566783"><ele>29.0</ele><time>2026-04-04T16:48:49.999Z</time></trkpt><trkpt lat="38.925111674048715" lon="8.909459402074695"><ele>30.0</ele><time>2026-04-04T16:48:50.999Z</time></trkpt><trkpt lat="38.924964284326244" lon="8.909215284997192"><ele>31.0</ele><time>2026-04-04T16:48:51.999Z</time></trkpt><trkpt lat="38.92481919779461" lon="8.908972939990427"><ele>31.0</ele><time>2026-04-04T16:48:52.999Z</time></trkpt><trkpt lat="38.92467494947154" lon="8.908733101388458"><ele>31.0</ele><time>2026-04-04T16:48:53.999Z</time></trkpt><trkpt lat="38.92453268427202" lon="8.908497456853498"><ele>31.0</ele><time>2026-04-04T16:48:54.999Z</time></trkpt><trkpt lat="38.92439819741286" lon="8.90827432658996"><ele>31.0</ele><time>2026-04-04T16:48:55.999Z</time></trkpt><trkpt lat="38.92426946313044" lon="8.908059065289224"><ele>31.0</ele><time>2026-04-04T16:48:56.999Z</time></trkpt><trkpt lat="38.92414686383021" lon="8.907846143817988"><ele>31.0</ele><time>2026-04-04T16:48:57.999Z</time></trkpt><trkpt lat="38.92403454917815" lon="8.90762784977373"><ele>31.0</ele><time>2026-04-04T16:48:58.999Z</time></trkpt><trkpt lat="38.923935480793226" lon="8.907391246273177"><ele>31.0</ele><time>2026-04-04T16:48:59.999Z</time></trkpt><trkpt lat="38.923848895588186" lon="8.907149277192238"><ele>33.333333333333336</ele><time>2026-04-04T16:49:00.999Z</time></trkpt><trkpt lat="38.92377294674838" lon="8.906900723476655"><ele>35.666666666666664</ele><time>2026-04-04T16:49:01.999Z</time></trkpt><trkpt lat="38.923713456655136" lon="8.906653244588394"><ele>38.0</ele><time>2026-04-04T16:49:02.999Z</time></trkpt><trkpt lat="38.9236641746741" lon="8.90640904910271"><ele>38.666666666666664</ele><time>2026-04-04T16:49:03.999Z</time></trkpt><trkpt lat="38.923632175871354" lon="8.906178428454481"><ele>39.333333333333336</ele><time>2026-04-04T16:49:04.999Z</time></trkpt><trkpt lat="38.92360816068716" lon="8.905944604486077"><ele>40.0</ele><time>2026-04-04T16:49:05.999Z</time></trkpt><trkpt lat="38.92359188583865" lon="8.905700339744737"><ele>42.333333333333336</ele><time>2026-04-04T16:49:06.999Z</time></trkpt><trkpt lat="38.923585431408206" lon="8.905451417124516"><ele>44.666666666666664</ele><time>2026-04-04T16:49:07.999Z</time></trkpt><trkpt lat="38.92358881507043" lon="8.905202863172514"><ele>47.0</ele><time>2026-04-04T16:49:08.999Z</time></trkpt><trkpt lat="38.92360792499919" lon="8.904950873985678"><ele>49.33333333333333</ele><time>2026-04-04T16:49:09.999Z</time></trkpt><trkpt lat="38.92363982877852" lon="8.904696389516563"><ele>51.666666666666664</ele><time>2026-04-04T16:49:10.999Z</time></trkpt><trkpt lat="38.923683751610675" lon="8.904430189084701"><ele>54.0</ele><time>2026-04-04T16:49:11.999Z</time></trkpt><trkpt lat="38.92373129497768" lon="8.904157623371953"><ele>56.0</ele><time>2026-04-04T16:49:12.999Z</time></trkpt><trkpt lat="38.92377945500655" lon="8.90387603057566"><ele>58.0</ele><time>2026-04-04T16:49:13.999Z</time></trkpt><trkpt lat="38.9238235993927" lon="8.90358422359112"><ele>60.5</ele><time>2026-04-04T16:49:14.999Z</time></trkpt><trkpt lat="38.92386746929983" lon="8.903291004852429"><ele>63.0</ele><time>2026-04-04T16:49:15.999Z</time></trkpt><trkpt lat="38.92391257912088" lon="8.902986104947418"><ele>63.0</ele><time>2026-04-04T16:49:16.999Z</time></trkpt><trkpt lat="38.92396069916002" lon="8.902680426571226"><ele>63.0</ele><time>2026-04-04T16:49:17.999Z</time></trkpt><trkpt lat="38.92401003458947" lon="8.902379979118422"><ele>65.0</ele><time>2026-04-04T16:49:18.999Z</time></trkpt><trkpt lat="38.92406243261205" lon="8.902092407362396"><ele>67.0</ele><time>2026-04-04T16:49:19.999Z</time></trkpt><trkpt lat="38.924124055689866" lon="8.901820317655764"><ele>68.0</ele><time>2026-04-04T16:49:20.999Z</time></trkpt><trkpt lat="38.92419229962736" lon="8.90156100212605"><ele>69.0</ele><time>2026-04-04T16:49:21.999Z</time></trkpt><trkpt lat="38.924270832588654" lon="8.90130238541445"><ele>70.0</ele><time>2026-04-04T16:49:22.999Z</time></trkpt><trkpt lat="38.924358961058424" lon="8.901041246401148"><ele>70.66666666666666</ele><time>2026-04-04T16:49:23.999Z</time></trkpt><trkpt lat="38.92445477762428" lon="8.900780049607166"><ele>71.33333333333333</ele><time>2026-04-04T16:49:24.999Z</time></trkpt><trkpt lat="38.92455828251442" lon="8.900527652122861"><ele>72.0</ele><time>2026-04-04T16:49:25.999Z</time></trkpt><trkpt lat="38.92467483009588" lon="8.90028637443106"><ele>69.5</ele><time>2026-04-04T16:49:26.999Z</time></trkpt><trkpt lat="38.92481010536747" lon="8.900047002105705"><ele>67.0</ele><time>2026-04-04T16:49:27.999Z</time></trkpt><trkpt lat="38.92495735200512" lon="8.899802857805694"><ele>65.5</ele><time>2026-04-04T16:49:28.999Z</time></trkpt><trkpt lat="38.925105570356294" lon="8.899552526506247"><ele>64.0</ele><time>2026-04-04T16:49:29.999Z</time></trkpt><trkpt lat="38.925253620132224" lon="8.899297557838567"><ele>58.5</ele><time>2026-04-04T16:49:30.999Z</time></trkpt><trkpt lat="38.92539093168576" lon="8.899055621845095"><ele>53.0</ele><time>2026-04-04T16:49:31.999Z</time></trkpt><trkpt lat="38.925518385827814" lon="8.898827705123932"><ele>53.0</ele><time>2026-04-04T16:49:32.999Z</time></trkpt><trkpt lat="38.92563808770404" lon="8.898602181404149"><ele>53.0</ele><time>2026-04-04T16:49:33.999Z</time></trkpt><trkpt lat="38.92574394389764" lon="8.898380347906832"><ele>53.0</ele><time>2026-04-04T16:49:34.999Z</time></trkpt><trkpt lat="38.92583935088446" lon="8.898145578929979"><ele>51.0</ele><time>2026-04-04T16:49:35.999Z</time></trkpt><trkpt lat="38.92591549845952" lon="8.89791035999377"><ele>49.0</ele><time>2026-04-04T16:49:36.999Z</time></trkpt><trkpt lat="38.925969927057864" lon="8.897675978382477"><ele>47.0</ele><time>2026-04-04T16:49:37.999Z</time></trkpt><trkpt lat="38.92599987424134" lon="8.897429249728145"><ele>45.0</ele><time>2026-04-04T16:49:38.999Z</time></trkpt><trkpt lat="38.926006013581876" lon="8.89717638184502"><ele>43.0</ele><time>2026-04-04T16:49:39.999Z</time></trkpt><trkpt lat="38.92600150902307" lon="8.896914643093762"><ele>41.0</ele><time>2026-04-04T16:49:40.999Z</time></trkpt><trkpt lat="38.92599049557671" lon="8.896650657340789"><ele>41.0</ele><time>2026-04-04T16:49:41.999Z</time></trkpt><trkpt lat="38.925963656018034" lon="8.896382924579864"><ele>41.0</ele><time>2026-04-04T16:49:42.999Z</time></trkpt><trkpt lat="38.92591458409298" lon="8.896116070164398"><ele>41.0</ele><time>2026-04-04T16:49:43.999Z</time></trkpt><trkpt lat="38.92584338202104" lon="8.895853383248973"><ele>43.0</ele><time>2026-04-04T16:49:44.999Z</time></trkpt><trkpt lat="38.92575637843168" lon="8.895601947041843"><ele>45.0</ele><time>2026-04-04T16:49:45.999Z</time></trkpt><trkpt lat="38.925664479969235" lon="8.895371074681945"><ele>47.0</ele><time>2026-04-04T16:49:46.999Z</time></trkpt><trkpt lat="38.925562107005284" lon="8.895164613803997"><ele>41.666666666666664</ele><time>2026-04-04T16:49:47.999Z</time></trkpt><trkpt lat="38.925439024735" lon="8.894982222307089"><ele>36.333333333333336</ele><time>2026-04-04T16:49:48.999Z</time></trkpt><trkpt lat="38.925295833330324" lon="8.894816787385775"><ele>31.0</ele><time>2026-04-04T16:49:49.999Z</time></trkpt><trkpt lat="38.92513643414272" lon="8.894656410187272"><ele>29.666666666666668</ele><time>2026-04-04T16:49:50.999Z</time></trkpt><trkpt lat="38.92496893314314" lon="8.89450338894691"><ele>28.333333333333336</ele><time>2026-04-04T16:49:51.999Z</time></trkpt><trkpt lat="38.92479045620765" lon="8.894361642093896"><ele>27.0</ele><time>2026-04-04T16:49:52.999Z</time></trkpt><trkpt lat="38.92460034732867" lon="8.894230909404412"><ele>27.0</ele><time>2026-04-04T16:49:53.999Z</time></trkpt><trkpt lat="38.92440116575535" lon="8.894109535508866"><ele>27.0</ele><time>2026-04-04T16:49:54.999Z</time></trkpt><trkpt lat="38.92419615951219" lon="8.893986860356542"><ele>27.0</ele><time>2026-04-04T16:49:55.999Z</time></trkpt><trkpt lat="38.92399041855927" lon="8.893860407338986"><ele>26.0</ele><time>2026-04-04T16:49:56.999Z</time></trkpt><trkpt lat="38.9237778239677" lon="8.893731150367287"><ele>25.0</ele><time>2026-04-04T16:49:57.999Z</time></trkpt><trkpt lat="38.92356317545466" lon="8.893599961690526"><ele>24.0</ele><time>2026-04-04T16:49:58.999Z</time></trkpt><trkpt lat="38.92334929396581" lon="8.893467579225025"><ele>23.0</ele><time>2026-04-04T16:49:59.999Z</time></trkpt><trkpt lat="38.923149943276115" lon="8.893337722758353"><ele>23.0</ele><time>2026-04-04T16:50:00.999Z</time></trkpt><trkpt lat="38.92296069247293" lon="8.893201767010265"><ele>23.0</ele><time>2026-04-04T16:50:01.999Z</time></trkpt><trkpt lat="38.92277536368646" lon="8.893049653499048"><ele>23.0</ele><time>2026-04-04T16:50:02.999Z</time></trkpt><trkpt lat="38.92259568158842" lon="8.892883969112706"><ele>22.666666666666668</ele><time>2026-04-04T16:50:03.999Z</time></trkpt><trkpt lat="38.92242720642078" lon="8.892717518617884"><ele>22.333333333333332</ele><time>2026-04-04T16:50:04.999Z</time></trkpt><trkpt lat="38.92226988505117" lon="8.892561547669564"><ele>22.0</ele><time>2026-04-04T16:50:05.999Z</time></trkpt><trkpt lat="38.92212635845125" lon="8.892420712235372"><ele>22.5</ele><time>2026-04-04T16:50:06.999Z</time></trkpt><trkpt lat="38.922007249665704" lon="8.892273824340345"><ele>23.0</ele><time>2026-04-04T16:50:07.999Z</time></trkpt><trkpt lat="38.92188910235914" lon="8.892154279686299"><ele>23.5</ele><time>2026-04-04T16:50:08.999Z</time></trkpt><trkpt lat="38.9217928239419" lon="8.89205354927913"><ele>24.0</ele><time>2026-04-04T16:50:09.999Z</time></trkpt><trkpt lat="38.92171881587257" lon="8.891973782377288"><ele>24.0</ele><time>2026-04-04T16:50:10.999Z</time></trkpt><trkpt lat="38.92166646775814" lon="8.891917360805337"><ele>24.0</ele><time>2026-04-04T16:50:11.999Z</time></trkpt><trkpt lat="38.92148928887822" lon="8.892060055520265"><ele>24.0</ele><time>2026-04-04T16:50:14Z</time></trkpt><trkpt lat="38.92141811258612" lon="8.89216012615599"><ele>24.0</ele><time>2026-04-04T16:50:15Z</time></trkpt><trkpt lat="38.92133765827616" lon="8.892278501832305"><ele>24.0</ele><time>2026-04-04T16:50:16Z</time></trkpt><trkpt lat="38.921234834308834" lon="8.89240349688488"><ele>24.0</ele><time>2026-04-04T16:50:17Z</time></trkpt><trkpt lat="38.92110249274793" lon="8.892536494293761"><ele>24.0</ele><time>2026-04-04T16:50:18Z</time></trkpt><trkpt lat="38.920963924538135" lon="8.892665386124477"><ele>21.666666666666668</ele><time>2026-04-04T16:50:19Z</time></trkpt><trkpt lat="38.920838569721475" lon="8.892792275775907"><ele>19.333333333333336</ele><time>2026-04-04T16:50:20Z</time></trkpt><trkpt lat="38.92071062801141" lon="8.892917621337103"><ele>17.0</ele><time>2026-04-04T16:50:21Z</time></trkpt><trkpt lat="38.920598334342934" lon="8.893023428332281"><ele>17.0</ele><time>2026-04-04T16:50:22Z</time></trkpt><trkpt lat="38.92049955889466" lon="8.893113218451608"><ele>17.0</ele><time>2026-04-04T16:50:23Z</time></trkpt><trkpt lat="38.920393873728074" lon="8.893179948461555"><ele>17.0</ele><time>2026-04-04T16:50:24Z</time></trkpt><trkpt lat="38.92026436851667" lon="8.893191832980751"><ele>17.0</ele><time>2026-04-04T16:50:25Z</time></trkpt><trkpt lat="38.92011926864298" lon="8.893192622521493"><ele>17.333333333333336</ele><time>2026-04-04T16:50:26Z</time></trkpt><trkpt lat="38.91995563015906" lon="8.893198499272877"><ele>17.666666666666668</ele><time>2026-04-04T16:50:27Z</time></trkpt><trkpt lat="38.919772286768456" lon="8.893180214780829"><ele>18.0</ele><time>2026-04-04T16:50:28Z</time></trkpt><trkpt lat="38.91956931278354" lon="8.893181188287956"><ele>18.0</ele><time>2026-04-04T16:50:29Z</time></trkpt><trkpt lat="38.91934185887926" lon="8.893176909001337"><ele>18.0</ele><time>2026-04-04T16:50:30Z</time></trkpt><trkpt lat="38.91911703008347" lon="8.893175815465222"><ele>18.666666666666668</ele><time>2026-04-04T16:50:31Z</time></trkpt><trkpt lat="38.918897660036485" lon="8.893185543410748"><ele>19.333333333333336</ele><time>2026-04-04T16:50:32Z</time></trkpt><trkpt lat="38.918675923610756" lon="8.893207239863518"><ele>20.0</ele><time>2026-04-04T16:50:33Z</time></trkpt><trkpt lat="38.91846886520204" lon="8.89322593803227"><ele>21.666666666666668</ele><time>2026-04-04T16:50:34Z</time></trkpt><trkpt lat="38.918278335109065" lon="8.893237136972441"><ele>23.333333333333336</ele><time>2026-04-04T16:50:35Z</time></trkpt><trkpt lat="38.91809810166362" lon="8.89323588605411"><ele>25.0</ele><time>2026-04-04T16:50:36Z</time></trkpt><trkpt lat="38.917918480410805" lon="8.893180955630331"><ele>25.0</ele><time>2026-04-04T16:50:37Z</time></trkpt><trkpt lat="38.9177224807619" lon="8.893123395996493"><ele>25.0</ele><time>2026-04-04T16:50:38Z</time></trkpt><trkpt lat="38.91751561200977" lon="8.893055963663302"><ele>25.0</ele><time>2026-04-04T16:50:39Z</time></trkpt><trkpt lat="38.9172926684156" lon="8.893004855785462"><ele>23.666666666666668</ele><time>2026-04-04T16:50:40Z</time></trkpt><trkpt lat="38.91707764815819" lon="8.892933779571356"><ele>22.333333333333336</ele><time>2026-04-04T16:50:41Z</time></trkpt><trkpt lat="38.916876362249496" lon="8.89287250878941"><ele>21.0</ele><time>2026-04-04T16:50:42Z</time></trkpt><trkpt lat="38.91667180838199" lon="8.89281407669516"><ele>20.0</ele><time>2026-04-04T16:50:43Z</time></trkpt><trkpt lat="38.91645921095565" lon="8.892776400219216"><ele>19.0</ele><time>2026-04-04T16:50:44Z</time></trkpt><trkpt lat="38.91624547912962" lon="8.892780425139689"><ele>18.0</ele><time>2026-04-04T16:50:45Z</time></trkpt><trkpt lat="38.91602339442992" lon="8.892813720392022"><ele>17.5</ele><time>2026-04-04T16:50:46Z</time></trkpt><trkpt lat="38.915801214097314" lon="8.892855878072451"><ele>17.0</ele><time>2026-04-04T16:50:47Z</time></trkpt><trkpt lat="38.91557730361071" lon="8.892893246525706"><ele>17.0</ele><time>2026-04-04T16:50:48Z</time></trkpt><trkpt lat="38.91535253051477" lon="8.892922133269447"><ele>17.0</ele><time>2026-04-04T16:50:49Z</time></trkpt><trkpt lat="38.915146115894075" lon="8.892953941010132"><ele>17.0</ele><time>2026-04-04T16:50:50Z</time></trkpt><trkpt lat="38.91494204829797" lon="8.892941487890692"><ele>17.0</ele><time>2026-04-04T16:50:51Z</time></trkpt><trkpt lat="38.91473012068052" lon="8.89291913775204"><ele>17.0</ele><time>2026-04-04T16:50:52Z</time></trkpt><trkpt lat="38.91450523118646" lon="8.89291097029628"><ele>17.0</ele><time>2026-04-04T16:50:53Z</time></trkpt><trkpt lat="38.91428098239242" lon="8.89288082516612"><ele>17.333333333333336</ele><time>2026-04-04T16:50:54Z</time></trkpt><trkpt lat="38.91406572420553" lon="8.892854438262358"><ele>17.666666666666668</ele><time>2026-04-04T16:50:55Z</time></trkpt><trkpt lat="38.913868051111386" lon="8.892829121213058"><ele>18.0</ele><time>2026-04-04T16:50:56Z</time></trkpt><trkpt lat="38.91369040794201" lon="8.892800244339734"><ele>18.0</ele><time>2026-04-04T16:50:57Z</time></trkpt><trkpt lat="38.91353411994235" lon="8.892714483433672"><ele>18.0</ele><time>2026-04-04T16:50:58Z</time></trkpt><trkpt lat="38.91337312673033" lon="8.892618101558728"><ele>18.0</ele><time>2026-04-04T16:50:59Z</time></trkpt><trkpt lat="38.913191781358435" lon="8.892524256237644"><ele>22.0</ele><time>2026-04-04T16:51:00Z</time></trkpt><trkpt lat="38.9130065820524" lon="8.89240287595686"><ele>26.0</ele><time>2026-04-04T16:51:01Z</time></trkpt><trkpt lat="38.91280146887737" lon="8.892284649958002"><ele>30.0</ele><time>2026-04-04T16:51:02Z</time></trkpt><trkpt lat="38.91258932739342" lon="8.89215982421194"><ele>25.0</ele><time>2026-04-04T16:51:03Z</time></trkpt><trkpt lat="38.91239171319701" lon="8.892037925157874"><ele>20.0</ele><time>2026-04-04T16:51:04Z</time></trkpt><trkpt lat="38.912219478688144" lon="8.891925352239253"><ele>15.0</ele><time>2026-04-04T16:51:05Z</time></trkpt><trkpt lat="38.91206933328311" lon="8.89181336610604"><ele>15.333333333333332</ele><time>2026-04-04T16:51:06Z</time></trkpt><trkpt lat="38.91195239623582" lon="8.891673119637298"><ele>15.666666666666666</ele><time>2026-04-04T16:51:07Z</time></trkpt><trkpt lat="38.91183506862717" lon="8.891534856391276"><ele>16.0</ele><time>2026-04-04T16:51:08Z</time></trkpt><trkpt lat="38.91171818352155" lon="8.891378161982628"><ele>16.0</ele><time>2026-04-04T16:51:09Z</time></trkpt><trkpt lat="38.911584037626746" lon="8.89121935557301"><ele>16.0</ele><time>2026-04-04T16:51:10Z</time></trkpt><trkpt lat="38.91145606157023" lon="8.891049990701859"><ele>16.0</ele><time>2026-04-04T16:51:11Z</time></trkpt><trkpt lat="38.91132715371838" lon="8.890877271438692"><ele>17.666666666666664</ele><time>2026-04-04T16:51:12Z</time></trkpt><trkpt lat="38.911194659222595" lon="8.89070068842142"><ele>19.333333333333332</ele><time>2026-04-04T16:51:13Z</time></trkpt><trkpt lat="38.91105598105605" lon="8.8905150014716"><ele>21.0</ele><time>2026-04-04T16:51:14Z</time></trkpt><trkpt lat="38.910919744302085" lon="8.890335140732335"><ele>19.666666666666668</ele><time>2026-04-04T16:51:15Z</time></trkpt><trkpt lat="38.91077821588328" lon="8.890157780418965"><ele>18.333333333333336</ele><time>2026-04-04T16:51:16Z</time></trkpt><trkpt lat="38.91062968635236" lon="8.889978471906357"><ele>17.0</ele><time>2026-04-04T16:51:17Z</time></trkpt><trkpt lat="38.91048548261865" lon="8.889800284239639"><ele>17.0</ele><time>2026-04-04T16:51:18Z</time></trkpt><trkpt lat="38.910336695791145" lon="8.88961407368379"><ele>17.0</ele><time>2026-04-04T16:51:19Z</time></trkpt><trkpt lat="38.910188313206355" lon="8.889428443110214"><ele>17.0</ele><time>2026-04-04T16:51:20Z</time></trkpt><trkpt lat="38.91003870169329" lon="8.8892433099437"><ele>17.0</ele><time>2026-04-04T16:51:21Z</time></trkpt><trkpt lat="38.90988766954554" lon="8.889056755801763"><ele>17.0</ele><time>2026-04-04T16:51:22Z</time></trkpt><trkpt lat="38.90974565891142" lon="8.888879071692948"><ele>17.0</ele><time>2026-04-04T16:51:23Z</time></trkpt><trkpt lat="38.90961068457335" lon="8.888714280530825"><ele>17.0</ele><time>2026-04-04T16:51:24Z</time></trkpt><trkpt lat="38.909485048375174" lon="8.888557151563072"><ele>17.0</ele><time>2026-04-04T16:51:25Z</time></trkpt><trkpt lat="38.90936547635614" lon="8.888407796443039"><ele>17.0</ele><time>2026-04-04T16:51:26Z</time></trkpt><trkpt lat="38.90925377290543" lon="8.888266202826895"><ele>16.666666666666668</ele><time>2026-04-04T16:51:27Z</time></trkpt><trkpt lat="38.90914724698385" lon="8.888119481140109"><ele>16.333333333333332</ele><time>2026-04-04T16:51:28Z</time></trkpt><trkpt lat="38.9090523940456" lon="8.887970180249088"><ele>16.0</ele><time>2026-04-04T16:51:29Z</time></trkpt><trkpt lat="38.90896681617422" lon="8.887813812200003"><ele>16.0</ele><time>2026-04-04T16:51:30Z</time></trkpt><trkpt lat="38.90888475759723" lon="8.887647715162965"><ele>16.0</ele><time>2026-04-04T16:51:31Z</time></trkpt><trkpt lat="38.90880565062243" lon="8.887470939482423"><ele>16.0</ele><time>2026-04-04T16:51:32Z</time></trkpt><trkpt lat="38.90873763222651" lon="8.887292364628982"><ele>17.75</ele><time>2026-04-04T16:51:33Z</time></trkpt><trkpt lat="38.90868150394999" lon="8.887119444600852"><ele>19.5</ele><time>2026-04-04T16:51:34Z</time></trkpt><trkpt lat="38.908632580309636" lon="8.886965385235678"><ele>21.25</ele><time>2026-04-04T16:51:35Z</time></trkpt><trkpt lat="38.90857914081323" lon="8.886827201133059"><ele>23.0</ele><time>2026-04-04T16:51:36Z</time></trkpt><trkpt lat="38.90851722302402" lon="8.886713488428974"><ele>23.0</ele><time>2026-04-04T16:51:37Z</time></trkpt><trkpt lat="38.908434372314915" lon="8.886622534010082"><ele>23.0</ele><time>2026-04-04T16:51:38Z</time></trkpt><trkpt lat="38.908323223437364" lon="8.886551935396419"><ele>23.0</ele><time>2026-04-04T16:51:39Z</time></trkpt><trkpt lat="38.908191035269994" lon="8.886483476515957"><ele>23.0</ele><time>2026-04-04T16:51:40Z</time></trkpt><trkpt lat="38.90805301987152" lon="8.886397738907165"><ele>18.666666666666668</ele><time>2026-04-04T16:51:41Z</time></trkpt><trkpt lat="38.90790544352161" lon="8.886302126641725"><ele>14.333333333333334</ele><time>2026-04-04T16:51:42Z</time></trkpt><trkpt lat="38.907741869772586" lon="8.886198266055935"><ele>10.0</ele><time>2026-04-04T16:51:43Z</time></trkpt><trkpt lat="38.90757971436536" lon="8.88609481396756"><ele>10.0</ele><time>2026-04-04T16:51:44Z</time></trkpt><trkpt lat="38.90742711399407" lon="8.88599709435374"><ele>10.0</ele><time>2026-04-04T16:51:45Z</time></trkpt><trkpt lat="38.907270930855184" lon="8.885898833554371"><ele>10.0</ele><time>2026-04-04T16:51:46Z</time></trkpt><trkpt lat="38.90710890729979" lon="8.88579807867952"><ele>10.0</ele><time>2026-04-04T16:51:47Z</time></trkpt><trkpt lat="38.90694424376129" lon="8.885692413324204"><ele>10.0</ele><time>2026-04-04T16:51:48Z</time></trkpt><trkpt lat="38.906778264873836" lon="8.885585123221796"><ele>10.0</ele><time>2026-04-04T16:51:49Z</time></trkpt><trkpt lat="38.90660795184892" lon="8.88547652094211"><ele>9.666666666666668</ele><time>2026-04-04T16:51:50Z</time></trkpt><trkpt lat="38.906435194078966" lon="8.885366305421005"><ele>9.333333333333334</ele><time>2026-04-04T16:51:51Z</time></trkpt><trkpt lat="38.90626121014959" lon="8.885252552074592"><ele>9.0</ele><time>2026-04-04T16:51:52Z</time></trkpt><trkpt lat="38.90609376525885" lon="8.885146957539522"><ele>9.0</ele><time>2026-04-04T16:51:53Z</time></trkpt><trkpt lat="38.90593062138322" lon="8.885043875426303"><ele>9.0</ele><time>2026-04-04T16:51:54Z</time></trkpt><trkpt lat="38.905770163201595" lon="8.884943170762952"><ele>9.0</ele><time>2026-04-04T16:51:55Z</time></trkpt><trkpt lat="38.905619066911605" lon="8.884845835501704"><ele>9.0</ele><time>2026-04-04T16:51:56Z</time></trkpt><trkpt lat="38.90547972433564" lon="8.884755093083022"><ele>9.0</ele><time>2026-04-04T16:51:57Z</time></trkpt><trkpt lat="38.90533585380799" lon="8.884661767276242"><ele>9.0</ele><time>2026-04-04T16:51:58Z</time></trkpt><trkpt lat="38.90518758467232" lon="8.884565674703301"><ele>9.0</ele><time>2026-04-04T16:51:59Z</time></trkpt><trkpt lat="38.905036527970914" lon="8.884462398970454"><ele>9.0</ele><time>2026-04-04T16:52:00Z</time></trkpt><trkpt lat="38.90488910657827" lon="8.884349843477485"><ele>9.0</ele><time>2026-04-04T16:52:01Z</time></trkpt><trkpt lat="38.904746208195384" lon="8.884235957278847"><ele>8.666666666666666</ele><time>2026-04-04T16:52:02Z</time></trkpt><trkpt lat="38.90461246931966" lon="8.884124396973572"><ele>8.333333333333332</ele><time>2026-04-04T16:52:03Z</time></trkpt><trkpt lat="38.90448353433979" lon="8.884016675017525"><ele>8.0</ele><time>2026-04-04T16:52:04Z</time></trkpt><trkpt lat="38.904360278557576" lon="8.883914477199166"><ele>7.75</ele><time>2026-04-04T16:52:05Z</time></trkpt><trkpt lat="38.904233187630936" lon="8.883805570031559"><ele>7.5</ele><time>2026-04-04T16:52:06Z</time></trkpt><trkpt lat="38.90410718419917" lon="8.88370036204152"><ele>7.25</ele><time>2026-04-04T16:52:07Z</time></trkpt><trkpt lat="38.903987550915254" lon="8.883600964796152"><ele>7.0</ele><time>2026-04-04T16:52:08Z</time></trkpt><trkpt lat="38.90386006698208" lon="8.883494195858324"><ele>7.0</ele><time>2026-04-04T16:52:09Z</time></trkpt><trkpt lat="38.90373188243512" lon="8.883384477315145"><ele>7.0</ele><time>2026-04-04T16:52:10Z</time></trkpt><trkpt lat="38.90361344411398" lon="8.883280726367149"><ele>7.0</ele><time>2026-04-04T16:52:11Z</time></trkpt><trkpt lat="38.903501961035175" lon="8.883183761025576"><ele>7.0</ele><time>2026-04-04T16:52:12Z</time></trkpt><trkpt lat="38.903404451790934" lon="8.883095243015047"><ele>7.000000000000001</ele><time>2026-04-04T16:52:13Z</time></trkpt><trkpt lat="38.9033207884748" lon="8.88301556235192"><ele>7.0</ele><time>2026-04-04T16:52:14Z</time></trkpt><trkpt lat="38.90324811610176" lon="8.882940135604542"><ele>7.0</ele><time>2026-04-04T16:52:15.001Z</time></trkpt><trkpt lat="38.903191776754475" lon="8.882859779684859"><ele>7.0</ele><time>2026-04-04T16:52:16.001Z</time></trkpt><trkpt lat="38.90315843415639" lon="8.882768875090473"><ele>7.000000000000001</ele><time>2026-04-04T16:52:17.001Z</time></trkpt><trkpt lat="38.90314564936907" lon="8.882667768825867"><ele>7.0</ele><time>2026-04-04T16:52:18.001Z</time></trkpt><trkpt lat="38.90317241375278" lon="8.88243755301255"><ele>6.5</ele><time>2026-04-04T16:52:20.001Z</time></trkpt><trkpt lat="38.90311434572458" lon="8.882328290078377"><ele>6.0</ele><time>2026-04-04T16:52:21.001Z</time></trkpt><trkpt lat="38.902987775060396" lon="8.88228939140836"><ele>5.5</ele><time>2026-04-04T16:52:22.001Z</time></trkpt><trkpt lat="38.90288913805638" lon="8.882237459112766"><ele>5.0</ele><time>2026-04-04T16:52:23.001Z</time></trkpt><trkpt lat="38.90280839050938" lon="8.882136960827188"><ele>5.0</ele><time>2026-04-04T16:52:24.001Z</time></trkpt><trkpt lat="38.90274673529448" lon="8.88199032309832"><ele>5.0</ele><time>2026-04-04T16:52:25.001Z</time></trkpt><trkpt lat="38.90267496516608" lon="8.881819200981266"><ele>5.0</ele><time>2026-04-04T16:52:26.001Z</time></trkpt><trkpt lat="38.90258476549887" lon="8.881632508116617"><ele>4.333333333333334</ele><time>2026-04-04T16:52:27.001Z</time></trkpt><trkpt lat="38.902499899025116" lon="8.881449043271928"><ele>3.666666666666667</ele><time>2026-04-04T16:52:28.001Z</time></trkpt><trkpt lat="38.902408557269126" lon="8.88125561172079"><ele>3.0</ele><time>2026-04-04T16:52:29.001Z</time></trkpt><trkpt lat="38.9023090199634" lon="8.881050151598098"><ele>2.6666666666666665</ele><time>2026-04-04T16:52:30Z</time></trkpt><trkpt lat="38.90220475769664" lon="8.880827622142602"><ele>2.333333333333333</ele><time>2026-04-04T16:52:31Z</time></trkpt><trkpt lat="38.902093740878826" lon="8.880593839427531"><ele>2.0</ele><time>2026-04-04T16:52:32Z</time></trkpt><trkpt lat="38.90198045498488" lon="8.880362466100117"><ele>2.0</ele><time>2026-04-04T16:52:33Z</time></trkpt><trkpt lat="38.90186873556439" lon="8.880133081880183"><ele>2.0</ele><time>2026-04-04T16:52:34Z</time></trkpt><trkpt lat="38.901769733285185" lon="8.879884171668962"><ele>2.0</ele><time>2026-04-04T16:52:35Z</time></trkpt><trkpt lat="38.90163956012192" lon="8.879643684352908"><ele>2.5</ele><time>2026-04-04T16:52:36Z</time></trkpt><trkpt lat="38.90151637323999" lon="8.879377167987007"><ele>3.0</ele><time>2026-04-04T16:52:37Z</time></trkpt><trkpt lat="38.901389242582496" lon="8.879101468909509"><ele>3.0</ele><time>2026-04-04T16:52:38Z</time></trkpt><trkpt lat="38.90125857881261" lon="8.878824563541414"><ele>3.0</ele><time>2026-04-04T16:52:39Z</time></trkpt><trkpt lat="38.90113649100417" lon="8.87855872232463"><ele>3.0</ele><time>2026-04-04T16:52:40Z</time></trkpt><trkpt lat="38.90100918564064" lon="8.878286809813792"><ele>3.0</ele><time>2026-04-04T16:52:41Z</time></trkpt><trkpt lat="38.90087489106499" lon="8.878005040913248"><ele>3.0</ele><time>2026-04-04T16:52:42Z</time></trkpt><trkpt lat="38.9007389534339" lon="8.877715791469747"><ele>3.0</ele><time>2026-04-04T16:52:43Z</time></trkpt><trkpt lat="38.90060235679834" lon="8.877425879539658"><ele>3.0</ele><time>2026-04-04T16:52:44Z</time></trkpt><trkpt lat="38.900463644113636" lon="8.87713239849611"><ele>3.0</ele><time>2026-04-04T16:52:45Z</time></trkpt><trkpt lat="38.90032442523382" lon="8.87683922498684"><ele>3.0</ele><time>2026-04-04T16:52:46Z</time></trkpt><trkpt lat="38.90018422726851" lon="8.876548850722285"><ele>3.0</ele><time>2026-04-04T16:52:47Z</time></trkpt><trkpt lat="38.900049475043964" lon="8.876266979768703"><ele>3.0</ele><time>2026-04-04T16:52:48Z</time></trkpt><trkpt lat="38.89991612889383" lon="8.875982277661796"><ele>3.0</ele><time>2026-04-04T16:52:49Z</time></trkpt><trkpt lat="38.899781194928245" lon="8.87569370063822"><ele>2.0</ele><time>2026-04-04T16:52:50Z</time></trkpt><trkpt lat="38.89964735279848" lon="8.875411255633399"><ele>1.0</ele><time>2026-04-04T16:52:51Z</time></trkpt><trkpt lat="38.89951283922123" lon="8.875132507615335"><ele>1.5</ele><time>2026-04-04T16:52:52Z</time></trkpt><trkpt lat="38.899379309387996" lon="8.874851808217507"><ele>2.0</ele><time>2026-04-04T16:52:53Z</time></trkpt><trkpt lat="38.89924889066141" lon="8.874577020435696"><ele>2.0</ele><time>2026-04-04T16:52:54Z</time></trkpt><trkpt lat="38.899118288319144" lon="8.874296332853593"><ele>2.0</ele><time>2026-04-04T16:52:55Z</time></trkpt><trkpt lat="38.898990953878574" lon="8.87402667473538"><ele>2.0</ele><time>2026-04-04T16:52:56Z</time></trkpt><trkpt lat="38.8988744022626" lon="8.873777531384023"><ele>2.0</ele><time>2026-04-04T16:52:57Z</time></trkpt><trkpt lat="38.898762675056304" lon="8.873535579814767"><ele>2.0</ele><time>2026-04-04T16:52:58Z</time></trkpt><trkpt lat="38.89865029889233" lon="8.873295412569572"><ele>1.6666666666666665</ele><time>2026-04-04T16:52:59Z</time></trkpt><trkpt lat="38.89853921688872" lon="8.873062528841695"><ele>1.3333333333333333</ele><time>2026-04-04T16:53:00Z</time></trkpt><trkpt lat="38.8984294475412" lon="8.872850083841232"><ele>1.0</ele><time>2026-04-04T16:53:01Z</time></trkpt><trkpt lat="38.89830864122747" lon="8.872652178218525"><ele>1.0</ele><time>2026-04-04T16:53:02Z</time></trkpt><trkpt lat="38.8981705611283" lon="8.872462374921751"><ele>1.0</ele><time>2026-04-04T16:53:03Z</time></trkpt><trkpt lat="38.89802269433509" lon="8.872276224950145"><ele>1.0</ele><time>2026-04-04T16:53:04Z</time></trkpt><trkpt lat="38.89787618343583" lon="8.87209082107836"><ele>1.0</ele><time>2026-04-04T16:53:05Z</time></trkpt><trkpt lat="38.89772501631828" lon="8.871897098482025"><ele>1.0</ele><time>2026-04-04T16:53:06Z</time></trkpt><trkpt lat="38.89757055165919" lon="8.871703269401895"><ele>1.0</ele><time>2026-04-04T16:53:07Z</time></trkpt><trkpt lat="38.89742292798793" lon="8.871513648544779"><ele>2.3333333333333335</ele><time>2026-04-04T16:53:08Z</time></trkpt><trkpt lat="38.89727924050866" lon="8.871327957494662"><ele>3.666666666666667</ele><time>2026-04-04T16:53:09Z</time></trkpt><trkpt lat="38.897130016594225" lon="8.871135545205433"><ele>5.0</ele><time>2026-04-04T16:53:10Z</time></trkpt><trkpt lat="38.896980683758144" lon="8.870943330885996"><ele>6.0</ele><time>2026-04-04T16:53:11Z</time></trkpt><trkpt lat="38.89683011212868" lon="8.870748302758777"><ele>7.0</ele><time>2026-04-04T16:53:12Z</time></trkpt><trkpt lat="38.896676365298745" lon="8.870551447736354"><ele>8.0</ele><time>2026-04-04T16:53:13Z</time></trkpt><trkpt lat="38.89651881820258" lon="8.870347640941196"><ele>8.0</ele><time>2026-04-04T16:53:14Z</time></trkpt><trkpt lat="38.89636264064562" lon="8.87014502038882"><ele>8.0</ele><time>2026-04-04T16:53:15Z</time></trkpt><trkpt lat="38.89620658932824" lon="8.869943508173955"><ele>8.0</ele><time>2026-04-04T16:53:16Z</time></trkpt><trkpt lat="38.896056716786205" lon="8.869751208162866"><ele>8.0</ele><time>2026-04-04T16:53:17Z</time></trkpt><trkpt lat="38.89590888803695" lon="8.869563880705744"><ele>8.0</ele><time>2026-04-04T16:53:18Z</time></trkpt><trkpt lat="38.89576750799837" lon="8.869382860282574"><ele>8.0</ele><time>2026-04-04T16:53:19Z</time></trkpt><trkpt lat="38.89562929389739" lon="8.8692015498432"><ele>9.0</ele><time>2026-04-04T16:53:20Z</time></trkpt><trkpt lat="38.89549008712797" lon="8.869024463158569"><ele>10.0</ele><time>2026-04-04T16:53:21Z</time></trkpt><trkpt lat="38.89535175792255" lon="8.868848297319786"><ele>11.0</ele><time>2026-04-04T16:53:22Z</time></trkpt><trkpt lat="38.8952171034563" lon="8.868672719163047"><ele>11.0</ele><time>2026-04-04T16:53:23Z</time></trkpt><trkpt lat="38.89509099678584" lon="8.868501655134034"><ele>11.0</ele><time>2026-04-04T16:53:24Z</time></trkpt><trkpt lat="38.89498104426956" lon="8.86832005583664"><ele>11.0</ele><time>2026-04-04T16:53:25Z</time></trkpt><trkpt lat="38.894890776169525" lon="8.868129326037968"><ele>11.0</ele><time>2026-04-04T16:53:26Z</time></trkpt><trkpt lat="38.894822588284384" lon="8.867921241095532"><ele>11.0</ele><time>2026-04-04T16:53:27Z</time></trkpt><trkpt lat="38.89477118511258" lon="8.867699421593603"><ele>11.0</ele><time>2026-04-04T16:53:28Z</time></trkpt><trkpt lat="38.8947264307431" lon="8.86745948877995"><ele>11.0</ele><time>2026-04-04T16:53:29Z</time></trkpt><trkpt lat="38.89468103530864" lon="8.86720625193893"><ele>11.0</ele><time>2026-04-04T16:53:30Z</time></trkpt><trkpt lat="38.894636347504964" lon="8.866950967843794"><ele>11.0</ele><time>2026-04-04T16:53:31Z</time></trkpt><trkpt lat="38.89459033338083" lon="8.866695267449584"><ele>10.333333333333332</ele><time>2026-04-04T16:53:32Z</time></trkpt><trkpt lat="38.89454453602899" lon="8.866442037177206"><ele>9.666666666666666</ele><time>2026-04-04T16:53:33Z</time></trkpt><trkpt lat="38.89450046823764" lon="8.866199917804659"><ele>9.0</ele><time>2026-04-04T16:53:34Z</time></trkpt><trkpt lat="38.89446191232825" lon="8.865971242145484"><ele>9.0</ele><time>2026-04-04T16:53:35Z</time></trkpt><trkpt lat="38.8944218095971" lon="8.865742586900787"><ele>9.0</ele><time>2026-04-04T16:53:36Z</time></trkpt><trkpt lat="38.89438095231643" lon="8.865513992178505"><ele>9.0</ele><time>2026-04-04T16:53:37Z</time></trkpt><trkpt lat="38.89433979129707" lon="8.865283323558149"><ele>9.333333333333334</ele><time>2026-04-04T16:53:38Z</time></trkpt><trkpt lat="38.89429849417373" lon="8.865047568554868"><ele>9.666666666666668</ele><time>2026-04-04T16:53:39Z</time></trkpt><trkpt lat="38.89425640606699" lon="8.864806711607375"><ele>10.0</ele><time>2026-04-04T16:53:40Z</time></trkpt><trkpt lat="38.89421289413101" lon="8.86456431512932"><ele>10.0</ele><time>2026-04-04T16:53:41Z</time></trkpt><trkpt lat="38.89417494673232" lon="8.864339694252585"><ele>10.0</ele><time>2026-04-04T16:53:42Z</time></trkpt><trkpt lat="38.89413278654992" lon="8.864114883046721"><ele>10.0</ele><time>2026-04-04T16:53:43Z</time></trkpt><trkpt lat="38.894091725898946" lon="8.863887094882958"><ele>10.666666666666668</ele><time>2026-04-04T16:53:44Z</time></trkpt><trkpt lat="38.89404941565927" lon="8.863647264863216"><ele>11.333333333333334</ele><time>2026-04-04T16:53:45Z</time></trkpt><trkpt lat="38.894011904820466" lon="8.86339817942957"><ele>12.0</ele><time>2026-04-04T16:53:46Z</time></trkpt><trkpt lat="38.89398492649214" lon="8.863162203306898"><ele>12.333333333333332</ele><time>2026-04-04T16:53:47Z</time></trkpt><trkpt lat="38.893962933634505" lon="8.862936716727909"><ele>12.666666666666666</ele><time>2026-04-04T16:53:48Z</time></trkpt><trkpt lat="38.89394041835543" lon="8.862712473146896"><ele>13.0</ele><time>2026-04-04T16:53:49Z</time></trkpt><trkpt lat="38.893915218743075" lon="8.862481803190587"><ele>13.333333333333332</ele><time>2026-04-04T16:53:50Z</time></trkpt><trkpt lat="38.89388743065073" lon="8.862238025310788"><ele>13.666666666666668</ele><time>2026-04-04T16:53:51Z</time></trkpt><trkpt lat="38.893860745337484" lon="8.861987762399233"><ele>14.0</ele><time>2026-04-04T16:53:52Z</time></trkpt><trkpt lat="38.89383331102494" lon="8.86173367009981"><ele>14.666666666666668</ele><time>2026-04-04T16:53:53Z</time></trkpt><trkpt lat="38.89380750684674" lon="8.861486811489621"><ele>15.333333333333332</ele><time>2026-04-04T16:53:54Z</time></trkpt><trkpt lat="38.893780844782036" lon="8.861230385687051"><ele>16.0</ele><time>2026-04-04T16:53:55Z</time></trkpt><trkpt lat="38.89375418911075" lon="8.860977794585263"><ele>17.0</ele><time>2026-04-04T16:53:56Z</time></trkpt><trkpt lat="38.89372784688513" lon="8.860724119688978"><ele>18.0</ele><time>2026-04-04T16:53:57Z</time></trkpt><trkpt lat="38.89370307719848" lon="8.860480947220596"><ele>19.0</ele><time>2026-04-04T16:53:58Z</time></trkpt><trkpt lat="38.893678380806186" lon="8.860251654817311"><ele>18.666666666666664</ele><time>2026-04-04T16:53:59Z</time></trkpt><trkpt lat="38.89365478464151" lon="8.860020272012406"><ele>18.333333333333332</ele><time>2026-04-04T16:54:00Z</time></trkpt><trkpt lat="38.893631701603105" lon="8.859792185122219"><ele>18.0</ele><time>2026-04-04T16:54:01Z</time></trkpt><trkpt lat="38.893608829795355" lon="8.859565068449314"><ele>18.0</ele><time>2026-04-04T16:54:02Z</time></trkpt><trkpt lat="38.89358448776914" lon="8.859349996275931"><ele>18.0</ele><time>2026-04-04T16:54:03Z</time></trkpt><trkpt lat="38.89356039380109" lon="8.859140933972103"><ele>18.0</ele><time>2026-04-04T16:54:04Z</time></trkpt><trkpt lat="38.89353575487024" lon="8.858920111587883"><ele>18.0</ele><time>2026-04-04T16:54:05Z</time></trkpt><trkpt lat="38.893512690570724" lon="8.858691788824219"><ele>18.0</ele><time>2026-04-04T16:54:06Z</time></trkpt><trkpt lat="38.89349226498568" lon="8.85848282973842"><ele>18.0</ele><time>2026-04-04T16:54:07Z</time></trkpt><trkpt lat="38.89347062554927" lon="8.85826759299187"><ele>18.0</ele><time>2026-04-04T16:54:08Z</time></trkpt><trkpt lat="38.8934437870799" lon="8.858032126181541"><ele>18.0</ele><time>2026-04-04T16:54:09Z</time></trkpt><trkpt lat="38.89341833615031" lon="8.857786390782952"><ele>18.0</ele><time>2026-04-04T16:54:10Z</time></trkpt><trkpt lat="38.893390014965554" lon="8.857527285588766"><ele>18.0</ele><time>2026-04-04T16:54:11Z</time></trkpt><trkpt lat="38.893359916665354" lon="8.857251045138382"><ele>18.0</ele><time>2026-04-04T16:54:12Z</time></trkpt><trkpt lat="38.89332941536889" lon="8.856961753799144"><ele>18.0</ele><time>2026-04-04T16:54:13Z</time></trkpt><trkpt lat="38.89329515930974" lon="8.856652457261466"><ele>18.0</ele><time>2026-04-04T16:54:14Z</time></trkpt><trkpt lat="38.89325901444289" lon="8.85633081196743"><ele>18.0</ele><time>2026-04-04T16:54:15Z</time></trkpt><trkpt lat="38.893225433763" lon="8.856014410906083"><ele>18.5</ele><time>2026-04-04T16:54:16Z</time></trkpt><trkpt lat="38.893191542793694" lon="8.855707353787812"><ele>19.0</ele><time>2026-04-04T16:54:17Z</time></trkpt><trkpt lat="38.893151371740345" lon="8.855391587674362"><ele>20.0</ele><time>2026-04-04T16:54:18Z</time></trkpt><trkpt lat="38.893111032592415" lon="8.855063030964047"><ele>21.0</ele><time>2026-04-04T16:54:19Z</time></trkpt><trkpt lat="38.89307766570899" lon="8.854728711174584"><ele>21.0</ele><time>2026-04-04T16:54:20Z</time></trkpt><trkpt lat="38.893048155799576" lon="8.854393947534996"><ele>21.0</ele><time>2026-04-04T16:54:21Z</time></trkpt><trkpt lat="38.893017972349334" lon="8.854058163459655"><ele>20.5</ele><time>2026-04-04T16:54:22Z</time></trkpt><trkpt lat="38.89298460242376" lon="8.853732304810238"><ele>20.0</ele><time>2026-04-04T16:54:23Z</time></trkpt><trkpt lat="38.89295045924356" lon="8.853412881423445"><ele>20.0</ele><time>2026-04-04T16:54:24Z</time></trkpt><trkpt lat="38.89291595222335" lon="8.853100958488495"><ele>20.0</ele><time>2026-04-04T16:54:25Z</time></trkpt><trkpt lat="38.8928821245844" lon="8.852793078303662"><ele>21.0</ele><time>2026-04-04T16:54:26Z</time></trkpt><trkpt lat="38.89284993851158" lon="8.852486312675946"><ele>22.0</ele><time>2026-04-04T16:54:27Z</time></trkpt><trkpt lat="38.89281982369607" lon="8.852183789197019"><ele>22.0</ele><time>2026-04-04T16:54:28Z</time></trkpt><trkpt lat="38.89278868652081" lon="8.851884452221956"><ele>22.0</ele><time>2026-04-04T16:54:29Z</time></trkpt><trkpt lat="38.892757060099605" lon="8.851584173285628"><ele>22.5</ele><time>2026-04-04T16:54:30Z</time></trkpt><trkpt lat="38.89272565122804" lon="8.851282916628435"><ele>23.0</ele><time>2026-04-04T16:54:31Z</time></trkpt><trkpt lat="38.892694532489195" lon="8.85098646448178"><ele>24.0</ele><time>2026-04-04T16:54:32Z</time></trkpt><trkpt lat="38.89266212029933" lon="8.850684558046334"><ele>25.0</ele><time>2026-04-04T16:54:33Z</time></trkpt><trkpt lat="38.89262911850031" lon="8.850381454306456"><ele>25.5</ele><time>2026-04-04T16:54:34Z</time></trkpt><trkpt lat="38.892596030875616" lon="8.850078567364072"><ele>26.0</ele><time>2026-04-04T16:54:35Z</time></trkpt><trkpt lat="38.8925628714604" lon="8.849777024223728"><ele>26.0</ele><time>2026-04-04T16:54:36Z</time></trkpt><trkpt lat="38.892530290799094" lon="8.849475426477195"><ele>26.0</ele><time>2026-04-04T16:54:37Z</time></trkpt><trkpt lat="38.89250181626686" lon="8.849183438872613"><ele>26.0</ele><time>2026-04-04T16:54:38Z</time></trkpt><trkpt lat="38.892474858315424" lon="8.848900746031847"><ele>26.0</ele><time>2026-04-04T16:54:39Z</time></trkpt><trkpt lat="38.89244760466782" lon="8.848631601880625"><ele>26.0</ele><time>2026-04-04T16:54:40Z</time></trkpt><trkpt lat="38.89241878253561" lon="8.848362338515194"><ele>26.0</ele><time>2026-04-04T16:54:41Z</time></trkpt><trkpt lat="38.8923897350468" lon="8.848083848339344"><ele>26.0</ele><time>2026-04-04T16:54:42Z</time></trkpt><trkpt lat="38.89235957948407" lon="8.84780202819894"><ele>26.0</ele><time>2026-04-04T16:54:43Z</time></trkpt><trkpt lat="38.892326365948" lon="8.847504775134617"><ele>26.0</ele><time>2026-04-04T16:54:44Z</time></trkpt><trkpt lat="38.89229448618563" lon="8.847209138046823"><ele>26.0</ele><time>2026-04-04T16:54:45Z</time></trkpt><trkpt lat="38.89226332221723" lon="8.846913913805558"><ele>26.5</ele><time>2026-04-04T16:54:46Z</time></trkpt><trkpt lat="38.892231393527474" lon="8.84661388354357"><ele>27.0</ele><time>2026-04-04T16:54:47Z</time></trkpt><trkpt lat="38.8921992896021" lon="8.846320611175194"><ele>27.0</ele><time>2026-04-04T16:54:48Z</time></trkpt><trkpt lat="38.892168554782415" lon="8.846026613616939"><ele>27.0</ele><time>2026-04-04T16:54:49Z</time></trkpt><trkpt lat="38.892137044374564" lon="8.845738630356651"><ele>27.333333333333336</ele><time>2026-04-04T16:54:50Z</time></trkpt><trkpt lat="38.892104615804236" lon="8.845453799419621"><ele>27.666666666666668</ele><time>2026-04-04T16:54:51Z</time></trkpt><trkpt lat="38.89207391799818" lon="8.845172893953016"><ele>28.0</ele><time>2026-04-04T16:54:52Z</time></trkpt><trkpt lat="38.89204542369131" lon="8.844893859340466"><ele>28.666666666666668</ele><time>2026-04-04T16:54:53Z</time></trkpt><trkpt lat="38.892019202247084" lon="8.844618646313073"><ele>29.333333333333336</ele><time>2026-04-04T16:54:54Z</time></trkpt><trkpt lat="38.89199117235977" lon="8.844348160103012"><ele>30.0</ele><time>2026-04-04T16:54:55Z</time></trkpt><trkpt lat="38.89196093340737" lon="8.84407117055389"><ele>31.333333333333336</ele><time>2026-04-04T16:54:56Z</time></trkpt><trkpt lat="38.891931133344805" lon="8.84380390753527"><ele>32.66666666666667</ele><time>2026-04-04T16:54:57Z</time></trkpt><trkpt lat="38.891901583196706" lon="8.843529068377293"><ele>34.0</ele><time>2026-04-04T16:54:58Z</time></trkpt><trkpt lat="38.89187300394106" lon="8.843267502826212"><ele>34.333333333333336</ele><time>2026-04-04T16:54:59Z</time></trkpt><trkpt lat="38.89185423587689" lon="8.84303625850115"><ele>34.666666666666664</ele><time>2026-04-04T16:55:00Z</time></trkpt><trkpt lat="38.891876659994345" lon="8.842832010745374"><ele>35.0</ele><time>2026-04-04T16:55:01Z</time></trkpt><trkpt lat="38.89190855554293" lon="8.842606299619211"><ele>36.33333333333333</ele><time>2026-04-04T16:55:02Z</time></trkpt><trkpt lat="38.89194800278655" lon="8.842357741483582"><ele>37.666666666666664</ele><time>2026-04-04T16:55:03Z</time></trkpt><trkpt lat="38.891977492591096" lon="8.842105500946753"><ele>39.0</ele><time>2026-04-04T16:55:04Z</time></trkpt><trkpt lat="38.892021517066006" lon="8.841853409049618"><ele>40.0</ele><time>2026-04-04T16:55:05Z</time></trkpt><trkpt lat="38.89206335064697" lon="8.841595758661095"><ele>41.0</ele><time>2026-04-04T16:55:06Z</time></trkpt><trkpt lat="38.89210006271564" lon="8.841364442775898"><ele>42.0</ele><time>2026-04-04T16:55:07Z</time></trkpt><trkpt lat="38.8921305000628" lon="8.841160084875064"><ele>42.0</ele><time>2026-04-04T16:55:08Z</time></trkpt><trkpt lat="38.89220235738857" lon="8.8409843077374"><ele>42.0</ele><time>2026-04-04T16:55:09Z</time></trkpt><trkpt lat="38.892279573512575" lon="8.840823991777084"><ele>42.0</ele><time>2026-04-04T16:55:10Z</time></trkpt><trkpt lat="38.89237938548991" lon="8.84068612820949"><ele>42.0</ele><time>2026-04-04T16:55:11Z</time></trkpt><trkpt lat="38.892512172755445" lon="8.840550343352723"><ele>45.66666666666667</ele><time>2026-04-04T16:55:12Z</time></trkpt><trkpt lat="38.89265876112149" lon="8.840402667992787"><ele>49.333333333333336</ele><time>2026-04-04T16:55:13Z</time></trkpt><trkpt lat="38.892817587984865" lon="8.84026724179699"><ele>53.0</ele><time>2026-04-04T16:55:14Z</time></trkpt><trkpt lat="38.892977533902624" lon="8.840120418534012"><ele>53.5</ele><time>2026-04-04T16:55:15Z</time></trkpt><trkpt lat="38.89311221071661" lon="8.83998955532747"><ele>54.0</ele><time>2026-04-04T16:55:16Z</time></trkpt><trkpt lat="38.89320732120595" lon="8.839879559530582"><ele>54.5</ele><time>2026-04-04T16:55:17Z</time></trkpt><trkpt lat="38.89327181643199" lon="8.839765658217132"><ele>55.0</ele><time>2026-04-04T16:55:18Z</time></trkpt><trkpt lat="38.893301886620634" lon="8.839619750198606"><ele>55.0</ele><time>2026-04-04T16:55:19Z</time></trkpt><trkpt lat="38.8933017854243" lon="8.839434649939413"><ele>55.0</ele><time>2026-04-04T16:55:20Z</time></trkpt><trkpt lat="38.89327141552756" lon="8.839226230834342"><ele>55.0</ele><time>2026-04-04T16:55:21Z</time></trkpt><trkpt lat="38.89323197232494" lon="8.839006924454862"><ele>55.666666666666664</ele><time>2026-04-04T16:55:22Z</time></trkpt><trkpt lat="38.89320228913376" lon="8.838772718869437"><ele>56.33333333333333</ele><time>2026-04-04T16:55:23Z</time></trkpt><trkpt lat="38.89317418967939" lon="8.838520722570067"><ele>57.0</ele><time>2026-04-04T16:55:24Z</time></trkpt><trkpt lat="38.89314479391374" lon="8.838275026790631"><ele>60.66666666666667</ele><time>2026-04-04T16:55:25Z</time></trkpt><trkpt lat="38.893102331544995" lon="8.838062445016329"><ele>64.33333333333334</ele><time>2026-04-04T16:55:26Z</time></trkpt><trkpt lat="38.89302681919873" lon="8.83786253687179"><ele>68.0</ele><time>2026-04-04T16:55:27Z</time></trkpt><trkpt lat="38.89292252556749" lon="8.837658867271088"><ele>72.33333333333334</ele><time>2026-04-04T16:55:28Z</time></trkpt><trkpt lat="38.89281081765262" lon="8.837456327708484"><ele>76.66666666666667</ele><time>2026-04-04T16:55:29Z</time></trkpt><trkpt lat="38.89270714143753" lon="8.837263667581505"><ele>81.0</ele><time>2026-04-04T16:55:30Z</time></trkpt><trkpt lat="38.892605282887025" lon="8.837071308017304"><ele>80.0</ele><time>2026-04-04T16:55:31Z</time></trkpt><trkpt lat="38.89252305554559" lon="8.836860600183845"><ele>79.0</ele><time>2026-04-04T16:55:32Z</time></trkpt><trkpt lat="38.89243544430356" lon="8.836636077284126"><ele>78.0</ele><time>2026-04-04T16:55:33Z</time></trkpt><trkpt lat="38.89234320605861" lon="8.836398745134627"><ele>76.66666666666667</ele><time>2026-04-04T16:55:34Z</time></trkpt><trkpt lat="38.89223785490572" lon="8.836164609845092"><ele>75.33333333333334</ele><time>2026-04-04T16:55:35Z</time></trkpt><trkpt lat="38.89215386651145" lon="8.835939803332614"><ele>74.0</ele><time>2026-04-04T16:55:36Z</time></trkpt><trkpt lat="38.8921002444157" lon="8.835726140369525"><ele>76.66666666666667</ele><time>2026-04-04T16:55:37Z</time></trkpt><trkpt lat="38.89205466384359" lon="8.83550599032101"><ele>79.33333333333333</ele><time>2026-04-04T16:55:38Z</time></trkpt><trkpt lat="38.89201626344559" lon="8.835265129050788"><ele>82.0</ele><time>2026-04-04T16:55:39Z</time></trkpt><trkpt lat="38.89197644862041" lon="8.83500977459327"><ele>83.0</ele><time>2026-04-04T16:55:40Z</time></trkpt><trkpt lat="38.89192148399279" lon="8.834751911467718"><ele>84.0</ele><time>2026-04-04T16:55:41Z</time></trkpt><trkpt lat="38.89187922240816" lon="8.834487980672387"><ele>85.0</ele><time>2026-04-04T16:55:42Z</time></trkpt><trkpt lat="38.89183334106959" lon="8.83420490417936"><ele>82.33333333333333</ele><time>2026-04-04T16:55:43Z</time></trkpt><trkpt lat="38.89180630323701" lon="8.83392541315613"><ele>79.66666666666667</ele><time>2026-04-04T16:55:44Z</time></trkpt><trkpt lat="38.89176922165247" lon="8.83368865899714"><ele>77.0</ele><time>2026-04-04T16:55:45Z</time></trkpt><trkpt lat="38.89173762862847" lon="8.833486947557589"><ele>72.75</ele><time>2026-04-04T16:55:46Z</time></trkpt><trkpt lat="38.8917018406698" lon="8.833312618399846"><ele>68.5</ele><time>2026-04-04T16:55:47Z</time></trkpt><trkpt lat="38.891732704885065" lon="8.833150644848715"><ele>64.25</ele><time>2026-04-04T16:55:48Z</time></trkpt><trkpt lat="38.89178667835313" lon="8.833003587182882"><ele>60.0</ele><time>2026-04-04T16:55:49Z</time></trkpt><trkpt lat="38.89186890285636" lon="8.832873490512613"><ele>60.0</ele><time>2026-04-04T16:55:50Z</time></trkpt><trkpt lat="38.89199112479035" lon="8.832779975645353"><ele>60.0</ele><time>2026-04-04T16:55:51Z</time></trkpt><trkpt lat="38.89213808580412" lon="8.832690012042482"><ele>60.0</ele><time>2026-04-04T16:55:52Z</time></trkpt><trkpt lat="38.892262501618326" lon="8.832596075033182"><ele>60.0</ele><time>2026-04-04T16:55:53Z</time></trkpt><trkpt lat="38.892364812513286" lon="8.832509129639933"><ele>55.0</ele><time>2026-04-04T16:55:54Z</time></trkpt><trkpt lat="38.89243622962941" lon="8.83237498157503"><ele>50.0</ele><time>2026-04-04T16:55:55Z</time></trkpt><trkpt lat="38.89246739230972" lon="8.832203602897817"><ele>45.0</ele><time>2026-04-04T16:55:56Z</time></trkpt><trkpt lat="38.89247161935914" lon="8.83198733815065"><ele>40.0</ele><time>2026-04-04T16:55:57Z</time></trkpt><trkpt lat="38.89249278407871" lon="8.831743291083425"><ele>38.0</ele><time>2026-04-04T16:55:58Z</time></trkpt><trkpt lat="38.89251511725884" lon="8.83147030834595"><ele>36.0</ele><time>2026-04-04T16:55:59Z</time></trkpt><trkpt lat="38.89253743459386" lon="8.831187376731586"><ele>34.0</ele><time>2026-04-04T16:56:00Z</time></trkpt><trkpt lat="38.89255876655145" lon="8.830917492036527"><ele>32.333333333333336</ele><time>2026-04-04T16:56:01Z</time></trkpt><trkpt lat="38.89258029756052" lon="8.830642277522683"><ele>30.666666666666664</ele><time>2026-04-04T16:56:02Z</time></trkpt><trkpt lat="38.892601929897474" lon="8.83036419482916"><ele>29.0</ele><time>2026-04-04T16:56:03Z</time></trkpt><trkpt lat="38.892609904991765" lon="8.830068299937093"><ele>38.0</ele><time>2026-04-04T16:56:04Z</time></trkpt><trkpt lat="38.89264976933956" lon="8.829780499740089"><ele>47.0</ele><time>2026-04-04T16:56:05Z</time></trkpt><trkpt lat="38.89267311534963" lon="8.829488096108728"><ele>43.5</ele><time>2026-04-04T16:56:06Z</time></trkpt><trkpt lat="38.89269641509742" lon="8.829195523890531"><ele>40.0</ele><time>2026-04-04T16:56:07Z</time></trkpt><trkpt lat="38.89271938923149" lon="8.82890704031674"><ele>40.0</ele><time>2026-04-04T16:56:08Z</time></trkpt><trkpt lat="38.892740984020854" lon="8.828635877013594"><ele>40.0</ele><time>2026-04-04T16:56:09Z</time></trkpt><trkpt lat="38.89276042263485" lon="8.828383924943655"><ele>40.0</ele><time>2026-04-04T16:56:10Z</time></trkpt><trkpt lat="38.89278297174707" lon="8.828155423414712"><ele>37.333333333333336</ele><time>2026-04-04T16:56:11Z</time></trkpt><trkpt lat="38.89281800876381" lon="8.827935827606154"><ele>34.666666666666664</ele><time>2026-04-04T16:56:12Z</time></trkpt><trkpt lat="38.8928862282883" lon="8.82771786446587"><ele>32.0</ele><time>2026-04-04T16:56:13Z</time></trkpt><trkpt lat="38.89296131915328" lon="8.82747918769524"><ele>29.333333333333332</ele><time>2026-04-04T16:56:14Z</time></trkpt><trkpt lat="38.89302650609354" lon="8.827221099461337"><ele>26.666666666666664</ele><time>2026-04-04T16:56:15Z</time></trkpt><trkpt lat="38.893111650512374" lon="8.826959600690856"><ele>24.0</ele><time>2026-04-04T16:56:16Z</time></trkpt><trkpt lat="38.89319591999873" lon="8.826692949730534"><ele>23.0</ele><time>2026-04-04T16:56:17Z</time></trkpt><trkpt lat="38.893291328874916" lon="8.82644200480048"><ele>22.0</ele><time>2026-04-04T16:56:18Z</time></trkpt><trkpt lat="38.89335572399681" lon="8.826185145678888"><ele>21.0</ele><time>2026-04-04T16:56:19Z</time></trkpt><trkpt lat="38.89343510252313" lon="8.825937019468547"><ele>25.333333333333336</ele><time>2026-04-04T16:56:20Z</time></trkpt><trkpt lat="38.89351501537622" lon="8.825691791553929"><ele>29.666666666666668</ele><time>2026-04-04T16:56:21Z</time></trkpt><trkpt lat="38.89359302606355" lon="8.825450252673923"><ele>34.0</ele><time>2026-04-04T16:56:22Z</time></trkpt><trkpt lat="38.893664656305816" lon="8.825224721186936"><ele>33.333333333333336</ele><time>2026-04-04T16:56:23Z</time></trkpt><trkpt lat="38.893727309184705" lon="8.824998263830583"><ele>32.666666666666664</ele><time>2026-04-04T16:56:24Z</time></trkpt><trkpt lat="38.89375535306" lon="8.824775516970885"><ele>32.0</ele><time>2026-04-04T16:56:25Z</time></trkpt><trkpt lat="38.89375820187127" lon="8.824524120437765"><ele>31.0</ele><time>2026-04-04T16:56:26Z</time></trkpt><trkpt lat="38.89373726910125" lon="8.824262068904623"><ele>30.0</ele><time>2026-04-04T16:56:27Z</time></trkpt><trkpt lat="38.89371998684215" lon="8.82401425284801"><ele>29.0</ele><time>2026-04-04T16:56:28Z</time></trkpt><trkpt lat="38.89371370782506" lon="8.823796943962327"><ele>29.0</ele><time>2026-04-04T16:56:29Z</time></trkpt><trkpt lat="38.893745719823436" lon="8.823601213586418"><ele>29.0</ele><time>2026-04-04T16:56:30Z</time></trkpt><trkpt lat="38.89378396147152" lon="8.823384481306382"><ele>29.0</ele><time>2026-04-04T16:56:31Z</time></trkpt><trkpt lat="38.89385310739414" lon="8.823178825136745"><ele>28.666666666666664</ele><time>2026-04-04T16:56:32Z</time></trkpt><trkpt lat="38.8939472235036" lon="8.822965850806629"><ele>28.333333333333336</ele><time>2026-04-04T16:56:33Z</time></trkpt><trkpt lat="38.89404799330106" lon="8.822731831334405"><ele>28.0</ele><time>2026-04-04T16:56:34Z</time></trkpt><trkpt lat="38.8941529777919" lon="8.822486461732174"><ele>38.0</ele><time>2026-04-04T16:56:35Z</time></trkpt><trkpt lat="38.89426211056258" lon="8.822234088470468"><ele>48.0</ele><time>2026-04-04T16:56:36Z</time></trkpt><trkpt lat="38.8943741734423" lon="8.821977014124919"><ele>44.333333333333336</ele><time>2026-04-04T16:56:37Z</time></trkpt><trkpt lat="38.89447661820933" lon="8.821740016755507"><ele>40.66666666666667</ele><time>2026-04-04T16:56:38Z</time></trkpt><trkpt lat="38.894571398740936" lon="8.821513829510803"><ele>37.0</ele><time>2026-04-04T16:56:39Z</time></trkpt><trkpt lat="38.89465072148882" lon="8.821268885719297"><ele>37.0</ele><time>2026-04-04T16:56:40Z</time></trkpt><trkpt lat="38.89472604743" lon="8.821044227644323"><ele>37.0</ele><time>2026-04-04T16:56:41Z</time></trkpt><trkpt lat="38.89478120806184" lon="8.820798543692797"><ele>37.0</ele><time>2026-04-04T16:56:42Z</time></trkpt><trkpt lat="38.894819713505264" lon="8.820551625278181"><ele>35.66666666666667</ele><time>2026-04-04T16:56:43Z</time></trkpt><trkpt lat="38.894850323987406" lon="8.820311300020307"><ele>34.333333333333336</ele><time>2026-04-04T16:56:44Z</time></trkpt><trkpt lat="38.89487833138598" lon="8.820079349006807"><ele>33.0</ele><time>2026-04-04T16:56:45Z</time></trkpt><trkpt lat="38.89490633924114" lon="8.819860928046895"><ele>32.25</ele><time>2026-04-04T16:56:46Z</time></trkpt><trkpt lat="38.89493382791997" lon="8.819663509857461"><ele>31.5</ele><time>2026-04-04T16:56:47Z</time></trkpt><trkpt lat="38.89495686079601" lon="8.819481133501531"><ele>30.75</ele><time>2026-04-04T16:56:48Z</time></trkpt><trkpt lat="38.89499423993275" lon="8.819308135838677"><ele>30.0</ele><time>2026-04-04T16:56:49Z</time></trkpt><trkpt lat="38.895020621323035" lon="8.819135967545522"><ele>28.0</ele><time>2026-04-04T16:56:50Z</time></trkpt><trkpt lat="38.895054541641244" lon="8.81896200903452"><ele>26.0</ele><time>2026-04-04T16:56:51Z</time></trkpt><trkpt lat="38.895100832687596" lon="8.818783488880772"><ele>24.0</ele><time>2026-04-04T16:56:52Z</time></trkpt><trkpt lat="38.89514779342902" lon="8.818604208065075"><ele>22.0</ele><time>2026-04-04T16:56:53Z</time></trkpt><trkpt lat="38.89519670064649" lon="8.81841616908118"><ele>29.0</ele><time>2026-04-04T16:56:54Z</time></trkpt><trkpt lat="38.89524503323828" lon="8.818228504591687"><ele>36.0</ele><time>2026-04-04T16:56:55Z</time></trkpt><trkpt lat="38.8952926607106" lon="8.818043577918337"><ele>43.0</ele><time>2026-04-04T16:56:56Z</time></trkpt><trkpt lat="38.895338460087345" lon="8.81786541678605"><ele>43.0</ele><time>2026-04-04T16:56:57Z</time></trkpt><trkpt lat="38.895382902950594" lon="8.817692190406964"><ele>43.0</ele><time>2026-04-04T16:56:58Z</time></trkpt><trkpt lat="38.8954277598007" lon="8.817517350408929"><ele>43.0</ele><time>2026-04-04T16:56:59Z</time></trkpt><trkpt lat="38.89547183306442" lon="8.817345564625484"><ele>43.0</ele><time>2026-04-04T16:57:00Z</time></trkpt><trkpt lat="38.89551616754146" lon="8.817172760696224"><ele>39.75</ele><time>2026-04-04T16:57:01Z</time></trkpt><trkpt lat="38.89556116776822" lon="8.816997589014706"><ele>36.5</ele><time>2026-04-04T16:57:02Z</time></trkpt><trkpt lat="38.89560707385592" lon="8.816836174771925"><ele>33.25</ele><time>2026-04-04T16:57:03Z</time></trkpt><trkpt lat="38.895665441364066" lon="8.816685650499007"><ele>30.0</ele><time>2026-04-04T16:57:04Z</time></trkpt><trkpt lat="38.89573663561841" lon="8.816548476584913"><ele>26.666666666666668</ele><time>2026-04-04T16:57:05Z</time></trkpt><trkpt lat="38.895822889871404" lon="8.816406196495558"><ele>23.333333333333336</ele><time>2026-04-04T16:57:06Z</time></trkpt><trkpt lat="38.895933946241634" lon="8.816271806366135"><ele>20.0</ele><time>2026-04-04T16:57:07Z</time></trkpt><trkpt lat="38.89605927653305" lon="8.816140233609923"><ele>18.666666666666668</ele><time>2026-04-04T16:57:08Z</time></trkpt><trkpt lat="38.89618346728302" lon="8.816009760798448"><ele>17.333333333333332</ele><time>2026-04-04T16:57:09Z</time></trkpt><trkpt lat="38.89629138588462" lon="8.815875650242122"><ele>16.0</ele><time>2026-04-04T16:57:10Z</time></trkpt><trkpt lat="38.89640475981177" lon="8.815758911115608"><ele>13.666666666666666</ele><time>2026-04-04T16:57:11Z</time></trkpt><trkpt lat="38.89652721466112" lon="8.815642462363414"><ele>11.333333333333332</ele><time>2026-04-04T16:57:12Z</time></trkpt><trkpt lat="38.896664504591584" lon="8.81553865563717"><ele>9.0</ele><time>2026-04-04T16:57:13Z</time></trkpt><trkpt lat="38.896811257515886" lon="8.815491066539527"><ele>9.0</ele><time>2026-04-04T16:57:14Z</time></trkpt><trkpt lat="38.89695720918159" lon="8.815451164226817"><ele>9.0</ele><time>2026-04-04T16:57:15Z</time></trkpt><trkpt lat="38.89711470061447" lon="8.815416910241526"><ele>9.0</ele><time>2026-04-04T16:57:16Z</time></trkpt><trkpt lat="38.89727729114683" lon="8.815363644065378"><ele>9.0</ele><time>2026-04-04T16:57:17Z</time></trkpt><trkpt lat="38.897446356221295" lon="8.815329540424177"><ele>9.0</ele><time>2026-04-04T16:57:18Z</time></trkpt><trkpt lat="38.897630634116" lon="8.815313493978426"><ele>9.0</ele><time>2026-04-04T16:57:19Z</time></trkpt><trkpt lat="38.89781435745683" lon="8.81527799811572"><ele>11.0</ele><time>2026-04-04T16:57:20Z</time></trkpt><trkpt lat="38.89799051103972" lon="8.815243964744832"><ele>13.0</ele><time>2026-04-04T16:57:21Z</time></trkpt><trkpt lat="38.89816575753718" lon="8.815210106628887"><ele>15.0</ele><time>2026-04-04T16:57:22Z</time></trkpt><trkpt lat="38.89835006113906" lon="8.815174498657093"><ele>14.0</ele><time>2026-04-04T16:57:23Z</time></trkpt><trkpt lat="38.898532524022166" lon="8.815136532267337"><ele>13.0</ele><time>2026-04-04T16:57:24Z</time></trkpt><trkpt lat="38.898713677233005" lon="8.815078681354942"><ele>12.0</ele><time>2026-04-04T16:57:25Z</time></trkpt><trkpt lat="38.89890434749955" lon="8.81506323801472"><ele>12.0</ele><time>2026-04-04T16:57:26Z</time></trkpt><trkpt lat="38.89907652397672" lon="8.815028628925639"><ele>12.0</ele><time>2026-04-04T16:57:27Z</time></trkpt><trkpt lat="38.89923295316841" lon="8.814966157023585"><ele>12.0</ele><time>2026-04-04T16:57:28Z</time></trkpt><trkpt lat="38.89938950546775" lon="8.814895047153284"><ele>12.666666666666668</ele><time>2026-04-04T16:57:29Z</time></trkpt><trkpt lat="38.89954504234345" lon="8.81477305305976"><ele>13.333333333333334</ele><time>2026-04-04T16:57:30Z</time></trkpt><trkpt lat="38.89971249673435" lon="8.814625168316715"><ele>14.0</ele><time>2026-04-04T16:57:31Z</time></trkpt><trkpt lat="38.89988684696113" lon="8.814480476293777"><ele>14.0</ele><time>2026-04-04T16:57:32Z</time></trkpt><trkpt lat="38.90007850158487" lon="8.814345660446495"><ele>14.0</ele><time>2026-04-04T16:57:33Z</time></trkpt><trkpt lat="38.90028366158272" lon="8.814233874223737"><ele>14.0</ele><time>2026-04-04T16:57:34Z</time></trkpt><trkpt lat="38.90050533454435" lon="8.814126765438356"><ele>15.0</ele><time>2026-04-04T16:57:35Z</time></trkpt><trkpt lat="38.9007243786027" lon="8.814040201506003"><ele>16.0</ele><time>2026-04-04T16:57:36Z</time></trkpt><trkpt lat="38.90094425081556" lon="8.813969829170933"><ele>16.0</ele><time>2026-04-04T16:57:37Z</time></trkpt><trkpt lat="38.90116381745151" lon="8.813909231518766"><ele>16.0</ele><time>2026-04-04T16:57:38Z</time></trkpt><trkpt lat="38.901389516427656" lon="8.813896418108705"><ele>16.0</ele><time>2026-04-04T16:57:39Z</time></trkpt><trkpt lat="38.9016180534861" lon="8.813875144473366"><ele>16.0</ele><time>2026-04-04T16:57:40Z</time></trkpt><trkpt lat="38.90184299006156" lon="8.813831774460436"><ele>16.5</ele><time>2026-04-04T16:57:41Z</time></trkpt><trkpt lat="38.90207173645394" lon="8.813803262461114"><ele>17.0</ele><time>2026-04-04T16:57:42Z</time></trkpt><trkpt lat="38.902297736603856" lon="8.813773286800577"><ele>17.0</ele><time>2026-04-04T16:57:43Z</time></trkpt><trkpt lat="38.90251295234384" lon="8.813744383951912"><ele>17.0</ele><time>2026-04-04T16:57:44Z</time></trkpt><trkpt lat="38.902707267301594" lon="8.813718618479877"><ele>17.0</ele><time>2026-04-04T16:57:45Z</time></trkpt><trkpt lat="38.90289457589547" lon="8.813674554325761"><ele>17.0</ele><time>2026-04-04T16:57:46Z</time></trkpt><trkpt lat="38.90308155946413" lon="8.813589533713388"><ele>17.0</ele><time>2026-04-04T16:57:47Z</time></trkpt><trkpt lat="38.90327761433874" lon="8.813476126668775"><ele>17.0</ele><time>2026-04-04T16:57:48Z</time></trkpt><trkpt lat="38.903473589968264" lon="8.8133541666833"><ele>19.666666666666668</ele><time>2026-04-04T16:57:49Z</time></trkpt><trkpt lat="38.90366975326731" lon="8.813229189047572"><ele>22.333333333333336</ele><time>2026-04-04T16:57:50Z</time></trkpt><trkpt lat="38.903869963548715" lon="8.813109992785385"><ele>25.0</ele><time>2026-04-04T16:57:51Z</time></trkpt><trkpt lat="38.90407283431269" lon="8.813004638535975"><ele>27.0</ele><time>2026-04-04T16:57:52Z</time></trkpt><trkpt lat="38.90428820803113" lon="8.812951104979943"><ele>29.0</ele><time>2026-04-04T16:57:53Z</time></trkpt><trkpt lat="38.90449894044854" lon="8.812885283812268"><ele>31.0</ele><time>2026-04-04T16:57:54Z</time></trkpt><trkpt lat="38.9046877473616" lon="8.812861492056333"><ele>31.0</ele><time>2026-04-04T16:57:55Z</time></trkpt><trkpt lat="38.90486544967149" lon="8.81280556667507"><ele>31.0</ele><time>2026-04-04T16:57:56Z</time></trkpt><trkpt lat="38.90502936451757" lon="8.812703788537819"><ele>31.0</ele><time>2026-04-04T16:57:57Z</time></trkpt><trkpt lat="38.9051929686148" lon="8.812576039586515"><ele>32.66666666666667</ele><time>2026-04-04T16:57:58Z</time></trkpt><trkpt lat="38.90535116242933" lon="8.81245240476121"><ele>34.333333333333336</ele><time>2026-04-04T16:57:59Z</time></trkpt><trkpt lat="38.90549455357817" lon="8.812358192777387"><ele>36.0</ele><time>2026-04-04T16:58:00Z</time></trkpt><trkpt lat="38.905631876408705" lon="8.812329715446545"><ele>36.0</ele><time>2026-04-04T16:58:01Z</time></trkpt><trkpt lat="38.90576380681207" lon="8.812314091410565"><ele>36.0</ele><time>2026-04-04T16:58:02Z</time></trkpt><trkpt lat="38.90590904217344" lon="8.812333444408452"><ele>36.0</ele><time>2026-04-04T16:58:03Z</time></trkpt><trkpt lat="38.90607359004362" lon="8.812386860527328"><ele>36.0</ele><time>2026-04-04T16:58:04Z</time></trkpt><trkpt lat="38.906253139090055" lon="8.81244102125086"><ele>32.666666666666664</ele><time>2026-04-04T16:58:05Z</time></trkpt><trkpt lat="38.906413874722524" lon="8.812510187201795"><ele>29.333333333333332</ele><time>2026-04-04T16:58:06Z</time></trkpt><trkpt lat="38.906559615747476" lon="8.812554558893632"><ele>26.0</ele><time>2026-04-04T16:58:07Z</time></trkpt><trkpt lat="38.9066985598042" lon="8.81256075355437"><ele>26.333333333333332</ele><time>2026-04-04T16:58:08Z</time></trkpt><trkpt lat="38.906835134147876" lon="8.812516582549389"><ele>26.666666666666664</ele><time>2026-04-04T16:58:09Z</time></trkpt><trkpt lat="38.90699761310654" lon="8.812421234488083"><ele>27.0</ele><time>2026-04-04T16:58:10Z</time></trkpt><trkpt lat="38.907168500933494" lon="8.812293545273198"><ele>27.0</ele><time>2026-04-04T16:58:11Z</time></trkpt><trkpt lat="38.907334445661" lon="8.812168450184705"><ele>27.0</ele><time>2026-04-04T16:58:12Z</time></trkpt><trkpt lat="38.907511439389744" lon="8.812045243542986"><ele>27.0</ele><time>2026-04-04T16:58:13Z</time></trkpt><trkpt lat="38.90768991592448" lon="8.81191961640682"><ele>25.333333333333332</ele><time>2026-04-04T16:58:14Z</time></trkpt><trkpt lat="38.90784691271064" lon="8.811807832183698"><ele>23.666666666666664</ele><time>2026-04-04T16:58:15Z</time></trkpt><trkpt lat="38.90798066023514" lon="8.81171775905182"><ele>22.0</ele><time>2026-04-04T16:58:16Z</time></trkpt><trkpt lat="38.9080906811734" lon="8.811628640801338"><ele>22.0</ele><time>2026-04-04T16:58:17Z</time></trkpt><trkpt lat="38.90817075429215" lon="8.81151158886758"><ele>22.0</ele><time>2026-04-04T16:58:18Z</time></trkpt><trkpt lat="38.9082439675027" lon="8.811384914677134"><ele>22.0</ele><time>2026-04-04T16:58:19Z</time></trkpt><trkpt lat="38.90831917565897" lon="8.811259138314925"><ele>22.0</ele><time>2026-04-04T16:58:20Z</time></trkpt><trkpt lat="38.9082316504834" lon="8.811011289492141"><ele>18.333333333333332</ele><time>2026-04-04T16:58:21Z</time></trkpt><trkpt lat="38.908176821968" lon="8.810843996184412"><ele>14.666666666666666</ele><time>2026-04-04T16:58:22Z</time></trkpt><trkpt lat="38.908081241102145" lon="8.810680004703741"><ele>11.0</ele><time>2026-04-04T16:58:23Z</time></trkpt><trkpt lat="38.90794550193918" lon="8.810519861732162"><ele>11.0</ele><time>2026-04-04T16:58:24Z</time></trkpt><trkpt lat="38.907793367397026" lon="8.810352644309377"><ele>11.0</ele><time>2026-04-04T16:58:25Z</time></trkpt><trkpt lat="38.90764634264781" lon="8.810173256634009"><ele>11.0</ele><time>2026-04-04T16:58:26Z</time></trkpt><trkpt lat="38.90750749367835" lon="8.809991907707035"><ele>10.333333333333332</ele><time>2026-04-04T16:58:27Z</time></trkpt><trkpt lat="38.907355095755165" lon="8.80980513550489"><ele>9.666666666666666</ele><time>2026-04-04T16:58:28Z</time></trkpt><trkpt lat="38.907205486694735" lon="8.80960358505694"><ele>9.0</ele><time>2026-04-04T16:58:28.999Z</time></trkpt><trkpt lat="38.9070598138274" lon="8.809373854082285"><ele>11.0</ele><time>2026-04-04T16:58:29.999Z</time></trkpt><trkpt lat="38.906925145379866" lon="8.809122636656365"><ele>13.0</ele><time>2026-04-04T16:58:30.999Z</time></trkpt><trkpt lat="38.90678592170153" lon="8.808863215181642"><ele>11.0</ele><time>2026-04-04T16:58:32Z</time></trkpt><trkpt lat="38.906647483884825" lon="8.80862127280968"><ele>9.0</ele><time>2026-04-04T16:58:33Z</time></trkpt><trkpt lat="38.90650981999017" lon="8.808390007434022"><ele>9.0</ele><time>2026-04-04T16:58:34Z</time></trkpt><trkpt lat="38.90637807920114" lon="8.808165341504761"><ele>9.0</ele><time>2026-04-04T16:58:35Z</time></trkpt><trkpt lat="38.90624714982638" lon="8.807942614595634"><ele>9.0</ele><time>2026-04-04T16:58:36Z</time></trkpt><trkpt lat="38.906127784731" lon="8.80773341660763"><ele>9.333333333333334</ele><time>2026-04-04T16:58:37Z</time></trkpt><trkpt lat="38.90603221596395" lon="8.807532990785552"><ele>9.666666666666668</ele><time>2026-04-04T16:58:38Z</time></trkpt><trkpt lat="38.905947144850636" lon="8.807317790702003"><ele>10.0</ele><time>2026-04-04T16:58:39Z</time></trkpt><trkpt lat="38.90586709651548" lon="8.807085130875063"><ele>9.0</ele><time>2026-04-04T16:58:40Z</time></trkpt><trkpt lat="38.905792939848055" lon="8.806840679699937"><ele>8.0</ele><time>2026-04-04T16:58:41Z</time></trkpt><trkpt lat="38.90572220158709" lon="8.806592426360343"><ele>7.0</ele><time>2026-04-04T16:58:42Z</time></trkpt><trkpt lat="38.9056467210377" lon="8.806337481191354"><ele>6.333333333333334</ele><time>2026-04-04T16:58:43Z</time></trkpt><trkpt lat="38.905571021583796" lon="8.806081488907505"><ele>5.666666666666667</ele><time>2026-04-04T16:58:44Z</time></trkpt><trkpt lat="38.90550048226866" lon="8.805834633595033"><ele>5.0</ele><time>2026-04-04T16:58:45Z</time></trkpt><trkpt lat="38.905440894106114" lon="8.805605400658683"><ele>6.333333333333334</ele><time>2026-04-04T16:58:46Z</time></trkpt><trkpt lat="38.905396213566476" lon="8.805388787110074"><ele>7.666666666666667</ele><time>2026-04-04T16:58:47Z</time></trkpt><trkpt lat="38.905374927849714" lon="8.805178203663214"><ele>9.0</ele><time>2026-04-04T16:58:48Z</time></trkpt><trkpt lat="38.905379611160335" lon="8.804959450499247"><ele>9.666666666666666</ele><time>2026-04-04T16:58:49Z</time></trkpt><trkpt lat="38.90540988864614" lon="8.804739255725202"><ele>10.333333333333332</ele><time>2026-04-04T16:58:50Z</time></trkpt><trkpt lat="38.90546156399605" lon="8.804518231019062"><ele>11.0</ele><time>2026-04-04T16:58:51Z</time></trkpt><trkpt lat="38.905532194042266" lon="8.804295500726194"><ele>9.666666666666666</ele><time>2026-04-04T16:58:52Z</time></trkpt><trkpt lat="38.90560756579592" lon="8.804102436679289"><ele>8.333333333333334</ele><time>2026-04-04T16:58:53Z</time></trkpt><trkpt lat="38.9056695441666" lon="8.80392868551149"><ele>7.0</ele><time>2026-04-04T16:58:54Z</time></trkpt><trkpt lat="38.90570870079018" lon="8.803765062345837"><ele>7.0</ele><time>2026-04-04T16:58:55Z</time></trkpt><trkpt lat="38.90571790319897" lon="8.803604011053997"><ele>7.0</ele><time>2026-04-04T16:58:56Z</time></trkpt><trkpt lat="38.90569466067699" lon="8.803444364716997"><ele>7.0</ele><time>2026-04-04T16:58:57Z</time></trkpt><trkpt lat="38.90564109362044" lon="8.803286716644372"><ele>7.0</ele><time>2026-04-04T16:58:58Z</time></trkpt><trkpt lat="38.90556276707629" lon="8.803126747366303"><ele>6.0</ele><time>2026-04-04T16:58:59Z</time></trkpt><trkpt lat="38.905457421870636" lon="8.802987961620815"><ele>5.0</ele><time>2026-04-04T16:59:00Z</time></trkpt><trkpt lat="38.90532912180746" lon="8.80288564142863"><ele>4.0</ele><time>2026-04-04T16:59:01Z</time></trkpt><trkpt lat="38.90518270062091" lon="8.802819264817323"><ele>3.6666666666666665</ele><time>2026-04-04T16:59:02Z</time></trkpt><trkpt lat="38.9050266083795" lon="8.80279828262453"><ele>3.333333333333333</ele><time>2026-04-04T16:59:03Z</time></trkpt><trkpt lat="38.904862028512326" lon="8.802825261165701"><ele>3.0</ele><time>2026-04-04T16:59:04Z</time></trkpt><trkpt lat="38.90468757189994" lon="8.80287820389855"><ele>3.0</ele><time>2026-04-04T16:59:05Z</time></trkpt><trkpt lat="38.90450556154568" lon="8.802928052720734"><ele>3.0</ele><time>2026-04-04T16:59:06Z</time></trkpt><trkpt lat="38.904321051960615" lon="8.802972039027157"><ele>3.0</ele><time>2026-04-04T16:59:07Z</time></trkpt><trkpt lat="38.90414128662595" lon="8.803014792701964"><ele>3.333333333333333</ele><time>2026-04-04T16:59:08Z</time></trkpt><trkpt lat="38.90397092741766" lon="8.803054717644569"><ele>3.6666666666666665</ele><time>2026-04-04T16:59:09Z</time></trkpt><trkpt lat="38.90379444895814" lon="8.80309766418964"><ele>4.0</ele><time>2026-04-04T16:59:10Z</time></trkpt><trkpt lat="38.903616911089195" lon="8.803142367762181"><ele>4.0</ele><time>2026-04-04T16:59:11Z</time></trkpt><trkpt lat="38.90342957967461" lon="8.803188763426526"><ele>4.0</ele><time>2026-04-04T16:59:12Z</time></trkpt><trkpt lat="38.90325090506628" lon="8.803235824255054"><ele>4.0</ele><time>2026-04-04T16:59:13Z</time></trkpt><trkpt lat="38.9030867260996" lon="8.803278662481613"><ele>4.333333333333333</ele><time>2026-04-04T16:59:14Z</time></trkpt><trkpt lat="38.90292350993996" lon="8.803300887638509"><ele>4.666666666666667</ele><time>2026-04-04T16:59:15Z</time></trkpt><trkpt lat="38.90275253195366" lon="8.803266116212715"><ele>5.0</ele><time>2026-04-04T16:59:16Z</time></trkpt><trkpt lat="38.90257050357336" lon="8.803262965952893"><ele>5.0</ele><time>2026-04-04T16:59:17Z</time></trkpt><trkpt lat="38.9024077201013" lon="8.803234614589389"><ele>5.0</ele><time>2026-04-04T16:59:18Z</time></trkpt><trkpt lat="38.902269850118635" lon="8.803212262458478"><ele>5.0</ele><time>2026-04-04T16:59:19Z</time></trkpt><trkpt lat="38.90214563899436" lon="8.803180092720062"><ele>5.0</ele><time>2026-04-04T16:59:20Z</time></trkpt><trkpt lat="38.90202832360671" lon="8.803110583973202"><ele>5.0</ele><time>2026-04-04T16:59:21Z</time></trkpt><trkpt lat="38.901927820606815" lon="8.802977246778756"><ele>5.0</ele><time>2026-04-04T16:59:22Z</time></trkpt><trkpt lat="38.90182933213923" lon="8.802819219445155"><ele>5.0</ele><time>2026-04-04T16:59:23Z</time></trkpt><trkpt lat="38.90171976319604" lon="8.802649670135398"><ele>6.0</ele><time>2026-04-04T16:59:24Z</time></trkpt><trkpt lat="38.90158883822208" lon="8.802468918877805"><ele>7.0</ele><time>2026-04-04T16:59:25Z</time></trkpt><trkpt lat="38.90145845399846" lon="8.802265003796887"><ele>8.0</ele><time>2026-04-04T16:59:26Z</time></trkpt><trkpt lat="38.90132642694093" lon="8.80206733687086"><ele>8.0</ele><time>2026-04-04T16:59:27Z</time></trkpt><trkpt lat="38.90120885775477" lon="8.801889595985177"><ele>8.0</ele><time>2026-04-04T16:59:28Z</time></trkpt><trkpt lat="38.901116639175086" lon="8.801716693088615"><ele>8.0</ele><time>2026-04-04T16:59:29Z</time></trkpt><trkpt lat="38.90101999474004" lon="8.80160598177001"><ele>8.200000000000001</ele><time>2026-04-04T16:59:30Z</time></trkpt><trkpt lat="38.900954641649456" lon="8.801522434583676"><ele>8.4</ele><time>2026-04-04T16:59:31Z</time></trkpt><trkpt lat="38.900885702544684" lon="8.801465428281585"><ele>8.600000000000001</ele><time>2026-04-04T16:59:32Z</time></trkpt><trkpt lat="38.900791841344784" lon="8.801416765173816"><ele>8.8</ele><time>2026-04-04T16:59:33Z</time></trkpt><trkpt lat="38.9006724761842" lon="8.80140319882368"><ele>9.0</ele><time>2026-04-04T16:59:34Z</time></trkpt><trkpt lat="38.90053673404464" lon="8.801429428299897"><ele>6.666666666666667</ele><time>2026-04-04T16:59:35Z</time></trkpt><trkpt lat="38.90039454263557" lon="8.80149896906144"><ele>4.333333333333333</ele><time>2026-04-04T16:59:36Z</time></trkpt><trkpt lat="38.90025291186624" lon="8.80160110259462"><ele>2.0</ele><time>2026-04-04T16:59:37Z</time></trkpt><trkpt lat="38.90010376274286" lon="8.80171034437672"><ele>2.0</ele><time>2026-04-04T16:59:38Z</time></trkpt><trkpt lat="38.89996794789316" lon="8.801794911653666"><ele>2.0</ele><time>2026-04-04T16:59:39Z</time></trkpt><trkpt lat="38.89984806564025" lon="8.801848221021807"><ele>2.0</ele><time>2026-04-04T16:59:40Z</time></trkpt><trkpt lat="38.899728398676345" lon="8.80183302068569"><ele>2.0</ele><time>2026-04-04T16:59:41Z</time></trkpt><trkpt lat="38.89960750506103" lon="8.801786138252268"><ele>3.75</ele><time>2026-04-04T16:59:42Z</time></trkpt><trkpt lat="38.89949976413579" lon="8.801693764668265"><ele>5.5</ele><time>2026-04-04T16:59:43Z</time></trkpt><trkpt lat="38.899420621664774" lon="8.801586306994762"><ele>7.25</ele><time>2026-04-04T16:59:44Z</time></trkpt><trkpt lat="38.89935619486235" lon="8.801451615241882"><ele>9.0</ele><time>2026-04-04T16:59:45Z</time></trkpt><trkpt lat="38.899329914171894" lon="8.801296730860528"><ele>9.0</ele><time>2026-04-04T16:59:46Z</time></trkpt><trkpt lat="38.899328705610976" lon="8.80113972279211"><ele>9.0</ele><time>2026-04-04T16:59:47Z</time></trkpt><trkpt lat="38.89936703623627" lon="8.800985475881692"><ele>9.0</ele><time>2026-04-04T16:59:48Z</time></trkpt><trkpt lat="38.89943715704991" lon="8.80083842757398"><ele>9.0</ele><time>2026-04-04T16:59:49Z</time></trkpt><trkpt lat="38.899540999493496" lon="8.800708241977084"><ele>10.666666666666668</ele><time>2026-04-04T16:59:50Z</time></trkpt><trkpt lat="38.89965081191194" lon="8.800553871977359"><ele>12.333333333333334</ele><time>2026-04-04T16:59:51Z</time></trkpt><trkpt lat="38.89977026522726" lon="8.800422308733864"><ele>14.0</ele><time>2026-04-04T16:59:52Z</time></trkpt><trkpt lat="38.89985599257123" lon="8.800287115173417"><ele>13.333333333333334</ele><time>2026-04-04T16:59:53Z</time></trkpt><trkpt lat="38.899913101624804" lon="8.800116881340008"><ele>12.666666666666668</ele><time>2026-04-04T16:59:54Z</time></trkpt><trkpt lat="38.899948854439984" lon="8.79990059151486"><ele>12.0</ele><time>2026-04-04T16:59:55Z</time></trkpt><trkpt lat="38.899972387031774" lon="8.799655531211387"><ele>12.0</ele><time>2026-04-04T16:59:56Z</time></trkpt><trkpt lat="38.89999370605527" lon="8.799397358767703"><ele>12.0</ele><time>2026-04-04T16:59:57Z</time></trkpt><trkpt lat="38.9000199149401" lon="8.799149048714943"><ele>12.0</ele><time>2026-04-04T16:59:58Z</time></trkpt><trkpt lat="38.90004644928625" lon="8.798889505961693"><ele>13.0</ele><time>2026-04-04T16:59:59Z</time></trkpt><trkpt lat="38.90006749154448" lon="8.798614840160322"><ele>14.0</ele><time>2026-04-04T17:00:00Z</time></trkpt><trkpt lat="38.90008163732661" lon="8.798331907529244"><ele>15.0</ele><time>2026-04-04T17:00:01Z</time></trkpt><trkpt lat="38.900091006725575" lon="8.7980471235917"><ele>22.666666666666664</ele><time>2026-04-04T17:00:02Z</time></trkpt><trkpt lat="38.90010264720007" lon="8.79776911385395"><ele>30.333333333333332</ele><time>2026-04-04T17:00:03Z</time></trkpt><trkpt lat="38.90011717792463" lon="8.797494615211228"><ele>38.0</ele><time>2026-04-04T17:00:04Z</time></trkpt><trkpt lat="38.90012958627109" lon="8.797218023840102"><ele>39.0</ele><time>2026-04-04T17:00:05Z</time></trkpt><trkpt lat="38.90013903711132" lon="8.796961399566573"><ele>40.0</ele><time>2026-04-04T17:00:06Z</time></trkpt><trkpt lat="38.90014629529078" lon="8.796730933517363"><ele>41.0</ele><time>2026-04-04T17:00:07Z</time></trkpt><trkpt lat="38.900152823598106" lon="8.796510960506332"><ele>41.0</ele><time>2026-04-04T17:00:08Z</time></trkpt><trkpt lat="38.90014874387447" lon="8.796292961032835"><ele>41.0</ele><time>2026-04-04T17:00:09Z</time></trkpt><trkpt lat="38.90013210086544" lon="8.79606103132467"><ele>41.0</ele><time>2026-04-04T17:00:10Z</time></trkpt><trkpt lat="38.90010894175731" lon="8.795827046123238"><ele>38.666666666666664</ele><time>2026-04-04T17:00:11Z</time></trkpt><trkpt lat="38.90008644256672" lon="8.795596902745306"><ele>36.333333333333336</ele><time>2026-04-04T17:00:12Z</time></trkpt><trkpt lat="38.9000667502352" lon="8.79535963545367"><ele>34.0</ele><time>2026-04-04T17:00:13Z</time></trkpt><trkpt lat="38.900052252636925" lon="8.795131301110557"><ele>34.0</ele><time>2026-04-04T17:00:14Z</time></trkpt><trkpt lat="38.90004575204329" lon="8.794917556805787"><ele>34.0</ele><time>2026-04-04T17:00:15Z</time></trkpt><trkpt lat="38.90004600553781" lon="8.794701713020405"><ele>34.0</ele><time>2026-04-04T17:00:16Z</time></trkpt><trkpt lat="38.90007702349211" lon="8.79447456809731"><ele>51.0</ele><time>2026-04-04T17:00:17Z</time></trkpt><trkpt lat="38.90010062972705" lon="8.794239048089535"><ele>68.0</ele><time>2026-04-04T17:00:18Z</time></trkpt><trkpt lat="38.90010954154331" lon="8.79402515499552"><ele>85.0</ele><time>2026-04-04T17:00:19Z</time></trkpt><trkpt lat="38.900115189084964" lon="8.793838600289716"><ele>85.0</ele><time>2026-04-04T17:00:20Z</time></trkpt><trkpt lat="38.90009117080595" lon="8.7936417536716"><ele>85.0</ele><time>2026-04-04T17:00:21Z</time></trkpt><trkpt lat="38.900038195358206" lon="8.793450218301151"><ele>85.0</ele><time>2026-04-04T17:00:22Z</time></trkpt><trkpt lat="38.899973854388854" lon="8.793290238889957"><ele>76.25</ele><time>2026-04-04T17:00:23Z</time></trkpt><trkpt lat="38.899902731080104" lon="8.793152789125033"><ele>67.5</ele><time>2026-04-04T17:00:24Z</time></trkpt><trkpt lat="38.899811074050824" lon="8.793020980076019"><ele>58.75</ele><time>2026-04-04T17:00:25Z</time></trkpt><trkpt lat="38.89970008945037" lon="8.792914064325068"><ele>50.0</ele><time>2026-04-04T17:00:26Z</time></trkpt><trkpt lat="38.899589127912336" lon="8.792846860920802"><ele>50.0</ele><time>2026-04-04T17:00:27Z</time></trkpt><trkpt lat="38.89948614267624" lon="8.79282732186308"><ele>50.0</ele><time>2026-04-04T17:00:28Z</time></trkpt><trkpt lat="38.89938172971757" lon="8.792854879739899"><ele>50.0</ele><time>2026-04-04T17:00:29Z</time></trkpt><trkpt lat="38.89927441518003" lon="8.792918352170785"><ele>50.0</ele><time>2026-04-04T17:00:30Z</time></trkpt><trkpt lat="38.89918551807811" lon="8.793027507777538"><ele>50.75</ele><time>2026-04-04T17:00:31Z</time></trkpt><trkpt lat="38.89912440080763" lon="8.793177350129165"><ele>51.5</ele><time>2026-04-04T17:00:32Z</time></trkpt><trkpt lat="38.89909776144688" lon="8.793350024074782"><ele>52.25</ele><time>2026-04-04T17:00:33Z</time></trkpt><trkpt lat="38.899095929897186" lon="8.793510242719226"><ele>53.0</ele><time>2026-04-04T17:00:34Z</time></trkpt><trkpt lat="38.89908180423566" lon="8.793644417763748"><ele>51.0</ele><time>2026-04-04T17:00:35Z</time></trkpt><trkpt lat="38.899008797727824" lon="8.793764040526018"><ele>49.0</ele><time>2026-04-04T17:00:36Z</time></trkpt><trkpt lat="38.8989123753032" lon="8.793888545635056"><ele>47.0</ele><time>2026-04-04T17:00:37Z</time></trkpt><trkpt lat="38.89880637186267" lon="8.794036722709174"><ele>45.0</ele><time>2026-04-04T17:00:38Z</time></trkpt><trkpt lat="38.898684869320114" lon="8.794181488113079"><ele>45.0</ele><time>2026-04-04T17:00:39Z</time></trkpt><trkpt lat="38.89858532277517" lon="8.794335546125907"><ele>45.0</ele><time>2026-04-04T17:00:40Z</time></trkpt><trkpt lat="38.89850378788879" lon="8.79450328319331"><ele>45.0</ele><time>2026-04-04T17:00:41Z</time></trkpt><trkpt lat="38.8984397782792" lon="8.794672217870529"><ele>48.75</ele><time>2026-04-04T17:00:42Z</time></trkpt><trkpt lat="38.89837659887627" lon="8.794809211059942"><ele>52.5</ele><time>2026-04-04T17:00:43Z</time></trkpt><trkpt lat="38.89829506723711" lon="8.794901200233607"><ele>56.25</ele><time>2026-04-04T17:00:44Z</time></trkpt><trkpt lat="38.89817106407514" lon="8.794933697531707"><ele>60.0</ele><time>2026-04-04T17:00:45Z</time></trkpt><trkpt lat="38.898051015397925" lon="8.794997575955675"><ele>60.0</ele><time>2026-04-04T17:00:46Z</time></trkpt><trkpt lat="38.897918731758026" lon="8.7950388741873"><ele>60.0</ele><time>2026-04-04T17:00:47Z</time></trkpt><trkpt lat="38.897794517102604" lon="8.795074245916728"><ele>60.0</ele><time>2026-04-04T17:00:48Z</time></trkpt><trkpt lat="38.89767958052252" lon="8.795094530682936"><ele>60.0</ele><time>2026-04-04T17:00:49Z</time></trkpt><trkpt lat="38.897576008116495" lon="8.795076341357259"><ele>61.25</ele><time>2026-04-04T17:00:50Z</time></trkpt><trkpt lat="38.89749383126706" lon="8.794979433090257"><ele>62.5</ele><time>2026-04-04T17:00:51Z</time></trkpt><trkpt lat="38.89741988058213" lon="8.794863101980704"><ele>63.75</ele><time>2026-04-04T17:00:52Z</time></trkpt><trkpt lat="38.89732239533953" lon="8.794748143079586"><ele>65.0</ele><time>2026-04-04T17:00:53Z</time></trkpt><trkpt lat="38.89723793378705" lon="8.794616552796807"><ele>65.0</ele><time>2026-04-04T17:00:54Z</time></trkpt><trkpt lat="38.897138592881305" lon="8.79450432280221"><ele>65.0</ele><time>2026-04-04T17:00:55Z</time></trkpt><trkpt lat="38.897023524278175" lon="8.794417959094767"><ele>65.0</ele><time>2026-04-04T17:00:56Z</time></trkpt><trkpt lat="38.8969000273178" lon="8.79435334510225"><ele>65.0</ele><time>2026-04-04T17:00:57Z</time></trkpt><trkpt lat="38.896783389203385" lon="8.794280663131747"><ele>65.6</ele><time>2026-04-04T17:00:58Z</time></trkpt><trkpt lat="38.89669093480514" lon="8.794183390826852"><ele>66.2</ele><time>2026-04-04T17:00:59Z</time></trkpt><trkpt lat="38.8966400758594" lon="8.794066200257504"><ele>66.8</ele><time>2026-04-04T17:01:00Z</time></trkpt><trkpt lat="38.896634945892025" lon="8.793933909186508"><ele>67.4</ele><time>2026-04-04T17:01:01Z</time></trkpt><trkpt lat="38.89668067836407" lon="8.793797034176738"><ele>68.0</ele><time>2026-04-04T17:01:02Z</time></trkpt><trkpt lat="38.896724413853164" lon="8.79364339321332"><ele>74.0</ele><time>2026-04-04T17:01:03Z</time></trkpt><trkpt lat="38.8967816747189" lon="8.793483125553802"><ele>80.0</ele><time>2026-04-04T17:01:04Z</time></trkpt><trkpt lat="38.896855091973656" lon="8.793324854001302"><ele>86.0</ele><time>2026-04-04T17:01:05Z</time></trkpt><trkpt lat="38.896928658829495" lon="8.793148620325589"><ele>92.0</ele><time>2026-04-04T17:01:06Z</time></trkpt><trkpt lat="38.8970050037235" lon="8.79297006589891"><ele>92.0</ele><time>2026-04-04T17:01:07Z</time></trkpt><trkpt lat="38.89704269882283" lon="8.79278335193904"><ele>92.0</ele><time>2026-04-04T17:01:08Z</time></trkpt><trkpt lat="38.897043885986896" lon="8.792592473184508"><ele>92.0</ele><time>2026-04-04T17:01:09Z</time></trkpt><trkpt lat="38.89702632708328" lon="8.792406331832874"><ele>92.0</ele><time>2026-04-04T17:01:10Z</time></trkpt><trkpt lat="38.89701495193446" lon="8.79222673123565"><ele>90.75</ele><time>2026-04-04T17:01:11Z</time></trkpt><trkpt lat="38.89705042120678" lon="8.792068390787861"><ele>89.5</ele><time>2026-04-04T17:01:12Z</time></trkpt><trkpt lat="38.89709890099007" lon="8.79191160424336"><ele>88.25</ele><time>2026-04-04T17:01:13Z</time></trkpt><trkpt lat="38.897183607630986" lon="8.791764417319042"><ele>87.0</ele><time>2026-04-04T17:01:14Z</time></trkpt><trkpt lat="38.8972911359332" lon="8.79161537205771"><ele>88.0</ele><time>2026-04-04T17:01:15Z</time></trkpt><trkpt lat="38.8974011066721" lon="8.791456048730675"><ele>89.0</ele><time>2026-04-04T17:01:16Z</time></trkpt><trkpt lat="38.89750308829194" lon="8.791308299734613"><ele>90.0</ele><time>2026-04-04T17:01:17Z</time></trkpt><trkpt lat="38.897590155835246" lon="8.791178103476762"><ele>90.0</ele><time>2026-04-04T17:01:18Z</time></trkpt><trkpt lat="38.89771963128502" lon="8.791097473090222"><ele>90.0</ele><time>2026-04-04T17:01:19Z</time></trkpt><trkpt lat="38.89784729967469" lon="8.791004561468311"><ele>90.0</ele><time>2026-04-04T17:01:20Z</time></trkpt><trkpt lat="38.89796244595409" lon="8.790883790055664"><ele>90.0</ele><time>2026-04-04T17:01:21Z</time></trkpt><trkpt lat="38.89808206114551" lon="8.790757722109111"><ele>90.0</ele><time>2026-04-04T17:01:22Z</time></trkpt><trkpt lat="38.89819273436909" lon="8.790606747049907"><ele>90.0</ele><time>2026-04-04T17:01:23Z</time></trkpt><trkpt lat="38.898310235539604" lon="8.790439664741456"><ele>90.0</ele><time>2026-04-04T17:01:24Z</time></trkpt><trkpt lat="38.89841886266608" lon="8.790279820486596"><ele>89.33333333333333</ele><time>2026-04-04T17:01:25Z</time></trkpt><trkpt lat="38.898530626935816" lon="8.79011502736198"><ele>88.66666666666666</ele><time>2026-04-04T17:01:26Z</time></trkpt><trkpt lat="38.89865082971591" lon="8.789946206378405"><ele>88.0</ele><time>2026-04-04T17:01:27Z</time></trkpt><trkpt lat="38.89877652203838" lon="8.78976716651465"><ele>88.0</ele><time>2026-04-04T17:01:28Z</time></trkpt><trkpt lat="38.89889356873151" lon="8.789600023106026"><ele>88.0</ele><time>2026-04-04T17:01:29Z</time></trkpt><trkpt lat="38.89899150640256" lon="8.789462640951234"><ele>88.0</ele><time>2026-04-04T17:01:30Z</time></trkpt><trkpt lat="38.89908227395924" lon="8.789354060995036"><ele>88.0</ele><time>2026-04-04T17:01:31Z</time></trkpt><trkpt lat="38.89918342438509" lon="8.789290295655107"><ele>88.5</ele><time>2026-04-04T17:01:32Z</time></trkpt><trkpt lat="38.89930458895485" lon="8.789307951586625"><ele>89.0</ele><time>2026-04-04T17:01:33Z</time></trkpt><trkpt lat="38.89942924503848" lon="8.78935741273798"><ele>89.5</ele><time>2026-04-04T17:01:34Z</time></trkpt><trkpt lat="38.899567862292926" lon="8.789433565488642"><ele>90.0</ele><time>2026-04-04T17:01:35Z</time></trkpt><trkpt lat="38.89972001426657" lon="8.789524056305833"><ele>90.0</ele><time>2026-04-04T17:01:36Z</time></trkpt><trkpt lat="38.899863258516376" lon="8.789610828293801"><ele>90.0</ele><time>2026-04-04T17:01:37Z</time></trkpt><trkpt lat="38.89999482369063" lon="8.789651429449053"><ele>90.0</ele><time>2026-04-04T17:01:38Z</time></trkpt><trkpt lat="38.90011202786449" lon="8.789636821097213"><ele>90.0</ele><time>2026-04-04T17:01:39Z</time></trkpt><trkpt lat="38.900219984182314" lon="8.789564664576046"><ele>89.75</ele><time>2026-04-04T17:01:40Z</time></trkpt><trkpt lat="38.90031344692737" lon="8.78944044736751"><ele>89.5</ele><time>2026-04-04T17:01:41Z</time></trkpt><trkpt lat="38.90040830441333" lon="8.789292368903654"><ele>89.25</ele><time>2026-04-04T17:01:42Z</time></trkpt><trkpt lat="38.9005418865913" lon="8.789185068728823"><ele>89.0</ele><time>2026-04-04T17:01:43Z</time></trkpt><trkpt lat="38.90069128190386" lon="8.789072676120009"><ele>91.66666666666667</ele><time>2026-04-04T17:01:44Z</time></trkpt><trkpt lat="38.90084774985611" lon="8.788938950233373"><ele>94.33333333333334</ele><time>2026-04-04T17:01:45Z</time></trkpt><trkpt lat="38.90101457944015" lon="8.788815301161168"><ele>97.0</ele><time>2026-04-04T17:01:46Z</time></trkpt><trkpt lat="38.90115775398072" lon="8.788708260761442"><ele>99.5</ele><time>2026-04-04T17:01:47Z</time></trkpt><trkpt lat="38.901293246077394" lon="8.788631483860442"><ele>102.0</ele><time>2026-04-04T17:01:48Z</time></trkpt><trkpt lat="38.90143698707818" lon="8.78862215144164"><ele>104.5</ele><time>2026-04-04T17:01:49Z</time></trkpt><trkpt lat="38.90158929517629" lon="8.78863052502445"><ele>107.0</ele><time>2026-04-04T17:01:50Z</time></trkpt><trkpt lat="38.901734839408235" lon="8.78861304641651"><ele>109.25</ele><time>2026-04-04T17:01:51Z</time></trkpt><trkpt lat="38.90185450009632" lon="8.788575739110682"><ele>111.5</ele><time>2026-04-04T17:01:52Z</time></trkpt><trkpt lat="38.901949451284636" lon="8.788480992739979"><ele>113.75</ele><time>2026-04-04T17:01:53Z</time></trkpt><trkpt lat="38.90202953147189" lon="8.788335267253409"><ele>116.0</ele><time>2026-04-04T17:01:54Z</time></trkpt><trkpt lat="38.90209826872092" lon="8.788164856107615"><ele>117.0</ele><time>2026-04-04T17:01:55Z</time></trkpt><trkpt lat="38.90219855862551" lon="8.788057741173622"><ele>118.0</ele><time>2026-04-04T17:01:56Z</time></trkpt><trkpt lat="38.902286607505694" lon="8.787962472336215"><ele>119.0</ele><time>2026-04-04T17:01:57Z</time></trkpt><trkpt lat="38.902350573420975" lon="8.787855701289168"><ele>120.0</ele><time>2026-04-04T17:01:58Z</time></trkpt><trkpt lat="38.90235140707266" lon="8.787699477670378"><ele>117.5</ele><time>2026-04-04T17:01:59Z</time></trkpt><trkpt lat="38.9023230384834" lon="8.787543164282853"><ele>115.0</ele><time>2026-04-04T17:02:00Z</time></trkpt><trkpt lat="38.90227251238923" lon="8.787400335366339"><ele>112.5</ele><time>2026-04-04T17:02:01Z</time></trkpt><trkpt lat="38.902184450778776" lon="8.787276895569057"><ele>110.0</ele><time>2026-04-04T17:02:02Z</time></trkpt><trkpt lat="38.90211083613409" lon="8.787172912695649"><ele>110.0</ele><time>2026-04-04T17:02:03Z</time></trkpt><trkpt lat="38.90208049404053" lon="8.78706280989406"><ele>110.0</ele><time>2026-04-04T17:02:04Z</time></trkpt><trkpt lat="38.902097603811036" lon="8.78694359383001"><ele>110.0</ele><time>2026-04-04T17:02:05Z</time></trkpt><trkpt lat="38.902153290816685" lon="8.786819541779035"><ele>110.0</ele><time>2026-04-04T17:02:06Z</time></trkpt><trkpt lat="38.90225311343825" lon="8.786734534281571"><ele>110.0</ele><time>2026-04-04T17:02:07Z</time></trkpt><trkpt lat="38.902346372841805" lon="8.786677098971452"><ele>111.25</ele><time>2026-04-04T17:02:08Z</time></trkpt><trkpt lat="38.90246193982224" lon="8.7866853301313"><ele>112.5</ele><time>2026-04-04T17:02:09Z</time></trkpt><trkpt lat="38.90258511511819" lon="8.786757849248188"><ele>113.75</ele><time>2026-04-04T17:02:10Z</time></trkpt><trkpt lat="38.90273074005471" lon="8.78682739707896"><ele>115.0</ele><time>2026-04-04T17:02:11Z</time></trkpt><trkpt lat="38.90289623448081" lon="8.7869121211489"><ele>115.0</ele><time>2026-04-04T17:02:12Z</time></trkpt><trkpt lat="38.90306219549412" lon="8.78696278705092"><ele>115.0</ele><time>2026-04-04T17:02:13Z</time></trkpt><trkpt lat="38.90319451959176" lon="8.78698887179636"><ele>115.0</ele><time>2026-04-04T17:02:14Z</time></trkpt><trkpt lat="38.90332354614303" lon="8.786965240546033"><ele>115.0</ele><time>2026-04-04T17:02:15Z</time></trkpt><trkpt lat="38.903435786193306" lon="8.78689588750171"><ele>114.5</ele><time>2026-04-04T17:02:16Z</time></trkpt><trkpt lat="38.90353161865788" lon="8.786790725117053"><ele>114.0</ele><time>2026-04-04T17:02:17Z</time></trkpt><trkpt lat="38.90361178798366" lon="8.786654795897656"><ele>113.5</ele><time>2026-04-04T17:02:18Z</time></trkpt><trkpt lat="38.903653834410164" lon="8.786499634590353"><ele>113.0</ele><time>2026-04-04T17:02:19Z</time></trkpt><trkpt lat="38.903659828658796" lon="8.786311786673403"><ele>113.0</ele><time>2026-04-04T17:02:20Z</time></trkpt><trkpt lat="38.9036627169736" lon="8.786091190772863"><ele>113.0</ele><time>2026-04-04T17:02:21Z</time></trkpt><trkpt lat="38.90369129834137" lon="8.785873449838071"><ele>113.0</ele><time>2026-04-04T17:02:22Z</time></trkpt><trkpt lat="38.903761604465075" lon="8.785675505073558"><ele>105.33333333333333</ele><time>2026-04-04T17:02:23Z</time></trkpt><trkpt lat="38.90379398049302" lon="8.785474019720493"><ele>97.66666666666666</ele><time>2026-04-04T17:02:24Z</time></trkpt><trkpt lat="38.90377188921645" lon="8.785253699579044"><ele>90.0</ele><time>2026-04-04T17:02:25Z</time></trkpt><trkpt lat="38.90373299908504" lon="8.78500937075971"><ele>85.75</ele><time>2026-04-04T17:02:26Z</time></trkpt><trkpt lat="38.90368206051549" lon="8.78477793938348"><ele>81.5</ele><time>2026-04-04T17:02:27Z</time></trkpt><trkpt lat="38.90364029756525" lon="8.784594543214958"><ele>77.25</ele><time>2026-04-04T17:02:28Z</time></trkpt><trkpt lat="38.90361809610958" lon="8.78445591655644"><ele>73.0</ele><time>2026-04-04T17:02:28.999Z</time></trkpt><trkpt lat="38.903649298347624" lon="8.784338471460943"><ele>70.6</ele><time>2026-04-04T17:02:29.999Z</time></trkpt><trkpt lat="38.90369516195628" lon="8.784253296714645"><ele>68.19999999999999</ele><time>2026-04-04T17:02:30.999Z</time></trkpt><trkpt lat="38.903775232122534" lon="8.784207038975984"><ele>65.8</ele><time>2026-04-04T17:02:31.999Z</time></trkpt><trkpt lat="38.90387791933019" lon="8.784189155948088"><ele>63.4</ele><time>2026-04-04T17:02:32.999Z</time></trkpt><trkpt lat="38.90397898997743" lon="8.784232588763066"><ele>61.0</ele><time>2026-04-04T17:02:33.999Z</time></trkpt><trkpt lat="38.90405879115094" lon="8.784310596875088"><ele>62.75</ele><time>2026-04-04T17:02:34.999Z</time></trkpt><trkpt lat="38.90412193891039" lon="8.784434723071124"><ele>64.5</ele><time>2026-04-04T17:02:35.999Z</time></trkpt><trkpt lat="38.90417056730019" lon="8.784613494963676"><ele>66.25</ele><time>2026-04-04T17:02:36.999Z</time></trkpt><trkpt lat="38.90421159538061" lon="8.784796573873985"><ele>68.0</ele><time>2026-04-04T17:02:37.999Z</time></trkpt><trkpt lat="38.904267161797996" lon="8.784941022658128"><ele>68.0</ele><time>2026-04-04T17:02:38.999Z</time></trkpt><trkpt lat="38.9043419874967" lon="8.785055305864766"><ele>68.0</ele><time>2026-04-04T17:02:39.999Z</time></trkpt><trkpt lat="38.90442781069914" lon="8.785145640736605"><ele>68.0</ele><time>2026-04-04T17:02:40.999Z</time></trkpt><trkpt lat="38.90455384218122" lon="8.785165735103746"><ele>68.0</ele><time>2026-04-04T17:02:41.999Z</time></trkpt><trkpt lat="38.904706952855356" lon="8.785117044877504"><ele>68.0</ele><time>2026-04-04T17:02:42.999Z</time></trkpt><trkpt lat="38.90486414852955" lon="8.78507369932806"><ele>68.0</ele><time>2026-04-04T17:02:44Z</time></trkpt><trkpt lat="38.90502598402863" lon="8.785021529193981"><ele>68.0</ele><time>2026-04-04T17:02:45Z</time></trkpt><trkpt lat="38.905192520875026" lon="8.784979937572949"><ele>70.75</ele><time>2026-04-04T17:02:46Z</time></trkpt><trkpt lat="38.90532530770127" lon="8.784940974712205"><ele>73.5</ele><time>2026-04-04T17:02:47Z</time></trkpt><trkpt lat="38.905438040225775" lon="8.784908410148983"><ele>76.25</ele><time>2026-04-04T17:02:48Z</time></trkpt><trkpt lat="38.9055280758337" lon="8.784824504493503"><ele>79.0</ele><time>2026-04-04T17:02:49Z</time></trkpt><trkpt lat="38.90558873658635" lon="8.784707720251633"><ele>79.0</ele><time>2026-04-04T17:02:50Z</time></trkpt><trkpt lat="38.905595462775324" lon="8.784539882904571"><ele>79.0</ele><time>2026-04-04T17:02:51Z</time></trkpt><trkpt lat="38.90560637852017" lon="8.784370500056696"><ele>79.0</ele><time>2026-04-04T17:02:52Z</time></trkpt><trkpt lat="38.905581990871276" lon="8.784202851438065"><ele>79.0</ele><time>2026-04-04T17:02:53Z</time></trkpt><trkpt lat="38.90552543018661" lon="8.784056206321427"><ele>76.25</ele><time>2026-04-04T17:02:54Z</time></trkpt><trkpt lat="38.90544878079692" lon="8.783921850751838"><ele>73.5</ele><time>2026-04-04T17:02:55Z</time></trkpt><trkpt lat="38.90535953487426" lon="8.7837851392221"><ele>70.75</ele><time>2026-04-04T17:02:56Z</time></trkpt><trkpt lat="38.90527359750134" lon="8.783653133368544"><ele>68.0</ele><time>2026-04-04T17:02:57Z</time></trkpt><trkpt lat="38.90520977794978" lon="8.78352353533869"><ele>66.75</ele><time>2026-04-04T17:02:58Z</time></trkpt><trkpt lat="38.90516978956527" lon="8.783384227689877"><ele>65.5</ele><time>2026-04-04T17:02:59Z</time></trkpt><trkpt lat="38.90514785566805" lon="8.78324336926941"><ele>64.25</ele><time>2026-04-04T17:03:00Z</time></trkpt><trkpt lat="38.905129666227865" lon="8.78308539258294"><ele>63.0</ele><time>2026-04-04T17:03:01Z</time></trkpt><trkpt lat="38.905109274307925" lon="8.782903102390796"><ele>63.0</ele><time>2026-04-04T17:03:02Z</time></trkpt><trkpt lat="38.90509531493067" lon="8.782716209297405"><ele>63.0</ele><time>2026-04-04T17:03:03Z</time></trkpt><trkpt lat="38.90508861677266" lon="8.782529011342012"><ele>63.0</ele><time>2026-04-04T17:03:04Z</time></trkpt><trkpt lat="38.90510781352279" lon="8.78233257541933"><ele>63.0</ele><time>2026-04-04T17:03:05Z</time></trkpt><trkpt lat="38.90510047077012" lon="8.782152270382891"><ele>63.25</ele><time>2026-04-04T17:03:06Z</time></trkpt><trkpt lat="38.90508523958488" lon="8.781990831165633"><ele>63.5</ele><time>2026-04-04T17:03:07Z</time></trkpt><trkpt lat="38.9050622033871" lon="8.78184609180017"><ele>63.75</ele><time>2026-04-04T17:03:08Z</time></trkpt><trkpt lat="38.905080013823664" lon="8.781710341303867"><ele>64.0</ele><time>2026-04-04T17:03:09Z</time></trkpt><trkpt lat="38.90512943068063" lon="8.781585721041829"><ele>60.0</ele><time>2026-04-04T17:03:10Z</time></trkpt><trkpt lat="38.905207710362724" lon="8.781480222706174"><ele>56.0</ele><time>2026-04-04T17:03:11Z</time></trkpt><trkpt lat="38.90531197317348" lon="8.781392594830198"><ele>52.0</ele><time>2026-04-04T17:03:12Z</time></trkpt><trkpt lat="38.90542484796051" lon="8.781320360025964"><ele>48.0</ele><time>2026-04-04T17:03:13Z</time></trkpt><trkpt lat="38.90553468803895" lon="8.781284030454374"><ele>48.0</ele><time>2026-04-04T17:03:14Z</time></trkpt><trkpt lat="38.905655357192984" lon="8.78128381023002"><ele>48.0</ele><time>2026-04-04T17:03:15Z</time></trkpt><trkpt lat="38.90578516184267" lon="8.781326274367952"><ele>48.0</ele><time>2026-04-04T17:03:16Z</time></trkpt><trkpt lat="38.9059046139944" lon="8.781393213450539"><ele>48.0</ele><time>2026-04-04T17:03:17Z</time></trkpt><trkpt lat="38.906010217137855" lon="8.781433762578468"><ele>45.5</ele><time>2026-04-04T17:03:18Z</time></trkpt><trkpt lat="38.906114927021854" lon="8.781417898340305"><ele>43.0</ele><time>2026-04-04T17:03:19Z</time></trkpt><trkpt lat="38.90623376501272" lon="8.781372175922819"><ele>40.5</ele><time>2026-04-04T17:03:20Z</time></trkpt><trkpt lat="38.9063322388659" lon="8.781276613501374"><ele>38.0</ele><time>2026-04-04T17:03:21Z</time></trkpt><trkpt lat="38.90646399992173" lon="8.781173032397483"><ele>38.0</ele><time>2026-04-04T17:03:22Z</time></trkpt><trkpt lat="38.90657906844792" lon="8.781129914296331"><ele>38.0</ele><time>2026-04-04T17:03:23Z</time></trkpt><trkpt lat="38.90668165115548" lon="8.781135130462214"><ele>38.0</ele><time>2026-04-04T17:03:24Z</time></trkpt><trkpt lat="38.90678112307116" lon="8.781179866682276"><ele>38.0</ele><time>2026-04-04T17:03:25Z</time></trkpt><trkpt lat="38.90685195033204" lon="8.781267836227734"><ele>38.0</ele><time>2026-04-04T17:03:26Z</time></trkpt><trkpt lat="38.90688855755395" lon="8.781393841193289"><ele>36.0</ele><time>2026-04-04T17:03:27Z</time></trkpt><trkpt lat="38.90688589028414" lon="8.781532952486065"><ele>34.0</ele><time>2026-04-04T17:03:28Z</time></trkpt><trkpt lat="38.90686473076806" lon="8.78172043800401"><ele>32.0</ele><time>2026-04-04T17:03:29Z</time></trkpt><trkpt lat="38.90682857484233" lon="8.781945283891838"><ele>30.0</ele><time>2026-04-04T17:03:30Z</time></trkpt><trkpt lat="38.90680557498271" lon="8.782178927122077"><ele>30.0</ele><time>2026-04-04T17:03:31Z</time></trkpt><trkpt lat="38.90675704388211" lon="8.782417950060545"><ele>30.0</ele><time>2026-04-04T17:03:32Z</time></trkpt><trkpt lat="38.90672416034476" lon="8.782618754175893"><ele>30.0</ele><time>2026-04-04T17:03:33Z</time></trkpt><trkpt lat="38.90670644513466" lon="8.782763794865035"><ele>31.4</ele><time>2026-04-04T17:03:34Z</time></trkpt><trkpt lat="38.90672490106565" lon="8.782876233018982"><ele>32.8</ele><time>2026-04-04T17:03:35Z</time></trkpt><trkpt lat="38.90677803085701" lon="8.782977003998358"><ele>34.2</ele><time>2026-04-04T17:03:36Z</time></trkpt><trkpt lat="38.90686700490946" lon="8.783058855183922"><ele>35.6</ele><time>2026-04-04T17:03:37Z</time></trkpt><trkpt lat="38.906981717443855" lon="8.783110710239598"><ele>37.0</ele><time>2026-04-04T17:03:38Z</time></trkpt><trkpt lat="38.907103563545135" lon="8.783107772135839"><ele>37.0</ele><time>2026-04-04T17:03:39Z</time></trkpt><trkpt lat="38.90720863426986" lon="8.783042468947466"><ele>37.0</ele><time>2026-04-04T17:03:40Z</time></trkpt><trkpt lat="38.90730139315242" lon="8.782924318248304"><ele>37.0</ele><time>2026-04-04T17:03:41Z</time></trkpt><trkpt lat="38.90737501625122" lon="8.782759254473198"><ele>37.0</ele><time>2026-04-04T17:03:42Z</time></trkpt><trkpt lat="38.907442062883746" lon="8.782560746835415"><ele>34.66666666666667</ele><time>2026-04-04T17:03:43Z</time></trkpt><trkpt lat="38.907523687587975" lon="8.782351509528656"><ele>32.333333333333336</ele><time>2026-04-04T17:03:44Z</time></trkpt><trkpt lat="38.907605253554465" lon="8.782162695548799"><ele>30.0</ele><time>2026-04-04T17:03:45Z</time></trkpt><trkpt lat="38.907681029871206" lon="8.781962083758641"><ele>29.666666666666664</ele><time>2026-04-04T17:03:46Z</time></trkpt><trkpt lat="38.907767654054716" lon="8.781757323307263"><ele>29.333333333333332</ele><time>2026-04-04T17:03:47Z</time></trkpt><trkpt lat="38.90785523735781" lon="8.781575158743713"><ele>29.0</ele><time>2026-04-04T17:03:48Z</time></trkpt><trkpt lat="38.90792057874594" lon="8.781426486312656"><ele>29.0</ele><time>2026-04-04T17:03:49Z</time></trkpt><trkpt lat="38.90800438319296" lon="8.781337698520185"><ele>29.0</ele><time>2026-04-04T17:03:50Z</time></trkpt><trkpt lat="38.9080876929133" lon="8.781280684546127"><ele>29.0</ele><time>2026-04-04T17:03:51Z</time></trkpt><trkpt lat="38.9081701985341" lon="8.78126252335761"><ele>29.0</ele><time>2026-04-04T17:03:52Z</time></trkpt><trkpt lat="38.90826107805357" lon="8.78128799273149"><ele>29.0</ele><time>2026-04-04T17:03:53Z</time></trkpt><trkpt lat="38.90835799683432" lon="8.781374381734608"><ele>27.666666666666664</ele><time>2026-04-04T17:03:54Z</time></trkpt><trkpt lat="38.90846078011992" lon="8.78149444499791"><ele>26.333333333333336</ele><time>2026-04-04T17:03:55Z</time></trkpt><trkpt lat="38.90859653926886" lon="8.781572482986128"><ele>25.0</ele><time>2026-04-04T17:03:56Z</time></trkpt><trkpt lat="38.908755042641246" lon="8.781624337815945"><ele>25.0</ele><time>2026-04-04T17:03:57Z</time></trkpt><trkpt lat="38.9089312671083" lon="8.781642547479258"><ele>25.0</ele><time>2026-04-04T17:03:58Z</time></trkpt><trkpt lat="38.90909233534998" lon="8.781662721417002"><ele>25.0</ele><time>2026-04-04T17:03:59Z</time></trkpt><trkpt lat="38.909264258661075" lon="8.781687980193654"><ele>25.0</ele><time>2026-04-04T17:04:00Z</time></trkpt><trkpt lat="38.90943875947009" lon="8.781710812020886"><ele>25.0</ele><time>2026-04-04T17:04:01Z</time></trkpt><trkpt lat="38.90958191205321" lon="8.781737395458704"><ele>25.0</ele><time>2026-04-04T17:04:02Z</time></trkpt><trkpt lat="38.909683730812624" lon="8.781815738355254"><ele>25.0</ele><time>2026-04-04T17:04:03Z</time></trkpt><trkpt lat="38.909770896676015" lon="8.78192633647532"><ele>25.0</ele><time>2026-04-04T17:04:04Z</time></trkpt><trkpt lat="38.90981318923398" lon="8.78209052526786"><ele>25.0</ele><time>2026-04-04T17:04:05Z</time></trkpt><trkpt lat="38.90987827253319" lon="8.782271192284592"><ele>25.0</ele><time>2026-04-04T17:04:06Z</time></trkpt><trkpt lat="38.90992215409619" lon="8.782486396217676"><ele>25.0</ele><time>2026-04-04T17:04:07Z</time></trkpt><trkpt lat="38.909970869181485" lon="8.782670975966896"><ele>25.0</ele><time>2026-04-04T17:04:08Z</time></trkpt><trkpt lat="38.910024902436184" lon="8.782797836921718"><ele>25.0</ele><time>2026-04-04T17:04:09Z</time></trkpt><trkpt lat="38.9101017459564" lon="8.782877218795008"><ele>25.0</ele><time>2026-04-04T17:04:10Z</time></trkpt><trkpt lat="38.91020312572742" lon="8.782911961032399"><ele>22.5</ele><time>2026-04-04T17:04:11Z</time></trkpt><trkpt lat="38.91032276827626" lon="8.78290151500829"><ele>20.0</ele><time>2026-04-04T17:04:12Z</time></trkpt><trkpt lat="38.91045730020548" lon="8.782880930073327"><ele>17.5</ele><time>2026-04-04T17:04:13Z</time></trkpt><trkpt lat="38.910583206726976" lon="8.782945661253558"><ele>15.0</ele><time>2026-04-04T17:04:14Z</time></trkpt><trkpt lat="38.91068299182489" lon="8.783048748382765"><ele>15.0</ele><time>2026-04-04T17:04:15Z</time></trkpt><trkpt lat="38.910766029983336" lon="8.783184168648072"><ele>15.0</ele><time>2026-04-04T17:04:16Z</time></trkpt><trkpt lat="38.91084736926749" lon="8.783346068556128"><ele>15.0</ele><time>2026-04-04T17:04:17Z</time></trkpt><trkpt lat="38.91094199178666" lon="8.78345407552975"><ele>15.0</ele><time>2026-04-04T17:04:17.999Z</time></trkpt><trkpt lat="38.91105273558884" lon="8.7835166581477"><ele>15.75</ele><time>2026-04-04T17:04:18.999Z</time></trkpt><trkpt lat="38.911183140888994" lon="8.78353144918955"><ele>16.5</ele><time>2026-04-04T17:04:19.999Z</time></trkpt><trkpt lat="38.911301699193274" lon="8.783489754932358"><ele>17.25</ele><time>2026-04-04T17:04:20.999Z</time></trkpt><trkpt lat="38.91140440222207" lon="8.783402257908339"><ele>18.0</ele><time>2026-04-04T17:04:21.999Z</time></trkpt><trkpt lat="38.911483753841615" lon="8.78327529447253"><ele>18.0</ele><time>2026-04-04T17:04:22.999Z</time></trkpt><trkpt lat="38.91153774469376" lon="8.783111428948217"><ele>18.0</ele><time>2026-04-04T17:04:23.999Z</time></trkpt><trkpt lat="38.911584464667996" lon="8.782925099711296"><ele>18.0</ele><time>2026-04-04T17:04:24.999Z</time></trkpt><trkpt lat="38.911673908583275" lon="8.782754498233203"><ele>17.333333333333332</ele><time>2026-04-04T17:04:25.999Z</time></trkpt><trkpt lat="38.91177139443182" lon="8.782596764379141"><ele>16.666666666666664</ele><time>2026-04-04T17:04:26.999Z</time></trkpt><trkpt lat="38.9118623866918" lon="8.78242645086225"><ele>16.0</ele><time>2026-04-04T17:04:27.999Z</time></trkpt><trkpt lat="38.91195738868684" lon="8.782290333192295"><ele>16.0</ele><time>2026-04-04T17:04:28.999Z</time></trkpt><trkpt lat="38.912047609816526" lon="8.782183090946132"><ele>16.0</ele><time>2026-04-04T17:04:29.999Z</time></trkpt><trkpt lat="38.91216678406175" lon="8.782127207502088"><ele>16.0</ele><time>2026-04-04T17:04:30.999Z</time></trkpt><trkpt lat="38.91230221381295" lon="8.782098364990011"><ele>16.0</ele><time>2026-04-04T17:04:31.999Z</time></trkpt><trkpt lat="38.912462611386964" lon="8.782095331693833"><ele>13.333333333333332</ele><time>2026-04-04T17:04:32.999Z</time></trkpt><trkpt lat="38.912648568863155" lon="8.782083566946728"><ele>10.666666666666666</ele><time>2026-04-04T17:04:33.999Z</time></trkpt><trkpt lat="38.91283425653951" lon="8.782090715938715"><ele>8.0</ele><time>2026-04-04T17:04:34.999Z</time></trkpt><trkpt lat="38.91299223934654" lon="8.782080669722154"><ele>8.0</ele><time>2026-04-04T17:04:35.999Z</time></trkpt><trkpt lat="38.91312478738249" lon="8.78204638255023"><ele>8.0</ele><time>2026-04-04T17:04:36.999Z</time></trkpt><trkpt lat="38.91325025538888" lon="8.781976702256365"><ele>8.0</ele><time>2026-04-04T17:04:37.999Z</time></trkpt><trkpt lat="38.91336545898009" lon="8.78186887851846"><ele>8.0</ele><time>2026-04-04T17:04:38.999Z</time></trkpt><trkpt lat="38.91347211168325" lon="8.78172711070135"><ele>4.666666666666666</ele><time>2026-04-04T17:04:39.999Z</time></trkpt><trkpt lat="38.91357539740837" lon="8.781576963487312"><ele>1.3333333333333333</ele><time>2026-04-04T17:04:40.999Z</time></trkpt><trkpt lat="38.9136831748525" lon="8.781433581827503"><ele>-2.0</ele><time>2026-04-04T17:04:41.999Z</time></trkpt><trkpt lat="38.913787423157224" lon="8.781297895601803"><ele>-2.0</ele><time>2026-04-04T17:04:42.999Z</time></trkpt><trkpt lat="38.9138824121579" lon="8.781175036189422"><ele>-2.0</ele><time>2026-04-04T17:04:43.999Z</time></trkpt><trkpt lat="38.913971364275845" lon="8.781066615893696"><ele>-2.0</ele><time>2026-04-04T17:04:44.999Z</time></trkpt><trkpt lat="38.91404525360374" lon="8.780943085028017"><ele>-2.0</ele><time>2026-04-04T17:04:45.999Z</time></trkpt><trkpt lat="38.9140852229996" lon="8.780792298582295"><ele>1.25</ele><time>2026-04-04T17:04:46.999Z</time></trkpt><trkpt lat="38.91407987703736" lon="8.780625034739016"><ele>4.5</ele><time>2026-04-04T17:04:47.999Z</time></trkpt><trkpt lat="38.91403777613823" lon="8.780456695773877"><ele>7.75</ele><time>2026-04-04T17:04:48.999Z</time></trkpt><trkpt lat="38.91397412948711" lon="8.780297316272858"><ele>11.0</ele><time>2026-04-04T17:04:50Z</time></trkpt><trkpt lat="38.913909997070455" lon="8.780135564648774"><ele>13.0</ele><time>2026-04-04T17:04:51Z</time></trkpt><trkpt lat="38.91383725717439" lon="8.77997141581705"><ele>15.0</ele><time>2026-04-04T17:04:52Z</time></trkpt><trkpt lat="38.913742781972026" lon="8.77982300917331"><ele>17.0</ele><time>2026-04-04T17:04:53Z</time></trkpt><trkpt lat="38.913628162974625" lon="8.779694238198354"><ele>19.0</ele><time>2026-04-04T17:04:54Z</time></trkpt><trkpt lat="38.91351843811115" lon="8.77958535004993"><ele>19.0</ele><time>2026-04-04T17:04:55Z</time></trkpt><trkpt lat="38.913412239927126" lon="8.779469421405937"><ele>19.0</ele><time>2026-04-04T17:04:56Z</time></trkpt><trkpt lat="38.913321189686215" lon="8.779339617466082"><ele>19.0</ele><time>2026-04-04T17:04:57Z</time></trkpt><trkpt lat="38.91326274456291" lon="8.77920817253611"><ele>19.0</ele><time>2026-04-04T17:04:58Z</time></trkpt><trkpt lat="38.91327725845553" lon="8.779075186419059"><ele>17.8</ele><time>2026-04-04T17:04:59Z</time></trkpt><trkpt lat="38.91328105536459" lon="8.778950598815973"><ele>16.599999999999998</ele><time>2026-04-04T17:05:00Z</time></trkpt><trkpt lat="38.91334379709963" lon="8.778846580467683"><ele>15.4</ele><time>2026-04-04T17:05:01Z</time></trkpt><trkpt lat="38.913450821328695" lon="8.77881532064495"><ele>14.2</ele><time>2026-04-04T17:05:02Z</time></trkpt><trkpt lat="38.9135489965969" lon="8.778819738024819"><ele>13.0</ele><time>2026-04-04T17:05:03Z</time></trkpt><trkpt lat="38.913661805020205" lon="8.778859907714958"><ele>13.0</ele><time>2026-04-04T17:05:04Z</time></trkpt><trkpt lat="38.91380438160145" lon="8.778890367522285"><ele>13.0</ele><time>2026-04-04T17:05:05Z</time></trkpt><trkpt lat="38.91395760071596" lon="8.778957008222028"><ele>13.0</ele><time>2026-04-04T17:05:06Z</time></trkpt><trkpt lat="38.91412699135753" lon="8.779014691630472"><ele>13.666666666666666</ele><time>2026-04-04T17:05:07Z</time></trkpt><trkpt lat="38.91429900291815" lon="8.779055129652809"><ele>14.333333333333332</ele><time>2026-04-04T17:05:08Z</time></trkpt><trkpt lat="38.914454649118454" lon="8.779073950314789"><ele>15.0</ele><time>2026-04-04T17:05:09Z</time></trkpt><trkpt lat="38.91459757942556" lon="8.779067607339185"><ele>15.0</ele><time>2026-04-04T17:05:10Z</time></trkpt><trkpt lat="38.914725484865755" lon="8.779036385244876"><ele>15.0</ele><time>2026-04-04T17:05:11Z</time></trkpt><trkpt lat="38.91482636251117" lon="8.778967720210046"><ele>15.0</ele><time>2026-04-04T17:05:12Z</time></trkpt><trkpt lat="38.91489903875201" lon="8.778861143969909"><ele>15.0</ele><time>2026-04-04T17:05:13Z</time></trkpt><trkpt lat="38.914943301077976" lon="8.778727599293484"><ele>15.0</ele><time>2026-04-04T17:05:14Z</time></trkpt><trkpt lat="38.91494615992204" lon="8.77857733360379"><ele>15.0</ele><time>2026-04-04T17:05:15Z</time></trkpt><trkpt lat="38.914905331300844" lon="8.77841602523743"><ele>15.0</ele><time>2026-04-04T17:05:16Z</time></trkpt><trkpt lat="38.91483079851355" lon="8.778258197784286"><ele>15.0</ele><time>2026-04-04T17:05:17Z</time></trkpt><trkpt lat="38.91476020293246" lon="8.77809920181384"><ele>14.25</ele><time>2026-04-04T17:05:18Z</time></trkpt><trkpt lat="38.914735925650085" lon="8.777956142917537"><ele>13.5</ele><time>2026-04-04T17:05:19Z</time></trkpt><trkpt lat="38.914777798299816" lon="8.777831592899345"><ele>12.75</ele><time>2026-04-04T17:05:20Z</time></trkpt><trkpt lat="38.91483833842029" lon="8.777714549390772"><ele>12.0</ele><time>2026-04-04T17:05:21Z</time></trkpt><trkpt lat="38.91492136944256" lon="8.777581428249764"><ele>12.0</ele><time>2026-04-04T17:05:22Z</time></trkpt><trkpt lat="38.915002083500234" lon="8.77742916973866"><ele>12.0</ele><time>2026-04-04T17:05:23Z</time></trkpt><trkpt lat="38.9151211680359" lon="8.777307056004851"><ele>12.0</ele><time>2026-04-04T17:05:24Z</time></trkpt><trkpt lat="38.91524624923851" lon="8.777182283284679"><ele>14.0</ele><time>2026-04-04T17:05:25Z</time></trkpt><trkpt lat="38.915373616985896" lon="8.777057937382502"><ele>16.0</ele><time>2026-04-04T17:05:26Z</time></trkpt><trkpt lat="38.91547817793699" lon="8.776946053785869"><ele>18.0</ele><time>2026-04-04T17:05:27Z</time></trkpt><trkpt lat="38.915593281934264" lon="8.776895189812631"><ele>20.0</ele><time>2026-04-04T17:05:28Z</time></trkpt><trkpt lat="38.91572243092561" lon="8.776909207411023"><ele>20.0</ele><time>2026-04-04T17:05:29Z</time></trkpt><trkpt lat="38.91585855921571" lon="8.776940880516136"><ele>20.0</ele><time>2026-04-04T17:05:30Z</time></trkpt><trkpt lat="38.916020578566986" lon="8.776947783174533"><ele>20.0</ele><time>2026-04-04T17:05:31Z</time></trkpt><trkpt lat="38.91620135235276" lon="8.776973471897675"><ele>21.666666666666668</ele><time>2026-04-04T17:05:32Z</time></trkpt><trkpt lat="38.916399720990235" lon="8.776967652756298"><ele>23.333333333333336</ele><time>2026-04-04T17:05:33Z</time></trkpt><trkpt lat="38.916590900528796" lon="8.776947956970385"><ele>25.0</ele><time>2026-04-04T17:05:34Z</time></trkpt><trkpt lat="38.91678579202202" lon="8.77692328408278"><ele>25.333333333333336</ele><time>2026-04-04T17:05:35Z</time></trkpt><trkpt lat="38.91699254353879" lon="8.776897689790173"><ele>25.666666666666664</ele><time>2026-04-04T17:05:36Z</time></trkpt><trkpt lat="38.91719786605412" lon="8.776870912595927"><ele>26.0</ele><time>2026-04-04T17:05:37Z</time></trkpt><trkpt lat="38.91737594436464" lon="8.776845350025976"><ele>23.25</ele><time>2026-04-04T17:05:38Z</time></trkpt><trkpt lat="38.91751796862889" lon="8.776820154987009"><ele>20.5</ele><time>2026-04-04T17:05:39Z</time></trkpt><trkpt lat="38.9176249905264" lon="8.776782820251542"><ele>17.75</ele><time>2026-04-04T17:05:40Z</time></trkpt><trkpt lat="38.91770601392245" lon="8.776709099736593"><ele>15.0</ele><time>2026-04-04T17:05:41Z</time></trkpt><trkpt lat="38.91775795677714" lon="8.776592276398539"><ele>15.0</ele><time>2026-04-04T17:05:42Z</time></trkpt><trkpt lat="38.91778655816391" lon="8.776448154422278"><ele>15.0</ele><time>2026-04-04T17:05:43Z</time></trkpt><trkpt lat="38.9177904945249" lon="8.776286879100258"><ele>15.0</ele><time>2026-04-04T17:05:44Z</time></trkpt><trkpt lat="38.917759048425935" lon="8.776142934628886"><ele>15.0</ele><time>2026-04-04T17:05:45Z</time></trkpt><trkpt lat="38.91768258639948" lon="8.776035071453148"><ele>15.0</ele><time>2026-04-04T17:05:46Z</time></trkpt><trkpt lat="38.91757500274127" lon="8.775938001308258"><ele>15.0</ele><time>2026-04-04T17:05:47Z</time></trkpt><trkpt lat="38.91745349774121" lon="8.775846481835057"><ele>15.0</ele><time>2026-04-04T17:05:48Z</time></trkpt><trkpt lat="38.91732050436874" lon="8.775761225186713"><ele>15.0</ele><time>2026-04-04T17:05:49Z</time></trkpt><trkpt lat="38.917173293748164" lon="8.77569710199032"><ele>14.5</ele><time>2026-04-04T17:05:50Z</time></trkpt><trkpt lat="38.9170175919515" lon="8.775664818724117"><ele>14.0</ele><time>2026-04-04T17:05:51Z</time></trkpt><trkpt lat="38.91687394211095" lon="8.775651027397775"><ele>13.5</ele><time>2026-04-04T17:05:52Z</time></trkpt><trkpt lat="38.91673191522339" lon="8.7756371468636"><ele>13.0</ele><time>2026-04-04T17:05:53Z</time></trkpt><trkpt lat="38.91659876907818" lon="8.77563200471332"><ele>11.75</ele><time>2026-04-04T17:05:54Z</time></trkpt><trkpt lat="38.91647283183686" lon="8.775625794976389"><ele>10.5</ele><time>2026-04-04T17:05:55Z</time></trkpt><trkpt lat="38.91635341300611" lon="8.775594267587897"><ele>9.25</ele><time>2026-04-04T17:05:56Z</time></trkpt><trkpt lat="38.91623121475571" lon="8.775519198764355"><ele>8.0</ele><time>2026-04-04T17:05:57Z</time></trkpt><trkpt lat="38.91611529909363" lon="8.77540397989856"><ele>8.0</ele><time>2026-04-04T17:05:58Z</time></trkpt><trkpt lat="38.91601231010318" lon="8.77525666424366"><ele>8.0</ele><time>2026-04-04T17:05:59Z</time></trkpt><trkpt lat="38.91591895804398" lon="8.77507523450887"><ele>8.0</ele><time>2026-04-04T17:06:00Z</time></trkpt><trkpt lat="38.91583157807672" lon="8.774894723362348"><ele>7.0</ele><time>2026-04-04T17:06:00.999Z</time></trkpt><trkpt lat="38.91574559964084" lon="8.774747890082905"><ele>6.0</ele><time>2026-04-04T17:06:01.999Z</time></trkpt><trkpt lat="38.91564734481144" lon="8.77464918262942"><ele>5.0</ele><time>2026-04-04T17:06:02.999Z</time></trkpt><trkpt lat="38.91552317146012" lon="8.774588553272674"><ele>4.0</ele><time>2026-04-04T17:06:03.999Z</time></trkpt><trkpt lat="38.91537911886676" lon="8.774566135899601"><ele>4.0</ele><time>2026-04-04T17:06:04.999Z</time></trkpt><trkpt lat="38.91523143146049" lon="8.774592031309625"><ele>4.0</ele><time>2026-04-04T17:06:05.999Z</time></trkpt><trkpt lat="38.91509413736169" lon="8.774641596398407"><ele>4.0</ele><time>2026-04-04T17:06:06.999Z</time></trkpt><trkpt lat="38.9149749424332" lon="8.774647523591252"><ele>4.0</ele><time>2026-04-04T17:06:07.999Z</time></trkpt><trkpt lat="38.91487146219807" lon="8.77459135159265"><ele>3.8000000000000003</ele><time>2026-04-04T17:06:08.999Z</time></trkpt><trkpt lat="38.914781190475445" lon="8.774497017618247"><ele>3.6000000000000005</ele><time>2026-04-04T17:06:09.999Z</time></trkpt><trkpt lat="38.91472314476461" lon="8.774392109865298"><ele>3.4</ele><time>2026-04-04T17:06:10.999Z</time></trkpt><trkpt lat="38.91469897064319" lon="8.774277824635355"><ele>3.2</ele><time>2026-04-04T17:06:11.999Z</time></trkpt><trkpt lat="38.91471661459219" lon="8.774160070876835"><ele>3.0</ele><time>2026-04-04T17:06:12.999Z</time></trkpt><trkpt lat="38.914791124614894" lon="8.774046058227743"><ele>5.0</ele><time>2026-04-04T17:06:13.999Z</time></trkpt><trkpt lat="38.91485232912757" lon="8.7738982405074"><ele>7.0</ele><time>2026-04-04T17:06:14.999Z</time></trkpt><trkpt lat="38.914905764869104" lon="8.773751863663792"><ele>9.0</ele><time>2026-04-04T17:06:15.999Z</time></trkpt><trkpt lat="38.91490961037919" lon="8.773611807454143"><ele>11.0</ele><time>2026-04-04T17:06:16.999Z</time></trkpt><trkpt lat="38.91487428365751" lon="8.773472219530468"><ele>11.75</ele><time>2026-04-04T17:06:17.999Z</time></trkpt><trkpt lat="38.914844199722836" lon="8.773320911037969"><ele>12.5</ele><time>2026-04-04T17:06:18.999Z</time></trkpt><trkpt lat="38.914878494308425" lon="8.773167279753643"><ele>13.25</ele><time>2026-04-04T17:06:19.999Z</time></trkpt><trkpt lat="38.91491257740309" lon="8.77299191174097"><ele>14.0</ele><time>2026-04-04T17:06:20.999Z</time></trkpt><trkpt lat="38.91496174277245" lon="8.77282252288612"><ele>14.5</ele><time>2026-04-04T17:06:21.999Z</time></trkpt><trkpt lat="38.914978749208856" lon="8.772678565396001"><ele>15.0</ele><time>2026-04-04T17:06:22.999Z</time></trkpt><trkpt lat="38.914958178066506" lon="8.772531176684486"><ele>15.5</ele><time>2026-04-04T17:06:23.999Z</time></trkpt><trkpt lat="38.91490046198401" lon="8.772379617340288"><ele>16.0</ele><time>2026-04-04T17:06:24.999Z</time></trkpt><trkpt lat="38.914829023764085" lon="8.772239835690769"><ele>16.0</ele><time>2026-04-04T17:06:25.999Z</time></trkpt><trkpt lat="38.91478425297203" lon="8.77210305927862"><ele>16.0</ele><time>2026-04-04T17:06:26.999Z</time></trkpt><trkpt lat="38.914780822023864" lon="8.771966665004985"><ele>16.0</ele><time>2026-04-04T17:06:27.999Z</time></trkpt><trkpt lat="38.91481734563349" lon="8.77183917604778"><ele>16.0</ele><time>2026-04-04T17:06:28.999Z</time></trkpt><trkpt lat="38.91488805470364" lon="8.771730012213956"><ele>16.0</ele><time>2026-04-04T17:06:29.999Z</time></trkpt><trkpt lat="38.91500216043294" lon="8.771656958597992"><ele>14.75</ele><time>2026-04-04T17:06:30.999Z</time></trkpt><trkpt lat="38.9151064692707" lon="8.771561340564341"><ele>13.5</ele><time>2026-04-04T17:06:31.999Z</time></trkpt><trkpt lat="38.915224425864565" lon="8.771522260675575"><ele>12.25</ele><time>2026-04-04T17:06:32.999Z</time></trkpt><trkpt lat="38.915346310040626" lon="8.771549398524906"><ele>11.0</ele><time>2026-04-04T17:06:33.999Z</time></trkpt><trkpt lat="38.915459695496715" lon="8.77153920069654"><ele>11.0</ele><time>2026-04-04T17:06:34.999Z</time></trkpt><trkpt lat="38.91555944842228" lon="8.771518961633863"><ele>11.0</ele><time>2026-04-04T17:06:35.999Z</time></trkpt><trkpt lat="38.91564111297288" lon="8.771445227931476"><ele>11.0</ele><time>2026-04-04T17:06:36.999Z</time></trkpt><trkpt lat="38.915696865026106" lon="8.771330054160433"><ele>11.0</ele><time>2026-04-04T17:06:37.999Z</time></trkpt><trkpt lat="38.91572079469772" lon="8.771174384355325"><ele>11.0</ele><time>2026-04-04T17:06:38.999Z</time></trkpt><trkpt lat="38.915731342364964" lon="8.770989930533261"><ele>9.666666666666666</ele><time>2026-04-04T17:06:39.999Z</time></trkpt><trkpt lat="38.915754931629436" lon="8.770789893632974"><ele>8.333333333333334</ele><time>2026-04-04T17:06:40.999Z</time></trkpt><trkpt lat="38.91582209184705" lon="8.770587832539633"><ele>7.0</ele><time>2026-04-04T17:06:41.999Z</time></trkpt><trkpt lat="38.915835736471045" lon="8.77038494618101"><ele>6.333333333333334</ele><time>2026-04-04T17:06:42.999Z</time></trkpt><trkpt lat="38.915849708493305" lon="8.77017957663768"><ele>5.666666666666667</ele><time>2026-04-04T17:06:43.999Z</time></trkpt><trkpt lat="38.91585392340107" lon="8.769954929039518"><ele>5.0</ele><time>2026-04-04T17:06:44.999Z</time></trkpt><trkpt lat="38.91586334778078" lon="8.769744713453676"><ele>5.0</ele><time>2026-04-04T17:06:45.999Z</time></trkpt><trkpt lat="38.91588588623374" lon="8.76955699079275"><ele>5.0</ele><time>2026-04-04T17:06:46.999Z</time></trkpt><trkpt lat="38.915951066605984" lon="8.769393825856156"><ele>5.0</ele><time>2026-04-04T17:06:47.999Z</time></trkpt><trkpt lat="38.916013298744346" lon="8.769213214057647"><ele>5.0</ele><time>2026-04-04T17:06:48.999Z</time></trkpt><trkpt lat="38.91606390917085" lon="8.769014597611434"><ele>6.75</ele><time>2026-04-04T17:06:49.999Z</time></trkpt><trkpt lat="38.916147661957936" lon="8.768857880895524"><ele>8.5</ele><time>2026-04-04T17:06:50.999Z</time></trkpt><trkpt lat="38.91621166586741" lon="8.768726101174796"><ele>10.25</ele><time>2026-04-04T17:06:51.999Z</time></trkpt><trkpt lat="38.91627289351241" lon="8.768602448957388"><ele>12.0</ele><time>2026-04-04T17:06:52.999Z</time></trkpt><trkpt lat="38.91637539687782" lon="8.768526842588079"><ele>12.0</ele><time>2026-04-04T17:06:53.999Z</time></trkpt><trkpt lat="38.91650297241" lon="8.768526636886135"><ele>12.0</ele><time>2026-04-04T17:06:54.999Z</time></trkpt><trkpt lat="38.91664510960307" lon="8.768505621864138"><ele>12.0</ele><time>2026-04-04T17:06:56Z</time></trkpt><trkpt lat="38.916804799438665" lon="8.768486766012149"><ele>12.0</ele><time>2026-04-04T17:06:57Z</time></trkpt><trkpt lat="38.91696084806213" lon="8.768452783642106"><ele>10.75</ele><time>2026-04-04T17:06:58Z</time></trkpt><trkpt lat="38.917110121858194" lon="8.768442775945983"><ele>9.5</ele><time>2026-04-04T17:06:59Z</time></trkpt><trkpt lat="38.91724774797542" lon="8.768450406908679"><ele>8.25</ele><time>2026-04-04T17:07:00Z</time></trkpt><trkpt lat="38.917364510724504" lon="8.768371417624932"><ele>7.0</ele><time>2026-04-04T17:07:01Z</time></trkpt><trkpt lat="38.91747340819211" lon="8.7682876468068"><ele>8.25</ele><time>2026-04-04T17:07:02Z</time></trkpt><trkpt lat="38.91757786940794" lon="8.768174482853215"><ele>9.5</ele><time>2026-04-04T17:07:03Z</time></trkpt><trkpt lat="38.91765184187239" lon="8.768044850214544"><ele>10.75</ele><time>2026-04-04T17:07:04Z</time></trkpt><trkpt lat="38.917699538098574" lon="8.76790199890086"><ele>12.0</ele><time>2026-04-04T17:07:05Z</time></trkpt><trkpt lat="38.917724102994804" lon="8.767745186468815"><ele>13.0</ele><time>2026-04-04T17:07:06Z</time></trkpt><trkpt lat="38.91772255566629" lon="8.767579830775123"><ele>14.0</ele><time>2026-04-04T17:07:07Z</time></trkpt><trkpt lat="38.9176989837169" lon="8.767435183671955"><ele>15.0</ele><time>2026-04-04T17:07:08Z</time></trkpt><trkpt lat="38.91768565851567" lon="8.76729853464205"><ele>16.0</ele><time>2026-04-04T17:07:09Z</time></trkpt><trkpt lat="38.9176591465673" lon="8.76715328314983"><ele>16.0</ele><time>2026-04-04T17:07:10Z</time></trkpt><trkpt lat="38.91761253039052" lon="8.767003872041919"><ele>16.0</ele><time>2026-04-04T17:07:11Z</time></trkpt><trkpt lat="38.9175710413088" lon="8.766845711776666"><ele>16.0</ele><time>2026-04-04T17:07:12Z</time></trkpt><trkpt lat="38.91748792783736" lon="8.766695275881913"><ele>16.0</ele><time>2026-04-04T17:07:13Z</time></trkpt><trkpt lat="38.91736973605826" lon="8.766554119986296"><ele>16.0</ele><time>2026-04-04T17:07:14Z</time></trkpt><trkpt lat="38.9172287538382" lon="8.766412859969936"><ele>16.0</ele><time>2026-04-04T17:07:15Z</time></trkpt><trkpt lat="38.91708074479114" lon="8.766281581375617"><ele>16.0</ele><time>2026-04-04T17:07:16Z</time></trkpt><trkpt lat="38.91694892010031" lon="8.766172536550892"><ele>16.0</ele><time>2026-04-04T17:07:17Z</time></trkpt><trkpt lat="38.91681990448008" lon="8.76606653431467"><ele>16.0</ele><time>2026-04-04T17:07:18Z</time></trkpt><trkpt lat="38.91668289610046" lon="8.765952084036305"><ele>16.0</ele><time>2026-04-04T17:07:19Z</time></trkpt><trkpt lat="38.91656582198054" lon="8.765842613878993"><ele>17.4</ele><time>2026-04-04T17:07:20Z</time></trkpt><trkpt lat="38.91649583852286" lon="8.76575071893084"><ele>18.8</ele><time>2026-04-04T17:07:21Z</time></trkpt><trkpt lat="38.91646151493921" lon="8.765643527821652"><ele>20.2</ele><time>2026-04-04T17:07:22Z</time></trkpt><trkpt lat="38.91648066725376" lon="8.765498337390047"><ele>21.599999999999998</ele><time>2026-04-04T17:07:23Z</time></trkpt><trkpt lat="38.91648117719561" lon="8.765331763350924"><ele>23.0</ele><time>2026-04-04T17:07:24Z</time></trkpt><trkpt lat="38.91654879556258" lon="8.765163974985526"><ele>23.0</ele><time>2026-04-04T17:07:25Z</time></trkpt><trkpt lat="38.91662597134703" lon="8.764968852270743"><ele>23.0</ele><time>2026-04-04T17:07:26Z</time></trkpt><trkpt lat="38.91670753332965" lon="8.764758211695417"><ele>23.0</ele><time>2026-04-04T17:07:27Z</time></trkpt><trkpt lat="38.91678512836765" lon="8.764557195313786"><ele>24.75</ele><time>2026-04-04T17:07:28Z</time></trkpt><trkpt lat="38.91684277868867" lon="8.764361976953461"><ele>26.5</ele><time>2026-04-04T17:07:29Z</time></trkpt><trkpt lat="38.91690767283018" lon="8.764212632645334"><ele>28.25</ele><time>2026-04-04T17:07:30Z</time></trkpt><trkpt lat="38.91698317454279" lon="8.764103561185973"><ele>30.0</ele><time>2026-04-04T17:07:31Z</time></trkpt><trkpt lat="38.91707834868468" lon="8.76403446198531"><ele>30.0</ele><time>2026-04-04T17:07:32Z</time></trkpt><trkpt lat="38.91719891171298" lon="8.764015047359898"><ele>30.0</ele><time>2026-04-04T17:07:33Z</time></trkpt><trkpt lat="38.917310972138935" lon="8.764035825101711"><ele>30.0</ele><time>2026-04-04T17:07:34Z</time></trkpt><trkpt lat="38.917437533518815" lon="8.764078267834174"><ele>30.0</ele><time>2026-04-04T17:07:35Z</time></trkpt><trkpt lat="38.917582654988266" lon="8.76411368087135"><ele>33.25</ele><time>2026-04-04T17:07:36Z</time></trkpt><trkpt lat="38.91771112354123" lon="8.764140747204387"><ele>36.5</ele><time>2026-04-04T17:07:37Z</time></trkpt><trkpt lat="38.91781911324762" lon="8.76412103038922"><ele>39.75</ele><time>2026-04-04T17:07:38Z</time></trkpt><trkpt lat="38.91792251042" lon="8.764064633440706"><ele>43.0</ele><time>2026-04-04T17:07:39Z</time></trkpt><trkpt lat="38.91802186128094" lon="8.763962732642096"><ele>43.0</ele><time>2026-04-04T17:07:40Z</time></trkpt><trkpt lat="38.91811259623824" lon="8.763813313407818"><ele>43.0</ele><time>2026-04-04T17:07:41Z</time></trkpt><trkpt lat="38.918203719440726" lon="8.763653780829207"><ele>43.0</ele><time>2026-04-04T17:07:42Z</time></trkpt><trkpt lat="38.918296022781476" lon="8.763552968879962"><ele>43.0</ele><time>2026-04-04T17:07:43Z</time></trkpt><trkpt lat="38.918400994295254" lon="8.763542205211328"><ele>44.25</ele><time>2026-04-04T17:07:44Z</time></trkpt><trkpt lat="38.91850898952136" lon="8.763554378536156"><ele>45.5</ele><time>2026-04-04T17:07:45Z</time></trkpt><trkpt lat="38.91863866644304" lon="8.763562861951987"><ele>46.75</ele><time>2026-04-04T17:07:46Z</time></trkpt><trkpt lat="38.91877001693947" lon="8.763630154970729"><ele>48.0</ele><time>2026-04-04T17:07:47Z</time></trkpt><trkpt lat="38.91888672196818" lon="8.763707261544072"><ele>48.0</ele><time>2026-04-04T17:07:47.999Z</time></trkpt><trkpt lat="38.91899464308652" lon="8.763732563260158"><ele>48.0</ele><time>2026-04-04T17:07:48.999Z</time></trkpt><trkpt lat="38.919121492202954" lon="8.763717019223087"><ele>48.0</ele><time>2026-04-04T17:07:49.999Z</time></trkpt><trkpt lat="38.91925496160792" lon="8.763619548801602"><ele>48.0</ele><time>2026-04-04T17:07:50.999Z</time></trkpt><trkpt lat="38.91940945946001" lon="8.76363301651939"><ele>51.0</ele><time>2026-04-04T17:07:51.999Z</time></trkpt><trkpt lat="38.91958302092704" lon="8.763659398218413"><ele>54.0</ele><time>2026-04-04T17:07:52.999Z</time></trkpt><trkpt lat="38.91975394790342" lon="8.763666664295101"><ele>57.0</ele><time>2026-04-04T17:07:53.999Z</time></trkpt><trkpt lat="38.91988558784951" lon="8.763669565901438"><ele>57.0</ele><time>2026-04-04T17:07:54.999Z</time></trkpt><trkpt lat="38.91999390279878" lon="8.763630843216287"><ele>57.0</ele><time>2026-04-04T17:07:55.999Z</time></trkpt><trkpt lat="38.92008093735791" lon="8.763550042840532"><ele>57.0</ele><time>2026-04-04T17:07:56.999Z</time></trkpt><trkpt lat="38.92015499717083" lon="8.763420955893368"><ele>57.0</ele><time>2026-04-04T17:07:57.999Z</time></trkpt><trkpt lat="38.920221320698175" lon="8.763253142257765"><ele>59.25</ele><time>2026-04-04T17:07:58.999Z</time></trkpt><trkpt lat="38.92029342581623" lon="8.763092065559134"><ele>61.5</ele><time>2026-04-04T17:07:59.999Z</time></trkpt><trkpt lat="38.92037310079096" lon="8.762977347829036"><ele>63.75</ele><time>2026-04-04T17:08:00.999Z</time></trkpt><trkpt lat="38.920489443364495" lon="8.762927672377685"><ele>66.0</ele><time>2026-04-04T17:08:01.999Z</time></trkpt><trkpt lat="38.9206264927907" lon="8.76288213995438"><ele>66.0</ele><time>2026-04-04T17:08:02.999Z</time></trkpt><trkpt lat="38.920772608665864" lon="8.76281252491889"><ele>66.0</ele><time>2026-04-04T17:08:03.999Z</time></trkpt><trkpt lat="38.9209376582821" lon="8.762758409459902"><ele>66.0</ele><time>2026-04-04T17:08:04.999Z</time></trkpt><trkpt lat="38.921110458106405" lon="8.762695964699747"><ele>67.0</ele><time>2026-04-04T17:08:05.999Z</time></trkpt><trkpt lat="38.92128653262945" lon="8.762636513616012"><ele>68.0</ele><time>2026-04-04T17:08:06.999Z</time></trkpt><trkpt lat="38.92142704799178" lon="8.762589530502138"><ele>69.0</ele><time>2026-04-04T17:08:07.999Z</time></trkpt><trkpt lat="38.921528914728185" lon="8.762534082025239"><ele>70.0</ele><time>2026-04-04T17:08:08.999Z</time></trkpt><trkpt lat="38.921603267342334" lon="8.762438785636858"><ele>70.0</ele><time>2026-04-04T17:08:09.999Z</time></trkpt><trkpt lat="38.921651050983044" lon="8.762305810955876"><ele>70.0</ele><time>2026-04-04T17:08:10.999Z</time></trkpt><trkpt lat="38.9216542569226" lon="8.762146858396529"><ele>70.0</ele><time>2026-04-04T17:08:11.999Z</time></trkpt><trkpt lat="38.921629872488246" lon="8.761960984763133"><ele>70.0</ele><time>2026-04-04T17:08:12.999Z</time></trkpt><trkpt lat="38.92159387113615" lon="8.761761921575877"><ele>70.0</ele><time>2026-04-04T17:08:13.999Z</time></trkpt><trkpt lat="38.92155220306245" lon="8.76154423223356"><ele>70.0</ele><time>2026-04-04T17:08:15Z</time></trkpt><trkpt lat="38.92150191476128" lon="8.761322927194229"><ele>70.0</ele><time>2026-04-04T17:08:15.999Z</time></trkpt><trkpt lat="38.921442289209295" lon="8.76112520784498"><ele>73.0</ele><time>2026-04-04T17:08:16.999Z</time></trkpt><trkpt lat="38.921371016300874" lon="8.760949062259941"><ele>76.0</ele><time>2026-04-04T17:08:17.999Z</time></trkpt><trkpt lat="38.921285443383816" lon="8.76081113065875"><ele>79.0</ele><time>2026-04-04T17:08:18.999Z</time></trkpt><trkpt lat="38.921177507157175" lon="8.76071037764208"><ele>82.0</ele><time>2026-04-04T17:08:19.999Z</time></trkpt><trkpt lat="38.9210475584157" lon="8.760650327193943"><ele>82.0</ele><time>2026-04-04T17:08:20.999Z</time></trkpt><trkpt lat="38.9209152765113" lon="8.760651681911277"><ele>82.0</ele><time>2026-04-04T17:08:21.999Z</time></trkpt><trkpt lat="38.920784639366765" lon="8.76068568859765"><ele>82.0</ele><time>2026-04-04T17:08:22.999Z</time></trkpt><trkpt lat="38.920654234598295" lon="8.760708312101505"><ele>82.0</ele><time>2026-04-04T17:08:23.999Z</time></trkpt><trkpt lat="38.920521429253995" lon="8.76067025002254"><ele>79.5</ele><time>2026-04-04T17:08:24.999Z</time></trkpt><trkpt lat="38.92040272186131" lon="8.76058390636404"><ele>77.0</ele><time>2026-04-04T17:08:25.999Z</time></trkpt><trkpt lat="38.92031932945532" lon="8.760480153939882"><ele>74.5</ele><time>2026-04-04T17:08:26.999Z</time></trkpt><trkpt lat="38.920271355974634" lon="8.760365642804379"><ele>72.0</ele><time>2026-04-04T17:08:27.999Z</time></trkpt><trkpt lat="38.92027440979746" lon="8.76022213236427"><ele>76.25</ele><time>2026-04-04T17:08:28.999Z</time></trkpt><trkpt lat="38.920286434713006" lon="8.760069673778704"><ele>80.5</ele><time>2026-04-04T17:08:29.999Z</time></trkpt><trkpt lat="38.920312046687144" lon="8.75989277975497"><ele>84.75</ele><time>2026-04-04T17:08:30.999Z</time></trkpt><trkpt lat="38.92032756114586" lon="8.759699609235657"><ele>89.0</ele><time>2026-04-04T17:08:31.999Z</time></trkpt><trkpt lat="38.92036187453564" lon="8.759497218329427"><ele>91.0</ele><time>2026-04-04T17:08:32.999Z</time></trkpt><trkpt lat="38.92041088091783" lon="8.759287856385003"><ele>93.0</ele><time>2026-04-04T17:08:33.999Z</time></trkpt><trkpt lat="38.92046827980342" lon="8.759073045907977"><ele>95.0</ele><time>2026-04-04T17:08:34.999Z</time></trkpt><trkpt lat="38.92052211329447" lon="8.758879692615794"><ele>95.0</ele><time>2026-04-04T17:08:35.999Z</time></trkpt><trkpt lat="38.920568719870374" lon="8.758690781634959"><ele>95.0</ele><time>2026-04-04T17:08:36.999Z</time></trkpt><trkpt lat="38.92060362852859" lon="8.758514895179557"><ele>95.0</ele><time>2026-04-04T17:08:37.999Z</time></trkpt><trkpt lat="38.92061828537032" lon="8.758358489915917"><ele>95.0</ele><time>2026-04-04T17:08:38.999Z</time></trkpt><trkpt lat="38.920638213636316" lon="8.758219227433385"><ele>90.5</ele><time>2026-04-04T17:08:39.999Z</time></trkpt><trkpt lat="38.920710261068734" lon="8.758112616492799"><ele>86.0</ele><time>2026-04-04T17:08:40.999Z</time></trkpt><trkpt lat="38.92080192527927" lon="8.75799805800904"><ele>81.5</ele><time>2026-04-04T17:08:41.999Z</time></trkpt><trkpt lat="38.9209062975978" lon="8.757866119685826"><ele>77.0</ele><time>2026-04-04T17:08:42.999Z</time></trkpt><trkpt lat="38.92100337966558" lon="8.757756941376627"><ele>81.8</ele><time>2026-04-04T17:08:43.999Z</time></trkpt><trkpt lat="38.92106700426327" lon="8.757640258683548"><ele>86.6</ele><time>2026-04-04T17:08:44.999Z</time></trkpt><trkpt lat="38.92108951079105" lon="8.757511073289196"><ele>91.39999999999999</ele><time>2026-04-04T17:08:45.999Z</time></trkpt><trkpt lat="38.92107048725462" lon="8.757374353862064"><ele>96.2</ele><time>2026-04-04T17:08:46.999Z</time></trkpt><trkpt lat="38.921017026582994" lon="8.757235988911344"><ele>101.0</ele><time>2026-04-04T17:08:47.999Z</time></trkpt><trkpt lat="38.92095605572299" lon="8.757087022870168"><ele>101.0</ele><time>2026-04-04T17:08:48.999Z</time></trkpt><trkpt lat="38.92092590076619" lon="8.756934053601572"><ele>101.0</ele><time>2026-04-04T17:08:49.999Z</time></trkpt><trkpt lat="38.92095841668424" lon="8.756784978305918"><ele>101.0</ele><time>2026-04-04T17:08:50.999Z</time></trkpt><trkpt lat="38.92098889464144" lon="8.756620104008093"><ele>101.0</ele><time>2026-04-04T17:08:51.999Z</time></trkpt><trkpt lat="38.92102944300868" lon="8.756443282477683"><ele>101.5</ele><time>2026-04-04T17:08:52.999Z</time></trkpt><trkpt lat="38.9210585646592" lon="8.756240980096734"><ele>102.0</ele><time>2026-04-04T17:08:53.999Z</time></trkpt><trkpt lat="38.92108436105657" lon="8.756057069821235"><ele>102.5</ele><time>2026-04-04T17:08:54.999Z</time></trkpt><trkpt lat="38.92114537463229" lon="8.755907868656392"><ele>103.0</ele><time>2026-04-04T17:08:55.999Z</time></trkpt><trkpt lat="38.921207066453874" lon="8.755759291791719"><ele>98.0</ele><time>2026-04-04T17:08:56.999Z</time></trkpt><trkpt lat="38.92130460886605" lon="8.75562643130737"><ele>93.0</ele><time>2026-04-04T17:08:57.999Z</time></trkpt><trkpt lat="38.92140986457328" lon="8.755495669733367"><ele>88.0</ele><time>2026-04-04T17:08:58.999Z</time></trkpt><trkpt lat="38.92150914630718" lon="8.755360411725803"><ele>83.0</ele><time>2026-04-04T17:08:59.999Z</time></trkpt><trkpt lat="38.92160257105286" lon="8.755214346511645"><ele>84.0</ele><time>2026-04-04T17:09:00.999Z</time></trkpt><trkpt lat="38.921697508586384" lon="8.75505129965705"><ele>85.0</ele><time>2026-04-04T17:09:02Z</time></trkpt><trkpt lat="38.92179786754742" lon="8.754876093769761"><ele>86.0</ele><time>2026-04-04T17:09:03Z</time></trkpt><trkpt lat="38.92190090082821" lon="8.75469321064083"><ele>86.0</ele><time>2026-04-04T17:09:04Z</time></trkpt><trkpt lat="38.922000406510776" lon="8.754523582282381"><ele>86.0</ele><time>2026-04-04T17:09:05Z</time></trkpt><trkpt lat="38.92210139956266" lon="8.754375940787655"><ele>86.0</ele><time>2026-04-04T17:09:06Z</time></trkpt><trkpt lat="38.92220506210641" lon="8.75425304852071"><ele>79.5</ele><time>2026-04-04T17:09:07Z</time></trkpt><trkpt lat="38.92230430192077" lon="8.75413544404407"><ele>73.0</ele><time>2026-04-04T17:09:08Z</time></trkpt><trkpt lat="38.92238977470488" lon="8.75400965067571"><ele>66.5</ele><time>2026-04-04T17:09:09Z</time></trkpt><trkpt lat="38.92244604928985" lon="8.753874324727898"><ele>60.0</ele><time>2026-04-04T17:09:10Z</time></trkpt><trkpt lat="38.92246059263183" lon="8.753725163946651"><ele>60.0</ele><time>2026-04-04T17:09:11Z</time></trkpt><trkpt lat="38.92244327476759" lon="8.753549347239893"><ele>60.0</ele><time>2026-04-04T17:09:12Z</time></trkpt><trkpt lat="38.92240114787764" lon="8.75336392237993"><ele>60.0</ele><time>2026-04-04T17:09:13Z</time></trkpt><trkpt lat="38.92235834926189" lon="8.753177185279418"><ele>60.0</ele><time>2026-04-04T17:09:14Z</time></trkpt><trkpt lat="38.922320570740474" lon="8.752978131427762"><ele>59.0</ele><time>2026-04-04T17:09:15Z</time></trkpt><trkpt lat="38.922288956599864" lon="8.752799494050702"><ele>58.0</ele><time>2026-04-04T17:09:16Z</time></trkpt><trkpt lat="38.922271235534076" lon="8.752646769035561"><ele>57.0</ele><time>2026-04-04T17:09:17Z</time></trkpt><trkpt lat="38.922285821923275" lon="8.752523266270389"><ele>56.0</ele><time>2026-04-04T17:09:18Z</time></trkpt><trkpt lat="38.92234402016607" lon="8.752417625834061"><ele>54.199999999999996</ele><time>2026-04-04T17:09:19Z</time></trkpt><trkpt lat="38.9224075038998" lon="8.752322051257057"><ele>52.39999999999999</ele><time>2026-04-04T17:09:20Z</time></trkpt><trkpt lat="38.922489109063626" lon="8.75224542058691"><ele>50.6</ele><time>2026-04-04T17:09:21Z</time></trkpt><trkpt lat="38.92259085600567" lon="8.75217826150562"><ele>48.8</ele><time>2026-04-04T17:09:22Z</time></trkpt><trkpt lat="38.922700029126666" lon="8.752081361139531"><ele>47.0</ele><time>2026-04-04T17:09:23Z</time></trkpt><trkpt lat="38.922829441684996" lon="8.752003928594883"><ele>51.0</ele><time>2026-04-04T17:09:24Z</time></trkpt><trkpt lat="38.922955182435956" lon="8.75191250235964"><ele>55.0</ele><time>2026-04-04T17:09:25Z</time></trkpt><trkpt lat="38.923063267446" lon="8.751805921401777"><ele>59.0</ele><time>2026-04-04T17:09:26Z</time></trkpt><trkpt lat="38.92315319431148" lon="8.75166894329144"><ele>63.0</ele><time>2026-04-04T17:09:27Z</time></trkpt><trkpt lat="38.92323039810476" lon="8.751503587007635"><ele>63.0</ele><time>2026-04-04T17:09:28Z</time></trkpt><trkpt lat="38.92330776654836" lon="8.75133587287688"><ele>63.0</ele><time>2026-04-04T17:09:29Z</time></trkpt><trkpt lat="38.923400530964166" lon="8.75117770922592"><ele>63.0</ele><time>2026-04-04T17:09:30Z</time></trkpt><trkpt lat="38.92350765886592" lon="8.751022277416322"><ele>64.66666666666667</ele><time>2026-04-04T17:09:31Z</time></trkpt><trkpt lat="38.923623589992225" lon="8.750842241620619"><ele>66.33333333333334</ele><time>2026-04-04T17:09:32Z</time></trkpt><trkpt lat="38.923730067611054" lon="8.75064468398504"><ele>68.0</ele><time>2026-04-04T17:09:33Z</time></trkpt><trkpt lat="38.923821052222074" lon="8.750444306618446"><ele>68.0</ele><time>2026-04-04T17:09:34Z</time></trkpt><trkpt lat="38.9239122179996" lon="8.750223600918009"><ele>68.0</ele><time>2026-04-04T17:09:35Z</time></trkpt><trkpt lat="38.92400325488003" lon="8.749983416713235"><ele>68.0</ele><time>2026-04-04T17:09:36Z</time></trkpt><trkpt lat="38.9240926616114" lon="8.749732737744793"><ele>72.33333333333334</ele><time>2026-04-04T17:09:37Z</time></trkpt><trkpt lat="38.92418610444363" lon="8.74947289172922"><ele>76.66666666666667</ele><time>2026-04-04T17:09:38Z</time></trkpt><trkpt lat="38.92428046259754" lon="8.749214506829079"><ele>81.0</ele><time>2026-04-04T17:09:39Z</time></trkpt><trkpt lat="38.9243657546903" lon="8.74898303485879"><ele>81.0</ele><time>2026-04-04T17:09:40Z</time></trkpt><trkpt lat="38.92444186878906" lon="8.748776556514231"><ele>81.0</ele><time>2026-04-04T17:09:41Z</time></trkpt><trkpt lat="38.9245102807138" lon="8.74859465952819"><ele>81.0</ele><time>2026-04-04T17:09:42Z</time></trkpt><trkpt lat="38.92457941085258" lon="8.748446676402468"><ele>75.66666666666667</ele><time>2026-04-04T17:09:43Z</time></trkpt><trkpt lat="38.92467244209745" lon="8.748319280720942"><ele>70.33333333333334</ele><time>2026-04-04T17:09:44Z</time></trkpt><trkpt lat="38.92479175405457" lon="8.748198311112487"><ele>65.0</ele><time>2026-04-04T17:09:44.999Z</time></trkpt><trkpt lat="38.9249218280089" lon="8.748063202193546"><ele>65.0</ele><time>2026-04-04T17:09:45.999Z</time></trkpt><trkpt lat="38.925051928353376" lon="8.747921938386591"><ele>65.0</ele><time>2026-04-04T17:09:46.999Z</time></trkpt><trkpt lat="38.92518468039188" lon="8.747774540060023"><ele>65.0</ele><time>2026-04-04T17:09:47.999Z</time></trkpt><trkpt lat="38.92532031128824" lon="8.74762459975667"><ele>68.0</ele><time>2026-04-04T17:09:48.999Z</time></trkpt><trkpt lat="38.925456723291475" lon="8.747477952421074"><ele>71.0</ele><time>2026-04-04T17:09:49.999Z</time></trkpt><trkpt lat="38.925589800356796" lon="8.74733314354847"><ele>74.0</ele><time>2026-04-04T17:09:50.999Z</time></trkpt><trkpt lat="38.925716697330586" lon="8.747210314057616"><ele>74.0</ele><time>2026-04-04T17:09:51.999Z</time></trkpt><trkpt lat="38.92584747856579" lon="8.747146316142263"><ele>74.0</ele><time>2026-04-04T17:09:52.999Z</time></trkpt><trkpt lat="38.925983498486005" lon="8.747088069192344"><ele>74.0</ele><time>2026-04-04T17:09:53.999Z</time></trkpt><trkpt lat="38.926134892274476" lon="8.747042319226402"><ele>74.0</ele><time>2026-04-04T17:09:54.999Z</time></trkpt><trkpt lat="38.926286412456115" lon="8.746985629481143"><ele>74.25</ele><time>2026-04-04T17:09:55.999Z</time></trkpt><trkpt lat="38.926424057889065" lon="8.746939156489573"><ele>74.5</ele><time>2026-04-04T17:09:56.999Z</time></trkpt><trkpt lat="38.926543402596145" lon="8.746868340015581"><ele>74.75</ele><time>2026-04-04T17:09:57.999Z</time></trkpt><trkpt lat="38.92664641496293" lon="8.746771300462676"><ele>75.0</ele><time>2026-04-04T17:09:58.999Z</time></trkpt><trkpt lat="38.926740545567" lon="8.746651073707195"><ele>75.0</ele><time>2026-04-04T17:09:59.999Z</time></trkpt><trkpt lat="38.9268205609232" lon="8.746515065555519"><ele>75.0</ele><time>2026-04-04T17:10:00.999Z</time></trkpt><trkpt lat="38.92687322482392" lon="8.746369026268486"><ele>75.0</ele><time>2026-04-04T17:10:01.999Z</time></trkpt><trkpt lat="38.926908456885386" lon="8.74619924655819"><ele>75.0</ele><time>2026-04-04T17:10:02.999Z</time></trkpt><trkpt lat="38.92694025474756" lon="8.745996140942198"><ele>70.0</ele><time>2026-04-04T17:10:03.999Z</time></trkpt><trkpt lat="38.926976294698804" lon="8.745777444352942"><ele>65.0</ele><time>2026-04-04T17:10:04.999Z</time></trkpt><trkpt lat="38.92701528619601" lon="8.745571647918851"><ele>60.0</ele><time>2026-04-04T17:10:05.999Z</time></trkpt><trkpt lat="38.927056648655764" lon="8.745387591974362"><ele>60.0</ele><time>2026-04-04T17:10:06.999Z</time></trkpt><trkpt lat="38.9271044855355" lon="8.74522557700628"><ele>60.0</ele><time>2026-04-04T17:10:07.999Z</time></trkpt><trkpt lat="38.927168804490336" lon="8.745092758395575"><ele>60.0</ele><time>2026-04-04T17:10:08.999Z</time></trkpt><trkpt lat="38.927271693115046" lon="8.745015139294072"><ele>60.0</ele><time>2026-04-04T17:10:09.999Z</time></trkpt><trkpt lat="38.92738072833299" lon="8.744944613251722"><ele>56.33333333333333</ele><time>2026-04-04T17:10:10.999Z</time></trkpt><trkpt lat="38.92750523765237" lon="8.744846138133083"><ele>52.666666666666664</ele><time>2026-04-04T17:10:11.999Z</time></trkpt><trkpt lat="38.92765562796139" lon="8.744750771635596"><ele>49.0</ele><time>2026-04-04T17:10:12.999Z</time></trkpt><trkpt lat="38.92781766599537" lon="8.744617439458503"><ele>46.666666666666664</ele><time>2026-04-04T17:10:13.999Z</time></trkpt><trkpt lat="38.92797302915634" lon="8.74447075510239"><ele>44.33333333333333</ele><time>2026-04-04T17:10:14.999Z</time></trkpt><trkpt lat="38.928110742822376" lon="8.744340632500947"><ele>42.0</ele><time>2026-04-04T17:10:15.999Z</time></trkpt><trkpt lat="38.9282247121109" lon="8.7442287165045"><ele>41.0</ele><time>2026-04-04T17:10:16.999Z</time></trkpt><trkpt lat="38.92831438392844" lon="8.744100724409932"><ele>40.0</ele><time>2026-04-04T17:10:17.999Z</time></trkpt><trkpt lat="38.92837274049696" lon="8.743952976248028"><ele>39.0</ele><time>2026-04-04T17:10:18.999Z</time></trkpt><trkpt lat="38.92839121368209" lon="8.743807298194604"><ele>38.0</ele><time>2026-04-04T17:10:19.999Z</time></trkpt><trkpt lat="38.92837322525325" lon="8.743657523769514"><ele>36.25</ele><time>2026-04-04T17:10:20.999Z</time></trkpt><trkpt lat="38.92831653638598" lon="8.743500043230604"><ele>34.5</ele><time>2026-04-04T17:10:21.999Z</time></trkpt><trkpt lat="38.92824345371135" lon="8.74332173628091"><ele>32.75</ele><time>2026-04-04T17:10:22.999Z</time></trkpt><trkpt lat="38.92819464917562" lon="8.743152009817642"><ele>31.0</ele><time>2026-04-04T17:10:23.999Z</time></trkpt><trkpt lat="38.92818105865286" lon="8.742995141499032"><ele>31.0</ele><time>2026-04-04T17:10:24.999Z</time></trkpt><trkpt lat="38.92823156441066" lon="8.742857317215643"><ele>31.0</ele><time>2026-04-04T17:10:25.999Z</time></trkpt><trkpt lat="38.92830250419924" lon="8.742731308195026"><ele>31.0</ele><time>2026-04-04T17:10:26.999Z</time></trkpt><trkpt lat="38.928350247393155" lon="8.742604190908384"><ele>31.0</ele><time>2026-04-04T17:10:27.999Z</time></trkpt><trkpt lat="38.92836756719367" lon="8.742493740735155"><ele>31.0</ele><time>2026-04-04T17:10:28.999Z</time></trkpt><trkpt lat="38.92832068272231" lon="8.742391077629767"><ele>29.0</ele><time>2026-04-04T17:10:29.999Z</time></trkpt><trkpt lat="38.928228772765955" lon="8.742313280288096"><ele>27.0</ele><time>2026-04-04T17:10:30.999Z</time></trkpt><trkpt lat="38.928102992704346" lon="8.742263969080755"><ele>25.0</ele><time>2026-04-04T17:10:31.999Z</time></trkpt><trkpt lat="38.92795899979948" lon="8.742258564212118"><ele>23.0</ele><time>2026-04-04T17:10:32.999Z</time></trkpt><trkpt lat="38.92780826550293" lon="8.742298037797317"><ele>23.0</ele><time>2026-04-04T17:10:33.999Z</time></trkpt><trkpt lat="38.927666527928196" lon="8.742373313587153"><ele>23.0</ele><time>2026-04-04T17:10:34.999Z</time></trkpt><trkpt lat="38.92754880973086" lon="8.742421225202753"><ele>23.0</ele><time>2026-04-04T17:10:35.999Z</time></trkpt><trkpt lat="38.9274421782677" lon="8.742443991402393"><ele>23.0</ele><time>2026-04-04T17:10:36.999Z</time></trkpt><trkpt lat="38.92734017706299" lon="8.742425509241077"><ele>21.5</ele><time>2026-04-04T17:10:37.999Z</time></trkpt><trkpt lat="38.92725013122674" lon="8.742348372108927"><ele>20.0</ele><time>2026-04-04T17:10:38.999Z</time></trkpt><trkpt lat="38.927180252109856" lon="8.742238264161758"><ele>18.5</ele><time>2026-04-04T17:10:39.999Z</time></trkpt><trkpt lat="38.92712482766105" lon="8.742096041234012"><ele>17.0</ele><time>2026-04-04T17:10:40.999Z</time></trkpt><trkpt lat="38.927131573030955" lon="8.741904464190718"><ele>15.333333333333334</ele><time>2026-04-04T17:10:41.999Z</time></trkpt><trkpt lat="38.9271280645298" lon="8.7416846780631"><ele>13.666666666666668</ele><time>2026-04-04T17:10:42.999Z</time></trkpt><trkpt lat="38.92711700329869" lon="8.741455058989033"><ele>12.0</ele><time>2026-04-04T17:10:43.999Z</time></trkpt><trkpt lat="38.92711963512269" lon="8.741246673874553"><ele>10.333333333333334</ele><time>2026-04-04T17:10:44.999Z</time></trkpt><trkpt lat="38.92712381677494" lon="8.741042248347423"><ele>8.666666666666668</ele><time>2026-04-04T17:10:45.999Z</time></trkpt><trkpt lat="38.92716483343612" lon="8.740848020632848"><ele>7.0</ele><time>2026-04-04T17:10:46.999Z</time></trkpt><trkpt lat="38.92721465979155" lon="8.740648954659758"><ele>7.0</ele><time>2026-04-04T17:10:47.999Z</time></trkpt><trkpt lat="38.92725815691386" lon="8.740461266596983"><ele>7.0</ele><time>2026-04-04T17:10:48.999Z</time></trkpt><trkpt lat="38.92732478755811" lon="8.740313956629139"><ele>7.0</ele><time>2026-04-04T17:10:49.999Z</time></trkpt><trkpt lat="38.92742312029333" lon="8.740211565092"><ele>7.0</ele><time>2026-04-04T17:10:50.999Z</time></trkpt><trkpt lat="38.927521454913425" lon="8.740086145397907"><ele>8.666666666666668</ele><time>2026-04-04T17:10:51.999Z</time></trkpt><trkpt lat="38.92764761778829" lon="8.739991103669428"><ele>10.333333333333334</ele><time>2026-04-04T17:10:52.999Z</time></trkpt><trkpt lat="38.9277886216988" lon="8.739917421131548"><ele>12.0</ele><time>2026-04-04T17:10:53.999Z</time></trkpt><trkpt lat="38.92794086172416" lon="8.739863114249882"><ele>12.0</ele><time>2026-04-04T17:10:54.999Z</time></trkpt><trkpt lat="38.928098443325666" lon="8.739800310286341"><ele>12.0</ele><time>2026-04-04T17:10:55.999Z</time></trkpt><trkpt lat="38.92827214825106" lon="8.739719637897783"><ele>12.0</ele><time>2026-04-04T17:10:56.999Z</time></trkpt><trkpt lat="38.928457126319" lon="8.73963133287347"><ele>14.75</ele><time>2026-04-04T17:10:57.999Z</time></trkpt><trkpt lat="38.9286314980423" lon="8.739555863951614"><ele>17.5</ele><time>2026-04-04T17:10:58.999Z</time></trkpt><trkpt lat="38.928770094929725" lon="8.73950317018788"><ele>20.25</ele><time>2026-04-04T17:10:59.999Z</time></trkpt><trkpt lat="38.9288866562637" lon="8.739485936497612"><ele>23.0</ele><time>2026-04-04T17:11:00.999Z</time></trkpt><trkpt lat="38.92899893706352" lon="8.739509571071533"><ele>23.0</ele><time>2026-04-04T17:11:01.999Z</time></trkpt><trkpt lat="38.92910672920958" lon="8.739601573040122"><ele>23.0</ele><time>2026-04-04T17:11:02.999Z</time></trkpt><trkpt lat="38.92923577752465" lon="8.739689554584146"><ele>23.0</ele><time>2026-04-04T17:11:03.999Z</time></trkpt><trkpt lat="38.92936190124224" lon="8.739800454741983"><ele>23.0</ele><time>2026-04-04T17:11:04.999Z</time></trkpt><trkpt lat="38.92950184567807" lon="8.73987932175202"><ele>25.0</ele><time>2026-04-04T17:11:05.999Z</time></trkpt><trkpt lat="38.92965419640333" lon="8.739912377435981"><ele>27.0</ele><time>2026-04-04T17:11:06.999Z</time></trkpt><trkpt lat="38.929822603013996" lon="8.739901184388794"><ele>29.0</ele><time>2026-04-04T17:11:08Z</time></trkpt><trkpt lat="38.930003076743596" lon="8.739876742693365"><ele>33.0</ele><time>2026-04-04T17:11:09Z</time></trkpt><trkpt lat="38.930188097591795" lon="8.739863749282494"><ele>37.0</ele><time>2026-04-04T17:11:10Z</time></trkpt><trkpt lat="38.93033895158233" lon="8.739844822502517"><ele>41.0</ele><time>2026-04-04T17:11:11Z</time></trkpt><trkpt lat="38.930446693047045" lon="8.739799406168695"><ele>41.0</ele><time>2026-04-04T17:11:12Z</time></trkpt><trkpt lat="38.93053070984015" lon="8.739715685348854"><ele>41.0</ele><time>2026-04-04T17:11:13Z</time></trkpt><trkpt lat="38.93059976452329" lon="8.739579461815444"><ele>41.0</ele><time>2026-04-04T17:11:14Z</time></trkpt><trkpt lat="38.93064941920281" lon="8.739396538329524"><ele>41.0</ele><time>2026-04-04T17:11:15Z</time></trkpt><trkpt lat="38.93068601990412" lon="8.739191104828922"><ele>42.0</ele><time>2026-04-04T17:11:16Z</time></trkpt><trkpt lat="38.93072676542882" lon="8.739024601038539"><ele>43.0</ele><time>2026-04-04T17:11:17Z</time></trkpt><trkpt lat="38.93079367735323" lon="8.738909268412353"><ele>44.0</ele><time>2026-04-04T17:11:18Z</time></trkpt><trkpt lat="38.93089994538486" lon="8.738873619108373"><ele>45.0</ele><time>2026-04-04T17:11:19Z</time></trkpt><trkpt lat="38.931003875736785" lon="8.738853327424362"><ele>48.75</ele><time>2026-04-04T17:11:20Z</time></trkpt><trkpt lat="38.931138377134126" lon="8.738830842834636"><ele>52.5</ele><time>2026-04-04T17:11:21Z</time></trkpt><trkpt lat="38.93128373326397" lon="8.738797381731079"><ele>56.25</ele><time>2026-04-04T17:11:22Z</time></trkpt><trkpt lat="38.93144587852834" lon="8.73877183438793"><ele>60.0</ele><time>2026-04-04T17:11:23Z</time></trkpt><trkpt lat="38.931627270096286" lon="8.738739343471488"><ele>64.66666666666667</ele><time>2026-04-04T17:11:24Z</time></trkpt><trkpt lat="38.931824907999825" lon="8.738708702294094"><ele>69.33333333333334</ele><time>2026-04-04T17:11:24.999Z</time></trkpt><trkpt lat="38.93200762944847" lon="8.738678232350322"><ele>74.0</ele><time>2026-04-04T17:11:25.999Z</time></trkpt><trkpt lat="38.932152342952776" lon="8.738644758960582"><ele>74.0</ele><time>2026-04-04T17:11:26.999Z</time></trkpt><trkpt lat="38.93226470993679" lon="8.738587790266358"><ele>74.0</ele><time>2026-04-04T17:11:27.999Z</time></trkpt><trkpt lat="38.93235067777582" lon="8.738490848764538"><ele>74.0</ele><time>2026-04-04T17:11:28.999Z</time></trkpt><trkpt lat="38.93240364295096" lon="8.738370478911838"><ele>74.0</ele><time>2026-04-04T17:11:29.999Z</time></trkpt><trkpt lat="38.93241656089354" lon="8.738241364570484"><ele>74.0</ele><time>2026-04-04T17:11:30.999Z</time></trkpt><trkpt lat="38.93238561018867" lon="8.738112229300205"><ele>71.0</ele><time>2026-04-04T17:11:31.999Z</time></trkpt><trkpt lat="38.932313327742904" lon="8.737999881822658"><ele>68.0</ele><time>2026-04-04T17:11:32.999Z</time></trkpt><trkpt lat="38.932207914787085" lon="8.737922875048293"><ele>65.0</ele><time>2026-04-04T17:11:33.999Z</time></trkpt><trkpt lat="38.93207978502907" lon="8.737887116020206"><ele>62.0</ele><time>2026-04-04T17:11:34.999Z</time></trkpt><trkpt lat="38.93193343512226" lon="8.737858327421208"><ele>62.0</ele><time>2026-04-04T17:11:35.999Z</time></trkpt><trkpt lat="38.93178572964452" lon="8.737797662275604"><ele>62.0</ele><time>2026-04-04T17:11:36.999Z</time></trkpt><trkpt lat="38.93161911346891" lon="8.737695832008997"><ele>62.0</ele><time>2026-04-04T17:11:37.999Z</time></trkpt><trkpt lat="38.931432334299146" lon="8.737590630304076"><ele>63.333333333333336</ele><time>2026-04-04T17:11:38.999Z</time></trkpt><trkpt lat="38.93124056107735" lon="8.737486911828139"><ele>64.66666666666667</ele><time>2026-04-04T17:11:39.999Z</time></trkpt><trkpt lat="38.931052718269896" lon="8.73738820040939"><ele>66.0</ele><time>2026-04-04T17:11:40.999Z</time></trkpt><trkpt lat="38.93086511014376" lon="8.737281923768935"><ele>59.666666666666664</ele><time>2026-04-04T17:11:41.999Z</time></trkpt><trkpt lat="38.93069358197449" lon="8.737180467273467"><ele>53.33333333333333</ele><time>2026-04-04T17:11:42.999Z</time></trkpt><trkpt lat="38.93054675831759" lon="8.737083550124412"><ele>47.0</ele><time>2026-04-04T17:11:43.999Z</time></trkpt><trkpt lat="38.93042761448007" lon="8.736983930628869"><ele>52.0</ele><time>2026-04-04T17:11:44.999Z</time></trkpt><trkpt lat="38.930346495999586" lon="8.736867309390533"><ele>57.0</ele><time>2026-04-04T17:11:45.999Z</time></trkpt><trkpt lat="38.93030319142855" lon="8.736726279984472"><ele>62.0</ele><time>2026-04-04T17:11:46.999Z</time></trkpt><trkpt lat="38.93028103782219" lon="8.736564876967819"><ele>67.0</ele><time>2026-04-04T17:11:47.999Z</time></trkpt><trkpt lat="38.93026549463102" lon="8.736388440607277"><ele>67.0</ele><time>2026-04-04T17:11:48.999Z</time></trkpt><trkpt lat="38.93025450532637" lon="8.736218279928133"><ele>67.0</ele><time>2026-04-04T17:11:49.999Z</time></trkpt><trkpt lat="38.930257196207364" lon="8.736076374265595"><ele>67.0</ele><time>2026-04-04T17:11:50.999Z</time></trkpt><trkpt lat="38.930269507948246" lon="8.735952249715464"><ele>67.0</ele><time>2026-04-04T17:11:51.999Z</time></trkpt><trkpt lat="38.930290981541305" lon="8.735839177845271"><ele>67.0</ele><time>2026-04-04T17:11:52.999Z</time></trkpt><trkpt lat="38.930320266971876" lon="8.735737792305567"><ele>66.2</ele><time>2026-04-04T17:11:53.999Z</time></trkpt><trkpt lat="38.93035429522415" lon="8.735655830292131"><ele>65.4</ele><time>2026-04-04T17:11:54.999Z</time></trkpt><trkpt lat="38.93041932396433" lon="8.735558350142988"><ele>64.6</ele><time>2026-04-04T17:11:56.999Z</time></trkpt><trkpt lat="38.93047340871718" lon="8.735511161878229"><ele>63.8</ele><time>2026-04-04T17:12:01.999Z</time></trkpt><trkpt lat="38.93037673515648" lon="8.735333632807373"><ele>63.0</ele><time>2026-04-04T17:12:03.998Z</time></trkpt><trkpt lat="38.93030888924122" lon="8.73536180480476"><ele>63.0</ele><time>2026-04-04T17:23:08Z</time></trkpt><trkpt lat="38.93027312043637" lon="8.735429800694156"><ele>63.0</ele><time>2026-04-04T17:23:17Z</time></trkpt><trkpt lat="38.9303278758914" lon="8.735500981568084"><ele>63.0</ele><time>2026-04-04T17:23:20Z</time></trkpt><trkpt lat="38.93040746927776" lon="8.73552240697545"><ele>63.0</ele><time>2026-04-04T17:23:23Z</time></trkpt><trkpt lat="38.930487728243804" lon="8.73551764151452"><ele>63.0</ele><time>2026-04-04T17:23:26Z</time></trkpt><trkpt lat="38.93054697022569" lon="8.735487918873082"><ele>63.0</ele><time>2026-04-04T17:23:28Z</time></trkpt><trkpt lat="38.9306044354873" lon="8.735450872732882"><ele>63.0</ele><time>2026-04-04T17:23:30Z</time></trkpt><trkpt lat="38.93071350169433" lon="8.735408050409061"><ele>63.0</ele><time>2026-04-04T17:23:31.999Z</time></trkpt><trkpt lat="38.93077855969766" lon="8.735387187818402"><ele>63.0</ele><time>2026-04-04T17:23:32.999Z</time></trkpt><trkpt lat="38.930889678848466" lon="8.73535123389492"><ele>63.0</ele><time>2026-04-04T17:23:34.999Z</time></trkpt><trkpt lat="38.93095347863816" lon="8.735305108367784"><ele>63.0</ele><time>2026-04-04T17:23:35.999Z</time></trkpt><trkpt lat="38.93101181898475" lon="8.735248280511712"><ele>63.0</ele><time>2026-04-04T17:23:36.999Z</time></trkpt><trkpt lat="38.931055992785886" lon="8.735172094272881"><ele>63.0</ele><time>2026-04-04T17:23:37.999Z</time></trkpt><trkpt lat="38.93108399657915" lon="8.735068144155619"><ele>65.6</ele><time>2026-04-04T17:23:38.999Z</time></trkpt><trkpt lat="38.93108908231237" lon="8.734953027967135"><ele>68.19999999999999</ele><time>2026-04-04T17:23:39.999Z</time></trkpt><trkpt lat="38.93107665201266" lon="8.73482934508867"><ele>70.8</ele><time>2026-04-04T17:23:40.999Z</time></trkpt><trkpt lat="38.931063698893375" lon="8.734697451971059"><ele>73.39999999999999</ele><time>2026-04-04T17:23:41.999Z</time></trkpt><trkpt lat="38.93105557223453" lon="8.734562043544939"><ele>76.0</ele><time>2026-04-04T17:23:43Z</time></trkpt><trkpt lat="38.93106121040887" lon="8.73444730925479"><ele>74.0</ele><time>2026-04-04T17:23:44Z</time></trkpt><trkpt lat="38.9310752447911" lon="8.73434564160428"><ele>72.0</ele><time>2026-04-04T17:23:45Z</time></trkpt><trkpt lat="38.931100387249764" lon="8.734260283530443"><ele>70.0</ele><time>2026-04-04T17:23:46Z</time></trkpt><trkpt lat="38.931136343524386" lon="8.734177318616695"><ele>68.0</ele><time>2026-04-04T17:23:47Z</time></trkpt><trkpt lat="38.93118316625021" lon="8.734096312843679"><ele>66.0</ele><time>2026-04-04T17:23:48Z</time></trkpt><trkpt lat="38.93123916064971" lon="8.734010314339814"><ele>64.0</ele><time>2026-04-04T17:23:49Z</time></trkpt><trkpt lat="38.93130138869118" lon="8.733920181573879"><ele>64.0</ele><time>2026-04-04T17:23:50Z</time></trkpt><trkpt lat="38.931377447426975" lon="8.733813786347065"><ele>64.0</ele><time>2026-04-04T17:23:51Z</time></trkpt><trkpt lat="38.93146414438813" lon="8.733691542937526"><ele>64.0</ele><time>2026-04-04T17:23:52Z</time></trkpt><trkpt lat="38.93153737268467" lon="8.733585196762462"><ele>64.0</ele><time>2026-04-04T17:23:53Z</time></trkpt><trkpt lat="38.93159576206039" lon="8.733485720080779"><ele>64.0</ele><time>2026-04-04T17:23:54Z</time></trkpt><trkpt lat="38.93164613919926" lon="8.73339493422725"><ele>64.25</ele><time>2026-04-04T17:23:55Z</time></trkpt><trkpt lat="38.93169492011711" lon="8.733302541567351"><ele>64.5</ele><time>2026-04-04T17:23:56Z</time></trkpt><trkpt lat="38.931716677544" lon="8.733193247739326"><ele>64.75</ele><time>2026-04-04T17:23:57Z</time></trkpt><trkpt lat="38.93173376365593" lon="8.732984210898033"><ele>65.0</ele><time>2026-04-04T17:23:58Z</time></trkpt><trkpt lat="38.93168419383669" lon="8.732814754356966"><ele>57.5</ele><time>2026-04-04T17:23:59Z</time></trkpt><trkpt lat="38.931611317805974" lon="8.732652741100917"><ele>50.0</ele><time>2026-04-04T17:24:00Z</time></trkpt><trkpt lat="38.931564349773026" lon="8.732518841052368"><ele>42.5</ele><time>2026-04-04T17:24:01Z</time></trkpt><trkpt lat="38.931549923914886" lon="8.732386024107969"><ele>35.0</ele><time>2026-04-04T17:24:02Z</time></trkpt><trkpt lat="38.931567261745144" lon="8.73224606174776"><ele>35.0</ele><time>2026-04-04T17:24:03Z</time></trkpt><trkpt lat="38.9316318545964" lon="8.732137571054034"><ele>35.0</ele><time>2026-04-04T17:24:04Z</time></trkpt><trkpt lat="38.93169939927545" lon="8.732060850122473"><ele>35.0</ele><time>2026-04-04T17:24:05Z</time></trkpt><trkpt lat="38.93178184948787" lon="8.732009944952898"><ele>35.0</ele><time>2026-04-04T17:24:06Z</time></trkpt><trkpt lat="38.93187509327994" lon="8.731986909640339"><ele>35.0</ele><time>2026-04-04T17:24:07Z</time></trkpt><trkpt lat="38.93199239922948" lon="8.73195952445186"><ele>35.5</ele><time>2026-04-04T17:24:08Z</time></trkpt><trkpt lat="38.932110434457606" lon="8.731892711121844"><ele>36.0</ele><time>2026-04-04T17:24:09Z</time></trkpt><trkpt lat="38.932219426968274" lon="8.731821826410988"><ele>36.5</ele><time>2026-04-04T17:24:10Z</time></trkpt><trkpt lat="38.93230552197738" lon="8.731726602318478"><ele>37.0</ele><time>2026-04-04T17:24:11Z</time></trkpt><trkpt lat="38.93235518942301" lon="8.731608314095965"><ele>37.0</ele><time>2026-04-04T17:24:12Z</time></trkpt><trkpt lat="38.932368488518286" lon="8.731480713263055"><ele>37.0</ele><time>2026-04-04T17:24:13Z</time></trkpt><trkpt lat="38.93235748105865" lon="8.731331493285353"><ele>37.0</ele><time>2026-04-04T17:24:14Z</time></trkpt><trkpt lat="38.93231650922029" lon="8.731168159925014"><ele>37.0</ele><time>2026-04-04T17:24:15Z</time></trkpt><trkpt lat="38.932274124698964" lon="8.730999505616564"><ele>34.0</ele><time>2026-04-04T17:24:16Z</time></trkpt><trkpt lat="38.93226975470386" lon="8.730843799406612"><ele>31.0</ele><time>2026-04-04T17:24:17Z</time></trkpt><trkpt lat="38.93230398465028" lon="8.730703048537361"><ele>28.0</ele><time>2026-04-04T17:24:18Z</time></trkpt><trkpt lat="38.93238994058612" lon="8.730612850637993"><ele>25.0</ele><time>2026-04-04T17:24:19Z</time></trkpt><trkpt lat="38.93247485401717" lon="8.730482385018593"><ele>23.5</ele><time>2026-04-04T17:24:20Z</time></trkpt><trkpt lat="38.93258026195406" lon="8.730375243122792"><ele>22.0</ele><time>2026-04-04T17:24:21Z</time></trkpt><trkpt lat="38.932688838213394" lon="8.730283626418313"><ele>20.5</ele><time>2026-04-04T17:24:22Z</time></trkpt><trkpt lat="38.93279385203843" lon="8.730221197070348"><ele>19.0</ele><time>2026-04-04T17:24:23Z</time></trkpt><trkpt lat="38.93290810622543" lon="8.730182774991983"><ele>19.0</ele><time>2026-04-04T17:24:24Z</time></trkpt><trkpt lat="38.933037875016225" lon="8.730170246942007"><ele>19.0</ele><time>2026-04-04T17:24:25Z</time></trkpt><trkpt lat="38.93316418236355" lon="8.730172764834013"><ele>19.0</ele><time>2026-04-04T17:24:26Z</time></trkpt><trkpt lat="38.93327618726091" lon="8.730156640762997"><ele>19.0</ele><time>2026-04-04T17:24:27Z</time></trkpt><trkpt lat="38.933373581615285" lon="8.730089104420788"><ele>23.5</ele><time>2026-04-04T17:24:28Z</time></trkpt><trkpt lat="38.933460582863475" lon="8.729963010619974"><ele>28.0</ele><time>2026-04-04T17:24:29Z</time></trkpt><trkpt lat="38.93353044080934" lon="8.729796147360359"><ele>32.5</ele><time>2026-04-04T17:24:30Z</time></trkpt><trkpt lat="38.93359141546451" lon="8.729616718574702"><ele>37.0</ele><time>2026-04-04T17:24:31Z</time></trkpt><trkpt lat="38.9336922429038" lon="8.729462588030012"><ele>30.666666666666668</ele><time>2026-04-04T17:24:32Z</time></trkpt><trkpt lat="38.93382286811216" lon="8.729321850935895"><ele>24.333333333333336</ele><time>2026-04-04T17:24:33Z</time></trkpt><trkpt lat="38.9339432944353" lon="8.72916524886806"><ele>18.0</ele><time>2026-04-04T17:24:34Z</time></trkpt><trkpt lat="38.93407118719684" lon="8.729034897441766"><ele>18.0</ele><time>2026-04-04T17:24:35Z</time></trkpt><trkpt lat="38.93420886621806" lon="8.728883818440103"><ele>18.0</ele><time>2026-04-04T17:24:36Z</time></trkpt><trkpt lat="38.93436487125895" lon="8.728718930345215"><ele>18.0</ele><time>2026-04-04T17:24:37Z</time></trkpt><trkpt lat="38.93452771825221" lon="8.728543883310305"><ele>17.0</ele><time>2026-04-04T17:24:38Z</time></trkpt><trkpt lat="38.93467671890358" lon="8.728377669445422"><ele>16.0</ele><time>2026-04-04T17:24:39Z</time></trkpt><trkpt lat="38.934821459292934" lon="8.728216435139439"><ele>15.0</ele><time>2026-04-04T17:24:40Z</time></trkpt><trkpt lat="38.93497232740362" lon="8.728058313187619"><ele>13.666666666666666</ele><time>2026-04-04T17:24:41Z</time></trkpt><trkpt lat="38.935143109363295" lon="8.727939493318468"><ele>12.333333333333332</ele><time>2026-04-04T17:24:42Z</time></trkpt><trkpt lat="38.935305884077295" lon="8.727792316321862"><ele>11.0</ele><time>2026-04-04T17:24:43Z</time></trkpt><trkpt lat="38.93546199306698" lon="8.727643502105233"><ele>11.0</ele><time>2026-04-04T17:24:44Z</time></trkpt><trkpt lat="38.93561547601864" lon="8.72753690861483"><ele>11.0</ele><time>2026-04-04T17:24:45Z</time></trkpt><trkpt lat="38.93576669350411" lon="8.72748386455654"><ele>11.0</ele><time>2026-04-04T17:24:46Z</time></trkpt><trkpt lat="38.93589231587488" lon="8.727385191801345"><ele>15.0</ele><time>2026-04-04T17:24:47Z</time></trkpt><trkpt lat="38.93601690773337" lon="8.727289416358596"><ele>19.0</ele><time>2026-04-04T17:24:48Z</time></trkpt><trkpt lat="38.936132487254504" lon="8.727157736508419"><ele>23.0</ele><time>2026-04-04T17:24:49Z</time></trkpt><trkpt lat="38.93622889755997" lon="8.727001972241567"><ele>19.0</ele><time>2026-04-04T17:24:50Z</time></trkpt><trkpt lat="38.93630797493106" lon="8.726823621061378"><ele>15.0</ele><time>2026-04-04T17:24:51Z</time></trkpt><trkpt lat="38.93637808516003" lon="8.726637512049335"><ele>11.0</ele><time>2026-04-04T17:24:52Z</time></trkpt><trkpt lat="38.93644269327383" lon="8.726461542719877"><ele>11.0</ele><time>2026-04-04T17:24:53Z</time></trkpt><trkpt lat="38.93650822359646" lon="8.726304003023694"><ele>11.0</ele><time>2026-04-04T17:24:54Z</time></trkpt><trkpt lat="38.9365938148898" lon="8.726186851786231"><ele>11.0</ele><time>2026-04-04T17:24:55Z</time></trkpt><trkpt lat="38.93668547419594" lon="8.72609724274262"><ele>11.0</ele><time>2026-04-04T17:24:56Z</time></trkpt><trkpt lat="38.93677354033724" lon="8.725989187994399"><ele>12.0</ele><time>2026-04-04T17:24:57Z</time></trkpt><trkpt lat="38.93687749668088" lon="8.725886496738312"><ele>13.0</ele><time>2026-04-04T17:24:58Z</time></trkpt><trkpt lat="38.93697085937795" lon="8.72576312875942"><ele>14.0</ele><time>2026-04-04T17:24:59Z</time></trkpt><trkpt lat="38.937060206368656" lon="8.725625680816455"><ele>15.0</ele><time>2026-04-04T17:25:00Z</time></trkpt><trkpt lat="38.937157474391306" lon="8.725478275496132"><ele>15.0</ele><time>2026-04-04T17:25:01Z</time></trkpt><trkpt lat="38.937253910113576" lon="8.725333613086448"><ele>15.0</ele><time>2026-04-04T17:25:02Z</time></trkpt><trkpt lat="38.93734523675258" lon="8.725183163088607"><ele>15.0</ele><time>2026-04-04T17:25:03Z</time></trkpt><trkpt lat="38.93743394852445" lon="8.725023489542622"><ele>15.0</ele><time>2026-04-04T17:25:04Z</time></trkpt><trkpt lat="38.937522988144934" lon="8.724853191122827"><ele>15.666666666666668</ele><time>2026-04-04T17:25:05Z</time></trkpt><trkpt lat="38.937610033648554" lon="8.724679033419246"><ele>16.333333333333336</ele><time>2026-04-04T17:25:06Z</time></trkpt><trkpt lat="38.937696946081786" lon="8.724495196012455"><ele>17.0</ele><time>2026-04-04T17:25:07Z</time></trkpt><trkpt lat="38.93777327866916" lon="8.724326430150859"><ele>17.0</ele><time>2026-04-04T17:25:08Z</time></trkpt><trkpt lat="38.937845793409025" lon="8.72415791452667"><ele>17.0</ele><time>2026-04-04T17:25:09Z</time></trkpt><trkpt lat="38.9379162716238" lon="8.72398909113316"><ele>17.0</ele><time>2026-04-04T17:25:10Z</time></trkpt><trkpt lat="38.93799157022838" lon="8.723839111870333"><ele>17.0</ele><time>2026-04-04T17:25:11Z</time></trkpt><trkpt lat="38.938079128561164" lon="8.723726031175428"><ele>17.0</ele><time>2026-04-04T17:25:12Z</time></trkpt><trkpt lat="38.938178578471934" lon="8.723642871762673"><ele>17.0</ele><time>2026-04-04T17:25:13Z</time></trkpt><trkpt lat="38.93829329494815" lon="8.723578363067377"><ele>17.0</ele><time>2026-04-04T17:25:14Z</time></trkpt><trkpt lat="38.938414442695475" lon="8.723536672770692"><ele>17.0</ele><time>2026-04-04T17:25:15Z</time></trkpt><trkpt lat="38.93852907386074" lon="8.723560075797936"><ele>15.0</ele><time>2026-04-04T17:25:16Z</time></trkpt><trkpt lat="38.938633648479794" lon="8.723571748805966"><ele>13.0</ele><time>2026-04-04T17:25:17Z</time></trkpt><trkpt lat="38.938744912588895" lon="8.723634469521418"><ele>11.0</ele><time>2026-04-04T17:25:18Z</time></trkpt><trkpt lat="38.938858313829776" lon="8.72371053423537"><ele>9.0</ele><time>2026-04-04T17:25:19Z</time></trkpt><trkpt lat="38.93895536756404" lon="8.723838906581562"><ele>9.0</ele><time>2026-04-04T17:25:20Z</time></trkpt><trkpt lat="38.93906793353236" lon="8.723968904535942"><ele>9.0</ele><time>2026-04-04T17:25:21Z</time></trkpt><trkpt lat="38.939197770521105" lon="8.724092975782217"><ele>9.0</ele><time>2026-04-04T17:25:22Z</time></trkpt><trkpt lat="38.93931959450706" lon="8.724239606398934"><ele>7.333333333333333</ele><time>2026-04-04T17:25:23Z</time></trkpt><trkpt lat="38.93944234496913" lon="8.724383989059742"><ele>5.666666666666666</ele><time>2026-04-04T17:25:24Z</time></trkpt><trkpt lat="38.939560797728426" lon="8.724516863023673"><ele>4.0</ele><time>2026-04-04T17:25:25Z</time></trkpt><trkpt lat="38.939666399884665" lon="8.724631765016191"><ele>4.0</ele><time>2026-04-04T17:25:26Z</time></trkpt><trkpt lat="38.93977053804398" lon="8.724734273481603"><ele>4.0</ele><time>2026-04-04T17:25:26.999Z</time></trkpt><trkpt lat="38.93987647491936" lon="8.72481814834094"><ele>4.0</ele><time>2026-04-04T17:25:27.999Z</time></trkpt><trkpt lat="38.939999000651326" lon="8.724889685351133"><ele>4.0</ele><time>2026-04-04T17:25:28.999Z</time></trkpt><trkpt lat="38.94013356541825" lon="8.724946297538121"><ele>3.333333333333333</ele><time>2026-04-04T17:25:29.999Z</time></trkpt><trkpt lat="38.94028482901745" lon="8.724999835119068"><ele>2.6666666666666665</ele><time>2026-04-04T17:25:30.999Z</time></trkpt><trkpt lat="38.9404457978677" lon="8.725057630904944"><ele>2.0</ele><time>2026-04-04T17:25:31.999Z</time></trkpt><trkpt lat="38.94060968465998" lon="8.72512472282641"><ele>2.0</ele><time>2026-04-04T17:25:32.999Z</time></trkpt><trkpt lat="38.94077562185393" lon="8.725192094661091"><ele>2.0</ele><time>2026-04-04T17:25:33.999Z</time></trkpt><trkpt lat="38.94094484032856" lon="8.72525878657684"><ele>2.0</ele><time>2026-04-04T17:25:34.999Z</time></trkpt><trkpt lat="38.941115813442536" lon="8.725349051409081"><ele>2.6666666666666665</ele><time>2026-04-04T17:25:35.999Z</time></trkpt><trkpt lat="38.94130858112485" lon="8.72539366376274"><ele>3.333333333333333</ele><time>2026-04-04T17:25:36.999Z</time></trkpt><trkpt lat="38.94151904282692" lon="8.72544733979702"><ele>4.0</ele><time>2026-04-04T17:25:37.999Z</time></trkpt><trkpt lat="38.94174430605209" lon="8.725479939765195"><ele>4.0</ele><time>2026-04-04T17:25:38.999Z</time></trkpt><trkpt lat="38.94195967137515" lon="8.72550115634491"><ele>4.0</ele><time>2026-04-04T17:25:39.999Z</time></trkpt><trkpt lat="38.942171445862144" lon="8.725527947010043"><ele>4.0</ele><time>2026-04-04T17:25:40.999Z</time></trkpt><trkpt lat="38.94238877543887" lon="8.72555766904469"><ele>4.333333333333333</ele><time>2026-04-04T17:25:41.999Z</time></trkpt><trkpt lat="38.9426079907789" lon="8.725581176713296"><ele>4.666666666666667</ele><time>2026-04-04T17:25:42.999Z</time></trkpt><trkpt lat="38.942827534316166" lon="8.725603203853222"><ele>5.0</ele><time>2026-04-04T17:25:43.999Z</time></trkpt><trkpt lat="38.94305282400306" lon="8.725624505471284"><ele>5.0</ele><time>2026-04-04T17:25:44.999Z</time></trkpt><trkpt lat="38.94327721039863" lon="8.725641743780216"><ele>5.0</ele><time>2026-04-04T17:25:45.999Z</time></trkpt><trkpt lat="38.94350163306846" lon="8.725657603443189"><ele>7.5</ele><time>2026-04-04T17:25:46.999Z</time></trkpt><trkpt lat="38.94372527766879" lon="8.725670613132849"><ele>10.0</ele><time>2026-04-04T17:25:47.999Z</time></trkpt><trkpt lat="38.94395216125804" lon="8.72568067003368"><ele>10.0</ele><time>2026-04-04T17:25:49Z</time></trkpt><trkpt lat="38.944174199867945" lon="8.725695420527417"><ele>10.0</ele><time>2026-04-04T17:25:50Z</time></trkpt><trkpt lat="38.944400430371545" lon="8.725714136851204"><ele>10.0</ele><time>2026-04-04T17:25:51Z</time></trkpt><trkpt lat="38.94461734993085" lon="8.725728829970544"><ele>10.0</ele><time>2026-04-04T17:25:52Z</time></trkpt><trkpt lat="38.94483769799763" lon="8.725741995612063"><ele>10.0</ele><time>2026-04-04T17:25:53Z</time></trkpt><trkpt lat="38.94503742141978" lon="8.72575287077312"><ele>10.0</ele><time>2026-04-04T17:25:54Z</time></trkpt><trkpt lat="38.94522039953457" lon="8.72576496591732"><ele>9.0</ele><time>2026-04-04T17:25:55Z</time></trkpt><trkpt lat="38.945394058933836" lon="8.725784270636249"><ele>8.0</ele><time>2026-04-04T17:25:56Z</time></trkpt><trkpt lat="38.94557045388368" lon="8.725821645652433"><ele>7.0</ele><time>2026-04-04T17:25:57Z</time></trkpt><trkpt lat="38.94575098597571" lon="8.725875650026454"><ele>6.666666666666667</ele><time>2026-04-04T17:25:58Z</time></trkpt><trkpt lat="38.94594133626063" lon="8.725933803944098"><ele>6.333333333333334</ele><time>2026-04-04T17:25:59Z</time></trkpt><trkpt lat="38.946135198720135" lon="8.725989943564022"><ele>6.0</ele><time>2026-04-04T17:26:00Z</time></trkpt><trkpt lat="38.94633211392662" lon="8.72604469912383"><ele>6.666666666666666</ele><time>2026-04-04T17:26:01Z</time></trkpt><trkpt lat="38.94651157302514" lon="8.726106166561754"><ele>7.333333333333333</ele><time>2026-04-04T17:26:02Z</time></trkpt><trkpt lat="38.94667953640482" lon="8.726153338329334"><ele>8.0</ele><time>2026-04-04T17:26:03Z</time></trkpt><trkpt lat="38.94685186797941" lon="8.726217937949352"><ele>8.0</ele><time>2026-04-04T17:26:04Z</time></trkpt><trkpt lat="38.947019216972606" lon="8.726322640680177"><ele>8.0</ele><time>2026-04-04T17:26:05Z</time></trkpt><trkpt lat="38.9471976804552" lon="8.726437611691395"><ele>8.0</ele><time>2026-04-04T17:26:06Z</time></trkpt><trkpt lat="38.94738132050494" lon="8.726558248831749"><ele>7.333333333333333</ele><time>2026-04-04T17:26:07Z</time></trkpt><trkpt lat="38.94757216089976" lon="8.72668063510167"><ele>6.666666666666666</ele><time>2026-04-04T17:26:08Z</time></trkpt><trkpt lat="38.94776807499095" lon="8.726785294957297"><ele>6.0</ele><time>2026-04-04T17:26:09Z</time></trkpt><trkpt lat="38.947959660413524" lon="8.726911724137196"><ele>6.666666666666666</ele><time>2026-04-04T17:26:10Z</time></trkpt><trkpt lat="38.9481562310147" lon="8.727042019922493"><ele>7.333333333333333</ele><time>2026-04-04T17:26:11Z</time></trkpt><trkpt lat="38.948353684673265" lon="8.72717320968846"><ele>8.0</ele><time>2026-04-04T17:26:12Z</time></trkpt><trkpt lat="38.94855529984892" lon="8.72730647599583"><ele>8.0</ele><time>2026-04-04T17:26:13Z</time></trkpt><trkpt lat="38.9487572599278" lon="8.727440031010206"><ele>8.0</ele><time>2026-04-04T17:26:14Z</time></trkpt><trkpt lat="38.94896011218225" lon="8.727571167783397"><ele>8.0</ele><time>2026-04-04T17:26:15Z</time></trkpt><trkpt lat="38.9491451722139" lon="8.727691242324473"><ele>8.0</ele><time>2026-04-04T17:26:16Z</time></trkpt><trkpt lat="38.949319610902066" lon="8.727807197064415"><ele>8.0</ele><time>2026-04-04T17:26:17Z</time></trkpt><trkpt lat="38.949488467371346" lon="8.727930532753657"><ele>8.666666666666666</ele><time>2026-04-04T17:26:18Z</time></trkpt><trkpt lat="38.949661046386694" lon="8.728072046152663"><ele>9.333333333333334</ele><time>2026-04-04T17:26:19Z</time></trkpt><trkpt lat="38.949832483479746" lon="8.728225730960368"><ele>10.0</ele><time>2026-04-04T17:26:20Z</time></trkpt><trkpt lat="38.950010215728334" lon="8.728386663385272"><ele>9.5</ele><time>2026-04-04T17:26:21Z</time></trkpt><trkpt lat="38.95019716480559" lon="8.728554039845449"><ele>9.0</ele><time>2026-04-04T17:26:22Z</time></trkpt><trkpt lat="38.95038823407179" lon="8.728725162876067"><ele>10.0</ele><time>2026-04-04T17:26:23Z</time></trkpt><trkpt lat="38.95058387217499" lon="8.72890135396374"><ele>11.0</ele><time>2026-04-04T17:26:24Z</time></trkpt><trkpt lat="38.950782992695274" lon="8.729081244575124"><ele>11.0</ele><time>2026-04-04T17:26:25Z</time></trkpt><trkpt lat="38.95096668131116" lon="8.729247371941351"><ele>11.0</ele><time>2026-04-04T17:26:26Z</time></trkpt><trkpt lat="38.951121926395324" lon="8.729397970825268"><ele>11.0</ele><time>2026-04-04T17:26:27Z</time></trkpt><trkpt lat="38.95124981739803" lon="8.729554094293292"><ele>11.0</ele><time>2026-04-04T17:26:28Z</time></trkpt><trkpt lat="38.951365402628134" lon="8.729736243802677"><ele>11.0</ele><time>2026-04-04T17:26:29Z</time></trkpt><trkpt lat="38.95147922692835" lon="8.729949104885565"><ele>11.0</ele><time>2026-04-04T17:26:30Z</time></trkpt><trkpt lat="38.951595376245024" lon="8.730179423954116"><ele>10.5</ele><time>2026-04-04T17:26:31Z</time></trkpt><trkpt lat="38.95171946138055" lon="8.73041757200657"><ele>10.0</ele><time>2026-04-04T17:26:32Z</time></trkpt><trkpt lat="38.95185186004864" lon="8.73066308370765"><ele>10.0</ele><time>2026-04-04T17:26:33Z</time></trkpt><trkpt lat="38.951988630179926" lon="8.73091607764572"><ele>10.0</ele><time>2026-04-04T17:26:34Z</time></trkpt><trkpt lat="38.95213102926173" lon="8.731176882296353"><ele>10.0</ele><time>2026-04-04T17:26:35Z</time></trkpt><trkpt lat="38.952276134752324" lon="8.731440349817058"><ele>10.0</ele><time>2026-04-04T17:26:36Z</time></trkpt><trkpt lat="38.95241972591547" lon="8.731702197410947"><ele>10.666666666666668</ele><time>2026-04-04T17:26:37Z</time></trkpt><trkpt lat="38.95254987082309" lon="8.731939347939027"><ele>11.333333333333334</ele><time>2026-04-04T17:26:38Z</time></trkpt><trkpt lat="38.95267666858218" lon="8.73217303557552"><ele>12.0</ele><time>2026-04-04T17:26:39Z</time></trkpt><trkpt lat="38.95279912521538" lon="8.732402590214212"><ele>12.0</ele><time>2026-04-04T17:26:40Z</time></trkpt><trkpt lat="38.95292352856075" lon="8.732646556424797"><ele>12.0</ele><time>2026-04-04T17:26:41Z</time></trkpt><trkpt lat="38.95303783766406" lon="8.732894129542178"><ele>13.0</ele><time>2026-04-04T17:26:42Z</time></trkpt><trkpt lat="38.953148485132736" lon="8.733146808092116"><ele>14.0</ele><time>2026-04-04T17:26:43Z</time></trkpt><trkpt lat="38.953263760867884" lon="8.733404805708725"><ele>13.0</ele><time>2026-04-04T17:26:44Z</time></trkpt><trkpt lat="38.95338224577329" lon="8.733663475412436"><ele>12.0</ele><time>2026-04-04T17:26:45Z</time></trkpt><trkpt lat="38.95349904652826" lon="8.733921938383451"><ele>12.0</ele><time>2026-04-04T17:26:46Z</time></trkpt><trkpt lat="38.95361163419435" lon="8.734178440307332"><ele>12.0</ele><time>2026-04-04T17:26:47Z</time></trkpt><trkpt lat="38.95372580328412" lon="8.734429893555827"><ele>12.5</ele><time>2026-04-04T17:26:48Z</time></trkpt><trkpt lat="38.953838943261644" lon="8.734683838187804"><ele>13.0</ele><time>2026-04-04T17:26:49Z</time></trkpt><trkpt lat="38.953954639639505" lon="8.734940960848757"><ele>13.0</ele><time>2026-04-04T17:26:50Z</time></trkpt><trkpt lat="38.954072602030664" lon="8.735199572597304"><ele>13.0</ele><time>2026-04-04T17:26:51Z</time></trkpt><trkpt lat="38.95418941459538" lon="8.735458479052406"><ele>13.5</ele><time>2026-04-04T17:26:52Z</time></trkpt><trkpt lat="38.95430484203076" lon="8.735713881444456"><ele>14.0</ele><time>2026-04-04T17:26:53Z</time></trkpt><trkpt lat="38.95442202020482" lon="8.735971779647297"><ele>15.0</ele><time>2026-04-04T17:26:54Z</time></trkpt><trkpt lat="38.95453252592185" lon="8.736212685686711"><ele>16.0</ele><time>2026-04-04T17:26:55Z</time></trkpt><trkpt lat="38.954631208808664" lon="8.736430299710136"><ele>17.0</ele><time>2026-04-04T17:26:56Z</time></trkpt><trkpt lat="38.954723919807606" lon="8.736640801953362"><ele>17.0</ele><time>2026-04-04T17:26:57Z</time></trkpt><trkpt lat="38.9548149633243" lon="8.736860756362692"><ele>17.0</ele><time>2026-04-04T17:26:58Z</time></trkpt><trkpt lat="38.95489927213985" lon="8.737099210493446"><ele>17.0</ele><time>2026-04-04T17:26:59Z</time></trkpt><trkpt lat="38.95497453496068" lon="8.737364802370827"><ele>26.0</ele><time>2026-04-04T17:27:00Z</time></trkpt><trkpt lat="38.955048491632084" lon="8.73763201324086"><ele>35.0</ele><time>2026-04-04T17:27:01Z</time></trkpt><trkpt lat="38.955129190542564" lon="8.737908155813399"><ele>36.0</ele><time>2026-04-04T17:27:02Z</time></trkpt><trkpt lat="38.95520358409764" lon="8.738162353624155"><ele>37.0</ele><time>2026-04-04T17:27:03Z</time></trkpt><trkpt lat="38.95527362801829" lon="8.738386145933628"><ele>38.0</ele><time>2026-04-04T17:27:04Z</time></trkpt><trkpt lat="38.955349269485694" lon="8.738583563534737"><ele>34.666666666666664</ele><time>2026-04-04T17:27:05Z</time></trkpt><trkpt lat="38.955446599765104" lon="8.73877503983484"><ele>31.333333333333336</ele><time>2026-04-04T17:27:06Z</time></trkpt><trkpt lat="38.95557024451061" lon="8.738969118287775"><ele>28.0</ele><time>2026-04-04T17:27:07Z</time></trkpt><trkpt lat="38.95569633481354" lon="8.739171092965762"><ele>28.0</ele><time>2026-04-04T17:27:08Z</time></trkpt><trkpt lat="38.95582546771054" lon="8.739383796370834"><ele>28.0</ele><time>2026-04-04T17:27:09Z</time></trkpt><trkpt lat="38.95596397930023" lon="8.739610372979955"><ele>28.0</ele><time>2026-04-04T17:27:10Z</time></trkpt><trkpt lat="38.95609614993286" lon="8.739829325007445"><ele>26.666666666666668</ele><time>2026-04-04T17:27:11Z</time></trkpt><trkpt lat="38.956216044762115" lon="8.74003246749271"><ele>25.333333333333336</ele><time>2026-04-04T17:27:12Z</time></trkpt><trkpt lat="38.95634265496847" lon="8.740247649299693"><ele>24.0</ele><time>2026-04-04T17:27:13Z</time></trkpt><trkpt lat="38.95646785653914" lon="8.74046140786725"><ele>24.0</ele><time>2026-04-04T17:27:13.999Z</time></trkpt><trkpt lat="38.956593617199815" lon="8.740671545865828"><ele>24.0</ele><time>2026-04-04T17:27:14.999Z</time></trkpt><trkpt lat="38.95670789657796" lon="8.740861169855574"><ele>24.0</ele><time>2026-04-04T17:27:15.999Z</time></trkpt><trkpt lat="38.95681269366889" lon="8.741036919881104"><ele>22.75</ele><time>2026-04-04T17:27:16.999Z</time></trkpt><trkpt lat="38.95691065163263" lon="8.741195980870115"><ele>21.5</ele><time>2026-04-04T17:27:17.999Z</time></trkpt><trkpt lat="38.95699777751007" lon="8.741340588890875"><ele>20.25</ele><time>2026-04-04T17:27:18.999Z</time></trkpt><trkpt lat="38.95707727344336" lon="8.741479563433325"><ele>19.0</ele><time>2026-04-04T17:27:19.999Z</time></trkpt><trkpt lat="38.957146436411975" lon="8.741603839874436"><ele>19.0</ele><time>2026-04-04T17:27:20.999Z</time></trkpt><trkpt lat="38.9572055683434" lon="8.741720661670314"><ele>19.0</ele><time>2026-04-04T17:27:21.999Z</time></trkpt><trkpt lat="38.95724972691893" lon="8.741839418785892"><ele>19.0</ele><time>2026-04-04T17:27:22.999Z</time></trkpt><trkpt lat="38.95727027928533" lon="8.741947328228068"><ele>19.0</ele><time>2026-04-04T17:27:23.999Z</time></trkpt><trkpt lat="38.95728337078413" lon="8.742043878764001"><ele>19.0</ele><time>2026-04-04T17:27:24.999Z</time></trkpt><trkpt lat="38.957331611266966" lon="8.742164814654522"><ele>20.0</ele><time>2026-04-04T17:27:26.999Z</time></trkpt><trkpt lat="38.95740563627042" lon="8.742217364731607"><ele>21.0</ele><time>2026-04-04T17:27:28.999Z</time></trkpt><trkpt lat="38.95753817760836" lon="8.742194158464367"><ele>22.0</ele><time>2026-04-04T17:27:30.999Z</time></trkpt><trkpt lat="38.957624778871384" lon="8.742137475193077"><ele>23.0</ele><time>2026-04-04T17:27:31.999Z</time></trkpt><trkpt lat="38.957738773096374" lon="8.742065879699599"><ele>24.0</ele><time>2026-04-04T17:27:32.999Z</time></trkpt><trkpt lat="38.957858809719056" lon="8.741995789741654"><ele>23.75</ele><time>2026-04-04T17:27:33.999Z</time></trkpt><trkpt lat="38.957976565623355" lon="8.741927813078293"><ele>23.5</ele><time>2026-04-04T17:27:34.999Z</time></trkpt><trkpt lat="38.95811139448792" lon="8.741853459143863"><ele>23.25</ele><time>2026-04-04T17:27:35.999Z</time></trkpt><trkpt lat="38.95825842230575" lon="8.741774264934001"><ele>23.0</ele><time>2026-04-04T17:27:36.999Z</time></trkpt><trkpt lat="38.95841998931233" lon="8.741689371715157"><ele>24.333333333333336</ele><time>2026-04-04T17:27:37.999Z</time></trkpt><trkpt lat="38.95859331284179" lon="8.741603019976239"><ele>25.666666666666668</ele><time>2026-04-04T17:27:38.999Z</time></trkpt><trkpt lat="38.958760958836535" lon="8.741533637491903"><ele>27.0</ele><time>2026-04-04T17:27:39.999Z</time></trkpt><trkpt lat="38.95893282208969" lon="8.741477379189234"><ele>27.0</ele><time>2026-04-04T17:27:40.999Z</time></trkpt><trkpt lat="38.959117965949076" lon="8.74142161111859"><ele>27.0</ele><time>2026-04-04T17:27:41.999Z</time></trkpt><trkpt lat="38.959304112305645" lon="8.7413601825604"><ele>27.0</ele><time>2026-04-04T17:27:42.999Z</time></trkpt><trkpt lat="38.95946843446518" lon="8.741297557651649"><ele>26.333333333333336</ele><time>2026-04-04T17:27:43.999Z</time></trkpt><trkpt lat="38.959621551775875" lon="8.741216105560145"><ele>25.666666666666668</ele><time>2026-04-04T17:27:44.999Z</time></trkpt><trkpt lat="38.95977985196292" lon="8.741088302925876"><ele>25.0</ele><time>2026-04-04T17:27:45.999Z</time></trkpt><trkpt lat="38.959943321858226" lon="8.740939410480442"><ele>26.666666666666668</ele><time>2026-04-04T17:27:46.999Z</time></trkpt><trkpt lat="38.960112920702976" lon="8.740779582578652"><ele>28.333333333333336</ele><time>2026-04-04T17:27:47.999Z</time></trkpt><trkpt lat="38.96024828317664" lon="8.740652402199927"><ele>30.0</ele><time>2026-04-04T17:27:48.999Z</time></trkpt><trkpt lat="38.96037249900036" lon="8.74053423441272"><ele>30.0</ele><time>2026-04-04T17:27:49.999Z</time></trkpt><trkpt lat="38.9604939512573" lon="8.740394700527332"><ele>30.0</ele><time>2026-04-04T17:27:50.999Z</time></trkpt><trkpt lat="38.960589950270304" lon="8.740216174109111"><ele>30.0</ele><time>2026-04-04T17:27:51.999Z</time></trkpt><trkpt lat="38.96066882627351" lon="8.740004084513558"><ele>30.333333333333336</ele><time>2026-04-04T17:27:52.999Z</time></trkpt><trkpt lat="38.96073508471449" lon="8.739772986188484"><ele>30.666666666666668</ele><time>2026-04-04T17:27:53.999Z</time></trkpt><trkpt lat="38.96080290190843" lon="8.739566497991431"><ele>31.0</ele><time>2026-04-04T17:27:55Z</time></trkpt><trkpt lat="38.96087917992452" lon="8.739378540489797"><ele>31.0</ele><time>2026-04-04T17:27:56Z</time></trkpt><trkpt lat="38.96098039432876" lon="8.73919330581292"><ele>31.0</ele><time>2026-04-04T17:27:57Z</time></trkpt><trkpt lat="38.9611000763405" lon="8.739010102867656"><ele>31.0</ele><time>2026-04-04T17:27:58Z</time></trkpt><trkpt lat="38.96123898349756" lon="8.738826739594732"><ele>31.0</ele><time>2026-04-04T17:27:59Z</time></trkpt><trkpt lat="38.961386832009936" lon="8.738639977349639"><ele>31.0</ele><time>2026-04-04T17:28:00Z</time></trkpt><trkpt lat="38.96152976923582" lon="8.73845707072517"><ele>31.0</ele><time>2026-04-04T17:28:01Z</time></trkpt><trkpt lat="38.96167201425666" lon="8.738270769586485"><ele>32.0</ele><time>2026-04-04T17:28:02Z</time></trkpt><trkpt lat="38.96182342598892" lon="8.738072847293944"><ele>33.0</ele><time>2026-04-04T17:28:03Z</time></trkpt><trkpt lat="38.96198087524416" lon="8.73786941031992"><ele>34.0</ele><time>2026-04-04T17:28:04Z</time></trkpt><trkpt lat="38.96214317258194" lon="8.7376571359545"><ele>35.0</ele><time>2026-04-04T17:28:05Z</time></trkpt><trkpt lat="38.96230941884623" lon="8.737441940784693"><ele>36.0</ele><time>2026-04-04T17:28:06Z</time></trkpt><trkpt lat="38.96246846719111" lon="8.73723761191562"><ele>36.5</ele><time>2026-04-04T17:28:07Z</time></trkpt><trkpt lat="38.962630412855304" lon="8.737027876229117"><ele>37.0</ele><time>2026-04-04T17:28:08Z</time></trkpt><trkpt lat="38.962792187812326" lon="8.736818463539967"><ele>37.0</ele><time>2026-04-04T17:28:09Z</time></trkpt><trkpt lat="38.96295665820674" lon="8.736607475386274"><ele>37.0</ele><time>2026-04-04T17:28:10Z</time></trkpt><trkpt lat="38.96312234090191" lon="8.736396220030297"><ele>37.0</ele><time>2026-04-04T17:28:11Z</time></trkpt><trkpt lat="38.96328806466273" lon="8.736184542012317"><ele>37.0</ele><time>2026-04-04T17:28:12Z</time></trkpt><trkpt lat="38.96345271022917" lon="8.735974024122905"><ele>39.5</ele><time>2026-04-04T17:28:13Z</time></trkpt><trkpt lat="38.96361587291419" lon="8.735765287186133"><ele>42.0</ele><time>2026-04-04T17:28:14Z</time></trkpt><trkpt lat="38.96377881753723" lon="8.73555511053192"><ele>42.0</ele><time>2026-04-04T17:28:15Z</time></trkpt><trkpt lat="38.96393892097974" lon="8.73534495242721"><ele>42.0</ele><time>2026-04-04T17:28:16Z</time></trkpt><trkpt lat="38.96409172366318" lon="8.735133274163015"><ele>44.0</ele><time>2026-04-04T17:28:17Z</time></trkpt><trkpt lat="38.96424198069899" lon="8.73490951404986"><ele>46.0</ele><time>2026-04-04T17:28:18Z</time></trkpt><trkpt lat="38.96437872881742" lon="8.734676631991503"><ele>46.0</ele><time>2026-04-04T17:28:19Z</time></trkpt><trkpt lat="38.96451058188321" lon="8.73443498789702"><ele>46.0</ele><time>2026-04-04T17:28:20Z</time></trkpt><trkpt lat="38.96463784622727" lon="8.734181118852694"><ele>47.5</ele><time>2026-04-04T17:28:21Z</time></trkpt><trkpt lat="38.9647621527403" lon="8.733914974520253"><ele>49.0</ele><time>2026-04-04T17:28:22Z</time></trkpt><trkpt lat="38.96488295596159" lon="8.733639277270505"><ele>50.0</ele><time>2026-04-04T17:28:23Z</time></trkpt><trkpt lat="38.96500715249638" lon="8.733354406363128"><ele>51.0</ele><time>2026-04-04T17:28:24Z</time></trkpt><trkpt lat="38.965130480942335" lon="8.733072796137419"><ele>58.0</ele><time>2026-04-04T17:28:25Z</time></trkpt><trkpt lat="38.96525561020821" lon="8.732790284281634"><ele>65.0</ele><time>2026-04-04T17:28:26Z</time></trkpt><trkpt lat="38.96537824563173" lon="8.7325104162155"><ele>65.0</ele><time>2026-04-04T17:28:27Z</time></trkpt><trkpt lat="38.96548682078833" lon="8.732264885365197"><ele>65.0</ele><time>2026-04-04T17:28:28Z</time></trkpt><trkpt lat="38.96558924487008" lon="8.732032828368204"><ele>65.0</ele><time>2026-04-04T17:28:29Z</time></trkpt><trkpt lat="38.965683570868535" lon="8.731817283623714"><ele>66.0</ele><time>2026-04-04T17:28:30Z</time></trkpt><trkpt lat="38.96577440602406" lon="8.731610219767628"><ele>67.0</ele><time>2026-04-04T17:28:31Z</time></trkpt><trkpt lat="38.965856649282365" lon="8.731430555543204"><ele>68.0</ele><time>2026-04-04T17:28:32Z</time></trkpt><trkpt lat="38.96595141282223" lon="8.731249845699507"><ele>68.0</ele><time>2026-04-04T17:28:33Z</time></trkpt><trkpt lat="38.966061391243805" lon="8.731075600612582"><ele>68.0</ele><time>2026-04-04T17:28:34Z</time></trkpt><trkpt lat="38.96619246333587" lon="8.730889822838945"><ele>68.0</ele><time>2026-04-04T17:28:35Z</time></trkpt><trkpt lat="38.96633927966557" lon="8.730692468384799"><ele>63.5</ele><time>2026-04-04T17:28:36Z</time></trkpt><trkpt lat="38.966495189209944" lon="8.730482391144742"><ele>59.0</ele><time>2026-04-04T17:28:37Z</time></trkpt><trkpt lat="38.96665450682796" lon="8.730263058978077"><ele>56.0</ele><time>2026-04-04T17:28:38Z</time></trkpt><trkpt lat="38.96681008566435" lon="8.730048763168346"><ele>53.0</ele><time>2026-04-04T17:28:39Z</time></trkpt><trkpt lat="38.96696927354891" lon="8.729830354420567"><ele>53.0</ele><time>2026-04-04T17:28:40Z</time></trkpt><trkpt lat="38.967135645768565" lon="8.729606838228838"><ele>53.0</ele><time>2026-04-04T17:28:41Z</time></trkpt><trkpt lat="38.967304959192646" lon="8.729380358008514"><ele>51.5</ele><time>2026-04-04T17:28:42Z</time></trkpt><trkpt lat="38.9674799910316" lon="8.729148515476565"><ele>50.0</ele><time>2026-04-04T17:28:43Z</time></trkpt><trkpt lat="38.96765527238042" lon="8.728917218151453"><ele>50.0</ele><time>2026-04-04T17:28:44Z</time></trkpt><trkpt lat="38.96783017801143" lon="8.728684912968518"><ele>50.0</ele><time>2026-04-04T17:28:45Z</time></trkpt><trkpt lat="38.96800487066007" lon="8.728448666047358"><ele>48.0</ele><time>2026-04-04T17:28:46Z</time></trkpt><trkpt lat="38.96818044798486" lon="8.728211378128945"><ele>46.0</ele><time>2026-04-04T17:28:47Z</time></trkpt><trkpt lat="38.968356845216164" lon="8.727973546515742"><ele>48.0</ele><time>2026-04-04T17:28:48Z</time></trkpt><trkpt lat="38.96853016341482" lon="8.727742718775586"><ele>50.0</ele><time>2026-04-04T17:28:49Z</time></trkpt><trkpt lat="38.9686866432678" lon="8.727537514291233"><ele>50.0</ele><time>2026-04-04T17:28:50Z</time></trkpt><trkpt lat="38.96883378079461" lon="8.72734323809198"><ele>50.0</ele><time>2026-04-04T17:28:51Z</time></trkpt><trkpt lat="38.968979502443425" lon="8.727143059749933"><ele>50.0</ele><time>2026-04-04T17:28:52Z</time></trkpt><trkpt lat="38.96911391366248" lon="8.726935062184365"><ele>51.333333333333336</ele><time>2026-04-04T17:28:53Z</time></trkpt><trkpt lat="38.96922866639361" lon="8.7267089002931"><ele>52.66666666666667</ele><time>2026-04-04T17:28:54Z</time></trkpt><trkpt lat="38.96933309405731" lon="8.726451807458746"><ele>54.0</ele><time>2026-04-04T17:28:55Z</time></trkpt><trkpt lat="38.96943539870587" lon="8.726179867725863"><ele>51.0</ele><time>2026-04-04T17:28:56Z</time></trkpt><trkpt lat="38.96954407652233" lon="8.725893072363828"><ele>48.0</ele><time>2026-04-04T17:28:57Z</time></trkpt><trkpt lat="38.96965847484919" lon="8.725602571335783"><ele>48.0</ele><time>2026-04-04T17:28:58Z</time></trkpt><trkpt lat="38.969776349229484" lon="8.725306574018498"><ele>48.0</ele><time>2026-04-04T17:28:59Z</time></trkpt><trkpt lat="38.96989733801439" lon="8.72500078663905"><ele>47.0</ele><time>2026-04-04T17:29:00Z</time></trkpt><trkpt lat="38.970022551303614" lon="8.724689390878108"><ele>46.0</ele><time>2026-04-04T17:29:01Z</time></trkpt><trkpt lat="38.97014652534864" lon="8.724383493228055"><ele>50.5</ele><time>2026-04-04T17:29:02Z</time></trkpt><trkpt lat="38.97026028567484" lon="8.724096369172972"><ele>55.0</ele><time>2026-04-04T17:29:03Z</time></trkpt><trkpt lat="38.97036151344977" lon="8.72383509683392"><ele>55.0</ele><time>2026-04-04T17:29:04Z</time></trkpt><trkpt lat="38.9704561728598" lon="8.723590054814926"><ele>55.0</ele><time>2026-04-04T17:29:05Z</time></trkpt><trkpt lat="38.97054787944222" lon="8.723358346670608"><ele>55.0</ele><time>2026-04-04T17:29:06Z</time></trkpt><trkpt lat="38.970642982417594" lon="8.72314312787207"><ele>53.666666666666664</ele><time>2026-04-04T17:29:07Z</time></trkpt><trkpt lat="38.970753988533815" lon="8.722931757702103"><ele>52.33333333333333</ele><time>2026-04-04T17:29:08Z</time></trkpt><trkpt lat="38.970880449218775" lon="8.722716349679041"><ele>51.0</ele><time>2026-04-04T17:29:09Z</time></trkpt><trkpt lat="38.971013704682285" lon="8.722490371357488"><ele>51.0</ele><time>2026-04-04T17:29:10Z</time></trkpt><trkpt lat="38.971149193709465" lon="8.722248864808895"><ele>51.0</ele><time>2026-04-04T17:29:11Z</time></trkpt><trkpt lat="38.97129049006753" lon="8.721999319084674"><ele>45.5</ele><time>2026-04-04T17:29:12Z</time></trkpt><trkpt lat="38.971438307763506" lon="8.721737633942045"><ele>40.0</ele><time>2026-04-04T17:29:13Z</time></trkpt><trkpt lat="38.97159052683134" lon="8.72146944443685"><ele>39.5</ele><time>2026-04-04T17:29:14Z</time></trkpt><trkpt lat="38.97174712266824" lon="8.721191186520668"><ele>39.0</ele><time>2026-04-04T17:29:15Z</time></trkpt><trkpt lat="38.971911793483095" lon="8.720900519204255"><ele>39.0</ele><time>2026-04-04T17:29:16Z</time></trkpt><trkpt lat="38.97207584562182" lon="8.720610081534899"><ele>39.0</ele><time>2026-04-04T17:29:16.999Z</time></trkpt><trkpt lat="38.97224313537027" lon="8.720317807086996"><ele>39.5</ele><time>2026-04-04T17:29:17.999Z</time></trkpt><trkpt lat="38.97241124389281" lon="8.720022735178523"><ele>40.0</ele><time>2026-04-04T17:29:18.999Z</time></trkpt><trkpt lat="38.97257806820722" lon="8.719727680477538"><ele>40.0</ele><time>2026-04-04T17:29:19.999Z</time></trkpt><trkpt lat="38.97274598934579" lon="8.719431288277109"><ele>40.0</ele><time>2026-04-04T17:29:20.999Z</time></trkpt><trkpt lat="38.97290860487967" lon="8.719147629088365"><ele>39.0</ele><time>2026-04-04T17:29:21.999Z</time></trkpt><trkpt lat="38.9730663270494" lon="8.718883650259604"><ele>38.0</ele><time>2026-04-04T17:29:22.999Z</time></trkpt><trkpt lat="38.97321055386449" lon="8.71860679598512"><ele>38.0</ele><time>2026-04-04T17:29:23.999Z</time></trkpt><trkpt lat="38.973341052709536" lon="8.71837328228887"><ele>38.0</ele><time>2026-04-04T17:29:24.999Z</time></trkpt><trkpt lat="38.97346071404068" lon="8.718167939477892"><ele>38.0</ele><time>2026-04-04T17:29:25.999Z</time></trkpt><trkpt lat="38.973572135284456" lon="8.717976393582898"><ele>39.0</ele><time>2026-04-04T17:29:26.999Z</time></trkpt><trkpt lat="38.97367500723642" lon="8.717783205153085"><ele>40.0</ele><time>2026-04-04T17:29:27.999Z</time></trkpt><trkpt lat="38.97375929956654" lon="8.717568326933367"><ele>41.0</ele><time>2026-04-04T17:29:28.999Z</time></trkpt><trkpt lat="38.9738199450078" lon="8.71732661889205"><ele>41.33333333333333</ele><time>2026-04-04T17:29:29.999Z</time></trkpt><trkpt lat="38.97387824701995" lon="8.717064976737998"><ele>41.666666666666664</ele><time>2026-04-04T17:29:30.999Z</time></trkpt><trkpt lat="38.97394257981576" lon="8.716792414609442"><ele>42.0</ele><time>2026-04-04T17:29:31.999Z</time></trkpt><trkpt lat="38.9740172112847" lon="8.716511158806105"><ele>42.0</ele><time>2026-04-04T17:29:32.999Z</time></trkpt><trkpt lat="38.974094798316045" lon="8.716215265470462"><ele>42.0</ele><time>2026-04-04T17:29:33.999Z</time></trkpt><trkpt lat="38.974169679251794" lon="8.715906619794175"><ele>44.0</ele><time>2026-04-04T17:29:34.999Z</time></trkpt><trkpt lat="38.97424158597062" lon="8.715617602704212"><ele>46.0</ele><time>2026-04-04T17:29:35.999Z</time></trkpt><trkpt lat="38.97431658137996" lon="8.71533256926748"><ele>46.0</ele><time>2026-04-04T17:29:36.999Z</time></trkpt><trkpt lat="38.97439596781684" lon="8.715037628166373"><ele>46.0</ele><time>2026-04-04T17:29:37.999Z</time></trkpt><trkpt lat="38.974475754408736" lon="8.714737452362813"><ele>46.0</ele><time>2026-04-04T17:29:38.999Z</time></trkpt><trkpt lat="38.9745564529851" lon="8.714429698122503"><ele>46.0</ele><time>2026-04-04T17:29:39.999Z</time></trkpt><trkpt lat="38.974641581401315" lon="8.714112808651798"><ele>46.5</ele><time>2026-04-04T17:29:40.999Z</time></trkpt><trkpt lat="38.97472256544408" lon="8.713794614964737"><ele>47.0</ele><time>2026-04-04T17:29:41.999Z</time></trkpt><trkpt lat="38.9748058409595" lon="8.713475602675306"><ele>47.0</ele><time>2026-04-04T17:29:42.999Z</time></trkpt><trkpt lat="38.97488796054158" lon="8.713159590639354"><ele>47.0</ele><time>2026-04-04T17:29:43.999Z</time></trkpt><trkpt lat="38.97497062320506" lon="8.712838111130013"><ele>47.5</ele><time>2026-04-04T17:29:44.999Z</time></trkpt><trkpt lat="38.975056665923454" lon="8.71250632767456"><ele>48.0</ele><time>2026-04-04T17:29:45.999Z</time></trkpt><trkpt lat="38.975138744607676" lon="8.712174271680128"><ele>49.0</ele><time>2026-04-04T17:29:46.999Z</time></trkpt><trkpt lat="38.97522396439126" lon="8.711838588486122"><ele>50.0</ele><time>2026-04-04T17:29:47.999Z</time></trkpt><trkpt lat="38.97530956746701" lon="8.711503373576152"><ele>50.0</ele><time>2026-04-04T17:29:48.999Z</time></trkpt><trkpt lat="38.975395016676146" lon="8.711169989712351"><ele>50.0</ele><time>2026-04-04T17:29:49.999Z</time></trkpt><trkpt lat="38.97548371142327" lon="8.710835038938157"><ele>50.0</ele><time>2026-04-04T17:29:50.999Z</time></trkpt><trkpt lat="38.97558806277872" lon="8.710509895965606"><ele>50.0</ele><time>2026-04-04T17:29:51.999Z</time></trkpt><trkpt lat="38.9756734092377" lon="8.71018026331079"><ele>50.0</ele><time>2026-04-04T17:29:52.999Z</time></trkpt><trkpt lat="38.97573720977919" lon="8.709872662062333"><ele>50.0</ele><time>2026-04-04T17:29:53.999Z</time></trkpt><trkpt lat="38.97580989642441" lon="8.709595871921739"><ele>51.333333333333336</ele><time>2026-04-04T17:29:54.999Z</time></trkpt><trkpt lat="38.975875601533566" lon="8.709345054516294"><ele>52.66666666666667</ele><time>2026-04-04T17:29:55.999Z</time></trkpt><trkpt lat="38.97593805649976" lon="8.709107737045805"><ele>54.0</ele><time>2026-04-04T17:29:56.999Z</time></trkpt><trkpt lat="38.9759950456329" lon="8.708891087412248"><ele>54.0</ele><time>2026-04-04T17:29:57.999Z</time></trkpt><trkpt lat="38.97607976632466" lon="8.70868134011599"><ele>54.0</ele><time>2026-04-04T17:29:58.999Z</time></trkpt><trkpt lat="38.97617574809197" lon="8.70846448736166"><ele>54.0</ele><time>2026-04-04T17:29:59.999Z</time></trkpt><trkpt lat="38.97628554250193" lon="8.708236061142172"><ele>54.0</ele><time>2026-04-04T17:30:01Z</time></trkpt><trkpt lat="38.97640174834521" lon="8.707993476122574"><ele>54.0</ele><time>2026-04-04T17:30:02Z</time></trkpt><trkpt lat="38.976521568926664" lon="8.707742916962069"><ele>53.0</ele><time>2026-04-04T17:30:03Z</time></trkpt><trkpt lat="38.976635835585505" lon="8.707463767841432"><ele>52.0</ele><time>2026-04-04T17:30:04Z</time></trkpt><trkpt lat="38.97677911683527" lon="8.707203261781798"><ele>52.666666666666664</ele><time>2026-04-04T17:30:05Z</time></trkpt><trkpt lat="38.976902317627264" lon="8.70694511193375"><ele>53.33333333333333</ele><time>2026-04-04T17:30:06Z</time></trkpt><trkpt lat="38.977012493208115" lon="8.706714254598072"><ele>54.0</ele><time>2026-04-04T17:30:07Z</time></trkpt><trkpt lat="38.97710907035329" lon="8.706475762978064"><ele>54.0</ele><time>2026-04-04T17:30:08Z</time></trkpt><trkpt lat="38.97722865918732" lon="8.706259535068217"><ele>54.0</ele><time>2026-04-04T17:30:09Z</time></trkpt><trkpt lat="38.97736740849785" lon="8.706060866981717"><ele>54.0</ele><time>2026-04-04T17:30:10Z</time></trkpt><trkpt lat="38.97752616675021" lon="8.70588014157691"><ele>56.0</ele><time>2026-04-04T17:30:11Z</time></trkpt><trkpt lat="38.97769862949792" lon="8.705716052608762"><ele>58.0</ele><time>2026-04-04T17:30:12Z</time></trkpt><trkpt lat="38.97788225478834" lon="8.705572923707587"><ele>60.0</ele><time>2026-04-04T17:30:13Z</time></trkpt><trkpt lat="38.9780834415974" lon="8.705478829682622"><ele>60.0</ele><time>2026-04-04T17:30:14Z</time></trkpt><trkpt lat="38.97829458442614" lon="8.705387711149612"><ele>60.0</ele><time>2026-04-04T17:30:15Z</time></trkpt><trkpt lat="38.978511243274504" lon="8.705307097897629"><ele>60.0</ele><time>2026-04-04T17:30:16Z</time></trkpt><trkpt lat="38.97873715644739" lon="8.705210825478545"><ele>65.0</ele><time>2026-04-04T17:30:17Z</time></trkpt><trkpt lat="38.9789689376909" lon="8.705130048179583"><ele>70.0</ele><time>2026-04-04T17:30:18Z</time></trkpt><trkpt lat="38.97920772064013" lon="8.705043602997971"><ele>70.0</ele><time>2026-04-04T17:30:19Z</time></trkpt><trkpt lat="38.979447069325644" lon="8.704957568674638"><ele>70.0</ele><time>2026-04-04T17:30:20Z</time></trkpt><trkpt lat="38.97968971045674" lon="8.704871754875438"><ele>70.0</ele><time>2026-04-04T17:30:21Z</time></trkpt><trkpt lat="38.97993490576544" lon="8.704785185716755"><ele>70.0</ele><time>2026-04-04T17:30:22Z</time></trkpt><trkpt lat="38.98018228718401" lon="8.70469782201455"><ele>70.0</ele><time>2026-04-04T17:30:23Z</time></trkpt><trkpt lat="38.98043098741625" lon="8.704612789432227"><ele>70.0</ele><time>2026-04-04T17:30:24Z</time></trkpt><trkpt lat="38.980680392720345" lon="8.704529521322735"><ele>71.5</ele><time>2026-04-04T17:30:25Z</time></trkpt><trkpt lat="38.980929821864216" lon="8.704442338439982"><ele>73.0</ele><time>2026-04-04T17:30:26Z</time></trkpt><trkpt lat="38.981177930362236" lon="8.704353329287077"><ele>78.0</ele><time>2026-04-04T17:30:27Z</time></trkpt><trkpt lat="38.98142759552494" lon="8.704258239127677"><ele>83.0</ele><time>2026-04-04T17:30:28Z</time></trkpt><trkpt lat="38.98167391014002" lon="8.704155048105566"><ele>80.0</ele><time>2026-04-04T17:30:29Z</time></trkpt><trkpt lat="38.98191879201308" lon="8.704042398103887"><ele>77.0</ele><time>2026-04-04T17:30:30Z</time></trkpt><trkpt lat="38.98216232504738" lon="8.703917331617232"><ele>77.0</ele><time>2026-04-04T17:30:31Z</time></trkpt><trkpt lat="38.982405477538336" lon="8.703780870673137"><ele>77.0</ele><time>2026-04-04T17:30:32Z</time></trkpt><trkpt lat="38.98263603882399" lon="8.703641960229684"><ele>78.66666666666667</ele><time>2026-04-04T17:30:33Z</time></trkpt><trkpt lat="38.98284042207158" lon="8.703513161254651"><ele>80.33333333333333</ele><time>2026-04-04T17:30:34Z</time></trkpt><trkpt lat="38.98303208331619" lon="8.703387795864947"><ele>82.0</ele><time>2026-04-04T17:30:35Z</time></trkpt><trkpt lat="38.98321085627695" lon="8.703253323332332"><ele>82.66666666666666</ele><time>2026-04-04T17:30:36Z</time></trkpt><trkpt lat="38.98338152269473" lon="8.703098527916014"><ele>83.33333333333333</ele><time>2026-04-04T17:30:37Z</time></trkpt><trkpt lat="38.98353975941114" lon="8.702912982056544"><ele>84.0</ele><time>2026-04-04T17:30:38Z</time></trkpt><trkpt lat="38.983687732086906" lon="8.70270589460885"><ele>86.5</ele><time>2026-04-04T17:30:39Z</time></trkpt><trkpt lat="38.9838286177046" lon="8.702469987095807"><ele>89.0</ele><time>2026-04-04T17:30:40Z</time></trkpt><trkpt lat="38.983957209298964" lon="8.702213348410137"><ele>89.0</ele><time>2026-04-04T17:30:41Z</time></trkpt><trkpt lat="38.984091757032964" lon="8.701941243053787"><ele>89.0</ele><time>2026-04-04T17:30:42Z</time></trkpt><trkpt lat="38.984229562805304" lon="8.701672680689478"><ele>93.0</ele><time>2026-04-04T17:30:43Z</time></trkpt><trkpt lat="38.98437331351402" lon="8.701402680878026"><ele>97.0</ele><time>2026-04-04T17:30:44Z</time></trkpt><trkpt lat="38.98451539130742" lon="8.701136888123386"><ele>95.5</ele><time>2026-04-04T17:30:45Z</time></trkpt><trkpt lat="38.9846559220853" lon="8.700871330299593"><ele>94.0</ele><time>2026-04-04T17:30:46Z</time></trkpt><trkpt lat="38.984796348386645" lon="8.700605072118833"><ele>94.0</ele><time>2026-04-04T17:30:47Z</time></trkpt><trkpt lat="38.98493789669147" lon="8.700339631537924"><ele>94.0</ele><time>2026-04-04T17:30:48Z</time></trkpt><trkpt lat="38.985079740572814" lon="8.70007485794472"><ele>94.0</ele><time>2026-04-04T17:30:49Z</time></trkpt><trkpt lat="38.98521931172272" lon="8.69981289535258"><ele>94.0</ele><time>2026-04-04T17:30:50Z</time></trkpt><trkpt lat="38.98534504393047" lon="8.69956490691162"><ele>93.0</ele><time>2026-04-04T17:30:51Z</time></trkpt><trkpt lat="38.98545151004415" lon="8.699311139678617"><ele>92.0</ele><time>2026-04-04T17:30:52Z</time></trkpt><trkpt lat="38.98554772016535" lon="8.699042531456652"><ele>92.0</ele><time>2026-04-04T17:30:53Z</time></trkpt><trkpt lat="38.98563190353701" lon="8.69876349920751"><ele>92.0</ele><time>2026-04-04T17:30:54Z</time></trkpt><trkpt lat="38.98570583118943" lon="8.698481690266524"><ele>90.5</ele><time>2026-04-04T17:30:55Z</time></trkpt><trkpt lat="38.98576545803935" lon="8.69819157302552"><ele>89.0</ele><time>2026-04-04T17:30:56Z</time></trkpt><trkpt lat="38.98581653710852" lon="8.697891099495282"><ele>89.0</ele><time>2026-04-04T17:30:57Z</time></trkpt><trkpt lat="38.985860196146966" lon="8.697578154417812"><ele>89.0</ele><time>2026-04-04T17:30:58Z</time></trkpt><trkpt lat="38.98589916907624" lon="8.69725710006639"><ele>89.0</ele><time>2026-04-04T17:30:59Z</time></trkpt><trkpt lat="38.98593897130886" lon="8.696937440844803"><ele>89.0</ele><time>2026-04-04T17:31:00Z</time></trkpt><trkpt lat="38.98598125173582" lon="8.696613207304276"><ele>87.0</ele><time>2026-04-04T17:31:01Z</time></trkpt><trkpt lat="38.98602627079026" lon="8.696295826941459"><ele>85.0</ele><time>2026-04-04T17:31:02Z</time></trkpt><trkpt lat="38.986074606724486" lon="8.695973941224693"><ele>83.5</ele><time>2026-04-04T17:31:03Z</time></trkpt><trkpt lat="38.986123580837535" lon="8.695651951187479"><ele>82.0</ele><time>2026-04-04T17:31:04Z</time></trkpt><trkpt lat="38.98617725900202" lon="8.695327356407082"><ele>80.0</ele><time>2026-04-04T17:31:05Z</time></trkpt><trkpt lat="38.986234114321036" lon="8.695000917050523"><ele>78.0</ele><time>2026-04-04T17:31:06Z</time></trkpt><trkpt lat="38.98628903866591" lon="8.694671609434748"><ele>76.5</ele><time>2026-04-04T17:31:07Z</time></trkpt><trkpt lat="38.98634538865725" lon="8.694347592350478"><ele>75.0</ele><time>2026-04-04T17:31:08Z</time></trkpt><trkpt lat="38.98640085639514" lon="8.69402014105125"><ele>75.0</ele><time>2026-04-04T17:31:09Z</time></trkpt><trkpt lat="38.98645850965185" lon="8.693694247458776"><ele>75.0</ele><time>2026-04-04T17:31:10Z</time></trkpt><trkpt lat="38.986519315314965" lon="8.69336453032888"><ele>73.5</ele><time>2026-04-04T17:31:11Z</time></trkpt><trkpt lat="38.986573744022834" lon="8.693034042865968"><ele>72.0</ele><time>2026-04-04T17:31:11.999Z</time></trkpt><trkpt lat="38.98663072309378" lon="8.692708875946156"><ele>73.0</ele><time>2026-04-04T17:31:12.999Z</time></trkpt><trkpt lat="38.98668868226429" lon="8.692368155308039"><ele>74.0</ele><time>2026-04-04T17:31:13.999Z</time></trkpt><trkpt lat="38.986746165228126" lon="8.692038037444323"><ele>73.0</ele><time>2026-04-04T17:31:14.999Z</time></trkpt><trkpt lat="38.986802002888716" lon="8.691709343127476"><ele>72.0</ele><time>2026-04-04T17:31:15.999Z</time></trkpt><trkpt lat="38.9868604391634" lon="8.69137547251733"><ele>72.0</ele><time>2026-04-04T17:31:16.999Z</time></trkpt><trkpt lat="38.986916616489495" lon="8.69104877567023"><ele>72.0</ele><time>2026-04-04T17:31:17.999Z</time></trkpt><trkpt lat="38.98697322508842" lon="8.690717122747598"><ele>72.0</ele><time>2026-04-04T17:31:18.999Z</time></trkpt><trkpt lat="38.98702778299289" lon="8.690383921735373"><ele>72.0</ele><time>2026-04-04T17:31:19.999Z</time></trkpt><trkpt lat="38.98708479362777" lon="8.69005913120332"><ele>72.5</ele><time>2026-04-04T17:31:20.999Z</time></trkpt><trkpt lat="38.987142231090644" lon="8.689731448833472"><ele>73.0</ele><time>2026-04-04T17:31:21.999Z</time></trkpt><trkpt lat="38.9871996369621" lon="8.68940238020599"><ele>73.0</ele><time>2026-04-04T17:31:22.999Z</time></trkpt><trkpt lat="38.987253687028264" lon="8.689072404795457"><ele>73.0</ele><time>2026-04-04T17:31:23.999Z</time></trkpt><trkpt lat="38.98731028686746" lon="8.688747087491473"><ele>72.0</ele><time>2026-04-04T17:31:24.999Z</time></trkpt><trkpt lat="38.987366413385864" lon="8.688414736419762"><ele>71.0</ele><time>2026-04-04T17:31:25.999Z</time></trkpt><trkpt lat="38.98741903380668" lon="8.688101110682702"><ele>71.0</ele><time>2026-04-04T17:31:26.999Z</time></trkpt><trkpt lat="38.98746940808017" lon="8.687801919350289"><ele>71.0</ele><time>2026-04-04T17:31:27.999Z</time></trkpt><trkpt lat="38.98752308023323" lon="8.68749714848188"><ele>71.0</ele><time>2026-04-04T17:31:28.999Z</time></trkpt><trkpt lat="38.987578373505" lon="8.687180547871735"><ele>71.0</ele><time>2026-04-04T17:31:29.999Z</time></trkpt><trkpt lat="38.987633764564485" lon="8.686856806988565"><ele>69.0</ele><time>2026-04-04T17:31:30.999Z</time></trkpt><trkpt lat="38.98769114344794" lon="8.686525675239306"><ele>67.0</ele><time>2026-04-04T17:31:31.999Z</time></trkpt><trkpt lat="38.98775041043853" lon="8.686193015319477"><ele>68.0</ele><time>2026-04-04T17:31:32.999Z</time></trkpt><trkpt lat="38.987807617731875" lon="8.685860580984523"><ele>69.0</ele><time>2026-04-04T17:31:33.999Z</time></trkpt><trkpt lat="38.987864701458705" lon="8.685533592764592"><ele>68.5</ele><time>2026-04-04T17:31:34.999Z</time></trkpt><trkpt lat="38.98791952474778" lon="8.685200598996138"><ele>68.0</ele><time>2026-04-04T17:31:35.999Z</time></trkpt><trkpt lat="38.987973930363374" lon="8.684875299373134"><ele>68.0</ele><time>2026-04-04T17:31:36.999Z</time></trkpt><trkpt lat="38.988029328769485" lon="8.684567766422571"><ele>68.0</ele><time>2026-04-04T17:31:37.999Z</time></trkpt><trkpt lat="38.98808226439592" lon="8.68427829132449"><ele>67.5</ele><time>2026-04-04T17:31:38.999Z</time></trkpt><trkpt lat="38.98813218812549" lon="8.683982313616692"><ele>67.0</ele><time>2026-04-04T17:31:39.999Z</time></trkpt><trkpt lat="38.98818194234783" lon="8.68368430081201"><ele>65.5</ele><time>2026-04-04T17:31:40.999Z</time></trkpt><trkpt lat="38.988233231625784" lon="8.683381331597234"><ele>64.0</ele><time>2026-04-04T17:31:41.999Z</time></trkpt><trkpt lat="38.98828440939325" lon="8.683073532230367"><ele>63.5</ele><time>2026-04-04T17:31:42.999Z</time></trkpt><trkpt lat="38.98833730680783" lon="8.682755728498504"><ele>63.0</ele><time>2026-04-04T17:31:43.999Z</time></trkpt><trkpt lat="38.98839256034683" lon="8.682434896474279"><ele>63.0</ele><time>2026-04-04T17:31:44.999Z</time></trkpt><trkpt lat="38.988448894911386" lon="8.682112766590228"><ele>63.0</ele><time>2026-04-04T17:31:45.999Z</time></trkpt><trkpt lat="38.98850424460931" lon="8.681791900524697"><ele>61.0</ele><time>2026-04-04T17:31:46.999Z</time></trkpt><trkpt lat="38.988560779392714" lon="8.681471231546492"><ele>59.0</ele><time>2026-04-04T17:31:47.999Z</time></trkpt><trkpt lat="38.98861438122371" lon="8.681160586180315"><ele>58.0</ele><time>2026-04-04T17:31:48.999Z</time></trkpt><trkpt lat="38.988668177331185" lon="8.680835974623017"><ele>57.0</ele><time>2026-04-04T17:31:49.999Z</time></trkpt><trkpt lat="38.988721890044395" lon="8.680516073524158"><ele>57.0</ele><time>2026-04-04T17:31:50.999Z</time></trkpt><trkpt lat="38.9887760849572" lon="8.68019629685523"><ele>57.0</ele><time>2026-04-04T17:31:51.999Z</time></trkpt><trkpt lat="38.988830125256285" lon="8.6798782535726"><ele>57.0</ele><time>2026-04-04T17:31:52.999Z</time></trkpt><trkpt lat="38.98888491609709" lon="8.679557682764143"><ele>57.0</ele><time>2026-04-04T17:31:53.999Z</time></trkpt><trkpt lat="38.98894018816878" lon="8.679238410858504"><ele>57.0</ele><time>2026-04-04T17:31:54.999Z</time></trkpt><trkpt lat="38.98899728308704" lon="8.678914806474081"><ele>57.0</ele><time>2026-04-04T17:31:55.999Z</time></trkpt><trkpt lat="38.9890538021242" lon="8.678586689545602"><ele>57.0</ele><time>2026-04-04T17:31:56.999Z</time></trkpt><trkpt lat="38.98910978815171" lon="8.67825890795811"><ele>57.0</ele><time>2026-04-04T17:31:57.999Z</time></trkpt><trkpt lat="38.98916642719946" lon="8.677930849299795"><ele>59.0</ele><time>2026-04-04T17:31:58.999Z</time></trkpt><trkpt lat="38.98922275196117" lon="8.677601304986004"><ele>61.0</ele><time>2026-04-04T17:31:59.999Z</time></trkpt><trkpt lat="38.98927702082007" lon="8.67727210069843"><ele>61.0</ele><time>2026-04-04T17:32:00.999Z</time></trkpt><trkpt lat="38.989335886556944" lon="8.676938199308951"><ele>61.0</ele><time>2026-04-04T17:32:01.999Z</time></trkpt><trkpt lat="38.989395753505086" lon="8.676601929080242"><ele>60.0</ele><time>2026-04-04T17:32:02.999Z</time></trkpt><trkpt lat="38.98945459169694" lon="8.676261250855722"><ele>59.0</ele><time>2026-04-04T17:32:03.999Z</time></trkpt><trkpt lat="38.989513188462716" lon="8.675925092298352"><ele>57.5</ele><time>2026-04-04T17:32:04.999Z</time></trkpt><trkpt lat="38.989572179505785" lon="8.675581918905726"><ele>56.0</ele><time>2026-04-04T17:32:05.999Z</time></trkpt><trkpt lat="38.98963034279093" lon="8.67523861698492"><ele>55.0</ele><time>2026-04-04T17:32:07Z</time></trkpt><trkpt lat="38.98968784168496" lon="8.674895430358458"><ele>54.0</ele><time>2026-04-04T17:32:08Z</time></trkpt><trkpt lat="38.989746330059184" lon="8.674550667444768"><ele>53.5</ele><time>2026-04-04T17:32:09Z</time></trkpt><trkpt lat="38.98980708091341" lon="8.674207045127938"><ele>53.0</ele><time>2026-04-04T17:32:10Z</time></trkpt><trkpt lat="38.98986872049945" lon="8.67386515635672"><ele>53.0</ele><time>2026-04-04T17:32:11Z</time></trkpt><trkpt lat="38.989927423265776" lon="8.673520888822399"><ele>53.0</ele><time>2026-04-04T17:32:12Z</time></trkpt><trkpt lat="38.989986053206074" lon="8.673180057714598"><ele>55.5</ele><time>2026-04-04T17:32:13Z</time></trkpt><trkpt lat="38.99004517300761" lon="8.672838052073905"><ele>58.0</ele><time>2026-04-04T17:32:14Z</time></trkpt><trkpt lat="38.99010431666415" lon="8.672497349798773"><ele>58.0</ele><time>2026-04-04T17:32:15Z</time></trkpt><trkpt lat="38.99016238458226" lon="8.672162258029525"><ele>58.0</ele><time>2026-04-04T17:32:16Z</time></trkpt><trkpt lat="38.99021858523232" lon="8.671824801026881"><ele>58.5</ele><time>2026-04-04T17:32:17Z</time></trkpt><trkpt lat="38.99027333594373" lon="8.671496282781039"><ele>59.0</ele><time>2026-04-04T17:32:18Z</time></trkpt><trkpt lat="38.990328411579455" lon="8.671168287444655"><ele>58.5</ele><time>2026-04-04T17:32:19Z</time></trkpt><trkpt lat="38.9903871627162" lon="8.670839059033861"><ele>58.0</ele><time>2026-04-04T17:32:20Z</time></trkpt><trkpt lat="38.99044293385752" lon="8.670515959096084"><ele>57.5</ele><time>2026-04-04T17:32:21Z</time></trkpt><trkpt lat="38.99049849642762" lon="8.670190704540268"><ele>57.0</ele><time>2026-04-04T17:32:22Z</time></trkpt><trkpt lat="38.99055573255031" lon="8.66986305125722"><ele>57.0</ele><time>2026-04-04T17:32:23Z</time></trkpt><trkpt lat="38.99061095193393" lon="8.66953569110718"><ele>57.0</ele><time>2026-04-04T17:32:24Z</time></trkpt><trkpt lat="38.99066827756833" lon="8.66920107025032"><ele>56.5</ele><time>2026-04-04T17:32:25Z</time></trkpt><trkpt lat="38.9907246229609" lon="8.668866948299849"><ele>56.0</ele><time>2026-04-04T17:32:26Z</time></trkpt><trkpt lat="38.99077911804707" lon="8.66855181725732"><ele>56.0</ele><time>2026-04-04T17:32:27Z</time></trkpt><trkpt lat="38.99083181729989" lon="8.668254416822023"><ele>56.0</ele><time>2026-04-04T17:32:28Z</time></trkpt><trkpt lat="38.990881922906695" lon="8.66797002046693"><ele>58.5</ele><time>2026-04-04T17:32:29Z</time></trkpt><trkpt lat="38.990932352001806" lon="8.667678854603055"><ele>61.0</ele><time>2026-04-04T17:32:30Z</time></trkpt><trkpt lat="38.99098132954966" lon="8.667396106147729"><ele>61.0</ele><time>2026-04-04T17:32:31Z</time></trkpt><trkpt lat="38.99102365537054" lon="8.667125438809215"><ele>61.0</ele><time>2026-04-04T17:32:32Z</time></trkpt><trkpt lat="38.99105354019168" lon="8.66683609981901"><ele>61.0</ele><time>2026-04-04T17:32:33Z</time></trkpt><trkpt lat="38.99106644115455" lon="8.666529969212556"><ele>62.0</ele><time>2026-04-04T17:32:34Z</time></trkpt><trkpt lat="38.99106111700788" lon="8.666222800280467"><ele>63.0</ele><time>2026-04-04T17:32:35Z</time></trkpt><trkpt lat="38.991048982532966" lon="8.665930857654418"><ele>64.0</ele><time>2026-04-04T17:32:36Z</time></trkpt><trkpt lat="38.99103872345969" lon="8.665641291718096"><ele>65.0</ele><time>2026-04-04T17:32:37Z</time></trkpt><trkpt lat="38.991030243010385" lon="8.66535027184011"><ele>66.0</ele><time>2026-04-04T17:32:38Z</time></trkpt><trkpt lat="38.991022017795686" lon="8.665060153392442"><ele>67.0</ele><time>2026-04-04T17:32:39Z</time></trkpt><trkpt lat="38.99101345531581" lon="8.66476149895654"><ele>67.0</ele><time>2026-04-04T17:32:40Z</time></trkpt><trkpt lat="38.99100428465323" lon="8.664458155780936"><ele>67.0</ele><time>2026-04-04T17:32:41Z</time></trkpt><trkpt lat="38.990994907476704" lon="8.66415516873912"><ele>67.66666666666666</ele><time>2026-04-04T17:32:42Z</time></trkpt><trkpt lat="38.99098806081627" lon="8.66385654020466"><ele>68.33333333333333</ele><time>2026-04-04T17:32:43Z</time></trkpt><trkpt lat="38.990980729460276" lon="8.663579751223523"><ele>69.0</ele><time>2026-04-04T17:32:44Z</time></trkpt><trkpt lat="38.99097550216291" lon="8.6633036101887"><ele>69.0</ele><time>2026-04-04T17:32:45Z</time></trkpt><trkpt lat="38.99097491063485" lon="8.663019756274503"><ele>69.0</ele><time>2026-04-04T17:32:46Z</time></trkpt><trkpt lat="38.990983447882044" lon="8.66273090139767"><ele>69.0</ele><time>2026-04-04T17:32:47Z</time></trkpt><trkpt lat="38.99100165314366" lon="8.662447355250972"><ele>68.66666666666667</ele><time>2026-04-04T17:32:48Z</time></trkpt><trkpt lat="38.99102204788777" lon="8.662181102807569"><ele>68.33333333333334</ele><time>2026-04-04T17:32:49Z</time></trkpt><trkpt lat="38.99104003888377" lon="8.661932087141757"><ele>68.0</ele><time>2026-04-04T17:32:50Z</time></trkpt><trkpt lat="38.99105535796197" lon="8.661697781452093"><ele>67.33333333333334</ele><time>2026-04-04T17:32:51Z</time></trkpt><trkpt lat="38.991069111423265" lon="8.661472769330103"><ele>66.66666666666667</ele><time>2026-04-04T17:32:52Z</time></trkpt><trkpt lat="38.99108267966421" lon="8.661250143276801"><ele>66.0</ele><time>2026-04-04T17:32:53Z</time></trkpt><trkpt lat="38.9910934110385" lon="8.661021481663226"><ele>65.66666666666667</ele><time>2026-04-04T17:32:54Z</time></trkpt><trkpt lat="38.99109366061135" lon="8.660788899265137"><ele>65.33333333333334</ele><time>2026-04-04T17:32:55Z</time></trkpt><trkpt lat="38.991068588982785" lon="8.660556035269623"><ele>65.0</ele><time>2026-04-04T17:32:56Z</time></trkpt><trkpt lat="38.99103510070517" lon="8.660345078454231"><ele>64.33333333333334</ele><time>2026-04-04T17:32:57Z</time></trkpt><trkpt lat="38.99100676235531" lon="8.660148167525422"><ele>63.66666666666667</ele><time>2026-04-04T17:32:58Z</time></trkpt><trkpt lat="38.990994824273976" lon="8.659952474586255"><ele>63.0</ele><time>2026-04-04T17:32:59Z</time></trkpt><trkpt lat="38.991013952887414" lon="8.659747951879034"><ele>63.0</ele><time>2026-04-04T17:33:00Z</time></trkpt><trkpt lat="38.99106174584032" lon="8.659528985886176"><ele>63.0</ele><time>2026-04-04T17:33:01Z</time></trkpt><trkpt lat="38.99112861641154" lon="8.659300572419554"><ele>63.0</ele><time>2026-04-04T17:33:02Z</time></trkpt><trkpt lat="38.991190698517244" lon="8.659060351245273"><ele>61.66666666666667</ele><time>2026-04-04T17:33:03Z</time></trkpt><trkpt lat="38.99125438726447" lon="8.658800705885584"><ele>60.333333333333336</ele><time>2026-04-04T17:33:04Z</time></trkpt><trkpt lat="38.991321073798375" lon="8.658534311687873"><ele>59.0</ele><time>2026-04-04T17:33:05Z</time></trkpt><trkpt lat="38.991387317144884" lon="8.658278523214667"><ele>58.0</ele><time>2026-04-04T17:33:06Z</time></trkpt><trkpt lat="38.9914496455442" lon="8.658026320918877"><ele>57.0</ele><time>2026-04-04T17:33:07Z</time></trkpt><trkpt lat="38.991513071500464" lon="8.657767063178843"><ele>56.0</ele><time>2026-04-04T17:33:08Z</time></trkpt><trkpt lat="38.99158069250199" lon="8.657497235283808"><ele>55.66666666666667</ele><time>2026-04-04T17:33:09Z</time></trkpt><trkpt lat="38.99165115182031" lon="8.65721940644866"><ele>55.33333333333333</ele><time>2026-04-04T17:33:10Z</time></trkpt><trkpt lat="38.99171627039355" lon="8.656964895946773"><ele>55.0</ele><time>2026-04-04T17:33:11Z</time></trkpt><trkpt lat="38.99177610803278" lon="8.656743003612695"><ele>56.33333333333333</ele><time>2026-04-04T17:33:12Z</time></trkpt><trkpt lat="38.99184443891614" lon="8.656538970873077"><ele>57.66666666666667</ele><time>2026-04-04T17:33:13Z</time></trkpt><trkpt lat="38.991938148028574" lon="8.656340660837266"><ele>59.0</ele><time>2026-04-04T17:33:14Z</time></trkpt><trkpt lat="38.99205257457399" lon="8.656144959465019"><ele>58.333333333333336</ele><time>2026-04-04T17:33:15Z</time></trkpt><trkpt lat="38.99218124188756" lon="8.65594071716161"><ele>57.66666666666667</ele><time>2026-04-04T17:33:16Z</time></trkpt><trkpt lat="38.992319285739576" lon="8.655731654314476"><ele>57.0</ele><time>2026-04-04T17:33:17Z</time></trkpt><trkpt lat="38.99245805142898" lon="8.655517041926013"><ele>57.66666666666667</ele><time>2026-04-04T17:33:18Z</time></trkpt><trkpt lat="38.99259714805298" lon="8.65529896762263"><ele>58.333333333333336</ele><time>2026-04-04T17:33:19Z</time></trkpt><trkpt lat="38.99272514455437" lon="8.655095382405692"><ele>59.0</ele><time>2026-04-04T17:33:20Z</time></trkpt><trkpt lat="38.99284466968993" lon="8.654905547617705"><ele>59.0</ele><time>2026-04-04T17:33:21Z</time></trkpt><trkpt lat="38.99295963334397" lon="8.654721980509724"><ele>59.0</ele><time>2026-04-04T17:33:22Z</time></trkpt><trkpt lat="38.99307578471915" lon="8.65454098753532"><ele>59.0</ele><time>2026-04-04T17:33:23Z</time></trkpt><trkpt lat="38.99318949948142" lon="8.654361098244575"><ele>58.0</ele><time>2026-04-04T17:33:24Z</time></trkpt><trkpt lat="38.99330278301397" lon="8.654186829777165"><ele>57.0</ele><time>2026-04-04T17:33:25Z</time></trkpt><trkpt lat="38.99342003948165" lon="8.65401009624637"><ele>56.0</ele><time>2026-04-04T17:33:26Z</time></trkpt><trkpt lat="38.993531774456386" lon="8.65383275186631"><ele>56.66666666666667</ele><time>2026-04-04T17:33:27Z</time></trkpt><trkpt lat="38.99364802867483" lon="8.653644025966724"><ele>57.33333333333333</ele><time>2026-04-04T17:33:28Z</time></trkpt><trkpt lat="38.99377292898172" lon="8.65345188521523"><ele>58.0</ele><time>2026-04-04T17:33:29Z</time></trkpt><trkpt lat="38.99390665496788" lon="8.653260974528354"><ele>58.0</ele><time>2026-04-04T17:33:30Z</time></trkpt><trkpt lat="38.9940533903336" lon="8.653068320853572"><ele>58.0</ele><time>2026-04-04T17:33:31Z</time></trkpt><trkpt lat="38.994208197503006" lon="8.652876336009053"><ele>58.0</ele><time>2026-04-04T17:33:31.999Z</time></trkpt><trkpt lat="38.994381679261124" lon="8.652684908792837"><ele>60.5</ele><time>2026-04-04T17:33:32.999Z</time></trkpt><trkpt lat="38.99456702831757" lon="8.652504760996365"><ele>63.0</ele><time>2026-04-04T17:33:33.999Z</time></trkpt><trkpt lat="38.99476666835063" lon="8.652332170139495"><ele>63.0</ele><time>2026-04-04T17:33:34.999Z</time></trkpt><trkpt lat="38.994978128318174" lon="8.652170295279177"><ele>63.0</ele><time>2026-04-04T17:33:35.999Z</time></trkpt><trkpt lat="38.99519967219488" lon="8.652020632337823"><ele>64.0</ele><time>2026-04-04T17:33:36.999Z</time></trkpt><trkpt lat="38.9954265258676" lon="8.651883576713704"><ele>65.0</ele><time>2026-04-04T17:33:37.999Z</time></trkpt><trkpt lat="38.99566996410125" lon="8.65177565261551"><ele>69.0</ele><time>2026-04-04T17:33:38.999Z</time></trkpt><trkpt lat="38.99591660103763" lon="8.65168088745409"><ele>73.0</ele><time>2026-04-04T17:33:39.999Z</time></trkpt><trkpt lat="38.99616976367506" lon="8.651578040075057"><ele>73.0</ele><time>2026-04-04T17:33:40.999Z</time></trkpt><trkpt lat="38.99642499791005" lon="8.65147440996876"><ele>73.0</ele><time>2026-04-04T17:33:41.999Z</time></trkpt><trkpt lat="38.99667769550283" lon="8.651368719560601"><ele>75.5</ele><time>2026-04-04T17:33:42.999Z</time></trkpt><trkpt lat="38.996916805813676" lon="8.65126558484474"><ele>78.0</ele><time>2026-04-04T17:33:43.999Z</time></trkpt><trkpt lat="38.997145677912044" lon="8.651167430100283"><ele>77.0</ele><time>2026-04-04T17:33:44.999Z</time></trkpt><trkpt lat="38.99735454447193" lon="8.651077202108832"><ele>76.0</ele><time>2026-04-04T17:33:45.999Z</time></trkpt><trkpt lat="38.99755569556602" lon="8.650991275981445"><ele>75.0</ele><time>2026-04-04T17:33:46.999Z</time></trkpt><trkpt lat="38.99775944300917" lon="8.650902160340193"><ele>73.66666666666667</ele><time>2026-04-04T17:33:47.999Z</time></trkpt><trkpt lat="38.9979587371938" lon="8.650815502137188"><ele>72.33333333333334</ele><time>2026-04-04T17:33:48.999Z</time></trkpt><trkpt lat="38.998163713324004" lon="8.650726622024308"><ele>71.0</ele><time>2026-04-04T17:33:49.999Z</time></trkpt><trkpt lat="38.998367814562705" lon="8.650639310837944"><ele>71.0</ele><time>2026-04-04T17:33:50.999Z</time></trkpt><trkpt lat="38.99857402214328" lon="8.65055119518382"><ele>71.0</ele><time>2026-04-04T17:33:51.999Z</time></trkpt><trkpt lat="38.99877417401202" lon="8.650466886080945"><ele>71.0</ele><time>2026-04-04T17:33:52.999Z</time></trkpt><trkpt lat="38.99897286035229" lon="8.65037959832044"><ele>70.33333333333334</ele><time>2026-04-04T17:33:53.999Z</time></trkpt><trkpt lat="38.99916905624854" lon="8.65028112914358"><ele>69.66666666666667</ele><time>2026-04-04T17:33:54.999Z</time></trkpt><trkpt lat="38.99936036366708" lon="8.650169528080085"><ele>69.0</ele><time>2026-04-04T17:33:55.999Z</time></trkpt><trkpt lat="38.99954608911233" lon="8.650039817348292"><ele>69.0</ele><time>2026-04-04T17:33:56.999Z</time></trkpt><trkpt lat="38.99972160510532" lon="8.649898756172599"><ele>69.0</ele><time>2026-04-04T17:33:57.999Z</time></trkpt><trkpt lat="38.99988457760495" lon="8.649747270665047"><ele>69.0</ele><time>2026-04-04T17:33:58.999Z</time></trkpt><trkpt lat="39.000027242326986" lon="8.649595814540781"><ele>67.33333333333333</ele><time>2026-04-04T17:33:59.999Z</time></trkpt><trkpt lat="39.0001662996364" lon="8.6494354434129"><ele>65.66666666666666</ele><time>2026-04-04T17:34:00.999Z</time></trkpt><trkpt lat="39.00030137556758" lon="8.649262182556555"><ele>64.0</ele><time>2026-04-04T17:34:01.999Z</time></trkpt><trkpt lat="39.000425854555765" lon="8.64907583099946"><ele>64.0</ele><time>2026-04-04T17:34:02.999Z</time></trkpt><trkpt lat="39.00053986212435" lon="8.648882391489614"><ele>64.0</ele><time>2026-04-04T17:34:03.999Z</time></trkpt><trkpt lat="39.00064617699399" lon="8.64868074288819"><ele>64.0</ele><time>2026-04-04T17:34:04.999Z</time></trkpt><trkpt lat="39.000753694609045" lon="8.648476874913019"><ele>65.0</ele><time>2026-04-04T17:34:05.999Z</time></trkpt><trkpt lat="39.00086263956038" lon="8.648277329319347"><ele>66.0</ele><time>2026-04-04T17:34:06.999Z</time></trkpt><trkpt lat="39.00097105495672" lon="8.648078490544462"><ele>67.0</ele><time>2026-04-04T17:34:07.999Z</time></trkpt><trkpt lat="39.001080219896416" lon="8.647875711877258"><ele>66.66666666666666</ele><time>2026-04-04T17:34:08.999Z</time></trkpt><trkpt lat="39.001186739179886" lon="8.647676905676803"><ele>66.33333333333333</ele><time>2026-04-04T17:34:09.999Z</time></trkpt><trkpt lat="39.00129582418771" lon="8.647473947412028"><ele>66.0</ele><time>2026-04-04T17:34:10.999Z</time></trkpt><trkpt lat="39.00140256911169" lon="8.64727570898095"><ele>66.0</ele><time>2026-04-04T17:34:11.999Z</time></trkpt><trkpt lat="39.00150688612728" lon="8.647074219560379"><ele>66.0</ele><time>2026-04-04T17:34:13Z</time></trkpt><trkpt lat="39.00161337067372" lon="8.646872429927317"><ele>66.0</ele><time>2026-04-04T17:34:14Z</time></trkpt><trkpt lat="39.00171646904601" lon="8.646678190582211"><ele>67.33333333333333</ele><time>2026-04-04T17:34:15Z</time></trkpt><trkpt lat="39.00181712174746" lon="8.646486134096863"><ele>68.66666666666666</ele><time>2026-04-04T17:34:16Z</time></trkpt><trkpt lat="39.00191526550606" lon="8.646300096580408"><ele>70.0</ele><time>2026-04-04T17:34:17Z</time></trkpt><trkpt lat="39.002012506850626" lon="8.64611891508597"><ele>70.25</ele><time>2026-04-04T17:34:18Z</time></trkpt><trkpt lat="39.00210085267981" lon="8.64595914256369"><ele>70.5</ele><time>2026-04-04T17:34:19Z</time></trkpt><trkpt lat="39.00218318946951" lon="8.6458110441411"><ele>70.75</ele><time>2026-04-04T17:34:20Z</time></trkpt><trkpt lat="39.00225954088385" lon="8.645668281154371"><ele>71.0</ele><time>2026-04-04T17:34:21Z</time></trkpt><trkpt lat="39.00233652090356" lon="8.645521688401665"><ele>71.0</ele><time>2026-04-04T17:34:22Z</time></trkpt><trkpt lat="39.002407248326236" lon="8.64538902902797"><ele>71.0</ele><time>2026-04-04T17:34:23Z</time></trkpt><trkpt lat="39.00247582058642" lon="8.645261001775047"><ele>71.0</ele><time>2026-04-04T17:34:24Z</time></trkpt><trkpt lat="39.00254511739596" lon="8.645130444559301"><ele>71.0</ele><time>2026-04-04T17:34:25Z</time></trkpt><trkpt lat="39.00261433735446" lon="8.64499639251822"><ele>71.2</ele><time>2026-04-04T17:34:26Z</time></trkpt><trkpt lat="39.00268240081825" lon="8.64487239937181"><ele>71.39999999999999</ele><time>2026-04-04T17:34:27Z</time></trkpt><trkpt lat="39.00274707563472" lon="8.644757303184479"><ele>71.6</ele><time>2026-04-04T17:34:28Z</time></trkpt><trkpt lat="39.002808417326804" lon="8.644649978585544"><ele>71.8</ele><time>2026-04-04T17:34:29Z</time></trkpt><trkpt lat="39.002860636802446" lon="8.644554942124042"><ele>72.0</ele><time>2026-04-04T17:34:30Z</time></trkpt><trkpt lat="39.00291049845059" lon="8.64445786106622"><ele>72.0</ele><time>2026-04-04T17:34:31Z</time></trkpt><trkpt lat="39.00295736530356" lon="8.644350996568772"><ele>72.0</ele><time>2026-04-04T17:34:32Z</time></trkpt><trkpt lat="39.00301894583194" lon="8.644235355192139"><ele>72.0</ele><time>2026-04-04T17:34:33Z</time></trkpt><trkpt lat="39.00308745621759" lon="8.64411620946325"><ele>72.0</ele><time>2026-04-04T17:34:34Z</time></trkpt><trkpt lat="39.00315428775988" lon="8.643994422412858"><ele>72.0</ele><time>2026-04-04T17:34:35Z</time></trkpt><trkpt lat="39.00322072407792" lon="8.643870850760829"><ele>72.0</ele><time>2026-04-04T17:34:36Z</time></trkpt><trkpt lat="39.003289238762555" lon="8.64373854920369"><ele>72.0</ele><time>2026-04-04T17:34:37Z</time></trkpt><trkpt lat="39.00335822840244" lon="8.643604776004578"><ele>72.0</ele><time>2026-04-04T17:34:38Z</time></trkpt><trkpt lat="39.00343036807621" lon="8.6434683802703"><ele>72.0</ele><time>2026-04-04T17:34:39Z</time></trkpt><trkpt lat="39.003503200877" lon="8.643332557211966"><ele>72.0</ele><time>2026-04-04T17:34:40Z</time></trkpt><trkpt lat="39.00357609908467" lon="8.643193084676781"><ele>72.0</ele><time>2026-04-04T17:34:41Z</time></trkpt><trkpt lat="39.003641172533605" lon="8.643066375082292"><ele>72.0</ele><time>2026-04-04T17:34:42Z</time></trkpt><trkpt lat="39.0036986461597" lon="8.642950285260897"><ele>72.0</ele><time>2026-04-04T17:34:43Z</time></trkpt><trkpt lat="39.00375023204227" lon="8.642844683457128"><ele>71.6</ele><time>2026-04-04T17:34:44Z</time></trkpt><trkpt lat="39.00379887982941" lon="8.642744511351307"><ele>71.2</ele><time>2026-04-04T17:34:45Z</time></trkpt><trkpt lat="39.003851208065996" lon="8.642642617927136"><ele>70.8</ele><time>2026-04-04T17:34:46Z</time></trkpt><trkpt lat="39.00391214219114" lon="8.642535093506417"><ele>70.4</ele><time>2026-04-04T17:34:47Z</time></trkpt><trkpt lat="39.0039795391838" lon="8.642417172926178"><ele>70.0</ele><time>2026-04-04T17:34:48Z</time></trkpt><trkpt lat="39.00404714370804" lon="8.642291513129996"><ele>70.0</ele><time>2026-04-04T17:34:49Z</time></trkpt><trkpt lat="39.00411562582139" lon="8.64215665939241"><ele>70.0</ele><time>2026-04-04T17:34:50Z</time></trkpt><trkpt lat="39.004187693815865" lon="8.64201689397092"><ele>70.0</ele><time>2026-04-04T17:34:51Z</time></trkpt><trkpt lat="39.004262128638146" lon="8.641874516294166"><ele>70.0</ele><time>2026-04-04T17:34:52Z</time></trkpt><trkpt lat="39.00434003796735" lon="8.641728315650406"><ele>70.8</ele><time>2026-04-04T17:34:53Z</time></trkpt><trkpt lat="39.00441448978994" lon="8.641593290969533"><ele>71.6</ele><time>2026-04-04T17:34:54Z</time></trkpt><trkpt lat="39.00447900083858" lon="8.641477770424457"><ele>72.4</ele><time>2026-04-04T17:34:55Z</time></trkpt><trkpt lat="39.00453928109643" lon="8.6413710661054"><ele>73.2</ele><time>2026-04-04T17:34:56Z</time></trkpt><trkpt lat="39.00459115658733" lon="8.641276724747652"><ele>74.0</ele><time>2026-04-04T17:34:57Z</time></trkpt><trkpt lat="39.00464018582232" lon="8.641189485442624"><ele>73.71428571428572</ele><time>2026-04-04T17:34:58Z</time></trkpt><trkpt lat="39.00468545833473" lon="8.641107725777946"><ele>73.42857142857143</ele><time>2026-04-04T17:34:59Z</time></trkpt><trkpt lat="39.00472615862828" lon="8.641032509228728"><ele>73.14285714285714</ele><time>2026-04-04T17:35:00Z</time></trkpt><trkpt lat="39.004763389565646" lon="8.640958004309471"><ele>72.85714285714286</ele><time>2026-04-04T17:35:01Z</time></trkpt><trkpt lat="39.00480478021686" lon="8.640872013242166"><ele>72.57142857142857</ele><time>2026-04-04T17:35:02Z</time></trkpt><trkpt lat="39.00484612803889" lon="8.64078164411987"><ele>72.28571428571429</ele><time>2026-04-04T17:35:03Z</time></trkpt><trkpt lat="39.004885114616556" lon="8.640704822504963"><ele>72.0</ele><time>2026-04-04T17:35:04Z</time></trkpt><trkpt lat="39.004926116018396" lon="8.64063068374409"><ele>72.0</ele><time>2026-04-04T17:35:05Z</time></trkpt><trkpt lat="39.004966297883634" lon="8.640552323665982"><ele>72.0</ele><time>2026-04-04T17:35:06Z</time></trkpt><trkpt lat="39.00500363987278" lon="8.640478799062839"><ele>72.0</ele><time>2026-04-04T17:35:07Z</time></trkpt><trkpt lat="39.00504146335223" lon="8.640400157609568"><ele>72.0</ele><time>2026-04-04T17:35:08Z</time></trkpt><trkpt lat="39.00508111173403" lon="8.640327379581095"><ele>72.0</ele><time>2026-04-04T17:35:09Z</time></trkpt><trkpt lat="39.00513022964318" lon="8.640246960293464"><ele>72.0</ele><time>2026-04-04T17:35:10Z</time></trkpt><trkpt lat="39.00517830688134" lon="8.640151120835279"><ele>72.6</ele><time>2026-04-04T17:35:11Z</time></trkpt><trkpt lat="39.00523277918521" lon="8.640048175919569"><ele>73.2</ele><time>2026-04-04T17:35:12Z</time></trkpt><trkpt lat="39.005289485152765" lon="8.639945976970722"><ele>73.8</ele><time>2026-04-04T17:35:13Z</time></trkpt><trkpt lat="39.00534733883482" lon="8.639856666066471"><ele>74.4</ele><time>2026-04-04T17:35:14Z</time></trkpt><trkpt lat="39.00542093265717" lon="8.639775621436918"><ele>75.0</ele><time>2026-04-04T17:35:15Z</time></trkpt><trkpt lat="39.00551339397641" lon="8.639685832204329"><ele>75.0</ele><time>2026-04-04T17:35:15.999Z</time></trkpt><trkpt lat="39.00562564204396" lon="8.63957764556696"><ele>75.0</ele><time>2026-04-04T17:35:16.999Z</time></trkpt><trkpt lat="39.005751002138396" lon="8.639455560860645"><ele>75.0</ele><time>2026-04-04T17:35:17.999Z</time></trkpt><trkpt lat="39.005871262210675" lon="8.639318141534773"><ele>75.33333333333333</ele><time>2026-04-04T17:35:18.999Z</time></trkpt><trkpt lat="39.005966180581645" lon="8.639179932576933"><ele>75.66666666666666</ele><time>2026-04-04T17:35:19.999Z</time></trkpt><trkpt lat="39.0060561864407" lon="8.639023125622243"><ele>76.0</ele><time>2026-04-04T17:35:20.999Z</time></trkpt><trkpt lat="39.00614924847961" lon="8.638859574825744"><ele>76.0</ele><time>2026-04-04T17:35:21.999Z</time></trkpt><trkpt lat="39.00624455438568" lon="8.638696021283478"><ele>76.0</ele><time>2026-04-04T17:35:22.999Z</time></trkpt><trkpt lat="39.006337638402464" lon="8.638541683092484"><ele>76.0</ele><time>2026-04-04T17:35:23.999Z</time></trkpt><trkpt lat="39.0064326633228" lon="8.638404688443543"><ele>76.0</ele><time>2026-04-04T17:35:24.999Z</time></trkpt><trkpt lat="39.00654451903415" lon="8.638283218094324"><ele>76.0</ele><time>2026-04-04T17:35:25.999Z</time></trkpt><trkpt lat="39.00666619564548" lon="8.63817847082246"><ele>76.0</ele><time>2026-04-04T17:35:26.999Z</time></trkpt><trkpt lat="39.00679247781606" lon="8.638083019162712"><ele>76.0</ele><time>2026-04-04T17:35:27.999Z</time></trkpt><trkpt lat="39.006922591557526" lon="8.638011701440915"><ele>76.0</ele><time>2026-04-04T17:35:28.999Z</time></trkpt><trkpt lat="39.00706816560301" lon="8.63797464705534"><ele>76.0</ele><time>2026-04-04T17:35:29.999Z</time></trkpt><trkpt lat="39.00722355926694" lon="8.637961770477066"><ele>76.0</ele><time>2026-04-04T17:35:30.999Z</time></trkpt><trkpt lat="39.00737891758189" lon="8.637960457303066"><ele>77.33333333333333</ele><time>2026-04-04T17:35:31.999Z</time></trkpt><trkpt lat="39.007537802227105" lon="8.63798392850918"><ele>78.66666666666667</ele><time>2026-04-04T17:35:32.999Z</time></trkpt><trkpt lat="39.00769962196378" lon="8.63803875163689"><ele>80.0</ele><time>2026-04-04T17:35:33.999Z</time></trkpt><trkpt lat="39.00786731484533" lon="8.638090583990314"><ele>80.0</ele><time>2026-04-04T17:35:34.999Z</time></trkpt><trkpt lat="39.00804274925443" lon="8.638127652997955"><ele>80.0</ele><time>2026-04-04T17:35:35.999Z</time></trkpt><trkpt lat="39.00822224891261" lon="8.638138998498267"><ele>80.0</ele><time>2026-04-04T17:35:36.999Z</time></trkpt><trkpt lat="39.0084090817247" lon="8.638138241207786"><ele>80.0</ele><time>2026-04-04T17:35:37.999Z</time></trkpt><trkpt lat="39.008588712986025" lon="8.638135128119542"><ele>80.0</ele><time>2026-04-04T17:35:38.999Z</time></trkpt><trkpt lat="39.0087573280989" lon="8.638137427712035"><ele>80.0</ele><time>2026-04-04T17:35:39.999Z</time></trkpt><trkpt lat="39.00893133915676" lon="8.638147908963418"><ele>80.0</ele><time>2026-04-04T17:35:40.999Z</time></trkpt><trkpt lat="39.00910640451033" lon="8.638172600562939"><ele>80.0</ele><time>2026-04-04T17:35:41.999Z</time></trkpt><trkpt lat="39.00927817939569" lon="8.638217800780572"><ele>80.0</ele><time>2026-04-04T17:35:42.999Z</time></trkpt><trkpt lat="39.009450131655626" lon="8.63826714946283"><ele>80.0</ele><time>2026-04-04T17:35:43.999Z</time></trkpt><trkpt lat="39.00961389141704" lon="8.638313339724219"><ele>80.0</ele><time>2026-04-04T17:35:44.999Z</time></trkpt><trkpt lat="39.00977187789482" lon="8.638357330525993"><ele>80.0</ele><time>2026-04-04T17:35:45.999Z</time></trkpt><trkpt lat="39.00992139448385" lon="8.63839968089744"><ele>80.0</ele><time>2026-04-04T17:35:46.999Z</time></trkpt><trkpt lat="39.01006614572155" lon="8.63844023772784"><ele>80.0</ele><time>2026-04-04T17:35:47.999Z</time></trkpt><trkpt lat="39.010214186573926" lon="8.638481748043207"><ele>80.0</ele><time>2026-04-04T17:35:48.999Z</time></trkpt><trkpt lat="39.01036168315952" lon="8.63852341458243"><ele>80.0</ele><time>2026-04-04T17:35:49.999Z</time></trkpt><trkpt lat="39.01050863361018" lon="8.63856586365124"><ele>80.0</ele><time>2026-04-04T17:35:50.999Z</time></trkpt><trkpt lat="39.01065723880881" lon="8.638607359536216"><ele>80.0</ele><time>2026-04-04T17:35:51.999Z</time></trkpt><trkpt lat="39.01080338008119" lon="8.638647561988563"><ele>82.66666666666667</ele><time>2026-04-04T17:35:52.999Z</time></trkpt><trkpt lat="39.010944982750466" lon="8.638708771595084"><ele>85.33333333333333</ele><time>2026-04-04T17:35:53.999Z</time></trkpt><trkpt lat="39.01109493215805" lon="8.638729956058336"><ele>88.0</ele><time>2026-04-04T17:35:54.999Z</time></trkpt><trkpt lat="39.01124358952638" lon="8.638776138321171"><ele>88.0</ele><time>2026-04-04T17:35:55.999Z</time></trkpt><trkpt lat="39.011392728842914" lon="8.638819869954293"><ele>88.0</ele><time>2026-04-04T17:35:56.999Z</time></trkpt><trkpt lat="39.01154360546865" lon="8.638863478130084"><ele>88.0</ele><time>2026-04-04T17:35:57.999Z</time></trkpt><trkpt lat="39.0116951705198" lon="8.638907319723453"><ele>87.66666666666666</ele><time>2026-04-04T17:35:58.999Z</time></trkpt><trkpt lat="39.011847545336515" lon="8.638950318551577"><ele>87.33333333333333</ele><time>2026-04-04T17:35:59.999Z</time></trkpt><trkpt lat="39.011997614385926" lon="8.638993519851294"><ele>87.0</ele><time>2026-04-04T17:36:00.999Z</time></trkpt><trkpt lat="39.01214998901896" lon="8.63903593036883"><ele>87.0</ele><time>2026-04-04T17:36:01.999Z</time></trkpt><trkpt lat="39.012292080133825" lon="8.639078174381709"><ele>87.0</ele><time>2026-04-04T17:36:02.999Z</time></trkpt><trkpt lat="39.01243619018632" lon="8.639118694272666"><ele>87.0</ele><time>2026-04-04T17:36:03.999Z</time></trkpt><trkpt lat="39.012582577490775" lon="8.639159196746057"><ele>87.0</ele><time>2026-04-04T17:36:04.999Z</time></trkpt><trkpt lat="39.012728753565604" lon="8.639197595869431"><ele>86.0</ele><time>2026-04-04T17:36:05.999Z</time></trkpt><trkpt lat="39.01287598843143" lon="8.639230022248562"><ele>85.0</ele><time>2026-04-04T17:36:06.999Z</time></trkpt><trkpt lat="39.01302195949477" lon="8.639272944710587"><ele>84.0</ele><time>2026-04-04T17:36:07.999Z</time></trkpt><trkpt lat="39.01317351069369" lon="8.639263629407269"><ele>83.25</ele><time>2026-04-04T17:36:08.999Z</time></trkpt><trkpt lat="39.013323155349504" lon="8.639268646185288"><ele>82.5</ele><time>2026-04-04T17:36:09.999Z</time></trkpt><trkpt lat="39.01347229249678" lon="8.639270317034226"><ele>81.75</ele><time>2026-04-04T17:36:10.999Z</time></trkpt><trkpt lat="39.013620746684055" lon="8.639270850069053"><ele>81.0</ele><time>2026-04-04T17:36:11.999Z</time></trkpt><trkpt lat="39.01377174702844" lon="8.639269441097085"><ele>81.0</ele><time>2026-04-04T17:36:12.999Z</time></trkpt><trkpt lat="39.01392229691605" lon="8.639268867030692"><ele>81.0</ele><time>2026-04-04T17:36:13.999Z</time></trkpt><trkpt lat="39.0140706270598" lon="8.639267186412155"><ele>81.0</ele><time>2026-04-04T17:36:14.999Z</time></trkpt><trkpt lat="39.01421557507837" lon="8.639266874634254"><ele>81.0</ele><time>2026-04-04T17:36:15.999Z</time></trkpt><trkpt lat="39.014359179454395" lon="8.639265783446074"><ele>82.0</ele><time>2026-04-04T17:36:16.999Z</time></trkpt><trkpt lat="39.01450321373624" lon="8.639263051771458"><ele>83.0</ele><time>2026-04-04T17:36:17.999Z</time></trkpt><trkpt lat="39.014644095692205" lon="8.63925574726488"><ele>84.0</ele><time>2026-04-04T17:36:19Z</time></trkpt><trkpt lat="39.01478587006273" lon="8.639242834527376"><ele>85.0</ele><time>2026-04-04T17:36:20Z</time></trkpt><trkpt lat="39.01493188452363" lon="8.639228579055551"><ele>85.33333333333333</ele><time>2026-04-04T17:36:21Z</time></trkpt><trkpt lat="39.015083132462244" lon="8.639213010849163"><ele>85.66666666666667</ele><time>2026-04-04T17:36:22Z</time></trkpt><trkpt lat="39.015239057845655" lon="8.639198504214322"><ele>86.0</ele><time>2026-04-04T17:36:23Z</time></trkpt><trkpt lat="39.01539512221356" lon="8.639183706407392"><ele>86.0</ele><time>2026-04-04T17:36:24Z</time></trkpt><trkpt lat="39.01555608515297" lon="8.63916796638957"><ele>86.0</ele><time>2026-04-04T17:36:25Z</time></trkpt><trkpt lat="39.01572795826152" lon="8.639154288612538"><ele>86.0</ele><time>2026-04-04T17:36:26Z</time></trkpt><trkpt lat="39.01590692929454" lon="8.639140132849242"><ele>85.33333333333334</ele><time>2026-04-04T17:36:27Z</time></trkpt><trkpt lat="39.016080047542566" lon="8.639122757516748"><ele>84.66666666666667</ele><time>2026-04-04T17:36:28Z</time></trkpt><trkpt lat="39.01624093095809" lon="8.63910890164869"><ele>84.0</ele><time>2026-04-04T17:36:29Z</time></trkpt><trkpt lat="39.01639775700016" lon="8.639095730198923"><ele>84.0</ele><time>2026-04-04T17:36:30Z</time></trkpt><trkpt lat="39.01655662165051" lon="8.639080619127084"><ele>84.0</ele><time>2026-04-04T17:36:31Z</time></trkpt><trkpt lat="39.01672353633177" lon="8.63905375089636"><ele>84.0</ele><time>2026-04-04T17:36:32Z</time></trkpt><trkpt lat="39.016878229015234" lon="8.639010965569007"><ele>84.0</ele><time>2026-04-04T17:36:33Z</time></trkpt><trkpt lat="39.017020916790166" lon="8.638927850590358"><ele>84.0</ele><time>2026-04-04T17:36:34Z</time></trkpt><trkpt lat="39.01716966027822" lon="8.638813833154343"><ele>84.0</ele><time>2026-04-04T17:36:35Z</time></trkpt><trkpt lat="39.01732542876519" lon="8.638684933996355"><ele>83.33333333333333</ele><time>2026-04-04T17:36:36Z</time></trkpt><trkpt lat="39.01748375529344" lon="8.63855489481257"><ele>82.66666666666666</ele><time>2026-04-04T17:36:37Z</time></trkpt><trkpt lat="39.0176317992277" lon="8.638444509169881"><ele>82.0</ele><time>2026-04-04T17:36:38Z</time></trkpt><trkpt lat="39.01777698716287" lon="8.63835541420502"><ele>82.0</ele><time>2026-04-04T17:36:39Z</time></trkpt><trkpt lat="39.017935093182594" lon="8.638279907972564"><ele>82.0</ele><time>2026-04-04T17:36:40Z</time></trkpt><trkpt lat="39.01810467947716" lon="8.638233771854232"><ele>82.0</ele><time>2026-04-04T17:36:41Z</time></trkpt><trkpt lat="39.018282366179264" lon="8.638193602700184"><ele>82.33333333333333</ele><time>2026-04-04T17:36:42Z</time></trkpt><trkpt lat="39.01846804027729" lon="8.638145911784681"><ele>82.66666666666667</ele><time>2026-04-04T17:36:43Z</time></trkpt><trkpt lat="39.01864016017413" lon="8.638095960106547"><ele>83.0</ele><time>2026-04-04T17:36:44Z</time></trkpt><trkpt lat="39.018796658397456" lon="8.638045949756455"><ele>83.0</ele><time>2026-04-04T17:36:45Z</time></trkpt><trkpt lat="39.01893965137896" lon="8.638003447395166"><ele>83.0</ele><time>2026-04-04T17:36:46Z</time></trkpt><trkpt lat="39.019066607862555" lon="8.637968508589223"><ele>83.0</ele><time>2026-04-04T17:36:47Z</time></trkpt><trkpt lat="39.019182531825386" lon="8.63794159189498"><ele>83.0</ele><time>2026-04-04T17:36:48Z</time></trkpt><trkpt lat="39.01928205135699" lon="8.637932957455524"><ele>83.0</ele><time>2026-04-04T17:36:49Z</time></trkpt><trkpt lat="39.01937721089182" lon="8.637948932449474"><ele>83.0</ele><time>2026-04-04T17:36:50Z</time></trkpt><trkpt lat="39.01945698593636" lon="8.638005801635856"><ele>83.0</ele><time>2026-04-04T17:36:51Z</time></trkpt><trkpt lat="39.019540258566785" lon="8.638066152143121"><ele>83.0</ele><time>2026-04-04T17:36:52Z</time></trkpt><trkpt lat="39.01962237310607" lon="8.63806934391953"><ele>83.0</ele><time>2026-04-04T17:36:53Z</time></trkpt><trkpt lat="39.01974847081304" lon="8.637924576090748"><ele>83.0</ele><time>2026-04-04T17:36:55Z</time></trkpt><trkpt lat="39.019807643462826" lon="8.637810069913616"><ele>83.0</ele><time>2026-04-04T17:36:56Z</time></trkpt><trkpt lat="39.019906785805745" lon="8.637739162197867"><ele>83.0</ele><time>2026-04-04T17:36:57Z</time></trkpt><trkpt lat="39.02003126500686" lon="8.63770244889212"><ele>83.0</ele><time>2026-04-04T17:36:58Z</time></trkpt><trkpt lat="39.0201762626123" lon="8.637670234812788"><ele>81.33333333333334</ele><time>2026-04-04T17:36:59Z</time></trkpt><trkpt lat="39.02033401768746" lon="8.63762395134005"><ele>79.66666666666667</ele><time>2026-04-04T17:37:00Z</time></trkpt><trkpt lat="39.02049351079829" lon="8.637575536267999"><ele>78.0</ele><time>2026-04-04T17:37:01Z</time></trkpt><trkpt lat="39.02064437518097" lon="8.637534487520165"><ele>78.0</ele><time>2026-04-04T17:37:02Z</time></trkpt><trkpt lat="39.020811374166264" lon="8.637486813751064"><ele>78.0</ele><time>2026-04-04T17:37:03Z</time></trkpt><trkpt lat="39.020994880177774" lon="8.63743683341852"><ele>78.0</ele><time>2026-04-04T17:37:04Z</time></trkpt><trkpt lat="39.0211888145086" lon="8.63738629073881"><ele>77.33333333333333</ele><time>2026-04-04T17:37:05Z</time></trkpt><trkpt lat="39.02139995165858" lon="8.63732581314555"><ele>76.66666666666666</ele><time>2026-04-04T17:37:06Z</time></trkpt><trkpt lat="39.0216017147896" lon="8.637266819972226"><ele>76.0</ele><time>2026-04-04T17:37:07Z</time></trkpt><trkpt lat="39.02179399807652" lon="8.637213839793912"><ele>77.33333333333333</ele><time>2026-04-04T17:37:08Z</time></trkpt><trkpt lat="39.021999942291025" lon="8.637159327322626"><ele>78.66666666666667</ele><time>2026-04-04T17:37:09Z</time></trkpt><trkpt lat="39.02221153495738" lon="8.637100041063562"><ele>80.0</ele><time>2026-04-04T17:37:10Z</time></trkpt><trkpt lat="39.02242622138729" lon="8.637040391244424"><ele>80.33333333333334</ele><time>2026-04-04T17:37:11Z</time></trkpt><trkpt lat="39.02263781543001" lon="8.636981320366184"><ele>80.66666666666667</ele><time>2026-04-04T17:37:12Z</time></trkpt><trkpt lat="39.022846610008976" lon="8.63692311394274"><ele>81.0</ele><time>2026-04-04T17:37:12.999Z</time></trkpt><trkpt lat="39.02304544890434" lon="8.63686747512166"><ele>80.66666666666667</ele><time>2026-04-04T17:37:13.999Z</time></trkpt><trkpt lat="39.0232362209274" lon="8.636814630970735"><ele>80.33333333333334</ele><time>2026-04-04T17:37:14.999Z</time></trkpt><trkpt lat="39.02342705349827" lon="8.636782435468868"><ele>80.0</ele><time>2026-04-04T17:37:15.999Z</time></trkpt><trkpt lat="39.02359739713954" lon="8.636734602123676"><ele>80.0</ele><time>2026-04-04T17:37:16.999Z</time></trkpt><trkpt lat="39.023738873031064" lon="8.636672905426614"><ele>80.0</ele><time>2026-04-04T17:37:17.999Z</time></trkpt><trkpt lat="39.02387265338853" lon="8.636636147499239"><ele>80.0</ele><time>2026-04-04T17:37:18.999Z</time></trkpt><trkpt lat="39.02399207832142" lon="8.636603227856183"><ele>80.0</ele><time>2026-04-04T17:37:19.999Z</time></trkpt><trkpt lat="39.0240976838906" lon="8.636593436738112"><ele>80.33333333333334</ele><time>2026-04-04T17:37:20.999Z</time></trkpt><trkpt lat="39.02419171770781" lon="8.6365669161206"><ele>80.66666666666667</ele><time>2026-04-04T17:37:21.999Z</time></trkpt><trkpt lat="39.02427251650555" lon="8.636544128206465"><ele>81.0</ele><time>2026-04-04T17:37:22.999Z</time></trkpt><trkpt lat="39.02434737603837" lon="8.636523015368708"><ele>81.33333333333333</ele><time>2026-04-04T17:37:23.999Z</time></trkpt><trkpt lat="39.02442174825996" lon="8.63650203996219"><ele>81.66666666666666</ele><time>2026-04-04T17:37:24.999Z</time></trkpt><trkpt lat="39.024522162054275" lon="8.636473719998998"><ele>82.0</ele><time>2026-04-04T17:37:25.999Z</time></trkpt><trkpt lat="39.024642358032615" lon="8.636419350124516"><ele>82.0</ele><time>2026-04-04T17:37:26.999Z</time></trkpt><trkpt lat="39.02479414511586" lon="8.636374499799894"><ele>82.0</ele><time>2026-04-04T17:37:27.999Z</time></trkpt><trkpt lat="39.02497856824646" lon="8.63634316443622"><ele>82.0</ele><time>2026-04-04T17:37:28.999Z</time></trkpt><trkpt lat="39.02516123240586" lon="8.636290928967252"><ele>81.66666666666666</ele><time>2026-04-04T17:37:29.999Z</time></trkpt><trkpt lat="39.025351166590426" lon="8.636216859572196"><ele>81.33333333333333</ele><time>2026-04-04T17:37:30.999Z</time></trkpt><trkpt lat="39.02555923275584" lon="8.636158692442626"><ele>81.0</ele><time>2026-04-04T17:37:31.999Z</time></trkpt><trkpt lat="39.02576121369359" lon="8.636106323721027"><ele>79.0</ele><time>2026-04-04T17:37:32.999Z</time></trkpt><trkpt lat="39.02596178630126" lon="8.636052499076731"><ele>77.0</ele><time>2026-04-04T17:37:33.999Z</time></trkpt><trkpt lat="39.02616895935326" lon="8.635995770780767"><ele>75.0</ele><time>2026-04-04T17:37:34.999Z</time></trkpt><trkpt lat="39.026382673940645" lon="8.635935298877156"><ele>75.0</ele><time>2026-04-04T17:37:35.999Z</time></trkpt><trkpt lat="39.026605183328634" lon="8.63587154383461"><ele>75.0</ele><time>2026-04-04T17:37:36.999Z</time></trkpt><trkpt lat="39.02681680860307" lon="8.635811779540607"><ele>75.0</ele><time>2026-04-04T17:37:37.999Z</time></trkpt><trkpt lat="39.02702487252963" lon="8.6357529150822"><ele>74.0</ele><time>2026-04-04T17:37:38.999Z</time></trkpt><trkpt lat="39.027237712323426" lon="8.635693560981139"><ele>73.0</ele><time>2026-04-04T17:37:39.999Z</time></trkpt><trkpt lat="39.02745206872301" lon="8.63563472890034"><ele>72.0</ele><time>2026-04-04T17:37:40.999Z</time></trkpt><trkpt lat="39.027660658133904" lon="8.635577348107724"><ele>71.66666666666667</ele><time>2026-04-04T17:37:41.999Z</time></trkpt><trkpt lat="39.02786188728224" lon="8.635519671237423"><ele>71.33333333333334</ele><time>2026-04-04T17:37:42.999Z</time></trkpt><trkpt lat="39.02806184645289" lon="8.635463534729665"><ele>71.0</ele><time>2026-04-04T17:37:43.999Z</time></trkpt><trkpt lat="39.0282592819405" lon="8.635408891224108"><ele>70.66666666666667</ele><time>2026-04-04T17:37:44.999Z</time></trkpt><trkpt lat="39.02845578631701" lon="8.635354179090765"><ele>70.33333333333333</ele><time>2026-04-04T17:37:45.999Z</time></trkpt><trkpt lat="39.028652349465176" lon="8.635299453761832"><ele>70.0</ele><time>2026-04-04T17:37:46.999Z</time></trkpt><trkpt lat="39.02885359034778" lon="8.635241588485746"><ele>68.33333333333333</ele><time>2026-04-04T17:37:47.999Z</time></trkpt><trkpt lat="39.029060029624766" lon="8.635181175679296"><ele>66.66666666666667</ele><time>2026-04-04T17:37:48.999Z</time></trkpt><trkpt lat="39.029264674607" lon="8.635120351742184"><ele>65.0</ele><time>2026-04-04T17:37:49.999Z</time></trkpt><trkpt lat="39.02947945922345" lon="8.635074037814881"><ele>64.66666666666667</ele><time>2026-04-04T17:37:50.999Z</time></trkpt><trkpt lat="39.02969222546931" lon="8.63501313242701"><ele>64.33333333333333</ele><time>2026-04-04T17:37:51.999Z</time></trkpt><trkpt lat="39.029904696774956" lon="8.6349523114705"><ele>64.0</ele><time>2026-04-04T17:37:52.999Z</time></trkpt><trkpt lat="39.03011340800133" lon="8.634893625573653"><ele>64.66666666666666</ele><time>2026-04-04T17:37:53.999Z</time></trkpt><trkpt lat="39.03030513171597" lon="8.634823285419797"><ele>65.33333333333333</ele><time>2026-04-04T17:37:54.999Z</time></trkpt><trkpt lat="39.03048504227639" lon="8.634778126290271"><ele>66.0</ele><time>2026-04-04T17:37:55.999Z</time></trkpt><trkpt lat="39.03066189190176" lon="8.634729905635375"><ele>66.66666666666667</ele><time>2026-04-04T17:37:56.999Z</time></trkpt><trkpt lat="39.03082739403567" lon="8.63468322946614"><ele>67.33333333333334</ele><time>2026-04-04T17:37:57.999Z</time></trkpt><trkpt lat="39.030982081770794" lon="8.63464216267392"><ele>68.0</ele><time>2026-04-04T17:37:58.999Z</time></trkpt><trkpt lat="39.03112601982632" lon="8.63460116255693"><ele>68.0</ele><time>2026-04-04T17:37:59.999Z</time></trkpt><trkpt lat="39.031264967489356" lon="8.634561431952415"><ele>68.0</ele><time>2026-04-04T17:38:00.999Z</time></trkpt><trkpt lat="39.03139109702845" lon="8.63452763921286"><ele>68.0</ele><time>2026-04-04T17:38:01.999Z</time></trkpt><trkpt lat="39.03150669255879" lon="8.634496796140262"><ele>68.0</ele><time>2026-04-04T17:38:02.999Z</time></trkpt><trkpt lat="39.031616374072506" lon="8.634467406491739"><ele>68.0</ele><time>2026-04-04T17:38:03.999Z</time></trkpt><trkpt lat="39.03171396687581" lon="8.63443933631028"><ele>68.0</ele><time>2026-04-04T17:38:04.999Z</time></trkpt><trkpt lat="39.03181226026659" lon="8.634409924478891"><ele>68.0</ele><time>2026-04-04T17:38:05.999Z</time></trkpt><trkpt lat="39.03191088180834" lon="8.634382361362412"><ele>68.0</ele><time>2026-04-04T17:38:06.999Z</time></trkpt><trkpt lat="39.032015458355914" lon="8.6343551654274"><ele>68.0</ele><time>2026-04-04T17:38:07.999Z</time></trkpt><trkpt lat="39.0321230127635" lon="8.634326181363983"><ele>68.0</ele><time>2026-04-04T17:38:08.999Z</time></trkpt><trkpt lat="39.032242921119916" lon="8.634292532942139"><ele>68.0</ele><time>2026-04-04T17:38:09.999Z</time></trkpt><trkpt lat="39.03236565853628" lon="8.634255829219185"><ele>68.0</ele><time>2026-04-04T17:38:10.999Z</time></trkpt><trkpt lat="39.03249732402086" lon="8.634217214603144"><ele>68.0</ele><time>2026-04-04T17:38:11.999Z</time></trkpt><trkpt lat="39.03263696236581" lon="8.634177671234845"><ele>68.66666666666667</ele><time>2026-04-04T17:38:12.999Z</time></trkpt><trkpt lat="39.03278415228431" lon="8.634137092750965"><ele>69.33333333333333</ele><time>2026-04-04T17:38:13.999Z</time></trkpt><trkpt lat="39.0329402396679" lon="8.634096964263307"><ele>70.0</ele><time>2026-04-04T17:38:14.999Z</time></trkpt><trkpt lat="39.03309409320939" lon="8.634056539062485"><ele>70.0</ele><time>2026-04-04T17:38:15.999Z</time></trkpt><trkpt lat="39.03324539185652" lon="8.634013860989102"><ele>70.0</ele><time>2026-04-04T17:38:16.999Z</time></trkpt><trkpt lat="39.03339766644667" lon="8.633968603062636"><ele>70.0</ele><time>2026-04-04T17:38:17.999Z</time></trkpt><trkpt lat="39.033558835043365" lon="8.633921663221534"><ele>70.66666666666666</ele><time>2026-04-04T17:38:18.999Z</time></trkpt><trkpt lat="39.03372158784012" lon="8.633875507871512"><ele>71.33333333333333</ele><time>2026-04-04T17:38:19.999Z</time></trkpt><trkpt lat="39.03388507940554" lon="8.633830162969492"><ele>72.0</ele><time>2026-04-04T17:38:20.999Z</time></trkpt><trkpt lat="39.034051527408685" lon="8.633781974440495"><ele>72.0</ele><time>2026-04-04T17:38:21.999Z</time></trkpt><trkpt lat="39.034221569697365" lon="8.633734216810813"><ele>72.0</ele><time>2026-04-04T17:38:22.999Z</time></trkpt><trkpt lat="39.034389542108016" lon="8.63368624407048"><ele>72.0</ele><time>2026-04-04T17:38:23.999Z</time></trkpt><trkpt lat="39.03455996785643" lon="8.633638613348015"><ele>71.33333333333333</ele><time>2026-04-04T17:38:25Z</time></trkpt><trkpt lat="39.03473044876669" lon="8.633590303577344"><ele>70.66666666666666</ele><time>2026-04-04T17:38:26Z</time></trkpt><trkpt lat="39.034902106559095" lon="8.633540694195606"><ele>70.0</ele><time>2026-04-04T17:38:27Z</time></trkpt><trkpt lat="39.0350757902275" lon="8.633492983504741"><ele>70.0</ele><time>2026-04-04T17:38:28Z</time></trkpt><trkpt lat="39.03525508944163" lon="8.633445975479834"><ele>70.0</ele><time>2026-04-04T17:38:29Z</time></trkpt><trkpt lat="39.03543221051055" lon="8.633399147426351"><ele>70.0</ele><time>2026-04-04T17:38:30Z</time></trkpt><trkpt lat="39.035611621062415" lon="8.633349530373371"><ele>70.0</ele><time>2026-04-04T17:38:31Z</time></trkpt><trkpt lat="39.03578221843047" lon="8.633299344146145"><ele>70.0</ele><time>2026-04-04T17:38:32Z</time></trkpt><trkpt lat="39.03593799670664" lon="8.633254293858307"><ele>70.0</ele><time>2026-04-04T17:38:33Z</time></trkpt><trkpt lat="39.03608396208604" lon="8.63321435819754"><ele>70.0</ele><time>2026-04-04T17:38:34Z</time></trkpt><trkpt lat="39.03621657434493" lon="8.633180808748165"><ele>70.0</ele><time>2026-04-04T17:38:35Z</time></trkpt><trkpt lat="39.036342617151085" lon="8.63314724109359"><ele>70.0</ele><time>2026-04-04T17:38:36Z</time></trkpt><trkpt lat="39.03646166940056" lon="8.633112499846128"><ele>70.0</ele><time>2026-04-04T17:38:37Z</time></trkpt><trkpt lat="39.03657347473054" lon="8.633077622375875"><ele>70.5</ele><time>2026-04-04T17:38:38Z</time></trkpt><trkpt lat="39.036686488426966" lon="8.633044035146117"><ele>71.0</ele><time>2026-04-04T17:38:39Z</time></trkpt><trkpt lat="39.036800086212274" lon="8.633014063336137"><ele>71.5</ele><time>2026-04-04T17:38:40Z</time></trkpt><trkpt lat="39.03691827275006" lon="8.632983380766756"><ele>72.0</ele><time>2026-04-04T17:38:41Z</time></trkpt><trkpt lat="39.03703636444852" lon="8.63295368170897"><ele>72.0</ele><time>2026-04-04T17:38:42Z</time></trkpt><trkpt lat="39.0371533795349" lon="8.632923646189633"><ele>72.0</ele><time>2026-04-04T17:38:43Z</time></trkpt><trkpt lat="39.03727767724587" lon="8.632892572401852"><ele>72.0</ele><time>2026-04-04T17:38:44Z</time></trkpt><trkpt lat="39.037412837925906" lon="8.632857618175235"><ele>72.0</ele><time>2026-04-04T17:38:45Z</time></trkpt><trkpt lat="39.03755573401026" lon="8.632822948111013"><ele>71.33333333333333</ele><time>2026-04-04T17:38:46Z</time></trkpt><trkpt lat="39.03771238266183" lon="8.632782866618003"><ele>70.66666666666666</ele><time>2026-04-04T17:38:47Z</time></trkpt><trkpt lat="39.03787478036836" lon="8.632741811951599"><ele>70.0</ele><time>2026-04-04T17:38:48Z</time></trkpt><trkpt lat="39.03804547816332" lon="8.63269722717823"><ele>70.0</ele><time>2026-04-04T17:38:49Z</time></trkpt><trkpt lat="39.03822800745044" lon="8.632655374063095"><ele>70.0</ele><time>2026-04-04T17:38:50Z</time></trkpt><trkpt lat="39.03839482834477" lon="8.632617340502097"><ele>70.0</ele><time>2026-04-04T17:38:51Z</time></trkpt><trkpt lat="39.03856099679652" lon="8.632579482835009"><ele>69.66666666666666</ele><time>2026-04-04T17:38:52Z</time></trkpt><trkpt lat="39.03873810782531" lon="8.632536927378245"><ele>69.33333333333333</ele><time>2026-04-04T17:38:53Z</time></trkpt><trkpt lat="39.03892337489641" lon="8.63249235179814"><ele>69.0</ele><time>2026-04-04T17:38:54Z</time></trkpt><trkpt lat="39.0391052648037" lon="8.632449871155305"><ele>69.0</ele><time>2026-04-04T17:38:55Z</time></trkpt><trkpt lat="39.03928681054096" lon="8.632408045415938"><ele>69.0</ele><time>2026-04-04T17:38:56Z</time></trkpt><trkpt lat="39.03947011156725" lon="8.632366528645566"><ele>69.0</ele><time>2026-04-04T17:38:57Z</time></trkpt><trkpt lat="39.03965243385087" lon="8.632322767206253"><ele>69.0</ele><time>2026-04-04T17:38:58Z</time></trkpt><trkpt lat="39.039837072132364" lon="8.632277812932129"><ele>69.0</ele><time>2026-04-04T17:38:59Z</time></trkpt><trkpt lat="39.040025477169706" lon="8.632232394082328"><ele>69.0</ele><time>2026-04-04T17:39:00Z</time></trkpt><trkpt lat="39.0402176422947" lon="8.632185898890858"><ele>68.0</ele><time>2026-04-04T17:39:01Z</time></trkpt><trkpt lat="39.04040937284233" lon="8.632139592054687"><ele>67.0</ele><time>2026-04-04T17:39:02Z</time></trkpt><trkpt lat="39.04060471912817" lon="8.632092556794294"><ele>66.0</ele><time>2026-04-04T17:39:03Z</time></trkpt><trkpt lat="39.0408017348226" lon="8.632044242098969"><ele>65.33333333333333</ele><time>2026-04-04T17:39:04Z</time></trkpt><trkpt lat="39.04099560534518" lon="8.631999845289135"><ele>64.66666666666666</ele><time>2026-04-04T17:39:05Z</time></trkpt><trkpt lat="39.041190795686056" lon="8.63195314016037"><ele>64.0</ele><time>2026-04-04T17:39:06Z</time></trkpt><trkpt lat="39.04138630093783" lon="8.63190694396377"><ele>63.33333333333333</ele><time>2026-04-04T17:39:07Z</time></trkpt><trkpt lat="39.04158176386216" lon="8.631859184690976"><ele>62.66666666666667</ele><time>2026-04-04T17:39:08Z</time></trkpt><trkpt lat="39.04177734187453" lon="8.63181274087889"><ele>62.0</ele><time>2026-04-04T17:39:08.999Z</time></trkpt><trkpt lat="39.04196907007571" lon="8.631767608906365"><ele>61.66666666666667</ele><time>2026-04-04T17:39:09.999Z</time></trkpt><trkpt lat="39.042165863169735" lon="8.631719801544856"><ele>61.33333333333333</ele><time>2026-04-04T17:39:10.999Z</time></trkpt><trkpt lat="39.04235801220591" lon="8.631673274421537"><ele>61.0</ele><time>2026-04-04T17:39:11.999Z</time></trkpt><trkpt lat="39.04254185705666" lon="8.631630034660324"><ele>60.666666666666664</ele><time>2026-04-04T17:39:12.999Z</time></trkpt><trkpt lat="39.04271293273272" lon="8.631588400300389"><ele>60.33333333333333</ele><time>2026-04-04T17:39:13.999Z</time></trkpt><trkpt lat="39.04287994392835" lon="8.631549703644739"><ele>60.0</ele><time>2026-04-04T17:39:14.999Z</time></trkpt><trkpt lat="39.04304939166498" lon="8.631511114701944"><ele>60.0</ele><time>2026-04-04T17:39:15.999Z</time></trkpt><trkpt lat="39.04322198792682" lon="8.631471546660984"><ele>60.0</ele><time>2026-04-04T17:39:16.999Z</time></trkpt><trkpt lat="39.043388280241906" lon="8.631431689183554"><ele>60.0</ele><time>2026-04-04T17:39:17.999Z</time></trkpt><trkpt lat="39.043540664886436" lon="8.631393333105224"><ele>60.0</ele><time>2026-04-04T17:39:18.999Z</time></trkpt><trkpt lat="39.043687547623634" lon="8.631359844821777"><ele>60.0</ele><time>2026-04-04T17:39:19.999Z</time></trkpt><trkpt lat="39.043831056344686" lon="8.631327175344229"><ele>60.0</ele><time>2026-04-04T17:39:20.999Z</time></trkpt><trkpt lat="39.04398048261737" lon="8.631292045695178"><ele>60.0</ele><time>2026-04-04T17:39:21.999Z</time></trkpt><trkpt lat="39.04413469056518" lon="8.631255505402754"><ele>60.0</ele><time>2026-04-04T17:39:22.999Z</time></trkpt><trkpt lat="39.04429064717207" lon="8.631217332594712"><ele>60.0</ele><time>2026-04-04T17:39:23.999Z</time></trkpt><trkpt lat="39.0444480996349" lon="8.631180422457035"><ele>60.0</ele><time>2026-04-04T17:39:24.999Z</time></trkpt><trkpt lat="39.044598384129124" lon="8.631146795873242"><ele>59.0</ele><time>2026-04-04T17:39:25.999Z</time></trkpt><trkpt lat="39.04475108173767" lon="8.63111137210232"><ele>58.0</ele><time>2026-04-04T17:39:26.999Z</time></trkpt><trkpt lat="39.044895465860805" lon="8.63107608766177"><ele>57.0</ele><time>2026-04-04T17:39:27.999Z</time></trkpt><trkpt lat="39.04503089473323" lon="8.631043646546571"><ele>56.0</ele><time>2026-04-04T17:39:28.999Z</time></trkpt><trkpt lat="39.0451558217784" lon="8.631012192562968"><ele>55.5</ele><time>2026-04-04T17:39:29.999Z</time></trkpt><trkpt lat="39.04527865316366" lon="8.630984085113877"><ele>55.0</ele><time>2026-04-04T17:39:30.999Z</time></trkpt><trkpt lat="39.04539171995727" lon="8.630958300192974"><ele>54.5</ele><time>2026-04-04T17:39:31.999Z</time></trkpt><trkpt lat="39.04550518022659" lon="8.630933195597434"><ele>54.0</ele><time>2026-04-04T17:39:32.999Z</time></trkpt><trkpt lat="39.04561293359593" lon="8.630907633245771"><ele>54.0</ele><time>2026-04-04T17:39:33.999Z</time></trkpt><trkpt lat="39.045717968542945" lon="8.630882518450722"><ele>54.00000000000001</ele><time>2026-04-04T17:39:34.999Z</time></trkpt><trkpt lat="39.045820415304604" lon="8.630857488870756"><ele>54.00000000000001</ele><time>2026-04-04T17:39:35.999Z</time></trkpt><trkpt lat="39.04592651497105" lon="8.630834232792063"><ele>54.0</ele><time>2026-04-04T17:39:36.999Z</time></trkpt><trkpt lat="39.04603262289549" lon="8.630810391453652"><ele>54.0</ele><time>2026-04-04T17:39:37.999Z</time></trkpt><trkpt lat="39.04613910242777" lon="8.63078458919524"><ele>54.5</ele><time>2026-04-04T17:39:38.999Z</time></trkpt><trkpt lat="39.04624865183981" lon="8.630758817340421"><ele>55.0</ele><time>2026-04-04T17:39:39.999Z</time></trkpt><trkpt lat="39.046362066688566" lon="8.630729478160296"><ele>55.5</ele><time>2026-04-04T17:39:40.999Z</time></trkpt><trkpt lat="39.046476575768885" lon="8.630699522828076"><ele>56.0</ele><time>2026-04-04T17:39:41.999Z</time></trkpt><trkpt lat="39.04659555755019" lon="8.630669362817194"><ele>56.75</ele><time>2026-04-04T17:39:42.999Z</time></trkpt><trkpt lat="39.04671542611885" lon="8.630640160234307"><ele>57.5</ele><time>2026-04-04T17:39:43.999Z</time></trkpt><trkpt lat="39.0468395712545" lon="8.630612616008419"><ele>58.25</ele><time>2026-04-04T17:39:44.999Z</time></trkpt><trkpt lat="39.04696669363066" lon="8.630584452897445"><ele>59.0</ele><time>2026-04-04T17:39:45.999Z</time></trkpt><trkpt lat="39.04709305822335" lon="8.630551189349564"><ele>59.0</ele><time>2026-04-04T17:39:46.999Z</time></trkpt><trkpt lat="39.0472227234581" lon="8.630516459716137"><ele>59.0</ele><time>2026-04-04T17:39:47.999Z</time></trkpt><trkpt lat="39.04735370631203" lon="8.63048406432384"><ele>59.0</ele><time>2026-04-04T17:39:48.999Z</time></trkpt><trkpt lat="39.04748680918782" lon="8.630453272579063"><ele>59.0</ele><time>2026-04-04T17:39:49.999Z</time></trkpt><trkpt lat="39.04762081181771" lon="8.630422368118984"><ele>58.75</ele><time>2026-04-04T17:39:50.999Z</time></trkpt><trkpt lat="39.04774730473188" lon="8.630395057581843"><ele>58.5</ele><time>2026-04-04T17:39:51.999Z</time></trkpt><trkpt lat="39.04787083792031" lon="8.630367969484038"><ele>58.25</ele><time>2026-04-04T17:39:52.999Z</time></trkpt><trkpt lat="39.04799931775922" lon="8.630336216093424"><ele>58.0</ele><time>2026-04-04T17:39:53.999Z</time></trkpt><trkpt lat="39.048132997891884" lon="8.63030498137345"><ele>57.25</ele><time>2026-04-04T17:39:54.999Z</time></trkpt><trkpt lat="39.048266347980814" lon="8.63027606443176"><ele>56.5</ele><time>2026-04-04T17:39:55.999Z</time></trkpt><trkpt lat="39.04839966716252" lon="8.630243580164839"><ele>55.75</ele><time>2026-04-04T17:39:56.999Z</time></trkpt><trkpt lat="39.04852753714939" lon="8.630210209504716"><ele>55.0</ele><time>2026-04-04T17:39:57.999Z</time></trkpt><trkpt lat="39.04864484654691" lon="8.63018065435785"><ele>55.0</ele><time>2026-04-04T17:39:58.999Z</time></trkpt><trkpt lat="39.048759265290386" lon="8.63015294262848"><ele>55.0</ele><time>2026-04-04T17:39:59.999Z</time></trkpt><trkpt lat="39.04887816485391" lon="8.630122409714975"><ele>55.0</ele><time>2026-04-04T17:40:00.999Z</time></trkpt><trkpt lat="39.04898913581515" lon="8.630091954181458"><ele>55.0</ele><time>2026-04-04T17:40:01.999Z</time></trkpt><trkpt lat="39.049104820211866" lon="8.630059886140568"><ele>54.75</ele><time>2026-04-04T17:40:02.999Z</time></trkpt><trkpt lat="39.04922569006367" lon="8.630031860529424"><ele>54.5</ele><time>2026-04-04T17:40:03.999Z</time></trkpt><trkpt lat="39.04935109027172" lon="8.630006846484093"><ele>54.25</ele><time>2026-04-04T17:40:04.999Z</time></trkpt><trkpt lat="39.04946927305359" lon="8.629982666748024"><ele>54.0</ele><time>2026-04-04T17:40:05.999Z</time></trkpt><trkpt lat="39.04957854213259" lon="8.62995600367865"><ele>54.0</ele><time>2026-04-04T17:40:06.999Z</time></trkpt><trkpt lat="39.049675813883155" lon="8.62993115705246"><ele>54.00000000000001</ele><time>2026-04-04T17:40:07.999Z</time></trkpt><trkpt lat="39.04977331251995" lon="8.629907793062007"><ele>54.00000000000001</ele><time>2026-04-04T17:40:08.999Z</time></trkpt><trkpt lat="39.049874760823414" lon="8.629881315568692"><ele>54.0</ele><time>2026-04-04T17:40:09.999Z</time></trkpt><trkpt lat="39.04998355397601" lon="8.629847505416638"><ele>54.0</ele><time>2026-04-04T17:40:10.999Z</time></trkpt><trkpt lat="39.050100060962635" lon="8.629805061865486"><ele>54.5</ele><time>2026-04-04T17:40:11.999Z</time></trkpt><trkpt lat="39.05021869122077" lon="8.629756503996868"><ele>55.0</ele><time>2026-04-04T17:40:12.999Z</time></trkpt><trkpt lat="39.05034717812897" lon="8.629705936431733"><ele>55.5</ele><time>2026-04-04T17:40:13.999Z</time></trkpt><trkpt lat="39.05048167011197" lon="8.629655900328634"><ele>56.0</ele><time>2026-04-04T17:40:14.999Z</time></trkpt><trkpt lat="39.050624880333075" lon="8.629602859135606"><ele>56.0</ele><time>2026-04-04T17:40:15.999Z</time></trkpt><trkpt lat="39.05075956657142" lon="8.629551225345912"><ele>56.0</ele><time>2026-04-04T17:40:16.999Z</time></trkpt><trkpt lat="39.05088150923748" lon="8.629506971149882"><ele>56.0</ele><time>2026-04-04T17:40:17.999Z</time></trkpt><trkpt lat="39.05099866254048" lon="8.629460974907438"><ele>56.0</ele><time>2026-04-04T17:40:18.999Z</time></trkpt><trkpt lat="39.05112052387054" lon="8.629410348361514"><ele>56.0</ele><time>2026-04-04T17:40:19.999Z</time></trkpt><trkpt lat="39.051251847508176" lon="8.629359998860751"><ele>56.0</ele><time>2026-04-04T17:40:20.999Z</time></trkpt><trkpt lat="39.051376554835194" lon="8.629314634296824"><ele>56.0</ele><time>2026-04-04T17:40:21.999Z</time></trkpt><trkpt lat="39.051506531397635" lon="8.629285878870483"><ele>56.0</ele><time>2026-04-04T17:40:22.999Z</time></trkpt><trkpt lat="39.051639131183656" lon="8.629234362844896"><ele>56.5</ele><time>2026-04-04T17:40:23.999Z</time></trkpt><trkpt lat="39.05176710728733" lon="8.62918328342535"><ele>57.0</ele><time>2026-04-04T17:40:24.999Z</time></trkpt><trkpt lat="39.05189687994724" lon="8.629131565570317"><ele>57.5</ele><time>2026-04-04T17:40:25.999Z</time></trkpt><trkpt lat="39.05202203664362" lon="8.629081687287139"><ele>58.0</ele><time>2026-04-04T17:40:26.999Z</time></trkpt><trkpt lat="39.05215405349635" lon="8.629030186630663"><ele>58.0</ele><time>2026-04-04T17:40:27.999Z</time></trkpt><trkpt lat="39.05230068505556" lon="8.628973351589293"><ele>58.0</ele><time>2026-04-04T17:40:28.999Z</time></trkpt><trkpt lat="39.05245626699271" lon="8.628915905993138"><ele>58.0</ele><time>2026-04-04T17:40:30Z</time></trkpt><trkpt lat="39.05260518961066" lon="8.628845569245781"><ele>58.25</ele><time>2026-04-04T17:40:31Z</time></trkpt><trkpt lat="39.0527600478321" lon="8.628812618608917"><ele>58.5</ele><time>2026-04-04T17:40:32Z</time></trkpt><trkpt lat="39.052915376354804" lon="8.628803261037215"><ele>58.75</ele><time>2026-04-04T17:40:33Z</time></trkpt><trkpt lat="39.053051553930985" lon="8.628806977045176"><ele>59.0</ele><time>2026-04-04T17:40:34Z</time></trkpt><trkpt lat="39.05319553721855" lon="8.628836642970969"><ele>59.5</ele><time>2026-04-04T17:40:35Z</time></trkpt><trkpt lat="39.053318167912465" lon="8.628860120036217"><ele>60.0</ele><time>2026-04-04T17:40:36Z</time></trkpt><trkpt lat="39.053435233247754" lon="8.628894558598844"><ele>60.5</ele><time>2026-04-04T17:40:37Z</time></trkpt><trkpt lat="39.05355674830902" lon="8.628932802755125"><ele>61.0</ele><time>2026-04-04T17:40:38Z</time></trkpt><trkpt lat="39.053670560195265" lon="8.628973558819268"><ele>61.0</ele><time>2026-04-04T17:40:39Z</time></trkpt><trkpt lat="39.05377649407445" lon="8.628991746846882"><ele>60.99999999999999</ele><time>2026-04-04T17:40:40Z</time></trkpt><trkpt lat="39.05387747164089" lon="8.629031153751207"><ele>60.99999999999999</ele><time>2026-04-04T17:40:41Z</time></trkpt><trkpt lat="39.053982077299" lon="8.62907724985341"><ele>61.0</ele><time>2026-04-04T17:40:42Z</time></trkpt><trkpt lat="39.054098904351015" lon="8.629116887649094"><ele>61.0</ele><time>2026-04-04T17:40:43Z</time></trkpt><trkpt lat="39.05422527120744" lon="8.629159116380722"><ele>61.666666666666664</ele><time>2026-04-04T17:40:44Z</time></trkpt><trkpt lat="39.05436604558891" lon="8.629205862787284"><ele>62.33333333333333</ele><time>2026-04-04T17:40:45Z</time></trkpt><trkpt lat="39.05451221677699" lon="8.629260767647077"><ele>63.0</ele><time>2026-04-04T17:40:46Z</time></trkpt><trkpt lat="39.05466636466268" lon="8.629314714942959"><ele>63.0</ele><time>2026-04-04T17:40:47Z</time></trkpt><trkpt lat="39.054833813037355" lon="8.629369825578957"><ele>63.0</ele><time>2026-04-04T17:40:48Z</time></trkpt><trkpt lat="39.05501170257598" lon="8.629432091683364"><ele>63.0</ele><time>2026-04-04T17:40:49Z</time></trkpt><trkpt lat="39.05519826400678" lon="8.629497365106003"><ele>63.66666666666667</ele><time>2026-04-04T17:40:50Z</time></trkpt><trkpt lat="39.05538946881187" lon="8.629568546215687"><ele>64.33333333333334</ele><time>2026-04-04T17:40:51Z</time></trkpt><trkpt lat="39.05560041913219" lon="8.629643646367725"><ele>65.0</ele><time>2026-04-04T17:40:52Z</time></trkpt><trkpt lat="39.05582597491649" lon="8.629725030408935"><ele>65.5</ele><time>2026-04-04T17:40:53Z</time></trkpt><trkpt lat="39.05605803526891" lon="8.629806157852682"><ele>66.0</ele><time>2026-04-04T17:40:53.999Z</time></trkpt><trkpt lat="39.056271016954646" lon="8.629884085526253"><ele>66.0</ele><time>2026-04-04T17:40:54.999Z</time></trkpt><trkpt lat="39.05648767433476" lon="8.62995965294964"><ele>66.0</ele><time>2026-04-04T17:40:55.999Z</time></trkpt><trkpt lat="39.05670008451329" lon="8.630031497433027"><ele>66.0</ele><time>2026-04-04T17:40:56.999Z</time></trkpt><trkpt lat="39.05691203175668" lon="8.63010698750747"><ele>66.33333333333333</ele><time>2026-04-04T17:40:57.999Z</time></trkpt><trkpt lat="39.057124674652485" lon="8.630183762660613"><ele>66.66666666666666</ele><time>2026-04-04T17:40:58.999Z</time></trkpt><trkpt lat="39.05732977002368" lon="8.63025926078096"><ele>67.0</ele><time>2026-04-04T17:40:59.999Z</time></trkpt><trkpt lat="39.05753706042295" lon="8.63033428710372"><ele>67.33333333333333</ele><time>2026-04-04T17:41:00.999Z</time></trkpt><trkpt lat="39.057738701912" lon="8.630402790914399"><ele>67.66666666666667</ele><time>2026-04-04T17:41:01.999Z</time></trkpt><trkpt lat="39.05793966382261" lon="8.63047375809337"><ele>68.0</ele><time>2026-04-04T17:41:02.999Z</time></trkpt><trkpt lat="39.058138846614874" lon="8.630541126993306"><ele>68.0</ele><time>2026-04-04T17:41:03.999Z</time></trkpt><trkpt lat="39.05834144777856" lon="8.63060992960254"><ele>68.0</ele><time>2026-04-04T17:41:04.999Z</time></trkpt><trkpt lat="39.05854030561379" lon="8.630679208141016"><ele>68.0</ele><time>2026-04-04T17:41:05.999Z</time></trkpt><trkpt lat="39.05874348219417" lon="8.630749366257714"><ele>68.0</ele><time>2026-04-04T17:41:06.999Z</time></trkpt><trkpt lat="39.05894658144465" lon="8.630822224400035"><ele>68.0</ele><time>2026-04-04T17:41:07.999Z</time></trkpt><trkpt lat="39.059150113506114" lon="8.630895452818365"><ele>68.0</ele><time>2026-04-04T17:41:08.999Z</time></trkpt><trkpt lat="39.059360705668844" lon="8.630969705729543"><ele>68.33333333333334</ele><time>2026-04-04T17:41:09.999Z</time></trkpt><trkpt lat="39.05956902049926" lon="8.631041682350345"><ele>68.66666666666667</ele><time>2026-04-04T17:41:10.999Z</time></trkpt><trkpt lat="39.05977949394118" lon="8.631114260530891"><ele>69.0</ele><time>2026-04-04T17:41:11.999Z</time></trkpt><trkpt lat="39.05999284220715" lon="8.631189087000013"><ele>69.5</ele><time>2026-04-04T17:41:12.999Z</time></trkpt><trkpt lat="39.060209783986906" lon="8.63126390756311"><ele>70.0</ele><time>2026-04-04T17:41:13.999Z</time></trkpt><trkpt lat="39.06043148642754" lon="8.631339829355626"><ele>70.0</ele><time>2026-04-04T17:41:14.999Z</time></trkpt><trkpt lat="39.060650254691865" lon="8.631414919078974"><ele>70.0</ele><time>2026-04-04T17:41:15.999Z</time></trkpt><trkpt lat="39.060885038031074" lon="8.631495715352639"><ele>70.0</ele><time>2026-04-04T17:41:16.999Z</time></trkpt><trkpt lat="39.061124842456245" lon="8.63158252500516"><ele>70.0</ele><time>2026-04-04T17:41:17.999Z</time></trkpt><trkpt lat="39.06135808791346" lon="8.631668298044229"><ele>70.0</ele><time>2026-04-04T17:41:18.999Z</time></trkpt><trkpt lat="39.06159361033736" lon="8.63175157041416"><ele>70.0</ele><time>2026-04-04T17:41:19.999Z</time></trkpt><trkpt lat="39.061815332760844" lon="8.631828214023589"><ele>69.33333333333333</ele><time>2026-04-04T17:41:20.999Z</time></trkpt><trkpt lat="39.06202782319228" lon="8.631903689371963"><ele>68.66666666666667</ele><time>2026-04-04T17:41:21.999Z</time></trkpt><trkpt lat="39.062240168891265" lon="8.631978644464308"><ele>68.0</ele><time>2026-04-04T17:41:22.999Z</time></trkpt><trkpt lat="39.06245083397745" lon="8.632051756716468"><ele>68.0</ele><time>2026-04-04T17:41:23.999Z</time></trkpt><trkpt lat="39.062656765961194" lon="8.632122697059192"><ele>68.0</ele><time>2026-04-04T17:41:24.999Z</time></trkpt><trkpt lat="39.062860978391825" lon="8.632195344874212"><ele>68.0</ele><time>2026-04-04T17:41:25.999Z</time></trkpt><trkpt lat="39.06305425988549" lon="8.632263477562766"><ele>68.0</ele><time>2026-04-04T17:41:26.999Z</time></trkpt><trkpt lat="39.06324821168779" lon="8.632332252383266"><ele>68.0</ele><time>2026-04-04T17:41:27.999Z</time></trkpt><trkpt lat="39.06344868034409" lon="8.632401904053886"><ele>68.0</ele><time>2026-04-04T17:41:28.999Z</time></trkpt><trkpt lat="39.06364087950455" lon="8.632470173152758"><ele>67.33333333333334</ele><time>2026-04-04T17:41:29.999Z</time></trkpt><trkpt lat="39.063829334655374" lon="8.632537612911026"><ele>66.66666666666667</ele><time>2026-04-04T17:41:30.999Z</time></trkpt><trkpt lat="39.06401839090485" lon="8.632602193175174"><ele>66.0</ele><time>2026-04-04T17:41:31.999Z</time></trkpt><trkpt lat="39.06420682490843" lon="8.632666028506275"><ele>66.0</ele><time>2026-04-04T17:41:32.999Z</time></trkpt><trkpt lat="39.06438563425787" lon="8.632729624423847"><ele>66.0</ele><time>2026-04-04T17:41:33.999Z</time></trkpt><trkpt lat="39.06455429821765" lon="8.63279086574222"><ele>66.0</ele><time>2026-04-04T17:41:34.999Z</time></trkpt><trkpt lat="39.06470937891215" lon="8.632845166861966"><ele>66.0</ele><time>2026-04-04T17:41:35.999Z</time></trkpt><trkpt lat="39.06485763641216" lon="8.632897683781227"><ele>66.0</ele><time>2026-04-04T17:41:36.999Z</time></trkpt><trkpt lat="39.06500274747542" lon="8.63295028804323"><ele>66.0</ele><time>2026-04-04T17:41:37.999Z</time></trkpt><trkpt lat="39.0651550222788" lon="8.633004322851374"><ele>66.0</ele><time>2026-04-04T17:41:38.999Z</time></trkpt><trkpt lat="39.06531369346502" lon="8.633058399898426"><ele>66.0</ele><time>2026-04-04T17:41:39.999Z</time></trkpt><trkpt lat="39.06548099091917" lon="8.633115802541353"><ele>66.0</ele><time>2026-04-04T17:41:40.999Z</time></trkpt><trkpt lat="39.0656469033209" lon="8.633172039430379"><ele>66.0</ele><time>2026-04-04T17:41:41.999Z</time></trkpt><trkpt lat="39.06581613017533" lon="8.633228794721244"><ele>66.0</ele><time>2026-04-04T17:41:42.999Z</time></trkpt><trkpt lat="39.065987081899856" lon="8.63328993800271"><ele>66.0</ele><time>2026-04-04T17:41:43.999Z</time></trkpt><trkpt lat="39.06616072255595" lon="8.633350064839982"><ele>66.0</ele><time>2026-04-04T17:41:44.999Z</time></trkpt><trkpt lat="39.066328392581795" lon="8.633407483420532"><ele>66.0</ele><time>2026-04-04T17:41:45.999Z</time></trkpt><trkpt lat="39.066491019977" lon="8.63346282851859"><ele>66.0</ele><time>2026-04-04T17:41:46.999Z</time></trkpt><trkpt lat="39.06664758374434" lon="8.633515415847668"><ele>66.0</ele><time>2026-04-04T17:41:47.999Z</time></trkpt><trkpt lat="39.06679803171968" lon="8.633568935000863"><ele>66.0</ele><time>2026-04-04T17:41:48.999Z</time></trkpt><trkpt lat="39.066946783051044" lon="8.63362346693068"><ele>66.0</ele><time>2026-04-04T17:41:49.999Z</time></trkpt><trkpt lat="39.06709648155561" lon="8.633675475770564"><ele>66.25</ele><time>2026-04-04T17:41:50.999Z</time></trkpt><trkpt lat="39.067242287655155" lon="8.633724392641907"><ele>66.5</ele><time>2026-04-04T17:41:51.999Z</time></trkpt><trkpt lat="39.06738512129295" lon="8.633773400656333"><ele>66.75</ele><time>2026-04-04T17:41:52.999Z</time></trkpt><trkpt lat="39.067528225915304" lon="8.633820926329635"><ele>67.0</ele><time>2026-04-04T17:41:53.999Z</time></trkpt><trkpt lat="39.06767195458628" lon="8.633868957652048"><ele>67.0</ele><time>2026-04-04T17:41:54.999Z</time></trkpt><trkpt lat="39.067817065707835" lon="8.633920162471311"><ele>67.0</ele><time>2026-04-04T17:41:55.999Z</time></trkpt><trkpt lat="39.06796666518886" lon="8.633973761615684"><ele>67.0</ele><time>2026-04-04T17:41:56.999Z</time></trkpt><trkpt lat="39.06812284280763" lon="8.634028634823403"><ele>67.0</ele><time>2026-04-04T17:41:57.999Z</time></trkpt><trkpt lat="39.06827593913393" lon="8.634081959634432"><ele>67.0</ele><time>2026-04-04T17:41:58.999Z</time></trkpt><trkpt lat="39.06841901208704" lon="8.634130817508122"><ele>67.0</ele><time>2026-04-04T17:41:59.999Z</time></trkpt><trkpt lat="39.06855824098451" lon="8.63417884525848"><ele>66.75</ele><time>2026-04-04T17:42:00.999Z</time></trkpt><trkpt lat="39.068697787620444" lon="8.63422735272829"><ele>66.5</ele><time>2026-04-04T17:42:01.999Z</time></trkpt><trkpt lat="39.06883305007032" lon="8.634272915497611"><ele>66.25</ele><time>2026-04-04T17:42:02.999Z</time></trkpt><trkpt lat="39.06895999578996" lon="8.634319042371258"><ele>66.0</ele><time>2026-04-04T17:42:03.999Z</time></trkpt><trkpt lat="39.0690822427656" lon="8.634362733539216"><ele>65.75</ele><time>2026-04-04T17:42:04.999Z</time></trkpt><trkpt lat="39.06919911421014" lon="8.634403742339943"><ele>65.5</ele><time>2026-04-04T17:42:05.999Z</time></trkpt><trkpt lat="39.06931057660187" lon="8.634436147559489"><ele>65.25</ele><time>2026-04-04T17:42:06.999Z</time></trkpt><trkpt lat="39.069410870962216" lon="8.634488137523878"><ele>65.0</ele><time>2026-04-04T17:42:07.999Z</time></trkpt><trkpt lat="39.06951518686595" lon="8.634524801214122"><ele>65.0</ele><time>2026-04-04T17:42:08.999Z</time></trkpt><trkpt lat="39.069635099510386" lon="8.634566946523602"><ele>65.0</ele><time>2026-04-04T17:42:09.999Z</time></trkpt><trkpt lat="39.06979016434865" lon="8.634605813219649"><ele>65.0</ele><time>2026-04-04T17:42:10.999Z</time></trkpt><trkpt lat="39.069970568492586" lon="8.634673484726918"><ele>64.33333333333334</ele><time>2026-04-04T17:42:11.999Z</time></trkpt><trkpt lat="39.070150175804436" lon="8.634735006477191"><ele>63.66666666666667</ele><time>2026-04-04T17:42:12.999Z</time></trkpt><trkpt lat="39.07032149977092" lon="8.63479579497698"><ele>63.0</ele><time>2026-04-04T17:42:13.999Z</time></trkpt><trkpt lat="39.0704840539713" lon="8.634850802274407"><ele>63.0</ele><time>2026-04-04T17:42:14.999Z</time></trkpt><trkpt lat="39.07063248401759" lon="8.634900284831206"><ele>63.0</ele><time>2026-04-04T17:42:15.999Z</time></trkpt><trkpt lat="39.07077441933584" lon="8.634944978213097"><ele>63.0</ele><time>2026-04-04T17:42:16.999Z</time></trkpt><trkpt lat="39.070907317290406" lon="8.634989051819636"><ele>63.0</ele><time>2026-04-04T17:42:17.999Z</time></trkpt><trkpt lat="39.071031873885964" lon="8.63503121239098"><ele>62.8</ele><time>2026-04-04T17:42:18.999Z</time></trkpt><trkpt lat="39.07114874472956" lon="8.63507223639677"><ele>62.599999999999994</ele><time>2026-04-04T17:42:19.999Z</time></trkpt><trkpt lat="39.07124813136414" lon="8.635126671558861"><ele>62.400000000000006</ele><time>2026-04-04T17:42:20.999Z</time></trkpt><trkpt lat="39.07133581259904" lon="8.635157258939797"><ele>62.2</ele><time>2026-04-04T17:42:21.999Z</time></trkpt><trkpt lat="39.07140882081402" lon="8.635166344240249"><ele>62.0</ele><time>2026-04-04T17:42:22.999Z</time></trkpt><trkpt lat="39.07146170428636" lon="8.635299390528347"><ele>61.833333333333336</ele><time>2026-04-04T17:42:24.999Z</time></trkpt><trkpt lat="39.071494679757194" lon="8.635374479962183"><ele>61.66666666666667</ele><time>2026-04-04T17:42:25.999Z</time></trkpt><trkpt lat="39.07150495402019" lon="8.635475887289813"><ele>61.5</ele><time>2026-04-04T17:42:26.999Z</time></trkpt><trkpt lat="39.07153023712992" lon="8.635580989211192"><ele>61.33333333333333</ele><time>2026-04-04T17:42:27.999Z</time></trkpt><trkpt lat="39.071556758134534" lon="8.635685000652241"><ele>61.166666666666664</ele><time>2026-04-04T17:42:28.999Z</time></trkpt><trkpt lat="39.071583565236544" lon="8.635791717775753"><ele>61.0</ele><time>2026-04-04T17:42:29.999Z</time></trkpt><trkpt lat="39.071611186345244" lon="8.635902339729522"><ele>61.599999999999994</ele><time>2026-04-04T17:42:30.999Z</time></trkpt><trkpt lat="39.07163762736027" lon="8.636015171747506"><ele>62.199999999999996</ele><time>2026-04-04T17:42:31.999Z</time></trkpt><trkpt lat="39.071662059892375" lon="8.636125931477185"><ele>62.800000000000004</ele><time>2026-04-04T17:42:32.999Z</time></trkpt><trkpt lat="39.07168820092681" lon="8.636237135913534"><ele>63.400000000000006</ele><time>2026-04-04T17:42:33.999Z</time></trkpt><trkpt lat="39.07171599590259" lon="8.636352030965181"><ele>64.0</ele><time>2026-04-04T17:42:34.999Z</time></trkpt><trkpt lat="39.071743796006544" lon="8.636464922653664"><ele>64.0</ele><time>2026-04-04T17:42:36Z</time></trkpt><trkpt lat="39.07177367525402" lon="8.636580336163776"><ele>64.0</ele><time>2026-04-04T17:42:37Z</time></trkpt><trkpt lat="39.071803181508564" lon="8.63669333492092"><ele>64.0</ele><time>2026-04-04T17:42:38Z</time></trkpt><trkpt lat="39.07183070145919" lon="8.636806190571903"><ele>64.0</ele><time>2026-04-04T17:42:39Z</time></trkpt><trkpt lat="39.07185835506038" lon="8.636920563190762"><ele>64.0</ele><time>2026-04-04T17:42:40Z</time></trkpt><trkpt lat="39.07188683345283" lon="8.637033111377825"><ele>63.800000000000004</ele><time>2026-04-04T17:42:41Z</time></trkpt><trkpt lat="39.07191474157346" lon="8.637144171083373"><ele>63.60000000000001</ele><time>2026-04-04T17:42:42Z</time></trkpt><trkpt lat="39.07194409666146" lon="8.63725677987246"><ele>63.4</ele><time>2026-04-04T17:42:43Z</time></trkpt><trkpt lat="39.07197365249338" lon="8.637367925488048"><ele>63.2</ele><time>2026-04-04T17:42:44Z</time></trkpt><trkpt lat="39.072002034522086" lon="8.63747830519428"><ele>63.0</ele><time>2026-04-04T17:42:45Z</time></trkpt><trkpt lat="39.07202962635029" lon="8.637588396007063"><ele>63.0</ele><time>2026-04-04T17:42:46Z</time></trkpt><trkpt lat="39.0720562644065" lon="8.637695383085845"><ele>63.0</ele><time>2026-04-04T17:42:47Z</time></trkpt><trkpt lat="39.072084694093355" lon="8.637806179363144"><ele>63.0</ele><time>2026-04-04T17:42:48Z</time></trkpt><trkpt lat="39.07210670023787" lon="8.63791217155367"><ele>63.0</ele><time>2026-04-04T17:42:49Z</time></trkpt><trkpt lat="39.07211129545462" lon="8.638020026774239"><ele>63.0</ele><time>2026-04-04T17:42:50Z</time></trkpt><trkpt lat="39.072133032484956" lon="8.638138240501782"><ele>63.0</ele><time>2026-04-04T17:42:51Z</time></trkpt><trkpt lat="39.07215340528697" lon="8.638258633934555"><ele>63.2</ele><time>2026-04-04T17:42:52Z</time></trkpt><trkpt lat="39.072189307824495" lon="8.63837340444806"><ele>63.4</ele><time>2026-04-04T17:42:53Z</time></trkpt><trkpt lat="39.07219187226848" lon="8.638497166550671"><ele>63.60000000000001</ele><time>2026-04-04T17:42:54Z</time></trkpt><trkpt lat="39.07221068094603" lon="8.638627842988015"><ele>63.800000000000004</ele><time>2026-04-04T17:42:54.999Z</time></trkpt><trkpt lat="39.07223932501789" lon="8.638761051624462"><ele>64.0</ele><time>2026-04-04T17:42:55.999Z</time></trkpt><trkpt lat="39.072249399330104" lon="8.638895892090337"><ele>64.0</ele><time>2026-04-04T17:42:56.999Z</time></trkpt><trkpt lat="39.072262382967374" lon="8.639027063284225"><ele>64.0</ele><time>2026-04-04T17:42:57.999Z</time></trkpt><trkpt lat="39.07227608783952" lon="8.639159497320106"><ele>64.0</ele><time>2026-04-04T17:42:58.999Z</time></trkpt><trkpt lat="39.072290110216684" lon="8.639293054096868"><ele>64.0</ele><time>2026-04-04T17:42:59.999Z</time></trkpt><trkpt lat="39.07230425931056" lon="8.63942629553886"><ele>64.0</ele><time>2026-04-04T17:43:00.999Z</time></trkpt><trkpt lat="39.07231732117186" lon="8.63956253980853"><ele>64.2</ele><time>2026-04-04T17:43:01.999Z</time></trkpt><trkpt lat="39.072330251987815" lon="8.63969683696478"><ele>64.4</ele><time>2026-04-04T17:43:02.999Z</time></trkpt><trkpt lat="39.07233809853414" lon="8.639829216103113"><ele>64.6</ele><time>2026-04-04T17:43:03.999Z</time></trkpt><trkpt lat="39.07235313837296" lon="8.639968563233817"><ele>64.8</ele><time>2026-04-04T17:43:04.999Z</time></trkpt><trkpt lat="39.07236703976742" lon="8.640121366448986"><ele>65.0</ele><time>2026-04-04T17:43:05.999Z</time></trkpt><trkpt lat="39.07238515347919" lon="8.64027099948089"><ele>65.2</ele><time>2026-04-04T17:43:06.999Z</time></trkpt><trkpt lat="39.07239640272715" lon="8.64039942498098"><ele>65.4</ele><time>2026-04-04T17:43:07.999Z</time></trkpt><trkpt lat="39.07240773085754" lon="8.640521023538431"><ele>65.6</ele><time>2026-04-04T17:43:08.999Z</time></trkpt><trkpt lat="39.072420363967176" lon="8.64063666294056"><ele>65.8</ele><time>2026-04-04T17:43:09.999Z</time></trkpt><trkpt lat="39.072428853161604" lon="8.640744005077469"><ele>66.0</ele><time>2026-04-04T17:43:10.999Z</time></trkpt><trkpt lat="39.072438463488425" lon="8.640850986837894"><ele>66.0</ele><time>2026-04-04T17:43:11.999Z</time></trkpt><trkpt lat="39.072451626766764" lon="8.640966391358567"><ele>66.0</ele><time>2026-04-04T17:43:12.999Z</time></trkpt><trkpt lat="39.0724648820204" lon="8.641087296940228"><ele>66.0</ele><time>2026-04-04T17:43:13.999Z</time></trkpt><trkpt lat="39.07247791558971" lon="8.641207730776454"><ele>66.0</ele><time>2026-04-04T17:43:14.999Z</time></trkpt><trkpt lat="39.072490865740086" lon="8.64132487477992"><ele>66.0</ele><time>2026-04-04T17:43:15.999Z</time></trkpt><trkpt lat="39.072502932717015" lon="8.64144754664464"><ele>66.0</ele><time>2026-04-04T17:43:16.999Z</time></trkpt><trkpt lat="39.072514357611475" lon="8.641571822008856"><ele>66.0</ele><time>2026-04-04T17:43:17.999Z</time></trkpt><trkpt lat="39.07252789518939" lon="8.641697619919167"><ele>66.0</ele><time>2026-04-04T17:43:18.999Z</time></trkpt><trkpt lat="39.07254155201569" lon="8.64182380014795"><ele>66.0</ele><time>2026-04-04T17:43:19.999Z</time></trkpt><trkpt lat="39.07255453827137" lon="8.641950674700517"><ele>66.0</ele><time>2026-04-04T17:43:20.999Z</time></trkpt><trkpt lat="39.07256716797585" lon="8.642080074532972"><ele>66.0</ele><time>2026-04-04T17:43:21.999Z</time></trkpt><trkpt lat="39.072578539726784" lon="8.642211946820222"><ele>66.0</ele><time>2026-04-04T17:43:22.999Z</time></trkpt><trkpt lat="39.07259072219785" lon="8.642344350976447"><ele>66.0</ele><time>2026-04-04T17:43:23.999Z</time></trkpt><trkpt lat="39.072603649179285" lon="8.642480088964435"><ele>66.0</ele><time>2026-04-04T17:43:24.999Z</time></trkpt><trkpt lat="39.07261706076686" lon="8.642613712195862"><ele>66.0</ele><time>2026-04-04T17:43:25.999Z</time></trkpt><trkpt lat="39.072632534706706" lon="8.64274699140259"><ele>66.2</ele><time>2026-04-04T17:43:26.999Z</time></trkpt><trkpt lat="39.07264679255548" lon="8.64288028366582"><ele>66.39999999999999</ele><time>2026-04-04T17:43:27.999Z</time></trkpt><trkpt lat="39.07265923515765" lon="8.643016038310511"><ele>66.6</ele><time>2026-04-04T17:43:28.999Z</time></trkpt><trkpt lat="39.07267185504105" lon="8.64315264402088"><ele>66.8</ele><time>2026-04-04T17:43:29.999Z</time></trkpt><trkpt lat="39.07268465152832" lon="8.64329228706788"><ele>67.0</ele><time>2026-04-04T17:43:30.999Z</time></trkpt><trkpt lat="39.072699522751975" lon="8.64343242769301"><ele>67.0</ele><time>2026-04-04T17:43:31.999Z</time></trkpt><trkpt lat="39.07271472693262" lon="8.6435731913315"><ele>67.0</ele><time>2026-04-04T17:43:32.999Z</time></trkpt><trkpt lat="39.07271294126921" lon="8.643712520069743"><ele>67.0</ele><time>2026-04-04T17:43:33.999Z</time></trkpt><trkpt lat="39.07272663454186" lon="8.643851567321763"><ele>67.0</ele><time>2026-04-04T17:43:34.999Z</time></trkpt><trkpt lat="39.072739928751915" lon="8.643989753283284"><ele>67.0</ele><time>2026-04-04T17:43:35.999Z</time></trkpt><trkpt lat="39.072753293752896" lon="8.644129186974334"><ele>67.25</ele><time>2026-04-04T17:43:36.999Z</time></trkpt><trkpt lat="39.07278070977177" lon="8.644266988766836"><ele>67.5</ele><time>2026-04-04T17:43:37.999Z</time></trkpt><trkpt lat="39.07279068729263" lon="8.644409407791635"><ele>67.75</ele><time>2026-04-04T17:43:38.999Z</time></trkpt><trkpt lat="39.072805486254005" lon="8.644556115560075"><ele>68.0</ele><time>2026-04-04T17:43:39.999Z</time></trkpt><trkpt lat="39.07282366509774" lon="8.64470673829874"><ele>68.0</ele><time>2026-04-04T17:43:40.999Z</time></trkpt><trkpt lat="39.07282392933765" lon="8.64486611026859"><ele>68.0</ele><time>2026-04-04T17:43:41.999Z</time></trkpt><trkpt lat="39.07285565749627" lon="8.645025816954812"><ele>68.0</ele><time>2026-04-04T17:43:42.999Z</time></trkpt><trkpt lat="39.07287015519764" lon="8.645190651909493"><ele>68.0</ele><time>2026-04-04T17:43:43.999Z</time></trkpt><trkpt lat="39.07288562564731" lon="8.645355754345339"><ele>68.25</ele><time>2026-04-04T17:43:44.999Z</time></trkpt><trkpt lat="39.072899996805646" lon="8.645510383595276"><ele>68.5</ele><time>2026-04-04T17:43:45.999Z</time></trkpt><trkpt lat="39.072919078154534" lon="8.645674727682595"><ele>68.75</ele><time>2026-04-04T17:43:46.999Z</time></trkpt><trkpt lat="39.07293648126641" lon="8.64584465766538"><ele>69.0</ele><time>2026-04-04T17:43:47.999Z</time></trkpt><trkpt lat="39.072952549670106" lon="8.646022688206882"><ele>69.5</ele><time>2026-04-04T17:43:48.999Z</time></trkpt><trkpt lat="39.07296884857946" lon="8.646202161081666"><ele>70.0</ele><time>2026-04-04T17:43:49.999Z</time></trkpt><trkpt lat="39.072986234500945" lon="8.646389366358994"><ele>70.5</ele><time>2026-04-04T17:43:50.999Z</time></trkpt><trkpt lat="39.073005278459476" lon="8.646582063143855"><ele>71.0</ele><time>2026-04-04T17:43:51.999Z</time></trkpt><trkpt lat="39.07302387739686" lon="8.64677195294271"><ele>71.0</ele><time>2026-04-04T17:43:52.999Z</time></trkpt><trkpt lat="39.073045427925905" lon="8.646968662314304"><ele>71.0</ele><time>2026-04-04T17:43:53.999Z</time></trkpt><trkpt lat="39.07306517372644" lon="8.647167227454911"><ele>71.0</ele><time>2026-04-04T17:43:54.999Z</time></trkpt><trkpt lat="39.07308415294343" lon="8.64736466758586"><ele>71.0</ele><time>2026-04-04T17:43:55.999Z</time></trkpt><trkpt lat="39.07310113575983" lon="8.647559229169552"><ele>71.0</ele><time>2026-04-04T17:43:56.999Z</time></trkpt><trkpt lat="39.073118813771" lon="8.647753308271579"><ele>71.0</ele><time>2026-04-04T17:43:57.999Z</time></trkpt><trkpt lat="39.07313633615928" lon="8.64794867898772"><ele>70.66666666666667</ele><time>2026-04-04T17:43:58.999Z</time></trkpt><trkpt lat="39.07315336268739" lon="8.648141235474272"><ele>70.33333333333333</ele><time>2026-04-04T17:43:59.999Z</time></trkpt><trkpt lat="39.07317459088636" lon="8.648336692571368"><ele>70.0</ele><time>2026-04-04T17:44:00.999Z</time></trkpt><trkpt lat="39.07319396464021" lon="8.648527424198804"><ele>70.25</ele><time>2026-04-04T17:44:01.999Z</time></trkpt><trkpt lat="39.07321250677923" lon="8.648718337082185"><ele>70.5</ele><time>2026-04-04T17:44:02.999Z</time></trkpt><trkpt lat="39.073230323106586" lon="8.648910875766003"><ele>70.75</ele><time>2026-04-04T17:44:03.999Z</time></trkpt><trkpt lat="39.07324720146515" lon="8.649101780964607"><ele>71.0</ele><time>2026-04-04T17:44:04.999Z</time></trkpt><trkpt lat="39.073263969199054" lon="8.649294017692547"><ele>70.75</ele><time>2026-04-04T17:44:05.999Z</time></trkpt><trkpt lat="39.07328278259857" lon="8.649485426436522"><ele>70.5</ele><time>2026-04-04T17:44:06.999Z</time></trkpt><trkpt lat="39.073303225846615" lon="8.649673764276564"><ele>70.25</ele><time>2026-04-04T17:44:07.999Z</time></trkpt><trkpt lat="39.07332186717794" lon="8.649862631457145"><ele>70.0</ele><time>2026-04-04T17:44:08.999Z</time></trkpt><trkpt lat="39.07333855838754" lon="8.650045538595544"><ele>70.0</ele><time>2026-04-04T17:44:09.999Z</time></trkpt><trkpt lat="39.073354420470054" lon="8.650240020769326"><ele>70.0</ele><time>2026-04-04T17:44:10.999Z</time></trkpt><trkpt lat="39.073372487023285" lon="8.650436574357492"><ele>70.0</ele><time>2026-04-04T17:44:11.999Z</time></trkpt><trkpt lat="39.0733938746939" lon="8.650637418278542"><ele>70.0</ele><time>2026-04-04T17:44:12.999Z</time></trkpt><trkpt lat="39.073415073731645" lon="8.650844582777374"><ele>70.0</ele><time>2026-04-04T17:44:13.999Z</time></trkpt><trkpt lat="39.07343526822519" lon="8.651055576922147"><ele>70.0</ele><time>2026-04-04T17:44:14.999Z</time></trkpt><trkpt lat="39.07345609829115" lon="8.651281269257062"><ele>70.66666666666666</ele><time>2026-04-04T17:44:15.999Z</time></trkpt><trkpt lat="39.07347822787731" lon="8.651508282447868"><ele>71.33333333333333</ele><time>2026-04-04T17:44:16.999Z</time></trkpt><trkpt lat="39.07350129839265" lon="8.651744341406834"><ele>72.0</ele><time>2026-04-04T17:44:17.999Z</time></trkpt><trkpt lat="39.073523076926456" lon="8.65197613928192"><ele>72.0</ele><time>2026-04-04T17:44:18.999Z</time></trkpt><trkpt lat="39.07354409946804" lon="8.65219674085142"><ele>72.0</ele><time>2026-04-04T17:44:19.999Z</time></trkpt><trkpt lat="39.07356672277271" lon="8.652428829969764"><ele>72.0</ele><time>2026-04-04T17:44:20.999Z</time></trkpt><trkpt lat="39.073589729232154" lon="8.652663867961184"><ele>71.33333333333333</ele><time>2026-04-04T17:44:21.999Z</time></trkpt><trkpt lat="39.07361342123823" lon="8.652903972322871"><ele>70.66666666666666</ele><time>2026-04-04T17:44:22.999Z</time></trkpt><trkpt lat="39.073638302555246" lon="8.653144023776088"><ele>70.0</ele><time>2026-04-04T17:44:23.999Z</time></trkpt><trkpt lat="39.07366518084128" lon="8.65338994018988"><ele>70.0</ele><time>2026-04-04T17:44:24.999Z</time></trkpt><trkpt lat="39.07368953021231" lon="8.653631068020449"><ele>70.0</ele><time>2026-04-04T17:44:25.999Z</time></trkpt><trkpt lat="39.073714398345906" lon="8.653871487246448"><ele>70.0</ele><time>2026-04-04T17:44:26.999Z</time></trkpt><trkpt lat="39.0737357962868" lon="8.654112191731963"><ele>70.0</ele><time>2026-04-04T17:44:27.999Z</time></trkpt><trkpt lat="39.07375879209823" lon="8.654350477075852"><ele>70.0</ele><time>2026-04-04T17:44:28.999Z</time></trkpt><trkpt lat="39.07378362783964" lon="8.65459017551264"><ele>70.0</ele><time>2026-04-04T17:44:29.999Z</time></trkpt><trkpt lat="39.07380743986529" lon="8.65482714706534"><ele>70.0</ele><time>2026-04-04T17:44:30.999Z</time></trkpt><trkpt lat="39.073830828170884" lon="8.655067587965597"><ele>70.0</ele><time>2026-04-04T17:44:31.999Z</time></trkpt><trkpt lat="39.073854440708054" lon="8.655305622141778"><ele>70.0</ele><time>2026-04-04T17:44:32.999Z</time></trkpt><trkpt lat="39.07388274943129" lon="8.655544776023165"><ele>70.0</ele><time>2026-04-04T17:44:33.999Z</time></trkpt><trkpt lat="39.07391809430485" lon="8.655781184868248"><ele>70.0</ele><time>2026-04-04T17:44:34.999Z</time></trkpt><trkpt lat="39.07396263648586" lon="8.6560179463256"><ele>70.0</ele><time>2026-04-04T17:44:35.999Z</time></trkpt><trkpt lat="39.07401809624158" lon="8.656252485863883"><ele>69.33333333333333</ele><time>2026-04-04T17:44:37Z</time></trkpt><trkpt lat="39.07407627318975" lon="8.656485053027144"><ele>68.66666666666667</ele><time>2026-04-04T17:44:38Z</time></trkpt><trkpt lat="39.074134819780184" lon="8.656721370963636"><ele>68.0</ele><time>2026-04-04T17:44:39Z</time></trkpt><trkpt lat="39.07418832103648" lon="8.656948730868"><ele>67.0</ele><time>2026-04-04T17:44:40Z</time></trkpt><trkpt lat="39.07424197580571" lon="8.65717431109991"><ele>66.0</ele><time>2026-04-04T17:44:41Z</time></trkpt><trkpt lat="39.07429324815052" lon="8.65740048745246"><ele>65.0</ele><time>2026-04-04T17:44:42Z</time></trkpt><trkpt lat="39.07434751594905" lon="8.657618606923595"><ele>65.33333333333334</ele><time>2026-04-04T17:44:43Z</time></trkpt><trkpt lat="39.07438795987874" lon="8.657844009572461"><ele>65.66666666666667</ele><time>2026-04-04T17:44:44Z</time></trkpt><trkpt lat="39.07444846520844" lon="8.658062045524796"><ele>66.0</ele><time>2026-04-04T17:44:45Z</time></trkpt><trkpt lat="39.07452047536352" lon="8.658276810026786"><ele>66.0</ele><time>2026-04-04T17:44:46Z</time></trkpt><trkpt lat="39.074598229093446" lon="8.65849119003357"><ele>66.0</ele><time>2026-04-04T17:44:47Z</time></trkpt><trkpt lat="39.074678378112296" lon="8.6587077679846"><ele>66.0</ele><time>2026-04-04T17:44:48Z</time></trkpt><trkpt lat="39.07476038230749" lon="8.658927404133108"><ele>65.66666666666667</ele><time>2026-04-04T17:44:49Z</time></trkpt><trkpt lat="39.07484317044951" lon="8.65914914012278"><ele>65.33333333333334</ele><time>2026-04-04T17:44:50Z</time></trkpt><trkpt lat="39.0749435132843" lon="8.659367416678203"><ele>65.0</ele><time>2026-04-04T17:44:51Z</time></trkpt><trkpt lat="39.07501146296645" lon="8.65960319739073"><ele>63.66666666666667</ele><time>2026-04-04T17:44:52Z</time></trkpt><trkpt lat="39.075094893282" lon="8.659830417799622"><ele>62.33333333333333</ele><time>2026-04-04T17:44:53Z</time></trkpt><trkpt lat="39.07518051412699" lon="8.6600580678628"><ele>61.0</ele><time>2026-04-04T17:44:54Z</time></trkpt><trkpt lat="39.07527902684279" lon="8.660275084481444"><ele>61.0</ele><time>2026-04-04T17:44:55Z</time></trkpt><trkpt lat="39.07536343029139" lon="8.660500584706611"><ele>61.0</ele><time>2026-04-04T17:44:56Z</time></trkpt><trkpt lat="39.075447824644975" lon="8.660723209631643"><ele>61.0</ele><time>2026-04-04T17:44:57Z</time></trkpt><trkpt lat="39.07552744258948" lon="8.660940584156165"><ele>61.0</ele><time>2026-04-04T17:44:58Z</time></trkpt><trkpt lat="39.075608448034174" lon="8.66116091420527"><ele>61.0</ele><time>2026-04-04T17:44:59Z</time></trkpt><trkpt lat="39.07569252002966" lon="8.661389182791888"><ele>61.0</ele><time>2026-04-04T17:45:00Z</time></trkpt><trkpt lat="39.07577838477201" lon="8.66161850553866"><ele>60.666666666666664</ele><time>2026-04-04T17:45:01Z</time></trkpt><trkpt lat="39.0758608892254" lon="8.661841338621047"><ele>60.33333333333333</ele><time>2026-04-04T17:45:02Z</time></trkpt><trkpt lat="39.07594003996273" lon="8.662049138964756"><ele>60.0</ele><time>2026-04-04T17:45:03Z</time></trkpt><trkpt lat="39.076016456515305" lon="8.662250095697859"><ele>60.0</ele><time>2026-04-04T17:45:04Z</time></trkpt><trkpt lat="39.07608965113178" lon="8.662443688937367"><ele>60.0</ele><time>2026-04-04T17:45:05Z</time></trkpt><trkpt lat="39.07615947193404" lon="8.662627953610473"><ele>60.0</ele><time>2026-04-04T17:45:06Z</time></trkpt><trkpt lat="39.07622699154616" lon="8.662807883817345"><ele>60.25</ele><time>2026-04-04T17:45:07Z</time></trkpt><trkpt lat="39.07629136052534" lon="8.662985746741352"><ele>60.5</ele><time>2026-04-04T17:45:08Z</time></trkpt><trkpt lat="39.07635416829125" lon="8.663160586317845"><ele>60.75</ele><time>2026-04-04T17:45:09Z</time></trkpt><trkpt lat="39.076415127143505" lon="8.663331538073534"><ele>61.0</ele><time>2026-04-04T17:45:10Z</time></trkpt><trkpt lat="39.076475583054666" lon="8.663499447978895"><ele>61.5</ele><time>2026-04-04T17:45:11Z</time></trkpt><trkpt lat="39.0765343030895" lon="8.663659545032692"><ele>62.0</ele><time>2026-04-04T17:45:12Z</time></trkpt><trkpt lat="39.07659268233026" lon="8.663816641288115"><ele>62.5</ele><time>2026-04-04T17:45:13Z</time></trkpt><trkpt lat="39.07664808232237" lon="8.663965875742724"><ele>63.0</ele><time>2026-04-04T17:45:14Z</time></trkpt><trkpt lat="39.076697482258794" lon="8.664100757925594"><ele>63.0</ele><time>2026-04-04T17:45:15Z</time></trkpt><trkpt lat="39.07674473794561" lon="8.664230798441414"><ele>63.0</ele><time>2026-04-04T17:45:16Z</time></trkpt><trkpt lat="39.0768095040306" lon="8.664406058933094"><ele>63.0</ele><time>2026-04-04T17:45:17Z</time></trkpt><trkpt lat="39.07685513543669" lon="8.664526780930263"><ele>63.0</ele><time>2026-04-04T17:45:18Z</time></trkpt><trkpt lat="39.07689817056113" lon="8.66463998341765"><ele>63.166666666666664</ele><time>2026-04-04T17:45:19Z</time></trkpt><trkpt lat="39.07693733218899" lon="8.664739891816481"><ele>63.33333333333333</ele><time>2026-04-04T17:45:20Z</time></trkpt><trkpt lat="39.07697381621777" lon="8.664835358495564"><ele>63.5</ele><time>2026-04-04T17:45:21Z</time></trkpt><trkpt lat="39.07700622308777" lon="8.664922340410348"><ele>63.666666666666664</ele><time>2026-04-04T17:45:22Z</time></trkpt><trkpt lat="39.077034666718745" lon="8.665015934600929"><ele>63.83333333333333</ele><time>2026-04-04T17:45:24Z</time></trkpt><trkpt lat="39.07708098820126" lon="8.665114065367275"><ele>64.0</ele><time>2026-04-04T17:45:34Z</time></trkpt><trkpt lat="39.077128539714536" lon="8.66525331269028"><ele>64.16666666666666</ele><time>2026-04-04T17:45:36Z</time></trkpt><trkpt lat="39.07715777802089" lon="8.665325712498925"><ele>64.33333333333333</ele><time>2026-04-04T17:45:37Z</time></trkpt><trkpt lat="39.07718860032749" lon="8.665408473156884"><ele>64.5</ele><time>2026-04-04T17:45:38Z</time></trkpt><trkpt lat="39.07721815002363" lon="8.665512111486617"><ele>64.66666666666667</ele><time>2026-04-04T17:45:39Z</time></trkpt><trkpt lat="39.07726013628341" lon="8.665624128330142"><ele>64.83333333333334</ele><time>2026-04-04T17:45:40Z</time></trkpt><trkpt lat="39.077303636982734" lon="8.665737940352052"><ele>65.0</ele><time>2026-04-04T17:45:41Z</time></trkpt><trkpt lat="39.0773530835811" lon="8.665867634930551"><ele>65.0</ele><time>2026-04-04T17:45:42Z</time></trkpt><trkpt lat="39.0774038381571" lon="8.66599369986989"><ele>65.0</ele><time>2026-04-04T17:45:43Z</time></trkpt><trkpt lat="39.07746444629872" lon="8.666122609985427"><ele>65.0</ele><time>2026-04-04T17:45:44Z</time></trkpt><trkpt lat="39.077535382247994" lon="8.66625585000185"><ele>65.0</ele><time>2026-04-04T17:45:45Z</time></trkpt><trkpt lat="39.07761606436482" lon="8.666384926981394"><ele>65.5</ele><time>2026-04-04T17:45:46Z</time></trkpt><trkpt lat="39.07770569413332" lon="8.666511434090344"><ele>66.0</ele><time>2026-04-04T17:45:47Z</time></trkpt><trkpt lat="39.07780306612295" lon="8.666641367416142"><ele>66.5</ele><time>2026-04-04T17:45:48Z</time></trkpt><trkpt lat="39.077906552712285" lon="8.666771636952268"><ele>67.0</ele><time>2026-04-04T17:45:49Z</time></trkpt><trkpt lat="39.07801185847715" lon="8.666904512407537"><ele>67.0</ele><time>2026-04-04T17:45:50Z</time></trkpt><trkpt lat="39.0781179900208" lon="8.667038569443022"><ele>67.0</ele><time>2026-04-04T17:45:51Z</time></trkpt><trkpt lat="39.07821870534262" lon="8.667164141253547"><ele>67.0</ele><time>2026-04-04T17:45:52Z</time></trkpt><trkpt lat="39.0783212987657" lon="8.667294275416793"><ele>67.0</ele><time>2026-04-04T17:45:53Z</time></trkpt><trkpt lat="39.078426331366714" lon="8.667428843224819"><ele>67.0</ele><time>2026-04-04T17:45:54Z</time></trkpt><trkpt lat="39.07852768513752" lon="8.667555186058514"><ele>67.0</ele><time>2026-04-04T17:45:55Z</time></trkpt><trkpt lat="39.078633597897195" lon="8.667687230489435"><ele>67.0</ele><time>2026-04-04T17:45:56Z</time></trkpt><trkpt lat="39.078743351814055" lon="8.667825228334097"><ele>67.0</ele><time>2026-04-04T17:45:57Z</time></trkpt><trkpt lat="39.07884562396961" lon="8.667951323891996"><ele>66.75</ele><time>2026-04-04T17:45:58Z</time></trkpt><trkpt lat="39.07894139345889" lon="8.668072564698052"><ele>66.5</ele><time>2026-04-04T17:45:59Z</time></trkpt><trkpt lat="39.07903596676493" lon="8.668195603451814"><ele>66.25</ele><time>2026-04-04T17:46:00Z</time></trkpt><trkpt lat="39.07913731384919" lon="8.668322165050604"><ele>66.0</ele><time>2026-04-04T17:46:01Z</time></trkpt><trkpt lat="39.0792471761606" lon="8.668453729269224"><ele>65.33333333333333</ele><time>2026-04-04T17:46:02Z</time></trkpt><trkpt lat="39.07936929400255" lon="8.668599276985214"><ele>64.66666666666666</ele><time>2026-04-04T17:46:03Z</time></trkpt><trkpt lat="39.0794991348321" lon="8.66874403900648"><ele>64.0</ele><time>2026-04-04T17:46:04Z</time></trkpt><trkpt lat="39.07963317155753" lon="8.668883308688304"><ele>64.0</ele><time>2026-04-04T17:46:05Z</time></trkpt><trkpt lat="39.07975961045228" lon="8.669008015327686"><ele>64.0</ele><time>2026-04-04T17:46:06Z</time></trkpt><trkpt lat="39.07987862203094" lon="8.669124887597984"><ele>64.0</ele><time>2026-04-04T17:46:07Z</time></trkpt><trkpt lat="39.08000046676477" lon="8.669247558819063"><ele>64.33333333333333</ele><time>2026-04-04T17:46:08Z</time></trkpt><trkpt lat="39.080134871877654" lon="8.66937938407958"><ele>64.66666666666667</ele><time>2026-04-04T17:46:09Z</time></trkpt><trkpt lat="39.08028205863528" lon="8.669523175308258"><ele>65.0</ele><time>2026-04-04T17:46:10Z</time></trkpt><trkpt lat="39.08043880188095" lon="8.66967231182223"><ele>65.0</ele><time>2026-04-04T17:46:11Z</time></trkpt><trkpt lat="39.08058722558098" lon="8.669838658838483"><ele>65.0</ele><time>2026-04-04T17:46:12Z</time></trkpt><trkpt lat="39.08075362718247" lon="8.670002140139783"><ele>65.0</ele><time>2026-04-04T17:46:13Z</time></trkpt><trkpt lat="39.0809342544747" lon="8.67017959730771"><ele>65.0</ele><time>2026-04-04T17:46:14Z</time></trkpt><trkpt lat="39.08111351417879" lon="8.670355710927295"><ele>65.0</ele><time>2026-04-04T17:46:15Z</time></trkpt><trkpt lat="39.08129011082914" lon="8.67052928555331"><ele>65.0</ele><time>2026-04-04T17:46:16Z</time></trkpt><trkpt lat="39.08148191972443" lon="8.670694924888634"><ele>67.5</ele><time>2026-04-04T17:46:17Z</time></trkpt><trkpt lat="39.0816629147459" lon="8.670885071855867"><ele>70.0</ele><time>2026-04-04T17:46:18Z</time></trkpt><trkpt lat="39.081846988721985" lon="8.671071671839721"><ele>70.0</ele><time>2026-04-04T17:46:19Z</time></trkpt><trkpt lat="39.08203338697741" lon="8.67125856821466"><ele>70.0</ele><time>2026-04-04T17:46:20Z</time></trkpt><trkpt lat="39.08222183631976" lon="8.671442241284732"><ele>70.0</ele><time>2026-04-04T17:46:21Z</time></trkpt><trkpt lat="39.08240498006272" lon="8.671620968617683"><ele>70.0</ele><time>2026-04-04T17:46:22Z</time></trkpt><trkpt lat="39.08258972782311" lon="8.671803348024856"><ele>69.5</ele><time>2026-04-04T17:46:23Z</time></trkpt><trkpt lat="39.082780595748304" lon="8.671991391342576"><ele>69.0</ele><time>2026-04-04T17:46:24Z</time></trkpt><trkpt lat="39.08297514632069" lon="8.672181254812683"><ele>69.0</ele><time>2026-04-04T17:46:25Z</time></trkpt><trkpt lat="39.083171793506224" lon="8.67237357605265"><ele>69.0</ele><time>2026-04-04T17:46:26Z</time></trkpt><trkpt lat="39.08337880752195" lon="8.672557558285146"><ele>69.5</ele><time>2026-04-04T17:46:27Z</time></trkpt><trkpt lat="39.08359343533225" lon="8.672726375891253"><ele>70.0</ele><time>2026-04-04T17:46:28Z</time></trkpt><trkpt lat="39.083818003079884" lon="8.672875731989727"><ele>70.0</ele><time>2026-04-04T17:46:29Z</time></trkpt><trkpt lat="39.08404551902647" lon="8.673015311041947"><ele>70.0</ele><time>2026-04-04T17:46:30Z</time></trkpt><trkpt lat="39.08427635365473" lon="8.67315073706259"><ele>70.5</ele><time>2026-04-04T17:46:31Z</time></trkpt><trkpt lat="39.08451014015567" lon="8.673287394408822"><ele>71.0</ele><time>2026-04-04T17:46:32Z</time></trkpt><trkpt lat="39.084740681974736" lon="8.67342816476399"><ele>71.5</ele><time>2026-04-04T17:46:33Z</time></trkpt><trkpt lat="39.084970327623424" lon="8.673572238003898"><ele>72.0</ele><time>2026-04-04T17:46:34Z</time></trkpt><trkpt lat="39.0852018051023" lon="8.673715401957281"><ele>72.0</ele><time>2026-04-04T17:46:35Z</time></trkpt><trkpt lat="39.08543493889069" lon="8.673855144791727"><ele>72.0</ele><time>2026-04-04T17:46:36Z</time></trkpt><trkpt lat="39.085667666253805" lon="8.67399220288415"><ele>73.5</ele><time>2026-04-04T17:46:37Z</time></trkpt><trkpt lat="39.085897284015346" lon="8.674131362047296"><ele>75.0</ele><time>2026-04-04T17:46:38Z</time></trkpt><trkpt lat="39.08612502379901" lon="8.674269479205739"><ele>75.0</ele><time>2026-04-04T17:46:39Z</time></trkpt><trkpt lat="39.08635482429347" lon="8.674407699338541"><ele>75.0</ele><time>2026-04-04T17:46:40Z</time></trkpt><trkpt lat="39.086581571793566" lon="8.67454493242582"><ele>77.5</ele><time>2026-04-04T17:46:41Z</time></trkpt><trkpt lat="39.08681844486517" lon="8.674689630473702"><ele>80.0</ele><time>2026-04-04T17:46:41.999Z</time></trkpt><trkpt lat="39.087064196421714" lon="8.674842747871491"><ele>80.0</ele><time>2026-04-04T17:46:42.999Z</time></trkpt><trkpt lat="39.087312867353155" lon="8.674992334757302"><ele>80.0</ele><time>2026-04-04T17:46:43.999Z</time></trkpt><trkpt lat="39.0875660396239" lon="8.675144279476546"><ele>80.5</ele><time>2026-04-04T17:46:44.999Z</time></trkpt><trkpt lat="39.08782112835343" lon="8.675303205941784"><ele>81.0</ele><time>2026-04-04T17:46:45.999Z</time></trkpt><trkpt lat="39.088078524060705" lon="8.675464164281902"><ele>80.0</ele><time>2026-04-04T17:46:47Z</time></trkpt><trkpt lat="39.08834045658929" lon="8.675626826599832"><ele>79.0</ele><time>2026-04-04T17:46:48Z</time></trkpt><trkpt lat="39.08860692703469" lon="8.675792039970828"><ele>79.0</ele><time>2026-04-04T17:46:49Z</time></trkpt><trkpt lat="39.08887248766965" lon="8.675957432585212"><ele>79.0</ele><time>2026-04-04T17:46:50Z</time></trkpt><trkpt lat="39.08913355385154" lon="8.676116578017691"><ele>79.0</ele><time>2026-04-04T17:46:51Z</time></trkpt><trkpt lat="39.089385557855984" lon="8.676256984640853"><ele>79.0</ele><time>2026-04-04T17:46:52Z</time></trkpt><trkpt lat="39.08964340156773" lon="8.676380955973695"><ele>79.0</ele><time>2026-04-04T17:46:53Z</time></trkpt><trkpt lat="39.08990989321061" lon="8.676495742642212"><ele>79.0</ele><time>2026-04-04T17:46:54Z</time></trkpt><trkpt lat="39.0901772964785" lon="8.67660494799566"><ele>78.0</ele><time>2026-04-04T17:46:55Z</time></trkpt><trkpt lat="39.09044471628861" lon="8.67671763800295"><ele>77.0</ele><time>2026-04-04T17:46:56Z</time></trkpt><trkpt lat="39.0907084633269" lon="8.67683040158676"><ele>76.5</ele><time>2026-04-04T17:46:57Z</time></trkpt><trkpt lat="39.09097523962133" lon="8.676943786725401"><ele>76.0</ele><time>2026-04-04T17:46:58Z</time></trkpt><trkpt lat="39.09124067026652" lon="8.677057412734186"><ele>76.0</ele><time>2026-04-04T17:46:59Z</time></trkpt><trkpt lat="39.091506232787786" lon="8.677170149188523"><ele>76.0</ele><time>2026-04-04T17:47:00Z</time></trkpt><trkpt lat="39.09177128080877" lon="8.67728010962261"><ele>75.5</ele><time>2026-04-04T17:47:01Z</time></trkpt><trkpt lat="39.09203391189589" lon="8.677389795122634"><ele>75.0</ele><time>2026-04-04T17:47:02Z</time></trkpt><trkpt lat="39.09229745386669" lon="8.677501901620753"><ele>74.0</ele><time>2026-04-04T17:47:03Z</time></trkpt><trkpt lat="39.09255960666908" lon="8.677615639334523"><ele>73.0</ele><time>2026-04-04T17:47:04Z</time></trkpt><trkpt lat="39.09282527479687" lon="8.677731214348075"><ele>74.5</ele><time>2026-04-04T17:47:05Z</time></trkpt><trkpt lat="39.093087794782015" lon="8.67784301000803"><ele>76.0</ele><time>2026-04-04T17:47:06Z</time></trkpt><trkpt lat="39.09335231123086" lon="8.677955437095283"><ele>76.5</ele><time>2026-04-04T17:47:07Z</time></trkpt><trkpt lat="39.093601601908794" lon="8.67806056236522"><ele>77.0</ele><time>2026-04-04T17:47:08Z</time></trkpt><trkpt lat="39.093832054080146" lon="8.678159766819391"><ele>77.0</ele><time>2026-04-04T17:47:09Z</time></trkpt><trkpt lat="39.09405653708187" lon="8.67827160370589"><ele>77.0</ele><time>2026-04-04T17:47:10Z</time></trkpt><trkpt lat="39.094274919519954" lon="8.678408560742966"><ele>76.0</ele><time>2026-04-04T17:47:11Z</time></trkpt><trkpt lat="39.09448436428888" lon="8.678577751350852"><ele>75.0</ele><time>2026-04-04T17:47:12Z</time></trkpt><trkpt lat="39.094687067165495" lon="8.678770742273954"><ele>73.5</ele><time>2026-04-04T17:47:13Z</time></trkpt><trkpt lat="39.09489540480743" lon="8.678963399739004"><ele>72.0</ele><time>2026-04-04T17:47:14Z</time></trkpt><trkpt lat="39.095112922838396" lon="8.679150703151766"><ele>72.0</ele><time>2026-04-04T17:47:15Z</time></trkpt><trkpt lat="39.09533109020583" lon="8.679338307539071"><ele>72.0</ele><time>2026-04-04T17:47:16Z</time></trkpt><trkpt lat="39.09555351301526" lon="8.679527944394465"><ele>72.5</ele><time>2026-04-04T17:47:17Z</time></trkpt><trkpt lat="39.09577307780086" lon="8.679712801453139"><ele>73.0</ele><time>2026-04-04T17:47:18Z</time></trkpt><trkpt lat="39.095984252315574" lon="8.679895120201879"><ele>73.0</ele><time>2026-04-04T17:47:19Z</time></trkpt><trkpt lat="39.09618131511938" lon="8.680062959989199"><ele>73.0</ele><time>2026-04-04T17:47:20Z</time></trkpt><trkpt lat="39.0963621488337" lon="8.680221563677039"><ele>73.66666666666666</ele><time>2026-04-04T17:47:21Z</time></trkpt><trkpt lat="39.09654671692214" lon="8.680381645828005"><ele>74.33333333333333</ele><time>2026-04-04T17:47:22Z</time></trkpt><trkpt lat="39.09673221837614" lon="8.680538199578072"><ele>75.0</ele><time>2026-04-04T17:47:23Z</time></trkpt><trkpt lat="39.09690759526366" lon="8.680686270030792"><ele>75.0</ele><time>2026-04-04T17:47:24Z</time></trkpt><trkpt lat="39.09707979699255" lon="8.680835897605721"><ele>75.0</ele><time>2026-04-04T17:47:25Z</time></trkpt><trkpt lat="39.09724953314937" lon="8.680990724874876"><ele>75.0</ele><time>2026-04-04T17:47:26Z</time></trkpt><trkpt lat="39.09741685686371" lon="8.681160181437132"><ele>74.66666666666667</ele><time>2026-04-04T17:47:27Z</time></trkpt><trkpt lat="39.097571300250536" lon="8.681334906236337"><ele>74.33333333333334</ele><time>2026-04-04T17:47:28Z</time></trkpt><trkpt lat="39.09771315721351" lon="8.681505139735894"><ele>74.0</ele><time>2026-04-04T17:47:29Z</time></trkpt><trkpt lat="39.09785417654897" lon="8.681668400342176"><ele>74.0</ele><time>2026-04-04T17:47:30Z</time></trkpt><trkpt lat="39.09799936990322" lon="8.68183408628172"><ele>74.0</ele><time>2026-04-04T17:47:31Z</time></trkpt><trkpt lat="39.098144541289415" lon="8.682001174002226"><ele>74.0</ele><time>2026-04-04T17:47:32Z</time></trkpt><trkpt lat="39.098290643345265" lon="8.682166773779553"><ele>74.33333333333334</ele><time>2026-04-04T17:47:33Z</time></trkpt><trkpt lat="39.098437094326066" lon="8.682329168470647"><ele>74.66666666666667</ele><time>2026-04-04T17:47:34Z</time></trkpt><trkpt lat="39.098574562036866" lon="8.682479602429508"><ele>75.0</ele><time>2026-04-04T17:47:35Z</time></trkpt><trkpt lat="39.09872082166807" lon="8.682637701384607"><ele>74.66666666666667</ele><time>2026-04-04T17:47:36Z</time></trkpt><trkpt lat="39.098886374417326" lon="8.682803348433376"><ele>74.33333333333334</ele><time>2026-04-04T17:47:37Z</time></trkpt><trkpt lat="39.099068625417054" lon="8.682961688637237"><ele>74.0</ele><time>2026-04-04T17:47:38Z</time></trkpt><trkpt lat="39.09924706697657" lon="8.683099883573485"><ele>74.66666666666667</ele><time>2026-04-04T17:47:39Z</time></trkpt><trkpt lat="39.099422691716775" lon="8.683231689036234"><ele>75.33333333333333</ele><time>2026-04-04T17:47:40Z</time></trkpt><trkpt lat="39.09960427127527" lon="8.683367778914858"><ele>76.0</ele><time>2026-04-04T17:47:41Z</time></trkpt><trkpt lat="39.09978777794707" lon="8.683507150087413"><ele>76.33333333333333</ele><time>2026-04-04T17:47:42Z</time></trkpt><trkpt lat="39.099977260050295" lon="8.683652526659342"><ele>76.66666666666667</ele><time>2026-04-04T17:47:43Z</time></trkpt><trkpt lat="39.10016581110798" lon="8.68379666688156"><ele>77.0</ele><time>2026-04-04T17:47:44Z</time></trkpt><trkpt lat="39.100348768184" lon="8.683934541864756"><ele>77.0</ele><time>2026-04-04T17:47:45Z</time></trkpt><trkpt lat="39.100541097754984" lon="8.684079964939242"><ele>77.0</ele><time>2026-04-04T17:47:46Z</time></trkpt><trkpt lat="39.1007429171285" lon="8.684233667689316"><ele>77.5</ele><time>2026-04-04T17:47:47Z</time></trkpt><trkpt lat="39.100955605472926" lon="8.684397321404102"><ele>78.0</ele><time>2026-04-04T17:47:48Z</time></trkpt><trkpt lat="39.10117102127613" lon="8.684560840632077"><ele>78.0</ele><time>2026-04-04T17:47:49Z</time></trkpt><trkpt lat="39.1013786312078" lon="8.68471666670841"><ele>78.0</ele><time>2026-04-04T17:47:50Z</time></trkpt><trkpt lat="39.101584536295015" lon="8.684874782543691"><ele>78.0</ele><time>2026-04-04T17:47:51Z</time></trkpt><trkpt lat="39.10179115289673" lon="8.685033485375062"><ele>78.0</ele><time>2026-04-04T17:47:52Z</time></trkpt><trkpt lat="39.102002387312766" lon="8.685191358535954"><ele>79.0</ele><time>2026-04-04T17:47:53Z</time></trkpt><trkpt lat="39.10221378654692" lon="8.685351149703589"><ele>80.0</ele><time>2026-04-04T17:47:54Z</time></trkpt><trkpt lat="39.102425514812275" lon="8.685510840338928"><ele>80.5</ele><time>2026-04-04T17:47:55Z</time></trkpt><trkpt lat="39.102636438999184" lon="8.68567014702652"><ele>81.0</ele><time>2026-04-04T17:47:56Z</time></trkpt><trkpt lat="39.10284606944176" lon="8.685828059954979"><ele>81.0</ele><time>2026-04-04T17:47:57Z</time></trkpt><trkpt lat="39.10305651820505" lon="8.685987270217211"><ele>81.0</ele><time>2026-04-04T17:47:58Z</time></trkpt><trkpt lat="39.10326853689184" lon="8.68614795958902"><ele>82.5</ele><time>2026-04-04T17:47:59Z</time></trkpt><trkpt lat="39.10348206111276" lon="8.686309891459237"><ele>84.0</ele><time>2026-04-04T17:48:00Z</time></trkpt><trkpt lat="39.10369835132972" lon="8.686472532499243"><ele>84.0</ele><time>2026-04-04T17:48:01Z</time></trkpt><trkpt lat="39.103915021068836" lon="8.68663632839993"><ele>84.0</ele><time>2026-04-04T17:48:02Z</time></trkpt><trkpt lat="39.1041314809909" lon="8.68680001876822"><ele>86.5</ele><time>2026-04-04T17:48:03Z</time></trkpt><trkpt lat="39.10434603538459" lon="8.686961405339709"><ele>89.0</ele><time>2026-04-04T17:48:04Z</time></trkpt><trkpt lat="39.104560653495525" lon="8.687123461907019"><ele>89.0</ele><time>2026-04-04T17:48:05Z</time></trkpt><trkpt lat="39.104773428897154" lon="8.687285406726742"><ele>89.0</ele><time>2026-04-04T17:48:06Z</time></trkpt><trkpt lat="39.10498602259924" lon="8.68744748956039"><ele>88.5</ele><time>2026-04-04T17:48:07Z</time></trkpt><trkpt lat="39.10519869187715" lon="8.687607045261089"><ele>88.0</ele><time>2026-04-04T17:48:08Z</time></trkpt><trkpt lat="39.10541029756669" lon="8.687766956183163"><ele>88.0</ele><time>2026-04-04T17:48:09Z</time></trkpt><trkpt lat="39.10561789728561" lon="8.68792490380438"><ele>88.0</ele><time>2026-04-04T17:48:10Z</time></trkpt><trkpt lat="39.10581927016585" lon="8.688078267219971"><ele>89.0</ele><time>2026-04-04T17:48:11Z</time></trkpt><trkpt lat="39.10601073516422" lon="8.688223039776954"><ele>90.0</ele><time>2026-04-04T17:48:12Z</time></trkpt><trkpt lat="39.10618855630937" lon="8.688357476177693"><ele>91.0</ele><time>2026-04-04T17:48:13Z</time></trkpt><trkpt lat="39.106357271964846" lon="8.688487066860173"><ele>91.5</ele><time>2026-04-04T17:48:14Z</time></trkpt><trkpt lat="39.106671273149594" lon="8.688722824718146"><ele>92.0</ele><time>2026-04-04T17:48:16Z</time></trkpt><trkpt lat="39.10681581569302" lon="8.688831885186453"><ele>92.0</ele><time>2026-04-04T17:48:17Z</time></trkpt><trkpt lat="39.106943791028414" lon="8.6889269502006"><ele>92.0</ele><time>2026-04-04T17:48:18Z</time></trkpt><trkpt lat="39.10706280186109" lon="8.689017074550424"><ele>92.0</ele><time>2026-04-04T17:48:19Z</time></trkpt><trkpt lat="39.1071646958962" lon="8.68909684840044"><ele>92.0</ele><time>2026-04-04T17:48:20Z</time></trkpt><trkpt lat="39.10724635442533" lon="8.689167042648084"><ele>92.0</ele><time>2026-04-04T17:48:21Z</time></trkpt><trkpt lat="39.107313274984605" lon="8.689245118655684"><ele>92.0</ele><time>2026-04-04T17:48:22Z</time></trkpt><trkpt lat="39.10735306766876" lon="8.689339488989434"><ele>92.0</ele><time>2026-04-04T17:48:23Z</time></trkpt><trkpt lat="39.10738179791642" lon="8.689433296536373"><ele>92.0</ele><time>2026-04-04T17:48:24Z</time></trkpt><trkpt lat="39.107438009337805" lon="8.689510633511826"><ele>92.0</ele><time>2026-04-04T17:48:25Z</time></trkpt><trkpt lat="39.10750690760953" lon="8.689537331981665"><ele>92.0</ele><time>2026-04-04T17:48:26Z</time></trkpt><trkpt lat="39.1075757272357" lon="8.689528764045058"><ele>92.39999999999999</ele><time>2026-04-04T17:48:27Z</time></trkpt><trkpt lat="39.10763264445536" lon="8.689470160402985"><ele>92.8</ele><time>2026-04-04T17:48:28Z</time></trkpt><trkpt lat="39.10766808995136" lon="8.689383559048213"><ele>93.2</ele><time>2026-04-04T17:48:29Z</time></trkpt><trkpt lat="39.10767365756149" lon="8.689268715084328"><ele>93.6</ele><time>2026-04-04T17:48:30Z</time></trkpt><trkpt lat="39.10766919875603" lon="8.689139909862268"><ele>94.0</ele><time>2026-04-04T17:48:31Z</time></trkpt><trkpt lat="39.10769935796903" lon="8.688990014967946"><ele>92.66666666666666</ele><time>2026-04-04T17:48:32Z</time></trkpt><trkpt lat="39.107779780473976" lon="8.688830204414229"><ele>91.33333333333333</ele><time>2026-04-04T17:48:33Z</time></trkpt><trkpt lat="39.10787681941108" lon="8.688636848036698"><ele>90.0</ele><time>2026-04-04T17:48:34Z</time></trkpt><trkpt lat="39.107981210819446" lon="8.688429142659093"><ele>90.0</ele><time>2026-04-04T17:48:35Z</time></trkpt><trkpt lat="39.10808827582431" lon="8.68821254904426"><ele>90.0</ele><time>2026-04-04T17:48:36Z</time></trkpt><trkpt lat="39.10820566255989" lon="8.687976885924664"><ele>90.0</ele><time>2026-04-04T17:48:37Z</time></trkpt><trkpt lat="39.10832348800859" lon="8.68774454925899"><ele>90.5</ele><time>2026-04-04T17:48:38Z</time></trkpt><trkpt lat="39.108443676386315" lon="8.687500394546147"><ele>91.0</ele><time>2026-04-04T17:48:39Z</time></trkpt><trkpt lat="39.108686528083375" lon="8.686997930190131"><ele>90.66666666666666</ele><time>2026-04-04T17:48:41Z</time></trkpt><trkpt lat="39.108805685074614" lon="8.686755548642601"><ele>90.33333333333333</ele><time>2026-04-04T17:48:42Z</time></trkpt><trkpt lat="39.108926146028175" lon="8.686511663536393"><ele>90.0</ele><time>2026-04-04T17:48:42.999Z</time></trkpt><trkpt lat="39.10904788835822" lon="8.686266536950797"><ele>89.33333333333333</ele><time>2026-04-04T17:48:43.999Z</time></trkpt><trkpt lat="39.10916871656557" lon="8.686022709515317"><ele>88.66666666666666</ele><time>2026-04-04T17:48:44.999Z</time></trkpt><trkpt lat="39.10928724076477" lon="8.685778178265862"><ele>88.0</ele><time>2026-04-04T17:48:45.999Z</time></trkpt><trkpt lat="39.109407108342324" lon="8.685533381627135"><ele>88.0</ele><time>2026-04-04T17:48:46.999Z</time></trkpt><trkpt lat="39.10952681664267" lon="8.685292182944446"><ele>88.0</ele><time>2026-04-04T17:48:47.999Z</time></trkpt><trkpt lat="39.10964582792471" lon="8.685050238824436"><ele>88.0</ele><time>2026-04-04T17:48:48.999Z</time></trkpt><trkpt lat="39.109764370158025" lon="8.684809350541958"><ele>87.66666666666666</ele><time>2026-04-04T17:48:49.999Z</time></trkpt><trkpt lat="39.10988285900017" lon="8.68456925100706"><ele>87.33333333333333</ele><time>2026-04-04T17:48:50.999Z</time></trkpt><trkpt lat="39.110000798167135" lon="8.684327780580864"><ele>87.0</ele><time>2026-04-04T17:48:51.999Z</time></trkpt><trkpt lat="39.11011859316934" lon="8.68408805999053"><ele>87.66666666666667</ele><time>2026-04-04T17:48:53Z</time></trkpt><trkpt lat="39.110236452260274" lon="8.683846181702254"><ele>88.33333333333334</ele><time>2026-04-04T17:48:54Z</time></trkpt><trkpt lat="39.110352901730884" lon="8.683607627403328"><ele>89.0</ele><time>2026-04-04T17:48:55Z</time></trkpt><trkpt lat="39.110467073976885" lon="8.683365972038278"><ele>87.66666666666667</ele><time>2026-04-04T17:48:56Z</time></trkpt><trkpt lat="39.1105679916219" lon="8.683116679010297"><ele>86.33333333333333</ele><time>2026-04-04T17:48:57Z</time></trkpt><trkpt lat="39.110655074080334" lon="8.682857023168545"><ele>85.0</ele><time>2026-04-04T17:48:58Z</time></trkpt><trkpt lat="39.110722342918535" lon="8.682592302309518"><ele>85.0</ele><time>2026-04-04T17:48:59Z</time></trkpt><trkpt lat="39.11077344891207" lon="8.682320904440262"><ele>85.0</ele><time>2026-04-04T17:49:00Z</time></trkpt><trkpt lat="39.110822274776204" lon="8.682059942136764"><ele>85.0</ele><time>2026-04-04T17:49:01Z</time></trkpt><trkpt lat="39.11087225091045" lon="8.68180977887141"><ele>85.0</ele><time>2026-04-04T17:49:02Z</time></trkpt><trkpt lat="39.11092395622701" lon="8.68157313272459"><ele>85.0</ele><time>2026-04-04T17:49:03Z</time></trkpt><trkpt lat="39.11097439370621" lon="8.681340941297528"><ele>85.0</ele><time>2026-04-04T17:49:04Z</time></trkpt><trkpt lat="39.11102181447055" lon="8.681117597501668"><ele>85.0</ele><time>2026-04-04T17:49:05Z</time></trkpt><trkpt lat="39.11106841664992" lon="8.680899763574095"><ele>85.0</ele><time>2026-04-04T17:49:06Z</time></trkpt><trkpt lat="39.11111301029938" lon="8.680692511341123"><ele>85.0</ele><time>2026-04-04T17:49:07Z</time></trkpt><trkpt lat="39.111153107868226" lon="8.680495923135632"><ele>85.0</ele><time>2026-04-04T17:49:08Z</time></trkpt><trkpt lat="39.11119220408407" lon="8.680304576743039"><ele>85.0</ele><time>2026-04-04T17:49:09Z</time></trkpt><trkpt lat="39.11123206795879" lon="8.680114029783422"><ele>85.0</ele><time>2026-04-04T17:49:10Z</time></trkpt><trkpt lat="39.111267143940154" lon="8.679940454836743"><ele>85.0</ele><time>2026-04-04T17:49:11Z</time></trkpt><trkpt lat="39.11130065527303" lon="8.679783873442753"><ele>85.0</ele><time>2026-04-04T17:49:12Z</time></trkpt><trkpt lat="39.11133291671284" lon="8.679641007235535"><ele>85.0</ele><time>2026-04-04T17:49:13Z</time></trkpt><trkpt lat="39.111360114914845" lon="8.67951665797292"><ele>85.0</ele><time>2026-04-04T17:49:14Z</time></trkpt><trkpt lat="39.11138506674525" lon="8.679401178716253"><ele>85.0</ele><time>2026-04-04T17:49:15Z</time></trkpt><trkpt lat="39.11141405071253" lon="8.679270197578077"><ele>85.0</ele><time>2026-04-04T17:49:16Z</time></trkpt><trkpt lat="39.11144478871655" lon="8.679140294942652"><ele>85.0</ele><time>2026-04-04T17:49:17Z</time></trkpt><trkpt lat="39.11147322992976" lon="8.67900372472647"><ele>85.0</ele><time>2026-04-04T17:49:18Z</time></trkpt><trkpt lat="39.11150238350788" lon="8.678855490819753"><ele>85.0</ele><time>2026-04-04T17:49:19Z</time></trkpt><trkpt lat="39.1115342862827" lon="8.678700307910464"><ele>85.0</ele><time>2026-04-04T17:49:20Z</time></trkpt><trkpt lat="39.1115652336924" lon="8.678549468255694"><ele>85.75</ele><time>2026-04-04T17:49:21Z</time></trkpt><trkpt lat="39.11159520586775" lon="8.678404358022803"><ele>86.5</ele><time>2026-04-04T17:49:22Z</time></trkpt><trkpt lat="39.11162544992305" lon="8.678261945281639"><ele>87.25</ele><time>2026-04-04T17:49:23Z</time></trkpt><trkpt lat="39.11165795495263" lon="8.678116748303728"><ele>88.0</ele><time>2026-04-04T17:49:24Z</time></trkpt><trkpt lat="39.11169187433862" lon="8.677962240315683"><ele>88.0</ele><time>2026-04-04T17:49:25Z</time></trkpt><trkpt lat="39.11172934012464" lon="8.677799948250042"><ele>88.0</ele><time>2026-04-04T17:49:26Z</time></trkpt><trkpt lat="39.111765347305365" lon="8.677634566219272"><ele>88.0</ele><time>2026-04-04T17:49:27Z</time></trkpt><trkpt lat="39.11179993961288" lon="8.677463538868881"><ele>88.0</ele><time>2026-04-04T17:49:28Z</time></trkpt><trkpt lat="39.11183288871097" lon="8.67730224583697"><ele>86.75</ele><time>2026-04-04T17:49:29Z</time></trkpt><trkpt lat="39.11186561057352" lon="8.67714841413559"><ele>85.5</ele><time>2026-04-04T17:49:30Z</time></trkpt><trkpt lat="39.11189756974957" lon="8.676997072968442"><ele>84.25</ele><time>2026-04-04T17:49:31Z</time></trkpt><trkpt lat="39.11192935113648" lon="8.676845960029432"><ele>83.0</ele><time>2026-04-04T17:49:32Z</time></trkpt><trkpt lat="39.11196166391139" lon="8.676689296228174"><ele>81.75</ele><time>2026-04-04T17:49:33Z</time></trkpt><trkpt lat="39.11199335630887" lon="8.676528617427568"><ele>80.5</ele><time>2026-04-04T17:49:34Z</time></trkpt><trkpt lat="39.11202527059809" lon="8.67636742462345"><ele>79.25</ele><time>2026-04-04T17:49:35Z</time></trkpt><trkpt lat="39.11205677364292" lon="8.676209509695383"><ele>78.0</ele><time>2026-04-04T17:49:36Z</time></trkpt><trkpt lat="39.112090067242065" lon="8.676061530757792"><ele>77.25</ele><time>2026-04-04T17:49:37Z</time></trkpt><trkpt lat="39.112120252715755" lon="8.675918375920638"><ele>76.5</ele><time>2026-04-04T17:49:38Z</time></trkpt><trkpt lat="39.1121483515458" lon="8.675778460145947"><ele>75.75</ele><time>2026-04-04T17:49:39Z</time></trkpt><trkpt lat="39.1121793428284" lon="8.675636075511417"><ele>75.0</ele><time>2026-04-04T17:49:40Z</time></trkpt><trkpt lat="39.11221857271988" lon="8.675493393203407"><ele>75.0</ele><time>2026-04-04T17:49:41Z</time></trkpt><trkpt lat="39.11225550497854" lon="8.675339545915467"><ele>75.0</ele><time>2026-04-04T17:49:42Z</time></trkpt><trkpt lat="39.112287417972375" lon="8.675179887214254"><ele>75.0</ele><time>2026-04-04T17:49:43Z</time></trkpt><trkpt lat="39.11231748747401" lon="8.675020446662211"><ele>75.0</ele><time>2026-04-04T17:49:44Z</time></trkpt><trkpt lat="39.11234443756937" lon="8.674879861524037"><ele>74.4</ele><time>2026-04-04T17:49:45Z</time></trkpt><trkpt lat="39.11236984371753" lon="8.674750222718279"><ele>73.8</ele><time>2026-04-04T17:49:46Z</time></trkpt><trkpt lat="39.11239723732683" lon="8.674622430859126"><ele>73.2</ele><time>2026-04-04T17:49:47Z</time></trkpt><trkpt lat="39.11242489019387" lon="8.674496000327352"><ele>72.6</ele><time>2026-04-04T17:49:48Z</time></trkpt><trkpt lat="39.112451989591776" lon="8.674361862363433"><ele>72.0</ele><time>2026-04-04T17:49:49Z</time></trkpt><trkpt lat="39.11248037164329" lon="8.674229162417662"><ele>71.6</ele><time>2026-04-04T17:49:50Z</time></trkpt><trkpt lat="39.11250728847835" lon="8.674085383444945"><ele>71.2</ele><time>2026-04-04T17:49:51Z</time></trkpt><trkpt lat="39.112537046659135" lon="8.67394259477542"><ele>70.8</ele><time>2026-04-04T17:49:52Z</time></trkpt><trkpt lat="39.11256877736121" lon="8.673814014477971"><ele>70.4</ele><time>2026-04-04T17:49:53Z</time></trkpt><trkpt lat="39.112597393626004" lon="8.673693486022229"><ele>70.0</ele><time>2026-04-04T17:49:54Z</time></trkpt><trkpt lat="39.11262010652763" lon="8.673581894232967"><ele>69.8</ele><time>2026-04-04T17:49:55Z</time></trkpt><trkpt lat="39.11264385792833" lon="8.673470267157866"><ele>69.6</ele><time>2026-04-04T17:49:56Z</time></trkpt><trkpt lat="39.1126688422404" lon="8.673357526741976"><ele>69.4</ele><time>2026-04-04T17:49:57Z</time></trkpt><trkpt lat="39.11269174433438" lon="8.6732453261401"><ele>69.2</ele><time>2026-04-04T17:49:58Z</time></trkpt><trkpt lat="39.112716612171106" lon="8.67313390507519"><ele>69.0</ele><time>2026-04-04T17:49:59Z</time></trkpt><trkpt lat="39.1127407279254" lon="8.673022760854487"><ele>69.0</ele><time>2026-04-04T17:50:00Z</time></trkpt><trkpt lat="39.11275481026184" lon="8.672904463249322"><ele>69.0</ele><time>2026-04-04T17:50:01Z</time></trkpt><trkpt lat="39.11275897171598" lon="8.672780816992942"><ele>69.0</ele><time>2026-04-04T17:50:02Z</time></trkpt><trkpt lat="39.11275465876466" lon="8.672665643925933"><ele>69.0</ele><time>2026-04-04T17:50:03Z</time></trkpt><trkpt lat="39.11274085917608" lon="8.672538011198828"><ele>69.0</ele><time>2026-04-04T17:50:04Z</time></trkpt><trkpt lat="39.11272778884704" lon="8.672409925422148"><ele>69.0</ele><time>2026-04-04T17:50:05Z</time></trkpt><trkpt lat="39.112723804733726" lon="8.672281967465622"><ele>69.0</ele><time>2026-04-04T17:50:06Z</time></trkpt><trkpt lat="39.112720631323135" lon="8.672150438566531"><ele>69.0</ele><time>2026-04-04T17:50:07Z</time></trkpt><trkpt lat="39.112720153652475" lon="8.672012065040263"><ele>69.0</ele><time>2026-04-04T17:50:08Z</time></trkpt><trkpt lat="39.11272452723954" lon="8.671873303808631"><ele>69.0</ele><time>2026-04-04T17:50:09Z</time></trkpt><trkpt lat="39.112731755391835" lon="8.671721350484757"><ele>69.0</ele><time>2026-04-04T17:50:10Z</time></trkpt><trkpt lat="39.11273854788197" lon="8.671566983081876"><ele>69.0</ele><time>2026-04-04T17:50:11Z</time></trkpt><trkpt lat="39.11274446963611" lon="8.671407619549258"><ele>69.0</ele><time>2026-04-04T17:50:12Z</time></trkpt><trkpt lat="39.11275086082678" lon="8.671249371562638"><ele>69.0</ele><time>2026-04-04T17:50:13Z</time></trkpt><trkpt lat="39.11275828159828" lon="8.671102597448014"><ele>68.8</ele><time>2026-04-04T17:50:14Z</time></trkpt><trkpt lat="39.112764912332594" lon="8.670971015037946"><ele>68.60000000000001</ele><time>2026-04-04T17:50:15Z</time></trkpt><trkpt lat="39.11277131824037" lon="8.670848525869205"><ele>68.4</ele><time>2026-04-04T17:50:16Z</time></trkpt><trkpt lat="39.112782168029824" lon="8.670717684705544"><ele>68.2</ele><time>2026-04-04T17:50:17Z</time></trkpt><trkpt lat="39.11280036220862" lon="8.670585397872658"><ele>68.0</ele><time>2026-04-04T17:50:18Z</time></trkpt><trkpt lat="39.112832134632235" lon="8.670447752355273"><ele>68.0</ele><time>2026-04-04T17:50:19Z</time></trkpt><trkpt lat="39.112871718864035" lon="8.670308237990998"><ele>68.0</ele><time>2026-04-04T17:50:20Z</time></trkpt><trkpt lat="39.11291307968887" lon="8.6701648269432"><ele>68.0</ele><time>2026-04-04T17:50:21Z</time></trkpt><trkpt lat="39.112953660483704" lon="8.670018442552664"><ele>68.0</ele><time>2026-04-04T17:50:22Z</time></trkpt><trkpt lat="39.112993970619854" lon="8.669890878585534"><ele>68.0</ele><time>2026-04-04T17:50:23Z</time></trkpt><trkpt lat="39.11303203012103" lon="8.6697705474732"><ele>68.0</ele><time>2026-04-04T17:50:24Z</time></trkpt><trkpt lat="39.113067328598206" lon="8.669652967541564"><ele>68.0</ele><time>2026-04-04T17:50:25Z</time></trkpt><trkpt lat="39.11309468805521" lon="8.66954133145095"><ele>68.0</ele><time>2026-04-04T17:50:26Z</time></trkpt><trkpt lat="39.113121958047394" lon="8.669447743378912"><ele>68.0</ele><time>2026-04-04T17:50:27Z</time></trkpt><trkpt lat="39.11315332273741" lon="8.66935252888299"><ele>68.0</ele><time>2026-04-04T17:50:28Z</time></trkpt><trkpt lat="39.11318658305671" lon="8.669250053924808"><ele>68.0</ele><time>2026-04-04T17:50:29Z</time></trkpt><trkpt lat="39.113213518048724" lon="8.66916679538084"><ele>68.0</ele><time>2026-04-04T17:50:30Z</time></trkpt><trkpt lat="39.1132427815558" lon="8.66907560622029"><ele>68.0</ele><time>2026-04-04T17:50:31Z</time></trkpt><trkpt lat="39.11327277331753" lon="8.668982782833742"><ele>68.0</ele><time>2026-04-04T17:50:32Z</time></trkpt><trkpt lat="39.11330578092026" lon="8.668872944175403"><ele>68.0</ele><time>2026-04-04T17:50:33Z</time></trkpt><trkpt lat="39.11334481678477" lon="8.668745626509464"><ele>68.0</ele><time>2026-04-04T17:50:34Z</time></trkpt><trkpt lat="39.11338666877145" lon="8.668608196033038"><ele>67.75</ele><time>2026-04-04T17:50:35Z</time></trkpt><trkpt lat="39.11343679949148" lon="8.668451201698213"><ele>67.5</ele><time>2026-04-04T17:50:36Z</time></trkpt><trkpt lat="39.11348814449376" lon="8.668309190790497"><ele>67.25</ele><time>2026-04-04T17:50:37Z</time></trkpt><trkpt lat="39.1135344204658" lon="8.668190226245693"><ele>67.0</ele><time>2026-04-04T17:50:38Z</time></trkpt><trkpt lat="39.11358622746843" lon="8.668062935180208"><ele>67.0</ele><time>2026-04-04T17:50:39Z</time></trkpt><trkpt lat="39.113635665670884" lon="8.667935698358193"><ele>67.0</ele><time>2026-04-04T17:50:40Z</time></trkpt><trkpt lat="39.11368533455618" lon="8.667803908015953"><ele>67.0</ele><time>2026-04-04T17:50:41Z</time></trkpt><trkpt lat="39.113736651985846" lon="8.667668158952266"><ele>67.0</ele><time>2026-04-04T17:50:42Z</time></trkpt><trkpt lat="39.113791621262855" lon="8.667526247307961"><ele>66.5</ele><time>2026-04-04T17:50:42.999Z</time></trkpt><trkpt lat="39.11384929188195" lon="8.667376698405441"><ele>66.0</ele><time>2026-04-04T17:50:43.999Z</time></trkpt><trkpt lat="39.11391365430924" lon="8.667221706100694"><ele>65.5</ele><time>2026-04-04T17:50:44.999Z</time></trkpt><trkpt lat="39.113980306749994" lon="8.667061316844602"><ele>65.0</ele><time>2026-04-04T17:50:45.999Z</time></trkpt><trkpt lat="39.114041718777344" lon="8.666911040794652"><ele>65.0</ele><time>2026-04-04T17:50:46.999Z</time></trkpt><trkpt lat="39.11409914030445" lon="8.666774815200487"><ele>65.0</ele><time>2026-04-04T17:50:47.999Z</time></trkpt><trkpt lat="39.11415949604864" lon="8.666646518387081"><ele>65.0</ele><time>2026-04-04T17:50:48.999Z</time></trkpt><trkpt lat="39.11423681570074" lon="8.666529498612963"><ele>65.0</ele><time>2026-04-04T17:50:49.999Z</time></trkpt><trkpt lat="39.11433737714545" lon="8.66642769400448"><ele>65.0</ele><time>2026-04-04T17:50:50.999Z</time></trkpt><trkpt lat="39.114458418360066" lon="8.666354026407127"><ele>65.0</ele><time>2026-04-04T17:50:51.999Z</time></trkpt><trkpt lat="39.114596127642734" lon="8.666315928927679"><ele>65.0</ele><time>2026-04-04T17:50:52.999Z</time></trkpt><trkpt lat="39.1147460506444" lon="8.666314586132483"><ele>65.0</ele><time>2026-04-04T17:50:53.999Z</time></trkpt><trkpt lat="39.11493544746571" lon="8.666337396724403"><ele>66.33333333333334</ele><time>2026-04-04T17:50:54.999Z</time></trkpt><trkpt lat="39.115131600088745" lon="8.66632020453399"><ele>67.66666666666667</ele><time>2026-04-04T17:50:55.999Z</time></trkpt><trkpt lat="39.11535076558183" lon="8.666315506853062"><ele>69.0</ele><time>2026-04-04T17:50:56.999Z</time></trkpt><trkpt lat="39.11554838544165" lon="8.66632143547368"><ele>69.0</ele><time>2026-04-04T17:50:57.999Z</time></trkpt><trkpt lat="39.115725893186855" lon="8.666327748087376"><ele>69.0</ele><time>2026-04-04T17:50:59Z</time></trkpt><trkpt lat="39.115871879943924" lon="8.666345859960696"><ele>69.0</ele><time>2026-04-04T17:51:00Z</time></trkpt><trkpt lat="39.116002598058415" lon="8.666376343707764"><ele>69.4</ele><time>2026-04-04T17:51:01Z</time></trkpt><trkpt lat="39.11610750089168" lon="8.66641603754776"><ele>69.80000000000001</ele><time>2026-04-04T17:51:02Z</time></trkpt><trkpt lat="39.1162055935942" lon="8.666450080247238"><ele>70.19999999999999</ele><time>2026-04-04T17:51:03Z</time></trkpt><trkpt lat="39.11630004147656" lon="8.666477756739761"><ele>70.6</ele><time>2026-04-04T17:51:04Z</time></trkpt><trkpt lat="39.11640859799785" lon="8.666539532760966"><ele>71.0</ele><time>2026-04-04T17:51:05Z</time></trkpt><trkpt lat="39.11654094315223" lon="8.666594389730317"><ele>71.66666666666667</ele><time>2026-04-04T17:51:06Z</time></trkpt><trkpt lat="39.1166960660127" lon="8.666645918528644"><ele>72.33333333333333</ele><time>2026-04-04T17:51:07Z</time></trkpt><trkpt lat="39.11686897128204" lon="8.666720840334015"><ele>73.0</ele><time>2026-04-04T17:51:08Z</time></trkpt><trkpt lat="39.11706265212922" lon="8.666801825078924"><ele>73.0</ele><time>2026-04-04T17:51:09Z</time></trkpt><trkpt lat="39.11727067687989" lon="8.666890545790315"><ele>73.0</ele><time>2026-04-04T17:51:10Z</time></trkpt><trkpt lat="39.117474792598436" lon="8.666977284683258"><ele>73.0</ele><time>2026-04-04T17:51:11Z</time></trkpt><trkpt lat="39.11767322150687" lon="8.667060799299787"><ele>73.0</ele><time>2026-04-04T17:51:12Z</time></trkpt><trkpt lat="39.11787794382126" lon="8.667141263207915"><ele>73.0</ele><time>2026-04-04T17:51:13Z</time></trkpt><trkpt lat="39.11807539785092" lon="8.667225964030175"><ele>73.0</ele><time>2026-04-04T17:51:14Z</time></trkpt><trkpt lat="39.1182725434183" lon="8.667310899780217"><ele>73.0</ele><time>2026-04-04T17:51:15Z</time></trkpt><trkpt lat="39.11846964580624" lon="8.667392768215631"><ele>73.0</ele><time>2026-04-04T17:51:16Z</time></trkpt><trkpt lat="39.118666141699016" lon="8.667492870836941"><ele>73.0</ele><time>2026-04-04T17:51:17Z</time></trkpt><trkpt lat="39.11885612343052" lon="8.667624564033433"><ele>72.0</ele><time>2026-04-04T17:51:18Z</time></trkpt><trkpt lat="39.11904654655649" lon="8.667798783472909"><ele>71.0</ele><time>2026-04-04T17:51:19Z</time></trkpt><trkpt lat="39.11923008122038" lon="8.66800490215569"><ele>71.0</ele><time>2026-04-04T17:51:20Z</time></trkpt><trkpt lat="39.11941385629174" lon="8.668245357582363"><ele>71.0</ele><time>2026-04-04T17:51:21Z</time></trkpt><trkpt lat="39.119601782051134" lon="8.668485341329944"><ele>71.5</ele><time>2026-04-04T17:51:22Z</time></trkpt><trkpt lat="39.119794962721066" lon="8.668730012817038"><ele>72.0</ele><time>2026-04-04T17:51:23Z</time></trkpt><trkpt lat="39.11998787294934" lon="8.668966823976382"><ele>73.5</ele><time>2026-04-04T17:51:24Z</time></trkpt><trkpt lat="39.12018398875662" lon="8.669204252916012"><ele>75.0</ele><time>2026-04-04T17:51:25Z</time></trkpt><trkpt lat="39.12038438146209" lon="8.669453742507782"><ele>75.0</ele><time>2026-04-04T17:51:26Z</time></trkpt><trkpt lat="39.1205811768409" lon="8.669700498198313"><ele>75.0</ele><time>2026-04-04T17:51:27Z</time></trkpt><trkpt lat="39.12078321021307" lon="8.669948981746183"><ele>76.0</ele><time>2026-04-04T17:51:28Z</time></trkpt><trkpt lat="39.120986235156884" lon="8.670197812806295"><ele>77.0</ele><time>2026-04-04T17:51:29Z</time></trkpt><trkpt lat="39.121186983474146" lon="8.670445743763462"><ele>77.5</ele><time>2026-04-04T17:51:30Z</time></trkpt><trkpt lat="39.12137244517505" lon="8.670675099915904"><ele>78.0</ele><time>2026-04-04T17:51:31Z</time></trkpt><trkpt lat="39.12154919045595" lon="8.670876284977995"><ele>78.0</ele><time>2026-04-04T17:51:32Z</time></trkpt><trkpt lat="39.12173499579202" lon="8.671055584933924"><ele>78.0</ele><time>2026-04-04T17:51:33Z</time></trkpt><trkpt lat="39.121930726984594" lon="8.671214358209697"><ele>78.0</ele><time>2026-04-04T17:51:34Z</time></trkpt><trkpt lat="39.12213867026824" lon="8.671361350390626"><ele>78.0</ele><time>2026-04-04T17:51:35Z</time></trkpt><trkpt lat="39.12235453886494" lon="8.67148597277283"><ele>78.5</ele><time>2026-04-04T17:51:36Z</time></trkpt><trkpt lat="39.12259630638378" lon="8.671585475160672"><ele>79.0</ele><time>2026-04-04T17:51:37Z</time></trkpt><trkpt lat="39.1228463120441" lon="8.671671249769476"><ele>79.0</ele><time>2026-04-04T17:51:38Z</time></trkpt><trkpt lat="39.123107065797676" lon="8.671744649999583"><ele>79.0</ele><time>2026-04-04T17:51:39Z</time></trkpt><trkpt lat="39.12337311389186" lon="8.671823698510067"><ele>79.5</ele><time>2026-04-04T17:51:40Z</time></trkpt><trkpt lat="39.12364000195779" lon="8.671907218163106"><ele>80.0</ele><time>2026-04-04T17:51:41Z</time></trkpt><trkpt lat="39.12390415092957" lon="8.671989116299017"><ele>82.0</ele><time>2026-04-04T17:51:42Z</time></trkpt><trkpt lat="39.124151064584865" lon="8.67206968423554"><ele>84.0</ele><time>2026-04-04T17:51:43Z</time></trkpt><trkpt lat="39.124371696713155" lon="8.672140760662638"><ele>84.0</ele><time>2026-04-04T17:51:44Z</time></trkpt><trkpt lat="39.12459308027509" lon="8.672208731639143"><ele>84.0</ele><time>2026-04-04T17:51:45Z</time></trkpt><trkpt lat="39.12480998770255" lon="8.672274788716274"><ele>84.0</ele><time>2026-04-04T17:51:46Z</time></trkpt><trkpt lat="39.1250087247604" lon="8.672336601721984"><ele>84.0</ele><time>2026-04-04T17:51:47Z</time></trkpt><trkpt lat="39.125190923361664" lon="8.672398683517214"><ele>84.0</ele><time>2026-04-04T17:51:48Z</time></trkpt><trkpt lat="39.12535882215834" lon="8.67246982427221"><ele>84.0</ele><time>2026-04-04T17:51:49Z</time></trkpt><trkpt lat="39.12550496167888" lon="8.672590765267303"><ele>84.0</ele><time>2026-04-04T17:51:50Z</time></trkpt><trkpt lat="39.12564077044789" lon="8.672714452119314"><ele>84.0</ele><time>2026-04-04T17:51:51Z</time></trkpt><trkpt lat="39.125758782816206" lon="8.672848915971171"><ele>83.33333333333333</ele><time>2026-04-04T17:51:52Z</time></trkpt><trkpt lat="39.125865370866855" lon="8.673010373934785"><ele>82.66666666666666</ele><time>2026-04-04T17:51:53Z</time></trkpt><trkpt lat="39.12596259210828" lon="8.673200197996959"><ele>82.0</ele><time>2026-04-04T17:51:54Z</time></trkpt><trkpt lat="39.126042312462225" lon="8.673420569478797"><ele>82.0</ele><time>2026-04-04T17:51:55Z</time></trkpt><trkpt lat="39.126098872652875" lon="8.67366914068037"><ele>82.0</ele><time>2026-04-04T17:51:56Z</time></trkpt><trkpt lat="39.1261400362263" lon="8.673937417335736"><ele>82.0</ele><time>2026-04-04T17:51:57Z</time></trkpt><trkpt lat="39.12617283456426" lon="8.674227683512804"><ele>81.5</ele><time>2026-04-04T17:51:58Z</time></trkpt><trkpt lat="39.126218314298455" lon="8.674539638052888"><ele>81.0</ele><time>2026-04-04T17:51:59Z</time></trkpt><trkpt lat="39.12625140201944" lon="8.674869824941695"><ele>81.0</ele><time>2026-04-04T17:52:00Z</time></trkpt><trkpt lat="39.126286816593975" lon="8.675193625887157"><ele>81.0</ele><time>2026-04-04T17:52:01Z</time></trkpt><trkpt lat="39.1263213246752" lon="8.675509859117888"><ele>79.5</ele><time>2026-04-04T17:52:02Z</time></trkpt><trkpt lat="39.12635444168667" lon="8.675822529743057"><ele>78.0</ele><time>2026-04-04T17:52:03Z</time></trkpt><trkpt lat="39.1263880862372" lon="8.676125621734723"><ele>78.0</ele><time>2026-04-04T17:52:04Z</time></trkpt><trkpt lat="39.12642629802561" lon="8.676405598402548"><ele>78.0</ele><time>2026-04-04T17:52:05Z</time></trkpt><trkpt lat="39.1264725633617" lon="8.676675192271416"><ele>78.0</ele><time>2026-04-04T17:52:06Z</time></trkpt><trkpt lat="39.126532605926144" lon="8.676931293869547"><ele>79.33333333333333</ele><time>2026-04-04T17:52:07Z</time></trkpt><trkpt lat="39.12660215100703" lon="8.677165216083898"><ele>80.66666666666666</ele><time>2026-04-04T17:52:08Z</time></trkpt><trkpt lat="39.12669351784214" lon="8.67738360589856"><ele>82.0</ele><time>2026-04-04T17:52:09Z</time></trkpt><trkpt lat="39.126815981847905" lon="8.677588627492025"><ele>81.33333333333333</ele><time>2026-04-04T17:52:10Z</time></trkpt><trkpt lat="39.12696335481778" lon="8.677793744544138"><ele>80.66666666666667</ele><time>2026-04-04T17:52:11Z</time></trkpt><trkpt lat="39.12712417675828" lon="8.677994024905708"><ele>80.0</ele><time>2026-04-04T17:52:12Z</time></trkpt><trkpt lat="39.12729653172619" lon="8.678198268984936"><ele>83.0</ele><time>2026-04-04T17:52:13Z</time></trkpt><trkpt lat="39.12747614567735" lon="8.678392902275746"><ele>86.0</ele><time>2026-04-04T17:52:14Z</time></trkpt><trkpt lat="39.12766844109541" lon="8.678569297423186"><ele>83.5</ele><time>2026-04-04T17:52:15Z</time></trkpt><trkpt lat="39.12786778020748" lon="8.678718589690742"><ele>81.0</ele><time>2026-04-04T17:52:16Z</time></trkpt><trkpt lat="39.128081812476765" lon="8.678828725686234"><ele>82.5</ele><time>2026-04-04T17:52:17Z</time></trkpt><trkpt lat="39.12830481105082" lon="8.67892162116295"><ele>84.0</ele><time>2026-04-04T17:52:18Z</time></trkpt><trkpt lat="39.12854858310486" lon="8.678998660177344"><ele>84.0</ele><time>2026-04-04T17:52:19Z</time></trkpt><trkpt lat="39.12880421273697" lon="8.679052801532112"><ele>84.0</ele><time>2026-04-04T17:52:20Z</time></trkpt><trkpt lat="39.12907182418999" lon="8.679099622286257"><ele>87.0</ele><time>2026-04-04T17:52:21Z</time></trkpt><trkpt lat="39.12934611355435" lon="8.679150751517543"><ele>90.0</ele><time>2026-04-04T17:52:22Z</time></trkpt><trkpt lat="39.12962652107077" lon="8.679205961599399"><ele>91.5</ele><time>2026-04-04T17:52:23Z</time></trkpt><trkpt lat="39.12990916382294" lon="8.679263696960213"><ele>93.0</ele><time>2026-04-04T17:52:24Z</time></trkpt><trkpt lat="39.130192606322616" lon="8.679322545078943"><ele>93.0</ele><time>2026-04-04T17:52:25Z</time></trkpt><trkpt lat="39.13048475688949" lon="8.679380918509727"><ele>93.0</ele><time>2026-04-04T17:52:26Z</time></trkpt><trkpt lat="39.13077215554876" lon="8.679441412280466"><ele>88.0</ele><time>2026-04-04T17:52:27Z</time></trkpt><trkpt lat="39.13106008804415" lon="8.679508112852563"><ele>83.0</ele><time>2026-04-04T17:52:28Z</time></trkpt><trkpt lat="39.13135036334197" lon="8.679591024584456"><ele>84.0</ele><time>2026-04-04T17:52:29Z</time></trkpt><trkpt lat="39.131636164476326" lon="8.67968769910318"><ele>85.0</ele><time>2026-04-04T17:52:30Z</time></trkpt><trkpt lat="39.13191298999492" lon="8.679793321916415"><ele>85.0</ele><time>2026-04-04T17:52:31Z</time></trkpt><trkpt lat="39.13216721649241" lon="8.67988575795591"><ele>85.0</ele><time>2026-04-04T17:52:31.999Z</time></trkpt><trkpt lat="39.13240460527265" lon="8.679970894815009"><ele>86.66666666666666</ele><time>2026-04-04T17:52:32.999Z</time></trkpt><trkpt lat="39.13262169520746" lon="8.680053697875442"><ele>88.33333333333333</ele><time>2026-04-04T17:52:33.999Z</time></trkpt><trkpt lat="39.13282988617524" lon="8.680145574496647"><ele>90.0</ele><time>2026-04-04T17:52:34.999Z</time></trkpt><trkpt lat="39.133035793570315" lon="8.68024959798971"><ele>87.66666666666667</ele><time>2026-04-04T17:52:35.999Z</time></trkpt><trkpt lat="39.133236581121885" lon="8.680356780128788"><ele>85.33333333333334</ele><time>2026-04-04T17:52:36.999Z</time></trkpt><trkpt lat="39.133421284938066" lon="8.680456300234045"><ele>83.0</ele><time>2026-04-04T17:52:37.999Z</time></trkpt><trkpt lat="39.1335958044081" lon="8.680551129999843"><ele>83.0</ele><time>2026-04-04T17:52:38.999Z</time></trkpt><trkpt lat="39.13375724658526" lon="8.680644090021646"><ele>83.0</ele><time>2026-04-04T17:52:39.999Z</time></trkpt><trkpt lat="39.133914717457536" lon="8.680745626651802"><ele>83.0</ele><time>2026-04-04T17:52:40.999Z</time></trkpt><trkpt lat="39.13408063171416" lon="8.680869942679566"><ele>83.33333333333334</ele><time>2026-04-04T17:52:41.999Z</time></trkpt><trkpt lat="39.13424802203826" lon="8.681014897451309"><ele>83.66666666666667</ele><time>2026-04-04T17:52:42.999Z</time></trkpt><trkpt lat="39.134423180703386" lon="8.681164398465567"><ele>84.0</ele><time>2026-04-04T17:52:43.999Z</time></trkpt><trkpt lat="39.1346157418558" lon="8.681312069048744"><ele>84.0</ele><time>2026-04-04T17:52:44.999Z</time></trkpt><trkpt lat="39.13482394051223" lon="8.68149102846336"><ele>84.0</ele><time>2026-04-04T17:52:45.999Z</time></trkpt><trkpt lat="39.13503149858457" lon="8.681698267745146"><ele>84.0</ele><time>2026-04-04T17:52:46.999Z</time></trkpt><trkpt lat="39.13525577768458" lon="8.681902851666775"><ele>84.0</ele><time>2026-04-04T17:52:47.999Z</time></trkpt><trkpt lat="39.13549187493208" lon="8.682107912376347"><ele>85.5</ele><time>2026-04-04T17:52:48.999Z</time></trkpt><trkpt lat="39.13573831017498" lon="8.682321177945214"><ele>87.0</ele><time>2026-04-04T17:52:49.999Z</time></trkpt><trkpt lat="39.13598016088489" lon="8.682536164155904"><ele>87.0</ele><time>2026-04-04T17:52:50.999Z</time></trkpt><trkpt lat="39.136215489616276" lon="8.682745196278116"><ele>87.0</ele><time>2026-04-04T17:52:51.999Z</time></trkpt><trkpt lat="39.13644903259718" lon="8.682952507608936"><ele>86.5</ele><time>2026-04-04T17:52:52.999Z</time></trkpt><trkpt lat="39.136684943114886" lon="8.683161892629034"><ele>86.0</ele><time>2026-04-04T17:52:53.999Z</time></trkpt><trkpt lat="39.13691905844318" lon="8.683368484952876"><ele>86.0</ele><time>2026-04-04T17:52:54.999Z</time></trkpt><trkpt lat="39.1371538184929" lon="8.683571502011105"><ele>86.0</ele><time>2026-04-04T17:52:55.999Z</time></trkpt><trkpt lat="39.1373879450911" lon="8.683761631960431"><ele>86.5</ele><time>2026-04-04T17:52:56.999Z</time></trkpt><trkpt lat="39.13763151425447" lon="8.683940229955303"><ele>87.0</ele><time>2026-04-04T17:52:57.999Z</time></trkpt><trkpt lat="39.13787995222352" lon="8.684100777299339"><ele>87.0</ele><time>2026-04-04T17:52:58.999Z</time></trkpt><trkpt lat="39.138130619916865" lon="8.684255732960175"><ele>87.0</ele><time>2026-04-04T17:52:59.999Z</time></trkpt><trkpt lat="39.13837848739796" lon="8.684414251075228"><ele>87.0</ele><time>2026-04-04T17:53:00.999Z</time></trkpt><trkpt lat="39.138621186285874" lon="8.684576563606685"><ele>87.0</ele><time>2026-04-04T17:53:01.999Z</time></trkpt><trkpt lat="39.13885349395761" lon="8.684737148398819"><ele>92.0</ele><time>2026-04-04T17:53:02.999Z</time></trkpt><trkpt lat="39.13905817906583" lon="8.684893079694527"><ele>97.0</ele><time>2026-04-04T17:53:04Z</time></trkpt><trkpt lat="39.13925398544698" lon="8.685066789589502"><ele>93.5</ele><time>2026-04-04T17:53:05Z</time></trkpt><trkpt lat="39.13944297924467" lon="8.68527014131413"><ele>90.0</ele><time>2026-04-04T17:53:06Z</time></trkpt><trkpt lat="39.139620763553886" lon="8.685509169687261"><ele>90.0</ele><time>2026-04-04T17:53:07Z</time></trkpt><trkpt lat="39.139801930964175" lon="8.685771952456848"><ele>90.0</ele><time>2026-04-04T17:53:08Z</time></trkpt><trkpt lat="39.13997775507437" lon="8.686019172482583"><ele>90.0</ele><time>2026-04-04T17:53:09Z</time></trkpt><trkpt lat="39.14015288919477" lon="8.686255870478979"><ele>90.0</ele><time>2026-04-04T17:53:10Z</time></trkpt><trkpt lat="39.140328282127925" lon="8.686492425242129"><ele>90.0</ele><time>2026-04-04T17:53:11Z</time></trkpt><trkpt lat="39.14050237286921" lon="8.686722673874604"><ele>90.0</ele><time>2026-04-04T17:53:12Z</time></trkpt><trkpt lat="39.14067752981911" lon="8.686946634529173"><ele>90.0</ele><time>2026-04-04T17:53:13Z</time></trkpt><trkpt lat="39.14085772633399" lon="8.687159039524413"><ele>90.0</ele><time>2026-04-04T17:53:14Z</time></trkpt><trkpt lat="39.14104920615374" lon="8.687360080483078"><ele>90.0</ele><time>2026-04-04T17:53:15Z</time></trkpt><trkpt lat="39.141252247297814" lon="8.687542463653218"><ele>90.0</ele><time>2026-04-04T17:53:16Z</time></trkpt><trkpt lat="39.14147107881693" lon="8.687703805667848"><ele>91.5</ele><time>2026-04-04T17:53:17Z</time></trkpt><trkpt lat="39.14170409535064" lon="8.687851375686787"><ele>93.0</ele><time>2026-04-04T17:53:18Z</time></trkpt><trkpt lat="39.14194164703842" lon="8.687987831270759"><ele>93.0</ele><time>2026-04-04T17:53:19Z</time></trkpt><trkpt lat="39.142184395059935" lon="8.688120734750866"><ele>93.0</ele><time>2026-04-04T17:53:20Z</time></trkpt><trkpt lat="39.142426022734206" lon="8.688258859445305"><ele>94.5</ele><time>2026-04-04T17:53:21Z</time></trkpt><trkpt lat="39.14265671986047" lon="8.688389944507184"><ele>96.0</ele><time>2026-04-04T17:53:22Z</time></trkpt><trkpt lat="39.14287495676199" lon="8.688508737427965"><ele>94.5</ele><time>2026-04-04T17:53:23Z</time></trkpt><trkpt lat="39.14309351224351" lon="8.688605259860399"><ele>93.0</ele><time>2026-04-04T17:53:24Z</time></trkpt><trkpt lat="39.14331707841012" lon="8.688681383427504"><ele>93.0</ele><time>2026-04-04T17:53:25Z</time></trkpt><trkpt lat="39.14354757680176" lon="8.688735181742613"><ele>93.0</ele><time>2026-04-04T17:53:26Z</time></trkpt><trkpt lat="39.143778292586624" lon="8.688758972931577"><ele>93.0</ele><time>2026-04-04T17:53:27Z</time></trkpt><trkpt lat="39.144004469921896" lon="8.688756954039238"><ele>93.0</ele><time>2026-04-04T17:53:28Z</time></trkpt><trkpt lat="39.14422818013191" lon="8.6887238820253"><ele>93.5</ele><time>2026-04-04T17:53:29Z</time></trkpt><trkpt lat="39.14445782580069" lon="8.68866329217523"><ele>94.0</ele><time>2026-04-04T17:53:30Z</time></trkpt><trkpt lat="39.14467517918867" lon="8.688589583955013"><ele>96.66666666666666</ele><time>2026-04-04T17:53:31Z</time></trkpt><trkpt lat="39.14486707808168" lon="8.688511728229226"><ele>99.33333333333333</ele><time>2026-04-04T17:53:32Z</time></trkpt><trkpt lat="39.14504787131502" lon="8.688434560616793"><ele>102.0</ele><time>2026-04-04T17:53:33Z</time></trkpt><trkpt lat="39.14522246891547" lon="8.688326932702058"><ele>102.0</ele><time>2026-04-04T17:53:34Z</time></trkpt><trkpt lat="39.14538817524617" lon="8.688168077240242"><ele>102.0</ele><time>2026-04-04T17:53:35Z</time></trkpt><trkpt lat="39.1455440347117" lon="8.687966889522185"><ele>102.0</ele><time>2026-04-04T17:53:36Z</time></trkpt><trkpt lat="39.14569462447121" lon="8.687740149334235"><ele>103.0</ele><time>2026-04-04T17:53:37Z</time></trkpt><trkpt lat="39.14585351148838" lon="8.687499963111314"><ele>104.0</ele><time>2026-04-04T17:53:38Z</time></trkpt><trkpt lat="39.146026446935615" lon="8.687268797952761"><ele>104.0</ele><time>2026-04-04T17:53:39Z</time></trkpt><trkpt lat="39.14621493715511" lon="8.687035954091353"><ele>104.0</ele><time>2026-04-04T17:53:40Z</time></trkpt><trkpt lat="39.146411822901335" lon="8.686807711330712"><ele>102.0</ele><time>2026-04-04T17:53:41Z</time></trkpt><trkpt lat="39.146607129919786" lon="8.686589756978785"><ele>100.0</ele><time>2026-04-04T17:53:42Z</time></trkpt><trkpt lat="39.1468038439289" lon="8.686377851614555"><ele>100.0</ele><time>2026-04-04T17:53:43Z</time></trkpt><trkpt lat="39.14700481608866" lon="8.686167209795677"><ele>100.0</ele><time>2026-04-04T17:53:44Z</time></trkpt><trkpt lat="39.14720536269952" lon="8.68596473858847"><ele>99.5</ele><time>2026-04-04T17:53:45Z</time></trkpt><trkpt lat="39.14741537268743" lon="8.685771714629876"><ele>99.0</ele><time>2026-04-04T17:53:46Z</time></trkpt><trkpt lat="39.14763748769541" lon="8.685605427343678"><ele>99.0</ele><time>2026-04-04T17:53:47Z</time></trkpt><trkpt lat="39.14786325586329" lon="8.68544265614108"><ele>99.0</ele><time>2026-04-04T17:53:48Z</time></trkpt><trkpt lat="39.148080371498345" lon="8.685284919449646"><ele>100.0</ele><time>2026-04-04T17:53:49Z</time></trkpt><trkpt lat="39.14828093484365" lon="8.68513376622317"><ele>101.0</ele><time>2026-04-04T17:53:50Z</time></trkpt><trkpt lat="39.14846339168388" lon="8.684998498987358"><ele>102.0</ele><time>2026-04-04T17:53:51Z</time></trkpt><trkpt lat="39.1486356417078" lon="8.684885835138763"><ele>102.0</ele><time>2026-04-04T17:53:52Z</time></trkpt><trkpt lat="39.14881463280139" lon="8.68478853984073"><ele>102.0</ele><time>2026-04-04T17:53:53Z</time></trkpt><trkpt lat="39.14899928637874" lon="8.6847038936359"><ele>102.0</ele><time>2026-04-04T17:53:54Z</time></trkpt><trkpt lat="39.149188351100314" lon="8.684631503771191"><ele>101.0</ele><time>2026-04-04T17:53:55Z</time></trkpt><trkpt lat="39.14938201139483" lon="8.684569959770188"><ele>100.0</ele><time>2026-04-04T17:53:56Z</time></trkpt><trkpt lat="39.14958458287633" lon="8.68450906608148"><ele>99.0</ele><time>2026-04-04T17:53:57Z</time></trkpt><trkpt lat="39.14978895272201" lon="8.684450274750281"><ele>101.66666666666666</ele><time>2026-04-04T17:53:58Z</time></trkpt><trkpt lat="39.149993763783684" lon="8.684387901579978"><ele>104.33333333333333</ele><time>2026-04-04T17:53:59Z</time></trkpt><trkpt lat="39.15020377167059" lon="8.684321679954847"><ele>107.0</ele><time>2026-04-04T17:54:00Z</time></trkpt><trkpt lat="39.15041760881777" lon="8.684254577829174"><ele>107.0</ele><time>2026-04-04T17:54:01Z</time></trkpt><trkpt lat="39.150634469231605" lon="8.684185380058604"><ele>107.0</ele><time>2026-04-04T17:54:02Z</time></trkpt><trkpt lat="39.15085447232513" lon="8.68411895382677"><ele>107.0</ele><time>2026-04-04T17:54:03Z</time></trkpt><trkpt lat="39.15107303841064" lon="8.684053937574253"><ele>105.66666666666666</ele><time>2026-04-04T17:54:04Z</time></trkpt><trkpt lat="39.151288728963884" lon="8.683990512159024"><ele>104.33333333333334</ele><time>2026-04-04T17:54:05Z</time></trkpt><trkpt lat="39.15150622648757" lon="8.68392399626618"><ele>103.0</ele><time>2026-04-04T17:54:06Z</time></trkpt><trkpt lat="39.15172364899606" lon="8.683855248397556"><ele>102.66666666666667</ele><time>2026-04-04T17:54:07Z</time></trkpt><trkpt lat="39.15194022345838" lon="8.683787079732312"><ele>102.33333333333334</ele><time>2026-04-04T17:54:08Z</time></trkpt><trkpt lat="39.15215107420134" lon="8.683723270036086"><ele>102.0</ele><time>2026-04-04T17:54:09Z</time></trkpt><trkpt lat="39.15236465190498" lon="8.683658011988655"><ele>103.66666666666666</ele><time>2026-04-04T17:54:10Z</time></trkpt><trkpt lat="39.15258017710594" lon="8.683594004642151"><ele>105.33333333333333</ele><time>2026-04-04T17:54:11Z</time></trkpt><trkpt lat="39.15279490952093" lon="8.683532784220505"><ele>107.0</ele><time>2026-04-04T17:54:12Z</time></trkpt><trkpt lat="39.15300338512609" lon="8.68346615431364"><ele>106.33333333333333</ele><time>2026-04-04T17:54:13Z</time></trkpt><trkpt lat="39.15321949174582" lon="8.683415231258964"><ele>105.66666666666666</ele><time>2026-04-04T17:54:14Z</time></trkpt><trkpt lat="39.15342994336899" lon="8.68333200785034"><ele>105.0</ele><time>2026-04-04T17:54:15Z</time></trkpt><trkpt lat="39.153623459486" lon="8.683278731051045"><ele>105.0</ele><time>2026-04-04T17:54:16Z</time></trkpt><trkpt lat="39.15380338681586" lon="8.683238763945054"><ele>105.0</ele><time>2026-04-04T17:54:17Z</time></trkpt><trkpt lat="39.15398758660463" lon="8.68325316823947"><ele>105.0</ele><time>2026-04-04T17:54:18Z</time></trkpt><trkpt lat="39.15418430803334" lon="8.683294190742151"><ele>105.0</ele><time>2026-04-04T17:54:19Z</time></trkpt><trkpt lat="39.15439008043411" lon="8.683338461976737"><ele>105.0</ele><time>2026-04-04T17:54:20Z</time></trkpt><trkpt lat="39.15460580555622" lon="8.68337066385861"><ele>105.0</ele><time>2026-04-04T17:54:21Z</time></trkpt><trkpt lat="39.1548176143894" lon="8.683418861752484"><ele>105.66666666666666</ele><time>2026-04-04T17:54:22Z</time></trkpt><trkpt lat="39.155025490435534" lon="8.683456155963261"><ele>106.33333333333333</ele><time>2026-04-04T17:54:23Z</time></trkpt><trkpt lat="39.15523088062663" lon="8.683475841742165"><ele>107.0</ele><time>2026-04-04T17:54:24Z</time></trkpt><trkpt lat="39.1554387424847" lon="8.683460657360284"><ele>107.0</ele><time>2026-04-04T17:54:25Z</time></trkpt><trkpt lat="39.15564965505753" lon="8.683413450891033"><ele>107.0</ele><time>2026-04-04T17:54:26Z</time></trkpt><trkpt lat="39.155861258714296" lon="8.683342944030105"><ele>107.0</ele><time>2026-04-04T17:54:27Z</time></trkpt><trkpt lat="39.15607021860867" lon="8.683248180778678"><ele>106.5</ele><time>2026-04-04T17:54:28Z</time></trkpt><trkpt lat="39.15628108931312" lon="8.683121904559078"><ele>106.0</ele><time>2026-04-04T17:54:29Z</time></trkpt><trkpt lat="39.15650361643134" lon="8.682963053723466"><ele>105.0</ele><time>2026-04-04T17:54:30Z</time></trkpt><trkpt lat="39.156726595723605" lon="8.682794571943248"><ele>104.0</ele><time>2026-04-04T17:54:31Z</time></trkpt><trkpt lat="39.15696479307181" lon="8.682626967861712"><ele>104.5</ele><time>2026-04-04T17:54:32Z</time></trkpt><trkpt lat="39.15721669218694" lon="8.682478538715676"><ele>105.0</ele><time>2026-04-04T17:54:33Z</time></trkpt><trkpt lat="39.15747667331586" lon="8.682331932104194"><ele>105.0</ele><time>2026-04-04T17:54:34Z</time></trkpt><trkpt lat="39.157734752523595" lon="8.682184861623874"><ele>105.0</ele><time>2026-04-04T17:54:35Z</time></trkpt><trkpt lat="39.157991309038145" lon="8.682037819092473"><ele>106.5</ele><time>2026-04-04T17:54:35.999Z</time></trkpt><trkpt lat="39.15825077760931" lon="8.681884241170508"><ele>108.0</ele><time>2026-04-04T17:54:36.999Z</time></trkpt><trkpt lat="39.15851494486423" lon="8.681731258887885"><ele>108.0</ele><time>2026-04-04T17:54:37.999Z</time></trkpt><trkpt lat="39.1587813540397" lon="8.681577337575312"><ele>108.0</ele><time>2026-04-04T17:54:38.999Z</time></trkpt><trkpt lat="39.15904835790282" lon="8.681425024414056"><ele>109.0</ele><time>2026-04-04T17:54:39.999Z</time></trkpt><trkpt lat="39.15931969842637" lon="8.681270299029205"><ele>110.0</ele><time>2026-04-04T17:54:40.999Z</time></trkpt><trkpt lat="39.159584660600075" lon="8.68111768575808"><ele>110.5</ele><time>2026-04-04T17:54:41.999Z</time></trkpt><trkpt lat="39.15984810563807" lon="8.680965355494461"><ele>111.0</ele><time>2026-04-04T17:54:42.999Z</time></trkpt><trkpt lat="39.16008299740434" lon="8.680826634080493"><ele>112.0</ele><time>2026-04-04T17:54:43.999Z</time></trkpt><trkpt lat="39.16029610848912" lon="8.680698466228618"><ele>113.0</ele><time>2026-04-04T17:54:44.999Z</time></trkpt><trkpt lat="39.160502321914" lon="8.680564468595879"><ele>113.0</ele><time>2026-04-04T17:54:45.999Z</time></trkpt><trkpt lat="39.160695661973435" lon="8.680422289191391"><ele>113.0</ele><time>2026-04-04T17:54:46.999Z</time></trkpt><trkpt lat="39.16088592437228" lon="8.680276242329073"><ele>113.0</ele><time>2026-04-04T17:54:47.999Z</time></trkpt><trkpt lat="39.16106654881246" lon="8.680143336784276"><ele>113.66666666666666</ele><time>2026-04-04T17:54:48.999Z</time></trkpt><trkpt lat="39.1612501911861" lon="8.680020090594688"><ele>114.33333333333334</ele><time>2026-04-04T17:54:49.999Z</time></trkpt><trkpt lat="39.16144210573922" lon="8.67991203641241"><ele>115.0</ele><time>2026-04-04T17:54:50.999Z</time></trkpt><trkpt lat="39.16164988477742" lon="8.679819231464986"><ele>118.0</ele><time>2026-04-04T17:54:51.999Z</time></trkpt><trkpt lat="39.16186795170125" lon="8.679746119587952"><ele>121.0</ele><time>2026-04-04T17:54:52.999Z</time></trkpt><trkpt lat="39.1620898662133" lon="8.679692356370374"><ele>121.0</ele><time>2026-04-04T17:54:53.999Z</time></trkpt><trkpt lat="39.16231822293045" lon="8.679649426220921"><ele>121.0</ele><time>2026-04-04T17:54:54.999Z</time></trkpt><trkpt lat="39.16254776238497" lon="8.679607502998358"><ele>122.5</ele><time>2026-04-04T17:54:55.999Z</time></trkpt><trkpt lat="39.16277684331351" lon="8.679555939847665"><ele>124.0</ele><time>2026-04-04T17:54:56.999Z</time></trkpt><trkpt lat="39.163006510360695" lon="8.679489103970637"><ele>123.0</ele><time>2026-04-04T17:54:57.999Z</time></trkpt><trkpt lat="39.16322923629774" lon="8.679405863486314"><ele>122.0</ele><time>2026-04-04T17:54:58.999Z</time></trkpt><trkpt lat="39.16344958430333" lon="8.679300937405173"><ele>122.0</ele><time>2026-04-04T17:54:59.999Z</time></trkpt><trkpt lat="39.16367524758007" lon="8.679188894096791"><ele>122.0</ele><time>2026-04-04T17:55:00.999Z</time></trkpt><trkpt lat="39.16390412807288" lon="8.67907403193067"><ele>121.5</ele><time>2026-04-04T17:55:01.999Z</time></trkpt><trkpt lat="39.16412536046153" lon="8.678965064953902"><ele>121.0</ele><time>2026-04-04T17:55:02.999Z</time></trkpt><trkpt lat="39.16432963046011" lon="8.67886521404112"><ele>121.0</ele><time>2026-04-04T17:55:03.999Z</time></trkpt><trkpt lat="39.16452089764997" lon="8.678774636225986"><ele>121.0</ele><time>2026-04-04T17:55:04.999Z</time></trkpt><trkpt lat="39.16486792007021" lon="8.67860636997263"><ele>122.0</ele><time>2026-04-04T17:55:06.999Z</time></trkpt><trkpt lat="39.16504357033851" lon="8.678515437119952"><ele>123.0</ele><time>2026-04-04T17:55:07.999Z</time></trkpt><trkpt lat="39.16521742327157" lon="8.67842330385424"><ele>124.0</ele><time>2026-04-04T17:55:08.999Z</time></trkpt><trkpt lat="39.16538804494991" lon="8.678321786351217"><ele>124.0</ele><time>2026-04-04T17:55:10Z</time></trkpt><trkpt lat="39.16555924987293" lon="8.67820895002244"><ele>124.0</ele><time>2026-04-04T17:55:11Z</time></trkpt><trkpt lat="39.16572369491012" lon="8.678092881888691"><ele>124.0</ele><time>2026-04-04T17:55:12Z</time></trkpt><trkpt lat="39.165873748388705" lon="8.677986905495363"><ele>124.0</ele><time>2026-04-04T17:55:13Z</time></trkpt><trkpt lat="39.166023655969106" lon="8.67787921460809"><ele>124.0</ele><time>2026-04-04T17:55:14Z</time></trkpt><trkpt lat="39.16617249298005" lon="8.677773406132948"><ele>124.0</ele><time>2026-04-04T17:55:15Z</time></trkpt><trkpt lat="39.16631592978449" lon="8.677669834315884"><ele>124.0</ele><time>2026-04-04T17:55:16Z</time></trkpt><trkpt lat="39.16645955849802" lon="8.67756559484817"><ele>124.0</ele><time>2026-04-04T17:55:17Z</time></trkpt><trkpt lat="39.16660008783815" lon="8.677464765475026"><ele>124.0</ele><time>2026-04-04T17:55:18Z</time></trkpt><trkpt lat="39.1667290761094" lon="8.677371300016931"><ele>123.0</ele><time>2026-04-04T17:55:19Z</time></trkpt><trkpt lat="39.1668395252236" lon="8.677293213747308"><ele>122.0</ele><time>2026-04-04T17:55:20Z</time></trkpt><trkpt lat="39.166935054518305" lon="8.677226397249601"><ele>121.0</ele><time>2026-04-04T17:55:21Z</time></trkpt><trkpt lat="39.16700867133555" lon="8.677173040764261"><ele>120.0</ele><time>2026-04-04T17:55:22Z</time></trkpt><trkpt lat="39.16706790294172" lon="8.677129223270661"><ele>119.0</ele><time>2026-04-04T17:55:23Z</time></trkpt><trkpt lat="39.16713477297519" lon="8.677082429251222"><ele>119.0</ele><time>2026-04-04T17:55:26Z</time></trkpt><trkpt lat="39.16722669911403" lon="8.677030789277978"><ele>119.0</ele><time>2026-04-04T17:56:14Z</time></trkpt><trkpt lat="39.16726928747466" lon="8.677154894699573"><ele>119.0</ele><time>2026-04-04T17:56:16Z</time></trkpt><trkpt lat="39.16747212138757" lon="8.677071033514741"><ele>119.0</ele><time>2026-04-04T17:56:19Z</time></trkpt><trkpt lat="39.16751844809198" lon="8.677002940471704"><ele>119.6</ele><time>2026-04-04T17:56:20Z</time></trkpt><trkpt lat="39.16756686362894" lon="8.6769191098187"><ele>120.2</ele><time>2026-04-04T17:56:21Z</time></trkpt><trkpt lat="39.16762334147053" lon="8.676820393779513"><ele>120.79999999999998</ele><time>2026-04-04T17:56:22Z</time></trkpt><trkpt lat="39.1676812506407" lon="8.676721978138788"><ele>121.39999999999999</ele><time>2026-04-04T17:56:23Z</time></trkpt><trkpt lat="39.167741678201914" lon="8.676618525642057"><ele>122.0</ele><time>2026-04-04T17:56:24Z</time></trkpt><trkpt lat="39.16783385142315" lon="8.676463137437718"><ele>122.0</ele><time>2026-04-04T17:56:26Z</time></trkpt><trkpt lat="39.16789764787896" lon="8.676369165941678"><ele>121.99999999999999</ele><time>2026-04-04T17:56:27Z</time></trkpt><trkpt lat="39.16796140049464" lon="8.676270534095588"><ele>121.99999999999999</ele><time>2026-04-04T17:56:27.999Z</time></trkpt><trkpt lat="39.168016435955394" lon="8.67616875149334"><ele>122.0</ele><time>2026-04-04T17:56:28.999Z</time></trkpt><trkpt lat="39.1680854300562" lon="8.676081300489425"><ele>122.0</ele><time>2026-04-04T17:56:29.999Z</time></trkpt><trkpt lat="39.16814711926087" lon="8.675999285845174"><ele>122.66666666666666</ele><time>2026-04-04T17:56:30.999Z</time></trkpt><trkpt lat="39.16820340175176" lon="8.675928991615024"><ele>123.33333333333333</ele><time>2026-04-04T17:56:31.999Z</time></trkpt><trkpt lat="39.16820937380254" lon="8.675793711200322"><ele>124.0</ele><time>2026-04-04T17:56:32.999Z</time></trkpt><trkpt lat="39.168254207762295" lon="8.675734271639929"><ele>124.66666666666666</ele><time>2026-04-04T17:56:33.999Z</time></trkpt><trkpt lat="39.16829863487264" lon="8.675668826309998"><ele>125.33333333333333</ele><time>2026-04-04T17:56:35.999Z</time></trkpt><trkpt lat="39.16832893122811" lon="8.67559158045267"><ele>126.0</ele><time>2026-04-04T17:56:39.999Z</time></trkpt><trkpt lat="39.16838569170862" lon="8.675490387554854"><ele>126.0</ele><time>2026-04-04T17:56:42.999Z</time></trkpt><trkpt lat="39.168431394711476" lon="8.67541258338877"><ele>126.0</ele><time>2026-04-04T17:56:44.999Z</time></trkpt><trkpt lat="39.16847198375887" lon="8.675334360502674"><ele>126.0</ele><time>2026-04-04T17:56:46.999Z</time></trkpt><trkpt lat="39.168536553714326" lon="8.67525952082714"><ele>126.0</ele><time>2026-04-04T17:56:48.999Z</time></trkpt><trkpt lat="39.16857686401968" lon="8.675195726656684"><ele>126.0</ele><time>2026-04-04T17:56:50.999Z</time></trkpt><trkpt lat="39.168622357859796" lon="8.675129078715392"><ele>126.0</ele><time>2026-04-04T17:56:53.999Z</time></trkpt><trkpt lat="39.168577739799005" lon="8.674976248074982"><ele>125.8</ele><time>2026-04-04T17:56:57.999Z</time></trkpt><trkpt lat="39.16852407427088" lon="8.674877484698802"><ele>125.6</ele><time>2026-04-04T17:57:00.999Z</time></trkpt><trkpt lat="39.16844860885138" lon="8.674764444564994"><ele>125.4</ele><time>2026-04-04T17:57:02.999Z</time></trkpt><trkpt lat="39.16838541712041" lon="8.67466343852637"><ele>125.2</ele><time>2026-04-04T17:57:04.999Z</time></trkpt><trkpt lat="39.16831958985559" lon="8.674561676330327"><ele>125.0</ele><time>2026-04-04T17:57:06.999Z</time></trkpt><trkpt lat="39.16825389551635" lon="8.674477983393336"><ele>124.25</ele><time>2026-04-04T17:57:08.999Z</time></trkpt><trkpt lat="39.168178896389165" lon="8.674345310466336"><ele>123.5</ele><time>2026-04-04T17:57:10.999Z</time></trkpt><trkpt lat="39.168125304841666" lon="8.674255373000188"><ele>122.75</ele><time>2026-04-04T17:57:11.999Z</time></trkpt><trkpt lat="39.16805322239857" lon="8.674114618897935"><ele>122.0</ele><time>2026-04-04T17:57:12.999Z</time></trkpt><trkpt lat="39.16797640391628" lon="8.674005489236443"><ele>122.0</ele><time>2026-04-04T17:57:13.999Z</time></trkpt><trkpt lat="39.167903055831175" lon="8.673891479607624"><ele>122.0</ele><time>2026-04-04T17:57:14.999Z</time></trkpt><trkpt lat="39.16782836602788" lon="8.673773335344563"><ele>122.0</ele><time>2026-04-04T17:57:16Z</time></trkpt><trkpt lat="39.167756430553496" lon="8.673665474501037"><ele>122.0</ele><time>2026-04-04T17:57:17Z</time></trkpt><trkpt lat="39.16768764307824" lon="8.673558403057308"><ele>122.19999999999999</ele><time>2026-04-04T17:57:18Z</time></trkpt><trkpt lat="39.16762166609689" lon="8.673447458473683"><ele>122.39999999999999</ele><time>2026-04-04T17:57:19Z</time></trkpt><trkpt lat="39.16755684817241" lon="8.673332705386434"><ele>122.60000000000001</ele><time>2026-04-04T17:57:20Z</time></trkpt><trkpt lat="39.16748994267053" lon="8.67322228955862"><ele>122.80000000000001</ele><time>2026-04-04T17:57:21Z</time></trkpt><trkpt lat="39.167420787120335" lon="8.673112770167224"><ele>123.0</ele><time>2026-04-04T17:57:22Z</time></trkpt><trkpt lat="39.167352641502056" lon="8.673007594995301"><ele>123.16666666666667</ele><time>2026-04-04T17:57:23Z</time></trkpt><trkpt lat="39.167288804899734" lon="8.672906115248676"><ele>123.33333333333334</ele><time>2026-04-04T17:57:24Z</time></trkpt><trkpt lat="39.16722868186083" lon="8.672807203346466"><ele>123.5</ele><time>2026-04-04T17:57:25Z</time></trkpt><trkpt lat="39.16717345484429" lon="8.672713333428948"><ele>123.66666666666667</ele><time>2026-04-04T17:57:26Z</time></trkpt><trkpt lat="39.1671286960993" lon="8.672641295517646"><ele>123.83333333333334</ele><time>2026-04-04T17:57:27Z</time></trkpt><trkpt lat="39.16706853422233" lon="8.672569029574634"><ele>124.0</ele><time>2026-04-04T17:57:29Z</time></trkpt><trkpt lat="39.166958077303455" lon="8.672744713566415"><ele>124.00000000000001</ele><time>2026-04-04T17:57:37Z</time></trkpt><trkpt lat="39.1669725072124" lon="8.672837284189157"><ele>124.0</ele><time>2026-04-04T17:57:38Z</time></trkpt><trkpt lat="39.166973048930465" lon="8.672943481052755"><ele>124.0</ele><time>2026-04-04T17:57:39Z</time></trkpt><trkpt lat="39.166972267256135" lon="8.673050257979323"><ele>124.0</ele><time>2026-04-04T17:57:40Z</time></trkpt><trkpt lat="39.16697406767707" lon="8.673172694460833"><ele>124.00000000000001</ele><time>2026-04-04T17:57:41Z</time></trkpt><trkpt lat="39.16697548142563" lon="8.673293159397819"><ele>124.0</ele><time>2026-04-04T17:57:42Z</time></trkpt><trkpt lat="39.16697650896216" lon="8.673406409445295"><ele>124.00000000000001</ele><time>2026-04-04T17:57:43Z</time></trkpt><trkpt lat="39.16697695771548" lon="8.673518707858447"><ele>124.0</ele><time>2026-04-04T17:57:44Z</time></trkpt><trkpt lat="39.16697794939003" lon="8.67362814458989"><ele>124.0</ele><time>2026-04-04T17:57:45Z</time></trkpt><trkpt lat="39.16697849016942" lon="8.673729871177857"><ele>124.0</ele><time>2026-04-04T17:57:46Z</time></trkpt><trkpt lat="39.16697835046702" lon="8.673815832924005"><ele>124.00000000000001</ele><time>2026-04-04T17:57:47Z</time></trkpt><trkpt lat="39.16698018432732" lon="8.67397483338338"><ele>124.0</ele><time>2026-04-04T17:57:49Z</time></trkpt><trkpt lat="39.16697517781237" lon="8.674106264445502"><ele>124.0</ele><time>2026-04-04T17:57:51Z</time></trkpt><trkpt lat="39.16697376963708" lon="8.67423322294874"><ele>124.0</ele><time>2026-04-04T17:57:53Z</time></trkpt><trkpt lat="39.16697753971154" lon="8.674363313489984"><ele>124.0</ele><time>2026-04-04T17:57:55Z</time></trkpt><trkpt lat="39.166972628901796" lon="8.674503741901844"><ele>122.0</ele><time>2026-04-04T17:57:57Z</time></trkpt><trkpt lat="39.16697290300179" lon="8.67459880283812"><ele>122.0</ele><time>2026-04-04T17:57:59Z</time></trkpt></trkseg></trk></gpx>